<?xml version="1.0" encoding="UTF-8" standalone="no" ?>
<gpx xmlns="http://www.topografix.com/GPX/1/1" xmlns:xsi="http://www.w3.org/2001/XMLSchema-instance" xsi:schemaLocation="http://www.topografix.com/GPX/1/1 http://www.topografix.com/GPX/1/1/gpx.xsd" version="1.1" creator="VisuGPX - https://www.visugpx.com">
  <metadata>
    <name>Pointe des Mattes avec Josiane.</name>
  </metadata>
  <trk>
    <name><![CDATA[Pointe des Mattes avec Josiane.]]></name>
    <trkseg>
      <trkpt lat="46.25062" lon="6.80991">
        <ele>1454.4</ele>
        <time>2022-03-06T08:58:14Z</time>
      </trkpt>
      <trkpt lat="46.25062" lon="6.80991">
        <ele>1177.4</ele>
        <time>2022-03-06T08:58:18Z</time>
      </trkpt>
      <trkpt lat="46.25061" lon="6.80989">
        <ele>1177.4</ele>
        <time>2022-03-06T08:58:20Z</time>
      </trkpt>
      <trkpt lat="46.25067" lon="6.80984">
        <ele>1177.2</ele>
        <time>2022-03-06T08:58:24Z</time>
      </trkpt>
      <trkpt lat="46.25066" lon="6.80984">
        <ele>1177</ele>
        <time>2022-03-06T08:58:30Z</time>
      </trkpt>
      <trkpt lat="46.25066" lon="6.80984">
        <ele>1177</ele>
        <time>2022-03-06T08:58:31Z</time>
      </trkpt>
      <trkpt lat="46.25065" lon="6.80984">
        <ele>1177</ele>
        <time>2022-03-06T08:58:37Z</time>
      </trkpt>
      <trkpt lat="46.25065" lon="6.80982">
        <ele>1176.8</ele>
        <time>2022-03-06T08:58:41Z</time>
      </trkpt>
      <trkpt lat="46.25066" lon="6.80982">
        <ele>1177</ele>
        <time>2022-03-06T08:58:46Z</time>
      </trkpt>
      <trkpt lat="46.25065" lon="6.80982">
        <ele>1176.8</ele>
        <time>2022-03-06T08:58:49Z</time>
      </trkpt>
      <trkpt lat="46.25064" lon="6.80982">
        <ele>1176.8</ele>
        <time>2022-03-06T08:58:51Z</time>
      </trkpt>
      <trkpt lat="46.25065" lon="6.80977">
        <ele>1176.8</ele>
        <time>2022-03-06T08:58:55Z</time>
      </trkpt>
      <trkpt lat="46.25065" lon="6.80975">
        <ele>1177</ele>
        <time>2022-03-06T08:58:56Z</time>
      </trkpt>
      <trkpt lat="46.25065" lon="6.80973">
        <ele>1176.8</ele>
        <time>2022-03-06T08:58:57Z</time>
      </trkpt>
      <trkpt lat="46.25065" lon="6.80972">
        <ele>1177</ele>
        <time>2022-03-06T08:58:58Z</time>
      </trkpt>
      <trkpt lat="46.25066" lon="6.8097">
        <ele>1176.8</ele>
        <time>2022-03-06T08:58:59Z</time>
      </trkpt>
      <trkpt lat="46.25066" lon="6.80967">
        <ele>1176.8</ele>
        <time>2022-03-06T08:59:00Z</time>
      </trkpt>
      <trkpt lat="46.25066" lon="6.80966">
        <ele>1177.2</ele>
        <time>2022-03-06T08:59:01Z</time>
      </trkpt>
      <trkpt lat="46.25066" lon="6.80964">
        <ele>1177.4</ele>
        <time>2022-03-06T08:59:02Z</time>
      </trkpt>
      <trkpt lat="46.25067" lon="6.80962">
        <ele>1177.4</ele>
        <time>2022-03-06T08:59:03Z</time>
      </trkpt>
      <trkpt lat="46.25066" lon="6.80961">
        <ele>1177.4</ele>
        <time>2022-03-06T08:59:04Z</time>
      </trkpt>
      <trkpt lat="46.25066" lon="6.8096">
        <ele>1177.8</ele>
        <time>2022-03-06T08:59:05Z</time>
      </trkpt>
      <trkpt lat="46.25065" lon="6.80959">
        <ele>1178</ele>
        <time>2022-03-06T08:59:06Z</time>
      </trkpt>
      <trkpt lat="46.25064" lon="6.80958">
        <ele>1178.2</ele>
        <time>2022-03-06T08:59:07Z</time>
      </trkpt>
      <trkpt lat="46.25063" lon="6.80958">
        <ele>1178.2</ele>
        <time>2022-03-06T08:59:08Z</time>
      </trkpt>
      <trkpt lat="46.25062" lon="6.80957">
        <ele>1178.6</ele>
        <time>2022-03-06T08:59:09Z</time>
      </trkpt>
      <trkpt lat="46.25062" lon="6.80956">
        <ele>1178.8</ele>
        <time>2022-03-06T08:59:10Z</time>
      </trkpt>
      <trkpt lat="46.25061" lon="6.80956">
        <ele>1179</ele>
        <time>2022-03-06T08:59:11Z</time>
      </trkpt>
      <trkpt lat="46.2506" lon="6.80956">
        <ele>1179</ele>
        <time>2022-03-06T08:59:12Z</time>
      </trkpt>
      <trkpt lat="46.25058" lon="6.80957">
        <ele>1179.4</ele>
        <time>2022-03-06T08:59:13Z</time>
      </trkpt>
      <trkpt lat="46.25057" lon="6.80957">
        <ele>1179.4</ele>
        <time>2022-03-06T08:59:14Z</time>
      </trkpt>
      <trkpt lat="46.25057" lon="6.80956">
        <ele>1179.6</ele>
        <time>2022-03-06T08:59:15Z</time>
      </trkpt>
      <trkpt lat="46.25056" lon="6.80956">
        <ele>1179.6</ele>
        <time>2022-03-06T08:59:16Z</time>
      </trkpt>
      <trkpt lat="46.25054" lon="6.80956">
        <ele>1179.6</ele>
        <time>2022-03-06T08:59:17Z</time>
      </trkpt>
      <trkpt lat="46.25053" lon="6.80956">
        <ele>1180</ele>
        <time>2022-03-06T08:59:18Z</time>
      </trkpt>
      <trkpt lat="46.25052" lon="6.80955">
        <ele>1180.2</ele>
        <time>2022-03-06T08:59:19Z</time>
      </trkpt>
      <trkpt lat="46.25051" lon="6.80955">
        <ele>1180.2</ele>
        <time>2022-03-06T08:59:20Z</time>
      </trkpt>
      <trkpt lat="46.25049" lon="6.80956">
        <ele>1180.4</ele>
        <time>2022-03-06T08:59:21Z</time>
      </trkpt>
      <trkpt lat="46.25047" lon="6.80956">
        <ele>1180.4</ele>
        <time>2022-03-06T08:59:22Z</time>
      </trkpt>
      <trkpt lat="46.25045" lon="6.80957">
        <ele>1180.8</ele>
        <time>2022-03-06T08:59:23Z</time>
      </trkpt>
      <trkpt lat="46.25044" lon="6.80956">
        <ele>1180.8</ele>
        <time>2022-03-06T08:59:24Z</time>
      </trkpt>
      <trkpt lat="46.25043" lon="6.80955">
        <ele>1181</ele>
        <time>2022-03-06T08:59:25Z</time>
      </trkpt>
      <trkpt lat="46.25042" lon="6.80955">
        <ele>1181</ele>
        <time>2022-03-06T08:59:26Z</time>
      </trkpt>
      <trkpt lat="46.25041" lon="6.80954">
        <ele>1181.2</ele>
        <time>2022-03-06T08:59:27Z</time>
      </trkpt>
      <trkpt lat="46.2504" lon="6.80953">
        <ele>1181.4</ele>
        <time>2022-03-06T08:59:28Z</time>
      </trkpt>
      <trkpt lat="46.25039" lon="6.80952">
        <ele>1181.6</ele>
        <time>2022-03-06T08:59:29Z</time>
      </trkpt>
      <trkpt lat="46.25038" lon="6.80951">
        <ele>1182</ele>
        <time>2022-03-06T08:59:30Z</time>
      </trkpt>
      <trkpt lat="46.25037" lon="6.8095">
        <ele>1182</ele>
        <time>2022-03-06T08:59:31Z</time>
      </trkpt>
      <trkpt lat="46.25036" lon="6.80949">
        <ele>1182.2</ele>
        <time>2022-03-06T08:59:32Z</time>
      </trkpt>
      <trkpt lat="46.25036" lon="6.80948">
        <ele>1182.2</ele>
        <time>2022-03-06T08:59:33Z</time>
      </trkpt>
      <trkpt lat="46.25035" lon="6.80947">
        <ele>1182.2</ele>
        <time>2022-03-06T08:59:34Z</time>
      </trkpt>
      <trkpt lat="46.25035" lon="6.80946">
        <ele>1182.2</ele>
        <time>2022-03-06T08:59:35Z</time>
      </trkpt>
      <trkpt lat="46.25035" lon="6.80945">
        <ele>1182.4</ele>
        <time>2022-03-06T08:59:36Z</time>
      </trkpt>
      <trkpt lat="46.25034" lon="6.80943">
        <ele>1182.4</ele>
        <time>2022-03-06T08:59:37Z</time>
      </trkpt>
      <trkpt lat="46.25034" lon="6.80942">
        <ele>1182.6</ele>
        <time>2022-03-06T08:59:38Z</time>
      </trkpt>
      <trkpt lat="46.25034" lon="6.80941">
        <ele>1182.4</ele>
        <time>2022-03-06T08:59:39Z</time>
      </trkpt>
      <trkpt lat="46.25034" lon="6.80939">
        <ele>1182.6</ele>
        <time>2022-03-06T08:59:40Z</time>
      </trkpt>
      <trkpt lat="46.25034" lon="6.80938">
        <ele>1182.6</ele>
        <time>2022-03-06T08:59:41Z</time>
      </trkpt>
      <trkpt lat="46.25034" lon="6.80937">
        <ele>1182.6</ele>
        <time>2022-03-06T08:59:42Z</time>
      </trkpt>
      <trkpt lat="46.25034" lon="6.80936">
        <ele>1182.8</ele>
        <time>2022-03-06T08:59:43Z</time>
      </trkpt>
      <trkpt lat="46.25034" lon="6.80934">
        <ele>1182.6</ele>
        <time>2022-03-06T08:59:44Z</time>
      </trkpt>
      <trkpt lat="46.25035" lon="6.80933">
        <ele>1183</ele>
        <time>2022-03-06T08:59:45Z</time>
      </trkpt>
      <trkpt lat="46.25034" lon="6.80932">
        <ele>1183.2</ele>
        <time>2022-03-06T08:59:46Z</time>
      </trkpt>
      <trkpt lat="46.25034" lon="6.8093">
        <ele>1183.2</ele>
        <time>2022-03-06T08:59:47Z</time>
      </trkpt>
      <trkpt lat="46.25035" lon="6.80929">
        <ele>1183.4</ele>
        <time>2022-03-06T08:59:48Z</time>
      </trkpt>
      <trkpt lat="46.25035" lon="6.80928">
        <ele>1183.4</ele>
        <time>2022-03-06T08:59:49Z</time>
      </trkpt>
      <trkpt lat="46.25035" lon="6.80927">
        <ele>1183.6</ele>
        <time>2022-03-06T08:59:50Z</time>
      </trkpt>
      <trkpt lat="46.25035" lon="6.80926">
        <ele>1183.6</ele>
        <time>2022-03-06T08:59:51Z</time>
      </trkpt>
      <trkpt lat="46.25036" lon="6.80925">
        <ele>1183.8</ele>
        <time>2022-03-06T08:59:52Z</time>
      </trkpt>
      <trkpt lat="46.25036" lon="6.80924">
        <ele>1184</ele>
        <time>2022-03-06T08:59:53Z</time>
      </trkpt>
      <trkpt lat="46.25037" lon="6.80923">
        <ele>1184</ele>
        <time>2022-03-06T08:59:54Z</time>
      </trkpt>
      <trkpt lat="46.25037" lon="6.80921">
        <ele>1184.2</ele>
        <time>2022-03-06T08:59:55Z</time>
      </trkpt>
      <trkpt lat="46.25038" lon="6.8092">
        <ele>1184.2</ele>
        <time>2022-03-06T08:59:56Z</time>
      </trkpt>
      <trkpt lat="46.25039" lon="6.80918">
        <ele>1184.2</ele>
        <time>2022-03-06T08:59:57Z</time>
      </trkpt>
      <trkpt lat="46.25039" lon="6.80917">
        <ele>1184.6</ele>
        <time>2022-03-06T08:59:58Z</time>
      </trkpt>
      <trkpt lat="46.2504" lon="6.80916">
        <ele>1184.6</ele>
        <time>2022-03-06T08:59:59Z</time>
      </trkpt>
      <trkpt lat="46.25041" lon="6.80915">
        <ele>1184.8</ele>
        <time>2022-03-06T09:00:00Z</time>
      </trkpt>
      <trkpt lat="46.25042" lon="6.80914">
        <ele>1184.8</ele>
        <time>2022-03-06T09:00:01Z</time>
      </trkpt>
      <trkpt lat="46.25043" lon="6.80913">
        <ele>1184.8</ele>
        <time>2022-03-06T09:00:02Z</time>
      </trkpt>
      <trkpt lat="46.25043" lon="6.80912">
        <ele>1185.2</ele>
        <time>2022-03-06T09:00:03Z</time>
      </trkpt>
      <trkpt lat="46.25044" lon="6.80911">
        <ele>1185.2</ele>
        <time>2022-03-06T09:00:04Z</time>
      </trkpt>
      <trkpt lat="46.25044" lon="6.80911">
        <ele>1185.2</ele>
        <time>2022-03-06T09:00:05Z</time>
      </trkpt>
      <trkpt lat="46.25045" lon="6.8091">
        <ele>1185.4</ele>
        <time>2022-03-06T09:00:06Z</time>
      </trkpt>
      <trkpt lat="46.25046" lon="6.80909">
        <ele>1185.6</ele>
        <time>2022-03-06T09:00:07Z</time>
      </trkpt>
      <trkpt lat="46.25047" lon="6.80908">
        <ele>1185.6</ele>
        <time>2022-03-06T09:00:08Z</time>
      </trkpt>
      <trkpt lat="46.25047" lon="6.80908">
        <ele>1185.8</ele>
        <time>2022-03-06T09:00:09Z</time>
      </trkpt>
      <trkpt lat="46.25048" lon="6.80907">
        <ele>1186</ele>
        <time>2022-03-06T09:00:10Z</time>
      </trkpt>
      <trkpt lat="46.25048" lon="6.80906">
        <ele>1186.2</ele>
        <time>2022-03-06T09:00:11Z</time>
      </trkpt>
      <trkpt lat="46.25049" lon="6.80904">
        <ele>1186.4</ele>
        <time>2022-03-06T09:00:12Z</time>
      </trkpt>
      <trkpt lat="46.2505" lon="6.80903">
        <ele>1186.8</ele>
        <time>2022-03-06T09:00:13Z</time>
      </trkpt>
      <trkpt lat="46.25051" lon="6.80902">
        <ele>1186.8</ele>
        <time>2022-03-06T09:00:14Z</time>
      </trkpt>
      <trkpt lat="46.25053" lon="6.80901">
        <ele>1187</ele>
        <time>2022-03-06T09:00:15Z</time>
      </trkpt>
      <trkpt lat="46.25053" lon="6.809">
        <ele>1187</ele>
        <time>2022-03-06T09:00:16Z</time>
      </trkpt>
      <trkpt lat="46.25054" lon="6.809">
        <ele>1187.4</ele>
        <time>2022-03-06T09:00:17Z</time>
      </trkpt>
      <trkpt lat="46.25054" lon="6.80899">
        <ele>1187.4</ele>
        <time>2022-03-06T09:00:18Z</time>
      </trkpt>
      <trkpt lat="46.25055" lon="6.80898">
        <ele>1187.4</ele>
        <time>2022-03-06T09:00:19Z</time>
      </trkpt>
      <trkpt lat="46.25056" lon="6.80897">
        <ele>1187.6</ele>
        <time>2022-03-06T09:00:20Z</time>
      </trkpt>
      <trkpt lat="46.25057" lon="6.80896">
        <ele>1187.6</ele>
        <time>2022-03-06T09:00:21Z</time>
      </trkpt>
      <trkpt lat="46.25058" lon="6.80895">
        <ele>1187.8</ele>
        <time>2022-03-06T09:00:22Z</time>
      </trkpt>
      <trkpt lat="46.25058" lon="6.80894">
        <ele>1188.2</ele>
        <time>2022-03-06T09:00:23Z</time>
      </trkpt>
      <trkpt lat="46.25059" lon="6.80893">
        <ele>1188.4</ele>
        <time>2022-03-06T09:00:24Z</time>
      </trkpt>
      <trkpt lat="46.2506" lon="6.80892">
        <ele>1188.8</ele>
        <time>2022-03-06T09:00:25Z</time>
      </trkpt>
      <trkpt lat="46.2506" lon="6.80891">
        <ele>1189</ele>
        <time>2022-03-06T09:00:26Z</time>
      </trkpt>
      <trkpt lat="46.25061" lon="6.80889">
        <ele>1189.2</ele>
        <time>2022-03-06T09:00:27Z</time>
      </trkpt>
      <trkpt lat="46.25061" lon="6.80888">
        <ele>1189.4</ele>
        <time>2022-03-06T09:00:28Z</time>
      </trkpt>
      <trkpt lat="46.25061" lon="6.80886">
        <ele>1189.4</ele>
        <time>2022-03-06T09:00:29Z</time>
      </trkpt>
      <trkpt lat="46.25061" lon="6.80885">
        <ele>1189.6</ele>
        <time>2022-03-06T09:00:30Z</time>
      </trkpt>
      <trkpt lat="46.25061" lon="6.80884">
        <ele>1189.8</ele>
        <time>2022-03-06T09:00:31Z</time>
      </trkpt>
      <trkpt lat="46.25062" lon="6.80883">
        <ele>1190</ele>
        <time>2022-03-06T09:00:32Z</time>
      </trkpt>
      <trkpt lat="46.25062" lon="6.80882">
        <ele>1190.4</ele>
        <time>2022-03-06T09:00:33Z</time>
      </trkpt>
      <trkpt lat="46.25062" lon="6.80881">
        <ele>1190.4</ele>
        <time>2022-03-06T09:00:34Z</time>
      </trkpt>
      <trkpt lat="46.25063" lon="6.8088">
        <ele>1190.4</ele>
        <time>2022-03-06T09:00:35Z</time>
      </trkpt>
      <trkpt lat="46.25063" lon="6.80879">
        <ele>1190.8</ele>
        <time>2022-03-06T09:00:36Z</time>
      </trkpt>
      <trkpt lat="46.25063" lon="6.80879">
        <ele>1190.8</ele>
        <time>2022-03-06T09:00:37Z</time>
      </trkpt>
      <trkpt lat="46.25064" lon="6.80878">
        <ele>1191</ele>
        <time>2022-03-06T09:00:38Z</time>
      </trkpt>
      <trkpt lat="46.25065" lon="6.80877">
        <ele>1191.2</ele>
        <time>2022-03-06T09:00:39Z</time>
      </trkpt>
      <trkpt lat="46.25065" lon="6.80876">
        <ele>1191.4</ele>
        <time>2022-03-06T09:00:40Z</time>
      </trkpt>
      <trkpt lat="46.25066" lon="6.80876">
        <ele>1191.4</ele>
        <time>2022-03-06T09:00:41Z</time>
      </trkpt>
      <trkpt lat="46.25066" lon="6.80875">
        <ele>1191.4</ele>
        <time>2022-03-06T09:00:42Z</time>
      </trkpt>
      <trkpt lat="46.25067" lon="6.80874">
        <ele>1191.6</ele>
        <time>2022-03-06T09:00:43Z</time>
      </trkpt>
      <trkpt lat="46.25068" lon="6.80873">
        <ele>1191.8</ele>
        <time>2022-03-06T09:00:44Z</time>
      </trkpt>
      <trkpt lat="46.25068" lon="6.80872">
        <ele>1191.8</ele>
        <time>2022-03-06T09:00:45Z</time>
      </trkpt>
      <trkpt lat="46.25069" lon="6.80871">
        <ele>1192</ele>
        <time>2022-03-06T09:00:46Z</time>
      </trkpt>
      <trkpt lat="46.2507" lon="6.8087">
        <ele>1192.2</ele>
        <time>2022-03-06T09:00:47Z</time>
      </trkpt>
      <trkpt lat="46.25071" lon="6.80869">
        <ele>1192.4</ele>
        <time>2022-03-06T09:00:48Z</time>
      </trkpt>
      <trkpt lat="46.25071" lon="6.80868">
        <ele>1192.6</ele>
        <time>2022-03-06T09:00:49Z</time>
      </trkpt>
      <trkpt lat="46.25072" lon="6.80868">
        <ele>1192.6</ele>
        <time>2022-03-06T09:00:50Z</time>
      </trkpt>
      <trkpt lat="46.25073" lon="6.80867">
        <ele>1193</ele>
        <time>2022-03-06T09:00:51Z</time>
      </trkpt>
      <trkpt lat="46.25073" lon="6.80866">
        <ele>1193</ele>
        <time>2022-03-06T09:00:52Z</time>
      </trkpt>
      <trkpt lat="46.25074" lon="6.80866">
        <ele>1193</ele>
        <time>2022-03-06T09:00:53Z</time>
      </trkpt>
      <trkpt lat="46.25074" lon="6.80866">
        <ele>1193</ele>
        <time>2022-03-06T09:00:54Z</time>
      </trkpt>
      <trkpt lat="46.25075" lon="6.80865">
        <ele>1193.4</ele>
        <time>2022-03-06T09:00:55Z</time>
      </trkpt>
      <trkpt lat="46.25075" lon="6.80864">
        <ele>1193.4</ele>
        <time>2022-03-06T09:00:56Z</time>
      </trkpt>
      <trkpt lat="46.25076" lon="6.80864">
        <ele>1193.6</ele>
        <time>2022-03-06T09:00:57Z</time>
      </trkpt>
      <trkpt lat="46.25076" lon="6.80863">
        <ele>1193.8</ele>
        <time>2022-03-06T09:00:58Z</time>
      </trkpt>
      <trkpt lat="46.25076" lon="6.80863">
        <ele>1193.8</ele>
        <time>2022-03-06T09:00:59Z</time>
      </trkpt>
      <trkpt lat="46.25076" lon="6.80862">
        <ele>1194.2</ele>
        <time>2022-03-06T09:01:00Z</time>
      </trkpt>
      <trkpt lat="46.25077" lon="6.80862">
        <ele>1194</ele>
        <time>2022-03-06T09:01:01Z</time>
      </trkpt>
      <trkpt lat="46.25077" lon="6.80861">
        <ele>1194.2</ele>
        <time>2022-03-06T09:01:02Z</time>
      </trkpt>
      <trkpt lat="46.25077" lon="6.80861">
        <ele>1194.2</ele>
        <time>2022-03-06T09:01:03Z</time>
      </trkpt>
      <trkpt lat="46.25077" lon="6.80861">
        <ele>1194.2</ele>
        <time>2022-03-06T09:01:04Z</time>
      </trkpt>
      <trkpt lat="46.25078" lon="6.8086">
        <ele>1194</ele>
        <time>2022-03-06T09:01:05Z</time>
      </trkpt>
      <trkpt lat="46.25078" lon="6.80859">
        <ele>1194.2</ele>
        <time>2022-03-06T09:01:06Z</time>
      </trkpt>
      <trkpt lat="46.25079" lon="6.80859">
        <ele>1194.2</ele>
        <time>2022-03-06T09:01:07Z</time>
      </trkpt>
      <trkpt lat="46.25079" lon="6.80859">
        <ele>1194.2</ele>
        <time>2022-03-06T09:01:08Z</time>
      </trkpt>
      <trkpt lat="46.25079" lon="6.80859">
        <ele>1194.2</ele>
        <time>2022-03-06T09:01:09Z</time>
      </trkpt>
      <trkpt lat="46.2508" lon="6.80859">
        <ele>1194.2</ele>
        <time>2022-03-06T09:01:10Z</time>
      </trkpt>
      <trkpt lat="46.2508" lon="6.80859">
        <ele>1194.2</ele>
        <time>2022-03-06T09:01:11Z</time>
      </trkpt>
      <trkpt lat="46.25081" lon="6.80859">
        <ele>1194.4</ele>
        <time>2022-03-06T09:01:13Z</time>
      </trkpt>
      <trkpt lat="46.25079" lon="6.80861">
        <ele>1194.2</ele>
        <time>2022-03-06T09:01:17Z</time>
      </trkpt>
      <trkpt lat="46.25079" lon="6.8086">
        <ele>1194.4</ele>
        <time>2022-03-06T09:01:18Z</time>
      </trkpt>
      <trkpt lat="46.25076" lon="6.80863">
        <ele>1194.2</ele>
        <time>2022-03-06T09:01:22Z</time>
      </trkpt>
      <trkpt lat="46.25074" lon="6.80867">
        <ele>1194.4</ele>
        <time>2022-03-06T09:01:28Z</time>
      </trkpt>
      <trkpt lat="46.25073" lon="6.8087">
        <ele>1194.2</ele>
        <time>2022-03-06T09:01:33Z</time>
      </trkpt>
      <trkpt lat="46.25072" lon="6.8087">
        <ele>1194</ele>
        <time>2022-03-06T09:01:35Z</time>
      </trkpt>
      <trkpt lat="46.25071" lon="6.80872">
        <ele>1194</ele>
        <time>2022-03-06T09:01:38Z</time>
      </trkpt>
      <trkpt lat="46.2507" lon="6.80872">
        <ele>1194.2</ele>
        <time>2022-03-06T09:01:44Z</time>
      </trkpt>
      <trkpt lat="46.25069" lon="6.8087">
        <ele>1194</ele>
        <time>2022-03-06T09:01:49Z</time>
      </trkpt>
      <trkpt lat="46.2507" lon="6.8087">
        <ele>1194</ele>
        <time>2022-03-06T09:01:50Z</time>
      </trkpt>
      <trkpt lat="46.25066" lon="6.80867">
        <ele>1194.4</ele>
        <time>2022-03-06T09:01:55Z</time>
      </trkpt>
      <trkpt lat="46.25066" lon="6.80865">
        <ele>1194.2</ele>
        <time>2022-03-06T09:02:00Z</time>
      </trkpt>
      <trkpt lat="46.25065" lon="6.80865">
        <ele>1194.2</ele>
        <time>2022-03-06T09:02:05Z</time>
      </trkpt>
      <trkpt lat="46.25065" lon="6.80865">
        <ele>1194.2</ele>
        <time>2022-03-06T09:02:06Z</time>
      </trkpt>
      <trkpt lat="46.25065" lon="6.80867">
        <ele>1194.2</ele>
        <time>2022-03-06T09:02:11Z</time>
      </trkpt>
      <trkpt lat="46.25065" lon="6.80868">
        <ele>1194.4</ele>
        <time>2022-03-06T09:02:16Z</time>
      </trkpt>
      <trkpt lat="46.25065" lon="6.80869">
        <ele>1194.4</ele>
        <time>2022-03-06T09:02:21Z</time>
      </trkpt>
      <trkpt lat="46.25066" lon="6.80868">
        <ele>1194.2</ele>
        <time>2022-03-06T09:02:27Z</time>
      </trkpt>
      <trkpt lat="46.25065" lon="6.80869">
        <ele>1194.2</ele>
        <time>2022-03-06T09:02:28Z</time>
      </trkpt>
      <trkpt lat="46.25062" lon="6.80869">
        <ele>1194</ele>
        <time>2022-03-06T09:02:35Z</time>
      </trkpt>
      <trkpt lat="46.2506" lon="6.80869">
        <ele>1193.6</ele>
        <time>2022-03-06T09:02:41Z</time>
      </trkpt>
      <trkpt lat="46.2506" lon="6.8087">
        <ele>1193.6</ele>
        <time>2022-03-06T09:02:46Z</time>
      </trkpt>
      <trkpt lat="46.2506" lon="6.80871">
        <ele>1193.8</ele>
        <time>2022-03-06T09:02:49Z</time>
      </trkpt>
      <trkpt lat="46.2506" lon="6.80871">
        <ele>1193.6</ele>
        <time>2022-03-06T09:02:51Z</time>
      </trkpt>
      <trkpt lat="46.25059" lon="6.80871">
        <ele>1193.8</ele>
        <time>2022-03-06T09:02:57Z</time>
      </trkpt>
      <trkpt lat="46.25059" lon="6.80871">
        <ele>1193.6</ele>
        <time>2022-03-06T09:03:00Z</time>
      </trkpt>
      <trkpt lat="46.25059" lon="6.80871">
        <ele>1193.8</ele>
        <time>2022-03-06T09:03:03Z</time>
      </trkpt>
      <trkpt lat="46.2506" lon="6.8087">
        <ele>1193.6</ele>
        <time>2022-03-06T09:03:08Z</time>
      </trkpt>
      <trkpt lat="46.25061" lon="6.8087">
        <ele>1193.6</ele>
        <time>2022-03-06T09:03:11Z</time>
      </trkpt>
      <trkpt lat="46.25061" lon="6.80869">
        <ele>1193.8</ele>
        <time>2022-03-06T09:03:12Z</time>
      </trkpt>
      <trkpt lat="46.25061" lon="6.80869">
        <ele>1193.6</ele>
        <time>2022-03-06T09:03:14Z</time>
      </trkpt>
      <trkpt lat="46.25061" lon="6.80869">
        <ele>1193.8</ele>
        <time>2022-03-06T09:03:15Z</time>
      </trkpt>
      <trkpt lat="46.25061" lon="6.80869">
        <ele>1193.8</ele>
        <time>2022-03-06T09:03:21Z</time>
      </trkpt>
      <trkpt lat="46.25061" lon="6.80869">
        <ele>1193.8</ele>
        <time>2022-03-06T09:03:26Z</time>
      </trkpt>
      <trkpt lat="46.25062" lon="6.80867">
        <ele>1194</ele>
        <time>2022-03-06T09:03:31Z</time>
      </trkpt>
      <trkpt lat="46.25062" lon="6.80863">
        <ele>1194</ele>
        <time>2022-03-06T09:03:37Z</time>
      </trkpt>
      <trkpt lat="46.25065" lon="6.80862">
        <ele>1193.8</ele>
        <time>2022-03-06T09:03:45Z</time>
      </trkpt>
      <trkpt lat="46.25064" lon="6.80863">
        <ele>1194</ele>
        <time>2022-03-06T09:03:49Z</time>
      </trkpt>
      <trkpt lat="46.25063" lon="6.80864">
        <ele>1194</ele>
        <time>2022-03-06T09:03:51Z</time>
      </trkpt>
      <trkpt lat="46.25062" lon="6.80862">
        <ele>1194</ele>
        <time>2022-03-06T09:03:56Z</time>
      </trkpt>
      <trkpt lat="46.25063" lon="6.8086">
        <ele>1194</ele>
        <time>2022-03-06T09:04:03Z</time>
      </trkpt>
      <trkpt lat="46.25065" lon="6.80861">
        <ele>1193.8</ele>
        <time>2022-03-06T09:04:05Z</time>
      </trkpt>
      <trkpt lat="46.25066" lon="6.8086">
        <ele>1194</ele>
        <time>2022-03-06T09:04:09Z</time>
      </trkpt>
      <trkpt lat="46.25068" lon="6.80858">
        <ele>1193.8</ele>
        <time>2022-03-06T09:04:14Z</time>
      </trkpt>
      <trkpt lat="46.25067" lon="6.80857">
        <ele>1193.8</ele>
        <time>2022-03-06T09:04:22Z</time>
      </trkpt>
      <trkpt lat="46.25067" lon="6.80858">
        <ele>1193.8</ele>
        <time>2022-03-06T09:04:23Z</time>
      </trkpt>
      <trkpt lat="46.25067" lon="6.80859">
        <ele>1193.8</ele>
        <time>2022-03-06T09:04:29Z</time>
      </trkpt>
      <trkpt lat="46.25068" lon="6.80862">
        <ele>1193.8</ele>
        <time>2022-03-06T09:04:32Z</time>
      </trkpt>
      <trkpt lat="46.25068" lon="6.80863">
        <ele>1193.8</ele>
        <time>2022-03-06T09:04:35Z</time>
      </trkpt>
      <trkpt lat="46.25067" lon="6.80863">
        <ele>1193.8</ele>
        <time>2022-03-06T09:04:38Z</time>
      </trkpt>
      <trkpt lat="46.25068" lon="6.80866">
        <ele>1194.2</ele>
        <time>2022-03-06T09:04:44Z</time>
      </trkpt>
      <trkpt lat="46.2507" lon="6.80868">
        <ele>1194.4</ele>
        <time>2022-03-06T09:04:49Z</time>
      </trkpt>
      <trkpt lat="46.2507" lon="6.80868">
        <ele>1194.4</ele>
        <time>2022-03-06T09:04:50Z</time>
      </trkpt>
      <trkpt lat="46.25071" lon="6.80868">
        <ele>1194.4</ele>
        <time>2022-03-06T09:04:53Z</time>
      </trkpt>
      <trkpt lat="46.25071" lon="6.8087">
        <ele>1194.2</ele>
        <time>2022-03-06T09:04:59Z</time>
      </trkpt>
      <trkpt lat="46.25071" lon="6.8087">
        <ele>1194.4</ele>
        <time>2022-03-06T09:05:00Z</time>
      </trkpt>
      <trkpt lat="46.25072" lon="6.80867">
        <ele>1194.4</ele>
        <time>2022-03-06T09:05:07Z</time>
      </trkpt>
      <trkpt lat="46.25071" lon="6.80869">
        <ele>1194.4</ele>
        <time>2022-03-06T09:05:13Z</time>
      </trkpt>
      <trkpt lat="46.2507" lon="6.80869">
        <ele>1194.4</ele>
        <time>2022-03-06T09:05:18Z</time>
      </trkpt>
      <trkpt lat="46.25069" lon="6.80867">
        <ele>1194.2</ele>
        <time>2022-03-06T09:05:25Z</time>
      </trkpt>
      <trkpt lat="46.25068" lon="6.80866">
        <ele>1194.4</ele>
        <time>2022-03-06T09:05:28Z</time>
      </trkpt>
      <trkpt lat="46.25067" lon="6.80864">
        <ele>1194.4</ele>
        <time>2022-03-06T09:05:33Z</time>
      </trkpt>
      <trkpt lat="46.25067" lon="6.80862">
        <ele>1194.4</ele>
        <time>2022-03-06T09:05:38Z</time>
      </trkpt>
      <trkpt lat="46.25066" lon="6.8086">
        <ele>1194.4</ele>
        <time>2022-03-06T09:05:42Z</time>
      </trkpt>
      <trkpt lat="46.25066" lon="6.8086">
        <ele>1194.2</ele>
        <time>2022-03-06T09:05:45Z</time>
      </trkpt>
      <trkpt lat="46.25068" lon="6.80861">
        <ele>1194.2</ele>
        <time>2022-03-06T09:05:51Z</time>
      </trkpt>
      <trkpt lat="46.25068" lon="6.80863">
        <ele>1194.2</ele>
        <time>2022-03-06T09:05:55Z</time>
      </trkpt>
      <trkpt lat="46.25069" lon="6.80863">
        <ele>1194.4</ele>
        <time>2022-03-06T09:05:56Z</time>
      </trkpt>
      <trkpt lat="46.25068" lon="6.80865">
        <ele>1194.4</ele>
        <time>2022-03-06T09:06:01Z</time>
      </trkpt>
      <trkpt lat="46.25069" lon="6.80868">
        <ele>1194.6</ele>
        <time>2022-03-06T09:06:08Z</time>
      </trkpt>
      <trkpt lat="46.25069" lon="6.8087">
        <ele>1194.6</ele>
        <time>2022-03-06T09:06:14Z</time>
      </trkpt>
      <trkpt lat="46.25069" lon="6.8087">
        <ele>1194.6</ele>
        <time>2022-03-06T09:06:15Z</time>
      </trkpt>
      <trkpt lat="46.25071" lon="6.80872">
        <ele>1194.6</ele>
        <time>2022-03-06T09:06:19Z</time>
      </trkpt>
      <trkpt lat="46.25072" lon="6.80872">
        <ele>1194.6</ele>
        <time>2022-03-06T09:06:20Z</time>
      </trkpt>
      <trkpt lat="46.25073" lon="6.80872">
        <ele>1194.8</ele>
        <time>2022-03-06T09:06:21Z</time>
      </trkpt>
      <trkpt lat="46.25073" lon="6.80872">
        <ele>1194.6</ele>
        <time>2022-03-06T09:06:22Z</time>
      </trkpt>
      <trkpt lat="46.25074" lon="6.80872">
        <ele>1194.6</ele>
        <time>2022-03-06T09:06:23Z</time>
      </trkpt>
      <trkpt lat="46.25075" lon="6.80873">
        <ele>1194.6</ele>
        <time>2022-03-06T09:06:24Z</time>
      </trkpt>
      <trkpt lat="46.25075" lon="6.80873">
        <ele>1194.8</ele>
        <time>2022-03-06T09:06:25Z</time>
      </trkpt>
      <trkpt lat="46.25075" lon="6.80873">
        <ele>1194.8</ele>
        <time>2022-03-06T09:06:26Z</time>
      </trkpt>
      <trkpt lat="46.25076" lon="6.80874">
        <ele>1194.8</ele>
        <time>2022-03-06T09:06:27Z</time>
      </trkpt>
      <trkpt lat="46.25077" lon="6.80874">
        <ele>1194.8</ele>
        <time>2022-03-06T09:06:28Z</time>
      </trkpt>
      <trkpt lat="46.25077" lon="6.80875">
        <ele>1195</ele>
        <time>2022-03-06T09:06:29Z</time>
      </trkpt>
      <trkpt lat="46.25078" lon="6.80875">
        <ele>1195</ele>
        <time>2022-03-06T09:06:30Z</time>
      </trkpt>
      <trkpt lat="46.2508" lon="6.80875">
        <ele>1195</ele>
        <time>2022-03-06T09:06:31Z</time>
      </trkpt>
      <trkpt lat="46.25081" lon="6.80874">
        <ele>1195</ele>
        <time>2022-03-06T09:06:32Z</time>
      </trkpt>
      <trkpt lat="46.25083" lon="6.80874">
        <ele>1195</ele>
        <time>2022-03-06T09:06:33Z</time>
      </trkpt>
      <trkpt lat="46.25084" lon="6.80874">
        <ele>1195</ele>
        <time>2022-03-06T09:06:34Z</time>
      </trkpt>
      <trkpt lat="46.25085" lon="6.80874">
        <ele>1195.4</ele>
        <time>2022-03-06T09:06:35Z</time>
      </trkpt>
      <trkpt lat="46.25086" lon="6.80875">
        <ele>1195.8</ele>
        <time>2022-03-06T09:06:36Z</time>
      </trkpt>
      <trkpt lat="46.25087" lon="6.80875">
        <ele>1195.8</ele>
        <time>2022-03-06T09:06:37Z</time>
      </trkpt>
      <trkpt lat="46.25088" lon="6.80875">
        <ele>1196</ele>
        <time>2022-03-06T09:06:38Z</time>
      </trkpt>
      <trkpt lat="46.25089" lon="6.80875">
        <ele>1196.4</ele>
        <time>2022-03-06T09:06:39Z</time>
      </trkpt>
      <trkpt lat="46.2509" lon="6.80875">
        <ele>1196.6</ele>
        <time>2022-03-06T09:06:40Z</time>
      </trkpt>
      <trkpt lat="46.25091" lon="6.80876">
        <ele>1196.6</ele>
        <time>2022-03-06T09:06:41Z</time>
      </trkpt>
      <trkpt lat="46.25091" lon="6.80876">
        <ele>1197</ele>
        <time>2022-03-06T09:06:42Z</time>
      </trkpt>
      <trkpt lat="46.25092" lon="6.80877">
        <ele>1197.4</ele>
        <time>2022-03-06T09:06:43Z</time>
      </trkpt>
      <trkpt lat="46.25093" lon="6.80878">
        <ele>1197.6</ele>
        <time>2022-03-06T09:06:44Z</time>
      </trkpt>
      <trkpt lat="46.25093" lon="6.80878">
        <ele>1198</ele>
        <time>2022-03-06T09:06:45Z</time>
      </trkpt>
      <trkpt lat="46.25094" lon="6.80878">
        <ele>1198.2</ele>
        <time>2022-03-06T09:06:46Z</time>
      </trkpt>
      <trkpt lat="46.25095" lon="6.80879">
        <ele>1198.4</ele>
        <time>2022-03-06T09:06:47Z</time>
      </trkpt>
      <trkpt lat="46.25097" lon="6.80881">
        <ele>1198.6</ele>
        <time>2022-03-06T09:06:48Z</time>
      </trkpt>
      <trkpt lat="46.25098" lon="6.80882">
        <ele>1198.8</ele>
        <time>2022-03-06T09:06:49Z</time>
      </trkpt>
      <trkpt lat="46.25099" lon="6.80883">
        <ele>1199</ele>
        <time>2022-03-06T09:06:50Z</time>
      </trkpt>
      <trkpt lat="46.25099" lon="6.80883">
        <ele>1199.4</ele>
        <time>2022-03-06T09:06:51Z</time>
      </trkpt>
      <trkpt lat="46.251" lon="6.80882">
        <ele>1199.4</ele>
        <time>2022-03-06T09:06:52Z</time>
      </trkpt>
      <trkpt lat="46.25101" lon="6.80882">
        <ele>1199.4</ele>
        <time>2022-03-06T09:06:53Z</time>
      </trkpt>
      <trkpt lat="46.25102" lon="6.80883">
        <ele>1199.8</ele>
        <time>2022-03-06T09:06:54Z</time>
      </trkpt>
      <trkpt lat="46.25102" lon="6.80883">
        <ele>1200</ele>
        <time>2022-03-06T09:06:55Z</time>
      </trkpt>
      <trkpt lat="46.25103" lon="6.80884">
        <ele>1200.2</ele>
        <time>2022-03-06T09:06:56Z</time>
      </trkpt>
      <trkpt lat="46.25103" lon="6.80884">
        <ele>1200.4</ele>
        <time>2022-03-06T09:06:57Z</time>
      </trkpt>
      <trkpt lat="46.25104" lon="6.80883">
        <ele>1200.6</ele>
        <time>2022-03-06T09:06:58Z</time>
      </trkpt>
      <trkpt lat="46.25105" lon="6.80883">
        <ele>1200.8</ele>
        <time>2022-03-06T09:06:59Z</time>
      </trkpt>
      <trkpt lat="46.25106" lon="6.80884">
        <ele>1201</ele>
        <time>2022-03-06T09:07:00Z</time>
      </trkpt>
      <trkpt lat="46.25107" lon="6.80884">
        <ele>1201.2</ele>
        <time>2022-03-06T09:07:01Z</time>
      </trkpt>
      <trkpt lat="46.25107" lon="6.80885">
        <ele>1201.4</ele>
        <time>2022-03-06T09:07:02Z</time>
      </trkpt>
      <trkpt lat="46.25108" lon="6.80885">
        <ele>1201.6</ele>
        <time>2022-03-06T09:07:03Z</time>
      </trkpt>
      <trkpt lat="46.25109" lon="6.80885">
        <ele>1201.6</ele>
        <time>2022-03-06T09:07:04Z</time>
      </trkpt>
      <trkpt lat="46.2511" lon="6.80885">
        <ele>1201.6</ele>
        <time>2022-03-06T09:07:05Z</time>
      </trkpt>
      <trkpt lat="46.25111" lon="6.80885">
        <ele>1201.8</ele>
        <time>2022-03-06T09:07:06Z</time>
      </trkpt>
      <trkpt lat="46.25111" lon="6.80886">
        <ele>1202</ele>
        <time>2022-03-06T09:07:07Z</time>
      </trkpt>
      <trkpt lat="46.25112" lon="6.80886">
        <ele>1202.2</ele>
        <time>2022-03-06T09:07:08Z</time>
      </trkpt>
      <trkpt lat="46.25113" lon="6.80887">
        <ele>1202.4</ele>
        <time>2022-03-06T09:07:09Z</time>
      </trkpt>
      <trkpt lat="46.25114" lon="6.80887">
        <ele>1202.6</ele>
        <time>2022-03-06T09:07:10Z</time>
      </trkpt>
      <trkpt lat="46.25115" lon="6.80887">
        <ele>1202.6</ele>
        <time>2022-03-06T09:07:11Z</time>
      </trkpt>
      <trkpt lat="46.25115" lon="6.80888">
        <ele>1202.6</ele>
        <time>2022-03-06T09:07:12Z</time>
      </trkpt>
      <trkpt lat="46.25116" lon="6.80888">
        <ele>1202.8</ele>
        <time>2022-03-06T09:07:13Z</time>
      </trkpt>
      <trkpt lat="46.25117" lon="6.80888">
        <ele>1202.8</ele>
        <time>2022-03-06T09:07:14Z</time>
      </trkpt>
      <trkpt lat="46.25118" lon="6.80888">
        <ele>1202.8</ele>
        <time>2022-03-06T09:07:15Z</time>
      </trkpt>
      <trkpt lat="46.25119" lon="6.80889">
        <ele>1203</ele>
        <time>2022-03-06T09:07:16Z</time>
      </trkpt>
      <trkpt lat="46.2512" lon="6.80889">
        <ele>1203</ele>
        <time>2022-03-06T09:07:17Z</time>
      </trkpt>
      <trkpt lat="46.2512" lon="6.80889">
        <ele>1203.4</ele>
        <time>2022-03-06T09:07:18Z</time>
      </trkpt>
      <trkpt lat="46.2512" lon="6.8089">
        <ele>1203.6</ele>
        <time>2022-03-06T09:07:19Z</time>
      </trkpt>
      <trkpt lat="46.25121" lon="6.8089">
        <ele>1203.6</ele>
        <time>2022-03-06T09:07:20Z</time>
      </trkpt>
      <trkpt lat="46.25121" lon="6.8089">
        <ele>1203.8</ele>
        <time>2022-03-06T09:07:21Z</time>
      </trkpt>
      <trkpt lat="46.25122" lon="6.8089">
        <ele>1203.8</ele>
        <time>2022-03-06T09:07:22Z</time>
      </trkpt>
      <trkpt lat="46.25122" lon="6.8089">
        <ele>1204.2</ele>
        <time>2022-03-06T09:07:23Z</time>
      </trkpt>
      <trkpt lat="46.25123" lon="6.80891">
        <ele>1204.6</ele>
        <time>2022-03-06T09:07:24Z</time>
      </trkpt>
      <trkpt lat="46.25124" lon="6.80891">
        <ele>1204.8</ele>
        <time>2022-03-06T09:07:25Z</time>
      </trkpt>
      <trkpt lat="46.25126" lon="6.8089">
        <ele>1205.2</ele>
        <time>2022-03-06T09:07:26Z</time>
      </trkpt>
      <trkpt lat="46.25127" lon="6.8089">
        <ele>1205.2</ele>
        <time>2022-03-06T09:07:27Z</time>
      </trkpt>
      <trkpt lat="46.25128" lon="6.80889">
        <ele>1205.4</ele>
        <time>2022-03-06T09:07:28Z</time>
      </trkpt>
      <trkpt lat="46.25129" lon="6.80889">
        <ele>1205.6</ele>
        <time>2022-03-06T09:07:29Z</time>
      </trkpt>
      <trkpt lat="46.2513" lon="6.8089">
        <ele>1205.8</ele>
        <time>2022-03-06T09:07:30Z</time>
      </trkpt>
      <trkpt lat="46.25131" lon="6.8089">
        <ele>1206</ele>
        <time>2022-03-06T09:07:31Z</time>
      </trkpt>
      <trkpt lat="46.25132" lon="6.80891">
        <ele>1206</ele>
        <time>2022-03-06T09:07:32Z</time>
      </trkpt>
      <trkpt lat="46.25133" lon="6.80892">
        <ele>1206.2</ele>
        <time>2022-03-06T09:07:33Z</time>
      </trkpt>
      <trkpt lat="46.25134" lon="6.80892">
        <ele>1206.4</ele>
        <time>2022-03-06T09:07:34Z</time>
      </trkpt>
      <trkpt lat="46.25136" lon="6.80892">
        <ele>1206.4</ele>
        <time>2022-03-06T09:07:35Z</time>
      </trkpt>
      <trkpt lat="46.25136" lon="6.80893">
        <ele>1206.4</ele>
        <time>2022-03-06T09:07:36Z</time>
      </trkpt>
      <trkpt lat="46.25137" lon="6.80893">
        <ele>1206.8</ele>
        <time>2022-03-06T09:07:37Z</time>
      </trkpt>
      <trkpt lat="46.25139" lon="6.80894">
        <ele>1207</ele>
        <time>2022-03-06T09:07:38Z</time>
      </trkpt>
      <trkpt lat="46.2514" lon="6.80894">
        <ele>1207.2</ele>
        <time>2022-03-06T09:07:39Z</time>
      </trkpt>
      <trkpt lat="46.25141" lon="6.80895">
        <ele>1207.4</ele>
        <time>2022-03-06T09:07:40Z</time>
      </trkpt>
      <trkpt lat="46.25142" lon="6.80895">
        <ele>1207.6</ele>
        <time>2022-03-06T09:07:41Z</time>
      </trkpt>
      <trkpt lat="46.25142" lon="6.80896">
        <ele>1208</ele>
        <time>2022-03-06T09:07:42Z</time>
      </trkpt>
      <trkpt lat="46.25143" lon="6.80896">
        <ele>1208</ele>
        <time>2022-03-06T09:07:43Z</time>
      </trkpt>
      <trkpt lat="46.25144" lon="6.80897">
        <ele>1208.2</ele>
        <time>2022-03-06T09:07:44Z</time>
      </trkpt>
      <trkpt lat="46.25145" lon="6.80897">
        <ele>1208.4</ele>
        <time>2022-03-06T09:07:45Z</time>
      </trkpt>
      <trkpt lat="46.25146" lon="6.80898">
        <ele>1208.4</ele>
        <time>2022-03-06T09:07:46Z</time>
      </trkpt>
      <trkpt lat="46.25147" lon="6.80898">
        <ele>1208.8</ele>
        <time>2022-03-06T09:07:47Z</time>
      </trkpt>
      <trkpt lat="46.25148" lon="6.80898">
        <ele>1209</ele>
        <time>2022-03-06T09:07:48Z</time>
      </trkpt>
      <trkpt lat="46.25148" lon="6.80898">
        <ele>1209.2</ele>
        <time>2022-03-06T09:07:49Z</time>
      </trkpt>
      <trkpt lat="46.25149" lon="6.80898">
        <ele>1209.2</ele>
        <time>2022-03-06T09:07:50Z</time>
      </trkpt>
      <trkpt lat="46.25149" lon="6.80899">
        <ele>1209.4</ele>
        <time>2022-03-06T09:07:51Z</time>
      </trkpt>
      <trkpt lat="46.2515" lon="6.80899">
        <ele>1209.6</ele>
        <time>2022-03-06T09:07:52Z</time>
      </trkpt>
      <trkpt lat="46.25151" lon="6.809">
        <ele>1209.8</ele>
        <time>2022-03-06T09:07:53Z</time>
      </trkpt>
      <trkpt lat="46.25151" lon="6.809">
        <ele>1209.8</ele>
        <time>2022-03-06T09:07:54Z</time>
      </trkpt>
      <trkpt lat="46.25151" lon="6.809">
        <ele>1210.2</ele>
        <time>2022-03-06T09:07:55Z</time>
      </trkpt>
      <trkpt lat="46.25152" lon="6.80901">
        <ele>1210.4</ele>
        <time>2022-03-06T09:07:56Z</time>
      </trkpt>
      <trkpt lat="46.25153" lon="6.80901">
        <ele>1210.6</ele>
        <time>2022-03-06T09:07:57Z</time>
      </trkpt>
      <trkpt lat="46.25153" lon="6.80902">
        <ele>1210.6</ele>
        <time>2022-03-06T09:07:58Z</time>
      </trkpt>
      <trkpt lat="46.25154" lon="6.80902">
        <ele>1210.8</ele>
        <time>2022-03-06T09:07:59Z</time>
      </trkpt>
      <trkpt lat="46.25155" lon="6.80902">
        <ele>1211.2</ele>
        <time>2022-03-06T09:08:00Z</time>
      </trkpt>
      <trkpt lat="46.25156" lon="6.80903">
        <ele>1211.4</ele>
        <time>2022-03-06T09:08:01Z</time>
      </trkpt>
      <trkpt lat="46.25157" lon="6.80903">
        <ele>1211.6</ele>
        <time>2022-03-06T09:08:02Z</time>
      </trkpt>
      <trkpt lat="46.25158" lon="6.80903">
        <ele>1211.8</ele>
        <time>2022-03-06T09:08:03Z</time>
      </trkpt>
      <trkpt lat="46.25158" lon="6.80904">
        <ele>1212</ele>
        <time>2022-03-06T09:08:04Z</time>
      </trkpt>
      <trkpt lat="46.25158" lon="6.80905">
        <ele>1212.4</ele>
        <time>2022-03-06T09:08:05Z</time>
      </trkpt>
      <trkpt lat="46.25159" lon="6.80906">
        <ele>1212.4</ele>
        <time>2022-03-06T09:08:06Z</time>
      </trkpt>
      <trkpt lat="46.25159" lon="6.80907">
        <ele>1212.6</ele>
        <time>2022-03-06T09:08:07Z</time>
      </trkpt>
      <trkpt lat="46.2516" lon="6.80908">
        <ele>1212.8</ele>
        <time>2022-03-06T09:08:08Z</time>
      </trkpt>
      <trkpt lat="46.25161" lon="6.80908">
        <ele>1213</ele>
        <time>2022-03-06T09:08:09Z</time>
      </trkpt>
      <trkpt lat="46.25162" lon="6.80908">
        <ele>1213.6</ele>
        <time>2022-03-06T09:08:10Z</time>
      </trkpt>
      <trkpt lat="46.25163" lon="6.80908">
        <ele>1213.8</ele>
        <time>2022-03-06T09:08:11Z</time>
      </trkpt>
      <trkpt lat="46.25163" lon="6.80908">
        <ele>1214</ele>
        <time>2022-03-06T09:08:12Z</time>
      </trkpt>
      <trkpt lat="46.25164" lon="6.80909">
        <ele>1214.4</ele>
        <time>2022-03-06T09:08:13Z</time>
      </trkpt>
      <trkpt lat="46.25164" lon="6.80909">
        <ele>1214.6</ele>
        <time>2022-03-06T09:08:14Z</time>
      </trkpt>
      <trkpt lat="46.25165" lon="6.80909">
        <ele>1214.8</ele>
        <time>2022-03-06T09:08:15Z</time>
      </trkpt>
      <trkpt lat="46.25166" lon="6.80909">
        <ele>1215</ele>
        <time>2022-03-06T09:08:16Z</time>
      </trkpt>
      <trkpt lat="46.25167" lon="6.80909">
        <ele>1215.2</ele>
        <time>2022-03-06T09:08:17Z</time>
      </trkpt>
      <trkpt lat="46.25168" lon="6.8091">
        <ele>1215.4</ele>
        <time>2022-03-06T09:08:18Z</time>
      </trkpt>
      <trkpt lat="46.25168" lon="6.8091">
        <ele>1215.6</ele>
        <time>2022-03-06T09:08:19Z</time>
      </trkpt>
      <trkpt lat="46.25168" lon="6.80911">
        <ele>1215.6</ele>
        <time>2022-03-06T09:08:20Z</time>
      </trkpt>
      <trkpt lat="46.2517" lon="6.80911">
        <ele>1215.8</ele>
        <time>2022-03-06T09:08:21Z</time>
      </trkpt>
      <trkpt lat="46.25171" lon="6.80912">
        <ele>1216</ele>
        <time>2022-03-06T09:08:22Z</time>
      </trkpt>
      <trkpt lat="46.25173" lon="6.80913">
        <ele>1216.4</ele>
        <time>2022-03-06T09:08:23Z</time>
      </trkpt>
      <trkpt lat="46.25174" lon="6.80913">
        <ele>1216.4</ele>
        <time>2022-03-06T09:08:24Z</time>
      </trkpt>
      <trkpt lat="46.25175" lon="6.80914">
        <ele>1216.6</ele>
        <time>2022-03-06T09:08:25Z</time>
      </trkpt>
      <trkpt lat="46.25176" lon="6.80914">
        <ele>1216.8</ele>
        <time>2022-03-06T09:08:26Z</time>
      </trkpt>
      <trkpt lat="46.25176" lon="6.80915">
        <ele>1216.8</ele>
        <time>2022-03-06T09:08:27Z</time>
      </trkpt>
      <trkpt lat="46.25177" lon="6.80914">
        <ele>1217.2</ele>
        <time>2022-03-06T09:08:28Z</time>
      </trkpt>
      <trkpt lat="46.25178" lon="6.80914">
        <ele>1217.4</ele>
        <time>2022-03-06T09:08:29Z</time>
      </trkpt>
      <trkpt lat="46.25179" lon="6.80913">
        <ele>1217.6</ele>
        <time>2022-03-06T09:08:30Z</time>
      </trkpt>
      <trkpt lat="46.25181" lon="6.80913">
        <ele>1217.8</ele>
        <time>2022-03-06T09:08:31Z</time>
      </trkpt>
      <trkpt lat="46.25182" lon="6.80913">
        <ele>1218</ele>
        <time>2022-03-06T09:08:32Z</time>
      </trkpt>
      <trkpt lat="46.25183" lon="6.80914">
        <ele>1218.2</ele>
        <time>2022-03-06T09:08:33Z</time>
      </trkpt>
      <trkpt lat="46.25184" lon="6.80914">
        <ele>1218.4</ele>
        <time>2022-03-06T09:08:34Z</time>
      </trkpt>
      <trkpt lat="46.25185" lon="6.80914">
        <ele>1218.6</ele>
        <time>2022-03-06T09:08:35Z</time>
      </trkpt>
      <trkpt lat="46.25185" lon="6.80915">
        <ele>1218.8</ele>
        <time>2022-03-06T09:08:36Z</time>
      </trkpt>
      <trkpt lat="46.25186" lon="6.80915">
        <ele>1219</ele>
        <time>2022-03-06T09:08:37Z</time>
      </trkpt>
      <trkpt lat="46.25186" lon="6.80916">
        <ele>1219.4</ele>
        <time>2022-03-06T09:08:38Z</time>
      </trkpt>
      <trkpt lat="46.25187" lon="6.80916">
        <ele>1219.8</ele>
        <time>2022-03-06T09:08:39Z</time>
      </trkpt>
      <trkpt lat="46.25187" lon="6.80916">
        <ele>1220</ele>
        <time>2022-03-06T09:08:40Z</time>
      </trkpt>
      <trkpt lat="46.25188" lon="6.80916">
        <ele>1220.4</ele>
        <time>2022-03-06T09:08:41Z</time>
      </trkpt>
      <trkpt lat="46.25188" lon="6.80917">
        <ele>1220.4</ele>
        <time>2022-03-06T09:08:42Z</time>
      </trkpt>
      <trkpt lat="46.25189" lon="6.80917">
        <ele>1220.6</ele>
        <time>2022-03-06T09:08:43Z</time>
      </trkpt>
      <trkpt lat="46.25189" lon="6.80917">
        <ele>1220.8</ele>
        <time>2022-03-06T09:08:44Z</time>
      </trkpt>
      <trkpt lat="46.2519" lon="6.80917">
        <ele>1221</ele>
        <time>2022-03-06T09:08:45Z</time>
      </trkpt>
      <trkpt lat="46.2519" lon="6.80917">
        <ele>1221.2</ele>
        <time>2022-03-06T09:08:46Z</time>
      </trkpt>
      <trkpt lat="46.25191" lon="6.80917">
        <ele>1221.4</ele>
        <time>2022-03-06T09:08:47Z</time>
      </trkpt>
      <trkpt lat="46.25191" lon="6.80916">
        <ele>1221.6</ele>
        <time>2022-03-06T09:08:48Z</time>
      </trkpt>
      <trkpt lat="46.25192" lon="6.80917">
        <ele>1221.8</ele>
        <time>2022-03-06T09:08:49Z</time>
      </trkpt>
      <trkpt lat="46.25193" lon="6.80917">
        <ele>1222.2</ele>
        <time>2022-03-06T09:08:50Z</time>
      </trkpt>
      <trkpt lat="46.25193" lon="6.80917">
        <ele>1222.4</ele>
        <time>2022-03-06T09:08:51Z</time>
      </trkpt>
      <trkpt lat="46.25194" lon="6.80918">
        <ele>1222.4</ele>
        <time>2022-03-06T09:08:52Z</time>
      </trkpt>
      <trkpt lat="46.25195" lon="6.80919">
        <ele>1222.8</ele>
        <time>2022-03-06T09:08:53Z</time>
      </trkpt>
      <trkpt lat="46.25196" lon="6.8092">
        <ele>1222.8</ele>
        <time>2022-03-06T09:08:54Z</time>
      </trkpt>
      <trkpt lat="46.25196" lon="6.8092">
        <ele>1223</ele>
        <time>2022-03-06T09:08:55Z</time>
      </trkpt>
      <trkpt lat="46.25197" lon="6.80921">
        <ele>1223</ele>
        <time>2022-03-06T09:08:56Z</time>
      </trkpt>
      <trkpt lat="46.25198" lon="6.80921">
        <ele>1223.4</ele>
        <time>2022-03-06T09:08:57Z</time>
      </trkpt>
      <trkpt lat="46.25198" lon="6.80922">
        <ele>1223.6</ele>
        <time>2022-03-06T09:08:58Z</time>
      </trkpt>
      <trkpt lat="46.25199" lon="6.80922">
        <ele>1223.8</ele>
        <time>2022-03-06T09:08:59Z</time>
      </trkpt>
      <trkpt lat="46.25201" lon="6.80923">
        <ele>1224</ele>
        <time>2022-03-06T09:09:00Z</time>
      </trkpt>
      <trkpt lat="46.25201" lon="6.80924">
        <ele>1224.2</ele>
        <time>2022-03-06T09:09:01Z</time>
      </trkpt>
      <trkpt lat="46.25202" lon="6.80925">
        <ele>1224.4</ele>
        <time>2022-03-06T09:09:02Z</time>
      </trkpt>
      <trkpt lat="46.25205" lon="6.80925">
        <ele>1224.6</ele>
        <time>2022-03-06T09:09:03Z</time>
      </trkpt>
      <trkpt lat="46.25206" lon="6.80925">
        <ele>1224.6</ele>
        <time>2022-03-06T09:09:04Z</time>
      </trkpt>
      <trkpt lat="46.25206" lon="6.80926">
        <ele>1224.6</ele>
        <time>2022-03-06T09:09:05Z</time>
      </trkpt>
      <trkpt lat="46.25207" lon="6.80926">
        <ele>1224.8</ele>
        <time>2022-03-06T09:09:06Z</time>
      </trkpt>
      <trkpt lat="46.25207" lon="6.80926">
        <ele>1224.8</ele>
        <time>2022-03-06T09:09:07Z</time>
      </trkpt>
      <trkpt lat="46.25208" lon="6.80927">
        <ele>1225</ele>
        <time>2022-03-06T09:09:08Z</time>
      </trkpt>
      <trkpt lat="46.25208" lon="6.80927">
        <ele>1225.2</ele>
        <time>2022-03-06T09:09:09Z</time>
      </trkpt>
      <trkpt lat="46.25209" lon="6.80928">
        <ele>1225.4</ele>
        <time>2022-03-06T09:09:10Z</time>
      </trkpt>
      <trkpt lat="46.25209" lon="6.80929">
        <ele>1225.6</ele>
        <time>2022-03-06T09:09:11Z</time>
      </trkpt>
      <trkpt lat="46.2521" lon="6.80929">
        <ele>1225.6</ele>
        <time>2022-03-06T09:09:12Z</time>
      </trkpt>
      <trkpt lat="46.25211" lon="6.80929">
        <ele>1225.8</ele>
        <time>2022-03-06T09:09:13Z</time>
      </trkpt>
      <trkpt lat="46.25212" lon="6.8093">
        <ele>1225.8</ele>
        <time>2022-03-06T09:09:14Z</time>
      </trkpt>
      <trkpt lat="46.25212" lon="6.8093">
        <ele>1225.8</ele>
        <time>2022-03-06T09:09:15Z</time>
      </trkpt>
      <trkpt lat="46.25213" lon="6.8093">
        <ele>1225.8</ele>
        <time>2022-03-06T09:09:16Z</time>
      </trkpt>
      <trkpt lat="46.25213" lon="6.80931">
        <ele>1226</ele>
        <time>2022-03-06T09:09:17Z</time>
      </trkpt>
      <trkpt lat="46.25214" lon="6.80931">
        <ele>1226</ele>
        <time>2022-03-06T09:09:18Z</time>
      </trkpt>
      <trkpt lat="46.25215" lon="6.80932">
        <ele>1226.2</ele>
        <time>2022-03-06T09:09:19Z</time>
      </trkpt>
      <trkpt lat="46.25216" lon="6.80932">
        <ele>1226.4</ele>
        <time>2022-03-06T09:09:20Z</time>
      </trkpt>
      <trkpt lat="46.25217" lon="6.80932">
        <ele>1226.6</ele>
        <time>2022-03-06T09:09:21Z</time>
      </trkpt>
      <trkpt lat="46.25218" lon="6.80932">
        <ele>1226.6</ele>
        <time>2022-03-06T09:09:22Z</time>
      </trkpt>
      <trkpt lat="46.25219" lon="6.80933">
        <ele>1227</ele>
        <time>2022-03-06T09:09:23Z</time>
      </trkpt>
      <trkpt lat="46.25219" lon="6.80933">
        <ele>1227.2</ele>
        <time>2022-03-06T09:09:24Z</time>
      </trkpt>
      <trkpt lat="46.2522" lon="6.80934">
        <ele>1227.2</ele>
        <time>2022-03-06T09:09:25Z</time>
      </trkpt>
      <trkpt lat="46.2522" lon="6.80936">
        <ele>1227</ele>
        <time>2022-03-06T09:09:26Z</time>
      </trkpt>
      <trkpt lat="46.2522" lon="6.80937">
        <ele>1227.2</ele>
        <time>2022-03-06T09:09:27Z</time>
      </trkpt>
      <trkpt lat="46.25221" lon="6.80938">
        <ele>1227.6</ele>
        <time>2022-03-06T09:09:28Z</time>
      </trkpt>
      <trkpt lat="46.25221" lon="6.80939">
        <ele>1227.6</ele>
        <time>2022-03-06T09:09:29Z</time>
      </trkpt>
      <trkpt lat="46.25221" lon="6.80939">
        <ele>1227.8</ele>
        <time>2022-03-06T09:09:30Z</time>
      </trkpt>
      <trkpt lat="46.25221" lon="6.8094">
        <ele>1227.8</ele>
        <time>2022-03-06T09:09:31Z</time>
      </trkpt>
      <trkpt lat="46.25221" lon="6.80941">
        <ele>1228.2</ele>
        <time>2022-03-06T09:09:32Z</time>
      </trkpt>
      <trkpt lat="46.25221" lon="6.80943">
        <ele>1228.2</ele>
        <time>2022-03-06T09:09:33Z</time>
      </trkpt>
      <trkpt lat="46.25221" lon="6.80944">
        <ele>1228.2</ele>
        <time>2022-03-06T09:09:34Z</time>
      </trkpt>
      <trkpt lat="46.25221" lon="6.80945">
        <ele>1228.6</ele>
        <time>2022-03-06T09:09:35Z</time>
      </trkpt>
      <trkpt lat="46.25222" lon="6.80947">
        <ele>1228.6</ele>
        <time>2022-03-06T09:09:36Z</time>
      </trkpt>
      <trkpt lat="46.25222" lon="6.80947">
        <ele>1228.6</ele>
        <time>2022-03-06T09:09:37Z</time>
      </trkpt>
      <trkpt lat="46.25223" lon="6.80947">
        <ele>1228.4</ele>
        <time>2022-03-06T09:09:38Z</time>
      </trkpt>
      <trkpt lat="46.25224" lon="6.80947">
        <ele>1228.6</ele>
        <time>2022-03-06T09:09:39Z</time>
      </trkpt>
      <trkpt lat="46.25225" lon="6.80947">
        <ele>1228.8</ele>
        <time>2022-03-06T09:09:40Z</time>
      </trkpt>
      <trkpt lat="46.25227" lon="6.80947">
        <ele>1228.6</ele>
        <time>2022-03-06T09:09:41Z</time>
      </trkpt>
      <trkpt lat="46.25228" lon="6.80949">
        <ele>1228.6</ele>
        <time>2022-03-06T09:09:42Z</time>
      </trkpt>
      <trkpt lat="46.25229" lon="6.80949">
        <ele>1228.8</ele>
        <time>2022-03-06T09:09:43Z</time>
      </trkpt>
      <trkpt lat="46.25229" lon="6.80951">
        <ele>1228.8</ele>
        <time>2022-03-06T09:09:44Z</time>
      </trkpt>
      <trkpt lat="46.25231" lon="6.8095">
        <ele>1229</ele>
        <time>2022-03-06T09:09:45Z</time>
      </trkpt>
      <trkpt lat="46.25232" lon="6.80951">
        <ele>1229</ele>
        <time>2022-03-06T09:09:46Z</time>
      </trkpt>
      <trkpt lat="46.25233" lon="6.80951">
        <ele>1229.2</ele>
        <time>2022-03-06T09:09:47Z</time>
      </trkpt>
      <trkpt lat="46.25234" lon="6.80951">
        <ele>1229.2</ele>
        <time>2022-03-06T09:09:48Z</time>
      </trkpt>
      <trkpt lat="46.25235" lon="6.80951">
        <ele>1229.2</ele>
        <time>2022-03-06T09:09:49Z</time>
      </trkpt>
      <trkpt lat="46.25236" lon="6.80952">
        <ele>1229.4</ele>
        <time>2022-03-06T09:09:50Z</time>
      </trkpt>
      <trkpt lat="46.25236" lon="6.80953">
        <ele>1229.6</ele>
        <time>2022-03-06T09:09:51Z</time>
      </trkpt>
      <trkpt lat="46.25237" lon="6.80953">
        <ele>1229.4</ele>
        <time>2022-03-06T09:09:52Z</time>
      </trkpt>
      <trkpt lat="46.25237" lon="6.80954">
        <ele>1229.6</ele>
        <time>2022-03-06T09:09:53Z</time>
      </trkpt>
      <trkpt lat="46.25238" lon="6.80955">
        <ele>1229.6</ele>
        <time>2022-03-06T09:09:54Z</time>
      </trkpt>
      <trkpt lat="46.25238" lon="6.80955">
        <ele>1229.8</ele>
        <time>2022-03-06T09:09:55Z</time>
      </trkpt>
      <trkpt lat="46.25239" lon="6.80956">
        <ele>1229.8</ele>
        <time>2022-03-06T09:09:56Z</time>
      </trkpt>
      <trkpt lat="46.25239" lon="6.80958">
        <ele>1229.8</ele>
        <time>2022-03-06T09:09:57Z</time>
      </trkpt>
      <trkpt lat="46.25239" lon="6.80959">
        <ele>1229.8</ele>
        <time>2022-03-06T09:09:58Z</time>
      </trkpt>
      <trkpt lat="46.25239" lon="6.8096">
        <ele>1230</ele>
        <time>2022-03-06T09:09:59Z</time>
      </trkpt>
      <trkpt lat="46.2524" lon="6.8096">
        <ele>1229.8</ele>
        <time>2022-03-06T09:10:00Z</time>
      </trkpt>
      <trkpt lat="46.2524" lon="6.80959">
        <ele>1230</ele>
        <time>2022-03-06T09:10:01Z</time>
      </trkpt>
      <trkpt lat="46.2524" lon="6.80959">
        <ele>1230.2</ele>
        <time>2022-03-06T09:10:02Z</time>
      </trkpt>
      <trkpt lat="46.25241" lon="6.8096">
        <ele>1230.4</ele>
        <time>2022-03-06T09:10:04Z</time>
      </trkpt>
      <trkpt lat="46.25241" lon="6.8096">
        <ele>1230.4</ele>
        <time>2022-03-06T09:10:05Z</time>
      </trkpt>
      <trkpt lat="46.25243" lon="6.8096">
        <ele>1230.4</ele>
        <time>2022-03-06T09:10:06Z</time>
      </trkpt>
      <trkpt lat="46.25243" lon="6.8096">
        <ele>1230.6</ele>
        <time>2022-03-06T09:10:07Z</time>
      </trkpt>
      <trkpt lat="46.25244" lon="6.8096">
        <ele>1230.6</ele>
        <time>2022-03-06T09:10:08Z</time>
      </trkpt>
      <trkpt lat="46.25245" lon="6.80961">
        <ele>1230.8</ele>
        <time>2022-03-06T09:10:09Z</time>
      </trkpt>
      <trkpt lat="46.25246" lon="6.80961">
        <ele>1230.8</ele>
        <time>2022-03-06T09:10:10Z</time>
      </trkpt>
      <trkpt lat="46.25247" lon="6.80961">
        <ele>1230.8</ele>
        <time>2022-03-06T09:10:11Z</time>
      </trkpt>
      <trkpt lat="46.25247" lon="6.80962">
        <ele>1231</ele>
        <time>2022-03-06T09:10:12Z</time>
      </trkpt>
      <trkpt lat="46.25248" lon="6.80963">
        <ele>1231.2</ele>
        <time>2022-03-06T09:10:13Z</time>
      </trkpt>
      <trkpt lat="46.25248" lon="6.80965">
        <ele>1231</ele>
        <time>2022-03-06T09:10:14Z</time>
      </trkpt>
      <trkpt lat="46.25249" lon="6.80965">
        <ele>1231.2</ele>
        <time>2022-03-06T09:10:15Z</time>
      </trkpt>
      <trkpt lat="46.25249" lon="6.80965">
        <ele>1231.4</ele>
        <time>2022-03-06T09:10:16Z</time>
      </trkpt>
      <trkpt lat="46.25249" lon="6.80965">
        <ele>1231.6</ele>
        <time>2022-03-06T09:10:17Z</time>
      </trkpt>
      <trkpt lat="46.25249" lon="6.80966">
        <ele>1231.6</ele>
        <time>2022-03-06T09:10:18Z</time>
      </trkpt>
      <trkpt lat="46.2525" lon="6.80965">
        <ele>1231.8</ele>
        <time>2022-03-06T09:10:19Z</time>
      </trkpt>
      <trkpt lat="46.25251" lon="6.80965">
        <ele>1232.2</ele>
        <time>2022-03-06T09:10:20Z</time>
      </trkpt>
      <trkpt lat="46.25251" lon="6.80966">
        <ele>1232.2</ele>
        <time>2022-03-06T09:10:21Z</time>
      </trkpt>
      <trkpt lat="46.25252" lon="6.80966">
        <ele>1232.4</ele>
        <time>2022-03-06T09:10:22Z</time>
      </trkpt>
      <trkpt lat="46.25252" lon="6.80966">
        <ele>1232.4</ele>
        <time>2022-03-06T09:10:23Z</time>
      </trkpt>
      <trkpt lat="46.25252" lon="6.80966">
        <ele>1232.8</ele>
        <time>2022-03-06T09:10:24Z</time>
      </trkpt>
      <trkpt lat="46.25254" lon="6.80966">
        <ele>1232.6</ele>
        <time>2022-03-06T09:10:25Z</time>
      </trkpt>
      <trkpt lat="46.25254" lon="6.80967">
        <ele>1232.8</ele>
        <time>2022-03-06T09:10:26Z</time>
      </trkpt>
      <trkpt lat="46.25254" lon="6.80967">
        <ele>1232.8</ele>
        <time>2022-03-06T09:10:27Z</time>
      </trkpt>
      <trkpt lat="46.25255" lon="6.80967">
        <ele>1233</ele>
        <time>2022-03-06T09:10:28Z</time>
      </trkpt>
      <trkpt lat="46.25256" lon="6.80966">
        <ele>1233.2</ele>
        <time>2022-03-06T09:10:29Z</time>
      </trkpt>
      <trkpt lat="46.25256" lon="6.80966">
        <ele>1233.4</ele>
        <time>2022-03-06T09:10:30Z</time>
      </trkpt>
      <trkpt lat="46.25257" lon="6.80967">
        <ele>1233.6</ele>
        <time>2022-03-06T09:10:31Z</time>
      </trkpt>
      <trkpt lat="46.25257" lon="6.80967">
        <ele>1233.6</ele>
        <time>2022-03-06T09:10:32Z</time>
      </trkpt>
      <trkpt lat="46.25258" lon="6.80968">
        <ele>1233.8</ele>
        <time>2022-03-06T09:10:33Z</time>
      </trkpt>
      <trkpt lat="46.25258" lon="6.80968">
        <ele>1233.8</ele>
        <time>2022-03-06T09:10:34Z</time>
      </trkpt>
      <trkpt lat="46.25257" lon="6.80969">
        <ele>1234</ele>
        <time>2022-03-06T09:10:35Z</time>
      </trkpt>
      <trkpt lat="46.25258" lon="6.80968">
        <ele>1234.2</ele>
        <time>2022-03-06T09:10:36Z</time>
      </trkpt>
      <trkpt lat="46.25261" lon="6.80967">
        <ele>1234.4</ele>
        <time>2022-03-06T09:10:38Z</time>
      </trkpt>
      <trkpt lat="46.25262" lon="6.80968">
        <ele>1234.6</ele>
        <time>2022-03-06T09:10:39Z</time>
      </trkpt>
      <trkpt lat="46.25263" lon="6.80968">
        <ele>1234.8</ele>
        <time>2022-03-06T09:10:40Z</time>
      </trkpt>
      <trkpt lat="46.25264" lon="6.80969">
        <ele>1235</ele>
        <time>2022-03-06T09:10:41Z</time>
      </trkpt>
      <trkpt lat="46.25265" lon="6.80969">
        <ele>1235.2</ele>
        <time>2022-03-06T09:10:42Z</time>
      </trkpt>
      <trkpt lat="46.25266" lon="6.80969">
        <ele>1235.4</ele>
        <time>2022-03-06T09:10:43Z</time>
      </trkpt>
      <trkpt lat="46.25267" lon="6.80971">
        <ele>1235.4</ele>
        <time>2022-03-06T09:10:44Z</time>
      </trkpt>
      <trkpt lat="46.25268" lon="6.80971">
        <ele>1235.6</ele>
        <time>2022-03-06T09:10:45Z</time>
      </trkpt>
      <trkpt lat="46.25269" lon="6.80972">
        <ele>1235.8</ele>
        <time>2022-03-06T09:10:46Z</time>
      </trkpt>
      <trkpt lat="46.25271" lon="6.80972">
        <ele>1236.2</ele>
        <time>2022-03-06T09:10:47Z</time>
      </trkpt>
      <trkpt lat="46.25272" lon="6.80972">
        <ele>1236.4</ele>
        <time>2022-03-06T09:10:48Z</time>
      </trkpt>
      <trkpt lat="46.25274" lon="6.80971">
        <ele>1236.4</ele>
        <time>2022-03-06T09:10:49Z</time>
      </trkpt>
      <trkpt lat="46.25275" lon="6.80971">
        <ele>1236.8</ele>
        <time>2022-03-06T09:10:50Z</time>
      </trkpt>
      <trkpt lat="46.25276" lon="6.8097">
        <ele>1237</ele>
        <time>2022-03-06T09:10:51Z</time>
      </trkpt>
      <trkpt lat="46.25277" lon="6.8097">
        <ele>1237.2</ele>
        <time>2022-03-06T09:10:52Z</time>
      </trkpt>
      <trkpt lat="46.25278" lon="6.80969">
        <ele>1237.2</ele>
        <time>2022-03-06T09:10:53Z</time>
      </trkpt>
      <trkpt lat="46.25279" lon="6.80968">
        <ele>1237.2</ele>
        <time>2022-03-06T09:10:54Z</time>
      </trkpt>
      <trkpt lat="46.2528" lon="6.80968">
        <ele>1237.4</ele>
        <time>2022-03-06T09:10:55Z</time>
      </trkpt>
      <trkpt lat="46.25281" lon="6.80967">
        <ele>1237.8</ele>
        <time>2022-03-06T09:10:56Z</time>
      </trkpt>
      <trkpt lat="46.25282" lon="6.80968">
        <ele>1237.8</ele>
        <time>2022-03-06T09:10:57Z</time>
      </trkpt>
      <trkpt lat="46.25283" lon="6.80968">
        <ele>1238</ele>
        <time>2022-03-06T09:10:58Z</time>
      </trkpt>
      <trkpt lat="46.25283" lon="6.80969">
        <ele>1238</ele>
        <time>2022-03-06T09:10:59Z</time>
      </trkpt>
      <trkpt lat="46.25284" lon="6.80969">
        <ele>1238.2</ele>
        <time>2022-03-06T09:11:00Z</time>
      </trkpt>
      <trkpt lat="46.25285" lon="6.80969">
        <ele>1238.2</ele>
        <time>2022-03-06T09:11:01Z</time>
      </trkpt>
      <trkpt lat="46.25286" lon="6.80969">
        <ele>1238.4</ele>
        <time>2022-03-06T09:11:02Z</time>
      </trkpt>
      <trkpt lat="46.25286" lon="6.8097">
        <ele>1238.6</ele>
        <time>2022-03-06T09:11:03Z</time>
      </trkpt>
      <trkpt lat="46.25287" lon="6.8097">
        <ele>1238.8</ele>
        <time>2022-03-06T09:11:04Z</time>
      </trkpt>
      <trkpt lat="46.25287" lon="6.8097">
        <ele>1239</ele>
        <time>2022-03-06T09:11:05Z</time>
      </trkpt>
      <trkpt lat="46.25288" lon="6.80971">
        <ele>1239</ele>
        <time>2022-03-06T09:11:06Z</time>
      </trkpt>
      <trkpt lat="46.25289" lon="6.80971">
        <ele>1239.4</ele>
        <time>2022-03-06T09:11:07Z</time>
      </trkpt>
      <trkpt lat="46.25289" lon="6.80971">
        <ele>1239.4</ele>
        <time>2022-03-06T09:11:08Z</time>
      </trkpt>
      <trkpt lat="46.2529" lon="6.80972">
        <ele>1239.6</ele>
        <time>2022-03-06T09:11:09Z</time>
      </trkpt>
      <trkpt lat="46.2529" lon="6.80973">
        <ele>1239.8</ele>
        <time>2022-03-06T09:11:10Z</time>
      </trkpt>
      <trkpt lat="46.25291" lon="6.80973">
        <ele>1240</ele>
        <time>2022-03-06T09:11:11Z</time>
      </trkpt>
      <trkpt lat="46.25292" lon="6.80974">
        <ele>1240</ele>
        <time>2022-03-06T09:11:12Z</time>
      </trkpt>
      <trkpt lat="46.25293" lon="6.80975">
        <ele>1240.2</ele>
        <time>2022-03-06T09:11:13Z</time>
      </trkpt>
      <trkpt lat="46.25294" lon="6.80975">
        <ele>1240.4</ele>
        <time>2022-03-06T09:11:14Z</time>
      </trkpt>
      <trkpt lat="46.25294" lon="6.80975">
        <ele>1240.6</ele>
        <time>2022-03-06T09:11:15Z</time>
      </trkpt>
      <trkpt lat="46.25295" lon="6.80975">
        <ele>1240.6</ele>
        <time>2022-03-06T09:11:16Z</time>
      </trkpt>
      <trkpt lat="46.25296" lon="6.80975">
        <ele>1240.8</ele>
        <time>2022-03-06T09:11:17Z</time>
      </trkpt>
      <trkpt lat="46.25296" lon="6.80975">
        <ele>1241.2</ele>
        <time>2022-03-06T09:11:18Z</time>
      </trkpt>
      <trkpt lat="46.25297" lon="6.80976">
        <ele>1241.4</ele>
        <time>2022-03-06T09:11:19Z</time>
      </trkpt>
      <trkpt lat="46.25297" lon="6.80976">
        <ele>1241.4</ele>
        <time>2022-03-06T09:11:20Z</time>
      </trkpt>
      <trkpt lat="46.25298" lon="6.80976">
        <ele>1241.4</ele>
        <time>2022-03-06T09:11:21Z</time>
      </trkpt>
      <trkpt lat="46.25299" lon="6.80975">
        <ele>1241.8</ele>
        <time>2022-03-06T09:11:22Z</time>
      </trkpt>
      <trkpt lat="46.253" lon="6.80976">
        <ele>1242</ele>
        <time>2022-03-06T09:11:23Z</time>
      </trkpt>
      <trkpt lat="46.25301" lon="6.80976">
        <ele>1242</ele>
        <time>2022-03-06T09:11:24Z</time>
      </trkpt>
      <trkpt lat="46.25302" lon="6.80976">
        <ele>1242.2</ele>
        <time>2022-03-06T09:11:25Z</time>
      </trkpt>
      <trkpt lat="46.25303" lon="6.80976">
        <ele>1242.2</ele>
        <time>2022-03-06T09:11:26Z</time>
      </trkpt>
      <trkpt lat="46.25304" lon="6.80976">
        <ele>1242.4</ele>
        <time>2022-03-06T09:11:27Z</time>
      </trkpt>
      <trkpt lat="46.25305" lon="6.80976">
        <ele>1242.4</ele>
        <time>2022-03-06T09:11:28Z</time>
      </trkpt>
      <trkpt lat="46.25306" lon="6.80976">
        <ele>1242.6</ele>
        <time>2022-03-06T09:11:29Z</time>
      </trkpt>
      <trkpt lat="46.25307" lon="6.80976">
        <ele>1242.6</ele>
        <time>2022-03-06T09:11:30Z</time>
      </trkpt>
      <trkpt lat="46.25307" lon="6.80976">
        <ele>1242.8</ele>
        <time>2022-03-06T09:11:31Z</time>
      </trkpt>
      <trkpt lat="46.25308" lon="6.80977">
        <ele>1243</ele>
        <time>2022-03-06T09:11:32Z</time>
      </trkpt>
      <trkpt lat="46.2531" lon="6.80978">
        <ele>1243.2</ele>
        <time>2022-03-06T09:11:33Z</time>
      </trkpt>
      <trkpt lat="46.25312" lon="6.80979">
        <ele>1243.4</ele>
        <time>2022-03-06T09:11:34Z</time>
      </trkpt>
      <trkpt lat="46.25314" lon="6.8098">
        <ele>1243.6</ele>
        <time>2022-03-06T09:11:35Z</time>
      </trkpt>
      <trkpt lat="46.25315" lon="6.80982">
        <ele>1243.8</ele>
        <time>2022-03-06T09:11:36Z</time>
      </trkpt>
      <trkpt lat="46.25316" lon="6.80983">
        <ele>1244</ele>
        <time>2022-03-06T09:11:37Z</time>
      </trkpt>
      <trkpt lat="46.25318" lon="6.80983">
        <ele>1244</ele>
        <time>2022-03-06T09:11:38Z</time>
      </trkpt>
      <trkpt lat="46.2532" lon="6.80983">
        <ele>1244.2</ele>
        <time>2022-03-06T09:11:39Z</time>
      </trkpt>
      <trkpt lat="46.25322" lon="6.80983">
        <ele>1244</ele>
        <time>2022-03-06T09:11:40Z</time>
      </trkpt>
      <trkpt lat="46.25323" lon="6.80983">
        <ele>1244.2</ele>
        <time>2022-03-06T09:11:41Z</time>
      </trkpt>
      <trkpt lat="46.25324" lon="6.80984">
        <ele>1244.4</ele>
        <time>2022-03-06T09:11:42Z</time>
      </trkpt>
      <trkpt lat="46.25325" lon="6.80984">
        <ele>1244.4</ele>
        <time>2022-03-06T09:11:43Z</time>
      </trkpt>
      <trkpt lat="46.25326" lon="6.80985">
        <ele>1244.8</ele>
        <time>2022-03-06T09:11:44Z</time>
      </trkpt>
      <trkpt lat="46.25327" lon="6.80984">
        <ele>1244.8</ele>
        <time>2022-03-06T09:11:45Z</time>
      </trkpt>
      <trkpt lat="46.25328" lon="6.80985">
        <ele>1244.8</ele>
        <time>2022-03-06T09:11:46Z</time>
      </trkpt>
      <trkpt lat="46.25329" lon="6.80985">
        <ele>1244.8</ele>
        <time>2022-03-06T09:11:47Z</time>
      </trkpt>
      <trkpt lat="46.2533" lon="6.80985">
        <ele>1245</ele>
        <time>2022-03-06T09:11:48Z</time>
      </trkpt>
      <trkpt lat="46.25331" lon="6.80985">
        <ele>1245</ele>
        <time>2022-03-06T09:11:49Z</time>
      </trkpt>
      <trkpt lat="46.25332" lon="6.80987">
        <ele>1244.8</ele>
        <time>2022-03-06T09:11:50Z</time>
      </trkpt>
      <trkpt lat="46.25332" lon="6.80988">
        <ele>1245</ele>
        <time>2022-03-06T09:11:51Z</time>
      </trkpt>
      <trkpt lat="46.25333" lon="6.8099">
        <ele>1245.2</ele>
        <time>2022-03-06T09:11:52Z</time>
      </trkpt>
      <trkpt lat="46.25334" lon="6.80991">
        <ele>1245.2</ele>
        <time>2022-03-06T09:11:53Z</time>
      </trkpt>
      <trkpt lat="46.25334" lon="6.80992">
        <ele>1245.4</ele>
        <time>2022-03-06T09:11:54Z</time>
      </trkpt>
      <trkpt lat="46.25335" lon="6.80993">
        <ele>1245.4</ele>
        <time>2022-03-06T09:11:55Z</time>
      </trkpt>
      <trkpt lat="46.25336" lon="6.80993">
        <ele>1245.6</ele>
        <time>2022-03-06T09:11:56Z</time>
      </trkpt>
      <trkpt lat="46.25337" lon="6.80993">
        <ele>1245.8</ele>
        <time>2022-03-06T09:11:57Z</time>
      </trkpt>
      <trkpt lat="46.25338" lon="6.80994">
        <ele>1245.8</ele>
        <time>2022-03-06T09:11:58Z</time>
      </trkpt>
      <trkpt lat="46.25339" lon="6.80995">
        <ele>1246</ele>
        <time>2022-03-06T09:11:59Z</time>
      </trkpt>
      <trkpt lat="46.2534" lon="6.80996">
        <ele>1246</ele>
        <time>2022-03-06T09:12:00Z</time>
      </trkpt>
      <trkpt lat="46.25341" lon="6.80997">
        <ele>1246</ele>
        <time>2022-03-06T09:12:01Z</time>
      </trkpt>
      <trkpt lat="46.25342" lon="6.80998">
        <ele>1246.2</ele>
        <time>2022-03-06T09:12:02Z</time>
      </trkpt>
      <trkpt lat="46.25342" lon="6.80998">
        <ele>1246.2</ele>
        <time>2022-03-06T09:12:03Z</time>
      </trkpt>
      <trkpt lat="46.25343" lon="6.80999">
        <ele>1246.4</ele>
        <time>2022-03-06T09:12:04Z</time>
      </trkpt>
      <trkpt lat="46.25344" lon="6.81">
        <ele>1246.2</ele>
        <time>2022-03-06T09:12:05Z</time>
      </trkpt>
      <trkpt lat="46.25344" lon="6.81">
        <ele>1246.4</ele>
        <time>2022-03-06T09:12:06Z</time>
      </trkpt>
      <trkpt lat="46.25345" lon="6.81">
        <ele>1246.6</ele>
        <time>2022-03-06T09:12:07Z</time>
      </trkpt>
      <trkpt lat="46.25346" lon="6.81001">
        <ele>1246.8</ele>
        <time>2022-03-06T09:12:08Z</time>
      </trkpt>
      <trkpt lat="46.25346" lon="6.81001">
        <ele>1246.8</ele>
        <time>2022-03-06T09:12:09Z</time>
      </trkpt>
      <trkpt lat="46.25347" lon="6.81001">
        <ele>1247</ele>
        <time>2022-03-06T09:12:10Z</time>
      </trkpt>
      <trkpt lat="46.25349" lon="6.81001">
        <ele>1247.2</ele>
        <time>2022-03-06T09:12:11Z</time>
      </trkpt>
      <trkpt lat="46.2535" lon="6.81001">
        <ele>1247.4</ele>
        <time>2022-03-06T09:12:12Z</time>
      </trkpt>
      <trkpt lat="46.25351" lon="6.81001">
        <ele>1247.6</ele>
        <time>2022-03-06T09:12:13Z</time>
      </trkpt>
      <trkpt lat="46.25352" lon="6.81001">
        <ele>1247.8</ele>
        <time>2022-03-06T09:12:14Z</time>
      </trkpt>
      <trkpt lat="46.25353" lon="6.81">
        <ele>1248.2</ele>
        <time>2022-03-06T09:12:15Z</time>
      </trkpt>
      <trkpt lat="46.25353" lon="6.81002">
        <ele>1248.4</ele>
        <time>2022-03-06T09:12:16Z</time>
      </trkpt>
      <trkpt lat="46.25353" lon="6.81002">
        <ele>1248.8</ele>
        <time>2022-03-06T09:12:17Z</time>
      </trkpt>
      <trkpt lat="46.25354" lon="6.81003">
        <ele>1249</ele>
        <time>2022-03-06T09:12:18Z</time>
      </trkpt>
      <trkpt lat="46.25355" lon="6.81004">
        <ele>1249</ele>
        <time>2022-03-06T09:12:19Z</time>
      </trkpt>
      <trkpt lat="46.25356" lon="6.81006">
        <ele>1249.2</ele>
        <time>2022-03-06T09:12:20Z</time>
      </trkpt>
      <trkpt lat="46.25358" lon="6.81007">
        <ele>1249.4</ele>
        <time>2022-03-06T09:12:21Z</time>
      </trkpt>
      <trkpt lat="46.25359" lon="6.81008">
        <ele>1249.4</ele>
        <time>2022-03-06T09:12:22Z</time>
      </trkpt>
      <trkpt lat="46.2536" lon="6.81009">
        <ele>1249.6</ele>
        <time>2022-03-06T09:12:23Z</time>
      </trkpt>
      <trkpt lat="46.25361" lon="6.81008">
        <ele>1250</ele>
        <time>2022-03-06T09:12:24Z</time>
      </trkpt>
      <trkpt lat="46.25362" lon="6.81008">
        <ele>1250.2</ele>
        <time>2022-03-06T09:12:25Z</time>
      </trkpt>
      <trkpt lat="46.25362" lon="6.81008">
        <ele>1250.4</ele>
        <time>2022-03-06T09:12:26Z</time>
      </trkpt>
      <trkpt lat="46.25362" lon="6.81009">
        <ele>1250.4</ele>
        <time>2022-03-06T09:12:27Z</time>
      </trkpt>
      <trkpt lat="46.25363" lon="6.81009">
        <ele>1250.8</ele>
        <time>2022-03-06T09:12:28Z</time>
      </trkpt>
      <trkpt lat="46.25363" lon="6.81009">
        <ele>1250.8</ele>
        <time>2022-03-06T09:12:29Z</time>
      </trkpt>
      <trkpt lat="46.25363" lon="6.81009">
        <ele>1251</ele>
        <time>2022-03-06T09:12:30Z</time>
      </trkpt>
      <trkpt lat="46.25364" lon="6.81009">
        <ele>1251.2</ele>
        <time>2022-03-06T09:12:31Z</time>
      </trkpt>
      <trkpt lat="46.25365" lon="6.81009">
        <ele>1251.4</ele>
        <time>2022-03-06T09:12:32Z</time>
      </trkpt>
      <trkpt lat="46.25365" lon="6.81009">
        <ele>1251.6</ele>
        <time>2022-03-06T09:12:33Z</time>
      </trkpt>
      <trkpt lat="46.25366" lon="6.8101">
        <ele>1251.8</ele>
        <time>2022-03-06T09:12:34Z</time>
      </trkpt>
      <trkpt lat="46.25365" lon="6.81012">
        <ele>1252</ele>
        <time>2022-03-06T09:12:35Z</time>
      </trkpt>
      <trkpt lat="46.25366" lon="6.81012">
        <ele>1252.2</ele>
        <time>2022-03-06T09:12:36Z</time>
      </trkpt>
      <trkpt lat="46.25366" lon="6.81012">
        <ele>1252.4</ele>
        <time>2022-03-06T09:12:37Z</time>
      </trkpt>
      <trkpt lat="46.25367" lon="6.81011">
        <ele>1252.6</ele>
        <time>2022-03-06T09:12:38Z</time>
      </trkpt>
      <trkpt lat="46.25367" lon="6.81012">
        <ele>1252.8</ele>
        <time>2022-03-06T09:12:39Z</time>
      </trkpt>
      <trkpt lat="46.25368" lon="6.81013">
        <ele>1253.2</ele>
        <time>2022-03-06T09:12:41Z</time>
      </trkpt>
      <trkpt lat="46.25369" lon="6.81015">
        <ele>1253.4</ele>
        <time>2022-03-06T09:12:42Z</time>
      </trkpt>
      <trkpt lat="46.25369" lon="6.81015">
        <ele>1253.6</ele>
        <time>2022-03-06T09:12:43Z</time>
      </trkpt>
      <trkpt lat="46.2537" lon="6.81016">
        <ele>1253.6</ele>
        <time>2022-03-06T09:12:44Z</time>
      </trkpt>
      <trkpt lat="46.25371" lon="6.81018">
        <ele>1253.8</ele>
        <time>2022-03-06T09:12:45Z</time>
      </trkpt>
      <trkpt lat="46.25371" lon="6.81019">
        <ele>1253.8</ele>
        <time>2022-03-06T09:12:46Z</time>
      </trkpt>
      <trkpt lat="46.25372" lon="6.8102">
        <ele>1254</ele>
        <time>2022-03-06T09:12:47Z</time>
      </trkpt>
      <trkpt lat="46.25372" lon="6.81021">
        <ele>1254.2</ele>
        <time>2022-03-06T09:12:48Z</time>
      </trkpt>
      <trkpt lat="46.25373" lon="6.81022">
        <ele>1254.2</ele>
        <time>2022-03-06T09:12:49Z</time>
      </trkpt>
      <trkpt lat="46.25374" lon="6.81024">
        <ele>1254.6</ele>
        <time>2022-03-06T09:12:50Z</time>
      </trkpt>
      <trkpt lat="46.25375" lon="6.81024">
        <ele>1254.8</ele>
        <time>2022-03-06T09:12:51Z</time>
      </trkpt>
      <trkpt lat="46.25376" lon="6.81024">
        <ele>1254.8</ele>
        <time>2022-03-06T09:12:52Z</time>
      </trkpt>
      <trkpt lat="46.25377" lon="6.81025">
        <ele>1255.2</ele>
        <time>2022-03-06T09:12:53Z</time>
      </trkpt>
      <trkpt lat="46.25377" lon="6.81026">
        <ele>1255.4</ele>
        <time>2022-03-06T09:12:54Z</time>
      </trkpt>
      <trkpt lat="46.25379" lon="6.81027">
        <ele>1255.6</ele>
        <time>2022-03-06T09:12:55Z</time>
      </trkpt>
      <trkpt lat="46.25379" lon="6.81028">
        <ele>1255.6</ele>
        <time>2022-03-06T09:12:56Z</time>
      </trkpt>
      <trkpt lat="46.2538" lon="6.81029">
        <ele>1256</ele>
        <time>2022-03-06T09:12:57Z</time>
      </trkpt>
      <trkpt lat="46.25381" lon="6.8103">
        <ele>1256</ele>
        <time>2022-03-06T09:12:58Z</time>
      </trkpt>
      <trkpt lat="46.25382" lon="6.81032">
        <ele>1256.2</ele>
        <time>2022-03-06T09:12:59Z</time>
      </trkpt>
      <trkpt lat="46.25383" lon="6.81034">
        <ele>1256.4</ele>
        <time>2022-03-06T09:13:00Z</time>
      </trkpt>
      <trkpt lat="46.25384" lon="6.81035">
        <ele>1256.6</ele>
        <time>2022-03-06T09:13:01Z</time>
      </trkpt>
      <trkpt lat="46.25385" lon="6.81037">
        <ele>1256.6</ele>
        <time>2022-03-06T09:13:02Z</time>
      </trkpt>
      <trkpt lat="46.25385" lon="6.81038">
        <ele>1256.8</ele>
        <time>2022-03-06T09:13:03Z</time>
      </trkpt>
      <trkpt lat="46.25386" lon="6.81039">
        <ele>1257</ele>
        <time>2022-03-06T09:13:04Z</time>
      </trkpt>
      <trkpt lat="46.25386" lon="6.81041">
        <ele>1257</ele>
        <time>2022-03-06T09:13:05Z</time>
      </trkpt>
      <trkpt lat="46.25386" lon="6.81042">
        <ele>1257</ele>
        <time>2022-03-06T09:13:06Z</time>
      </trkpt>
      <trkpt lat="46.25387" lon="6.81043">
        <ele>1257.2</ele>
        <time>2022-03-06T09:13:07Z</time>
      </trkpt>
      <trkpt lat="46.25388" lon="6.81044">
        <ele>1257.2</ele>
        <time>2022-03-06T09:13:08Z</time>
      </trkpt>
      <trkpt lat="46.25388" lon="6.81045">
        <ele>1257.4</ele>
        <time>2022-03-06T09:13:09Z</time>
      </trkpt>
      <trkpt lat="46.25389" lon="6.81046">
        <ele>1257.6</ele>
        <time>2022-03-06T09:13:10Z</time>
      </trkpt>
      <trkpt lat="46.25389" lon="6.81047">
        <ele>1257.8</ele>
        <time>2022-03-06T09:13:11Z</time>
      </trkpt>
      <trkpt lat="46.2539" lon="6.81047">
        <ele>1257.8</ele>
        <time>2022-03-06T09:13:12Z</time>
      </trkpt>
      <trkpt lat="46.25392" lon="6.81047">
        <ele>1258</ele>
        <time>2022-03-06T09:13:13Z</time>
      </trkpt>
      <trkpt lat="46.25394" lon="6.81046">
        <ele>1258.4</ele>
        <time>2022-03-06T09:13:14Z</time>
      </trkpt>
      <trkpt lat="46.25395" lon="6.81045">
        <ele>1258.6</ele>
        <time>2022-03-06T09:13:15Z</time>
      </trkpt>
      <trkpt lat="46.25396" lon="6.81045">
        <ele>1258.8</ele>
        <time>2022-03-06T09:13:16Z</time>
      </trkpt>
      <trkpt lat="46.25398" lon="6.81046">
        <ele>1259</ele>
        <time>2022-03-06T09:13:17Z</time>
      </trkpt>
      <trkpt lat="46.25398" lon="6.81046">
        <ele>1259.2</ele>
        <time>2022-03-06T09:13:18Z</time>
      </trkpt>
      <trkpt lat="46.25398" lon="6.81047">
        <ele>1259.2</ele>
        <time>2022-03-06T09:13:19Z</time>
      </trkpt>
      <trkpt lat="46.25399" lon="6.81048">
        <ele>1259.4</ele>
        <time>2022-03-06T09:13:20Z</time>
      </trkpt>
      <trkpt lat="46.25399" lon="6.81049">
        <ele>1259.6</ele>
        <time>2022-03-06T09:13:21Z</time>
      </trkpt>
      <trkpt lat="46.254" lon="6.8105">
        <ele>1259.8</ele>
        <time>2022-03-06T09:13:22Z</time>
      </trkpt>
      <trkpt lat="46.254" lon="6.81051">
        <ele>1260</ele>
        <time>2022-03-06T09:13:23Z</time>
      </trkpt>
      <trkpt lat="46.254" lon="6.81052">
        <ele>1259.8</ele>
        <time>2022-03-06T09:13:24Z</time>
      </trkpt>
      <trkpt lat="46.254" lon="6.81053">
        <ele>1260</ele>
        <time>2022-03-06T09:13:25Z</time>
      </trkpt>
      <trkpt lat="46.25401" lon="6.81054">
        <ele>1260</ele>
        <time>2022-03-06T09:13:26Z</time>
      </trkpt>
      <trkpt lat="46.25401" lon="6.81054">
        <ele>1260</ele>
        <time>2022-03-06T09:13:27Z</time>
      </trkpt>
      <trkpt lat="46.25402" lon="6.81055">
        <ele>1260</ele>
        <time>2022-03-06T09:13:28Z</time>
      </trkpt>
      <trkpt lat="46.25403" lon="6.81056">
        <ele>1260.2</ele>
        <time>2022-03-06T09:13:29Z</time>
      </trkpt>
      <trkpt lat="46.25404" lon="6.81057">
        <ele>1260</ele>
        <time>2022-03-06T09:13:30Z</time>
      </trkpt>
      <trkpt lat="46.25406" lon="6.81058">
        <ele>1260.2</ele>
        <time>2022-03-06T09:13:31Z</time>
      </trkpt>
      <trkpt lat="46.25406" lon="6.81059">
        <ele>1260.2</ele>
        <time>2022-03-06T09:13:32Z</time>
      </trkpt>
      <trkpt lat="46.25407" lon="6.8106">
        <ele>1260.2</ele>
        <time>2022-03-06T09:13:33Z</time>
      </trkpt>
      <trkpt lat="46.25409" lon="6.81061">
        <ele>1260.4</ele>
        <time>2022-03-06T09:13:34Z</time>
      </trkpt>
      <trkpt lat="46.25409" lon="6.81062">
        <ele>1260.6</ele>
        <time>2022-03-06T09:13:35Z</time>
      </trkpt>
      <trkpt lat="46.2541" lon="6.81063">
        <ele>1260.4</ele>
        <time>2022-03-06T09:13:36Z</time>
      </trkpt>
      <trkpt lat="46.2541" lon="6.81064">
        <ele>1260.6</ele>
        <time>2022-03-06T09:13:37Z</time>
      </trkpt>
      <trkpt lat="46.25411" lon="6.81064">
        <ele>1260.6</ele>
        <time>2022-03-06T09:13:38Z</time>
      </trkpt>
      <trkpt lat="46.25411" lon="6.81065">
        <ele>1260.8</ele>
        <time>2022-03-06T09:13:39Z</time>
      </trkpt>
      <trkpt lat="46.25412" lon="6.81066">
        <ele>1260.8</ele>
        <time>2022-03-06T09:13:40Z</time>
      </trkpt>
      <trkpt lat="46.25412" lon="6.81067">
        <ele>1260.8</ele>
        <time>2022-03-06T09:13:41Z</time>
      </trkpt>
      <trkpt lat="46.25413" lon="6.81068">
        <ele>1260.8</ele>
        <time>2022-03-06T09:13:42Z</time>
      </trkpt>
      <trkpt lat="46.25414" lon="6.8107">
        <ele>1260.8</ele>
        <time>2022-03-06T09:13:43Z</time>
      </trkpt>
      <trkpt lat="46.25415" lon="6.81071">
        <ele>1261</ele>
        <time>2022-03-06T09:13:44Z</time>
      </trkpt>
      <trkpt lat="46.25415" lon="6.81073">
        <ele>1260.8</ele>
        <time>2022-03-06T09:13:45Z</time>
      </trkpt>
      <trkpt lat="46.25417" lon="6.81073">
        <ele>1260.8</ele>
        <time>2022-03-06T09:13:46Z</time>
      </trkpt>
      <trkpt lat="46.25418" lon="6.81074">
        <ele>1261</ele>
        <time>2022-03-06T09:13:47Z</time>
      </trkpt>
      <trkpt lat="46.25418" lon="6.81075">
        <ele>1260.8</ele>
        <time>2022-03-06T09:13:48Z</time>
      </trkpt>
      <trkpt lat="46.25419" lon="6.81075">
        <ele>1261</ele>
        <time>2022-03-06T09:13:49Z</time>
      </trkpt>
      <trkpt lat="46.2542" lon="6.81076">
        <ele>1261</ele>
        <time>2022-03-06T09:13:50Z</time>
      </trkpt>
      <trkpt lat="46.25421" lon="6.81076">
        <ele>1261</ele>
        <time>2022-03-06T09:13:51Z</time>
      </trkpt>
      <trkpt lat="46.25422" lon="6.81077">
        <ele>1261</ele>
        <time>2022-03-06T09:13:52Z</time>
      </trkpt>
      <trkpt lat="46.25423" lon="6.81077">
        <ele>1261</ele>
        <time>2022-03-06T09:13:53Z</time>
      </trkpt>
      <trkpt lat="46.25424" lon="6.81077">
        <ele>1261</ele>
        <time>2022-03-06T09:13:54Z</time>
      </trkpt>
      <trkpt lat="46.25425" lon="6.81078">
        <ele>1261.2</ele>
        <time>2022-03-06T09:13:55Z</time>
      </trkpt>
      <trkpt lat="46.25426" lon="6.81078">
        <ele>1261</ele>
        <time>2022-03-06T09:13:56Z</time>
      </trkpt>
      <trkpt lat="46.25427" lon="6.81079">
        <ele>1261</ele>
        <time>2022-03-06T09:13:57Z</time>
      </trkpt>
      <trkpt lat="46.25428" lon="6.8108">
        <ele>1261.2</ele>
        <time>2022-03-06T09:13:58Z</time>
      </trkpt>
      <trkpt lat="46.25429" lon="6.81081">
        <ele>1261.2</ele>
        <time>2022-03-06T09:13:59Z</time>
      </trkpt>
      <trkpt lat="46.2543" lon="6.81082">
        <ele>1261.2</ele>
        <time>2022-03-06T09:14:00Z</time>
      </trkpt>
      <trkpt lat="46.25431" lon="6.81083">
        <ele>1261.2</ele>
        <time>2022-03-06T09:14:01Z</time>
      </trkpt>
      <trkpt lat="46.25432" lon="6.81084">
        <ele>1261.2</ele>
        <time>2022-03-06T09:14:02Z</time>
      </trkpt>
      <trkpt lat="46.25433" lon="6.81084">
        <ele>1261.4</ele>
        <time>2022-03-06T09:14:03Z</time>
      </trkpt>
      <trkpt lat="46.25434" lon="6.81084">
        <ele>1261.4</ele>
        <time>2022-03-06T09:14:04Z</time>
      </trkpt>
      <trkpt lat="46.25435" lon="6.81084">
        <ele>1261.6</ele>
        <time>2022-03-06T09:14:05Z</time>
      </trkpt>
      <trkpt lat="46.25437" lon="6.81084">
        <ele>1261.4</ele>
        <time>2022-03-06T09:14:06Z</time>
      </trkpt>
      <trkpt lat="46.25437" lon="6.81084">
        <ele>1261.8</ele>
        <time>2022-03-06T09:14:07Z</time>
      </trkpt>
      <trkpt lat="46.25438" lon="6.81085">
        <ele>1261.8</ele>
        <time>2022-03-06T09:14:08Z</time>
      </trkpt>
      <trkpt lat="46.25439" lon="6.81085">
        <ele>1261.8</ele>
        <time>2022-03-06T09:14:09Z</time>
      </trkpt>
      <trkpt lat="46.25439" lon="6.81085">
        <ele>1261.8</ele>
        <time>2022-03-06T09:14:10Z</time>
      </trkpt>
      <trkpt lat="46.2544" lon="6.81086">
        <ele>1262</ele>
        <time>2022-03-06T09:14:11Z</time>
      </trkpt>
      <trkpt lat="46.2544" lon="6.81086">
        <ele>1262</ele>
        <time>2022-03-06T09:14:12Z</time>
      </trkpt>
      <trkpt lat="46.25441" lon="6.81087">
        <ele>1262</ele>
        <time>2022-03-06T09:14:13Z</time>
      </trkpt>
      <trkpt lat="46.25441" lon="6.81088">
        <ele>1262</ele>
        <time>2022-03-06T09:14:14Z</time>
      </trkpt>
      <trkpt lat="46.25442" lon="6.81089">
        <ele>1262</ele>
        <time>2022-03-06T09:14:15Z</time>
      </trkpt>
      <trkpt lat="46.25443" lon="6.8109">
        <ele>1262.2</ele>
        <time>2022-03-06T09:14:16Z</time>
      </trkpt>
      <trkpt lat="46.25445" lon="6.81091">
        <ele>1262.2</ele>
        <time>2022-03-06T09:14:17Z</time>
      </trkpt>
      <trkpt lat="46.25447" lon="6.81091">
        <ele>1262.4</ele>
        <time>2022-03-06T09:14:18Z</time>
      </trkpt>
      <trkpt lat="46.25448" lon="6.81092">
        <ele>1262.4</ele>
        <time>2022-03-06T09:14:19Z</time>
      </trkpt>
      <trkpt lat="46.25449" lon="6.81093">
        <ele>1262.6</ele>
        <time>2022-03-06T09:14:20Z</time>
      </trkpt>
      <trkpt lat="46.25449" lon="6.81095">
        <ele>1262.4</ele>
        <time>2022-03-06T09:14:21Z</time>
      </trkpt>
      <trkpt lat="46.25449" lon="6.81097">
        <ele>1262.4</ele>
        <time>2022-03-06T09:14:22Z</time>
      </trkpt>
      <trkpt lat="46.25449" lon="6.81098">
        <ele>1262.6</ele>
        <time>2022-03-06T09:14:23Z</time>
      </trkpt>
      <trkpt lat="46.2545" lon="6.811">
        <ele>1262.6</ele>
        <time>2022-03-06T09:14:24Z</time>
      </trkpt>
      <trkpt lat="46.25452" lon="6.81101">
        <ele>1262.6</ele>
        <time>2022-03-06T09:14:25Z</time>
      </trkpt>
      <trkpt lat="46.25452" lon="6.81102">
        <ele>1262.6</ele>
        <time>2022-03-06T09:14:26Z</time>
      </trkpt>
      <trkpt lat="46.25454" lon="6.81103">
        <ele>1262.6</ele>
        <time>2022-03-06T09:14:27Z</time>
      </trkpt>
      <trkpt lat="46.25456" lon="6.81102">
        <ele>1262.6</ele>
        <time>2022-03-06T09:14:28Z</time>
      </trkpt>
      <trkpt lat="46.25457" lon="6.81104">
        <ele>1262.8</ele>
        <time>2022-03-06T09:14:29Z</time>
      </trkpt>
      <trkpt lat="46.25457" lon="6.81105">
        <ele>1262.8</ele>
        <time>2022-03-06T09:14:30Z</time>
      </trkpt>
      <trkpt lat="46.25458" lon="6.81107">
        <ele>1262.8</ele>
        <time>2022-03-06T09:14:31Z</time>
      </trkpt>
      <trkpt lat="46.25458" lon="6.81108">
        <ele>1263</ele>
        <time>2022-03-06T09:14:32Z</time>
      </trkpt>
      <trkpt lat="46.25458" lon="6.8111">
        <ele>1263</ele>
        <time>2022-03-06T09:14:33Z</time>
      </trkpt>
      <trkpt lat="46.25459" lon="6.81111">
        <ele>1263</ele>
        <time>2022-03-06T09:14:34Z</time>
      </trkpt>
      <trkpt lat="46.2546" lon="6.81112">
        <ele>1263.2</ele>
        <time>2022-03-06T09:14:35Z</time>
      </trkpt>
      <trkpt lat="46.25461" lon="6.81114">
        <ele>1263.2</ele>
        <time>2022-03-06T09:14:36Z</time>
      </trkpt>
      <trkpt lat="46.25462" lon="6.81115">
        <ele>1263.4</ele>
        <time>2022-03-06T09:14:37Z</time>
      </trkpt>
      <trkpt lat="46.25462" lon="6.81117">
        <ele>1263.2</ele>
        <time>2022-03-06T09:14:38Z</time>
      </trkpt>
      <trkpt lat="46.25463" lon="6.81118">
        <ele>1263.4</ele>
        <time>2022-03-06T09:14:39Z</time>
      </trkpt>
      <trkpt lat="46.25464" lon="6.81119">
        <ele>1263.4</ele>
        <time>2022-03-06T09:14:40Z</time>
      </trkpt>
      <trkpt lat="46.25464" lon="6.81121">
        <ele>1263.4</ele>
        <time>2022-03-06T09:14:41Z</time>
      </trkpt>
      <trkpt lat="46.25465" lon="6.81122">
        <ele>1263.6</ele>
        <time>2022-03-06T09:14:42Z</time>
      </trkpt>
      <trkpt lat="46.25466" lon="6.81124">
        <ele>1263.6</ele>
        <time>2022-03-06T09:14:43Z</time>
      </trkpt>
      <trkpt lat="46.25468" lon="6.81127">
        <ele>1263.6</ele>
        <time>2022-03-06T09:14:44Z</time>
      </trkpt>
      <trkpt lat="46.25469" lon="6.81129">
        <ele>1263.8</ele>
        <time>2022-03-06T09:14:45Z</time>
      </trkpt>
      <trkpt lat="46.25471" lon="6.81131">
        <ele>1263.8</ele>
        <time>2022-03-06T09:14:46Z</time>
      </trkpt>
      <trkpt lat="46.25472" lon="6.81133">
        <ele>1264</ele>
        <time>2022-03-06T09:14:47Z</time>
      </trkpt>
      <trkpt lat="46.25473" lon="6.81134">
        <ele>1264</ele>
        <time>2022-03-06T09:14:48Z</time>
      </trkpt>
      <trkpt lat="46.25473" lon="6.81135">
        <ele>1264</ele>
        <time>2022-03-06T09:14:49Z</time>
      </trkpt>
      <trkpt lat="46.25474" lon="6.81136">
        <ele>1264.2</ele>
        <time>2022-03-06T09:14:50Z</time>
      </trkpt>
      <trkpt lat="46.25474" lon="6.81137">
        <ele>1264.2</ele>
        <time>2022-03-06T09:14:51Z</time>
      </trkpt>
      <trkpt lat="46.25475" lon="6.81138">
        <ele>1264.2</ele>
        <time>2022-03-06T09:14:52Z</time>
      </trkpt>
      <trkpt lat="46.25475" lon="6.81139">
        <ele>1264.4</ele>
        <time>2022-03-06T09:14:53Z</time>
      </trkpt>
      <trkpt lat="46.25476" lon="6.8114">
        <ele>1264.4</ele>
        <time>2022-03-06T09:14:54Z</time>
      </trkpt>
      <trkpt lat="46.25476" lon="6.81142">
        <ele>1264.4</ele>
        <time>2022-03-06T09:14:55Z</time>
      </trkpt>
      <trkpt lat="46.25477" lon="6.81142">
        <ele>1264.6</ele>
        <time>2022-03-06T09:14:56Z</time>
      </trkpt>
      <trkpt lat="46.25477" lon="6.81143">
        <ele>1264.6</ele>
        <time>2022-03-06T09:14:57Z</time>
      </trkpt>
      <trkpt lat="46.25478" lon="6.81144">
        <ele>1264.6</ele>
        <time>2022-03-06T09:14:58Z</time>
      </trkpt>
      <trkpt lat="46.25478" lon="6.81144">
        <ele>1264.6</ele>
        <time>2022-03-06T09:14:59Z</time>
      </trkpt>
      <trkpt lat="46.25479" lon="6.81145">
        <ele>1264.8</ele>
        <time>2022-03-06T09:15:00Z</time>
      </trkpt>
      <trkpt lat="46.25479" lon="6.81146">
        <ele>1265</ele>
        <time>2022-03-06T09:15:01Z</time>
      </trkpt>
      <trkpt lat="46.25479" lon="6.81147">
        <ele>1265</ele>
        <time>2022-03-06T09:15:02Z</time>
      </trkpt>
      <trkpt lat="46.25479" lon="6.81148">
        <ele>1265</ele>
        <time>2022-03-06T09:15:03Z</time>
      </trkpt>
      <trkpt lat="46.2548" lon="6.81149">
        <ele>1265</ele>
        <time>2022-03-06T09:15:04Z</time>
      </trkpt>
      <trkpt lat="46.25481" lon="6.8115">
        <ele>1265.2</ele>
        <time>2022-03-06T09:15:05Z</time>
      </trkpt>
      <trkpt lat="46.25482" lon="6.81151">
        <ele>1265.4</ele>
        <time>2022-03-06T09:15:06Z</time>
      </trkpt>
      <trkpt lat="46.25483" lon="6.81152">
        <ele>1265.4</ele>
        <time>2022-03-06T09:15:07Z</time>
      </trkpt>
      <trkpt lat="46.25485" lon="6.81153">
        <ele>1265.4</ele>
        <time>2022-03-06T09:15:08Z</time>
      </trkpt>
      <trkpt lat="46.25486" lon="6.81154">
        <ele>1265.6</ele>
        <time>2022-03-06T09:15:09Z</time>
      </trkpt>
      <trkpt lat="46.25488" lon="6.81155">
        <ele>1265.6</ele>
        <time>2022-03-06T09:15:10Z</time>
      </trkpt>
      <trkpt lat="46.25488" lon="6.81156">
        <ele>1265.6</ele>
        <time>2022-03-06T09:15:11Z</time>
      </trkpt>
      <trkpt lat="46.25489" lon="6.81156">
        <ele>1265.6</ele>
        <time>2022-03-06T09:15:12Z</time>
      </trkpt>
      <trkpt lat="46.2549" lon="6.81157">
        <ele>1265.6</ele>
        <time>2022-03-06T09:15:13Z</time>
      </trkpt>
      <trkpt lat="46.2549" lon="6.81157">
        <ele>1265.6</ele>
        <time>2022-03-06T09:15:14Z</time>
      </trkpt>
      <trkpt lat="46.25491" lon="6.81157">
        <ele>1265.6</ele>
        <time>2022-03-06T09:15:15Z</time>
      </trkpt>
      <trkpt lat="46.25493" lon="6.8116">
        <ele>1265.6</ele>
        <time>2022-03-06T09:15:16Z</time>
      </trkpt>
      <trkpt lat="46.25494" lon="6.81163">
        <ele>1265.6</ele>
        <time>2022-03-06T09:15:17Z</time>
      </trkpt>
      <trkpt lat="46.25495" lon="6.81164">
        <ele>1265.6</ele>
        <time>2022-03-06T09:15:18Z</time>
      </trkpt>
      <trkpt lat="46.25495" lon="6.81166">
        <ele>1265.8</ele>
        <time>2022-03-06T09:15:19Z</time>
      </trkpt>
      <trkpt lat="46.25496" lon="6.81167">
        <ele>1265.8</ele>
        <time>2022-03-06T09:15:20Z</time>
      </trkpt>
      <trkpt lat="46.25497" lon="6.81168">
        <ele>1265.8</ele>
        <time>2022-03-06T09:15:21Z</time>
      </trkpt>
      <trkpt lat="46.25497" lon="6.81169">
        <ele>1265.6</ele>
        <time>2022-03-06T09:15:22Z</time>
      </trkpt>
      <trkpt lat="46.25498" lon="6.8117">
        <ele>1265.8</ele>
        <time>2022-03-06T09:15:23Z</time>
      </trkpt>
      <trkpt lat="46.25498" lon="6.81171">
        <ele>1265.6</ele>
        <time>2022-03-06T09:15:24Z</time>
      </trkpt>
      <trkpt lat="46.25499" lon="6.81172">
        <ele>1265.6</ele>
        <time>2022-03-06T09:15:25Z</time>
      </trkpt>
      <trkpt lat="46.255" lon="6.81172">
        <ele>1265.8</ele>
        <time>2022-03-06T09:15:26Z</time>
      </trkpt>
      <trkpt lat="46.25501" lon="6.81173">
        <ele>1265.8</ele>
        <time>2022-03-06T09:15:27Z</time>
      </trkpt>
      <trkpt lat="46.25502" lon="6.81174">
        <ele>1265.8</ele>
        <time>2022-03-06T09:15:28Z</time>
      </trkpt>
      <trkpt lat="46.25504" lon="6.81174">
        <ele>1265.8</ele>
        <time>2022-03-06T09:15:29Z</time>
      </trkpt>
      <trkpt lat="46.25505" lon="6.81174">
        <ele>1265.8</ele>
        <time>2022-03-06T09:15:30Z</time>
      </trkpt>
      <trkpt lat="46.25505" lon="6.81174">
        <ele>1266</ele>
        <time>2022-03-06T09:15:31Z</time>
      </trkpt>
      <trkpt lat="46.25506" lon="6.81176">
        <ele>1265.8</ele>
        <time>2022-03-06T09:15:32Z</time>
      </trkpt>
      <trkpt lat="46.25506" lon="6.81176">
        <ele>1266</ele>
        <time>2022-03-06T09:15:33Z</time>
      </trkpt>
      <trkpt lat="46.25506" lon="6.81177">
        <ele>1266</ele>
        <time>2022-03-06T09:15:34Z</time>
      </trkpt>
      <trkpt lat="46.25506" lon="6.81178">
        <ele>1266.2</ele>
        <time>2022-03-06T09:15:35Z</time>
      </trkpt>
      <trkpt lat="46.25507" lon="6.81178">
        <ele>1266.2</ele>
        <time>2022-03-06T09:15:36Z</time>
      </trkpt>
      <trkpt lat="46.25507" lon="6.8118">
        <ele>1266.2</ele>
        <time>2022-03-06T09:15:37Z</time>
      </trkpt>
      <trkpt lat="46.25508" lon="6.8118">
        <ele>1266.4</ele>
        <time>2022-03-06T09:15:38Z</time>
      </trkpt>
      <trkpt lat="46.25508" lon="6.81181">
        <ele>1266.4</ele>
        <time>2022-03-06T09:15:39Z</time>
      </trkpt>
      <trkpt lat="46.25507" lon="6.81184">
        <ele>1266.4</ele>
        <time>2022-03-06T09:15:40Z</time>
      </trkpt>
      <trkpt lat="46.25507" lon="6.81185">
        <ele>1266.4</ele>
        <time>2022-03-06T09:15:41Z</time>
      </trkpt>
      <trkpt lat="46.25506" lon="6.81187">
        <ele>1266.6</ele>
        <time>2022-03-06T09:15:42Z</time>
      </trkpt>
      <trkpt lat="46.25504" lon="6.81191">
        <ele>1266.6</ele>
        <time>2022-03-06T09:15:43Z</time>
      </trkpt>
      <trkpt lat="46.25504" lon="6.81192">
        <ele>1266.6</ele>
        <time>2022-03-06T09:15:44Z</time>
      </trkpt>
      <trkpt lat="46.25504" lon="6.81193">
        <ele>1266.6</ele>
        <time>2022-03-06T09:15:45Z</time>
      </trkpt>
      <trkpt lat="46.25504" lon="6.81194">
        <ele>1266.6</ele>
        <time>2022-03-06T09:15:46Z</time>
      </trkpt>
      <trkpt lat="46.25504" lon="6.81194">
        <ele>1266.6</ele>
        <time>2022-03-06T09:15:47Z</time>
      </trkpt>
      <trkpt lat="46.25504" lon="6.81194">
        <ele>1266.6</ele>
        <time>2022-03-06T09:15:48Z</time>
      </trkpt>
      <trkpt lat="46.25505" lon="6.81194">
        <ele>1266.6</ele>
        <time>2022-03-06T09:15:49Z</time>
      </trkpt>
      <trkpt lat="46.2551" lon="6.81192">
        <ele>1266.6</ele>
        <time>2022-03-06T09:15:53Z</time>
      </trkpt>
      <trkpt lat="46.25515" lon="6.81188">
        <ele>1267</ele>
        <time>2022-03-06T09:16:00Z</time>
      </trkpt>
      <trkpt lat="46.25519" lon="6.8119">
        <ele>1267</ele>
        <time>2022-03-06T09:16:06Z</time>
      </trkpt>
      <trkpt lat="46.2552" lon="6.8119">
        <ele>1266.8</ele>
        <time>2022-03-06T09:16:07Z</time>
      </trkpt>
      <trkpt lat="46.25521" lon="6.81191">
        <ele>1266.8</ele>
        <time>2022-03-06T09:16:08Z</time>
      </trkpt>
      <trkpt lat="46.25522" lon="6.81191">
        <ele>1267</ele>
        <time>2022-03-06T09:16:09Z</time>
      </trkpt>
      <trkpt lat="46.25523" lon="6.81192">
        <ele>1267</ele>
        <time>2022-03-06T09:16:10Z</time>
      </trkpt>
      <trkpt lat="46.25524" lon="6.81192">
        <ele>1266.8</ele>
        <time>2022-03-06T09:16:11Z</time>
      </trkpt>
      <trkpt lat="46.25524" lon="6.81192">
        <ele>1266.6</ele>
        <time>2022-03-06T09:16:12Z</time>
      </trkpt>
      <trkpt lat="46.25526" lon="6.81193">
        <ele>1266.2</ele>
        <time>2022-03-06T09:16:13Z</time>
      </trkpt>
      <trkpt lat="46.25527" lon="6.81193">
        <ele>1266</ele>
        <time>2022-03-06T09:16:15Z</time>
      </trkpt>
      <trkpt lat="46.25529" lon="6.81195">
        <ele>1265.8</ele>
        <time>2022-03-06T09:16:21Z</time>
      </trkpt>
      <trkpt lat="46.25529" lon="6.81202">
        <ele>1265.8</ele>
        <time>2022-03-06T09:16:26Z</time>
      </trkpt>
      <trkpt lat="46.25529" lon="6.81204">
        <ele>1265.8</ele>
        <time>2022-03-06T09:16:27Z</time>
      </trkpt>
      <trkpt lat="46.2553" lon="6.81206">
        <ele>1265.8</ele>
        <time>2022-03-06T09:16:29Z</time>
      </trkpt>
      <trkpt lat="46.2553" lon="6.81209">
        <ele>1265.6</ele>
        <time>2022-03-06T09:16:30Z</time>
      </trkpt>
      <trkpt lat="46.2553" lon="6.8121">
        <ele>1265.6</ele>
        <time>2022-03-06T09:16:31Z</time>
      </trkpt>
      <trkpt lat="46.25529" lon="6.81211">
        <ele>1265.8</ele>
        <time>2022-03-06T09:16:32Z</time>
      </trkpt>
      <trkpt lat="46.2553" lon="6.81213">
        <ele>1265.6</ele>
        <time>2022-03-06T09:16:33Z</time>
      </trkpt>
      <trkpt lat="46.2553" lon="6.81216">
        <ele>1265.6</ele>
        <time>2022-03-06T09:16:34Z</time>
      </trkpt>
      <trkpt lat="46.2553" lon="6.81217">
        <ele>1265.6</ele>
        <time>2022-03-06T09:16:35Z</time>
      </trkpt>
      <trkpt lat="46.25531" lon="6.81219">
        <ele>1265.4</ele>
        <time>2022-03-06T09:16:36Z</time>
      </trkpt>
      <trkpt lat="46.25531" lon="6.81224">
        <ele>1265.6</ele>
        <time>2022-03-06T09:16:37Z</time>
      </trkpt>
      <trkpt lat="46.25531" lon="6.81225">
        <ele>1265.4</ele>
        <time>2022-03-06T09:16:38Z</time>
      </trkpt>
      <trkpt lat="46.2553" lon="6.81227">
        <ele>1265.6</ele>
        <time>2022-03-06T09:16:39Z</time>
      </trkpt>
      <trkpt lat="46.25531" lon="6.81228">
        <ele>1265.4</ele>
        <time>2022-03-06T09:16:40Z</time>
      </trkpt>
      <trkpt lat="46.25531" lon="6.81229">
        <ele>1265.4</ele>
        <time>2022-03-06T09:16:41Z</time>
      </trkpt>
      <trkpt lat="46.25532" lon="6.8123">
        <ele>1265.4</ele>
        <time>2022-03-06T09:16:42Z</time>
      </trkpt>
      <trkpt lat="46.25532" lon="6.81231">
        <ele>1265.4</ele>
        <time>2022-03-06T09:16:43Z</time>
      </trkpt>
      <trkpt lat="46.25532" lon="6.81231">
        <ele>1265.4</ele>
        <time>2022-03-06T09:16:44Z</time>
      </trkpt>
      <trkpt lat="46.25533" lon="6.81232">
        <ele>1265.4</ele>
        <time>2022-03-06T09:16:45Z</time>
      </trkpt>
      <trkpt lat="46.25533" lon="6.81233">
        <ele>1265.4</ele>
        <time>2022-03-06T09:16:46Z</time>
      </trkpt>
      <trkpt lat="46.25534" lon="6.81234">
        <ele>1265.6</ele>
        <time>2022-03-06T09:16:47Z</time>
      </trkpt>
      <trkpt lat="46.25535" lon="6.81235">
        <ele>1265.6</ele>
        <time>2022-03-06T09:16:48Z</time>
      </trkpt>
      <trkpt lat="46.25536" lon="6.81237">
        <ele>1265.8</ele>
        <time>2022-03-06T09:16:49Z</time>
      </trkpt>
      <trkpt lat="46.25537" lon="6.81238">
        <ele>1265.8</ele>
        <time>2022-03-06T09:16:50Z</time>
      </trkpt>
      <trkpt lat="46.25537" lon="6.81239">
        <ele>1265.8</ele>
        <time>2022-03-06T09:16:51Z</time>
      </trkpt>
      <trkpt lat="46.25538" lon="6.81242">
        <ele>1265.8</ele>
        <time>2022-03-06T09:16:52Z</time>
      </trkpt>
      <trkpt lat="46.25539" lon="6.81245">
        <ele>1266</ele>
        <time>2022-03-06T09:16:53Z</time>
      </trkpt>
      <trkpt lat="46.25539" lon="6.81247">
        <ele>1266</ele>
        <time>2022-03-06T09:16:54Z</time>
      </trkpt>
      <trkpt lat="46.25539" lon="6.81248">
        <ele>1266</ele>
        <time>2022-03-06T09:16:55Z</time>
      </trkpt>
      <trkpt lat="46.25539" lon="6.8125">
        <ele>1266.2</ele>
        <time>2022-03-06T09:16:56Z</time>
      </trkpt>
      <trkpt lat="46.2554" lon="6.81252">
        <ele>1266.2</ele>
        <time>2022-03-06T09:16:57Z</time>
      </trkpt>
      <trkpt lat="46.25541" lon="6.81255">
        <ele>1266.2</ele>
        <time>2022-03-06T09:16:58Z</time>
      </trkpt>
      <trkpt lat="46.25542" lon="6.81257">
        <ele>1266.4</ele>
        <time>2022-03-06T09:16:59Z</time>
      </trkpt>
      <trkpt lat="46.25542" lon="6.8126">
        <ele>1266.2</ele>
        <time>2022-03-06T09:17:00Z</time>
      </trkpt>
      <trkpt lat="46.25542" lon="6.81262">
        <ele>1266.4</ele>
        <time>2022-03-06T09:17:01Z</time>
      </trkpt>
      <trkpt lat="46.25543" lon="6.81263">
        <ele>1266.6</ele>
        <time>2022-03-06T09:17:02Z</time>
      </trkpt>
      <trkpt lat="46.25544" lon="6.81263">
        <ele>1266.6</ele>
        <time>2022-03-06T09:17:03Z</time>
      </trkpt>
      <trkpt lat="46.25545" lon="6.81264">
        <ele>1266.8</ele>
        <time>2022-03-06T09:17:04Z</time>
      </trkpt>
      <trkpt lat="46.25545" lon="6.81266">
        <ele>1266.8</ele>
        <time>2022-03-06T09:17:05Z</time>
      </trkpt>
      <trkpt lat="46.25546" lon="6.81267">
        <ele>1266.8</ele>
        <time>2022-03-06T09:17:06Z</time>
      </trkpt>
      <trkpt lat="46.25546" lon="6.81268">
        <ele>1267</ele>
        <time>2022-03-06T09:17:07Z</time>
      </trkpt>
      <trkpt lat="46.25546" lon="6.8127">
        <ele>1267</ele>
        <time>2022-03-06T09:17:08Z</time>
      </trkpt>
      <trkpt lat="46.25546" lon="6.81271">
        <ele>1267</ele>
        <time>2022-03-06T09:17:09Z</time>
      </trkpt>
      <trkpt lat="46.25546" lon="6.81274">
        <ele>1267</ele>
        <time>2022-03-06T09:17:10Z</time>
      </trkpt>
      <trkpt lat="46.25547" lon="6.81275">
        <ele>1267</ele>
        <time>2022-03-06T09:17:11Z</time>
      </trkpt>
      <trkpt lat="46.25547" lon="6.81276">
        <ele>1267</ele>
        <time>2022-03-06T09:17:12Z</time>
      </trkpt>
      <trkpt lat="46.25547" lon="6.81278">
        <ele>1267</ele>
        <time>2022-03-06T09:17:13Z</time>
      </trkpt>
      <trkpt lat="46.25547" lon="6.8128">
        <ele>1267</ele>
        <time>2022-03-06T09:17:14Z</time>
      </trkpt>
      <trkpt lat="46.25548" lon="6.81281">
        <ele>1267</ele>
        <time>2022-03-06T09:17:15Z</time>
      </trkpt>
      <trkpt lat="46.25548" lon="6.81282">
        <ele>1267</ele>
        <time>2022-03-06T09:17:16Z</time>
      </trkpt>
      <trkpt lat="46.25548" lon="6.81283">
        <ele>1267</ele>
        <time>2022-03-06T09:17:17Z</time>
      </trkpt>
      <trkpt lat="46.2555" lon="6.81284">
        <ele>1267</ele>
        <time>2022-03-06T09:17:18Z</time>
      </trkpt>
      <trkpt lat="46.25551" lon="6.81285">
        <ele>1267</ele>
        <time>2022-03-06T09:17:19Z</time>
      </trkpt>
      <trkpt lat="46.25552" lon="6.81286">
        <ele>1266.8</ele>
        <time>2022-03-06T09:17:20Z</time>
      </trkpt>
      <trkpt lat="46.25553" lon="6.81287">
        <ele>1267</ele>
        <time>2022-03-06T09:17:21Z</time>
      </trkpt>
      <trkpt lat="46.25553" lon="6.81287">
        <ele>1266.8</ele>
        <time>2022-03-06T09:17:22Z</time>
      </trkpt>
      <trkpt lat="46.25554" lon="6.81288">
        <ele>1266.8</ele>
        <time>2022-03-06T09:17:23Z</time>
      </trkpt>
      <trkpt lat="46.25555" lon="6.81289">
        <ele>1266.8</ele>
        <time>2022-03-06T09:17:24Z</time>
      </trkpt>
      <trkpt lat="46.25555" lon="6.8129">
        <ele>1266.8</ele>
        <time>2022-03-06T09:17:25Z</time>
      </trkpt>
      <trkpt lat="46.25555" lon="6.81291">
        <ele>1266.8</ele>
        <time>2022-03-06T09:17:26Z</time>
      </trkpt>
      <trkpt lat="46.25557" lon="6.81293">
        <ele>1266.6</ele>
        <time>2022-03-06T09:17:27Z</time>
      </trkpt>
      <trkpt lat="46.25562" lon="6.81294">
        <ele>1266.6</ele>
        <time>2022-03-06T09:17:28Z</time>
      </trkpt>
      <trkpt lat="46.25565" lon="6.81296">
        <ele>1266.6</ele>
        <time>2022-03-06T09:17:29Z</time>
      </trkpt>
      <trkpt lat="46.25567" lon="6.81298">
        <ele>1266.4</ele>
        <time>2022-03-06T09:17:30Z</time>
      </trkpt>
      <trkpt lat="46.25569" lon="6.81301">
        <ele>1266.4</ele>
        <time>2022-03-06T09:17:31Z</time>
      </trkpt>
      <trkpt lat="46.2557" lon="6.81302">
        <ele>1266.4</ele>
        <time>2022-03-06T09:17:32Z</time>
      </trkpt>
      <trkpt lat="46.25573" lon="6.81303">
        <ele>1266.2</ele>
        <time>2022-03-06T09:17:33Z</time>
      </trkpt>
      <trkpt lat="46.25574" lon="6.81304">
        <ele>1266.2</ele>
        <time>2022-03-06T09:17:34Z</time>
      </trkpt>
      <trkpt lat="46.25579" lon="6.81306">
        <ele>1265.8</ele>
        <time>2022-03-06T09:17:39Z</time>
      </trkpt>
      <trkpt lat="46.2558" lon="6.81307">
        <ele>1265.8</ele>
        <time>2022-03-06T09:17:40Z</time>
      </trkpt>
      <trkpt lat="46.2558" lon="6.81307">
        <ele>1265.6</ele>
        <time>2022-03-06T09:17:41Z</time>
      </trkpt>
      <trkpt lat="46.25581" lon="6.81308">
        <ele>1265.6</ele>
        <time>2022-03-06T09:17:42Z</time>
      </trkpt>
      <trkpt lat="46.25581" lon="6.8131">
        <ele>1265.4</ele>
        <time>2022-03-06T09:17:43Z</time>
      </trkpt>
      <trkpt lat="46.25583" lon="6.81325">
        <ele>1265</ele>
        <time>2022-03-06T09:17:48Z</time>
      </trkpt>
      <trkpt lat="46.25584" lon="6.81327">
        <ele>1265</ele>
        <time>2022-03-06T09:17:49Z</time>
      </trkpt>
      <trkpt lat="46.25584" lon="6.81329">
        <ele>1264.8</ele>
        <time>2022-03-06T09:17:50Z</time>
      </trkpt>
      <trkpt lat="46.25584" lon="6.81331">
        <ele>1264.8</ele>
        <time>2022-03-06T09:17:51Z</time>
      </trkpt>
      <trkpt lat="46.25586" lon="6.81335">
        <ele>1264.4</ele>
        <time>2022-03-06T09:17:54Z</time>
      </trkpt>
      <trkpt lat="46.25587" lon="6.81336">
        <ele>1264.4</ele>
        <time>2022-03-06T09:17:55Z</time>
      </trkpt>
      <trkpt lat="46.25587" lon="6.81336">
        <ele>1264.2</ele>
        <time>2022-03-06T09:17:56Z</time>
      </trkpt>
      <trkpt lat="46.25588" lon="6.81337">
        <ele>1264.2</ele>
        <time>2022-03-06T09:17:57Z</time>
      </trkpt>
      <trkpt lat="46.25588" lon="6.81338">
        <ele>1264.4</ele>
        <time>2022-03-06T09:17:58Z</time>
      </trkpt>
      <trkpt lat="46.25589" lon="6.81339">
        <ele>1264.2</ele>
        <time>2022-03-06T09:17:59Z</time>
      </trkpt>
      <trkpt lat="46.2559" lon="6.8134">
        <ele>1264</ele>
        <time>2022-03-06T09:18:01Z</time>
      </trkpt>
      <trkpt lat="46.2559" lon="6.81341">
        <ele>1264</ele>
        <time>2022-03-06T09:18:02Z</time>
      </trkpt>
      <trkpt lat="46.25594" lon="6.81347">
        <ele>1263.8</ele>
        <time>2022-03-06T09:18:07Z</time>
      </trkpt>
      <trkpt lat="46.25595" lon="6.81349">
        <ele>1263.8</ele>
        <time>2022-03-06T09:18:08Z</time>
      </trkpt>
      <trkpt lat="46.25596" lon="6.8135">
        <ele>1263.6</ele>
        <time>2022-03-06T09:18:09Z</time>
      </trkpt>
      <trkpt lat="46.25597" lon="6.81352">
        <ele>1263.6</ele>
        <time>2022-03-06T09:18:11Z</time>
      </trkpt>
      <trkpt lat="46.25598" lon="6.81354">
        <ele>1263.6</ele>
        <time>2022-03-06T09:18:12Z</time>
      </trkpt>
      <trkpt lat="46.25599" lon="6.81355">
        <ele>1263.4</ele>
        <time>2022-03-06T09:18:13Z</time>
      </trkpt>
      <trkpt lat="46.25599" lon="6.81358">
        <ele>1263.4</ele>
        <time>2022-03-06T09:18:15Z</time>
      </trkpt>
      <trkpt lat="46.25599" lon="6.8136">
        <ele>1263.6</ele>
        <time>2022-03-06T09:18:16Z</time>
      </trkpt>
      <trkpt lat="46.25599" lon="6.81361">
        <ele>1263.4</ele>
        <time>2022-03-06T09:18:17Z</time>
      </trkpt>
      <trkpt lat="46.256" lon="6.81363">
        <ele>1263.2</ele>
        <time>2022-03-06T09:18:18Z</time>
      </trkpt>
      <trkpt lat="46.25599" lon="6.81364">
        <ele>1263</ele>
        <time>2022-03-06T09:18:19Z</time>
      </trkpt>
      <trkpt lat="46.25599" lon="6.81366">
        <ele>1263</ele>
        <time>2022-03-06T09:18:20Z</time>
      </trkpt>
      <trkpt lat="46.256" lon="6.81366">
        <ele>1263</ele>
        <time>2022-03-06T09:18:21Z</time>
      </trkpt>
      <trkpt lat="46.25601" lon="6.81366">
        <ele>1262.8</ele>
        <time>2022-03-06T09:18:22Z</time>
      </trkpt>
      <trkpt lat="46.25601" lon="6.81367">
        <ele>1262.6</ele>
        <time>2022-03-06T09:18:23Z</time>
      </trkpt>
      <trkpt lat="46.25602" lon="6.81367">
        <ele>1262.6</ele>
        <time>2022-03-06T09:18:24Z</time>
      </trkpt>
      <trkpt lat="46.25602" lon="6.81369">
        <ele>1262.6</ele>
        <time>2022-03-06T09:18:25Z</time>
      </trkpt>
      <trkpt lat="46.25603" lon="6.81369">
        <ele>1262.6</ele>
        <time>2022-03-06T09:18:26Z</time>
      </trkpt>
      <trkpt lat="46.25603" lon="6.81369">
        <ele>1262.6</ele>
        <time>2022-03-06T09:18:27Z</time>
      </trkpt>
      <trkpt lat="46.25603" lon="6.81371">
        <ele>1262.4</ele>
        <time>2022-03-06T09:18:28Z</time>
      </trkpt>
      <trkpt lat="46.25603" lon="6.81371">
        <ele>1262.4</ele>
        <time>2022-03-06T09:18:29Z</time>
      </trkpt>
      <trkpt lat="46.25604" lon="6.81372">
        <ele>1262.4</ele>
        <time>2022-03-06T09:18:30Z</time>
      </trkpt>
      <trkpt lat="46.25604" lon="6.81373">
        <ele>1262.4</ele>
        <time>2022-03-06T09:18:31Z</time>
      </trkpt>
      <trkpt lat="46.25605" lon="6.81375">
        <ele>1262.4</ele>
        <time>2022-03-06T09:18:33Z</time>
      </trkpt>
      <trkpt lat="46.25606" lon="6.81377">
        <ele>1262.4</ele>
        <time>2022-03-06T09:18:34Z</time>
      </trkpt>
      <trkpt lat="46.25606" lon="6.81382">
        <ele>1262.4</ele>
        <time>2022-03-06T09:18:37Z</time>
      </trkpt>
      <trkpt lat="46.25607" lon="6.81383">
        <ele>1262.2</ele>
        <time>2022-03-06T09:18:38Z</time>
      </trkpt>
      <trkpt lat="46.25607" lon="6.81385">
        <ele>1262.2</ele>
        <time>2022-03-06T09:18:39Z</time>
      </trkpt>
      <trkpt lat="46.25607" lon="6.81387">
        <ele>1262.2</ele>
        <time>2022-03-06T09:18:40Z</time>
      </trkpt>
      <trkpt lat="46.25609" lon="6.81392">
        <ele>1262.2</ele>
        <time>2022-03-06T09:18:42Z</time>
      </trkpt>
      <trkpt lat="46.25611" lon="6.81394">
        <ele>1262.2</ele>
        <time>2022-03-06T09:18:43Z</time>
      </trkpt>
      <trkpt lat="46.25612" lon="6.81396">
        <ele>1262.2</ele>
        <time>2022-03-06T09:18:44Z</time>
      </trkpt>
      <trkpt lat="46.25612" lon="6.81397">
        <ele>1262.2</ele>
        <time>2022-03-06T09:18:45Z</time>
      </trkpt>
      <trkpt lat="46.25612" lon="6.81398">
        <ele>1262</ele>
        <time>2022-03-06T09:18:46Z</time>
      </trkpt>
      <trkpt lat="46.25613" lon="6.81398">
        <ele>1261.8</ele>
        <time>2022-03-06T09:18:47Z</time>
      </trkpt>
      <trkpt lat="46.25613" lon="6.81399">
        <ele>1261.8</ele>
        <time>2022-03-06T09:18:48Z</time>
      </trkpt>
      <trkpt lat="46.25614" lon="6.814">
        <ele>1261.6</ele>
        <time>2022-03-06T09:18:49Z</time>
      </trkpt>
      <trkpt lat="46.25615" lon="6.81401">
        <ele>1261.4</ele>
        <time>2022-03-06T09:18:50Z</time>
      </trkpt>
      <trkpt lat="46.25615" lon="6.81402">
        <ele>1261.2</ele>
        <time>2022-03-06T09:18:51Z</time>
      </trkpt>
      <trkpt lat="46.25616" lon="6.81402">
        <ele>1261</ele>
        <time>2022-03-06T09:18:52Z</time>
      </trkpt>
      <trkpt lat="46.25618" lon="6.81404">
        <ele>1261</ele>
        <time>2022-03-06T09:18:53Z</time>
      </trkpt>
      <trkpt lat="46.2562" lon="6.81404">
        <ele>1260.8</ele>
        <time>2022-03-06T09:18:55Z</time>
      </trkpt>
      <trkpt lat="46.2562" lon="6.81404">
        <ele>1260.8</ele>
        <time>2022-03-06T09:18:56Z</time>
      </trkpt>
      <trkpt lat="46.25621" lon="6.81405">
        <ele>1260.8</ele>
        <time>2022-03-06T09:18:57Z</time>
      </trkpt>
      <trkpt lat="46.25622" lon="6.81405">
        <ele>1260.8</ele>
        <time>2022-03-06T09:18:58Z</time>
      </trkpt>
      <trkpt lat="46.25622" lon="6.81406">
        <ele>1260.6</ele>
        <time>2022-03-06T09:18:59Z</time>
      </trkpt>
      <trkpt lat="46.25622" lon="6.81406">
        <ele>1260.8</ele>
        <time>2022-03-06T09:19:00Z</time>
      </trkpt>
      <trkpt lat="46.25623" lon="6.81407">
        <ele>1260.8</ele>
        <time>2022-03-06T09:19:01Z</time>
      </trkpt>
      <trkpt lat="46.25624" lon="6.81408">
        <ele>1260.8</ele>
        <time>2022-03-06T09:19:02Z</time>
      </trkpt>
      <trkpt lat="46.25625" lon="6.81409">
        <ele>1260.8</ele>
        <time>2022-03-06T09:19:04Z</time>
      </trkpt>
      <trkpt lat="46.25625" lon="6.8141">
        <ele>1260.8</ele>
        <time>2022-03-06T09:19:05Z</time>
      </trkpt>
      <trkpt lat="46.25625" lon="6.81411">
        <ele>1260.8</ele>
        <time>2022-03-06T09:19:06Z</time>
      </trkpt>
      <trkpt lat="46.25626" lon="6.81412">
        <ele>1260.8</ele>
        <time>2022-03-06T09:19:07Z</time>
      </trkpt>
      <trkpt lat="46.25626" lon="6.81412">
        <ele>1261</ele>
        <time>2022-03-06T09:19:08Z</time>
      </trkpt>
      <trkpt lat="46.25626" lon="6.81413">
        <ele>1261</ele>
        <time>2022-03-06T09:19:09Z</time>
      </trkpt>
      <trkpt lat="46.25626" lon="6.81414">
        <ele>1261</ele>
        <time>2022-03-06T09:19:10Z</time>
      </trkpt>
      <trkpt lat="46.25626" lon="6.81415">
        <ele>1261</ele>
        <time>2022-03-06T09:19:11Z</time>
      </trkpt>
      <trkpt lat="46.25626" lon="6.81416">
        <ele>1261</ele>
        <time>2022-03-06T09:19:12Z</time>
      </trkpt>
      <trkpt lat="46.25626" lon="6.81417">
        <ele>1261</ele>
        <time>2022-03-06T09:19:13Z</time>
      </trkpt>
      <trkpt lat="46.25626" lon="6.81417">
        <ele>1261</ele>
        <time>2022-03-06T09:19:14Z</time>
      </trkpt>
      <trkpt lat="46.25626" lon="6.81418">
        <ele>1261</ele>
        <time>2022-03-06T09:19:15Z</time>
      </trkpt>
      <trkpt lat="46.25627" lon="6.8142">
        <ele>1261</ele>
        <time>2022-03-06T09:19:16Z</time>
      </trkpt>
      <trkpt lat="46.25628" lon="6.8142">
        <ele>1261</ele>
        <time>2022-03-06T09:19:17Z</time>
      </trkpt>
      <trkpt lat="46.25629" lon="6.8142">
        <ele>1261</ele>
        <time>2022-03-06T09:19:18Z</time>
      </trkpt>
      <trkpt lat="46.25629" lon="6.81423">
        <ele>1261</ele>
        <time>2022-03-06T09:19:25Z</time>
      </trkpt>
      <trkpt lat="46.2563" lon="6.81425">
        <ele>1261</ele>
        <time>2022-03-06T09:19:28Z</time>
      </trkpt>
      <trkpt lat="46.2563" lon="6.81426">
        <ele>1261</ele>
        <time>2022-03-06T09:19:31Z</time>
      </trkpt>
      <trkpt lat="46.25626" lon="6.81429">
        <ele>1260.8</ele>
        <time>2022-03-06T09:19:41Z</time>
      </trkpt>
      <trkpt lat="46.25624" lon="6.81428">
        <ele>1261</ele>
        <time>2022-03-06T09:19:44Z</time>
      </trkpt>
      <trkpt lat="46.25622" lon="6.81428">
        <ele>1260.8</ele>
        <time>2022-03-06T09:19:51Z</time>
      </trkpt>
      <trkpt lat="46.25622" lon="6.81427">
        <ele>1260.8</ele>
        <time>2022-03-06T09:19:56Z</time>
      </trkpt>
      <trkpt lat="46.25623" lon="6.81426">
        <ele>1261.2</ele>
        <time>2022-03-06T09:20:02Z</time>
      </trkpt>
      <trkpt lat="46.25622" lon="6.81425">
        <ele>1261</ele>
        <time>2022-03-06T09:20:11Z</time>
      </trkpt>
      <trkpt lat="46.25618" lon="6.81425">
        <ele>1261.2</ele>
        <time>2022-03-06T09:20:15Z</time>
      </trkpt>
      <trkpt lat="46.25617" lon="6.81426">
        <ele>1261.2</ele>
        <time>2022-03-06T09:20:23Z</time>
      </trkpt>
      <trkpt lat="46.25617" lon="6.81426">
        <ele>1261.2</ele>
        <time>2022-03-06T09:20:29Z</time>
      </trkpt>
      <trkpt lat="46.25618" lon="6.81426">
        <ele>1261</ele>
        <time>2022-03-06T09:20:34Z</time>
      </trkpt>
      <trkpt lat="46.25618" lon="6.81426">
        <ele>1261.2</ele>
        <time>2022-03-06T09:20:39Z</time>
      </trkpt>
      <trkpt lat="46.25621" lon="6.81426">
        <ele>1261</ele>
        <time>2022-03-06T09:20:48Z</time>
      </trkpt>
      <trkpt lat="46.25622" lon="6.81427">
        <ele>1261</ele>
        <time>2022-03-06T09:20:51Z</time>
      </trkpt>
      <trkpt lat="46.25624" lon="6.81427">
        <ele>1260.8</ele>
        <time>2022-03-06T09:20:59Z</time>
      </trkpt>
      <trkpt lat="46.25624" lon="6.81427">
        <ele>1261</ele>
        <time>2022-03-06T09:21:00Z</time>
      </trkpt>
      <trkpt lat="46.25624" lon="6.81426">
        <ele>1261</ele>
        <time>2022-03-06T09:21:01Z</time>
      </trkpt>
      <trkpt lat="46.25624" lon="6.81426">
        <ele>1261</ele>
        <time>2022-03-06T09:21:02Z</time>
      </trkpt>
      <trkpt lat="46.25622" lon="6.81427">
        <ele>1260.8</ele>
        <time>2022-03-06T09:21:06Z</time>
      </trkpt>
      <trkpt lat="46.25618" lon="6.81427">
        <ele>1261</ele>
        <time>2022-03-06T09:21:20Z</time>
      </trkpt>
      <trkpt lat="46.25619" lon="6.81427">
        <ele>1261</ele>
        <time>2022-03-06T09:21:21Z</time>
      </trkpt>
      <trkpt lat="46.25619" lon="6.81429">
        <ele>1260.8</ele>
        <time>2022-03-06T09:21:29Z</time>
      </trkpt>
      <trkpt lat="46.2562" lon="6.81431">
        <ele>1260.8</ele>
        <time>2022-03-06T09:21:33Z</time>
      </trkpt>
      <trkpt lat="46.2562" lon="6.81432">
        <ele>1260.6</ele>
        <time>2022-03-06T09:21:34Z</time>
      </trkpt>
      <trkpt lat="46.2562" lon="6.81432">
        <ele>1260.8</ele>
        <time>2022-03-06T09:21:35Z</time>
      </trkpt>
      <trkpt lat="46.2562" lon="6.81433">
        <ele>1261</ele>
        <time>2022-03-06T09:21:36Z</time>
      </trkpt>
      <trkpt lat="46.25621" lon="6.81434">
        <ele>1260.8</ele>
        <time>2022-03-06T09:21:37Z</time>
      </trkpt>
      <trkpt lat="46.25621" lon="6.81434">
        <ele>1261</ele>
        <time>2022-03-06T09:21:38Z</time>
      </trkpt>
      <trkpt lat="46.25621" lon="6.81435">
        <ele>1261</ele>
        <time>2022-03-06T09:21:39Z</time>
      </trkpt>
      <trkpt lat="46.25621" lon="6.81436">
        <ele>1261</ele>
        <time>2022-03-06T09:21:40Z</time>
      </trkpt>
      <trkpt lat="46.25622" lon="6.81437">
        <ele>1260.8</ele>
        <time>2022-03-06T09:21:41Z</time>
      </trkpt>
      <trkpt lat="46.25622" lon="6.81438">
        <ele>1261</ele>
        <time>2022-03-06T09:21:42Z</time>
      </trkpt>
      <trkpt lat="46.25622" lon="6.81439">
        <ele>1261</ele>
        <time>2022-03-06T09:21:43Z</time>
      </trkpt>
      <trkpt lat="46.25623" lon="6.8144">
        <ele>1261</ele>
        <time>2022-03-06T09:21:44Z</time>
      </trkpt>
      <trkpt lat="46.25623" lon="6.81441">
        <ele>1261.2</ele>
        <time>2022-03-06T09:21:45Z</time>
      </trkpt>
      <trkpt lat="46.25623" lon="6.81442">
        <ele>1261.2</ele>
        <time>2022-03-06T09:21:46Z</time>
      </trkpt>
      <trkpt lat="46.25624" lon="6.81443">
        <ele>1261.2</ele>
        <time>2022-03-06T09:21:47Z</time>
      </trkpt>
      <trkpt lat="46.25624" lon="6.81443">
        <ele>1261.4</ele>
        <time>2022-03-06T09:21:48Z</time>
      </trkpt>
      <trkpt lat="46.25625" lon="6.81444">
        <ele>1261.6</ele>
        <time>2022-03-06T09:21:49Z</time>
      </trkpt>
      <trkpt lat="46.25626" lon="6.81444">
        <ele>1261.8</ele>
        <time>2022-03-06T09:21:50Z</time>
      </trkpt>
      <trkpt lat="46.25627" lon="6.81445">
        <ele>1262.2</ele>
        <time>2022-03-06T09:21:51Z</time>
      </trkpt>
      <trkpt lat="46.25628" lon="6.81445">
        <ele>1262.2</ele>
        <time>2022-03-06T09:21:52Z</time>
      </trkpt>
      <trkpt lat="46.25628" lon="6.81447">
        <ele>1262.2</ele>
        <time>2022-03-06T09:21:53Z</time>
      </trkpt>
      <trkpt lat="46.25629" lon="6.81448">
        <ele>1262.4</ele>
        <time>2022-03-06T09:21:54Z</time>
      </trkpt>
      <trkpt lat="46.2563" lon="6.81448">
        <ele>1262.6</ele>
        <time>2022-03-06T09:21:55Z</time>
      </trkpt>
      <trkpt lat="46.2563" lon="6.81449">
        <ele>1262.8</ele>
        <time>2022-03-06T09:21:56Z</time>
      </trkpt>
      <trkpt lat="46.25631" lon="6.8145">
        <ele>1263.2</ele>
        <time>2022-03-06T09:21:57Z</time>
      </trkpt>
      <trkpt lat="46.25632" lon="6.81451">
        <ele>1263.6</ele>
        <time>2022-03-06T09:21:58Z</time>
      </trkpt>
      <trkpt lat="46.25632" lon="6.81452">
        <ele>1263.6</ele>
        <time>2022-03-06T09:21:59Z</time>
      </trkpt>
      <trkpt lat="46.25633" lon="6.81453">
        <ele>1263.8</ele>
        <time>2022-03-06T09:22:00Z</time>
      </trkpt>
      <trkpt lat="46.25633" lon="6.81453">
        <ele>1263.8</ele>
        <time>2022-03-06T09:22:01Z</time>
      </trkpt>
      <trkpt lat="46.25634" lon="6.81454">
        <ele>1264.2</ele>
        <time>2022-03-06T09:22:02Z</time>
      </trkpt>
      <trkpt lat="46.25635" lon="6.81455">
        <ele>1264.4</ele>
        <time>2022-03-06T09:22:03Z</time>
      </trkpt>
      <trkpt lat="46.25635" lon="6.81456">
        <ele>1264.8</ele>
        <time>2022-03-06T09:22:04Z</time>
      </trkpt>
      <trkpt lat="46.25635" lon="6.81458">
        <ele>1265</ele>
        <time>2022-03-06T09:22:05Z</time>
      </trkpt>
      <trkpt lat="46.25635" lon="6.81458">
        <ele>1265</ele>
        <time>2022-03-06T09:22:06Z</time>
      </trkpt>
      <trkpt lat="46.25636" lon="6.81459">
        <ele>1265</ele>
        <time>2022-03-06T09:22:07Z</time>
      </trkpt>
      <trkpt lat="46.25636" lon="6.8146">
        <ele>1265.4</ele>
        <time>2022-03-06T09:22:08Z</time>
      </trkpt>
      <trkpt lat="46.25636" lon="6.81461">
        <ele>1265.6</ele>
        <time>2022-03-06T09:22:09Z</time>
      </trkpt>
      <trkpt lat="46.25637" lon="6.81462">
        <ele>1265.6</ele>
        <time>2022-03-06T09:22:10Z</time>
      </trkpt>
      <trkpt lat="46.25637" lon="6.81463">
        <ele>1266</ele>
        <time>2022-03-06T09:22:11Z</time>
      </trkpt>
      <trkpt lat="46.25638" lon="6.81463">
        <ele>1266.2</ele>
        <time>2022-03-06T09:22:12Z</time>
      </trkpt>
      <trkpt lat="46.25639" lon="6.81464">
        <ele>1266.2</ele>
        <time>2022-03-06T09:22:13Z</time>
      </trkpt>
      <trkpt lat="46.25639" lon="6.81465">
        <ele>1266.4</ele>
        <time>2022-03-06T09:22:14Z</time>
      </trkpt>
      <trkpt lat="46.2564" lon="6.81466">
        <ele>1266.4</ele>
        <time>2022-03-06T09:22:15Z</time>
      </trkpt>
      <trkpt lat="46.25641" lon="6.81467">
        <ele>1266.8</ele>
        <time>2022-03-06T09:22:16Z</time>
      </trkpt>
      <trkpt lat="46.25642" lon="6.81467">
        <ele>1267</ele>
        <time>2022-03-06T09:22:17Z</time>
      </trkpt>
      <trkpt lat="46.25642" lon="6.81467">
        <ele>1267</ele>
        <time>2022-03-06T09:22:18Z</time>
      </trkpt>
      <trkpt lat="46.25643" lon="6.81468">
        <ele>1267.4</ele>
        <time>2022-03-06T09:22:19Z</time>
      </trkpt>
      <trkpt lat="46.25643" lon="6.81469">
        <ele>1267.6</ele>
        <time>2022-03-06T09:22:20Z</time>
      </trkpt>
      <trkpt lat="46.25644" lon="6.8147">
        <ele>1267.6</ele>
        <time>2022-03-06T09:22:21Z</time>
      </trkpt>
      <trkpt lat="46.25644" lon="6.81471">
        <ele>1267.8</ele>
        <time>2022-03-06T09:22:22Z</time>
      </trkpt>
      <trkpt lat="46.25645" lon="6.81472">
        <ele>1267.8</ele>
        <time>2022-03-06T09:22:23Z</time>
      </trkpt>
      <trkpt lat="46.25645" lon="6.81472">
        <ele>1268.2</ele>
        <time>2022-03-06T09:22:24Z</time>
      </trkpt>
      <trkpt lat="46.25646" lon="6.81473">
        <ele>1268.2</ele>
        <time>2022-03-06T09:22:25Z</time>
      </trkpt>
      <trkpt lat="46.25647" lon="6.81473">
        <ele>1268.6</ele>
        <time>2022-03-06T09:22:26Z</time>
      </trkpt>
      <trkpt lat="46.25648" lon="6.81473">
        <ele>1268.6</ele>
        <time>2022-03-06T09:22:27Z</time>
      </trkpt>
      <trkpt lat="46.25649" lon="6.81473">
        <ele>1268.8</ele>
        <time>2022-03-06T09:22:28Z</time>
      </trkpt>
      <trkpt lat="46.25649" lon="6.81474">
        <ele>1268.8</ele>
        <time>2022-03-06T09:22:29Z</time>
      </trkpt>
      <trkpt lat="46.2565" lon="6.81474">
        <ele>1269.2</ele>
        <time>2022-03-06T09:22:30Z</time>
      </trkpt>
      <trkpt lat="46.2565" lon="6.81476">
        <ele>1269.6</ele>
        <time>2022-03-06T09:22:33Z</time>
      </trkpt>
      <trkpt lat="46.25653" lon="6.81476">
        <ele>1270.6</ele>
        <time>2022-03-06T09:22:41Z</time>
      </trkpt>
      <trkpt lat="46.25653" lon="6.81476">
        <ele>1270.6</ele>
        <time>2022-03-06T09:22:44Z</time>
      </trkpt>
      <trkpt lat="46.25655" lon="6.81476">
        <ele>1270.8</ele>
        <time>2022-03-06T09:22:53Z</time>
      </trkpt>
      <trkpt lat="46.25656" lon="6.81476">
        <ele>1270.6</ele>
        <time>2022-03-06T09:22:58Z</time>
      </trkpt>
      <trkpt lat="46.25656" lon="6.81476">
        <ele>1270.6</ele>
        <time>2022-03-06T09:23:03Z</time>
      </trkpt>
      <trkpt lat="46.25656" lon="6.81476">
        <ele>1270.6</ele>
        <time>2022-03-06T09:23:09Z</time>
      </trkpt>
      <trkpt lat="46.25656" lon="6.81477">
        <ele>1270.8</ele>
        <time>2022-03-06T09:23:17Z</time>
      </trkpt>
      <trkpt lat="46.25656" lon="6.81477">
        <ele>1270.6</ele>
        <time>2022-03-06T09:23:23Z</time>
      </trkpt>
      <trkpt lat="46.25656" lon="6.81477">
        <ele>1270.6</ele>
        <time>2022-03-06T09:23:26Z</time>
      </trkpt>
      <trkpt lat="46.25656" lon="6.81477">
        <ele>1270.8</ele>
        <time>2022-03-06T09:23:34Z</time>
      </trkpt>
      <trkpt lat="46.25656" lon="6.81477">
        <ele>1270.8</ele>
        <time>2022-03-06T09:23:36Z</time>
      </trkpt>
      <trkpt lat="46.25656" lon="6.81478">
        <ele>1270.6</ele>
        <time>2022-03-06T09:23:45Z</time>
      </trkpt>
      <trkpt lat="46.25655" lon="6.81479">
        <ele>1270.6</ele>
        <time>2022-03-06T09:23:50Z</time>
      </trkpt>
      <trkpt lat="46.25655" lon="6.8148">
        <ele>1270.8</ele>
        <time>2022-03-06T09:23:56Z</time>
      </trkpt>
      <trkpt lat="46.25656" lon="6.81478">
        <ele>1270.8</ele>
        <time>2022-03-06T09:24:05Z</time>
      </trkpt>
      <trkpt lat="46.25658" lon="6.81477">
        <ele>1270.6</ele>
        <time>2022-03-06T09:24:08Z</time>
      </trkpt>
      <trkpt lat="46.25659" lon="6.81479">
        <ele>1271</ele>
        <time>2022-03-06T09:24:12Z</time>
      </trkpt>
      <trkpt lat="46.2566" lon="6.8148">
        <ele>1270.8</ele>
        <time>2022-03-06T09:24:13Z</time>
      </trkpt>
      <trkpt lat="46.2566" lon="6.8148">
        <ele>1270.8</ele>
        <time>2022-03-06T09:24:14Z</time>
      </trkpt>
      <trkpt lat="46.25661" lon="6.81481">
        <ele>1270.8</ele>
        <time>2022-03-06T09:24:15Z</time>
      </trkpt>
      <trkpt lat="46.25661" lon="6.81482">
        <ele>1270.8</ele>
        <time>2022-03-06T09:24:16Z</time>
      </trkpt>
      <trkpt lat="46.25662" lon="6.81483">
        <ele>1271</ele>
        <time>2022-03-06T09:24:17Z</time>
      </trkpt>
      <trkpt lat="46.25663" lon="6.81483">
        <ele>1271</ele>
        <time>2022-03-06T09:24:18Z</time>
      </trkpt>
      <trkpt lat="46.25664" lon="6.81484">
        <ele>1271.2</ele>
        <time>2022-03-06T09:24:19Z</time>
      </trkpt>
      <trkpt lat="46.25665" lon="6.81485">
        <ele>1271.4</ele>
        <time>2022-03-06T09:24:20Z</time>
      </trkpt>
      <trkpt lat="46.25666" lon="6.81486">
        <ele>1271.4</ele>
        <time>2022-03-06T09:24:21Z</time>
      </trkpt>
      <trkpt lat="46.25667" lon="6.81487">
        <ele>1271.4</ele>
        <time>2022-03-06T09:24:22Z</time>
      </trkpt>
      <trkpt lat="46.25667" lon="6.81488">
        <ele>1271.8</ele>
        <time>2022-03-06T09:24:23Z</time>
      </trkpt>
      <trkpt lat="46.25668" lon="6.81489">
        <ele>1272.2</ele>
        <time>2022-03-06T09:24:24Z</time>
      </trkpt>
      <trkpt lat="46.25669" lon="6.8149">
        <ele>1272.4</ele>
        <time>2022-03-06T09:24:25Z</time>
      </trkpt>
      <trkpt lat="46.25669" lon="6.81492">
        <ele>1272.6</ele>
        <time>2022-03-06T09:24:26Z</time>
      </trkpt>
      <trkpt lat="46.2567" lon="6.81493">
        <ele>1272.6</ele>
        <time>2022-03-06T09:24:27Z</time>
      </trkpt>
      <trkpt lat="46.25671" lon="6.81494">
        <ele>1272.8</ele>
        <time>2022-03-06T09:24:28Z</time>
      </trkpt>
      <trkpt lat="46.25671" lon="6.81495">
        <ele>1273.2</ele>
        <time>2022-03-06T09:24:29Z</time>
      </trkpt>
      <trkpt lat="46.25672" lon="6.81496">
        <ele>1273.4</ele>
        <time>2022-03-06T09:24:30Z</time>
      </trkpt>
      <trkpt lat="46.25673" lon="6.81497">
        <ele>1273.6</ele>
        <time>2022-03-06T09:24:31Z</time>
      </trkpt>
      <trkpt lat="46.25673" lon="6.81498">
        <ele>1273.8</ele>
        <time>2022-03-06T09:24:32Z</time>
      </trkpt>
      <trkpt lat="46.25674" lon="6.81499">
        <ele>1273.8</ele>
        <time>2022-03-06T09:24:33Z</time>
      </trkpt>
      <trkpt lat="46.25674" lon="6.81501">
        <ele>1274</ele>
        <time>2022-03-06T09:24:34Z</time>
      </trkpt>
      <trkpt lat="46.25675" lon="6.81502">
        <ele>1274</ele>
        <time>2022-03-06T09:24:35Z</time>
      </trkpt>
      <trkpt lat="46.25675" lon="6.81502">
        <ele>1274.4</ele>
        <time>2022-03-06T09:24:36Z</time>
      </trkpt>
      <trkpt lat="46.25676" lon="6.81503">
        <ele>1274.6</ele>
        <time>2022-03-06T09:24:37Z</time>
      </trkpt>
      <trkpt lat="46.25676" lon="6.81504">
        <ele>1274.8</ele>
        <time>2022-03-06T09:24:38Z</time>
      </trkpt>
      <trkpt lat="46.25677" lon="6.81504">
        <ele>1274.8</ele>
        <time>2022-03-06T09:24:39Z</time>
      </trkpt>
      <trkpt lat="46.25677" lon="6.81505">
        <ele>1275</ele>
        <time>2022-03-06T09:24:40Z</time>
      </trkpt>
      <trkpt lat="46.25678" lon="6.81506">
        <ele>1275.2</ele>
        <time>2022-03-06T09:24:41Z</time>
      </trkpt>
      <trkpt lat="46.25679" lon="6.81507">
        <ele>1275.4</ele>
        <time>2022-03-06T09:24:42Z</time>
      </trkpt>
      <trkpt lat="46.2568" lon="6.81508">
        <ele>1275.4</ele>
        <time>2022-03-06T09:24:43Z</time>
      </trkpt>
      <trkpt lat="46.2568" lon="6.81509">
        <ele>1275.6</ele>
        <time>2022-03-06T09:24:44Z</time>
      </trkpt>
      <trkpt lat="46.2568" lon="6.8151">
        <ele>1275.8</ele>
        <time>2022-03-06T09:24:45Z</time>
      </trkpt>
      <trkpt lat="46.25681" lon="6.81511">
        <ele>1276.2</ele>
        <time>2022-03-06T09:24:46Z</time>
      </trkpt>
      <trkpt lat="46.25681" lon="6.81512">
        <ele>1276.4</ele>
        <time>2022-03-06T09:24:47Z</time>
      </trkpt>
      <trkpt lat="46.25681" lon="6.81513">
        <ele>1276.6</ele>
        <time>2022-03-06T09:24:48Z</time>
      </trkpt>
      <trkpt lat="46.25681" lon="6.81514">
        <ele>1276.8</ele>
        <time>2022-03-06T09:24:49Z</time>
      </trkpt>
      <trkpt lat="46.25681" lon="6.81515">
        <ele>1277</ele>
        <time>2022-03-06T09:24:50Z</time>
      </trkpt>
      <trkpt lat="46.25682" lon="6.81516">
        <ele>1277.2</ele>
        <time>2022-03-06T09:24:51Z</time>
      </trkpt>
      <trkpt lat="46.25683" lon="6.81517">
        <ele>1277.4</ele>
        <time>2022-03-06T09:24:52Z</time>
      </trkpt>
      <trkpt lat="46.25683" lon="6.81518">
        <ele>1277.6</ele>
        <time>2022-03-06T09:24:53Z</time>
      </trkpt>
      <trkpt lat="46.25684" lon="6.81519">
        <ele>1277.8</ele>
        <time>2022-03-06T09:24:54Z</time>
      </trkpt>
      <trkpt lat="46.25685" lon="6.81519">
        <ele>1277.8</ele>
        <time>2022-03-06T09:24:55Z</time>
      </trkpt>
      <trkpt lat="46.25686" lon="6.8152">
        <ele>1278.2</ele>
        <time>2022-03-06T09:24:56Z</time>
      </trkpt>
      <trkpt lat="46.25686" lon="6.81521">
        <ele>1278.4</ele>
        <time>2022-03-06T09:24:57Z</time>
      </trkpt>
      <trkpt lat="46.25688" lon="6.81522">
        <ele>1278.6</ele>
        <time>2022-03-06T09:24:58Z</time>
      </trkpt>
      <trkpt lat="46.25689" lon="6.81523">
        <ele>1278.6</ele>
        <time>2022-03-06T09:24:59Z</time>
      </trkpt>
      <trkpt lat="46.25689" lon="6.81523">
        <ele>1279</ele>
        <time>2022-03-06T09:25:00Z</time>
      </trkpt>
      <trkpt lat="46.25691" lon="6.81523">
        <ele>1279</ele>
        <time>2022-03-06T09:25:01Z</time>
      </trkpt>
      <trkpt lat="46.25691" lon="6.81524">
        <ele>1279.4</ele>
        <time>2022-03-06T09:25:02Z</time>
      </trkpt>
      <trkpt lat="46.25692" lon="6.81524">
        <ele>1279.2</ele>
        <time>2022-03-06T09:25:03Z</time>
      </trkpt>
      <trkpt lat="46.25692" lon="6.81525">
        <ele>1279.6</ele>
        <time>2022-03-06T09:25:04Z</time>
      </trkpt>
      <trkpt lat="46.25693" lon="6.81526">
        <ele>1279.6</ele>
        <time>2022-03-06T09:25:05Z</time>
      </trkpt>
      <trkpt lat="46.25694" lon="6.81527">
        <ele>1279.8</ele>
        <time>2022-03-06T09:25:06Z</time>
      </trkpt>
      <trkpt lat="46.25694" lon="6.81528">
        <ele>1280</ele>
        <time>2022-03-06T09:25:07Z</time>
      </trkpt>
      <trkpt lat="46.25695" lon="6.81529">
        <ele>1280.2</ele>
        <time>2022-03-06T09:25:08Z</time>
      </trkpt>
      <trkpt lat="46.25695" lon="6.8153">
        <ele>1280.2</ele>
        <time>2022-03-06T09:25:09Z</time>
      </trkpt>
      <trkpt lat="46.25696" lon="6.81531">
        <ele>1280.6</ele>
        <time>2022-03-06T09:25:10Z</time>
      </trkpt>
      <trkpt lat="46.25697" lon="6.81532">
        <ele>1280.6</ele>
        <time>2022-03-06T09:25:11Z</time>
      </trkpt>
      <trkpt lat="46.25697" lon="6.81533">
        <ele>1281</ele>
        <time>2022-03-06T09:25:12Z</time>
      </trkpt>
      <trkpt lat="46.25699" lon="6.81534">
        <ele>1281.2</ele>
        <time>2022-03-06T09:25:13Z</time>
      </trkpt>
      <trkpt lat="46.25699" lon="6.81535">
        <ele>1281.2</ele>
        <time>2022-03-06T09:25:14Z</time>
      </trkpt>
      <trkpt lat="46.25701" lon="6.81536">
        <ele>1281.6</ele>
        <time>2022-03-06T09:25:15Z</time>
      </trkpt>
      <trkpt lat="46.25702" lon="6.81535">
        <ele>1281.8</ele>
        <time>2022-03-06T09:25:16Z</time>
      </trkpt>
      <trkpt lat="46.25703" lon="6.81535">
        <ele>1282</ele>
        <time>2022-03-06T09:25:17Z</time>
      </trkpt>
      <trkpt lat="46.25704" lon="6.81536">
        <ele>1282.2</ele>
        <time>2022-03-06T09:25:18Z</time>
      </trkpt>
      <trkpt lat="46.25704" lon="6.81536">
        <ele>1282.6</ele>
        <time>2022-03-06T09:25:19Z</time>
      </trkpt>
      <trkpt lat="46.25704" lon="6.81537">
        <ele>1282.8</ele>
        <time>2022-03-06T09:25:20Z</time>
      </trkpt>
      <trkpt lat="46.25706" lon="6.81537">
        <ele>1283.2</ele>
        <time>2022-03-06T09:25:21Z</time>
      </trkpt>
      <trkpt lat="46.25707" lon="6.81537">
        <ele>1283.4</ele>
        <time>2022-03-06T09:25:22Z</time>
      </trkpt>
      <trkpt lat="46.25708" lon="6.81538">
        <ele>1283.6</ele>
        <time>2022-03-06T09:25:23Z</time>
      </trkpt>
      <trkpt lat="46.25709" lon="6.81538">
        <ele>1283.6</ele>
        <time>2022-03-06T09:25:24Z</time>
      </trkpt>
      <trkpt lat="46.2571" lon="6.81539">
        <ele>1284</ele>
        <time>2022-03-06T09:25:25Z</time>
      </trkpt>
      <trkpt lat="46.25711" lon="6.81539">
        <ele>1284.2</ele>
        <time>2022-03-06T09:25:26Z</time>
      </trkpt>
      <trkpt lat="46.25713" lon="6.81539">
        <ele>1284.2</ele>
        <time>2022-03-06T09:25:27Z</time>
      </trkpt>
      <trkpt lat="46.25714" lon="6.8154">
        <ele>1284.2</ele>
        <time>2022-03-06T09:25:28Z</time>
      </trkpt>
      <trkpt lat="46.25714" lon="6.81541">
        <ele>1284.6</ele>
        <time>2022-03-06T09:25:29Z</time>
      </trkpt>
      <trkpt lat="46.25715" lon="6.81542">
        <ele>1284.8</ele>
        <time>2022-03-06T09:25:30Z</time>
      </trkpt>
      <trkpt lat="46.25716" lon="6.81543">
        <ele>1284.8</ele>
        <time>2022-03-06T09:25:31Z</time>
      </trkpt>
      <trkpt lat="46.25716" lon="6.81544">
        <ele>1285.2</ele>
        <time>2022-03-06T09:25:32Z</time>
      </trkpt>
      <trkpt lat="46.25716" lon="6.81545">
        <ele>1285.4</ele>
        <time>2022-03-06T09:25:33Z</time>
      </trkpt>
      <trkpt lat="46.25717" lon="6.81546">
        <ele>1285.4</ele>
        <time>2022-03-06T09:25:34Z</time>
      </trkpt>
      <trkpt lat="46.25718" lon="6.81546">
        <ele>1285.6</ele>
        <time>2022-03-06T09:25:35Z</time>
      </trkpt>
      <trkpt lat="46.25718" lon="6.81547">
        <ele>1286</ele>
        <time>2022-03-06T09:25:36Z</time>
      </trkpt>
      <trkpt lat="46.25719" lon="6.81548">
        <ele>1286.2</ele>
        <time>2022-03-06T09:25:37Z</time>
      </trkpt>
      <trkpt lat="46.25719" lon="6.8155">
        <ele>1286.4</ele>
        <time>2022-03-06T09:25:38Z</time>
      </trkpt>
      <trkpt lat="46.25719" lon="6.81552">
        <ele>1286.6</ele>
        <time>2022-03-06T09:25:39Z</time>
      </trkpt>
      <trkpt lat="46.2572" lon="6.81553">
        <ele>1286.8</ele>
        <time>2022-03-06T09:25:40Z</time>
      </trkpt>
      <trkpt lat="46.25721" lon="6.81554">
        <ele>1287</ele>
        <time>2022-03-06T09:25:41Z</time>
      </trkpt>
      <trkpt lat="46.25722" lon="6.81554">
        <ele>1287.4</ele>
        <time>2022-03-06T09:25:42Z</time>
      </trkpt>
      <trkpt lat="46.25722" lon="6.81556">
        <ele>1287.4</ele>
        <time>2022-03-06T09:25:43Z</time>
      </trkpt>
      <trkpt lat="46.25723" lon="6.81557">
        <ele>1287.6</ele>
        <time>2022-03-06T09:25:44Z</time>
      </trkpt>
      <trkpt lat="46.25723" lon="6.81558">
        <ele>1287.8</ele>
        <time>2022-03-06T09:25:45Z</time>
      </trkpt>
      <trkpt lat="46.25723" lon="6.81559">
        <ele>1288.2</ele>
        <time>2022-03-06T09:25:46Z</time>
      </trkpt>
      <trkpt lat="46.25724" lon="6.8156">
        <ele>1288.2</ele>
        <time>2022-03-06T09:25:47Z</time>
      </trkpt>
      <trkpt lat="46.25724" lon="6.8156">
        <ele>1288.4</ele>
        <time>2022-03-06T09:25:48Z</time>
      </trkpt>
      <trkpt lat="46.25725" lon="6.81561">
        <ele>1288.8</ele>
        <time>2022-03-06T09:25:49Z</time>
      </trkpt>
      <trkpt lat="46.25726" lon="6.81562">
        <ele>1289</ele>
        <time>2022-03-06T09:25:50Z</time>
      </trkpt>
      <trkpt lat="46.25726" lon="6.81563">
        <ele>1289</ele>
        <time>2022-03-06T09:25:51Z</time>
      </trkpt>
      <trkpt lat="46.25727" lon="6.81564">
        <ele>1289.2</ele>
        <time>2022-03-06T09:25:52Z</time>
      </trkpt>
      <trkpt lat="46.25728" lon="6.81565">
        <ele>1289.4</ele>
        <time>2022-03-06T09:25:53Z</time>
      </trkpt>
      <trkpt lat="46.25729" lon="6.81566">
        <ele>1289.6</ele>
        <time>2022-03-06T09:25:54Z</time>
      </trkpt>
      <trkpt lat="46.2573" lon="6.81567">
        <ele>1289.8</ele>
        <time>2022-03-06T09:25:55Z</time>
      </trkpt>
      <trkpt lat="46.25731" lon="6.81567">
        <ele>1289.8</ele>
        <time>2022-03-06T09:25:56Z</time>
      </trkpt>
      <trkpt lat="46.25731" lon="6.81569">
        <ele>1290</ele>
        <time>2022-03-06T09:25:57Z</time>
      </trkpt>
      <trkpt lat="46.25731" lon="6.81571">
        <ele>1290.2</ele>
        <time>2022-03-06T09:25:58Z</time>
      </trkpt>
      <trkpt lat="46.25732" lon="6.81573">
        <ele>1290.4</ele>
        <time>2022-03-06T09:25:59Z</time>
      </trkpt>
      <trkpt lat="46.25733" lon="6.81573">
        <ele>1290.4</ele>
        <time>2022-03-06T09:26:00Z</time>
      </trkpt>
      <trkpt lat="46.25734" lon="6.81574">
        <ele>1290.6</ele>
        <time>2022-03-06T09:26:01Z</time>
      </trkpt>
      <trkpt lat="46.25734" lon="6.81575">
        <ele>1290.6</ele>
        <time>2022-03-06T09:26:02Z</time>
      </trkpt>
      <trkpt lat="46.25736" lon="6.81575">
        <ele>1290.8</ele>
        <time>2022-03-06T09:26:03Z</time>
      </trkpt>
      <trkpt lat="46.25737" lon="6.81575">
        <ele>1291</ele>
        <time>2022-03-06T09:26:04Z</time>
      </trkpt>
      <trkpt lat="46.25739" lon="6.81575">
        <ele>1291</ele>
        <time>2022-03-06T09:26:05Z</time>
      </trkpt>
      <trkpt lat="46.2574" lon="6.81574">
        <ele>1291.2</ele>
        <time>2022-03-06T09:26:06Z</time>
      </trkpt>
      <trkpt lat="46.25741" lon="6.81574">
        <ele>1291.2</ele>
        <time>2022-03-06T09:26:07Z</time>
      </trkpt>
      <trkpt lat="46.25742" lon="6.81574">
        <ele>1291.4</ele>
        <time>2022-03-06T09:26:08Z</time>
      </trkpt>
      <trkpt lat="46.25742" lon="6.81574">
        <ele>1291.6</ele>
        <time>2022-03-06T09:26:09Z</time>
      </trkpt>
      <trkpt lat="46.25743" lon="6.81574">
        <ele>1291.8</ele>
        <time>2022-03-06T09:26:10Z</time>
      </trkpt>
      <trkpt lat="46.25745" lon="6.81574">
        <ele>1292</ele>
        <time>2022-03-06T09:26:11Z</time>
      </trkpt>
      <trkpt lat="46.25745" lon="6.81574">
        <ele>1292.4</ele>
        <time>2022-03-06T09:26:12Z</time>
      </trkpt>
      <trkpt lat="46.25745" lon="6.81574">
        <ele>1292.4</ele>
        <time>2022-03-06T09:26:13Z</time>
      </trkpt>
      <trkpt lat="46.25746" lon="6.81574">
        <ele>1292.2</ele>
        <time>2022-03-06T09:26:14Z</time>
      </trkpt>
      <trkpt lat="46.25746" lon="6.81575">
        <ele>1292.6</ele>
        <time>2022-03-06T09:26:15Z</time>
      </trkpt>
      <trkpt lat="46.25748" lon="6.81573">
        <ele>1293</ele>
        <time>2022-03-06T09:26:16Z</time>
      </trkpt>
      <trkpt lat="46.25748" lon="6.81574">
        <ele>1293.2</ele>
        <time>2022-03-06T09:26:17Z</time>
      </trkpt>
      <trkpt lat="46.25749" lon="6.81574">
        <ele>1293.4</ele>
        <time>2022-03-06T09:26:18Z</time>
      </trkpt>
      <trkpt lat="46.25749" lon="6.81575">
        <ele>1293.6</ele>
        <time>2022-03-06T09:26:19Z</time>
      </trkpt>
      <trkpt lat="46.2575" lon="6.81575">
        <ele>1293.8</ele>
        <time>2022-03-06T09:26:20Z</time>
      </trkpt>
      <trkpt lat="46.25751" lon="6.81576">
        <ele>1294</ele>
        <time>2022-03-06T09:26:21Z</time>
      </trkpt>
      <trkpt lat="46.25752" lon="6.81576">
        <ele>1294.2</ele>
        <time>2022-03-06T09:26:22Z</time>
      </trkpt>
      <trkpt lat="46.25754" lon="6.81577">
        <ele>1294.2</ele>
        <time>2022-03-06T09:26:23Z</time>
      </trkpt>
      <trkpt lat="46.25755" lon="6.81578">
        <ele>1294.6</ele>
        <time>2022-03-06T09:26:24Z</time>
      </trkpt>
      <trkpt lat="46.25756" lon="6.81578">
        <ele>1295</ele>
        <time>2022-03-06T09:26:25Z</time>
      </trkpt>
      <trkpt lat="46.25757" lon="6.8158">
        <ele>1295.2</ele>
        <time>2022-03-06T09:26:26Z</time>
      </trkpt>
      <trkpt lat="46.25758" lon="6.8158">
        <ele>1295.4</ele>
        <time>2022-03-06T09:26:27Z</time>
      </trkpt>
      <trkpt lat="46.25759" lon="6.81581">
        <ele>1295.4</ele>
        <time>2022-03-06T09:26:28Z</time>
      </trkpt>
      <trkpt lat="46.2576" lon="6.81582">
        <ele>1295.6</ele>
        <time>2022-03-06T09:26:29Z</time>
      </trkpt>
      <trkpt lat="46.2576" lon="6.81584">
        <ele>1296</ele>
        <time>2022-03-06T09:26:30Z</time>
      </trkpt>
      <trkpt lat="46.25761" lon="6.81585">
        <ele>1296</ele>
        <time>2022-03-06T09:26:31Z</time>
      </trkpt>
      <trkpt lat="46.25762" lon="6.81586">
        <ele>1296.4</ele>
        <time>2022-03-06T09:26:32Z</time>
      </trkpt>
      <trkpt lat="46.25762" lon="6.81588">
        <ele>1296.4</ele>
        <time>2022-03-06T09:26:33Z</time>
      </trkpt>
      <trkpt lat="46.25763" lon="6.81588">
        <ele>1296.8</ele>
        <time>2022-03-06T09:26:34Z</time>
      </trkpt>
      <trkpt lat="46.25764" lon="6.8159">
        <ele>1297</ele>
        <time>2022-03-06T09:26:35Z</time>
      </trkpt>
      <trkpt lat="46.25764" lon="6.81591">
        <ele>1297</ele>
        <time>2022-03-06T09:26:36Z</time>
      </trkpt>
      <trkpt lat="46.25764" lon="6.81591">
        <ele>1297.2</ele>
        <time>2022-03-06T09:26:37Z</time>
      </trkpt>
      <trkpt lat="46.25765" lon="6.81593">
        <ele>1297.4</ele>
        <time>2022-03-06T09:26:38Z</time>
      </trkpt>
      <trkpt lat="46.25765" lon="6.81593">
        <ele>1297.6</ele>
        <time>2022-03-06T09:26:39Z</time>
      </trkpt>
      <trkpt lat="46.25766" lon="6.81594">
        <ele>1297.6</ele>
        <time>2022-03-06T09:26:40Z</time>
      </trkpt>
      <trkpt lat="46.25766" lon="6.81594">
        <ele>1298</ele>
        <time>2022-03-06T09:26:41Z</time>
      </trkpt>
      <trkpt lat="46.25767" lon="6.81594">
        <ele>1298</ele>
        <time>2022-03-06T09:26:42Z</time>
      </trkpt>
      <trkpt lat="46.25768" lon="6.81594">
        <ele>1298.4</ele>
        <time>2022-03-06T09:26:43Z</time>
      </trkpt>
      <trkpt lat="46.25769" lon="6.81594">
        <ele>1298.4</ele>
        <time>2022-03-06T09:26:44Z</time>
      </trkpt>
      <trkpt lat="46.2577" lon="6.81593">
        <ele>1298.6</ele>
        <time>2022-03-06T09:26:45Z</time>
      </trkpt>
      <trkpt lat="46.2577" lon="6.81593">
        <ele>1298.8</ele>
        <time>2022-03-06T09:26:46Z</time>
      </trkpt>
      <trkpt lat="46.25771" lon="6.81594">
        <ele>1299</ele>
        <time>2022-03-06T09:26:47Z</time>
      </trkpt>
      <trkpt lat="46.25771" lon="6.81595">
        <ele>1299.4</ele>
        <time>2022-03-06T09:26:48Z</time>
      </trkpt>
      <trkpt lat="46.25771" lon="6.81595">
        <ele>1299.4</ele>
        <time>2022-03-06T09:26:49Z</time>
      </trkpt>
      <trkpt lat="46.25771" lon="6.81596">
        <ele>1299.6</ele>
        <time>2022-03-06T09:26:50Z</time>
      </trkpt>
      <trkpt lat="46.25772" lon="6.81597">
        <ele>1299.8</ele>
        <time>2022-03-06T09:26:51Z</time>
      </trkpt>
      <trkpt lat="46.25772" lon="6.81597">
        <ele>1300</ele>
        <time>2022-03-06T09:26:52Z</time>
      </trkpt>
      <trkpt lat="46.25773" lon="6.81598">
        <ele>1300.2</ele>
        <time>2022-03-06T09:26:53Z</time>
      </trkpt>
      <trkpt lat="46.25773" lon="6.81599">
        <ele>1300.4</ele>
        <time>2022-03-06T09:26:54Z</time>
      </trkpt>
      <trkpt lat="46.25773" lon="6.81599">
        <ele>1300.8</ele>
        <time>2022-03-06T09:26:55Z</time>
      </trkpt>
      <trkpt lat="46.25774" lon="6.816">
        <ele>1300.8</ele>
        <time>2022-03-06T09:26:56Z</time>
      </trkpt>
      <trkpt lat="46.25775" lon="6.81601">
        <ele>1301</ele>
        <time>2022-03-06T09:26:57Z</time>
      </trkpt>
      <trkpt lat="46.25775" lon="6.81602">
        <ele>1301.2</ele>
        <time>2022-03-06T09:26:58Z</time>
      </trkpt>
      <trkpt lat="46.25776" lon="6.81603">
        <ele>1301.2</ele>
        <time>2022-03-06T09:26:59Z</time>
      </trkpt>
      <trkpt lat="46.25778" lon="6.81604">
        <ele>1301.4</ele>
        <time>2022-03-06T09:27:00Z</time>
      </trkpt>
      <trkpt lat="46.25778" lon="6.81605">
        <ele>1301.6</ele>
        <time>2022-03-06T09:27:01Z</time>
      </trkpt>
      <trkpt lat="46.25779" lon="6.81605">
        <ele>1301.8</ele>
        <time>2022-03-06T09:27:02Z</time>
      </trkpt>
      <trkpt lat="46.25779" lon="6.81606">
        <ele>1301.8</ele>
        <time>2022-03-06T09:27:03Z</time>
      </trkpt>
      <trkpt lat="46.2578" lon="6.81607">
        <ele>1302</ele>
        <time>2022-03-06T09:27:04Z</time>
      </trkpt>
      <trkpt lat="46.2578" lon="6.81607">
        <ele>1302.4</ele>
        <time>2022-03-06T09:27:05Z</time>
      </trkpt>
      <trkpt lat="46.25781" lon="6.81608">
        <ele>1302.6</ele>
        <time>2022-03-06T09:27:06Z</time>
      </trkpt>
      <trkpt lat="46.25782" lon="6.81609">
        <ele>1302.6</ele>
        <time>2022-03-06T09:27:07Z</time>
      </trkpt>
      <trkpt lat="46.25782" lon="6.81609">
        <ele>1302.8</ele>
        <time>2022-03-06T09:27:08Z</time>
      </trkpt>
      <trkpt lat="46.25782" lon="6.8161">
        <ele>1303</ele>
        <time>2022-03-06T09:27:09Z</time>
      </trkpt>
      <trkpt lat="46.25783" lon="6.81611">
        <ele>1303.2</ele>
        <time>2022-03-06T09:27:10Z</time>
      </trkpt>
      <trkpt lat="46.25783" lon="6.81612">
        <ele>1303.4</ele>
        <time>2022-03-06T09:27:11Z</time>
      </trkpt>
      <trkpt lat="46.25784" lon="6.81613">
        <ele>1303.6</ele>
        <time>2022-03-06T09:27:12Z</time>
      </trkpt>
      <trkpt lat="46.25785" lon="6.81613">
        <ele>1304</ele>
        <time>2022-03-06T09:27:13Z</time>
      </trkpt>
      <trkpt lat="46.25786" lon="6.81614">
        <ele>1304</ele>
        <time>2022-03-06T09:27:14Z</time>
      </trkpt>
      <trkpt lat="46.25786" lon="6.81614">
        <ele>1304</ele>
        <time>2022-03-06T09:27:15Z</time>
      </trkpt>
      <trkpt lat="46.25787" lon="6.81615">
        <ele>1304.4</ele>
        <time>2022-03-06T09:27:16Z</time>
      </trkpt>
      <trkpt lat="46.25788" lon="6.81616">
        <ele>1304.6</ele>
        <time>2022-03-06T09:27:17Z</time>
      </trkpt>
      <trkpt lat="46.25789" lon="6.81616">
        <ele>1304.8</ele>
        <time>2022-03-06T09:27:18Z</time>
      </trkpt>
      <trkpt lat="46.25789" lon="6.81617">
        <ele>1305</ele>
        <time>2022-03-06T09:27:19Z</time>
      </trkpt>
      <trkpt lat="46.2579" lon="6.81618">
        <ele>1305.2</ele>
        <time>2022-03-06T09:27:20Z</time>
      </trkpt>
      <trkpt lat="46.25791" lon="6.81619">
        <ele>1305.4</ele>
        <time>2022-03-06T09:27:21Z</time>
      </trkpt>
      <trkpt lat="46.25792" lon="6.81619">
        <ele>1305.4</ele>
        <time>2022-03-06T09:27:22Z</time>
      </trkpt>
      <trkpt lat="46.25794" lon="6.81619">
        <ele>1305.6</ele>
        <time>2022-03-06T09:27:23Z</time>
      </trkpt>
      <trkpt lat="46.25795" lon="6.81619">
        <ele>1305.8</ele>
        <time>2022-03-06T09:27:24Z</time>
      </trkpt>
      <trkpt lat="46.25796" lon="6.81619">
        <ele>1305.8</ele>
        <time>2022-03-06T09:27:25Z</time>
      </trkpt>
      <trkpt lat="46.25798" lon="6.81619">
        <ele>1306.4</ele>
        <time>2022-03-06T09:27:26Z</time>
      </trkpt>
      <trkpt lat="46.25798" lon="6.81619">
        <ele>1306.4</ele>
        <time>2022-03-06T09:27:27Z</time>
      </trkpt>
      <trkpt lat="46.25799" lon="6.81621">
        <ele>1306.6</ele>
        <time>2022-03-06T09:27:28Z</time>
      </trkpt>
      <trkpt lat="46.258" lon="6.81622">
        <ele>1307</ele>
        <time>2022-03-06T09:27:29Z</time>
      </trkpt>
      <trkpt lat="46.25801" lon="6.81623">
        <ele>1307</ele>
        <time>2022-03-06T09:27:30Z</time>
      </trkpt>
      <trkpt lat="46.25802" lon="6.81624">
        <ele>1307.2</ele>
        <time>2022-03-06T09:27:31Z</time>
      </trkpt>
      <trkpt lat="46.25802" lon="6.81625">
        <ele>1307.4</ele>
        <time>2022-03-06T09:27:32Z</time>
      </trkpt>
      <trkpt lat="46.25803" lon="6.81626">
        <ele>1307.6</ele>
        <time>2022-03-06T09:27:33Z</time>
      </trkpt>
      <trkpt lat="46.25804" lon="6.81626">
        <ele>1307.8</ele>
        <time>2022-03-06T09:27:34Z</time>
      </trkpt>
      <trkpt lat="46.25804" lon="6.81627">
        <ele>1308.4</ele>
        <time>2022-03-06T09:27:35Z</time>
      </trkpt>
      <trkpt lat="46.25805" lon="6.81627">
        <ele>1308.6</ele>
        <time>2022-03-06T09:27:36Z</time>
      </trkpt>
      <trkpt lat="46.25806" lon="6.81628">
        <ele>1308.8</ele>
        <time>2022-03-06T09:27:37Z</time>
      </trkpt>
      <trkpt lat="46.25806" lon="6.81628">
        <ele>1309</ele>
        <time>2022-03-06T09:27:38Z</time>
      </trkpt>
      <trkpt lat="46.25807" lon="6.8163">
        <ele>1309.4</ele>
        <time>2022-03-06T09:27:39Z</time>
      </trkpt>
      <trkpt lat="46.25807" lon="6.81632">
        <ele>1309.6</ele>
        <time>2022-03-06T09:27:40Z</time>
      </trkpt>
      <trkpt lat="46.25807" lon="6.81633">
        <ele>1309.8</ele>
        <time>2022-03-06T09:27:41Z</time>
      </trkpt>
      <trkpt lat="46.25808" lon="6.81634">
        <ele>1310</ele>
        <time>2022-03-06T09:27:42Z</time>
      </trkpt>
      <trkpt lat="46.25808" lon="6.81634">
        <ele>1310</ele>
        <time>2022-03-06T09:27:43Z</time>
      </trkpt>
      <trkpt lat="46.25808" lon="6.81635">
        <ele>1310.2</ele>
        <time>2022-03-06T09:27:44Z</time>
      </trkpt>
      <trkpt lat="46.25807" lon="6.81635">
        <ele>1310.2</ele>
        <time>2022-03-06T09:27:45Z</time>
      </trkpt>
      <trkpt lat="46.25807" lon="6.81636">
        <ele>1310.4</ele>
        <time>2022-03-06T09:27:46Z</time>
      </trkpt>
      <trkpt lat="46.25809" lon="6.81637">
        <ele>1311</ele>
        <time>2022-03-06T09:27:48Z</time>
      </trkpt>
      <trkpt lat="46.25809" lon="6.81637">
        <ele>1311</ele>
        <time>2022-03-06T09:27:49Z</time>
      </trkpt>
      <trkpt lat="46.25809" lon="6.81638">
        <ele>1311.2</ele>
        <time>2022-03-06T09:27:50Z</time>
      </trkpt>
      <trkpt lat="46.25809" lon="6.81639">
        <ele>1311.4</ele>
        <time>2022-03-06T09:27:51Z</time>
      </trkpt>
      <trkpt lat="46.25809" lon="6.8164">
        <ele>1311.6</ele>
        <time>2022-03-06T09:27:52Z</time>
      </trkpt>
      <trkpt lat="46.25809" lon="6.81642">
        <ele>1312</ele>
        <time>2022-03-06T09:27:53Z</time>
      </trkpt>
      <trkpt lat="46.25809" lon="6.81644">
        <ele>1312.2</ele>
        <time>2022-03-06T09:27:54Z</time>
      </trkpt>
      <trkpt lat="46.25809" lon="6.81646">
        <ele>1312.6</ele>
        <time>2022-03-06T09:27:55Z</time>
      </trkpt>
      <trkpt lat="46.25809" lon="6.81648">
        <ele>1312.8</ele>
        <time>2022-03-06T09:27:56Z</time>
      </trkpt>
      <trkpt lat="46.25809" lon="6.81651">
        <ele>1313</ele>
        <time>2022-03-06T09:27:57Z</time>
      </trkpt>
      <trkpt lat="46.25809" lon="6.81653">
        <ele>1313</ele>
        <time>2022-03-06T09:27:58Z</time>
      </trkpt>
      <trkpt lat="46.25809" lon="6.81655">
        <ele>1313.2</ele>
        <time>2022-03-06T09:27:59Z</time>
      </trkpt>
      <trkpt lat="46.25809" lon="6.81657">
        <ele>1313.6</ele>
        <time>2022-03-06T09:28:00Z</time>
      </trkpt>
      <trkpt lat="46.2581" lon="6.81658">
        <ele>1313.6</ele>
        <time>2022-03-06T09:28:01Z</time>
      </trkpt>
      <trkpt lat="46.25811" lon="6.81659">
        <ele>1314</ele>
        <time>2022-03-06T09:28:02Z</time>
      </trkpt>
      <trkpt lat="46.25811" lon="6.81661">
        <ele>1314.2</ele>
        <time>2022-03-06T09:28:03Z</time>
      </trkpt>
      <trkpt lat="46.25811" lon="6.81662">
        <ele>1314.4</ele>
        <time>2022-03-06T09:28:04Z</time>
      </trkpt>
      <trkpt lat="46.25811" lon="6.81663">
        <ele>1314.6</ele>
        <time>2022-03-06T09:28:05Z</time>
      </trkpt>
      <trkpt lat="46.25811" lon="6.81665">
        <ele>1314.8</ele>
        <time>2022-03-06T09:28:06Z</time>
      </trkpt>
      <trkpt lat="46.25811" lon="6.81666">
        <ele>1315</ele>
        <time>2022-03-06T09:28:07Z</time>
      </trkpt>
      <trkpt lat="46.25812" lon="6.81666">
        <ele>1315</ele>
        <time>2022-03-06T09:28:08Z</time>
      </trkpt>
      <trkpt lat="46.25812" lon="6.81667">
        <ele>1315.4</ele>
        <time>2022-03-06T09:28:09Z</time>
      </trkpt>
      <trkpt lat="46.25812" lon="6.81667">
        <ele>1315.4</ele>
        <time>2022-03-06T09:28:10Z</time>
      </trkpt>
      <trkpt lat="46.25813" lon="6.81668">
        <ele>1315.8</ele>
        <time>2022-03-06T09:28:11Z</time>
      </trkpt>
      <trkpt lat="46.25813" lon="6.81669">
        <ele>1316</ele>
        <time>2022-03-06T09:28:12Z</time>
      </trkpt>
      <trkpt lat="46.25814" lon="6.81669">
        <ele>1316.2</ele>
        <time>2022-03-06T09:28:13Z</time>
      </trkpt>
      <trkpt lat="46.25816" lon="6.81669">
        <ele>1316.4</ele>
        <time>2022-03-06T09:28:14Z</time>
      </trkpt>
      <trkpt lat="46.25817" lon="6.81669">
        <ele>1316.6</ele>
        <time>2022-03-06T09:28:15Z</time>
      </trkpt>
      <trkpt lat="46.25818" lon="6.81669">
        <ele>1316.6</ele>
        <time>2022-03-06T09:28:16Z</time>
      </trkpt>
      <trkpt lat="46.25819" lon="6.8167">
        <ele>1316.8</ele>
        <time>2022-03-06T09:28:17Z</time>
      </trkpt>
      <trkpt lat="46.2582" lon="6.8167">
        <ele>1317</ele>
        <time>2022-03-06T09:28:18Z</time>
      </trkpt>
      <trkpt lat="46.2582" lon="6.8167">
        <ele>1040.8</ele>
        <time>2022-03-06T09:28:19Z</time>
      </trkpt>
      <trkpt lat="46.25822" lon="6.8167">
        <ele>1317.4</ele>
        <time>2022-03-06T09:28:20Z</time>
      </trkpt>
      <trkpt lat="46.25823" lon="6.81671">
        <ele>1317.6</ele>
        <time>2022-03-06T09:28:21Z</time>
      </trkpt>
      <trkpt lat="46.25823" lon="6.81671">
        <ele>1317.8</ele>
        <time>2022-03-06T09:28:22Z</time>
      </trkpt>
      <trkpt lat="46.25824" lon="6.81671">
        <ele>1318.2</ele>
        <time>2022-03-06T09:28:23Z</time>
      </trkpt>
      <trkpt lat="46.25825" lon="6.81672">
        <ele>1318.2</ele>
        <time>2022-03-06T09:28:24Z</time>
      </trkpt>
      <trkpt lat="46.25826" lon="6.81671">
        <ele>1318.4</ele>
        <time>2022-03-06T09:28:25Z</time>
      </trkpt>
      <trkpt lat="46.25826" lon="6.81671">
        <ele>1318.6</ele>
        <time>2022-03-06T09:28:26Z</time>
      </trkpt>
      <trkpt lat="46.25826" lon="6.81672">
        <ele>1318.8</ele>
        <time>2022-03-06T09:28:27Z</time>
      </trkpt>
      <trkpt lat="46.25827" lon="6.81672">
        <ele>1319.2</ele>
        <time>2022-03-06T09:28:28Z</time>
      </trkpt>
      <trkpt lat="46.25827" lon="6.81671">
        <ele>1319.2</ele>
        <time>2022-03-06T09:28:29Z</time>
      </trkpt>
      <trkpt lat="46.25827" lon="6.81671">
        <ele>1319.6</ele>
        <time>2022-03-06T09:28:30Z</time>
      </trkpt>
      <trkpt lat="46.25827" lon="6.81672">
        <ele>1319.6</ele>
        <time>2022-03-06T09:28:31Z</time>
      </trkpt>
      <trkpt lat="46.2583" lon="6.81671">
        <ele>1320.2</ele>
        <time>2022-03-06T09:28:34Z</time>
      </trkpt>
      <trkpt lat="46.2583" lon="6.81669">
        <ele>1320.6</ele>
        <time>2022-03-06T09:28:35Z</time>
      </trkpt>
      <trkpt lat="46.25833" lon="6.81669">
        <ele>1321</ele>
        <time>2022-03-06T09:28:37Z</time>
      </trkpt>
      <trkpt lat="46.25834" lon="6.81669">
        <ele>1321.6</ele>
        <time>2022-03-06T09:28:38Z</time>
      </trkpt>
      <trkpt lat="46.25835" lon="6.81669">
        <ele>1321.6</ele>
        <time>2022-03-06T09:28:39Z</time>
      </trkpt>
      <trkpt lat="46.25836" lon="6.81669">
        <ele>1322</ele>
        <time>2022-03-06T09:28:40Z</time>
      </trkpt>
      <trkpt lat="46.25837" lon="6.81669">
        <ele>1322</ele>
        <time>2022-03-06T09:28:41Z</time>
      </trkpt>
      <trkpt lat="46.25838" lon="6.81671">
        <ele>1322.4</ele>
        <time>2022-03-06T09:28:42Z</time>
      </trkpt>
      <trkpt lat="46.25839" lon="6.81672">
        <ele>1322.6</ele>
        <time>2022-03-06T09:28:43Z</time>
      </trkpt>
      <trkpt lat="46.2584" lon="6.81673">
        <ele>1323</ele>
        <time>2022-03-06T09:28:44Z</time>
      </trkpt>
      <trkpt lat="46.25841" lon="6.81673">
        <ele>1323.2</ele>
        <time>2022-03-06T09:28:45Z</time>
      </trkpt>
      <trkpt lat="46.25843" lon="6.81674">
        <ele>1323.4</ele>
        <time>2022-03-06T09:28:46Z</time>
      </trkpt>
      <trkpt lat="46.25844" lon="6.81674">
        <ele>1323.4</ele>
        <time>2022-03-06T09:28:47Z</time>
      </trkpt>
      <trkpt lat="46.25845" lon="6.81674">
        <ele>1323.8</ele>
        <time>2022-03-06T09:28:48Z</time>
      </trkpt>
      <trkpt lat="46.25846" lon="6.81674">
        <ele>1323.8</ele>
        <time>2022-03-06T09:28:49Z</time>
      </trkpt>
      <trkpt lat="46.25847" lon="6.81674">
        <ele>1324</ele>
        <time>2022-03-06T09:28:50Z</time>
      </trkpt>
      <trkpt lat="46.25848" lon="6.81674">
        <ele>1324.2</ele>
        <time>2022-03-06T09:28:51Z</time>
      </trkpt>
      <trkpt lat="46.25849" lon="6.81674">
        <ele>1324.2</ele>
        <time>2022-03-06T09:28:52Z</time>
      </trkpt>
      <trkpt lat="46.25851" lon="6.81674">
        <ele>1324.6</ele>
        <time>2022-03-06T09:28:53Z</time>
      </trkpt>
      <trkpt lat="46.25852" lon="6.81674">
        <ele>1324.6</ele>
        <time>2022-03-06T09:28:54Z</time>
      </trkpt>
      <trkpt lat="46.25854" lon="6.81674">
        <ele>1324.8</ele>
        <time>2022-03-06T09:28:55Z</time>
      </trkpt>
      <trkpt lat="46.25855" lon="6.81675">
        <ele>1325</ele>
        <time>2022-03-06T09:28:56Z</time>
      </trkpt>
      <trkpt lat="46.25856" lon="6.81675">
        <ele>1325</ele>
        <time>2022-03-06T09:28:57Z</time>
      </trkpt>
      <trkpt lat="46.25857" lon="6.81675">
        <ele>1325</ele>
        <time>2022-03-06T09:28:58Z</time>
      </trkpt>
      <trkpt lat="46.25858" lon="6.81675">
        <ele>1325.2</ele>
        <time>2022-03-06T09:28:59Z</time>
      </trkpt>
      <trkpt lat="46.25859" lon="6.81674">
        <ele>1325.2</ele>
        <time>2022-03-06T09:29:00Z</time>
      </trkpt>
      <trkpt lat="46.25859" lon="6.81674">
        <ele>1325.2</ele>
        <time>2022-03-06T09:29:01Z</time>
      </trkpt>
      <trkpt lat="46.2586" lon="6.81674">
        <ele>1325.4</ele>
        <time>2022-03-06T09:29:02Z</time>
      </trkpt>
      <trkpt lat="46.2586" lon="6.81675">
        <ele>1325.4</ele>
        <time>2022-03-06T09:29:03Z</time>
      </trkpt>
      <trkpt lat="46.2586" lon="6.81675">
        <ele>1325.4</ele>
        <time>2022-03-06T09:29:04Z</time>
      </trkpt>
      <trkpt lat="46.2586" lon="6.81675">
        <ele>1325.4</ele>
        <time>2022-03-06T09:29:05Z</time>
      </trkpt>
      <trkpt lat="46.25861" lon="6.81674">
        <ele>1325.4</ele>
        <time>2022-03-06T09:29:06Z</time>
      </trkpt>
      <trkpt lat="46.25862" lon="6.81674">
        <ele>1325.8</ele>
        <time>2022-03-06T09:29:08Z</time>
      </trkpt>
      <trkpt lat="46.25862" lon="6.81681">
        <ele>1325.8</ele>
        <time>2022-03-06T09:29:22Z</time>
      </trkpt>
      <trkpt lat="46.25862" lon="6.8168">
        <ele>1325.6</ele>
        <time>2022-03-06T09:29:23Z</time>
      </trkpt>
      <trkpt lat="46.25859" lon="6.81683">
        <ele>1325.8</ele>
        <time>2022-03-06T09:29:33Z</time>
      </trkpt>
      <trkpt lat="46.2586" lon="6.81683">
        <ele>1325.6</ele>
        <time>2022-03-06T09:29:34Z</time>
      </trkpt>
      <trkpt lat="46.25861" lon="6.81684">
        <ele>1325.8</ele>
        <time>2022-03-06T09:29:47Z</time>
      </trkpt>
      <trkpt lat="46.2586" lon="6.81684">
        <ele>1325.8</ele>
        <time>2022-03-06T09:29:49Z</time>
      </trkpt>
      <trkpt lat="46.25861" lon="6.81687">
        <ele>1325.6</ele>
        <time>2022-03-06T09:29:58Z</time>
      </trkpt>
      <trkpt lat="46.25861" lon="6.8169">
        <ele>1326</ele>
        <time>2022-03-06T09:30:07Z</time>
      </trkpt>
      <trkpt lat="46.25862" lon="6.81692">
        <ele>1325.8</ele>
        <time>2022-03-06T09:30:11Z</time>
      </trkpt>
      <trkpt lat="46.25862" lon="6.81692">
        <ele>1325.6</ele>
        <time>2022-03-06T09:30:12Z</time>
      </trkpt>
      <trkpt lat="46.25863" lon="6.81696">
        <ele>1325.8</ele>
        <time>2022-03-06T09:30:16Z</time>
      </trkpt>
      <trkpt lat="46.25864" lon="6.81697">
        <ele>1325.8</ele>
        <time>2022-03-06T09:30:17Z</time>
      </trkpt>
      <trkpt lat="46.25864" lon="6.81698">
        <ele>1325.6</ele>
        <time>2022-03-06T09:30:18Z</time>
      </trkpt>
      <trkpt lat="46.25864" lon="6.817">
        <ele>1325.6</ele>
        <time>2022-03-06T09:30:19Z</time>
      </trkpt>
      <trkpt lat="46.25863" lon="6.81703">
        <ele>1325.8</ele>
        <time>2022-03-06T09:30:21Z</time>
      </trkpt>
      <trkpt lat="46.25863" lon="6.81705">
        <ele>1325.8</ele>
        <time>2022-03-06T09:30:22Z</time>
      </trkpt>
      <trkpt lat="46.25865" lon="6.81708">
        <ele>1325.6</ele>
        <time>2022-03-06T09:30:26Z</time>
      </trkpt>
      <trkpt lat="46.25866" lon="6.8171">
        <ele>1325.6</ele>
        <time>2022-03-06T09:30:27Z</time>
      </trkpt>
      <trkpt lat="46.25866" lon="6.81711">
        <ele>1325.6</ele>
        <time>2022-03-06T09:30:28Z</time>
      </trkpt>
      <trkpt lat="46.25867" lon="6.81712">
        <ele>1325.6</ele>
        <time>2022-03-06T09:30:29Z</time>
      </trkpt>
      <trkpt lat="46.25868" lon="6.81713">
        <ele>1325.6</ele>
        <time>2022-03-06T09:30:30Z</time>
      </trkpt>
      <trkpt lat="46.25872" lon="6.8172">
        <ele>1325.6</ele>
        <time>2022-03-06T09:30:35Z</time>
      </trkpt>
      <trkpt lat="46.25873" lon="6.81723">
        <ele>1325.6</ele>
        <time>2022-03-06T09:30:37Z</time>
      </trkpt>
      <trkpt lat="46.25873" lon="6.81724">
        <ele>1325.6</ele>
        <time>2022-03-06T09:30:38Z</time>
      </trkpt>
      <trkpt lat="46.25875" lon="6.81725">
        <ele>1325.6</ele>
        <time>2022-03-06T09:30:40Z</time>
      </trkpt>
      <trkpt lat="46.25875" lon="6.81727">
        <ele>1325.8</ele>
        <time>2022-03-06T09:30:41Z</time>
      </trkpt>
      <trkpt lat="46.25877" lon="6.81728">
        <ele>1325.8</ele>
        <time>2022-03-06T09:30:42Z</time>
      </trkpt>
      <trkpt lat="46.25878" lon="6.81729">
        <ele>1326</ele>
        <time>2022-03-06T09:30:43Z</time>
      </trkpt>
      <trkpt lat="46.25878" lon="6.81731">
        <ele>1326.2</ele>
        <time>2022-03-06T09:30:44Z</time>
      </trkpt>
      <trkpt lat="46.25878" lon="6.81733">
        <ele>1326.4</ele>
        <time>2022-03-06T09:30:45Z</time>
      </trkpt>
      <trkpt lat="46.25879" lon="6.81734">
        <ele>1326.4</ele>
        <time>2022-03-06T09:30:46Z</time>
      </trkpt>
      <trkpt lat="46.2588" lon="6.81735">
        <ele>1326.4</ele>
        <time>2022-03-06T09:30:47Z</time>
      </trkpt>
      <trkpt lat="46.25881" lon="6.81735">
        <ele>1326.4</ele>
        <time>2022-03-06T09:30:48Z</time>
      </trkpt>
      <trkpt lat="46.25882" lon="6.81735">
        <ele>1326.6</ele>
        <time>2022-03-06T09:30:49Z</time>
      </trkpt>
      <trkpt lat="46.25883" lon="6.81735">
        <ele>1326.8</ele>
        <time>2022-03-06T09:30:50Z</time>
      </trkpt>
      <trkpt lat="46.25884" lon="6.81736">
        <ele>1326.8</ele>
        <time>2022-03-06T09:30:51Z</time>
      </trkpt>
      <trkpt lat="46.25885" lon="6.81736">
        <ele>1327</ele>
        <time>2022-03-06T09:30:52Z</time>
      </trkpt>
      <trkpt lat="46.25886" lon="6.81737">
        <ele>1327.2</ele>
        <time>2022-03-06T09:30:53Z</time>
      </trkpt>
      <trkpt lat="46.25887" lon="6.81738">
        <ele>1327.2</ele>
        <time>2022-03-06T09:30:54Z</time>
      </trkpt>
      <trkpt lat="46.25889" lon="6.81739">
        <ele>1327.2</ele>
        <time>2022-03-06T09:30:55Z</time>
      </trkpt>
      <trkpt lat="46.25889" lon="6.8174">
        <ele>1327.6</ele>
        <time>2022-03-06T09:30:56Z</time>
      </trkpt>
      <trkpt lat="46.2589" lon="6.81743">
        <ele>1327.8</ele>
        <time>2022-03-06T09:30:57Z</time>
      </trkpt>
      <trkpt lat="46.25892" lon="6.81744">
        <ele>1327.8</ele>
        <time>2022-03-06T09:30:58Z</time>
      </trkpt>
      <trkpt lat="46.25893" lon="6.81745">
        <ele>1327.8</ele>
        <time>2022-03-06T09:30:59Z</time>
      </trkpt>
      <trkpt lat="46.25893" lon="6.81746">
        <ele>1328</ele>
        <time>2022-03-06T09:31:00Z</time>
      </trkpt>
      <trkpt lat="46.25894" lon="6.81748">
        <ele>1328</ele>
        <time>2022-03-06T09:31:01Z</time>
      </trkpt>
      <trkpt lat="46.25895" lon="6.81749">
        <ele>1328.4</ele>
        <time>2022-03-06T09:31:02Z</time>
      </trkpt>
      <trkpt lat="46.25896" lon="6.8175">
        <ele>1328.2</ele>
        <time>2022-03-06T09:31:03Z</time>
      </trkpt>
      <trkpt lat="46.25897" lon="6.81751">
        <ele>1328.4</ele>
        <time>2022-03-06T09:31:04Z</time>
      </trkpt>
      <trkpt lat="46.25898" lon="6.81752">
        <ele>1328.8</ele>
        <time>2022-03-06T09:31:05Z</time>
      </trkpt>
      <trkpt lat="46.25899" lon="6.81753">
        <ele>1328.8</ele>
        <time>2022-03-06T09:31:06Z</time>
      </trkpt>
      <trkpt lat="46.259" lon="6.81754">
        <ele>1329</ele>
        <time>2022-03-06T09:31:07Z</time>
      </trkpt>
      <trkpt lat="46.25901" lon="6.81756">
        <ele>1329</ele>
        <time>2022-03-06T09:31:08Z</time>
      </trkpt>
      <trkpt lat="46.25902" lon="6.81756">
        <ele>1329</ele>
        <time>2022-03-06T09:31:09Z</time>
      </trkpt>
      <trkpt lat="46.25903" lon="6.81757">
        <ele>1329</ele>
        <time>2022-03-06T09:31:10Z</time>
      </trkpt>
      <trkpt lat="46.25904" lon="6.81757">
        <ele>1329</ele>
        <time>2022-03-06T09:31:11Z</time>
      </trkpt>
      <trkpt lat="46.25905" lon="6.81757">
        <ele>1329.2</ele>
        <time>2022-03-06T09:31:12Z</time>
      </trkpt>
      <trkpt lat="46.25906" lon="6.81756">
        <ele>1329.4</ele>
        <time>2022-03-06T09:31:13Z</time>
      </trkpt>
      <trkpt lat="46.25907" lon="6.81757">
        <ele>1329.4</ele>
        <time>2022-03-06T09:31:14Z</time>
      </trkpt>
      <trkpt lat="46.25908" lon="6.81758">
        <ele>1329.6</ele>
        <time>2022-03-06T09:31:15Z</time>
      </trkpt>
      <trkpt lat="46.25908" lon="6.8176">
        <ele>1329.8</ele>
        <time>2022-03-06T09:31:16Z</time>
      </trkpt>
      <trkpt lat="46.25909" lon="6.81761">
        <ele>1330</ele>
        <time>2022-03-06T09:31:17Z</time>
      </trkpt>
      <trkpt lat="46.2591" lon="6.81762">
        <ele>1330</ele>
        <time>2022-03-06T09:31:18Z</time>
      </trkpt>
      <trkpt lat="46.25911" lon="6.81763">
        <ele>1330.4</ele>
        <time>2022-03-06T09:31:19Z</time>
      </trkpt>
      <trkpt lat="46.25912" lon="6.81763">
        <ele>1330.4</ele>
        <time>2022-03-06T09:31:20Z</time>
      </trkpt>
      <trkpt lat="46.25912" lon="6.81764">
        <ele>1330.6</ele>
        <time>2022-03-06T09:31:21Z</time>
      </trkpt>
      <trkpt lat="46.25913" lon="6.81764">
        <ele>1330.6</ele>
        <time>2022-03-06T09:31:22Z</time>
      </trkpt>
      <trkpt lat="46.25914" lon="6.81765">
        <ele>1330.8</ele>
        <time>2022-03-06T09:31:23Z</time>
      </trkpt>
      <trkpt lat="46.25916" lon="6.81764">
        <ele>1331</ele>
        <time>2022-03-06T09:31:24Z</time>
      </trkpt>
      <trkpt lat="46.25917" lon="6.81763">
        <ele>1331.2</ele>
        <time>2022-03-06T09:31:25Z</time>
      </trkpt>
      <trkpt lat="46.25918" lon="6.81763">
        <ele>1331.4</ele>
        <time>2022-03-06T09:31:26Z</time>
      </trkpt>
      <trkpt lat="46.25919" lon="6.81764">
        <ele>1331.6</ele>
        <time>2022-03-06T09:31:27Z</time>
      </trkpt>
      <trkpt lat="46.25919" lon="6.81764">
        <ele>1331.6</ele>
        <time>2022-03-06T09:31:28Z</time>
      </trkpt>
      <trkpt lat="46.2592" lon="6.81764">
        <ele>1331.8</ele>
        <time>2022-03-06T09:31:29Z</time>
      </trkpt>
      <trkpt lat="46.25921" lon="6.81765">
        <ele>1331.8</ele>
        <time>2022-03-06T09:31:30Z</time>
      </trkpt>
      <trkpt lat="46.25921" lon="6.81765">
        <ele>1332</ele>
        <time>2022-03-06T09:31:31Z</time>
      </trkpt>
      <trkpt lat="46.25922" lon="6.81765">
        <ele>1332</ele>
        <time>2022-03-06T09:31:32Z</time>
      </trkpt>
      <trkpt lat="46.25923" lon="6.81766">
        <ele>1332</ele>
        <time>2022-03-06T09:31:33Z</time>
      </trkpt>
      <trkpt lat="46.25924" lon="6.81766">
        <ele>1332.2</ele>
        <time>2022-03-06T09:31:34Z</time>
      </trkpt>
      <trkpt lat="46.25924" lon="6.81767">
        <ele>1332.4</ele>
        <time>2022-03-06T09:31:35Z</time>
      </trkpt>
      <trkpt lat="46.25926" lon="6.81767">
        <ele>1332.4</ele>
        <time>2022-03-06T09:31:36Z</time>
      </trkpt>
      <trkpt lat="46.25926" lon="6.81767">
        <ele>1332.4</ele>
        <time>2022-03-06T09:31:37Z</time>
      </trkpt>
      <trkpt lat="46.25928" lon="6.81767">
        <ele>1332.6</ele>
        <time>2022-03-06T09:31:38Z</time>
      </trkpt>
      <trkpt lat="46.25929" lon="6.81767">
        <ele>1332.6</ele>
        <time>2022-03-06T09:31:39Z</time>
      </trkpt>
      <trkpt lat="46.2593" lon="6.81767">
        <ele>1332.6</ele>
        <time>2022-03-06T09:31:40Z</time>
      </trkpt>
      <trkpt lat="46.25931" lon="6.81768">
        <ele>1332.8</ele>
        <time>2022-03-06T09:31:41Z</time>
      </trkpt>
      <trkpt lat="46.25932" lon="6.81769">
        <ele>1332.8</ele>
        <time>2022-03-06T09:31:42Z</time>
      </trkpt>
      <trkpt lat="46.25932" lon="6.81771">
        <ele>1332.8</ele>
        <time>2022-03-06T09:31:43Z</time>
      </trkpt>
      <trkpt lat="46.25933" lon="6.81772">
        <ele>1333</ele>
        <time>2022-03-06T09:31:44Z</time>
      </trkpt>
      <trkpt lat="46.25933" lon="6.81775">
        <ele>1333</ele>
        <time>2022-03-06T09:31:45Z</time>
      </trkpt>
      <trkpt lat="46.25933" lon="6.81777">
        <ele>1333.2</ele>
        <time>2022-03-06T09:31:46Z</time>
      </trkpt>
      <trkpt lat="46.25931" lon="6.8178">
        <ele>1333.6</ele>
        <time>2022-03-06T09:31:47Z</time>
      </trkpt>
      <trkpt lat="46.25931" lon="6.81782">
        <ele>1333.6</ele>
        <time>2022-03-06T09:31:48Z</time>
      </trkpt>
      <trkpt lat="46.25931" lon="6.81783">
        <ele>1333.8</ele>
        <time>2022-03-06T09:31:49Z</time>
      </trkpt>
      <trkpt lat="46.25931" lon="6.81785">
        <ele>1334</ele>
        <time>2022-03-06T09:31:50Z</time>
      </trkpt>
      <trkpt lat="46.25931" lon="6.81786">
        <ele>1334.2</ele>
        <time>2022-03-06T09:31:51Z</time>
      </trkpt>
      <trkpt lat="46.25931" lon="6.81788">
        <ele>1334.2</ele>
        <time>2022-03-06T09:31:52Z</time>
      </trkpt>
      <trkpt lat="46.25931" lon="6.8179">
        <ele>1334.6</ele>
        <time>2022-03-06T09:31:53Z</time>
      </trkpt>
      <trkpt lat="46.25931" lon="6.81792">
        <ele>1334.4</ele>
        <time>2022-03-06T09:31:54Z</time>
      </trkpt>
      <trkpt lat="46.25931" lon="6.81792">
        <ele>1334.4</ele>
        <time>2022-03-06T09:31:55Z</time>
      </trkpt>
      <trkpt lat="46.2593" lon="6.81793">
        <ele>1334.6</ele>
        <time>2022-03-06T09:31:56Z</time>
      </trkpt>
      <trkpt lat="46.25931" lon="6.81794">
        <ele>1334.6</ele>
        <time>2022-03-06T09:31:57Z</time>
      </trkpt>
      <trkpt lat="46.25931" lon="6.81796">
        <ele>1334.6</ele>
        <time>2022-03-06T09:31:58Z</time>
      </trkpt>
      <trkpt lat="46.25931" lon="6.81798">
        <ele>1334.6</ele>
        <time>2022-03-06T09:31:59Z</time>
      </trkpt>
      <trkpt lat="46.25931" lon="6.81799">
        <ele>1334.6</ele>
        <time>2022-03-06T09:32:00Z</time>
      </trkpt>
      <trkpt lat="46.25931" lon="6.81802">
        <ele>1334.8</ele>
        <time>2022-03-06T09:32:01Z</time>
      </trkpt>
      <trkpt lat="46.25931" lon="6.81803">
        <ele>1334.8</ele>
        <time>2022-03-06T09:32:02Z</time>
      </trkpt>
      <trkpt lat="46.25932" lon="6.81803">
        <ele>1334.8</ele>
        <time>2022-03-06T09:32:03Z</time>
      </trkpt>
      <trkpt lat="46.25932" lon="6.81805">
        <ele>1335.2</ele>
        <time>2022-03-06T09:32:04Z</time>
      </trkpt>
      <trkpt lat="46.25932" lon="6.81806">
        <ele>1335.2</ele>
        <time>2022-03-06T09:32:05Z</time>
      </trkpt>
      <trkpt lat="46.25933" lon="6.81807">
        <ele>1335.4</ele>
        <time>2022-03-06T09:32:06Z</time>
      </trkpt>
      <trkpt lat="46.25933" lon="6.81807">
        <ele>1335.6</ele>
        <time>2022-03-06T09:32:07Z</time>
      </trkpt>
      <trkpt lat="46.25933" lon="6.81808">
        <ele>1335.6</ele>
        <time>2022-03-06T09:32:08Z</time>
      </trkpt>
      <trkpt lat="46.25934" lon="6.81809">
        <ele>1336</ele>
        <time>2022-03-06T09:32:09Z</time>
      </trkpt>
      <trkpt lat="46.25934" lon="6.81811">
        <ele>1336</ele>
        <time>2022-03-06T09:32:10Z</time>
      </trkpt>
      <trkpt lat="46.25934" lon="6.81812">
        <ele>1336.4</ele>
        <time>2022-03-06T09:32:11Z</time>
      </trkpt>
      <trkpt lat="46.25934" lon="6.81813">
        <ele>1336.6</ele>
        <time>2022-03-06T09:32:12Z</time>
      </trkpt>
      <trkpt lat="46.25935" lon="6.81814">
        <ele>1336.6</ele>
        <time>2022-03-06T09:32:13Z</time>
      </trkpt>
      <trkpt lat="46.25935" lon="6.81814">
        <ele>1336.6</ele>
        <time>2022-03-06T09:32:14Z</time>
      </trkpt>
      <trkpt lat="46.25935" lon="6.81816">
        <ele>1336.8</ele>
        <time>2022-03-06T09:32:15Z</time>
      </trkpt>
      <trkpt lat="46.25934" lon="6.81818">
        <ele>1336.8</ele>
        <time>2022-03-06T09:32:16Z</time>
      </trkpt>
      <trkpt lat="46.25934" lon="6.81819">
        <ele>1337</ele>
        <time>2022-03-06T09:32:17Z</time>
      </trkpt>
      <trkpt lat="46.25933" lon="6.81821">
        <ele>1337</ele>
        <time>2022-03-06T09:32:18Z</time>
      </trkpt>
      <trkpt lat="46.25933" lon="6.81822">
        <ele>1337</ele>
        <time>2022-03-06T09:32:19Z</time>
      </trkpt>
      <trkpt lat="46.25933" lon="6.81823">
        <ele>1337.2</ele>
        <time>2022-03-06T09:32:20Z</time>
      </trkpt>
      <trkpt lat="46.25933" lon="6.81824">
        <ele>1337.2</ele>
        <time>2022-03-06T09:32:21Z</time>
      </trkpt>
      <trkpt lat="46.25932" lon="6.81826">
        <ele>1337.2</ele>
        <time>2022-03-06T09:32:22Z</time>
      </trkpt>
      <trkpt lat="46.25932" lon="6.81827">
        <ele>1337.4</ele>
        <time>2022-03-06T09:32:23Z</time>
      </trkpt>
      <trkpt lat="46.25931" lon="6.81829">
        <ele>1337.2</ele>
        <time>2022-03-06T09:32:24Z</time>
      </trkpt>
      <trkpt lat="46.25931" lon="6.81831">
        <ele>1337.6</ele>
        <time>2022-03-06T09:32:25Z</time>
      </trkpt>
      <trkpt lat="46.25931" lon="6.81832">
        <ele>1337.6</ele>
        <time>2022-03-06T09:32:26Z</time>
      </trkpt>
      <trkpt lat="46.25931" lon="6.81832">
        <ele>1337.8</ele>
        <time>2022-03-06T09:32:27Z</time>
      </trkpt>
      <trkpt lat="46.25932" lon="6.81832">
        <ele>1338</ele>
        <time>2022-03-06T09:32:28Z</time>
      </trkpt>
      <trkpt lat="46.25933" lon="6.81833">
        <ele>1338.4</ele>
        <time>2022-03-06T09:32:29Z</time>
      </trkpt>
      <trkpt lat="46.25934" lon="6.81834">
        <ele>1338.4</ele>
        <time>2022-03-06T09:32:30Z</time>
      </trkpt>
      <trkpt lat="46.25934" lon="6.81836">
        <ele>1338.4</ele>
        <time>2022-03-06T09:32:31Z</time>
      </trkpt>
      <trkpt lat="46.25935" lon="6.81836">
        <ele>1338.8</ele>
        <time>2022-03-06T09:32:32Z</time>
      </trkpt>
      <trkpt lat="46.25936" lon="6.81836">
        <ele>1339</ele>
        <time>2022-03-06T09:32:33Z</time>
      </trkpt>
      <trkpt lat="46.25937" lon="6.81837">
        <ele>1339</ele>
        <time>2022-03-06T09:32:34Z</time>
      </trkpt>
      <trkpt lat="46.25937" lon="6.81838">
        <ele>1339.2</ele>
        <time>2022-03-06T09:32:35Z</time>
      </trkpt>
      <trkpt lat="46.25937" lon="6.8184">
        <ele>1339.4</ele>
        <time>2022-03-06T09:32:36Z</time>
      </trkpt>
      <trkpt lat="46.25937" lon="6.81843">
        <ele>1339.6</ele>
        <time>2022-03-06T09:32:37Z</time>
      </trkpt>
      <trkpt lat="46.25937" lon="6.81844">
        <ele>1339.8</ele>
        <time>2022-03-06T09:32:38Z</time>
      </trkpt>
      <trkpt lat="46.25937" lon="6.81845">
        <ele>1339.8</ele>
        <time>2022-03-06T09:32:39Z</time>
      </trkpt>
      <trkpt lat="46.25937" lon="6.81846">
        <ele>1340</ele>
        <time>2022-03-06T09:32:40Z</time>
      </trkpt>
      <trkpt lat="46.25937" lon="6.81846">
        <ele>1340</ele>
        <time>2022-03-06T09:32:41Z</time>
      </trkpt>
      <trkpt lat="46.25938" lon="6.81847">
        <ele>1340.2</ele>
        <time>2022-03-06T09:32:42Z</time>
      </trkpt>
      <trkpt lat="46.25938" lon="6.81849">
        <ele>1340.4</ele>
        <time>2022-03-06T09:32:43Z</time>
      </trkpt>
      <trkpt lat="46.25939" lon="6.8185">
        <ele>1340.6</ele>
        <time>2022-03-06T09:32:44Z</time>
      </trkpt>
      <trkpt lat="46.2594" lon="6.81852">
        <ele>1340.6</ele>
        <time>2022-03-06T09:32:45Z</time>
      </trkpt>
      <trkpt lat="46.2594" lon="6.81853">
        <ele>1340.8</ele>
        <time>2022-03-06T09:32:46Z</time>
      </trkpt>
      <trkpt lat="46.25941" lon="6.81855">
        <ele>1341</ele>
        <time>2022-03-06T09:32:47Z</time>
      </trkpt>
      <trkpt lat="46.25941" lon="6.81856">
        <ele>1341.2</ele>
        <time>2022-03-06T09:32:48Z</time>
      </trkpt>
      <trkpt lat="46.25942" lon="6.81856">
        <ele>1341.4</ele>
        <time>2022-03-06T09:32:49Z</time>
      </trkpt>
      <trkpt lat="46.25943" lon="6.81857">
        <ele>1341.4</ele>
        <time>2022-03-06T09:32:50Z</time>
      </trkpt>
      <trkpt lat="46.25943" lon="6.81858">
        <ele>1341.8</ele>
        <time>2022-03-06T09:32:51Z</time>
      </trkpt>
      <trkpt lat="46.25944" lon="6.81859">
        <ele>1342</ele>
        <time>2022-03-06T09:32:52Z</time>
      </trkpt>
      <trkpt lat="46.25944" lon="6.8186">
        <ele>1342</ele>
        <time>2022-03-06T09:32:53Z</time>
      </trkpt>
      <trkpt lat="46.25945" lon="6.81861">
        <ele>1342.2</ele>
        <time>2022-03-06T09:32:54Z</time>
      </trkpt>
      <trkpt lat="46.25946" lon="6.81861">
        <ele>1342.2</ele>
        <time>2022-03-06T09:32:55Z</time>
      </trkpt>
      <trkpt lat="46.25947" lon="6.81863">
        <ele>1342.4</ele>
        <time>2022-03-06T09:32:56Z</time>
      </trkpt>
      <trkpt lat="46.25947" lon="6.81864">
        <ele>1342.6</ele>
        <time>2022-03-06T09:32:57Z</time>
      </trkpt>
      <trkpt lat="46.25947" lon="6.81866">
        <ele>1343</ele>
        <time>2022-03-06T09:32:58Z</time>
      </trkpt>
      <trkpt lat="46.25947" lon="6.81868">
        <ele>1343</ele>
        <time>2022-03-06T09:32:59Z</time>
      </trkpt>
      <trkpt lat="46.25948" lon="6.81869">
        <ele>1343.2</ele>
        <time>2022-03-06T09:33:00Z</time>
      </trkpt>
      <trkpt lat="46.25949" lon="6.8187">
        <ele>1343.4</ele>
        <time>2022-03-06T09:33:01Z</time>
      </trkpt>
      <trkpt lat="46.2595" lon="6.8187">
        <ele>1343.6</ele>
        <time>2022-03-06T09:33:02Z</time>
      </trkpt>
      <trkpt lat="46.2595" lon="6.81871">
        <ele>1343.8</ele>
        <time>2022-03-06T09:33:03Z</time>
      </trkpt>
      <trkpt lat="46.25951" lon="6.81872">
        <ele>1343.8</ele>
        <time>2022-03-06T09:33:04Z</time>
      </trkpt>
      <trkpt lat="46.25951" lon="6.81873">
        <ele>1343.8</ele>
        <time>2022-03-06T09:33:05Z</time>
      </trkpt>
      <trkpt lat="46.25951" lon="6.81874">
        <ele>1344.2</ele>
        <time>2022-03-06T09:33:06Z</time>
      </trkpt>
      <trkpt lat="46.25951" lon="6.81875">
        <ele>1344</ele>
        <time>2022-03-06T09:33:07Z</time>
      </trkpt>
      <trkpt lat="46.25952" lon="6.81875">
        <ele>1344.2</ele>
        <time>2022-03-06T09:33:08Z</time>
      </trkpt>
      <trkpt lat="46.25952" lon="6.81875">
        <ele>1344.4</ele>
        <time>2022-03-06T09:33:09Z</time>
      </trkpt>
      <trkpt lat="46.25953" lon="6.81876">
        <ele>1344.6</ele>
        <time>2022-03-06T09:33:10Z</time>
      </trkpt>
      <trkpt lat="46.25953" lon="6.81876">
        <ele>1344.8</ele>
        <time>2022-03-06T09:33:11Z</time>
      </trkpt>
      <trkpt lat="46.25954" lon="6.81876">
        <ele>1345</ele>
        <time>2022-03-06T09:33:12Z</time>
      </trkpt>
      <trkpt lat="46.25954" lon="6.81877">
        <ele>1345</ele>
        <time>2022-03-06T09:33:13Z</time>
      </trkpt>
      <trkpt lat="46.25955" lon="6.81877">
        <ele>1345.2</ele>
        <time>2022-03-06T09:33:14Z</time>
      </trkpt>
      <trkpt lat="46.25955" lon="6.81879">
        <ele>1345.4</ele>
        <time>2022-03-06T09:33:15Z</time>
      </trkpt>
      <trkpt lat="46.25956" lon="6.8188">
        <ele>1345.6</ele>
        <time>2022-03-06T09:33:16Z</time>
      </trkpt>
      <trkpt lat="46.25957" lon="6.81879">
        <ele>1346</ele>
        <time>2022-03-06T09:33:17Z</time>
      </trkpt>
      <trkpt lat="46.25958" lon="6.81879">
        <ele>1346</ele>
        <time>2022-03-06T09:33:18Z</time>
      </trkpt>
      <trkpt lat="46.25959" lon="6.81879">
        <ele>1346.2</ele>
        <time>2022-03-06T09:33:19Z</time>
      </trkpt>
      <trkpt lat="46.25959" lon="6.8188">
        <ele>1346.4</ele>
        <time>2022-03-06T09:33:20Z</time>
      </trkpt>
      <trkpt lat="46.2596" lon="6.81881">
        <ele>1346.6</ele>
        <time>2022-03-06T09:33:21Z</time>
      </trkpt>
      <trkpt lat="46.2596" lon="6.81882">
        <ele>1346.8</ele>
        <time>2022-03-06T09:33:22Z</time>
      </trkpt>
      <trkpt lat="46.2596" lon="6.81882">
        <ele>1347</ele>
        <time>2022-03-06T09:33:23Z</time>
      </trkpt>
      <trkpt lat="46.2596" lon="6.81883">
        <ele>1347.2</ele>
        <time>2022-03-06T09:33:24Z</time>
      </trkpt>
      <trkpt lat="46.25961" lon="6.81883">
        <ele>1347.6</ele>
        <time>2022-03-06T09:33:25Z</time>
      </trkpt>
      <trkpt lat="46.25963" lon="6.81883">
        <ele>1347.6</ele>
        <time>2022-03-06T09:33:26Z</time>
      </trkpt>
      <trkpt lat="46.25964" lon="6.81882">
        <ele>1347.8</ele>
        <time>2022-03-06T09:33:27Z</time>
      </trkpt>
      <trkpt lat="46.25965" lon="6.81883">
        <ele>1347.8</ele>
        <time>2022-03-06T09:33:28Z</time>
      </trkpt>
      <trkpt lat="46.25966" lon="6.81884">
        <ele>1347.8</ele>
        <time>2022-03-06T09:33:29Z</time>
      </trkpt>
      <trkpt lat="46.25966" lon="6.81885">
        <ele>1348</ele>
        <time>2022-03-06T09:33:30Z</time>
      </trkpt>
      <trkpt lat="46.25966" lon="6.81886">
        <ele>1348.4</ele>
        <time>2022-03-06T09:33:31Z</time>
      </trkpt>
      <trkpt lat="46.25966" lon="6.81887">
        <ele>1348.6</ele>
        <time>2022-03-06T09:33:32Z</time>
      </trkpt>
      <trkpt lat="46.25967" lon="6.81888">
        <ele>1348.8</ele>
        <time>2022-03-06T09:33:33Z</time>
      </trkpt>
      <trkpt lat="46.25967" lon="6.81889">
        <ele>1349</ele>
        <time>2022-03-06T09:33:34Z</time>
      </trkpt>
      <trkpt lat="46.25967" lon="6.8189">
        <ele>1349</ele>
        <time>2022-03-06T09:33:35Z</time>
      </trkpt>
      <trkpt lat="46.25967" lon="6.81891">
        <ele>1349.2</ele>
        <time>2022-03-06T09:33:36Z</time>
      </trkpt>
      <trkpt lat="46.25967" lon="6.81892">
        <ele>1349.4</ele>
        <time>2022-03-06T09:33:37Z</time>
      </trkpt>
      <trkpt lat="46.25968" lon="6.81893">
        <ele>1349.8</ele>
        <time>2022-03-06T09:33:38Z</time>
      </trkpt>
      <trkpt lat="46.25967" lon="6.81895">
        <ele>1349.6</ele>
        <time>2022-03-06T09:33:39Z</time>
      </trkpt>
      <trkpt lat="46.25969" lon="6.81895">
        <ele>1350</ele>
        <time>2022-03-06T09:33:40Z</time>
      </trkpt>
      <trkpt lat="46.2597" lon="6.81897">
        <ele>1350.2</ele>
        <time>2022-03-06T09:33:41Z</time>
      </trkpt>
      <trkpt lat="46.2597" lon="6.81898">
        <ele>1350.4</ele>
        <time>2022-03-06T09:33:42Z</time>
      </trkpt>
      <trkpt lat="46.2597" lon="6.81899">
        <ele>1350.6</ele>
        <time>2022-03-06T09:33:43Z</time>
      </trkpt>
      <trkpt lat="46.25971" lon="6.819">
        <ele>1350.8</ele>
        <time>2022-03-06T09:33:44Z</time>
      </trkpt>
      <trkpt lat="46.25971" lon="6.81901">
        <ele>1351</ele>
        <time>2022-03-06T09:33:45Z</time>
      </trkpt>
      <trkpt lat="46.25972" lon="6.81902">
        <ele>1351.2</ele>
        <time>2022-03-06T09:33:46Z</time>
      </trkpt>
      <trkpt lat="46.25974" lon="6.81901">
        <ele>1351.2</ele>
        <time>2022-03-06T09:33:47Z</time>
      </trkpt>
      <trkpt lat="46.25975" lon="6.81901">
        <ele>1351.6</ele>
        <time>2022-03-06T09:33:48Z</time>
      </trkpt>
      <trkpt lat="46.25976" lon="6.81902">
        <ele>1351.6</ele>
        <time>2022-03-06T09:33:49Z</time>
      </trkpt>
      <trkpt lat="46.25977" lon="6.81902">
        <ele>1352</ele>
        <time>2022-03-06T09:33:50Z</time>
      </trkpt>
      <trkpt lat="46.25977" lon="6.81904">
        <ele>1352</ele>
        <time>2022-03-06T09:33:51Z</time>
      </trkpt>
      <trkpt lat="46.25978" lon="6.81904">
        <ele>1352.2</ele>
        <time>2022-03-06T09:33:52Z</time>
      </trkpt>
      <trkpt lat="46.25979" lon="6.81905">
        <ele>1352.4</ele>
        <time>2022-03-06T09:33:53Z</time>
      </trkpt>
      <trkpt lat="46.25979" lon="6.81905">
        <ele>1352.8</ele>
        <time>2022-03-06T09:33:54Z</time>
      </trkpt>
      <trkpt lat="46.2598" lon="6.81907">
        <ele>1352.8</ele>
        <time>2022-03-06T09:33:55Z</time>
      </trkpt>
      <trkpt lat="46.2598" lon="6.81909">
        <ele>1353.2</ele>
        <time>2022-03-06T09:33:56Z</time>
      </trkpt>
      <trkpt lat="46.2598" lon="6.8191">
        <ele>1353.4</ele>
        <time>2022-03-06T09:33:57Z</time>
      </trkpt>
      <trkpt lat="46.2598" lon="6.81912">
        <ele>1353.8</ele>
        <time>2022-03-06T09:33:58Z</time>
      </trkpt>
      <trkpt lat="46.2598" lon="6.81913">
        <ele>1354.2</ele>
        <time>2022-03-06T09:33:59Z</time>
      </trkpt>
      <trkpt lat="46.2598" lon="6.81915">
        <ele>1354.2</ele>
        <time>2022-03-06T09:34:00Z</time>
      </trkpt>
      <trkpt lat="46.2598" lon="6.81916">
        <ele>1354.4</ele>
        <time>2022-03-06T09:34:01Z</time>
      </trkpt>
      <trkpt lat="46.2598" lon="6.81917">
        <ele>1354.6</ele>
        <time>2022-03-06T09:34:02Z</time>
      </trkpt>
      <trkpt lat="46.2598" lon="6.8192">
        <ele>1355</ele>
        <time>2022-03-06T09:34:03Z</time>
      </trkpt>
      <trkpt lat="46.25981" lon="6.81921">
        <ele>1355</ele>
        <time>2022-03-06T09:34:04Z</time>
      </trkpt>
      <trkpt lat="46.25981" lon="6.81922">
        <ele>1355.2</ele>
        <time>2022-03-06T09:34:05Z</time>
      </trkpt>
      <trkpt lat="46.25982" lon="6.81924">
        <ele>1355.6</ele>
        <time>2022-03-06T09:34:06Z</time>
      </trkpt>
      <trkpt lat="46.25982" lon="6.81924">
        <ele>1355.6</ele>
        <time>2022-03-06T09:34:07Z</time>
      </trkpt>
      <trkpt lat="46.25983" lon="6.81925">
        <ele>1355.8</ele>
        <time>2022-03-06T09:34:08Z</time>
      </trkpt>
      <trkpt lat="46.25983" lon="6.81926">
        <ele>1356</ele>
        <time>2022-03-06T09:34:09Z</time>
      </trkpt>
      <trkpt lat="46.25984" lon="6.81927">
        <ele>1356</ele>
        <time>2022-03-06T09:34:10Z</time>
      </trkpt>
      <trkpt lat="46.25985" lon="6.81928">
        <ele>1356.2</ele>
        <time>2022-03-06T09:34:11Z</time>
      </trkpt>
      <trkpt lat="46.25985" lon="6.81929">
        <ele>1356.2</ele>
        <time>2022-03-06T09:34:12Z</time>
      </trkpt>
      <trkpt lat="46.25985" lon="6.81931">
        <ele>1356.6</ele>
        <time>2022-03-06T09:34:13Z</time>
      </trkpt>
      <trkpt lat="46.25986" lon="6.81932">
        <ele>1356.8</ele>
        <time>2022-03-06T09:34:14Z</time>
      </trkpt>
      <trkpt lat="46.25987" lon="6.81933">
        <ele>1357</ele>
        <time>2022-03-06T09:34:15Z</time>
      </trkpt>
      <trkpt lat="46.25987" lon="6.81935">
        <ele>1357.2</ele>
        <time>2022-03-06T09:34:16Z</time>
      </trkpt>
      <trkpt lat="46.25987" lon="6.81936">
        <ele>1357.4</ele>
        <time>2022-03-06T09:34:17Z</time>
      </trkpt>
      <trkpt lat="46.25987" lon="6.81937">
        <ele>1357.4</ele>
        <time>2022-03-06T09:34:18Z</time>
      </trkpt>
      <trkpt lat="46.25987" lon="6.81938">
        <ele>1357.8</ele>
        <time>2022-03-06T09:34:19Z</time>
      </trkpt>
      <trkpt lat="46.25987" lon="6.81939">
        <ele>1357.8</ele>
        <time>2022-03-06T09:34:20Z</time>
      </trkpt>
      <trkpt lat="46.25988" lon="6.8194">
        <ele>1358</ele>
        <time>2022-03-06T09:34:21Z</time>
      </trkpt>
      <trkpt lat="46.25989" lon="6.81941">
        <ele>1358.2</ele>
        <time>2022-03-06T09:34:22Z</time>
      </trkpt>
      <trkpt lat="46.25989" lon="6.81942">
        <ele>1358.2</ele>
        <time>2022-03-06T09:34:23Z</time>
      </trkpt>
      <trkpt lat="46.25989" lon="6.81943">
        <ele>1358.4</ele>
        <time>2022-03-06T09:34:24Z</time>
      </trkpt>
      <trkpt lat="46.2599" lon="6.81944">
        <ele>1358.6</ele>
        <time>2022-03-06T09:34:25Z</time>
      </trkpt>
      <trkpt lat="46.2599" lon="6.81944">
        <ele>1358.8</ele>
        <time>2022-03-06T09:34:26Z</time>
      </trkpt>
      <trkpt lat="46.25991" lon="6.81945">
        <ele>1359.2</ele>
        <time>2022-03-06T09:34:27Z</time>
      </trkpt>
      <trkpt lat="46.25991" lon="6.81946">
        <ele>1359.4</ele>
        <time>2022-03-06T09:34:28Z</time>
      </trkpt>
      <trkpt lat="46.25992" lon="6.81947">
        <ele>1359.4</ele>
        <time>2022-03-06T09:34:29Z</time>
      </trkpt>
      <trkpt lat="46.25992" lon="6.81948">
        <ele>1359.6</ele>
        <time>2022-03-06T09:34:30Z</time>
      </trkpt>
      <trkpt lat="46.25993" lon="6.81948">
        <ele>1359.6</ele>
        <time>2022-03-06T09:34:31Z</time>
      </trkpt>
      <trkpt lat="46.25994" lon="6.81949">
        <ele>1359.8</ele>
        <time>2022-03-06T09:34:32Z</time>
      </trkpt>
      <trkpt lat="46.25994" lon="6.81949">
        <ele>1360</ele>
        <time>2022-03-06T09:34:33Z</time>
      </trkpt>
      <trkpt lat="46.25995" lon="6.81949">
        <ele>1360.2</ele>
        <time>2022-03-06T09:34:34Z</time>
      </trkpt>
      <trkpt lat="46.25995" lon="6.8195">
        <ele>1360.2</ele>
        <time>2022-03-06T09:34:35Z</time>
      </trkpt>
      <trkpt lat="46.25996" lon="6.81951">
        <ele>1360.2</ele>
        <time>2022-03-06T09:34:36Z</time>
      </trkpt>
      <trkpt lat="46.25997" lon="6.81952">
        <ele>1360.4</ele>
        <time>2022-03-06T09:34:37Z</time>
      </trkpt>
      <trkpt lat="46.25998" lon="6.81953">
        <ele>1360.6</ele>
        <time>2022-03-06T09:34:38Z</time>
      </trkpt>
      <trkpt lat="46.25998" lon="6.81954">
        <ele>1360.8</ele>
        <time>2022-03-06T09:34:39Z</time>
      </trkpt>
      <trkpt lat="46.25999" lon="6.81955">
        <ele>1361</ele>
        <time>2022-03-06T09:34:40Z</time>
      </trkpt>
      <trkpt lat="46.26" lon="6.81956">
        <ele>1361</ele>
        <time>2022-03-06T09:34:41Z</time>
      </trkpt>
      <trkpt lat="46.26" lon="6.81958">
        <ele>1361.2</ele>
        <time>2022-03-06T09:34:42Z</time>
      </trkpt>
      <trkpt lat="46.26001" lon="6.81958">
        <ele>1361.2</ele>
        <time>2022-03-06T09:34:43Z</time>
      </trkpt>
      <trkpt lat="46.26002" lon="6.81958">
        <ele>1361.2</ele>
        <time>2022-03-06T09:34:44Z</time>
      </trkpt>
      <trkpt lat="46.26003" lon="6.81959">
        <ele>1361.4</ele>
        <time>2022-03-06T09:34:45Z</time>
      </trkpt>
      <trkpt lat="46.26004" lon="6.81959">
        <ele>1361.4</ele>
        <time>2022-03-06T09:34:46Z</time>
      </trkpt>
      <trkpt lat="46.26005" lon="6.8196">
        <ele>1361.6</ele>
        <time>2022-03-06T09:34:47Z</time>
      </trkpt>
      <trkpt lat="46.26005" lon="6.81961">
        <ele>1361.8</ele>
        <time>2022-03-06T09:34:48Z</time>
      </trkpt>
      <trkpt lat="46.26006" lon="6.81961">
        <ele>1362</ele>
        <time>2022-03-06T09:34:49Z</time>
      </trkpt>
      <trkpt lat="46.26007" lon="6.81962">
        <ele>1362</ele>
        <time>2022-03-06T09:34:50Z</time>
      </trkpt>
      <trkpt lat="46.26008" lon="6.81963">
        <ele>1362.2</ele>
        <time>2022-03-06T09:34:51Z</time>
      </trkpt>
      <trkpt lat="46.26008" lon="6.81964">
        <ele>1362.2</ele>
        <time>2022-03-06T09:34:52Z</time>
      </trkpt>
      <trkpt lat="46.26009" lon="6.81964">
        <ele>1362.2</ele>
        <time>2022-03-06T09:34:53Z</time>
      </trkpt>
      <trkpt lat="46.2601" lon="6.81965">
        <ele>1362.4</ele>
        <time>2022-03-06T09:34:54Z</time>
      </trkpt>
      <trkpt lat="46.26011" lon="6.81966">
        <ele>1362.6</ele>
        <time>2022-03-06T09:34:55Z</time>
      </trkpt>
      <trkpt lat="46.26012" lon="6.81967">
        <ele>1362.6</ele>
        <time>2022-03-06T09:34:56Z</time>
      </trkpt>
      <trkpt lat="46.26013" lon="6.81968">
        <ele>1362.6</ele>
        <time>2022-03-06T09:34:57Z</time>
      </trkpt>
      <trkpt lat="46.26015" lon="6.81968">
        <ele>1362.6</ele>
        <time>2022-03-06T09:34:58Z</time>
      </trkpt>
      <trkpt lat="46.26016" lon="6.81969">
        <ele>1362.8</ele>
        <time>2022-03-06T09:34:59Z</time>
      </trkpt>
      <trkpt lat="46.26017" lon="6.81969">
        <ele>1362.6</ele>
        <time>2022-03-06T09:35:00Z</time>
      </trkpt>
      <trkpt lat="46.26019" lon="6.81969">
        <ele>1362.8</ele>
        <time>2022-03-06T09:35:01Z</time>
      </trkpt>
      <trkpt lat="46.2602" lon="6.8197">
        <ele>1362.8</ele>
        <time>2022-03-06T09:35:02Z</time>
      </trkpt>
      <trkpt lat="46.26021" lon="6.81972">
        <ele>1362.6</ele>
        <time>2022-03-06T09:35:03Z</time>
      </trkpt>
      <trkpt lat="46.26023" lon="6.81972">
        <ele>1362.8</ele>
        <time>2022-03-06T09:35:04Z</time>
      </trkpt>
      <trkpt lat="46.26024" lon="6.81972">
        <ele>1362.8</ele>
        <time>2022-03-06T09:35:05Z</time>
      </trkpt>
      <trkpt lat="46.26025" lon="6.81974">
        <ele>1362.8</ele>
        <time>2022-03-06T09:35:06Z</time>
      </trkpt>
      <trkpt lat="46.26027" lon="6.81974">
        <ele>1362.8</ele>
        <time>2022-03-06T09:35:07Z</time>
      </trkpt>
      <trkpt lat="46.26028" lon="6.81974">
        <ele>1362.8</ele>
        <time>2022-03-06T09:35:08Z</time>
      </trkpt>
      <trkpt lat="46.26029" lon="6.81974">
        <ele>1362.8</ele>
        <time>2022-03-06T09:35:09Z</time>
      </trkpt>
      <trkpt lat="46.2603" lon="6.81975">
        <ele>1362.8</ele>
        <time>2022-03-06T09:35:10Z</time>
      </trkpt>
      <trkpt lat="46.26031" lon="6.81975">
        <ele>1363</ele>
        <time>2022-03-06T09:35:11Z</time>
      </trkpt>
      <trkpt lat="46.26032" lon="6.81976">
        <ele>1362.8</ele>
        <time>2022-03-06T09:35:12Z</time>
      </trkpt>
      <trkpt lat="46.26033" lon="6.81976">
        <ele>1362.8</ele>
        <time>2022-03-06T09:35:13Z</time>
      </trkpt>
      <trkpt lat="46.26034" lon="6.81977">
        <ele>1362.8</ele>
        <time>2022-03-06T09:35:14Z</time>
      </trkpt>
      <trkpt lat="46.26036" lon="6.81978">
        <ele>1363</ele>
        <time>2022-03-06T09:35:15Z</time>
      </trkpt>
      <trkpt lat="46.26037" lon="6.81978">
        <ele>1363</ele>
        <time>2022-03-06T09:35:16Z</time>
      </trkpt>
      <trkpt lat="46.26038" lon="6.81979">
        <ele>1363</ele>
        <time>2022-03-06T09:35:17Z</time>
      </trkpt>
      <trkpt lat="46.26039" lon="6.8198">
        <ele>1363.2</ele>
        <time>2022-03-06T09:35:18Z</time>
      </trkpt>
      <trkpt lat="46.2604" lon="6.8198">
        <ele>1363.2</ele>
        <time>2022-03-06T09:35:19Z</time>
      </trkpt>
      <trkpt lat="46.26041" lon="6.81981">
        <ele>1363.2</ele>
        <time>2022-03-06T09:35:20Z</time>
      </trkpt>
      <trkpt lat="46.26041" lon="6.81981">
        <ele>1363.2</ele>
        <time>2022-03-06T09:35:21Z</time>
      </trkpt>
      <trkpt lat="46.26042" lon="6.81981">
        <ele>1363.4</ele>
        <time>2022-03-06T09:35:22Z</time>
      </trkpt>
      <trkpt lat="46.26042" lon="6.81981">
        <ele>1363.6</ele>
        <time>2022-03-06T09:35:23Z</time>
      </trkpt>
      <trkpt lat="46.26043" lon="6.8198">
        <ele>1363.6</ele>
        <time>2022-03-06T09:35:24Z</time>
      </trkpt>
      <trkpt lat="46.26044" lon="6.8198">
        <ele>1363.6</ele>
        <time>2022-03-06T09:35:25Z</time>
      </trkpt>
      <trkpt lat="46.26044" lon="6.8198">
        <ele>1363.8</ele>
        <time>2022-03-06T09:35:26Z</time>
      </trkpt>
      <trkpt lat="46.26045" lon="6.8198">
        <ele>1363.8</ele>
        <time>2022-03-06T09:35:27Z</time>
      </trkpt>
      <trkpt lat="46.26045" lon="6.81979">
        <ele>1363.8</ele>
        <time>2022-03-06T09:35:28Z</time>
      </trkpt>
      <trkpt lat="46.26046" lon="6.81979">
        <ele>1363.8</ele>
        <time>2022-03-06T09:35:29Z</time>
      </trkpt>
      <trkpt lat="46.26046" lon="6.81979">
        <ele>1363.8</ele>
        <time>2022-03-06T09:35:30Z</time>
      </trkpt>
      <trkpt lat="46.26046" lon="6.81979">
        <ele>1363.8</ele>
        <time>2022-03-06T09:35:31Z</time>
      </trkpt>
      <trkpt lat="46.26038" lon="6.81995">
        <ele>1363.8</ele>
        <time>2022-03-06T09:35:40Z</time>
      </trkpt>
      <trkpt lat="46.26036" lon="6.82">
        <ele>1363.8</ele>
        <time>2022-03-06T09:35:41Z</time>
      </trkpt>
      <trkpt lat="46.26031" lon="6.82018">
        <ele>1363.8</ele>
        <time>2022-03-06T09:35:53Z</time>
      </trkpt>
      <trkpt lat="46.2603" lon="6.8202">
        <ele>1363.6</ele>
        <time>2022-03-06T09:35:55Z</time>
      </trkpt>
      <trkpt lat="46.26025" lon="6.82027">
        <ele>1363.8</ele>
        <time>2022-03-06T09:36:07Z</time>
      </trkpt>
      <trkpt lat="46.26025" lon="6.82027">
        <ele>1363.8</ele>
        <time>2022-03-06T09:36:09Z</time>
      </trkpt>
      <trkpt lat="46.26023" lon="6.82031">
        <ele>1363.8</ele>
        <time>2022-03-06T09:36:21Z</time>
      </trkpt>
      <trkpt lat="46.26022" lon="6.82031">
        <ele>1364</ele>
        <time>2022-03-06T09:36:26Z</time>
      </trkpt>
      <trkpt lat="46.26022" lon="6.82033">
        <ele>1363.8</ele>
        <time>2022-03-06T09:36:27Z</time>
      </trkpt>
      <trkpt lat="46.26023" lon="6.82033">
        <ele>1363.8</ele>
        <time>2022-03-06T09:36:28Z</time>
      </trkpt>
      <trkpt lat="46.26023" lon="6.82035">
        <ele>1364</ele>
        <time>2022-03-06T09:36:29Z</time>
      </trkpt>
      <trkpt lat="46.26024" lon="6.82036">
        <ele>1364</ele>
        <time>2022-03-06T09:36:30Z</time>
      </trkpt>
      <trkpt lat="46.26024" lon="6.82037">
        <ele>1364.2</ele>
        <time>2022-03-06T09:36:31Z</time>
      </trkpt>
      <trkpt lat="46.26024" lon="6.82038">
        <ele>1364.2</ele>
        <time>2022-03-06T09:36:32Z</time>
      </trkpt>
      <trkpt lat="46.26024" lon="6.82039">
        <ele>1364.4</ele>
        <time>2022-03-06T09:36:33Z</time>
      </trkpt>
      <trkpt lat="46.26024" lon="6.8204">
        <ele>1364.6</ele>
        <time>2022-03-06T09:36:34Z</time>
      </trkpt>
      <trkpt lat="46.26025" lon="6.82041">
        <ele>1364.6</ele>
        <time>2022-03-06T09:36:35Z</time>
      </trkpt>
      <trkpt lat="46.26025" lon="6.82042">
        <ele>1364.8</ele>
        <time>2022-03-06T09:36:36Z</time>
      </trkpt>
      <trkpt lat="46.26025" lon="6.82044">
        <ele>1365</ele>
        <time>2022-03-06T09:36:37Z</time>
      </trkpt>
      <trkpt lat="46.26026" lon="6.82045">
        <ele>1365</ele>
        <time>2022-03-06T09:36:38Z</time>
      </trkpt>
      <trkpt lat="46.26027" lon="6.82046">
        <ele>1365.2</ele>
        <time>2022-03-06T09:36:39Z</time>
      </trkpt>
      <trkpt lat="46.26028" lon="6.82047">
        <ele>1365.4</ele>
        <time>2022-03-06T09:36:40Z</time>
      </trkpt>
      <trkpt lat="46.26027" lon="6.8205">
        <ele>1365.4</ele>
        <time>2022-03-06T09:36:41Z</time>
      </trkpt>
      <trkpt lat="46.26027" lon="6.82051">
        <ele>1365.6</ele>
        <time>2022-03-06T09:36:42Z</time>
      </trkpt>
      <trkpt lat="46.26028" lon="6.82053">
        <ele>1365.8</ele>
        <time>2022-03-06T09:36:43Z</time>
      </trkpt>
      <trkpt lat="46.26027" lon="6.82056">
        <ele>1366</ele>
        <time>2022-03-06T09:36:44Z</time>
      </trkpt>
      <trkpt lat="46.26028" lon="6.82057">
        <ele>1366</ele>
        <time>2022-03-06T09:36:45Z</time>
      </trkpt>
      <trkpt lat="46.26028" lon="6.82058">
        <ele>1366.2</ele>
        <time>2022-03-06T09:36:46Z</time>
      </trkpt>
      <trkpt lat="46.26028" lon="6.82059">
        <ele>1366.4</ele>
        <time>2022-03-06T09:36:47Z</time>
      </trkpt>
      <trkpt lat="46.26029" lon="6.8206">
        <ele>1366.4</ele>
        <time>2022-03-06T09:36:48Z</time>
      </trkpt>
      <trkpt lat="46.26029" lon="6.82061">
        <ele>1366.6</ele>
        <time>2022-03-06T09:36:49Z</time>
      </trkpt>
      <trkpt lat="46.26029" lon="6.82062">
        <ele>1366.6</ele>
        <time>2022-03-06T09:36:50Z</time>
      </trkpt>
      <trkpt lat="46.26029" lon="6.82063">
        <ele>1366.6</ele>
        <time>2022-03-06T09:36:51Z</time>
      </trkpt>
      <trkpt lat="46.26029" lon="6.82065">
        <ele>1366.6</ele>
        <time>2022-03-06T09:36:52Z</time>
      </trkpt>
      <trkpt lat="46.26028" lon="6.82067">
        <ele>1366.8</ele>
        <time>2022-03-06T09:36:53Z</time>
      </trkpt>
      <trkpt lat="46.26028" lon="6.82069">
        <ele>1366.8</ele>
        <time>2022-03-06T09:36:54Z</time>
      </trkpt>
      <trkpt lat="46.26028" lon="6.82069">
        <ele>1367</ele>
        <time>2022-03-06T09:36:55Z</time>
      </trkpt>
      <trkpt lat="46.26029" lon="6.8207">
        <ele>1366.8</ele>
        <time>2022-03-06T09:36:56Z</time>
      </trkpt>
      <trkpt lat="46.26029" lon="6.82072">
        <ele>1367</ele>
        <time>2022-03-06T09:36:57Z</time>
      </trkpt>
      <trkpt lat="46.26029" lon="6.82074">
        <ele>1367</ele>
        <time>2022-03-06T09:36:58Z</time>
      </trkpt>
      <trkpt lat="46.2603" lon="6.82075">
        <ele>1367</ele>
        <time>2022-03-06T09:36:59Z</time>
      </trkpt>
      <trkpt lat="46.26031" lon="6.82076">
        <ele>1367</ele>
        <time>2022-03-06T09:37:00Z</time>
      </trkpt>
      <trkpt lat="46.26031" lon="6.82077">
        <ele>1367</ele>
        <time>2022-03-06T09:37:01Z</time>
      </trkpt>
      <trkpt lat="46.26032" lon="6.82079">
        <ele>1366.8</ele>
        <time>2022-03-06T09:37:02Z</time>
      </trkpt>
      <trkpt lat="46.26031" lon="6.82082">
        <ele>1367</ele>
        <time>2022-03-06T09:37:03Z</time>
      </trkpt>
      <trkpt lat="46.2603" lon="6.82084">
        <ele>1367</ele>
        <time>2022-03-06T09:37:04Z</time>
      </trkpt>
      <trkpt lat="46.26033" lon="6.82089">
        <ele>1367</ele>
        <time>2022-03-06T09:37:07Z</time>
      </trkpt>
      <trkpt lat="46.26033" lon="6.82091">
        <ele>1366.8</ele>
        <time>2022-03-06T09:37:08Z</time>
      </trkpt>
      <trkpt lat="46.26034" lon="6.82093">
        <ele>1366.8</ele>
        <time>2022-03-06T09:37:09Z</time>
      </trkpt>
      <trkpt lat="46.26034" lon="6.82095">
        <ele>1367</ele>
        <time>2022-03-06T09:37:10Z</time>
      </trkpt>
      <trkpt lat="46.26037" lon="6.821">
        <ele>1367</ele>
        <time>2022-03-06T09:37:13Z</time>
      </trkpt>
      <trkpt lat="46.26037" lon="6.82101">
        <ele>1366.8</ele>
        <time>2022-03-06T09:37:14Z</time>
      </trkpt>
      <trkpt lat="46.26038" lon="6.82102">
        <ele>1367</ele>
        <time>2022-03-06T09:37:15Z</time>
      </trkpt>
      <trkpt lat="46.26039" lon="6.82103">
        <ele>1366.8</ele>
        <time>2022-03-06T09:37:16Z</time>
      </trkpt>
      <trkpt lat="46.2604" lon="6.82104">
        <ele>1367</ele>
        <time>2022-03-06T09:37:17Z</time>
      </trkpt>
      <trkpt lat="46.26041" lon="6.82106">
        <ele>1367</ele>
        <time>2022-03-06T09:37:18Z</time>
      </trkpt>
      <trkpt lat="46.26041" lon="6.82107">
        <ele>1367</ele>
        <time>2022-03-06T09:37:19Z</time>
      </trkpt>
      <trkpt lat="46.26043" lon="6.82111">
        <ele>1367</ele>
        <time>2022-03-06T09:37:21Z</time>
      </trkpt>
      <trkpt lat="46.26044" lon="6.82111">
        <ele>1367.2</ele>
        <time>2022-03-06T09:37:22Z</time>
      </trkpt>
      <trkpt lat="46.26045" lon="6.82111">
        <ele>1367.4</ele>
        <time>2022-03-06T09:37:23Z</time>
      </trkpt>
      <trkpt lat="46.26046" lon="6.82112">
        <ele>1367.4</ele>
        <time>2022-03-06T09:37:24Z</time>
      </trkpt>
      <trkpt lat="46.26046" lon="6.82113">
        <ele>1367.6</ele>
        <time>2022-03-06T09:37:25Z</time>
      </trkpt>
      <trkpt lat="46.26047" lon="6.82115">
        <ele>1367.6</ele>
        <time>2022-03-06T09:37:26Z</time>
      </trkpt>
      <trkpt lat="46.26047" lon="6.82118">
        <ele>1367.6</ele>
        <time>2022-03-06T09:37:27Z</time>
      </trkpt>
      <trkpt lat="46.26048" lon="6.82119">
        <ele>1367.8</ele>
        <time>2022-03-06T09:37:28Z</time>
      </trkpt>
      <trkpt lat="46.26048" lon="6.8212">
        <ele>1368</ele>
        <time>2022-03-06T09:37:29Z</time>
      </trkpt>
      <trkpt lat="46.26049" lon="6.8212">
        <ele>1368</ele>
        <time>2022-03-06T09:37:30Z</time>
      </trkpt>
      <trkpt lat="46.26049" lon="6.8212">
        <ele>1368.2</ele>
        <time>2022-03-06T09:37:31Z</time>
      </trkpt>
      <trkpt lat="46.26049" lon="6.8212">
        <ele>1368.2</ele>
        <time>2022-03-06T09:37:32Z</time>
      </trkpt>
      <trkpt lat="46.26049" lon="6.82121">
        <ele>1368.2</ele>
        <time>2022-03-06T09:37:33Z</time>
      </trkpt>
      <trkpt lat="46.26048" lon="6.82122">
        <ele>1368.2</ele>
        <time>2022-03-06T09:37:34Z</time>
      </trkpt>
      <trkpt lat="46.26047" lon="6.82124">
        <ele>1368.2</ele>
        <time>2022-03-06T09:37:35Z</time>
      </trkpt>
      <trkpt lat="46.26047" lon="6.82126">
        <ele>1368.2</ele>
        <time>2022-03-06T09:37:36Z</time>
      </trkpt>
      <trkpt lat="46.26046" lon="6.82128">
        <ele>1368.4</ele>
        <time>2022-03-06T09:37:37Z</time>
      </trkpt>
      <trkpt lat="46.26046" lon="6.8213">
        <ele>1368.4</ele>
        <time>2022-03-06T09:37:38Z</time>
      </trkpt>
      <trkpt lat="46.26046" lon="6.82131">
        <ele>1368.6</ele>
        <time>2022-03-06T09:37:39Z</time>
      </trkpt>
      <trkpt lat="46.26046" lon="6.82132">
        <ele>1368.6</ele>
        <time>2022-03-06T09:37:40Z</time>
      </trkpt>
      <trkpt lat="46.26046" lon="6.82134">
        <ele>1369</ele>
        <time>2022-03-06T09:37:41Z</time>
      </trkpt>
      <trkpt lat="46.26046" lon="6.82135">
        <ele>1369.2</ele>
        <time>2022-03-06T09:37:42Z</time>
      </trkpt>
      <trkpt lat="46.26046" lon="6.82137">
        <ele>1369.2</ele>
        <time>2022-03-06T09:37:43Z</time>
      </trkpt>
      <trkpt lat="46.26046" lon="6.82139">
        <ele>1369.4</ele>
        <time>2022-03-06T09:37:44Z</time>
      </trkpt>
      <trkpt lat="46.26046" lon="6.8214">
        <ele>1369.6</ele>
        <time>2022-03-06T09:37:45Z</time>
      </trkpt>
      <trkpt lat="46.26047" lon="6.82142">
        <ele>1369.6</ele>
        <time>2022-03-06T09:37:46Z</time>
      </trkpt>
      <trkpt lat="46.26047" lon="6.82143">
        <ele>1369.8</ele>
        <time>2022-03-06T09:37:47Z</time>
      </trkpt>
      <trkpt lat="46.26047" lon="6.82146">
        <ele>1369.8</ele>
        <time>2022-03-06T09:37:48Z</time>
      </trkpt>
      <trkpt lat="46.26047" lon="6.82148">
        <ele>1370</ele>
        <time>2022-03-06T09:37:49Z</time>
      </trkpt>
      <trkpt lat="46.26047" lon="6.8215">
        <ele>1370</ele>
        <time>2022-03-06T09:37:50Z</time>
      </trkpt>
      <trkpt lat="46.26048" lon="6.82152">
        <ele>1370.2</ele>
        <time>2022-03-06T09:37:51Z</time>
      </trkpt>
      <trkpt lat="46.26048" lon="6.82154">
        <ele>1370.2</ele>
        <time>2022-03-06T09:37:52Z</time>
      </trkpt>
      <trkpt lat="46.26048" lon="6.82156">
        <ele>1370.2</ele>
        <time>2022-03-06T09:37:53Z</time>
      </trkpt>
      <trkpt lat="46.26048" lon="6.82157">
        <ele>1370.4</ele>
        <time>2022-03-06T09:37:54Z</time>
      </trkpt>
      <trkpt lat="46.26048" lon="6.82159">
        <ele>1370.4</ele>
        <time>2022-03-06T09:37:55Z</time>
      </trkpt>
      <trkpt lat="46.26048" lon="6.8216">
        <ele>1370.4</ele>
        <time>2022-03-06T09:37:56Z</time>
      </trkpt>
      <trkpt lat="46.26049" lon="6.82161">
        <ele>1370.6</ele>
        <time>2022-03-06T09:37:57Z</time>
      </trkpt>
      <trkpt lat="46.26048" lon="6.82162">
        <ele>1370.8</ele>
        <time>2022-03-06T09:37:58Z</time>
      </trkpt>
      <trkpt lat="46.26048" lon="6.82164">
        <ele>1370.8</ele>
        <time>2022-03-06T09:37:59Z</time>
      </trkpt>
      <trkpt lat="46.26048" lon="6.82164">
        <ele>1371</ele>
        <time>2022-03-06T09:38:00Z</time>
      </trkpt>
      <trkpt lat="46.26048" lon="6.82165">
        <ele>1370.8</ele>
        <time>2022-03-06T09:38:01Z</time>
      </trkpt>
      <trkpt lat="46.26047" lon="6.82167">
        <ele>1371</ele>
        <time>2022-03-06T09:38:02Z</time>
      </trkpt>
      <trkpt lat="46.26047" lon="6.82169">
        <ele>1371</ele>
        <time>2022-03-06T09:38:03Z</time>
      </trkpt>
      <trkpt lat="46.26047" lon="6.82171">
        <ele>1371.2</ele>
        <time>2022-03-06T09:38:04Z</time>
      </trkpt>
      <trkpt lat="46.26047" lon="6.82173">
        <ele>1371.2</ele>
        <time>2022-03-06T09:38:05Z</time>
      </trkpt>
      <trkpt lat="46.26047" lon="6.82174">
        <ele>1371.4</ele>
        <time>2022-03-06T09:38:06Z</time>
      </trkpt>
      <trkpt lat="46.26047" lon="6.82175">
        <ele>1371.4</ele>
        <time>2022-03-06T09:38:07Z</time>
      </trkpt>
      <trkpt lat="46.26047" lon="6.82177">
        <ele>1371.6</ele>
        <time>2022-03-06T09:38:08Z</time>
      </trkpt>
      <trkpt lat="46.26048" lon="6.82179">
        <ele>1371.8</ele>
        <time>2022-03-06T09:38:09Z</time>
      </trkpt>
      <trkpt lat="46.26048" lon="6.82181">
        <ele>1372</ele>
        <time>2022-03-06T09:38:10Z</time>
      </trkpt>
      <trkpt lat="46.26048" lon="6.82183">
        <ele>1372</ele>
        <time>2022-03-06T09:38:11Z</time>
      </trkpt>
      <trkpt lat="46.26049" lon="6.82185">
        <ele>1372.2</ele>
        <time>2022-03-06T09:38:12Z</time>
      </trkpt>
      <trkpt lat="46.2605" lon="6.82186">
        <ele>1372.4</ele>
        <time>2022-03-06T09:38:13Z</time>
      </trkpt>
      <trkpt lat="46.2605" lon="6.82188">
        <ele>1372.4</ele>
        <time>2022-03-06T09:38:14Z</time>
      </trkpt>
      <trkpt lat="46.2605" lon="6.82189">
        <ele>1372.6</ele>
        <time>2022-03-06T09:38:15Z</time>
      </trkpt>
      <trkpt lat="46.26049" lon="6.8219">
        <ele>1372.4</ele>
        <time>2022-03-06T09:38:16Z</time>
      </trkpt>
      <trkpt lat="46.2605" lon="6.82192">
        <ele>1372.6</ele>
        <time>2022-03-06T09:38:17Z</time>
      </trkpt>
      <trkpt lat="46.26049" lon="6.82193">
        <ele>1372.6</ele>
        <time>2022-03-06T09:38:18Z</time>
      </trkpt>
      <trkpt lat="46.26049" lon="6.82194">
        <ele>1372.8</ele>
        <time>2022-03-06T09:38:19Z</time>
      </trkpt>
      <trkpt lat="46.26049" lon="6.82195">
        <ele>1373</ele>
        <time>2022-03-06T09:38:20Z</time>
      </trkpt>
      <trkpt lat="46.26049" lon="6.82196">
        <ele>1373</ele>
        <time>2022-03-06T09:38:21Z</time>
      </trkpt>
      <trkpt lat="46.2605" lon="6.82197">
        <ele>1373.2</ele>
        <time>2022-03-06T09:38:22Z</time>
      </trkpt>
      <trkpt lat="46.2605" lon="6.82199">
        <ele>1373.4</ele>
        <time>2022-03-06T09:38:23Z</time>
      </trkpt>
      <trkpt lat="46.26051" lon="6.82201">
        <ele>1373.6</ele>
        <time>2022-03-06T09:38:24Z</time>
      </trkpt>
      <trkpt lat="46.26051" lon="6.82203">
        <ele>1373.8</ele>
        <time>2022-03-06T09:38:25Z</time>
      </trkpt>
      <trkpt lat="46.26052" lon="6.82206">
        <ele>1373.8</ele>
        <time>2022-03-06T09:38:26Z</time>
      </trkpt>
      <trkpt lat="46.26052" lon="6.82207">
        <ele>1374.2</ele>
        <time>2022-03-06T09:38:27Z</time>
      </trkpt>
      <trkpt lat="46.26052" lon="6.82208">
        <ele>1374.2</ele>
        <time>2022-03-06T09:38:28Z</time>
      </trkpt>
      <trkpt lat="46.26053" lon="6.8221">
        <ele>1374.4</ele>
        <time>2022-03-06T09:38:29Z</time>
      </trkpt>
      <trkpt lat="46.26054" lon="6.82211">
        <ele>1374.6</ele>
        <time>2022-03-06T09:38:30Z</time>
      </trkpt>
      <trkpt lat="46.26054" lon="6.82212">
        <ele>1374.8</ele>
        <time>2022-03-06T09:38:31Z</time>
      </trkpt>
      <trkpt lat="46.26055" lon="6.82213">
        <ele>1375</ele>
        <time>2022-03-06T09:38:32Z</time>
      </trkpt>
      <trkpt lat="46.26055" lon="6.82214">
        <ele>1375.2</ele>
        <time>2022-03-06T09:38:33Z</time>
      </trkpt>
      <trkpt lat="46.26056" lon="6.82215">
        <ele>1375</ele>
        <time>2022-03-06T09:38:34Z</time>
      </trkpt>
      <trkpt lat="46.26057" lon="6.82215">
        <ele>1375.2</ele>
        <time>2022-03-06T09:38:35Z</time>
      </trkpt>
      <trkpt lat="46.26057" lon="6.82216">
        <ele>1375.2</ele>
        <time>2022-03-06T09:38:36Z</time>
      </trkpt>
      <trkpt lat="46.26058" lon="6.82217">
        <ele>1375.2</ele>
        <time>2022-03-06T09:38:37Z</time>
      </trkpt>
      <trkpt lat="46.26059" lon="6.82218">
        <ele>1375.2</ele>
        <time>2022-03-06T09:38:38Z</time>
      </trkpt>
      <trkpt lat="46.2606" lon="6.82219">
        <ele>1375.4</ele>
        <time>2022-03-06T09:38:39Z</time>
      </trkpt>
      <trkpt lat="46.2606" lon="6.8222">
        <ele>1375.6</ele>
        <time>2022-03-06T09:38:40Z</time>
      </trkpt>
      <trkpt lat="46.2606" lon="6.82221">
        <ele>1375.8</ele>
        <time>2022-03-06T09:38:41Z</time>
      </trkpt>
      <trkpt lat="46.26061" lon="6.82222">
        <ele>1376</ele>
        <time>2022-03-06T09:38:42Z</time>
      </trkpt>
      <trkpt lat="46.26061" lon="6.82223">
        <ele>1376</ele>
        <time>2022-03-06T09:38:43Z</time>
      </trkpt>
      <trkpt lat="46.26061" lon="6.82224">
        <ele>1376</ele>
        <time>2022-03-06T09:38:44Z</time>
      </trkpt>
      <trkpt lat="46.26062" lon="6.82225">
        <ele>1376</ele>
        <time>2022-03-06T09:38:45Z</time>
      </trkpt>
      <trkpt lat="46.26062" lon="6.82226">
        <ele>1376.2</ele>
        <time>2022-03-06T09:38:46Z</time>
      </trkpt>
      <trkpt lat="46.26063" lon="6.82227">
        <ele>1376.4</ele>
        <time>2022-03-06T09:38:47Z</time>
      </trkpt>
      <trkpt lat="46.26063" lon="6.82228">
        <ele>1376.4</ele>
        <time>2022-03-06T09:38:48Z</time>
      </trkpt>
      <trkpt lat="46.26064" lon="6.82229">
        <ele>1376.8</ele>
        <time>2022-03-06T09:38:49Z</time>
      </trkpt>
      <trkpt lat="46.26064" lon="6.82231">
        <ele>1376.8</ele>
        <time>2022-03-06T09:38:50Z</time>
      </trkpt>
      <trkpt lat="46.26064" lon="6.82232">
        <ele>1377.2</ele>
        <time>2022-03-06T09:38:51Z</time>
      </trkpt>
      <trkpt lat="46.26064" lon="6.82233">
        <ele>1377.4</ele>
        <time>2022-03-06T09:38:52Z</time>
      </trkpt>
      <trkpt lat="46.26064" lon="6.82234">
        <ele>1377.4</ele>
        <time>2022-03-06T09:38:53Z</time>
      </trkpt>
      <trkpt lat="46.26065" lon="6.82234">
        <ele>1377.4</ele>
        <time>2022-03-06T09:38:54Z</time>
      </trkpt>
      <trkpt lat="46.26066" lon="6.82236">
        <ele>1377.6</ele>
        <time>2022-03-06T09:38:55Z</time>
      </trkpt>
      <trkpt lat="46.26066" lon="6.82237">
        <ele>1377.8</ele>
        <time>2022-03-06T09:38:56Z</time>
      </trkpt>
      <trkpt lat="46.26066" lon="6.82238">
        <ele>1377.6</ele>
        <time>2022-03-06T09:38:57Z</time>
      </trkpt>
      <trkpt lat="46.26066" lon="6.82238">
        <ele>1377.8</ele>
        <time>2022-03-06T09:38:58Z</time>
      </trkpt>
      <trkpt lat="46.26066" lon="6.82239">
        <ele>1377.8</ele>
        <time>2022-03-06T09:38:59Z</time>
      </trkpt>
      <trkpt lat="46.26066" lon="6.82239">
        <ele>1377.8</ele>
        <time>2022-03-06T09:39:00Z</time>
      </trkpt>
      <trkpt lat="46.26066" lon="6.8224">
        <ele>1377.8</ele>
        <time>2022-03-06T09:39:01Z</time>
      </trkpt>
      <trkpt lat="46.26066" lon="6.8224">
        <ele>1378</ele>
        <time>2022-03-06T09:39:02Z</time>
      </trkpt>
      <trkpt lat="46.26065" lon="6.82247">
        <ele>1379.4</ele>
        <time>2022-03-06T09:39:14Z</time>
      </trkpt>
      <trkpt lat="46.26065" lon="6.82249">
        <ele>1379.4</ele>
        <time>2022-03-06T09:39:17Z</time>
      </trkpt>
      <trkpt lat="46.26066" lon="6.82253">
        <ele>1379.4</ele>
        <time>2022-03-06T09:39:25Z</time>
      </trkpt>
      <trkpt lat="46.26069" lon="6.82247">
        <ele>1379.4</ele>
        <time>2022-03-06T09:39:39Z</time>
      </trkpt>
      <trkpt lat="46.2607" lon="6.82245">
        <ele>1379.4</ele>
        <time>2022-03-06T09:39:43Z</time>
      </trkpt>
      <trkpt lat="46.26071" lon="6.82244">
        <ele>1379.4</ele>
        <time>2022-03-06T09:39:55Z</time>
      </trkpt>
      <trkpt lat="46.26071" lon="6.82245">
        <ele>1379.4</ele>
        <time>2022-03-06T09:40:00Z</time>
      </trkpt>
      <trkpt lat="46.26071" lon="6.82247">
        <ele>1379.6</ele>
        <time>2022-03-06T09:40:10Z</time>
      </trkpt>
      <trkpt lat="46.26071" lon="6.8225">
        <ele>1379.8</ele>
        <time>2022-03-06T09:40:13Z</time>
      </trkpt>
      <trkpt lat="46.26071" lon="6.82252">
        <ele>1379.8</ele>
        <time>2022-03-06T09:40:16Z</time>
      </trkpt>
      <trkpt lat="46.26071" lon="6.82253">
        <ele>1380</ele>
        <time>2022-03-06T09:40:17Z</time>
      </trkpt>
      <trkpt lat="46.2607" lon="6.82254">
        <ele>1379.8</ele>
        <time>2022-03-06T09:40:18Z</time>
      </trkpt>
      <trkpt lat="46.2607" lon="6.82254">
        <ele>1380</ele>
        <time>2022-03-06T09:40:19Z</time>
      </trkpt>
      <trkpt lat="46.2607" lon="6.82254">
        <ele>1379.8</ele>
        <time>2022-03-06T09:40:20Z</time>
      </trkpt>
      <trkpt lat="46.26073" lon="6.82255">
        <ele>1380</ele>
        <time>2022-03-06T09:40:24Z</time>
      </trkpt>
      <trkpt lat="46.26075" lon="6.82255">
        <ele>1380</ele>
        <time>2022-03-06T09:40:32Z</time>
      </trkpt>
      <trkpt lat="46.26075" lon="6.82255">
        <ele>1380</ele>
        <time>2022-03-06T09:40:38Z</time>
      </trkpt>
      <trkpt lat="46.26076" lon="6.82255">
        <ele>1380</ele>
        <time>2022-03-06T09:40:43Z</time>
      </trkpt>
      <trkpt lat="46.26077" lon="6.82261">
        <ele>1380</ele>
        <time>2022-03-06T09:40:49Z</time>
      </trkpt>
      <trkpt lat="46.26077" lon="6.82262">
        <ele>1380.2</ele>
        <time>2022-03-06T09:40:50Z</time>
      </trkpt>
      <trkpt lat="46.26077" lon="6.82263">
        <ele>1380</ele>
        <time>2022-03-06T09:40:51Z</time>
      </trkpt>
      <trkpt lat="46.26077" lon="6.82266">
        <ele>1380</ele>
        <time>2022-03-06T09:40:53Z</time>
      </trkpt>
      <trkpt lat="46.26077" lon="6.82273">
        <ele>1380.2</ele>
        <time>2022-03-06T09:40:59Z</time>
      </trkpt>
      <trkpt lat="46.26077" lon="6.82274">
        <ele>1380.4</ele>
        <time>2022-03-06T09:41:00Z</time>
      </trkpt>
      <trkpt lat="46.26077" lon="6.82275">
        <ele>1380.6</ele>
        <time>2022-03-06T09:41:01Z</time>
      </trkpt>
      <trkpt lat="46.26077" lon="6.82277">
        <ele>1380.6</ele>
        <time>2022-03-06T09:41:02Z</time>
      </trkpt>
      <trkpt lat="46.26077" lon="6.82278">
        <ele>1380.8</ele>
        <time>2022-03-06T09:41:03Z</time>
      </trkpt>
      <trkpt lat="46.26077" lon="6.8228">
        <ele>1380.8</ele>
        <time>2022-03-06T09:41:04Z</time>
      </trkpt>
      <trkpt lat="46.26077" lon="6.82281">
        <ele>1381</ele>
        <time>2022-03-06T09:41:05Z</time>
      </trkpt>
      <trkpt lat="46.26078" lon="6.82283">
        <ele>1381</ele>
        <time>2022-03-06T09:41:06Z</time>
      </trkpt>
      <trkpt lat="46.26079" lon="6.82285">
        <ele>1381.2</ele>
        <time>2022-03-06T09:41:07Z</time>
      </trkpt>
      <trkpt lat="46.26079" lon="6.82286">
        <ele>1381.4</ele>
        <time>2022-03-06T09:41:08Z</time>
      </trkpt>
      <trkpt lat="46.26079" lon="6.82288">
        <ele>1381.4</ele>
        <time>2022-03-06T09:41:09Z</time>
      </trkpt>
      <trkpt lat="46.2608" lon="6.8229">
        <ele>1381.6</ele>
        <time>2022-03-06T09:41:10Z</time>
      </trkpt>
      <trkpt lat="46.2608" lon="6.82292">
        <ele>1381.6</ele>
        <time>2022-03-06T09:41:11Z</time>
      </trkpt>
      <trkpt lat="46.26081" lon="6.82293">
        <ele>1381.8</ele>
        <time>2022-03-06T09:41:12Z</time>
      </trkpt>
      <trkpt lat="46.26081" lon="6.82295">
        <ele>1381.6</ele>
        <time>2022-03-06T09:41:13Z</time>
      </trkpt>
      <trkpt lat="46.26082" lon="6.82297">
        <ele>1381.8</ele>
        <time>2022-03-06T09:41:14Z</time>
      </trkpt>
      <trkpt lat="46.26083" lon="6.82298">
        <ele>1381.8</ele>
        <time>2022-03-06T09:41:15Z</time>
      </trkpt>
      <trkpt lat="46.26083" lon="6.823">
        <ele>1382</ele>
        <time>2022-03-06T09:41:16Z</time>
      </trkpt>
      <trkpt lat="46.26084" lon="6.82301">
        <ele>1382</ele>
        <time>2022-03-06T09:41:17Z</time>
      </trkpt>
      <trkpt lat="46.26084" lon="6.82304">
        <ele>1382</ele>
        <time>2022-03-06T09:41:18Z</time>
      </trkpt>
      <trkpt lat="46.26084" lon="6.82305">
        <ele>1382</ele>
        <time>2022-03-06T09:41:19Z</time>
      </trkpt>
      <trkpt lat="46.26084" lon="6.82307">
        <ele>1382.2</ele>
        <time>2022-03-06T09:41:20Z</time>
      </trkpt>
      <trkpt lat="46.26084" lon="6.82309">
        <ele>1382.2</ele>
        <time>2022-03-06T09:41:21Z</time>
      </trkpt>
      <trkpt lat="46.26085" lon="6.82311">
        <ele>1382.2</ele>
        <time>2022-03-06T09:41:22Z</time>
      </trkpt>
      <trkpt lat="46.26085" lon="6.82312">
        <ele>1382.4</ele>
        <time>2022-03-06T09:41:23Z</time>
      </trkpt>
      <trkpt lat="46.26085" lon="6.82313">
        <ele>1382.4</ele>
        <time>2022-03-06T09:41:24Z</time>
      </trkpt>
      <trkpt lat="46.26085" lon="6.82314">
        <ele>1382.6</ele>
        <time>2022-03-06T09:41:25Z</time>
      </trkpt>
      <trkpt lat="46.26086" lon="6.82315">
        <ele>1382.6</ele>
        <time>2022-03-06T09:41:26Z</time>
      </trkpt>
      <trkpt lat="46.26085" lon="6.82317">
        <ele>1382.8</ele>
        <time>2022-03-06T09:41:27Z</time>
      </trkpt>
      <trkpt lat="46.26085" lon="6.82318">
        <ele>1382.8</ele>
        <time>2022-03-06T09:41:28Z</time>
      </trkpt>
      <trkpt lat="46.26085" lon="6.82319">
        <ele>1382.8</ele>
        <time>2022-03-06T09:41:29Z</time>
      </trkpt>
      <trkpt lat="46.26085" lon="6.82321">
        <ele>1383</ele>
        <time>2022-03-06T09:41:30Z</time>
      </trkpt>
      <trkpt lat="46.26085" lon="6.82322">
        <ele>1383.2</ele>
        <time>2022-03-06T09:41:31Z</time>
      </trkpt>
      <trkpt lat="46.26086" lon="6.82324">
        <ele>1383.4</ele>
        <time>2022-03-06T09:41:32Z</time>
      </trkpt>
      <trkpt lat="46.26086" lon="6.82325">
        <ele>1383.6</ele>
        <time>2022-03-06T09:41:33Z</time>
      </trkpt>
      <trkpt lat="46.26086" lon="6.82326">
        <ele>1383.6</ele>
        <time>2022-03-06T09:41:34Z</time>
      </trkpt>
      <trkpt lat="46.26086" lon="6.82328">
        <ele>1383.8</ele>
        <time>2022-03-06T09:41:35Z</time>
      </trkpt>
      <trkpt lat="46.26087" lon="6.82329">
        <ele>1383.8</ele>
        <time>2022-03-06T09:41:36Z</time>
      </trkpt>
      <trkpt lat="46.26087" lon="6.8233">
        <ele>1384</ele>
        <time>2022-03-06T09:41:37Z</time>
      </trkpt>
      <trkpt lat="46.26088" lon="6.82331">
        <ele>1384.2</ele>
        <time>2022-03-06T09:41:38Z</time>
      </trkpt>
      <trkpt lat="46.26088" lon="6.82332">
        <ele>1384.2</ele>
        <time>2022-03-06T09:41:39Z</time>
      </trkpt>
      <trkpt lat="46.26089" lon="6.82334">
        <ele>1384.4</ele>
        <time>2022-03-06T09:41:40Z</time>
      </trkpt>
      <trkpt lat="46.26089" lon="6.82336">
        <ele>1384.6</ele>
        <time>2022-03-06T09:41:41Z</time>
      </trkpt>
      <trkpt lat="46.2609" lon="6.82338">
        <ele>1384.8</ele>
        <time>2022-03-06T09:41:42Z</time>
      </trkpt>
      <trkpt lat="46.26091" lon="6.8234">
        <ele>1385</ele>
        <time>2022-03-06T09:41:43Z</time>
      </trkpt>
      <trkpt lat="46.26092" lon="6.82341">
        <ele>1385.4</ele>
        <time>2022-03-06T09:41:44Z</time>
      </trkpt>
      <trkpt lat="46.26092" lon="6.82343">
        <ele>1385.4</ele>
        <time>2022-03-06T09:41:45Z</time>
      </trkpt>
      <trkpt lat="46.26092" lon="6.82344">
        <ele>1385.6</ele>
        <time>2022-03-06T09:41:46Z</time>
      </trkpt>
      <trkpt lat="46.26091" lon="6.82346">
        <ele>1385.6</ele>
        <time>2022-03-06T09:41:47Z</time>
      </trkpt>
      <trkpt lat="46.26091" lon="6.82348">
        <ele>1386</ele>
        <time>2022-03-06T09:41:48Z</time>
      </trkpt>
      <trkpt lat="46.2609" lon="6.8235">
        <ele>1386.2</ele>
        <time>2022-03-06T09:41:49Z</time>
      </trkpt>
      <trkpt lat="46.2609" lon="6.82352">
        <ele>1386.2</ele>
        <time>2022-03-06T09:41:50Z</time>
      </trkpt>
      <trkpt lat="46.2609" lon="6.82353">
        <ele>1386.4</ele>
        <time>2022-03-06T09:41:51Z</time>
      </trkpt>
      <trkpt lat="46.26091" lon="6.82354">
        <ele>1386.6</ele>
        <time>2022-03-06T09:41:52Z</time>
      </trkpt>
      <trkpt lat="46.26091" lon="6.82355">
        <ele>1386.8</ele>
        <time>2022-03-06T09:41:53Z</time>
      </trkpt>
      <trkpt lat="46.26091" lon="6.82356">
        <ele>1387</ele>
        <time>2022-03-06T09:41:54Z</time>
      </trkpt>
      <trkpt lat="46.26091" lon="6.82357">
        <ele>1387</ele>
        <time>2022-03-06T09:41:55Z</time>
      </trkpt>
      <trkpt lat="46.2609" lon="6.82358">
        <ele>1387.2</ele>
        <time>2022-03-06T09:41:56Z</time>
      </trkpt>
      <trkpt lat="46.26091" lon="6.82359">
        <ele>1387.4</ele>
        <time>2022-03-06T09:41:57Z</time>
      </trkpt>
      <trkpt lat="46.26091" lon="6.8236">
        <ele>1387.6</ele>
        <time>2022-03-06T09:41:58Z</time>
      </trkpt>
      <trkpt lat="46.26091" lon="6.82361">
        <ele>1387.6</ele>
        <time>2022-03-06T09:41:59Z</time>
      </trkpt>
      <trkpt lat="46.26091" lon="6.82362">
        <ele>1387.6</ele>
        <time>2022-03-06T09:42:00Z</time>
      </trkpt>
      <trkpt lat="46.26091" lon="6.82363">
        <ele>1387.8</ele>
        <time>2022-03-06T09:42:01Z</time>
      </trkpt>
      <trkpt lat="46.26091" lon="6.82364">
        <ele>1388</ele>
        <time>2022-03-06T09:42:02Z</time>
      </trkpt>
      <trkpt lat="46.26091" lon="6.82365">
        <ele>1388.2</ele>
        <time>2022-03-06T09:42:03Z</time>
      </trkpt>
      <trkpt lat="46.26091" lon="6.82366">
        <ele>1388.4</ele>
        <time>2022-03-06T09:42:04Z</time>
      </trkpt>
      <trkpt lat="46.26091" lon="6.82368">
        <ele>1388.8</ele>
        <time>2022-03-06T09:42:05Z</time>
      </trkpt>
      <trkpt lat="46.26091" lon="6.82368">
        <ele>1389</ele>
        <time>2022-03-06T09:42:06Z</time>
      </trkpt>
      <trkpt lat="46.26091" lon="6.8237">
        <ele>1389.2</ele>
        <time>2022-03-06T09:42:07Z</time>
      </trkpt>
      <trkpt lat="46.26091" lon="6.8237">
        <ele>1389.2</ele>
        <time>2022-03-06T09:42:08Z</time>
      </trkpt>
      <trkpt lat="46.26091" lon="6.82371">
        <ele>1389.2</ele>
        <time>2022-03-06T09:42:09Z</time>
      </trkpt>
      <trkpt lat="46.26091" lon="6.82372">
        <ele>1389.4</ele>
        <time>2022-03-06T09:42:10Z</time>
      </trkpt>
      <trkpt lat="46.2609" lon="6.82373">
        <ele>1389.8</ele>
        <time>2022-03-06T09:42:11Z</time>
      </trkpt>
      <trkpt lat="46.2609" lon="6.82374">
        <ele>1389.8</ele>
        <time>2022-03-06T09:42:12Z</time>
      </trkpt>
      <trkpt lat="46.2609" lon="6.82375">
        <ele>1390</ele>
        <time>2022-03-06T09:42:13Z</time>
      </trkpt>
      <trkpt lat="46.2609" lon="6.82376">
        <ele>1390.2</ele>
        <time>2022-03-06T09:42:14Z</time>
      </trkpt>
      <trkpt lat="46.26091" lon="6.82377">
        <ele>1390.4</ele>
        <time>2022-03-06T09:42:15Z</time>
      </trkpt>
      <trkpt lat="46.26091" lon="6.82378">
        <ele>1390.4</ele>
        <time>2022-03-06T09:42:16Z</time>
      </trkpt>
      <trkpt lat="46.26091" lon="6.8238">
        <ele>1390.6</ele>
        <time>2022-03-06T09:42:17Z</time>
      </trkpt>
      <trkpt lat="46.26092" lon="6.82381">
        <ele>1390.8</ele>
        <time>2022-03-06T09:42:18Z</time>
      </trkpt>
      <trkpt lat="46.26092" lon="6.82382">
        <ele>1391</ele>
        <time>2022-03-06T09:42:19Z</time>
      </trkpt>
      <trkpt lat="46.26095" lon="6.82382">
        <ele>1391.4</ele>
        <time>2022-03-06T09:42:20Z</time>
      </trkpt>
      <trkpt lat="46.26097" lon="6.82383">
        <ele>1391.4</ele>
        <time>2022-03-06T09:42:21Z</time>
      </trkpt>
      <trkpt lat="46.26097" lon="6.82384">
        <ele>1391.6</ele>
        <time>2022-03-06T09:42:22Z</time>
      </trkpt>
      <trkpt lat="46.26097" lon="6.82386">
        <ele>1391.8</ele>
        <time>2022-03-06T09:42:23Z</time>
      </trkpt>
      <trkpt lat="46.26097" lon="6.82387">
        <ele>1391.8</ele>
        <time>2022-03-06T09:42:24Z</time>
      </trkpt>
      <trkpt lat="46.26097" lon="6.82388">
        <ele>1392</ele>
        <time>2022-03-06T09:42:25Z</time>
      </trkpt>
      <trkpt lat="46.26098" lon="6.8239">
        <ele>1392.4</ele>
        <time>2022-03-06T09:42:26Z</time>
      </trkpt>
      <trkpt lat="46.26098" lon="6.82391">
        <ele>1392.4</ele>
        <time>2022-03-06T09:42:27Z</time>
      </trkpt>
      <trkpt lat="46.26099" lon="6.82392">
        <ele>1392.6</ele>
        <time>2022-03-06T09:42:28Z</time>
      </trkpt>
      <trkpt lat="46.261" lon="6.82394">
        <ele>1392.8</ele>
        <time>2022-03-06T09:42:29Z</time>
      </trkpt>
      <trkpt lat="46.261" lon="6.82395">
        <ele>1392.8</ele>
        <time>2022-03-06T09:42:30Z</time>
      </trkpt>
      <trkpt lat="46.261" lon="6.82396">
        <ele>1392.8</ele>
        <time>2022-03-06T09:42:31Z</time>
      </trkpt>
      <trkpt lat="46.26101" lon="6.82397">
        <ele>1393</ele>
        <time>2022-03-06T09:42:32Z</time>
      </trkpt>
      <trkpt lat="46.261" lon="6.82399">
        <ele>1393.2</ele>
        <time>2022-03-06T09:42:33Z</time>
      </trkpt>
      <trkpt lat="46.261" lon="6.824">
        <ele>1393.4</ele>
        <time>2022-03-06T09:42:34Z</time>
      </trkpt>
      <trkpt lat="46.261" lon="6.82402">
        <ele>1393.6</ele>
        <time>2022-03-06T09:42:35Z</time>
      </trkpt>
      <trkpt lat="46.261" lon="6.82403">
        <ele>1394</ele>
        <time>2022-03-06T09:42:36Z</time>
      </trkpt>
      <trkpt lat="46.26099" lon="6.82403">
        <ele>1394.2</ele>
        <time>2022-03-06T09:42:37Z</time>
      </trkpt>
      <trkpt lat="46.26099" lon="6.82405">
        <ele>1394.4</ele>
        <time>2022-03-06T09:42:38Z</time>
      </trkpt>
      <trkpt lat="46.261" lon="6.82405">
        <ele>1394.6</ele>
        <time>2022-03-06T09:42:39Z</time>
      </trkpt>
      <trkpt lat="46.261" lon="6.82406">
        <ele>1394.8</ele>
        <time>2022-03-06T09:42:40Z</time>
      </trkpt>
      <trkpt lat="46.26101" lon="6.82407">
        <ele>1394.8</ele>
        <time>2022-03-06T09:42:41Z</time>
      </trkpt>
      <trkpt lat="46.26101" lon="6.82407">
        <ele>1395.2</ele>
        <time>2022-03-06T09:42:42Z</time>
      </trkpt>
      <trkpt lat="46.26102" lon="6.82408">
        <ele>1395.2</ele>
        <time>2022-03-06T09:42:43Z</time>
      </trkpt>
      <trkpt lat="46.26102" lon="6.82409">
        <ele>1395.4</ele>
        <time>2022-03-06T09:42:44Z</time>
      </trkpt>
      <trkpt lat="46.26102" lon="6.8241">
        <ele>1395.6</ele>
        <time>2022-03-06T09:42:45Z</time>
      </trkpt>
      <trkpt lat="46.26102" lon="6.82411">
        <ele>1395.8</ele>
        <time>2022-03-06T09:42:46Z</time>
      </trkpt>
      <trkpt lat="46.26103" lon="6.82412">
        <ele>1395.8</ele>
        <time>2022-03-06T09:42:47Z</time>
      </trkpt>
      <trkpt lat="46.26103" lon="6.82413">
        <ele>1396.2</ele>
        <time>2022-03-06T09:42:48Z</time>
      </trkpt>
      <trkpt lat="46.26103" lon="6.82414">
        <ele>1396.4</ele>
        <time>2022-03-06T09:42:49Z</time>
      </trkpt>
      <trkpt lat="46.26103" lon="6.82415">
        <ele>1396.6</ele>
        <time>2022-03-06T09:42:50Z</time>
      </trkpt>
      <trkpt lat="46.26102" lon="6.82417">
        <ele>1396.8</ele>
        <time>2022-03-06T09:42:51Z</time>
      </trkpt>
      <trkpt lat="46.26102" lon="6.82418">
        <ele>1396.8</ele>
        <time>2022-03-06T09:42:52Z</time>
      </trkpt>
      <trkpt lat="46.26102" lon="6.8242">
        <ele>1396.8</ele>
        <time>2022-03-06T09:42:53Z</time>
      </trkpt>
      <trkpt lat="46.26103" lon="6.82421">
        <ele>1397.2</ele>
        <time>2022-03-06T09:42:54Z</time>
      </trkpt>
      <trkpt lat="46.26103" lon="6.82423">
        <ele>1397.6</ele>
        <time>2022-03-06T09:42:55Z</time>
      </trkpt>
      <trkpt lat="46.26103" lon="6.82424">
        <ele>1397.6</ele>
        <time>2022-03-06T09:42:56Z</time>
      </trkpt>
      <trkpt lat="46.26104" lon="6.82425">
        <ele>1397.8</ele>
        <time>2022-03-06T09:42:57Z</time>
      </trkpt>
      <trkpt lat="46.26104" lon="6.82426">
        <ele>1398</ele>
        <time>2022-03-06T09:42:58Z</time>
      </trkpt>
      <trkpt lat="46.26105" lon="6.82427">
        <ele>1398</ele>
        <time>2022-03-06T09:42:59Z</time>
      </trkpt>
      <trkpt lat="46.26105" lon="6.82428">
        <ele>1398.4</ele>
        <time>2022-03-06T09:43:00Z</time>
      </trkpt>
      <trkpt lat="46.26105" lon="6.82429">
        <ele>1398.6</ele>
        <time>2022-03-06T09:43:01Z</time>
      </trkpt>
      <trkpt lat="46.26105" lon="6.8243">
        <ele>1398.8</ele>
        <time>2022-03-06T09:43:02Z</time>
      </trkpt>
      <trkpt lat="46.26104" lon="6.82431">
        <ele>1399</ele>
        <time>2022-03-06T09:43:03Z</time>
      </trkpt>
      <trkpt lat="46.26104" lon="6.82432">
        <ele>1399.2</ele>
        <time>2022-03-06T09:43:04Z</time>
      </trkpt>
      <trkpt lat="46.26103" lon="6.82434">
        <ele>1399.4</ele>
        <time>2022-03-06T09:43:05Z</time>
      </trkpt>
      <trkpt lat="46.26103" lon="6.82435">
        <ele>1399.6</ele>
        <time>2022-03-06T09:43:06Z</time>
      </trkpt>
      <trkpt lat="46.26102" lon="6.82436">
        <ele>1400</ele>
        <time>2022-03-06T09:43:07Z</time>
      </trkpt>
      <trkpt lat="46.26101" lon="6.82438">
        <ele>1400</ele>
        <time>2022-03-06T09:43:08Z</time>
      </trkpt>
      <trkpt lat="46.26101" lon="6.82439">
        <ele>1400.4</ele>
        <time>2022-03-06T09:43:09Z</time>
      </trkpt>
      <trkpt lat="46.26101" lon="6.82441">
        <ele>1400.4</ele>
        <time>2022-03-06T09:43:10Z</time>
      </trkpt>
      <trkpt lat="46.26101" lon="6.82442">
        <ele>1400.4</ele>
        <time>2022-03-06T09:43:11Z</time>
      </trkpt>
      <trkpt lat="46.26101" lon="6.82444">
        <ele>1400.6</ele>
        <time>2022-03-06T09:43:12Z</time>
      </trkpt>
      <trkpt lat="46.261" lon="6.82445">
        <ele>1400.8</ele>
        <time>2022-03-06T09:43:13Z</time>
      </trkpt>
      <trkpt lat="46.261" lon="6.82446">
        <ele>1401</ele>
        <time>2022-03-06T09:43:14Z</time>
      </trkpt>
      <trkpt lat="46.261" lon="6.82447">
        <ele>1401</ele>
        <time>2022-03-06T09:43:15Z</time>
      </trkpt>
      <trkpt lat="46.26101" lon="6.82448">
        <ele>1401</ele>
        <time>2022-03-06T09:43:16Z</time>
      </trkpt>
      <trkpt lat="46.26103" lon="6.82449">
        <ele>1401.2</ele>
        <time>2022-03-06T09:43:17Z</time>
      </trkpt>
      <trkpt lat="46.26104" lon="6.8245">
        <ele>1401.2</ele>
        <time>2022-03-06T09:43:18Z</time>
      </trkpt>
      <trkpt lat="46.26105" lon="6.82452">
        <ele>1401.4</ele>
        <time>2022-03-06T09:43:19Z</time>
      </trkpt>
      <trkpt lat="46.26105" lon="6.82453">
        <ele>1401.4</ele>
        <time>2022-03-06T09:43:20Z</time>
      </trkpt>
      <trkpt lat="46.26106" lon="6.82454">
        <ele>1401.4</ele>
        <time>2022-03-06T09:43:21Z</time>
      </trkpt>
      <trkpt lat="46.26107" lon="6.82455">
        <ele>1401.6</ele>
        <time>2022-03-06T09:43:22Z</time>
      </trkpt>
      <trkpt lat="46.26108" lon="6.82456">
        <ele>1401.6</ele>
        <time>2022-03-06T09:43:23Z</time>
      </trkpt>
      <trkpt lat="46.26109" lon="6.82458">
        <ele>1401.8</ele>
        <time>2022-03-06T09:43:24Z</time>
      </trkpt>
      <trkpt lat="46.26109" lon="6.8246">
        <ele>1401.6</ele>
        <time>2022-03-06T09:43:25Z</time>
      </trkpt>
      <trkpt lat="46.26111" lon="6.82461">
        <ele>1401.8</ele>
        <time>2022-03-06T09:43:26Z</time>
      </trkpt>
      <trkpt lat="46.26112" lon="6.82462">
        <ele>1401.6</ele>
        <time>2022-03-06T09:43:27Z</time>
      </trkpt>
      <trkpt lat="46.26112" lon="6.82464">
        <ele>1401.6</ele>
        <time>2022-03-06T09:43:28Z</time>
      </trkpt>
      <trkpt lat="46.26111" lon="6.82465">
        <ele>1401.8</ele>
        <time>2022-03-06T09:43:29Z</time>
      </trkpt>
      <trkpt lat="46.26111" lon="6.82466">
        <ele>1401.8</ele>
        <time>2022-03-06T09:43:30Z</time>
      </trkpt>
      <trkpt lat="46.26111" lon="6.82466">
        <ele>1401.8</ele>
        <time>2022-03-06T09:43:31Z</time>
      </trkpt>
      <trkpt lat="46.2611" lon="6.82467">
        <ele>1401.8</ele>
        <time>2022-03-06T09:43:32Z</time>
      </trkpt>
      <trkpt lat="46.2611" lon="6.82468">
        <ele>1402</ele>
        <time>2022-03-06T09:43:33Z</time>
      </trkpt>
      <trkpt lat="46.2611" lon="6.82469">
        <ele>1401.8</ele>
        <time>2022-03-06T09:43:34Z</time>
      </trkpt>
      <trkpt lat="46.26109" lon="6.82471">
        <ele>1402.2</ele>
        <time>2022-03-06T09:43:35Z</time>
      </trkpt>
      <trkpt lat="46.26109" lon="6.82472">
        <ele>1402.4</ele>
        <time>2022-03-06T09:43:36Z</time>
      </trkpt>
      <trkpt lat="46.26109" lon="6.82474">
        <ele>1402.6</ele>
        <time>2022-03-06T09:43:37Z</time>
      </trkpt>
      <trkpt lat="46.26109" lon="6.82475">
        <ele>1402.6</ele>
        <time>2022-03-06T09:43:38Z</time>
      </trkpt>
      <trkpt lat="46.26109" lon="6.82476">
        <ele>1402.8</ele>
        <time>2022-03-06T09:43:39Z</time>
      </trkpt>
      <trkpt lat="46.26109" lon="6.82478">
        <ele>1403</ele>
        <time>2022-03-06T09:43:40Z</time>
      </trkpt>
      <trkpt lat="46.26109" lon="6.82479">
        <ele>1403.2</ele>
        <time>2022-03-06T09:43:41Z</time>
      </trkpt>
      <trkpt lat="46.26108" lon="6.8248">
        <ele>1403.4</ele>
        <time>2022-03-06T09:43:42Z</time>
      </trkpt>
      <trkpt lat="46.26107" lon="6.82481">
        <ele>1403.6</ele>
        <time>2022-03-06T09:43:43Z</time>
      </trkpt>
      <trkpt lat="46.26106" lon="6.82482">
        <ele>1403.8</ele>
        <time>2022-03-06T09:43:44Z</time>
      </trkpt>
      <trkpt lat="46.26104" lon="6.82483">
        <ele>1404</ele>
        <time>2022-03-06T09:43:45Z</time>
      </trkpt>
      <trkpt lat="46.26103" lon="6.82485">
        <ele>1404</ele>
        <time>2022-03-06T09:43:46Z</time>
      </trkpt>
      <trkpt lat="46.26102" lon="6.82487">
        <ele>1404.4</ele>
        <time>2022-03-06T09:43:47Z</time>
      </trkpt>
      <trkpt lat="46.26102" lon="6.82488">
        <ele>1404.6</ele>
        <time>2022-03-06T09:43:48Z</time>
      </trkpt>
      <trkpt lat="46.26102" lon="6.8249">
        <ele>1404.6</ele>
        <time>2022-03-06T09:43:49Z</time>
      </trkpt>
      <trkpt lat="46.26101" lon="6.82492">
        <ele>1404.8</ele>
        <time>2022-03-06T09:43:50Z</time>
      </trkpt>
      <trkpt lat="46.26102" lon="6.82493">
        <ele>1404.8</ele>
        <time>2022-03-06T09:43:51Z</time>
      </trkpt>
      <trkpt lat="46.26102" lon="6.82495">
        <ele>1405</ele>
        <time>2022-03-06T09:43:52Z</time>
      </trkpt>
      <trkpt lat="46.26102" lon="6.82497">
        <ele>1405</ele>
        <time>2022-03-06T09:43:53Z</time>
      </trkpt>
      <trkpt lat="46.26102" lon="6.82499">
        <ele>1405</ele>
        <time>2022-03-06T09:43:54Z</time>
      </trkpt>
      <trkpt lat="46.26102" lon="6.825">
        <ele>1405</ele>
        <time>2022-03-06T09:43:55Z</time>
      </trkpt>
      <trkpt lat="46.26102" lon="6.82502">
        <ele>1405.2</ele>
        <time>2022-03-06T09:43:56Z</time>
      </trkpt>
      <trkpt lat="46.26103" lon="6.82504">
        <ele>1405.2</ele>
        <time>2022-03-06T09:43:57Z</time>
      </trkpt>
      <trkpt lat="46.26103" lon="6.82505">
        <ele>1405.2</ele>
        <time>2022-03-06T09:43:58Z</time>
      </trkpt>
      <trkpt lat="46.26103" lon="6.82506">
        <ele>1405.2</ele>
        <time>2022-03-06T09:43:59Z</time>
      </trkpt>
      <trkpt lat="46.26103" lon="6.82508">
        <ele>1405.4</ele>
        <time>2022-03-06T09:44:00Z</time>
      </trkpt>
      <trkpt lat="46.26104" lon="6.82509">
        <ele>1405.4</ele>
        <time>2022-03-06T09:44:01Z</time>
      </trkpt>
      <trkpt lat="46.26104" lon="6.82509">
        <ele>1405.4</ele>
        <time>2022-03-06T09:44:02Z</time>
      </trkpt>
      <trkpt lat="46.26104" lon="6.8251">
        <ele>1405.6</ele>
        <time>2022-03-06T09:44:03Z</time>
      </trkpt>
      <trkpt lat="46.26105" lon="6.8251">
        <ele>1405.6</ele>
        <time>2022-03-06T09:44:04Z</time>
      </trkpt>
      <trkpt lat="46.26106" lon="6.8251">
        <ele>1405.8</ele>
        <time>2022-03-06T09:44:05Z</time>
      </trkpt>
      <trkpt lat="46.26106" lon="6.82511">
        <ele>1405.8</ele>
        <time>2022-03-06T09:44:06Z</time>
      </trkpt>
      <trkpt lat="46.26107" lon="6.82511">
        <ele>1406</ele>
        <time>2022-03-06T09:44:07Z</time>
      </trkpt>
      <trkpt lat="46.26107" lon="6.82511">
        <ele>1406.2</ele>
        <time>2022-03-06T09:44:08Z</time>
      </trkpt>
      <trkpt lat="46.26108" lon="6.82512">
        <ele>1406.2</ele>
        <time>2022-03-06T09:44:09Z</time>
      </trkpt>
      <trkpt lat="46.26109" lon="6.82514">
        <ele>1406.4</ele>
        <time>2022-03-06T09:44:10Z</time>
      </trkpt>
      <trkpt lat="46.26109" lon="6.82516">
        <ele>1406.6</ele>
        <time>2022-03-06T09:44:11Z</time>
      </trkpt>
      <trkpt lat="46.2611" lon="6.82518">
        <ele>1406.6</ele>
        <time>2022-03-06T09:44:12Z</time>
      </trkpt>
      <trkpt lat="46.26111" lon="6.82519">
        <ele>1406.8</ele>
        <time>2022-03-06T09:44:13Z</time>
      </trkpt>
      <trkpt lat="46.26112" lon="6.8252">
        <ele>1406.8</ele>
        <time>2022-03-06T09:44:14Z</time>
      </trkpt>
      <trkpt lat="46.26113" lon="6.82522">
        <ele>1406.8</ele>
        <time>2022-03-06T09:44:15Z</time>
      </trkpt>
      <trkpt lat="46.26113" lon="6.82523">
        <ele>1407</ele>
        <time>2022-03-06T09:44:16Z</time>
      </trkpt>
      <trkpt lat="46.26114" lon="6.82523">
        <ele>1407</ele>
        <time>2022-03-06T09:44:17Z</time>
      </trkpt>
      <trkpt lat="46.26115" lon="6.82524">
        <ele>1407.2</ele>
        <time>2022-03-06T09:44:18Z</time>
      </trkpt>
      <trkpt lat="46.26115" lon="6.82524">
        <ele>1407.2</ele>
        <time>2022-03-06T09:44:19Z</time>
      </trkpt>
      <trkpt lat="46.26116" lon="6.82525">
        <ele>1407.4</ele>
        <time>2022-03-06T09:44:20Z</time>
      </trkpt>
      <trkpt lat="46.26116" lon="6.82526">
        <ele>1407.4</ele>
        <time>2022-03-06T09:44:21Z</time>
      </trkpt>
      <trkpt lat="46.26118" lon="6.82525">
        <ele>1407.2</ele>
        <time>2022-03-06T09:44:22Z</time>
      </trkpt>
      <trkpt lat="46.26118" lon="6.82526">
        <ele>1407.4</ele>
        <time>2022-03-06T09:44:23Z</time>
      </trkpt>
      <trkpt lat="46.26119" lon="6.82527">
        <ele>1407.4</ele>
        <time>2022-03-06T09:44:24Z</time>
      </trkpt>
      <trkpt lat="46.2612" lon="6.82528">
        <ele>1407.2</ele>
        <time>2022-03-06T09:44:25Z</time>
      </trkpt>
      <trkpt lat="46.26121" lon="6.82528">
        <ele>1407.6</ele>
        <time>2022-03-06T09:44:26Z</time>
      </trkpt>
      <trkpt lat="46.26122" lon="6.82529">
        <ele>1407.6</ele>
        <time>2022-03-06T09:44:27Z</time>
      </trkpt>
      <trkpt lat="46.26123" lon="6.82529">
        <ele>1407.6</ele>
        <time>2022-03-06T09:44:28Z</time>
      </trkpt>
      <trkpt lat="46.26124" lon="6.82531">
        <ele>1407.8</ele>
        <time>2022-03-06T09:44:29Z</time>
      </trkpt>
      <trkpt lat="46.26124" lon="6.82533">
        <ele>1408</ele>
        <time>2022-03-06T09:44:30Z</time>
      </trkpt>
      <trkpt lat="46.26125" lon="6.82535">
        <ele>1408.2</ele>
        <time>2022-03-06T09:44:31Z</time>
      </trkpt>
      <trkpt lat="46.26126" lon="6.82538">
        <ele>1408.2</ele>
        <time>2022-03-06T09:44:32Z</time>
      </trkpt>
      <trkpt lat="46.26127" lon="6.82541">
        <ele>1408.2</ele>
        <time>2022-03-06T09:44:33Z</time>
      </trkpt>
      <trkpt lat="46.26128" lon="6.82543">
        <ele>1408.4</ele>
        <time>2022-03-06T09:44:34Z</time>
      </trkpt>
      <trkpt lat="46.26129" lon="6.82544">
        <ele>1408.6</ele>
        <time>2022-03-06T09:44:35Z</time>
      </trkpt>
      <trkpt lat="46.26129" lon="6.82545">
        <ele>1408.6</ele>
        <time>2022-03-06T09:44:36Z</time>
      </trkpt>
      <trkpt lat="46.26129" lon="6.82545">
        <ele>1409</ele>
        <time>2022-03-06T09:44:37Z</time>
      </trkpt>
      <trkpt lat="46.26129" lon="6.82546">
        <ele>1409.2</ele>
        <time>2022-03-06T09:44:38Z</time>
      </trkpt>
      <trkpt lat="46.2613" lon="6.82548">
        <ele>1409.2</ele>
        <time>2022-03-06T09:44:39Z</time>
      </trkpt>
      <trkpt lat="46.26131" lon="6.82552">
        <ele>1409.4</ele>
        <time>2022-03-06T09:44:40Z</time>
      </trkpt>
      <trkpt lat="46.26131" lon="6.82554">
        <ele>1409.4</ele>
        <time>2022-03-06T09:44:41Z</time>
      </trkpt>
      <trkpt lat="46.26131" lon="6.82555">
        <ele>1409.4</ele>
        <time>2022-03-06T09:44:42Z</time>
      </trkpt>
      <trkpt lat="46.26133" lon="6.82557">
        <ele>1409.6</ele>
        <time>2022-03-06T09:44:43Z</time>
      </trkpt>
      <trkpt lat="46.26133" lon="6.82558">
        <ele>1409.8</ele>
        <time>2022-03-06T09:44:44Z</time>
      </trkpt>
      <trkpt lat="46.26134" lon="6.82558">
        <ele>1409.8</ele>
        <time>2022-03-06T09:44:45Z</time>
      </trkpt>
      <trkpt lat="46.26134" lon="6.82561">
        <ele>1410.2</ele>
        <time>2022-03-06T09:44:46Z</time>
      </trkpt>
      <trkpt lat="46.26134" lon="6.82562">
        <ele>1410.2</ele>
        <time>2022-03-06T09:44:47Z</time>
      </trkpt>
      <trkpt lat="46.26134" lon="6.82563">
        <ele>1410.2</ele>
        <time>2022-03-06T09:44:48Z</time>
      </trkpt>
      <trkpt lat="46.26135" lon="6.82563">
        <ele>1410.4</ele>
        <time>2022-03-06T09:44:49Z</time>
      </trkpt>
      <trkpt lat="46.26135" lon="6.82567">
        <ele>1410.6</ele>
        <time>2022-03-06T09:44:50Z</time>
      </trkpt>
      <trkpt lat="46.26135" lon="6.82569">
        <ele>1410.8</ele>
        <time>2022-03-06T09:44:51Z</time>
      </trkpt>
      <trkpt lat="46.26135" lon="6.82572">
        <ele>1411</ele>
        <time>2022-03-06T09:44:52Z</time>
      </trkpt>
      <trkpt lat="46.26135" lon="6.82574">
        <ele>1411</ele>
        <time>2022-03-06T09:44:53Z</time>
      </trkpt>
      <trkpt lat="46.26136" lon="6.82576">
        <ele>1411.2</ele>
        <time>2022-03-06T09:44:54Z</time>
      </trkpt>
      <trkpt lat="46.26136" lon="6.82578">
        <ele>1411.2</ele>
        <time>2022-03-06T09:44:55Z</time>
      </trkpt>
      <trkpt lat="46.26136" lon="6.82581">
        <ele>1411.6</ele>
        <time>2022-03-06T09:44:56Z</time>
      </trkpt>
      <trkpt lat="46.26136" lon="6.82585">
        <ele>1411.8</ele>
        <time>2022-03-06T09:44:57Z</time>
      </trkpt>
      <trkpt lat="46.26136" lon="6.82587">
        <ele>1412</ele>
        <time>2022-03-06T09:44:58Z</time>
      </trkpt>
      <trkpt lat="46.26137" lon="6.82588">
        <ele>1412.2</ele>
        <time>2022-03-06T09:44:59Z</time>
      </trkpt>
      <trkpt lat="46.26138" lon="6.82589">
        <ele>1412.2</ele>
        <time>2022-03-06T09:45:00Z</time>
      </trkpt>
      <trkpt lat="46.26138" lon="6.8259">
        <ele>1412.4</ele>
        <time>2022-03-06T09:45:01Z</time>
      </trkpt>
      <trkpt lat="46.26139" lon="6.82591">
        <ele>1412.6</ele>
        <time>2022-03-06T09:45:02Z</time>
      </trkpt>
      <trkpt lat="46.26139" lon="6.82593">
        <ele>1412.6</ele>
        <time>2022-03-06T09:45:03Z</time>
      </trkpt>
      <trkpt lat="46.26139" lon="6.82594">
        <ele>1412.8</ele>
        <time>2022-03-06T09:45:04Z</time>
      </trkpt>
      <trkpt lat="46.26139" lon="6.82595">
        <ele>1413.2</ele>
        <time>2022-03-06T09:45:05Z</time>
      </trkpt>
      <trkpt lat="46.26139" lon="6.82597">
        <ele>1413.2</ele>
        <time>2022-03-06T09:45:06Z</time>
      </trkpt>
      <trkpt lat="46.26139" lon="6.82598">
        <ele>1413.2</ele>
        <time>2022-03-06T09:45:07Z</time>
      </trkpt>
      <trkpt lat="46.2614" lon="6.82599">
        <ele>1413.4</ele>
        <time>2022-03-06T09:45:08Z</time>
      </trkpt>
      <trkpt lat="46.2614" lon="6.82601">
        <ele>1413.4</ele>
        <time>2022-03-06T09:45:09Z</time>
      </trkpt>
      <trkpt lat="46.26141" lon="6.82601">
        <ele>1413.4</ele>
        <time>2022-03-06T09:45:10Z</time>
      </trkpt>
      <trkpt lat="46.26142" lon="6.82602">
        <ele>1413.4</ele>
        <time>2022-03-06T09:45:11Z</time>
      </trkpt>
      <trkpt lat="46.26142" lon="6.82603">
        <ele>1413.4</ele>
        <time>2022-03-06T09:45:12Z</time>
      </trkpt>
      <trkpt lat="46.26142" lon="6.82605">
        <ele>1413.8</ele>
        <time>2022-03-06T09:45:13Z</time>
      </trkpt>
      <trkpt lat="46.26141" lon="6.82606">
        <ele>1413.8</ele>
        <time>2022-03-06T09:45:14Z</time>
      </trkpt>
      <trkpt lat="46.26141" lon="6.82607">
        <ele>1414</ele>
        <time>2022-03-06T09:45:15Z</time>
      </trkpt>
      <trkpt lat="46.26142" lon="6.82609">
        <ele>1414</ele>
        <time>2022-03-06T09:45:16Z</time>
      </trkpt>
      <trkpt lat="46.26143" lon="6.8261">
        <ele>1414</ele>
        <time>2022-03-06T09:45:17Z</time>
      </trkpt>
      <trkpt lat="46.26143" lon="6.82611">
        <ele>1414.2</ele>
        <time>2022-03-06T09:45:18Z</time>
      </trkpt>
      <trkpt lat="46.26144" lon="6.82612">
        <ele>1414.2</ele>
        <time>2022-03-06T09:45:19Z</time>
      </trkpt>
      <trkpt lat="46.26144" lon="6.82613">
        <ele>1414.4</ele>
        <time>2022-03-06T09:45:20Z</time>
      </trkpt>
      <trkpt lat="46.26145" lon="6.82614">
        <ele>1414.4</ele>
        <time>2022-03-06T09:45:21Z</time>
      </trkpt>
      <trkpt lat="46.26145" lon="6.82615">
        <ele>1414.6</ele>
        <time>2022-03-06T09:45:22Z</time>
      </trkpt>
      <trkpt lat="46.26145" lon="6.82616">
        <ele>1414.6</ele>
        <time>2022-03-06T09:45:23Z</time>
      </trkpt>
      <trkpt lat="46.26145" lon="6.82617">
        <ele>1414.8</ele>
        <time>2022-03-06T09:45:24Z</time>
      </trkpt>
      <trkpt lat="46.26146" lon="6.82617">
        <ele>1415</ele>
        <time>2022-03-06T09:45:25Z</time>
      </trkpt>
      <trkpt lat="46.26146" lon="6.82617">
        <ele>1414.8</ele>
        <time>2022-03-06T09:45:26Z</time>
      </trkpt>
      <trkpt lat="46.26146" lon="6.82617">
        <ele>1415</ele>
        <time>2022-03-06T09:45:27Z</time>
      </trkpt>
      <trkpt lat="46.26146" lon="6.82616">
        <ele>1415</ele>
        <time>2022-03-06T09:45:28Z</time>
      </trkpt>
      <trkpt lat="46.26146" lon="6.82616">
        <ele>1415</ele>
        <time>2022-03-06T09:45:29Z</time>
      </trkpt>
      <trkpt lat="46.26146" lon="6.82616">
        <ele>1415</ele>
        <time>2022-03-06T09:45:34Z</time>
      </trkpt>
      <trkpt lat="46.26146" lon="6.82616">
        <ele>1415</ele>
        <time>2022-03-06T09:45:37Z</time>
      </trkpt>
      <trkpt lat="46.26148" lon="6.82615">
        <ele>1415</ele>
        <time>2022-03-06T09:45:49Z</time>
      </trkpt>
      <trkpt lat="46.2615" lon="6.82621">
        <ele>1414.8</ele>
        <time>2022-03-06T09:45:59Z</time>
      </trkpt>
      <trkpt lat="46.26151" lon="6.82622">
        <ele>1414.8</ele>
        <time>2022-03-06T09:46:00Z</time>
      </trkpt>
      <trkpt lat="46.26153" lon="6.82626">
        <ele>1415.2</ele>
        <time>2022-03-06T09:46:07Z</time>
      </trkpt>
      <trkpt lat="46.26155" lon="6.82628">
        <ele>1415.4</ele>
        <time>2022-03-06T09:46:11Z</time>
      </trkpt>
      <trkpt lat="46.26156" lon="6.82628">
        <ele>1415.4</ele>
        <time>2022-03-06T09:46:12Z</time>
      </trkpt>
      <trkpt lat="46.26157" lon="6.82627">
        <ele>1415.4</ele>
        <time>2022-03-06T09:46:13Z</time>
      </trkpt>
      <trkpt lat="46.26158" lon="6.82628">
        <ele>1415.6</ele>
        <time>2022-03-06T09:46:14Z</time>
      </trkpt>
      <trkpt lat="46.2616" lon="6.82628">
        <ele>1415.4</ele>
        <time>2022-03-06T09:46:15Z</time>
      </trkpt>
      <trkpt lat="46.26168" lon="6.82631">
        <ele>1415.8</ele>
        <time>2022-03-06T09:46:22Z</time>
      </trkpt>
      <trkpt lat="46.26172" lon="6.82633">
        <ele>1416.2</ele>
        <time>2022-03-06T09:46:27Z</time>
      </trkpt>
      <trkpt lat="46.26173" lon="6.82633">
        <ele>1416.2</ele>
        <time>2022-03-06T09:46:28Z</time>
      </trkpt>
      <trkpt lat="46.26173" lon="6.82634">
        <ele>1416.4</ele>
        <time>2022-03-06T09:46:29Z</time>
      </trkpt>
      <trkpt lat="46.26174" lon="6.82634">
        <ele>1416.6</ele>
        <time>2022-03-06T09:46:30Z</time>
      </trkpt>
      <trkpt lat="46.26174" lon="6.82634">
        <ele>1416.4</ele>
        <time>2022-03-06T09:46:31Z</time>
      </trkpt>
      <trkpt lat="46.26175" lon="6.82635">
        <ele>1416.6</ele>
        <time>2022-03-06T09:46:32Z</time>
      </trkpt>
      <trkpt lat="46.26176" lon="6.82635">
        <ele>1416.6</ele>
        <time>2022-03-06T09:46:33Z</time>
      </trkpt>
      <trkpt lat="46.26177" lon="6.82636">
        <ele>1416.6</ele>
        <time>2022-03-06T09:46:35Z</time>
      </trkpt>
      <trkpt lat="46.26178" lon="6.82635">
        <ele>1416.8</ele>
        <time>2022-03-06T09:46:36Z</time>
      </trkpt>
      <trkpt lat="46.26179" lon="6.82636">
        <ele>1416.6</ele>
        <time>2022-03-06T09:46:37Z</time>
      </trkpt>
      <trkpt lat="46.2618" lon="6.82637">
        <ele>1417</ele>
        <time>2022-03-06T09:46:39Z</time>
      </trkpt>
      <trkpt lat="46.26181" lon="6.82637">
        <ele>1416.8</ele>
        <time>2022-03-06T09:46:40Z</time>
      </trkpt>
      <trkpt lat="46.26183" lon="6.82637">
        <ele>1417.2</ele>
        <time>2022-03-06T09:46:42Z</time>
      </trkpt>
      <trkpt lat="46.26184" lon="6.82637">
        <ele>1417.2</ele>
        <time>2022-03-06T09:46:43Z</time>
      </trkpt>
      <trkpt lat="46.26185" lon="6.82638">
        <ele>1417.4</ele>
        <time>2022-03-06T09:46:44Z</time>
      </trkpt>
      <trkpt lat="46.26186" lon="6.82639">
        <ele>1417.4</ele>
        <time>2022-03-06T09:46:45Z</time>
      </trkpt>
      <trkpt lat="46.26186" lon="6.82639">
        <ele>1417.4</ele>
        <time>2022-03-06T09:46:46Z</time>
      </trkpt>
      <trkpt lat="46.26187" lon="6.82639">
        <ele>1417.6</ele>
        <time>2022-03-06T09:46:47Z</time>
      </trkpt>
      <trkpt lat="46.26188" lon="6.8264">
        <ele>1417.6</ele>
        <time>2022-03-06T09:46:48Z</time>
      </trkpt>
      <trkpt lat="46.26197" lon="6.82642">
        <ele>1417.6</ele>
        <time>2022-03-06T09:46:56Z</time>
      </trkpt>
      <trkpt lat="46.26201" lon="6.82642">
        <ele>1417.4</ele>
        <time>2022-03-06T09:46:59Z</time>
      </trkpt>
      <trkpt lat="46.26212" lon="6.82645">
        <ele>1417.2</ele>
        <time>2022-03-06T09:47:08Z</time>
      </trkpt>
      <trkpt lat="46.26213" lon="6.82646">
        <ele>1417.2</ele>
        <time>2022-03-06T09:47:09Z</time>
      </trkpt>
      <trkpt lat="46.26214" lon="6.82647">
        <ele>1417.2</ele>
        <time>2022-03-06T09:47:10Z</time>
      </trkpt>
      <trkpt lat="46.26215" lon="6.82648">
        <ele>1417.2</ele>
        <time>2022-03-06T09:47:11Z</time>
      </trkpt>
      <trkpt lat="46.26215" lon="6.82648">
        <ele>1417.2</ele>
        <time>2022-03-06T09:47:12Z</time>
      </trkpt>
      <trkpt lat="46.26216" lon="6.82649">
        <ele>1417</ele>
        <time>2022-03-06T09:47:13Z</time>
      </trkpt>
      <trkpt lat="46.26217" lon="6.8265">
        <ele>1417.2</ele>
        <time>2022-03-06T09:47:14Z</time>
      </trkpt>
      <trkpt lat="46.26218" lon="6.82651">
        <ele>1417</ele>
        <time>2022-03-06T09:47:15Z</time>
      </trkpt>
      <trkpt lat="46.26218" lon="6.82652">
        <ele>1417</ele>
        <time>2022-03-06T09:47:16Z</time>
      </trkpt>
      <trkpt lat="46.26221" lon="6.82655">
        <ele>1417.2</ele>
        <time>2022-03-06T09:47:19Z</time>
      </trkpt>
      <trkpt lat="46.26221" lon="6.82656">
        <ele>1417</ele>
        <time>2022-03-06T09:47:20Z</time>
      </trkpt>
      <trkpt lat="46.26222" lon="6.82656">
        <ele>1417.2</ele>
        <time>2022-03-06T09:47:21Z</time>
      </trkpt>
      <trkpt lat="46.26223" lon="6.82657">
        <ele>1417.2</ele>
        <time>2022-03-06T09:47:22Z</time>
      </trkpt>
      <trkpt lat="46.26224" lon="6.82658">
        <ele>1417</ele>
        <time>2022-03-06T09:47:23Z</time>
      </trkpt>
      <trkpt lat="46.26225" lon="6.82657">
        <ele>1417</ele>
        <time>2022-03-06T09:47:24Z</time>
      </trkpt>
      <trkpt lat="46.26226" lon="6.82658">
        <ele>1417</ele>
        <time>2022-03-06T09:47:25Z</time>
      </trkpt>
      <trkpt lat="46.26228" lon="6.82658">
        <ele>1417.2</ele>
        <time>2022-03-06T09:47:26Z</time>
      </trkpt>
      <trkpt lat="46.26232" lon="6.82658">
        <ele>1417.2</ele>
        <time>2022-03-06T09:47:29Z</time>
      </trkpt>
      <trkpt lat="46.26235" lon="6.82658">
        <ele>1417.4</ele>
        <time>2022-03-06T09:47:32Z</time>
      </trkpt>
      <trkpt lat="46.2624" lon="6.82657">
        <ele>1417.4</ele>
        <time>2022-03-06T09:47:37Z</time>
      </trkpt>
      <trkpt lat="46.26244" lon="6.82654">
        <ele>1417.6</ele>
        <time>2022-03-06T09:47:41Z</time>
      </trkpt>
      <trkpt lat="46.26247" lon="6.82653">
        <ele>1417.6</ele>
        <time>2022-03-06T09:47:43Z</time>
      </trkpt>
      <trkpt lat="46.26249" lon="6.8265">
        <ele>1417.8</ele>
        <time>2022-03-06T09:47:46Z</time>
      </trkpt>
      <trkpt lat="46.26251" lon="6.82649">
        <ele>1417.8</ele>
        <time>2022-03-06T09:47:48Z</time>
      </trkpt>
      <trkpt lat="46.26252" lon="6.82649">
        <ele>1417.8</ele>
        <time>2022-03-06T09:47:49Z</time>
      </trkpt>
      <trkpt lat="46.26253" lon="6.82646">
        <ele>1417.8</ele>
        <time>2022-03-06T09:47:51Z</time>
      </trkpt>
      <trkpt lat="46.26254" lon="6.82645">
        <ele>1418</ele>
        <time>2022-03-06T09:47:52Z</time>
      </trkpt>
      <trkpt lat="46.26257" lon="6.82643">
        <ele>1418.2</ele>
        <time>2022-03-06T09:47:56Z</time>
      </trkpt>
      <trkpt lat="46.26258" lon="6.82642">
        <ele>1418.4</ele>
        <time>2022-03-06T09:47:57Z</time>
      </trkpt>
      <trkpt lat="46.26259" lon="6.82642">
        <ele>1418.4</ele>
        <time>2022-03-06T09:47:58Z</time>
      </trkpt>
      <trkpt lat="46.2626" lon="6.82642">
        <ele>1418.6</ele>
        <time>2022-03-06T09:47:59Z</time>
      </trkpt>
      <trkpt lat="46.26261" lon="6.82642">
        <ele>1418.4</ele>
        <time>2022-03-06T09:48:00Z</time>
      </trkpt>
      <trkpt lat="46.26262" lon="6.82642">
        <ele>1418.8</ele>
        <time>2022-03-06T09:48:01Z</time>
      </trkpt>
      <trkpt lat="46.26263" lon="6.82641">
        <ele>1418.8</ele>
        <time>2022-03-06T09:48:02Z</time>
      </trkpt>
      <trkpt lat="46.26264" lon="6.82641">
        <ele>1418.8</ele>
        <time>2022-03-06T09:48:03Z</time>
      </trkpt>
      <trkpt lat="46.26265" lon="6.82641">
        <ele>1419</ele>
        <time>2022-03-06T09:48:04Z</time>
      </trkpt>
      <trkpt lat="46.26266" lon="6.82641">
        <ele>1419.2</ele>
        <time>2022-03-06T09:48:05Z</time>
      </trkpt>
      <trkpt lat="46.26267" lon="6.82641">
        <ele>1419.4</ele>
        <time>2022-03-06T09:48:06Z</time>
      </trkpt>
      <trkpt lat="46.26268" lon="6.82642">
        <ele>1419.6</ele>
        <time>2022-03-06T09:48:07Z</time>
      </trkpt>
      <trkpt lat="46.26268" lon="6.82642">
        <ele>1419.8</ele>
        <time>2022-03-06T09:48:08Z</time>
      </trkpt>
      <trkpt lat="46.26269" lon="6.82642">
        <ele>1420</ele>
        <time>2022-03-06T09:48:09Z</time>
      </trkpt>
      <trkpt lat="46.2627" lon="6.82642">
        <ele>1420</ele>
        <time>2022-03-06T09:48:10Z</time>
      </trkpt>
      <trkpt lat="46.2627" lon="6.82642">
        <ele>1420</ele>
        <time>2022-03-06T09:48:11Z</time>
      </trkpt>
      <trkpt lat="46.26271" lon="6.82642">
        <ele>1420.2</ele>
        <time>2022-03-06T09:48:12Z</time>
      </trkpt>
      <trkpt lat="46.26272" lon="6.82642">
        <ele>1420.4</ele>
        <time>2022-03-06T09:48:13Z</time>
      </trkpt>
      <trkpt lat="46.26273" lon="6.82642">
        <ele>1420.4</ele>
        <time>2022-03-06T09:48:14Z</time>
      </trkpt>
      <trkpt lat="46.26274" lon="6.82642">
        <ele>1420.6</ele>
        <time>2022-03-06T09:48:15Z</time>
      </trkpt>
      <trkpt lat="46.26275" lon="6.82642">
        <ele>1420.8</ele>
        <time>2022-03-06T09:48:16Z</time>
      </trkpt>
      <trkpt lat="46.26276" lon="6.82643">
        <ele>1421</ele>
        <time>2022-03-06T09:48:17Z</time>
      </trkpt>
      <trkpt lat="46.26276" lon="6.82643">
        <ele>1421.2</ele>
        <time>2022-03-06T09:48:18Z</time>
      </trkpt>
      <trkpt lat="46.26277" lon="6.82643">
        <ele>1421.4</ele>
        <time>2022-03-06T09:48:19Z</time>
      </trkpt>
      <trkpt lat="46.26277" lon="6.82643">
        <ele>1421.4</ele>
        <time>2022-03-06T09:48:20Z</time>
      </trkpt>
      <trkpt lat="46.26278" lon="6.82643">
        <ele>1421.8</ele>
        <time>2022-03-06T09:48:21Z</time>
      </trkpt>
      <trkpt lat="46.26278" lon="6.82643">
        <ele>1421.8</ele>
        <time>2022-03-06T09:48:22Z</time>
      </trkpt>
      <trkpt lat="46.26279" lon="6.82643">
        <ele>1421.8</ele>
        <time>2022-03-06T09:48:23Z</time>
      </trkpt>
      <trkpt lat="46.2628" lon="6.82644">
        <ele>1422.2</ele>
        <time>2022-03-06T09:48:24Z</time>
      </trkpt>
      <trkpt lat="46.26281" lon="6.82644">
        <ele>1422.2</ele>
        <time>2022-03-06T09:48:25Z</time>
      </trkpt>
      <trkpt lat="46.26281" lon="6.82645">
        <ele>1422.2</ele>
        <time>2022-03-06T09:48:26Z</time>
      </trkpt>
      <trkpt lat="46.26282" lon="6.82645">
        <ele>1422.4</ele>
        <time>2022-03-06T09:48:27Z</time>
      </trkpt>
      <trkpt lat="46.26283" lon="6.82645">
        <ele>1422.6</ele>
        <time>2022-03-06T09:48:28Z</time>
      </trkpt>
      <trkpt lat="46.26283" lon="6.82645">
        <ele>1422.8</ele>
        <time>2022-03-06T09:48:29Z</time>
      </trkpt>
      <trkpt lat="46.26284" lon="6.82645">
        <ele>1423</ele>
        <time>2022-03-06T09:48:30Z</time>
      </trkpt>
      <trkpt lat="46.26285" lon="6.82644">
        <ele>1423.2</ele>
        <time>2022-03-06T09:48:31Z</time>
      </trkpt>
      <trkpt lat="46.26286" lon="6.82644">
        <ele>1423.2</ele>
        <time>2022-03-06T09:48:32Z</time>
      </trkpt>
      <trkpt lat="46.26286" lon="6.82644">
        <ele>1423.2</ele>
        <time>2022-03-06T09:48:33Z</time>
      </trkpt>
      <trkpt lat="46.26287" lon="6.82644">
        <ele>1423.4</ele>
        <time>2022-03-06T09:48:34Z</time>
      </trkpt>
      <trkpt lat="46.26288" lon="6.82644">
        <ele>1423.6</ele>
        <time>2022-03-06T09:48:35Z</time>
      </trkpt>
      <trkpt lat="46.26289" lon="6.82643">
        <ele>1423.8</ele>
        <time>2022-03-06T09:48:36Z</time>
      </trkpt>
      <trkpt lat="46.26289" lon="6.82643">
        <ele>1424</ele>
        <time>2022-03-06T09:48:37Z</time>
      </trkpt>
      <trkpt lat="46.2629" lon="6.82643">
        <ele>1424</ele>
        <time>2022-03-06T09:48:38Z</time>
      </trkpt>
      <trkpt lat="46.26291" lon="6.82643">
        <ele>1424.2</ele>
        <time>2022-03-06T09:48:39Z</time>
      </trkpt>
      <trkpt lat="46.26292" lon="6.82642">
        <ele>1424.4</ele>
        <time>2022-03-06T09:48:40Z</time>
      </trkpt>
      <trkpt lat="46.26293" lon="6.82642">
        <ele>1424.6</ele>
        <time>2022-03-06T09:48:41Z</time>
      </trkpt>
      <trkpt lat="46.26294" lon="6.82642">
        <ele>1424.6</ele>
        <time>2022-03-06T09:48:42Z</time>
      </trkpt>
      <trkpt lat="46.26295" lon="6.82642">
        <ele>1424.8</ele>
        <time>2022-03-06T09:48:43Z</time>
      </trkpt>
      <trkpt lat="46.26295" lon="6.82642">
        <ele>1424.8</ele>
        <time>2022-03-06T09:48:44Z</time>
      </trkpt>
      <trkpt lat="46.26296" lon="6.82642">
        <ele>1425</ele>
        <time>2022-03-06T09:48:45Z</time>
      </trkpt>
      <trkpt lat="46.26297" lon="6.82641">
        <ele>1425.2</ele>
        <time>2022-03-06T09:48:46Z</time>
      </trkpt>
      <trkpt lat="46.26297" lon="6.82641">
        <ele>1425.2</ele>
        <time>2022-03-06T09:48:47Z</time>
      </trkpt>
      <trkpt lat="46.26298" lon="6.82641">
        <ele>1425.4</ele>
        <time>2022-03-06T09:48:48Z</time>
      </trkpt>
      <trkpt lat="46.26299" lon="6.8264">
        <ele>1425.4</ele>
        <time>2022-03-06T09:48:49Z</time>
      </trkpt>
      <trkpt lat="46.263" lon="6.8264">
        <ele>1425.6</ele>
        <time>2022-03-06T09:48:50Z</time>
      </trkpt>
      <trkpt lat="46.26301" lon="6.82639">
        <ele>1425.8</ele>
        <time>2022-03-06T09:48:51Z</time>
      </trkpt>
      <trkpt lat="46.26302" lon="6.82639">
        <ele>1425.8</ele>
        <time>2022-03-06T09:48:52Z</time>
      </trkpt>
      <trkpt lat="46.26303" lon="6.82639">
        <ele>1426</ele>
        <time>2022-03-06T09:48:53Z</time>
      </trkpt>
      <trkpt lat="46.26304" lon="6.82638">
        <ele>1426</ele>
        <time>2022-03-06T09:48:54Z</time>
      </trkpt>
      <trkpt lat="46.26305" lon="6.82637">
        <ele>1426.2</ele>
        <time>2022-03-06T09:48:55Z</time>
      </trkpt>
      <trkpt lat="46.26306" lon="6.82637">
        <ele>1426.2</ele>
        <time>2022-03-06T09:48:56Z</time>
      </trkpt>
      <trkpt lat="46.26307" lon="6.82637">
        <ele>1426.2</ele>
        <time>2022-03-06T09:48:57Z</time>
      </trkpt>
      <trkpt lat="46.26308" lon="6.82636">
        <ele>1426.4</ele>
        <time>2022-03-06T09:48:58Z</time>
      </trkpt>
      <trkpt lat="46.26309" lon="6.82636">
        <ele>1426.6</ele>
        <time>2022-03-06T09:48:59Z</time>
      </trkpt>
      <trkpt lat="46.2631" lon="6.82636">
        <ele>1427</ele>
        <time>2022-03-06T09:49:00Z</time>
      </trkpt>
      <trkpt lat="46.26311" lon="6.82635">
        <ele>1427</ele>
        <time>2022-03-06T09:49:01Z</time>
      </trkpt>
      <trkpt lat="46.26312" lon="6.82635">
        <ele>1427.2</ele>
        <time>2022-03-06T09:49:02Z</time>
      </trkpt>
      <trkpt lat="46.26313" lon="6.82635">
        <ele>1427.2</ele>
        <time>2022-03-06T09:49:03Z</time>
      </trkpt>
      <trkpt lat="46.26313" lon="6.82635">
        <ele>1427.4</ele>
        <time>2022-03-06T09:49:04Z</time>
      </trkpt>
      <trkpt lat="46.26314" lon="6.82635">
        <ele>1427.6</ele>
        <time>2022-03-06T09:49:05Z</time>
      </trkpt>
      <trkpt lat="46.26315" lon="6.82635">
        <ele>1427.6</ele>
        <time>2022-03-06T09:49:06Z</time>
      </trkpt>
      <trkpt lat="46.26316" lon="6.82635">
        <ele>1428</ele>
        <time>2022-03-06T09:49:07Z</time>
      </trkpt>
      <trkpt lat="46.26317" lon="6.82634">
        <ele>1428</ele>
        <time>2022-03-06T09:49:08Z</time>
      </trkpt>
      <trkpt lat="46.26318" lon="6.82634">
        <ele>1428</ele>
        <time>2022-03-06T09:49:09Z</time>
      </trkpt>
      <trkpt lat="46.26319" lon="6.82634">
        <ele>1428.2</ele>
        <time>2022-03-06T09:49:10Z</time>
      </trkpt>
      <trkpt lat="46.2632" lon="6.82633">
        <ele>1428.4</ele>
        <time>2022-03-06T09:49:11Z</time>
      </trkpt>
      <trkpt lat="46.26321" lon="6.82633">
        <ele>1428.4</ele>
        <time>2022-03-06T09:49:12Z</time>
      </trkpt>
      <trkpt lat="46.26321" lon="6.82633">
        <ele>1428.8</ele>
        <time>2022-03-06T09:49:13Z</time>
      </trkpt>
      <trkpt lat="46.26322" lon="6.82633">
        <ele>1429</ele>
        <time>2022-03-06T09:49:14Z</time>
      </trkpt>
      <trkpt lat="46.26323" lon="6.82632">
        <ele>1429</ele>
        <time>2022-03-06T09:49:15Z</time>
      </trkpt>
      <trkpt lat="46.26324" lon="6.82632">
        <ele>1429.2</ele>
        <time>2022-03-06T09:49:16Z</time>
      </trkpt>
      <trkpt lat="46.26325" lon="6.82632">
        <ele>1429.2</ele>
        <time>2022-03-06T09:49:17Z</time>
      </trkpt>
      <trkpt lat="46.26325" lon="6.82633">
        <ele>1429.4</ele>
        <time>2022-03-06T09:49:18Z</time>
      </trkpt>
      <trkpt lat="46.26326" lon="6.82633">
        <ele>1429.4</ele>
        <time>2022-03-06T09:49:19Z</time>
      </trkpt>
      <trkpt lat="46.26327" lon="6.82634">
        <ele>1429.6</ele>
        <time>2022-03-06T09:49:20Z</time>
      </trkpt>
      <trkpt lat="46.26328" lon="6.82634">
        <ele>1429.6</ele>
        <time>2022-03-06T09:49:21Z</time>
      </trkpt>
      <trkpt lat="46.26329" lon="6.82634">
        <ele>1429.6</ele>
        <time>2022-03-06T09:49:22Z</time>
      </trkpt>
      <trkpt lat="46.2633" lon="6.82634">
        <ele>1429.8</ele>
        <time>2022-03-06T09:49:23Z</time>
      </trkpt>
      <trkpt lat="46.2633" lon="6.82634">
        <ele>1430</ele>
        <time>2022-03-06T09:49:24Z</time>
      </trkpt>
      <trkpt lat="46.26331" lon="6.82634">
        <ele>1430.2</ele>
        <time>2022-03-06T09:49:25Z</time>
      </trkpt>
      <trkpt lat="46.26332" lon="6.82634">
        <ele>1430.4</ele>
        <time>2022-03-06T09:49:26Z</time>
      </trkpt>
      <trkpt lat="46.26333" lon="6.82634">
        <ele>1430.4</ele>
        <time>2022-03-06T09:49:27Z</time>
      </trkpt>
      <trkpt lat="46.26334" lon="6.82634">
        <ele>1430.6</ele>
        <time>2022-03-06T09:49:28Z</time>
      </trkpt>
      <trkpt lat="46.26335" lon="6.82634">
        <ele>1430.6</ele>
        <time>2022-03-06T09:49:29Z</time>
      </trkpt>
      <trkpt lat="46.26336" lon="6.82634">
        <ele>1430.6</ele>
        <time>2022-03-06T09:49:30Z</time>
      </trkpt>
      <trkpt lat="46.26337" lon="6.82634">
        <ele>1430.6</ele>
        <time>2022-03-06T09:49:31Z</time>
      </trkpt>
      <trkpt lat="46.26338" lon="6.82634">
        <ele>1431</ele>
        <time>2022-03-06T09:49:32Z</time>
      </trkpt>
      <trkpt lat="46.26339" lon="6.82634">
        <ele>1431</ele>
        <time>2022-03-06T09:49:33Z</time>
      </trkpt>
      <trkpt lat="46.2634" lon="6.82633">
        <ele>1431.2</ele>
        <time>2022-03-06T09:49:34Z</time>
      </trkpt>
      <trkpt lat="46.26341" lon="6.82633">
        <ele>1431.2</ele>
        <time>2022-03-06T09:49:35Z</time>
      </trkpt>
      <trkpt lat="46.26342" lon="6.82633">
        <ele>1431.2</ele>
        <time>2022-03-06T09:49:36Z</time>
      </trkpt>
      <trkpt lat="46.26343" lon="6.82633">
        <ele>1431.2</ele>
        <time>2022-03-06T09:49:37Z</time>
      </trkpt>
      <trkpt lat="46.26343" lon="6.82633">
        <ele>1431.2</ele>
        <time>2022-03-06T09:49:38Z</time>
      </trkpt>
      <trkpt lat="46.26344" lon="6.82633">
        <ele>1431.4</ele>
        <time>2022-03-06T09:49:39Z</time>
      </trkpt>
      <trkpt lat="46.26345" lon="6.82633">
        <ele>1431.6</ele>
        <time>2022-03-06T09:49:40Z</time>
      </trkpt>
      <trkpt lat="46.26346" lon="6.82633">
        <ele>1431.6</ele>
        <time>2022-03-06T09:49:41Z</time>
      </trkpt>
      <trkpt lat="46.26347" lon="6.82633">
        <ele>1431.6</ele>
        <time>2022-03-06T09:49:42Z</time>
      </trkpt>
      <trkpt lat="46.26347" lon="6.82634">
        <ele>1431.8</ele>
        <time>2022-03-06T09:49:43Z</time>
      </trkpt>
      <trkpt lat="46.26348" lon="6.82634">
        <ele>1431.8</ele>
        <time>2022-03-06T09:49:44Z</time>
      </trkpt>
      <trkpt lat="46.26349" lon="6.82635">
        <ele>1432</ele>
        <time>2022-03-06T09:49:45Z</time>
      </trkpt>
      <trkpt lat="46.2635" lon="6.82634">
        <ele>1432</ele>
        <time>2022-03-06T09:49:46Z</time>
      </trkpt>
      <trkpt lat="46.26351" lon="6.82634">
        <ele>1432.2</ele>
        <time>2022-03-06T09:49:47Z</time>
      </trkpt>
      <trkpt lat="46.26352" lon="6.82634">
        <ele>1432.4</ele>
        <time>2022-03-06T09:49:48Z</time>
      </trkpt>
      <trkpt lat="46.26352" lon="6.82634">
        <ele>1432.4</ele>
        <time>2022-03-06T09:49:49Z</time>
      </trkpt>
      <trkpt lat="46.26354" lon="6.82635">
        <ele>1432.4</ele>
        <time>2022-03-06T09:49:50Z</time>
      </trkpt>
      <trkpt lat="46.26355" lon="6.82635">
        <ele>1432.4</ele>
        <time>2022-03-06T09:49:51Z</time>
      </trkpt>
      <trkpt lat="46.26356" lon="6.82635">
        <ele>1432.8</ele>
        <time>2022-03-06T09:49:52Z</time>
      </trkpt>
      <trkpt lat="46.26357" lon="6.82634">
        <ele>1432.8</ele>
        <time>2022-03-06T09:49:53Z</time>
      </trkpt>
      <trkpt lat="46.26358" lon="6.82635">
        <ele>1432.8</ele>
        <time>2022-03-06T09:49:54Z</time>
      </trkpt>
      <trkpt lat="46.26359" lon="6.82635">
        <ele>1433</ele>
        <time>2022-03-06T09:49:55Z</time>
      </trkpt>
      <trkpt lat="46.2636" lon="6.82635">
        <ele>1433</ele>
        <time>2022-03-06T09:49:56Z</time>
      </trkpt>
      <trkpt lat="46.2636" lon="6.82635">
        <ele>1433.2</ele>
        <time>2022-03-06T09:49:57Z</time>
      </trkpt>
      <trkpt lat="46.26362" lon="6.82635">
        <ele>1433.2</ele>
        <time>2022-03-06T09:49:58Z</time>
      </trkpt>
      <trkpt lat="46.26362" lon="6.82635">
        <ele>1433.2</ele>
        <time>2022-03-06T09:49:59Z</time>
      </trkpt>
      <trkpt lat="46.26363" lon="6.82636">
        <ele>1433.4</ele>
        <time>2022-03-06T09:50:00Z</time>
      </trkpt>
      <trkpt lat="46.26364" lon="6.82636">
        <ele>1433.6</ele>
        <time>2022-03-06T09:50:01Z</time>
      </trkpt>
      <trkpt lat="46.26365" lon="6.82636">
        <ele>1433.8</ele>
        <time>2022-03-06T09:50:02Z</time>
      </trkpt>
      <trkpt lat="46.26366" lon="6.82636">
        <ele>1434</ele>
        <time>2022-03-06T09:50:03Z</time>
      </trkpt>
      <trkpt lat="46.26367" lon="6.82636">
        <ele>1434</ele>
        <time>2022-03-06T09:50:04Z</time>
      </trkpt>
      <trkpt lat="46.26368" lon="6.82636">
        <ele>1434</ele>
        <time>2022-03-06T09:50:05Z</time>
      </trkpt>
      <trkpt lat="46.26369" lon="6.82636">
        <ele>1434.2</ele>
        <time>2022-03-06T09:50:06Z</time>
      </trkpt>
      <trkpt lat="46.26369" lon="6.82636">
        <ele>1434.4</ele>
        <time>2022-03-06T09:50:07Z</time>
      </trkpt>
      <trkpt lat="46.2637" lon="6.82637">
        <ele>1434.4</ele>
        <time>2022-03-06T09:50:08Z</time>
      </trkpt>
      <trkpt lat="46.26371" lon="6.82636">
        <ele>1434.8</ele>
        <time>2022-03-06T09:50:09Z</time>
      </trkpt>
      <trkpt lat="46.26372" lon="6.82636">
        <ele>1435</ele>
        <time>2022-03-06T09:50:10Z</time>
      </trkpt>
      <trkpt lat="46.26373" lon="6.82637">
        <ele>1435.2</ele>
        <time>2022-03-06T09:50:11Z</time>
      </trkpt>
      <trkpt lat="46.26374" lon="6.82637">
        <ele>1435.2</ele>
        <time>2022-03-06T09:50:12Z</time>
      </trkpt>
      <trkpt lat="46.26375" lon="6.82636">
        <ele>1435.6</ele>
        <time>2022-03-06T09:50:13Z</time>
      </trkpt>
      <trkpt lat="46.26376" lon="6.82636">
        <ele>1435.8</ele>
        <time>2022-03-06T09:50:14Z</time>
      </trkpt>
      <trkpt lat="46.26377" lon="6.82635">
        <ele>1435.8</ele>
        <time>2022-03-06T09:50:15Z</time>
      </trkpt>
      <trkpt lat="46.26378" lon="6.82635">
        <ele>1435.8</ele>
        <time>2022-03-06T09:50:16Z</time>
      </trkpt>
      <trkpt lat="46.26379" lon="6.82634">
        <ele>1436.2</ele>
        <time>2022-03-06T09:50:17Z</time>
      </trkpt>
      <trkpt lat="46.2638" lon="6.82634">
        <ele>1436</ele>
        <time>2022-03-06T09:50:18Z</time>
      </trkpt>
      <trkpt lat="46.26381" lon="6.82633">
        <ele>1436.2</ele>
        <time>2022-03-06T09:50:19Z</time>
      </trkpt>
      <trkpt lat="46.26381" lon="6.82633">
        <ele>1436.4</ele>
        <time>2022-03-06T09:50:20Z</time>
      </trkpt>
      <trkpt lat="46.26382" lon="6.82633">
        <ele>1436.6</ele>
        <time>2022-03-06T09:50:21Z</time>
      </trkpt>
      <trkpt lat="46.26383" lon="6.82633">
        <ele>1436.6</ele>
        <time>2022-03-06T09:50:22Z</time>
      </trkpt>
      <trkpt lat="46.26383" lon="6.82633">
        <ele>1436.8</ele>
        <time>2022-03-06T09:50:23Z</time>
      </trkpt>
      <trkpt lat="46.26384" lon="6.82633">
        <ele>1437</ele>
        <time>2022-03-06T09:50:24Z</time>
      </trkpt>
      <trkpt lat="46.26385" lon="6.82633">
        <ele>1437.2</ele>
        <time>2022-03-06T09:50:25Z</time>
      </trkpt>
      <trkpt lat="46.26385" lon="6.82633">
        <ele>1437.2</ele>
        <time>2022-03-06T09:50:26Z</time>
      </trkpt>
      <trkpt lat="46.26386" lon="6.82633">
        <ele>1437.4</ele>
        <time>2022-03-06T09:50:27Z</time>
      </trkpt>
      <trkpt lat="46.26387" lon="6.82633">
        <ele>1437.8</ele>
        <time>2022-03-06T09:50:28Z</time>
      </trkpt>
      <trkpt lat="46.26387" lon="6.82632">
        <ele>1437.8</ele>
        <time>2022-03-06T09:50:29Z</time>
      </trkpt>
      <trkpt lat="46.26388" lon="6.82632">
        <ele>1438</ele>
        <time>2022-03-06T09:50:30Z</time>
      </trkpt>
      <trkpt lat="46.26389" lon="6.82632">
        <ele>1438.2</ele>
        <time>2022-03-06T09:50:31Z</time>
      </trkpt>
      <trkpt lat="46.2639" lon="6.82632">
        <ele>1438.4</ele>
        <time>2022-03-06T09:50:32Z</time>
      </trkpt>
      <trkpt lat="46.2639" lon="6.82631">
        <ele>1438.6</ele>
        <time>2022-03-06T09:50:33Z</time>
      </trkpt>
      <trkpt lat="46.26391" lon="6.82631">
        <ele>1438.8</ele>
        <time>2022-03-06T09:50:34Z</time>
      </trkpt>
      <trkpt lat="46.26391" lon="6.8263">
        <ele>1439</ele>
        <time>2022-03-06T09:50:35Z</time>
      </trkpt>
      <trkpt lat="46.26392" lon="6.8263">
        <ele>1439.2</ele>
        <time>2022-03-06T09:50:36Z</time>
      </trkpt>
      <trkpt lat="46.26392" lon="6.8263">
        <ele>1439.4</ele>
        <time>2022-03-06T09:50:37Z</time>
      </trkpt>
      <trkpt lat="46.26393" lon="6.8263">
        <ele>1439.6</ele>
        <time>2022-03-06T09:50:38Z</time>
      </trkpt>
      <trkpt lat="46.26393" lon="6.8263">
        <ele>1439.8</ele>
        <time>2022-03-06T09:50:39Z</time>
      </trkpt>
      <trkpt lat="46.26394" lon="6.8263">
        <ele>1440</ele>
        <time>2022-03-06T09:50:40Z</time>
      </trkpt>
      <trkpt lat="46.26395" lon="6.8263">
        <ele>1440.2</ele>
        <time>2022-03-06T09:50:41Z</time>
      </trkpt>
      <trkpt lat="46.26396" lon="6.8263">
        <ele>1440.4</ele>
        <time>2022-03-06T09:50:42Z</time>
      </trkpt>
      <trkpt lat="46.26397" lon="6.8263">
        <ele>1440.4</ele>
        <time>2022-03-06T09:50:43Z</time>
      </trkpt>
      <trkpt lat="46.26398" lon="6.8263">
        <ele>1440.8</ele>
        <time>2022-03-06T09:50:44Z</time>
      </trkpt>
      <trkpt lat="46.26399" lon="6.8263">
        <ele>1441</ele>
        <time>2022-03-06T09:50:45Z</time>
      </trkpt>
      <trkpt lat="46.26399" lon="6.8263">
        <ele>1441</ele>
        <time>2022-03-06T09:50:46Z</time>
      </trkpt>
      <trkpt lat="46.264" lon="6.8263">
        <ele>1441.2</ele>
        <time>2022-03-06T09:50:47Z</time>
      </trkpt>
      <trkpt lat="46.26401" lon="6.8263">
        <ele>1441.4</ele>
        <time>2022-03-06T09:50:48Z</time>
      </trkpt>
      <trkpt lat="46.26402" lon="6.8263">
        <ele>1441.4</ele>
        <time>2022-03-06T09:50:49Z</time>
      </trkpt>
      <trkpt lat="46.26402" lon="6.8263">
        <ele>1441.6</ele>
        <time>2022-03-06T09:50:50Z</time>
      </trkpt>
      <trkpt lat="46.26403" lon="6.8263">
        <ele>1441.8</ele>
        <time>2022-03-06T09:50:51Z</time>
      </trkpt>
      <trkpt lat="46.26404" lon="6.8263">
        <ele>1441.8</ele>
        <time>2022-03-06T09:50:52Z</time>
      </trkpt>
      <trkpt lat="46.26405" lon="6.8263">
        <ele>1442.2</ele>
        <time>2022-03-06T09:50:53Z</time>
      </trkpt>
      <trkpt lat="46.26405" lon="6.8263">
        <ele>1442.2</ele>
        <time>2022-03-06T09:50:54Z</time>
      </trkpt>
      <trkpt lat="46.26406" lon="6.8263">
        <ele>1442.4</ele>
        <time>2022-03-06T09:50:55Z</time>
      </trkpt>
      <trkpt lat="46.26407" lon="6.8263">
        <ele>1442.6</ele>
        <time>2022-03-06T09:50:56Z</time>
      </trkpt>
      <trkpt lat="46.26408" lon="6.8263">
        <ele>1442.8</ele>
        <time>2022-03-06T09:50:57Z</time>
      </trkpt>
      <trkpt lat="46.26409" lon="6.8263">
        <ele>1443.2</ele>
        <time>2022-03-06T09:50:58Z</time>
      </trkpt>
      <trkpt lat="46.26409" lon="6.82629">
        <ele>1443.2</ele>
        <time>2022-03-06T09:50:59Z</time>
      </trkpt>
      <trkpt lat="46.2641" lon="6.82629">
        <ele>1443.6</ele>
        <time>2022-03-06T09:51:00Z</time>
      </trkpt>
      <trkpt lat="46.2641" lon="6.82629">
        <ele>1443.8</ele>
        <time>2022-03-06T09:51:01Z</time>
      </trkpt>
      <trkpt lat="46.26411" lon="6.82628">
        <ele>1443.8</ele>
        <time>2022-03-06T09:51:02Z</time>
      </trkpt>
      <trkpt lat="46.26412" lon="6.82628">
        <ele>1444.2</ele>
        <time>2022-03-06T09:51:03Z</time>
      </trkpt>
      <trkpt lat="46.26412" lon="6.82629">
        <ele>1444.2</ele>
        <time>2022-03-06T09:51:04Z</time>
      </trkpt>
      <trkpt lat="46.26413" lon="6.82629">
        <ele>1444.4</ele>
        <time>2022-03-06T09:51:05Z</time>
      </trkpt>
      <trkpt lat="46.26414" lon="6.82628">
        <ele>1444.8</ele>
        <time>2022-03-06T09:51:06Z</time>
      </trkpt>
      <trkpt lat="46.26414" lon="6.82629">
        <ele>1445</ele>
        <time>2022-03-06T09:51:07Z</time>
      </trkpt>
      <trkpt lat="46.26415" lon="6.82629">
        <ele>1445</ele>
        <time>2022-03-06T09:51:08Z</time>
      </trkpt>
      <trkpt lat="46.26415" lon="6.82629">
        <ele>1445</ele>
        <time>2022-03-06T09:51:09Z</time>
      </trkpt>
      <trkpt lat="46.26416" lon="6.82629">
        <ele>1445.2</ele>
        <time>2022-03-06T09:51:10Z</time>
      </trkpt>
      <trkpt lat="46.26417" lon="6.82628">
        <ele>1445.4</ele>
        <time>2022-03-06T09:51:11Z</time>
      </trkpt>
      <trkpt lat="46.26418" lon="6.82628">
        <ele>1445.4</ele>
        <time>2022-03-06T09:51:12Z</time>
      </trkpt>
      <trkpt lat="46.26419" lon="6.82628">
        <ele>1445.6</ele>
        <time>2022-03-06T09:51:13Z</time>
      </trkpt>
      <trkpt lat="46.26419" lon="6.82628">
        <ele>1445.8</ele>
        <time>2022-03-06T09:51:14Z</time>
      </trkpt>
      <trkpt lat="46.2642" lon="6.82629">
        <ele>1445.8</ele>
        <time>2022-03-06T09:51:15Z</time>
      </trkpt>
      <trkpt lat="46.26421" lon="6.82629">
        <ele>1446.2</ele>
        <time>2022-03-06T09:51:16Z</time>
      </trkpt>
      <trkpt lat="46.26422" lon="6.82629">
        <ele>1446.2</ele>
        <time>2022-03-06T09:51:17Z</time>
      </trkpt>
      <trkpt lat="46.26423" lon="6.82629">
        <ele>1446.6</ele>
        <time>2022-03-06T09:51:18Z</time>
      </trkpt>
      <trkpt lat="46.26423" lon="6.82629">
        <ele>1446.8</ele>
        <time>2022-03-06T09:51:19Z</time>
      </trkpt>
      <trkpt lat="46.26424" lon="6.82629">
        <ele>1447</ele>
        <time>2022-03-06T09:51:20Z</time>
      </trkpt>
      <trkpt lat="46.26425" lon="6.82629">
        <ele>1447</ele>
        <time>2022-03-06T09:51:21Z</time>
      </trkpt>
      <trkpt lat="46.26426" lon="6.8263">
        <ele>1447.2</ele>
        <time>2022-03-06T09:51:22Z</time>
      </trkpt>
      <trkpt lat="46.26427" lon="6.8263">
        <ele>1447.2</ele>
        <time>2022-03-06T09:51:23Z</time>
      </trkpt>
      <trkpt lat="46.26428" lon="6.8263">
        <ele>1447.4</ele>
        <time>2022-03-06T09:51:24Z</time>
      </trkpt>
      <trkpt lat="46.26429" lon="6.82629">
        <ele>1447.6</ele>
        <time>2022-03-06T09:51:25Z</time>
      </trkpt>
      <trkpt lat="46.2643" lon="6.8263">
        <ele>1447.6</ele>
        <time>2022-03-06T09:51:26Z</time>
      </trkpt>
      <trkpt lat="46.26431" lon="6.8263">
        <ele>1448</ele>
        <time>2022-03-06T09:51:27Z</time>
      </trkpt>
      <trkpt lat="46.26432" lon="6.82629">
        <ele>1448.2</ele>
        <time>2022-03-06T09:51:28Z</time>
      </trkpt>
      <trkpt lat="46.26432" lon="6.82629">
        <ele>1448.4</ele>
        <time>2022-03-06T09:51:29Z</time>
      </trkpt>
      <trkpt lat="46.26433" lon="6.82629">
        <ele>1448.4</ele>
        <time>2022-03-06T09:51:30Z</time>
      </trkpt>
      <trkpt lat="46.26434" lon="6.82629">
        <ele>1448.6</ele>
        <time>2022-03-06T09:51:31Z</time>
      </trkpt>
      <trkpt lat="46.26435" lon="6.82629">
        <ele>1448.8</ele>
        <time>2022-03-06T09:51:32Z</time>
      </trkpt>
      <trkpt lat="46.26435" lon="6.82629">
        <ele>1449</ele>
        <time>2022-03-06T09:51:33Z</time>
      </trkpt>
      <trkpt lat="46.26436" lon="6.8263">
        <ele>1449.2</ele>
        <time>2022-03-06T09:51:34Z</time>
      </trkpt>
      <trkpt lat="46.26437" lon="6.8263">
        <ele>1449.2</ele>
        <time>2022-03-06T09:51:35Z</time>
      </trkpt>
      <trkpt lat="46.26437" lon="6.8263">
        <ele>1449.4</ele>
        <time>2022-03-06T09:51:36Z</time>
      </trkpt>
      <trkpt lat="46.26438" lon="6.8263">
        <ele>1449.6</ele>
        <time>2022-03-06T09:51:37Z</time>
      </trkpt>
      <trkpt lat="46.26439" lon="6.82629">
        <ele>1449.8</ele>
        <time>2022-03-06T09:51:38Z</time>
      </trkpt>
      <trkpt lat="46.2644" lon="6.82629">
        <ele>1450</ele>
        <time>2022-03-06T09:51:39Z</time>
      </trkpt>
      <trkpt lat="46.26441" lon="6.82629">
        <ele>1450.2</ele>
        <time>2022-03-06T09:51:40Z</time>
      </trkpt>
      <trkpt lat="46.26441" lon="6.8263">
        <ele>1450.4</ele>
        <time>2022-03-06T09:51:41Z</time>
      </trkpt>
      <trkpt lat="46.26442" lon="6.8263">
        <ele>1450.6</ele>
        <time>2022-03-06T09:51:42Z</time>
      </trkpt>
      <trkpt lat="46.26443" lon="6.8263">
        <ele>1451</ele>
        <time>2022-03-06T09:51:43Z</time>
      </trkpt>
      <trkpt lat="46.26444" lon="6.8263">
        <ele>1451</ele>
        <time>2022-03-06T09:51:44Z</time>
      </trkpt>
      <trkpt lat="46.26445" lon="6.8263">
        <ele>1451.4</ele>
        <time>2022-03-06T09:51:45Z</time>
      </trkpt>
      <trkpt lat="46.26445" lon="6.82631">
        <ele>1451.4</ele>
        <time>2022-03-06T09:51:46Z</time>
      </trkpt>
      <trkpt lat="46.26446" lon="6.8263">
        <ele>1451.8</ele>
        <time>2022-03-06T09:51:47Z</time>
      </trkpt>
      <trkpt lat="46.26447" lon="6.82631">
        <ele>1451.8</ele>
        <time>2022-03-06T09:51:48Z</time>
      </trkpt>
      <trkpt lat="46.26448" lon="6.82631">
        <ele>1452</ele>
        <time>2022-03-06T09:51:49Z</time>
      </trkpt>
      <trkpt lat="46.26449" lon="6.8263">
        <ele>1452.2</ele>
        <time>2022-03-06T09:51:50Z</time>
      </trkpt>
      <trkpt lat="46.2645" lon="6.8263">
        <ele>1452.4</ele>
        <time>2022-03-06T09:51:51Z</time>
      </trkpt>
      <trkpt lat="46.26451" lon="6.8263">
        <ele>1452.6</ele>
        <time>2022-03-06T09:51:52Z</time>
      </trkpt>
      <trkpt lat="46.26452" lon="6.8263">
        <ele>1452.8</ele>
        <time>2022-03-06T09:51:53Z</time>
      </trkpt>
      <trkpt lat="46.26452" lon="6.8263">
        <ele>1453</ele>
        <time>2022-03-06T09:51:54Z</time>
      </trkpt>
      <trkpt lat="46.26453" lon="6.8263">
        <ele>1453</ele>
        <time>2022-03-06T09:51:55Z</time>
      </trkpt>
      <trkpt lat="46.26454" lon="6.82629">
        <ele>1453.4</ele>
        <time>2022-03-06T09:51:56Z</time>
      </trkpt>
      <trkpt lat="46.26455" lon="6.82629">
        <ele>1453.4</ele>
        <time>2022-03-06T09:51:57Z</time>
      </trkpt>
      <trkpt lat="46.26455" lon="6.82629">
        <ele>1453.6</ele>
        <time>2022-03-06T09:51:58Z</time>
      </trkpt>
      <trkpt lat="46.26456" lon="6.82629">
        <ele>1453.8</ele>
        <time>2022-03-06T09:51:59Z</time>
      </trkpt>
      <trkpt lat="46.26457" lon="6.82628">
        <ele>1453.8</ele>
        <time>2022-03-06T09:52:00Z</time>
      </trkpt>
      <trkpt lat="46.26456" lon="6.82628">
        <ele>1454.2</ele>
        <time>2022-03-06T09:52:01Z</time>
      </trkpt>
      <trkpt lat="46.26457" lon="6.82628">
        <ele>1454.4</ele>
        <time>2022-03-06T09:52:02Z</time>
      </trkpt>
      <trkpt lat="46.26457" lon="6.82628">
        <ele>1454.4</ele>
        <time>2022-03-06T09:52:03Z</time>
      </trkpt>
      <trkpt lat="46.26457" lon="6.82628">
        <ele>1454.6</ele>
        <time>2022-03-06T09:52:04Z</time>
      </trkpt>
      <trkpt lat="46.26457" lon="6.82628">
        <ele>1454.6</ele>
        <time>2022-03-06T09:52:05Z</time>
      </trkpt>
      <trkpt lat="46.26457" lon="6.82628">
        <ele>1455</ele>
        <time>2022-03-06T09:52:06Z</time>
      </trkpt>
      <trkpt lat="46.26457" lon="6.82628">
        <ele>1456</ele>
        <time>2022-03-06T09:52:13Z</time>
      </trkpt>
      <trkpt lat="46.26456" lon="6.82633">
        <ele>1456.2</ele>
        <time>2022-03-06T09:52:26Z</time>
      </trkpt>
      <trkpt lat="46.26456" lon="6.82633">
        <ele>1456.2</ele>
        <time>2022-03-06T09:52:29Z</time>
      </trkpt>
      <trkpt lat="46.26456" lon="6.82633">
        <ele>1456</ele>
        <time>2022-03-06T09:52:41Z</time>
      </trkpt>
      <trkpt lat="46.26457" lon="6.82633">
        <ele>1456.2</ele>
        <time>2022-03-06T09:52:50Z</time>
      </trkpt>
      <trkpt lat="46.26457" lon="6.82633">
        <ele>1456.4</ele>
        <time>2022-03-06T09:52:57Z</time>
      </trkpt>
      <trkpt lat="46.26457" lon="6.82633">
        <ele>1456.4</ele>
        <time>2022-03-06T09:52:59Z</time>
      </trkpt>
      <trkpt lat="46.26458" lon="6.82636">
        <ele>1456.4</ele>
        <time>2022-03-06T09:53:05Z</time>
      </trkpt>
      <trkpt lat="46.2646" lon="6.82636">
        <ele>1456.4</ele>
        <time>2022-03-06T09:53:07Z</time>
      </trkpt>
      <trkpt lat="46.2646" lon="6.82636">
        <ele>1456.4</ele>
        <time>2022-03-06T09:53:08Z</time>
      </trkpt>
      <trkpt lat="46.2646" lon="6.82637">
        <ele>1456.4</ele>
        <time>2022-03-06T09:53:15Z</time>
      </trkpt>
      <trkpt lat="46.2646" lon="6.82637">
        <ele>1457</ele>
        <time>2022-03-06T09:53:18Z</time>
      </trkpt>
      <trkpt lat="46.2646" lon="6.82636">
        <ele>1457.2</ele>
        <time>2022-03-06T09:53:21Z</time>
      </trkpt>
      <trkpt lat="46.2646" lon="6.82636">
        <ele>1457.4</ele>
        <time>2022-03-06T09:53:29Z</time>
      </trkpt>
      <trkpt lat="46.26463" lon="6.82641">
        <ele>1457.6</ele>
        <time>2022-03-06T09:53:42Z</time>
      </trkpt>
      <trkpt lat="46.26464" lon="6.82641">
        <ele>1457.8</ele>
        <time>2022-03-06T09:53:43Z</time>
      </trkpt>
      <trkpt lat="46.26465" lon="6.8264">
        <ele>1457.8</ele>
        <time>2022-03-06T09:53:45Z</time>
      </trkpt>
      <trkpt lat="46.26466" lon="6.8264">
        <ele>1457.8</ele>
        <time>2022-03-06T09:53:46Z</time>
      </trkpt>
      <trkpt lat="46.26467" lon="6.8264">
        <ele>1457.8</ele>
        <time>2022-03-06T09:53:47Z</time>
      </trkpt>
      <trkpt lat="46.26471" lon="6.8264">
        <ele>1457.8</ele>
        <time>2022-03-06T09:53:52Z</time>
      </trkpt>
      <trkpt lat="46.26472" lon="6.82639">
        <ele>1458</ele>
        <time>2022-03-06T09:53:53Z</time>
      </trkpt>
      <trkpt lat="46.26473" lon="6.82639">
        <ele>1458.2</ele>
        <time>2022-03-06T09:53:54Z</time>
      </trkpt>
      <trkpt lat="46.26474" lon="6.82639">
        <ele>1458.4</ele>
        <time>2022-03-06T09:53:55Z</time>
      </trkpt>
      <trkpt lat="46.26474" lon="6.82639">
        <ele>1458.8</ele>
        <time>2022-03-06T09:53:56Z</time>
      </trkpt>
      <trkpt lat="46.26475" lon="6.82639">
        <ele>1459</ele>
        <time>2022-03-06T09:53:57Z</time>
      </trkpt>
      <trkpt lat="46.26475" lon="6.82639">
        <ele>1459.2</ele>
        <time>2022-03-06T09:53:58Z</time>
      </trkpt>
      <trkpt lat="46.26476" lon="6.82639">
        <ele>1459.4</ele>
        <time>2022-03-06T09:53:59Z</time>
      </trkpt>
      <trkpt lat="46.26477" lon="6.82639">
        <ele>1459.6</ele>
        <time>2022-03-06T09:54:00Z</time>
      </trkpt>
      <trkpt lat="46.26478" lon="6.82639">
        <ele>1459.8</ele>
        <time>2022-03-06T09:54:01Z</time>
      </trkpt>
      <trkpt lat="46.26479" lon="6.82639">
        <ele>1460.2</ele>
        <time>2022-03-06T09:54:02Z</time>
      </trkpt>
      <trkpt lat="46.26479" lon="6.82639">
        <ele>1460.2</ele>
        <time>2022-03-06T09:54:03Z</time>
      </trkpt>
      <trkpt lat="46.2648" lon="6.82639">
        <ele>1460.8</ele>
        <time>2022-03-06T09:54:04Z</time>
      </trkpt>
      <trkpt lat="46.26481" lon="6.82639">
        <ele>1461</ele>
        <time>2022-03-06T09:54:05Z</time>
      </trkpt>
      <trkpt lat="46.26482" lon="6.82639">
        <ele>1461.2</ele>
        <time>2022-03-06T09:54:06Z</time>
      </trkpt>
      <trkpt lat="46.26483" lon="6.82639">
        <ele>1461.2</ele>
        <time>2022-03-06T09:54:07Z</time>
      </trkpt>
      <trkpt lat="46.26483" lon="6.82639">
        <ele>1461.6</ele>
        <time>2022-03-06T09:54:08Z</time>
      </trkpt>
      <trkpt lat="46.26484" lon="6.82639">
        <ele>1461.8</ele>
        <time>2022-03-06T09:54:09Z</time>
      </trkpt>
      <trkpt lat="46.26485" lon="6.82639">
        <ele>1462</ele>
        <time>2022-03-06T09:54:10Z</time>
      </trkpt>
      <trkpt lat="46.26484" lon="6.82639">
        <ele>1462.2</ele>
        <time>2022-03-06T09:54:11Z</time>
      </trkpt>
      <trkpt lat="46.26485" lon="6.82639">
        <ele>1462.4</ele>
        <time>2022-03-06T09:54:12Z</time>
      </trkpt>
      <trkpt lat="46.26485" lon="6.82639">
        <ele>1462.6</ele>
        <time>2022-03-06T09:54:13Z</time>
      </trkpt>
      <trkpt lat="46.26486" lon="6.82639">
        <ele>1462.8</ele>
        <time>2022-03-06T09:54:15Z</time>
      </trkpt>
      <trkpt lat="46.26486" lon="6.82639">
        <ele>1463.4</ele>
        <time>2022-03-06T09:54:18Z</time>
      </trkpt>
      <trkpt lat="46.26488" lon="6.82638">
        <ele>1464</ele>
        <time>2022-03-06T09:54:24Z</time>
      </trkpt>
      <trkpt lat="46.26489" lon="6.82638">
        <ele>1464.2</ele>
        <time>2022-03-06T09:54:27Z</time>
      </trkpt>
      <trkpt lat="46.26489" lon="6.82638">
        <ele>1464.2</ele>
        <time>2022-03-06T09:54:28Z</time>
      </trkpt>
      <trkpt lat="46.2649" lon="6.82638">
        <ele>1464.2</ele>
        <time>2022-03-06T09:54:29Z</time>
      </trkpt>
      <trkpt lat="46.2649" lon="6.82637">
        <ele>1464.2</ele>
        <time>2022-03-06T09:54:30Z</time>
      </trkpt>
      <trkpt lat="46.26491" lon="6.82637">
        <ele>1464.4</ele>
        <time>2022-03-06T09:54:31Z</time>
      </trkpt>
      <trkpt lat="46.26492" lon="6.82637">
        <ele>1464.6</ele>
        <time>2022-03-06T09:54:32Z</time>
      </trkpt>
      <trkpt lat="46.26493" lon="6.82638">
        <ele>1464.8</ele>
        <time>2022-03-06T09:54:33Z</time>
      </trkpt>
      <trkpt lat="46.26494" lon="6.82638">
        <ele>1465</ele>
        <time>2022-03-06T09:54:34Z</time>
      </trkpt>
      <trkpt lat="46.26494" lon="6.82639">
        <ele>1465</ele>
        <time>2022-03-06T09:54:35Z</time>
      </trkpt>
      <trkpt lat="46.26495" lon="6.8264">
        <ele>1465.2</ele>
        <time>2022-03-06T09:54:36Z</time>
      </trkpt>
      <trkpt lat="46.26496" lon="6.8264">
        <ele>1465.2</ele>
        <time>2022-03-06T09:54:37Z</time>
      </trkpt>
      <trkpt lat="46.26496" lon="6.8264">
        <ele>1465.2</ele>
        <time>2022-03-06T09:54:38Z</time>
      </trkpt>
      <trkpt lat="46.26497" lon="6.8264">
        <ele>1465.6</ele>
        <time>2022-03-06T09:54:39Z</time>
      </trkpt>
      <trkpt lat="46.26498" lon="6.8264">
        <ele>1465.6</ele>
        <time>2022-03-06T09:54:40Z</time>
      </trkpt>
      <trkpt lat="46.26499" lon="6.8264">
        <ele>1466</ele>
        <time>2022-03-06T09:54:41Z</time>
      </trkpt>
      <trkpt lat="46.265" lon="6.8264">
        <ele>1466.2</ele>
        <time>2022-03-06T09:54:42Z</time>
      </trkpt>
      <trkpt lat="46.26501" lon="6.82639">
        <ele>1466.6</ele>
        <time>2022-03-06T09:54:43Z</time>
      </trkpt>
      <trkpt lat="46.26502" lon="6.82639">
        <ele>1466.6</ele>
        <time>2022-03-06T09:54:44Z</time>
      </trkpt>
      <trkpt lat="46.26502" lon="6.82638">
        <ele>1466.8</ele>
        <time>2022-03-06T09:54:45Z</time>
      </trkpt>
      <trkpt lat="46.26503" lon="6.82638">
        <ele>1467</ele>
        <time>2022-03-06T09:54:46Z</time>
      </trkpt>
      <trkpt lat="46.26504" lon="6.82638">
        <ele>1467.2</ele>
        <time>2022-03-06T09:54:47Z</time>
      </trkpt>
      <trkpt lat="46.26505" lon="6.82637">
        <ele>1467.2</ele>
        <time>2022-03-06T09:54:48Z</time>
      </trkpt>
      <trkpt lat="46.26506" lon="6.82636">
        <ele>1467.4</ele>
        <time>2022-03-06T09:54:49Z</time>
      </trkpt>
      <trkpt lat="46.26506" lon="6.82636">
        <ele>1467.6</ele>
        <time>2022-03-06T09:54:50Z</time>
      </trkpt>
      <trkpt lat="46.26507" lon="6.82636">
        <ele>1467.6</ele>
        <time>2022-03-06T09:54:51Z</time>
      </trkpt>
      <trkpt lat="46.26508" lon="6.82635">
        <ele>1467.8</ele>
        <time>2022-03-06T09:54:52Z</time>
      </trkpt>
      <trkpt lat="46.26509" lon="6.82635">
        <ele>1468.2</ele>
        <time>2022-03-06T09:54:53Z</time>
      </trkpt>
      <trkpt lat="46.26509" lon="6.82635">
        <ele>1468.2</ele>
        <time>2022-03-06T09:54:54Z</time>
      </trkpt>
      <trkpt lat="46.2651" lon="6.82635">
        <ele>1468.2</ele>
        <time>2022-03-06T09:54:55Z</time>
      </trkpt>
      <trkpt lat="46.2651" lon="6.82636">
        <ele>1468.6</ele>
        <time>2022-03-06T09:54:56Z</time>
      </trkpt>
      <trkpt lat="46.2651" lon="6.82636">
        <ele>1468.8</ele>
        <time>2022-03-06T09:54:57Z</time>
      </trkpt>
      <trkpt lat="46.26511" lon="6.82636">
        <ele>1468.8</ele>
        <time>2022-03-06T09:54:58Z</time>
      </trkpt>
      <trkpt lat="46.26511" lon="6.82636">
        <ele>1469</ele>
        <time>2022-03-06T09:54:59Z</time>
      </trkpt>
      <trkpt lat="46.26512" lon="6.82636">
        <ele>1469</ele>
        <time>2022-03-06T09:55:00Z</time>
      </trkpt>
      <trkpt lat="46.26513" lon="6.82636">
        <ele>1469.2</ele>
        <time>2022-03-06T09:55:01Z</time>
      </trkpt>
      <trkpt lat="46.26515" lon="6.82636">
        <ele>1469.2</ele>
        <time>2022-03-06T09:55:02Z</time>
      </trkpt>
      <trkpt lat="46.26516" lon="6.82636">
        <ele>1469.4</ele>
        <time>2022-03-06T09:55:03Z</time>
      </trkpt>
      <trkpt lat="46.26517" lon="6.82636">
        <ele>1469.6</ele>
        <time>2022-03-06T09:55:04Z</time>
      </trkpt>
      <trkpt lat="46.26518" lon="6.82635">
        <ele>1469.8</ele>
        <time>2022-03-06T09:55:05Z</time>
      </trkpt>
      <trkpt lat="46.26518" lon="6.82636">
        <ele>1469.8</ele>
        <time>2022-03-06T09:55:06Z</time>
      </trkpt>
      <trkpt lat="46.26519" lon="6.82636">
        <ele>1469.8</ele>
        <time>2022-03-06T09:55:07Z</time>
      </trkpt>
      <trkpt lat="46.2652" lon="6.82635">
        <ele>1469.8</ele>
        <time>2022-03-06T09:55:08Z</time>
      </trkpt>
      <trkpt lat="46.2652" lon="6.82634">
        <ele>1470.2</ele>
        <time>2022-03-06T09:55:09Z</time>
      </trkpt>
      <trkpt lat="46.26521" lon="6.82634">
        <ele>1470.2</ele>
        <time>2022-03-06T09:55:10Z</time>
      </trkpt>
      <trkpt lat="46.26521" lon="6.82634">
        <ele>1470.2</ele>
        <time>2022-03-06T09:55:11Z</time>
      </trkpt>
      <trkpt lat="46.26522" lon="6.82633">
        <ele>1470.4</ele>
        <time>2022-03-06T09:55:12Z</time>
      </trkpt>
      <trkpt lat="46.26522" lon="6.82632">
        <ele>1470.6</ele>
        <time>2022-03-06T09:55:13Z</time>
      </trkpt>
      <trkpt lat="46.26523" lon="6.82632">
        <ele>1471</ele>
        <time>2022-03-06T09:55:14Z</time>
      </trkpt>
      <trkpt lat="46.26523" lon="6.82631">
        <ele>1471</ele>
        <time>2022-03-06T09:55:15Z</time>
      </trkpt>
      <trkpt lat="46.26524" lon="6.82631">
        <ele>1471.4</ele>
        <time>2022-03-06T09:55:16Z</time>
      </trkpt>
      <trkpt lat="46.26525" lon="6.8263">
        <ele>1471.4</ele>
        <time>2022-03-06T09:55:17Z</time>
      </trkpt>
      <trkpt lat="46.26525" lon="6.8263">
        <ele>1471.6</ele>
        <time>2022-03-06T09:55:18Z</time>
      </trkpt>
      <trkpt lat="46.26526" lon="6.8263">
        <ele>1471.8</ele>
        <time>2022-03-06T09:55:19Z</time>
      </trkpt>
      <trkpt lat="46.26527" lon="6.8263">
        <ele>1472</ele>
        <time>2022-03-06T09:55:20Z</time>
      </trkpt>
      <trkpt lat="46.26527" lon="6.82629">
        <ele>1472.4</ele>
        <time>2022-03-06T09:55:21Z</time>
      </trkpt>
      <trkpt lat="46.26528" lon="6.82629">
        <ele>1472.6</ele>
        <time>2022-03-06T09:55:22Z</time>
      </trkpt>
      <trkpt lat="46.26528" lon="6.82629">
        <ele>1472.6</ele>
        <time>2022-03-06T09:55:23Z</time>
      </trkpt>
      <trkpt lat="46.26529" lon="6.8263">
        <ele>1472.8</ele>
        <time>2022-03-06T09:55:24Z</time>
      </trkpt>
      <trkpt lat="46.26529" lon="6.8263">
        <ele>1473</ele>
        <time>2022-03-06T09:55:25Z</time>
      </trkpt>
      <trkpt lat="46.2653" lon="6.82631">
        <ele>1473.4</ele>
        <time>2022-03-06T09:55:26Z</time>
      </trkpt>
      <trkpt lat="46.2653" lon="6.82631">
        <ele>1473.4</ele>
        <time>2022-03-06T09:55:27Z</time>
      </trkpt>
      <trkpt lat="46.26531" lon="6.82631">
        <ele>1473.8</ele>
        <time>2022-03-06T09:55:28Z</time>
      </trkpt>
      <trkpt lat="46.26532" lon="6.82631">
        <ele>1474</ele>
        <time>2022-03-06T09:55:29Z</time>
      </trkpt>
      <trkpt lat="46.26532" lon="6.82631">
        <ele>1474.2</ele>
        <time>2022-03-06T09:55:30Z</time>
      </trkpt>
      <trkpt lat="46.26533" lon="6.82631">
        <ele>1474.6</ele>
        <time>2022-03-06T09:55:31Z</time>
      </trkpt>
      <trkpt lat="46.26534" lon="6.82631">
        <ele>1474.6</ele>
        <time>2022-03-06T09:55:32Z</time>
      </trkpt>
      <trkpt lat="46.26535" lon="6.8263">
        <ele>1474.8</ele>
        <time>2022-03-06T09:55:33Z</time>
      </trkpt>
      <trkpt lat="46.26536" lon="6.8263">
        <ele>1475.2</ele>
        <time>2022-03-06T09:55:34Z</time>
      </trkpt>
      <trkpt lat="46.26537" lon="6.8263">
        <ele>1475.4</ele>
        <time>2022-03-06T09:55:35Z</time>
      </trkpt>
      <trkpt lat="46.26537" lon="6.8263">
        <ele>1475.6</ele>
        <time>2022-03-06T09:55:36Z</time>
      </trkpt>
      <trkpt lat="46.26538" lon="6.82629">
        <ele>1475.6</ele>
        <time>2022-03-06T09:55:37Z</time>
      </trkpt>
      <trkpt lat="46.26538" lon="6.82629">
        <ele>1475.8</ele>
        <time>2022-03-06T09:55:38Z</time>
      </trkpt>
      <trkpt lat="46.26539" lon="6.82629">
        <ele>1476.2</ele>
        <time>2022-03-06T09:55:39Z</time>
      </trkpt>
      <trkpt lat="46.2654" lon="6.82629">
        <ele>1476.4</ele>
        <time>2022-03-06T09:55:40Z</time>
      </trkpt>
      <trkpt lat="46.26541" lon="6.82628">
        <ele>1476.6</ele>
        <time>2022-03-06T09:55:41Z</time>
      </trkpt>
      <trkpt lat="46.26542" lon="6.82628">
        <ele>1476.8</ele>
        <time>2022-03-06T09:55:42Z</time>
      </trkpt>
      <trkpt lat="46.26542" lon="6.82628">
        <ele>1476.8</ele>
        <time>2022-03-06T09:55:43Z</time>
      </trkpt>
      <trkpt lat="46.26543" lon="6.82627">
        <ele>1477</ele>
        <time>2022-03-06T09:55:44Z</time>
      </trkpt>
      <trkpt lat="46.26544" lon="6.82627">
        <ele>1477</ele>
        <time>2022-03-06T09:55:45Z</time>
      </trkpt>
      <trkpt lat="46.26545" lon="6.82627">
        <ele>1477.2</ele>
        <time>2022-03-06T09:55:46Z</time>
      </trkpt>
      <trkpt lat="46.26546" lon="6.82626">
        <ele>1477.6</ele>
        <time>2022-03-06T09:55:47Z</time>
      </trkpt>
      <trkpt lat="46.26547" lon="6.82625">
        <ele>1477.8</ele>
        <time>2022-03-06T09:55:48Z</time>
      </trkpt>
      <trkpt lat="46.26547" lon="6.82625">
        <ele>1478</ele>
        <time>2022-03-06T09:55:49Z</time>
      </trkpt>
      <trkpt lat="46.26547" lon="6.82624">
        <ele>1478.2</ele>
        <time>2022-03-06T09:55:50Z</time>
      </trkpt>
      <trkpt lat="46.26548" lon="6.82624">
        <ele>1478.4</ele>
        <time>2022-03-06T09:55:51Z</time>
      </trkpt>
      <trkpt lat="46.26549" lon="6.82623">
        <ele>1478.6</ele>
        <time>2022-03-06T09:55:52Z</time>
      </trkpt>
      <trkpt lat="46.2655" lon="6.82622">
        <ele>1478.8</ele>
        <time>2022-03-06T09:55:53Z</time>
      </trkpt>
      <trkpt lat="46.2655" lon="6.82621">
        <ele>1479</ele>
        <time>2022-03-06T09:55:54Z</time>
      </trkpt>
      <trkpt lat="46.26551" lon="6.82621">
        <ele>1479.4</ele>
        <time>2022-03-06T09:55:55Z</time>
      </trkpt>
      <trkpt lat="46.26552" lon="6.8262">
        <ele>1479.6</ele>
        <time>2022-03-06T09:55:56Z</time>
      </trkpt>
      <trkpt lat="46.26552" lon="6.82621">
        <ele>1479.8</ele>
        <time>2022-03-06T09:55:57Z</time>
      </trkpt>
      <trkpt lat="46.26553" lon="6.82621">
        <ele>1480.2</ele>
        <time>2022-03-06T09:55:58Z</time>
      </trkpt>
      <trkpt lat="46.26553" lon="6.8262">
        <ele>1480.4</ele>
        <time>2022-03-06T09:55:59Z</time>
      </trkpt>
      <trkpt lat="46.26554" lon="6.8262">
        <ele>1480.6</ele>
        <time>2022-03-06T09:56:00Z</time>
      </trkpt>
      <trkpt lat="46.26555" lon="6.8262">
        <ele>1481</ele>
        <time>2022-03-06T09:56:01Z</time>
      </trkpt>
      <trkpt lat="46.26556" lon="6.8262">
        <ele>1481.2</ele>
        <time>2022-03-06T09:56:02Z</time>
      </trkpt>
      <trkpt lat="46.26556" lon="6.8262">
        <ele>1481.4</ele>
        <time>2022-03-06T09:56:03Z</time>
      </trkpt>
      <trkpt lat="46.26557" lon="6.82619">
        <ele>1481.8</ele>
        <time>2022-03-06T09:56:04Z</time>
      </trkpt>
      <trkpt lat="46.26557" lon="6.82618">
        <ele>1482</ele>
        <time>2022-03-06T09:56:05Z</time>
      </trkpt>
      <trkpt lat="46.26558" lon="6.82617">
        <ele>1482.2</ele>
        <time>2022-03-06T09:56:06Z</time>
      </trkpt>
      <trkpt lat="46.26559" lon="6.82617">
        <ele>1482.6</ele>
        <time>2022-03-06T09:56:07Z</time>
      </trkpt>
      <trkpt lat="46.26559" lon="6.82617">
        <ele>1482.6</ele>
        <time>2022-03-06T09:56:08Z</time>
      </trkpt>
      <trkpt lat="46.2656" lon="6.82616">
        <ele>1482.8</ele>
        <time>2022-03-06T09:56:09Z</time>
      </trkpt>
      <trkpt lat="46.26561" lon="6.82616">
        <ele>1483.2</ele>
        <time>2022-03-06T09:56:10Z</time>
      </trkpt>
      <trkpt lat="46.26562" lon="6.82616">
        <ele>1483.4</ele>
        <time>2022-03-06T09:56:11Z</time>
      </trkpt>
      <trkpt lat="46.26562" lon="6.82615">
        <ele>1483.4</ele>
        <time>2022-03-06T09:56:12Z</time>
      </trkpt>
      <trkpt lat="46.26563" lon="6.82614">
        <ele>1483.8</ele>
        <time>2022-03-06T09:56:13Z</time>
      </trkpt>
      <trkpt lat="46.26563" lon="6.82612">
        <ele>1484</ele>
        <time>2022-03-06T09:56:14Z</time>
      </trkpt>
      <trkpt lat="46.26564" lon="6.8261">
        <ele>1484.4</ele>
        <time>2022-03-06T09:56:15Z</time>
      </trkpt>
      <trkpt lat="46.26565" lon="6.82608">
        <ele>1484.4</ele>
        <time>2022-03-06T09:56:16Z</time>
      </trkpt>
      <trkpt lat="46.26565" lon="6.82606">
        <ele>1484.8</ele>
        <time>2022-03-06T09:56:17Z</time>
      </trkpt>
      <trkpt lat="46.26566" lon="6.82605">
        <ele>1485</ele>
        <time>2022-03-06T09:56:18Z</time>
      </trkpt>
      <trkpt lat="46.26566" lon="6.82603">
        <ele>1485.2</ele>
        <time>2022-03-06T09:56:19Z</time>
      </trkpt>
      <trkpt lat="46.26567" lon="6.82602">
        <ele>1485.6</ele>
        <time>2022-03-06T09:56:20Z</time>
      </trkpt>
      <trkpt lat="46.26567" lon="6.82601">
        <ele>1485.6</ele>
        <time>2022-03-06T09:56:21Z</time>
      </trkpt>
      <trkpt lat="46.26568" lon="6.826">
        <ele>1485.8</ele>
        <time>2022-03-06T09:56:22Z</time>
      </trkpt>
      <trkpt lat="46.26568" lon="6.826">
        <ele>1486</ele>
        <time>2022-03-06T09:56:23Z</time>
      </trkpt>
      <trkpt lat="46.26568" lon="6.826">
        <ele>1486.2</ele>
        <time>2022-03-06T09:56:24Z</time>
      </trkpt>
      <trkpt lat="46.26569" lon="6.826">
        <ele>1486.4</ele>
        <time>2022-03-06T09:56:25Z</time>
      </trkpt>
      <trkpt lat="46.26569" lon="6.82599">
        <ele>1486.6</ele>
        <time>2022-03-06T09:56:26Z</time>
      </trkpt>
      <trkpt lat="46.2657" lon="6.82598">
        <ele>1486.8</ele>
        <time>2022-03-06T09:56:27Z</time>
      </trkpt>
      <trkpt lat="46.26571" lon="6.82598">
        <ele>1487.2</ele>
        <time>2022-03-06T09:56:28Z</time>
      </trkpt>
      <trkpt lat="46.26572" lon="6.82597">
        <ele>1487.2</ele>
        <time>2022-03-06T09:56:29Z</time>
      </trkpt>
      <trkpt lat="46.26572" lon="6.82597">
        <ele>1487.4</ele>
        <time>2022-03-06T09:56:30Z</time>
      </trkpt>
      <trkpt lat="46.26573" lon="6.82597">
        <ele>1487.4</ele>
        <time>2022-03-06T09:56:31Z</time>
      </trkpt>
      <trkpt lat="46.26573" lon="6.82597">
        <ele>1487.6</ele>
        <time>2022-03-06T09:56:32Z</time>
      </trkpt>
      <trkpt lat="46.26574" lon="6.82597">
        <ele>1487.8</ele>
        <time>2022-03-06T09:56:33Z</time>
      </trkpt>
      <trkpt lat="46.26574" lon="6.82596">
        <ele>1487.8</ele>
        <time>2022-03-06T09:56:34Z</time>
      </trkpt>
      <trkpt lat="46.26575" lon="6.82597">
        <ele>1488</ele>
        <time>2022-03-06T09:56:35Z</time>
      </trkpt>
      <trkpt lat="46.26575" lon="6.82597">
        <ele>1488.2</ele>
        <time>2022-03-06T09:56:36Z</time>
      </trkpt>
      <trkpt lat="46.26575" lon="6.82596">
        <ele>1488.4</ele>
        <time>2022-03-06T09:56:37Z</time>
      </trkpt>
      <trkpt lat="46.26576" lon="6.82596">
        <ele>1488.4</ele>
        <time>2022-03-06T09:56:38Z</time>
      </trkpt>
      <trkpt lat="46.26578" lon="6.82597">
        <ele>1488.6</ele>
        <time>2022-03-06T09:56:39Z</time>
      </trkpt>
      <trkpt lat="46.26579" lon="6.82597">
        <ele>1488.8</ele>
        <time>2022-03-06T09:56:40Z</time>
      </trkpt>
      <trkpt lat="46.2658" lon="6.82597">
        <ele>1488.8</ele>
        <time>2022-03-06T09:56:41Z</time>
      </trkpt>
      <trkpt lat="46.26581" lon="6.82596">
        <ele>1489.2</ele>
        <time>2022-03-06T09:56:42Z</time>
      </trkpt>
      <trkpt lat="46.26582" lon="6.82595">
        <ele>1489.4</ele>
        <time>2022-03-06T09:56:43Z</time>
      </trkpt>
      <trkpt lat="46.26583" lon="6.82593">
        <ele>1489.4</ele>
        <time>2022-03-06T09:56:44Z</time>
      </trkpt>
      <trkpt lat="46.26584" lon="6.82593">
        <ele>1489.6</ele>
        <time>2022-03-06T09:56:45Z</time>
      </trkpt>
      <trkpt lat="46.26584" lon="6.82593">
        <ele>1489.8</ele>
        <time>2022-03-06T09:56:46Z</time>
      </trkpt>
      <trkpt lat="46.26585" lon="6.82592">
        <ele>1490</ele>
        <time>2022-03-06T09:56:47Z</time>
      </trkpt>
      <trkpt lat="46.26586" lon="6.82591">
        <ele>1490</ele>
        <time>2022-03-06T09:56:48Z</time>
      </trkpt>
      <trkpt lat="46.26586" lon="6.82591">
        <ele>1490.2</ele>
        <time>2022-03-06T09:56:49Z</time>
      </trkpt>
      <trkpt lat="46.26586" lon="6.82591">
        <ele>1490.4</ele>
        <time>2022-03-06T09:56:50Z</time>
      </trkpt>
      <trkpt lat="46.26587" lon="6.8259">
        <ele>1490.6</ele>
        <time>2022-03-06T09:56:51Z</time>
      </trkpt>
      <trkpt lat="46.26588" lon="6.82589">
        <ele>1490.8</ele>
        <time>2022-03-06T09:56:52Z</time>
      </trkpt>
      <trkpt lat="46.26589" lon="6.82588">
        <ele>1490.8</ele>
        <time>2022-03-06T09:56:53Z</time>
      </trkpt>
      <trkpt lat="46.26589" lon="6.82587">
        <ele>1491</ele>
        <time>2022-03-06T09:56:54Z</time>
      </trkpt>
      <trkpt lat="46.2659" lon="6.82587">
        <ele>1491</ele>
        <time>2022-03-06T09:56:55Z</time>
      </trkpt>
      <trkpt lat="46.2659" lon="6.82587">
        <ele>1491.8</ele>
        <time>2022-03-06T09:56:58Z</time>
      </trkpt>
      <trkpt lat="46.26591" lon="6.82586">
        <ele>1493</ele>
        <time>2022-03-06T09:57:03Z</time>
      </trkpt>
      <trkpt lat="46.26592" lon="6.82584">
        <ele>1493.8</ele>
        <time>2022-03-06T09:57:07Z</time>
      </trkpt>
      <trkpt lat="46.26596" lon="6.82578">
        <ele>1494.6</ele>
        <time>2022-03-06T09:57:12Z</time>
      </trkpt>
      <trkpt lat="46.26597" lon="6.82577">
        <ele>1494.8</ele>
        <time>2022-03-06T09:57:13Z</time>
      </trkpt>
      <trkpt lat="46.26597" lon="6.82576">
        <ele>1495</ele>
        <time>2022-03-06T09:57:14Z</time>
      </trkpt>
      <trkpt lat="46.26597" lon="6.82575">
        <ele>1495.2</ele>
        <time>2022-03-06T09:57:16Z</time>
      </trkpt>
      <trkpt lat="46.26598" lon="6.82572">
        <ele>1495.4</ele>
        <time>2022-03-06T09:57:17Z</time>
      </trkpt>
      <trkpt lat="46.26598" lon="6.82572">
        <ele>1495.6</ele>
        <time>2022-03-06T09:57:18Z</time>
      </trkpt>
      <trkpt lat="46.26599" lon="6.82571">
        <ele>1495.6</ele>
        <time>2022-03-06T09:57:19Z</time>
      </trkpt>
      <trkpt lat="46.266" lon="6.82571">
        <ele>1496</ele>
        <time>2022-03-06T09:57:20Z</time>
      </trkpt>
      <trkpt lat="46.266" lon="6.8257">
        <ele>1496</ele>
        <time>2022-03-06T09:57:21Z</time>
      </trkpt>
      <trkpt lat="46.266" lon="6.82571">
        <ele>1496.2</ele>
        <time>2022-03-06T09:57:22Z</time>
      </trkpt>
      <trkpt lat="46.26601" lon="6.82569">
        <ele>1496.4</ele>
        <time>2022-03-06T09:57:23Z</time>
      </trkpt>
      <trkpt lat="46.26601" lon="6.82569">
        <ele>1496.8</ele>
        <time>2022-03-06T09:57:24Z</time>
      </trkpt>
      <trkpt lat="46.26602" lon="6.82568">
        <ele>1496.8</ele>
        <time>2022-03-06T09:57:25Z</time>
      </trkpt>
      <trkpt lat="46.26602" lon="6.82568">
        <ele>1497</ele>
        <time>2022-03-06T09:57:26Z</time>
      </trkpt>
      <trkpt lat="46.26603" lon="6.82567">
        <ele>1497.2</ele>
        <time>2022-03-06T09:57:27Z</time>
      </trkpt>
      <trkpt lat="46.26603" lon="6.82566">
        <ele>1497.4</ele>
        <time>2022-03-06T09:57:28Z</time>
      </trkpt>
      <trkpt lat="46.26604" lon="6.82566">
        <ele>1497.6</ele>
        <time>2022-03-06T09:57:29Z</time>
      </trkpt>
      <trkpt lat="46.26605" lon="6.82566">
        <ele>1497.8</ele>
        <time>2022-03-06T09:57:30Z</time>
      </trkpt>
      <trkpt lat="46.26608" lon="6.82563">
        <ele>1498</ele>
        <time>2022-03-06T09:57:31Z</time>
      </trkpt>
      <trkpt lat="46.26608" lon="6.82562">
        <ele>1498.2</ele>
        <time>2022-03-06T09:57:32Z</time>
      </trkpt>
      <trkpt lat="46.26609" lon="6.82561">
        <ele>1498.4</ele>
        <time>2022-03-06T09:57:33Z</time>
      </trkpt>
      <trkpt lat="46.2661" lon="6.8256">
        <ele>1498.6</ele>
        <time>2022-03-06T09:57:34Z</time>
      </trkpt>
      <trkpt lat="46.26611" lon="6.8256">
        <ele>1498.8</ele>
        <time>2022-03-06T09:57:35Z</time>
      </trkpt>
      <trkpt lat="46.26609" lon="6.82564">
        <ele>1499</ele>
        <time>2022-03-06T09:57:36Z</time>
      </trkpt>
      <trkpt lat="46.2661" lon="6.82564">
        <ele>1499.2</ele>
        <time>2022-03-06T09:57:37Z</time>
      </trkpt>
      <trkpt lat="46.26611" lon="6.82561">
        <ele>1499.2</ele>
        <time>2022-03-06T09:57:38Z</time>
      </trkpt>
      <trkpt lat="46.26613" lon="6.82559">
        <ele>1499.2</ele>
        <time>2022-03-06T09:57:39Z</time>
      </trkpt>
      <trkpt lat="46.26614" lon="6.82558">
        <ele>1499.4</ele>
        <time>2022-03-06T09:57:40Z</time>
      </trkpt>
      <trkpt lat="46.26615" lon="6.82556">
        <ele>1499.6</ele>
        <time>2022-03-06T09:57:41Z</time>
      </trkpt>
      <trkpt lat="46.26617" lon="6.82553">
        <ele>1499.8</ele>
        <time>2022-03-06T09:57:42Z</time>
      </trkpt>
      <trkpt lat="46.26618" lon="6.82552">
        <ele>1500</ele>
        <time>2022-03-06T09:57:43Z</time>
      </trkpt>
      <trkpt lat="46.26619" lon="6.82552">
        <ele>1500.2</ele>
        <time>2022-03-06T09:57:44Z</time>
      </trkpt>
      <trkpt lat="46.26618" lon="6.82554">
        <ele>1500.4</ele>
        <time>2022-03-06T09:57:45Z</time>
      </trkpt>
      <trkpt lat="46.26618" lon="6.82556">
        <ele>1500.6</ele>
        <time>2022-03-06T09:57:46Z</time>
      </trkpt>
      <trkpt lat="46.26618" lon="6.82556">
        <ele>1500.6</ele>
        <time>2022-03-06T09:57:47Z</time>
      </trkpt>
      <trkpt lat="46.26618" lon="6.82557">
        <ele>1500.8</ele>
        <time>2022-03-06T09:57:48Z</time>
      </trkpt>
      <trkpt lat="46.26617" lon="6.82557">
        <ele>1500.8</ele>
        <time>2022-03-06T09:57:49Z</time>
      </trkpt>
      <trkpt lat="46.26617" lon="6.82557">
        <ele>1501.2</ele>
        <time>2022-03-06T09:57:50Z</time>
      </trkpt>
      <trkpt lat="46.26618" lon="6.82558">
        <ele>1501.2</ele>
        <time>2022-03-06T09:57:51Z</time>
      </trkpt>
      <trkpt lat="46.26618" lon="6.82558">
        <ele>1501.4</ele>
        <time>2022-03-06T09:57:52Z</time>
      </trkpt>
      <trkpt lat="46.26618" lon="6.82559">
        <ele>1501.8</ele>
        <time>2022-03-06T09:57:53Z</time>
      </trkpt>
      <trkpt lat="46.26619" lon="6.82559">
        <ele>1502</ele>
        <time>2022-03-06T09:57:54Z</time>
      </trkpt>
      <trkpt lat="46.26619" lon="6.82562">
        <ele>1502.4</ele>
        <time>2022-03-06T09:57:55Z</time>
      </trkpt>
      <trkpt lat="46.26619" lon="6.82562">
        <ele>1502.6</ele>
        <time>2022-03-06T09:57:56Z</time>
      </trkpt>
      <trkpt lat="46.26619" lon="6.82563">
        <ele>1502.6</ele>
        <time>2022-03-06T09:57:57Z</time>
      </trkpt>
      <trkpt lat="46.2662" lon="6.82562">
        <ele>1502.8</ele>
        <time>2022-03-06T09:57:58Z</time>
      </trkpt>
      <trkpt lat="46.2662" lon="6.8256">
        <ele>1503</ele>
        <time>2022-03-06T09:57:59Z</time>
      </trkpt>
      <trkpt lat="46.26621" lon="6.82559">
        <ele>1503.2</ele>
        <time>2022-03-06T09:58:00Z</time>
      </trkpt>
      <trkpt lat="46.26622" lon="6.82559">
        <ele>1503.4</ele>
        <time>2022-03-06T09:58:01Z</time>
      </trkpt>
      <trkpt lat="46.26623" lon="6.82559">
        <ele>1503.4</ele>
        <time>2022-03-06T09:58:02Z</time>
      </trkpt>
      <trkpt lat="46.26624" lon="6.82559">
        <ele>1503.8</ele>
        <time>2022-03-06T09:58:03Z</time>
      </trkpt>
      <trkpt lat="46.26624" lon="6.82559">
        <ele>1503.8</ele>
        <time>2022-03-06T09:58:04Z</time>
      </trkpt>
      <trkpt lat="46.26625" lon="6.8256">
        <ele>1504.2</ele>
        <time>2022-03-06T09:58:05Z</time>
      </trkpt>
      <trkpt lat="46.26626" lon="6.8256">
        <ele>1504</ele>
        <time>2022-03-06T09:58:06Z</time>
      </trkpt>
      <trkpt lat="46.26627" lon="6.8256">
        <ele>1504.2</ele>
        <time>2022-03-06T09:58:07Z</time>
      </trkpt>
      <trkpt lat="46.26628" lon="6.82559">
        <ele>1504.4</ele>
        <time>2022-03-06T09:58:08Z</time>
      </trkpt>
      <trkpt lat="46.26628" lon="6.82559">
        <ele>1504.6</ele>
        <time>2022-03-06T09:58:09Z</time>
      </trkpt>
      <trkpt lat="46.26629" lon="6.82559">
        <ele>1504.8</ele>
        <time>2022-03-06T09:58:10Z</time>
      </trkpt>
      <trkpt lat="46.26629" lon="6.82558">
        <ele>1505</ele>
        <time>2022-03-06T09:58:11Z</time>
      </trkpt>
      <trkpt lat="46.2663" lon="6.82558">
        <ele>1505</ele>
        <time>2022-03-06T09:58:12Z</time>
      </trkpt>
      <trkpt lat="46.26631" lon="6.82558">
        <ele>1505.2</ele>
        <time>2022-03-06T09:58:13Z</time>
      </trkpt>
      <trkpt lat="46.26631" lon="6.82558">
        <ele>1505.4</ele>
        <time>2022-03-06T09:58:14Z</time>
      </trkpt>
      <trkpt lat="46.26632" lon="6.82558">
        <ele>1505.6</ele>
        <time>2022-03-06T09:58:15Z</time>
      </trkpt>
      <trkpt lat="46.26633" lon="6.82557">
        <ele>1505.8</ele>
        <time>2022-03-06T09:58:16Z</time>
      </trkpt>
      <trkpt lat="46.26633" lon="6.82557">
        <ele>1506</ele>
        <time>2022-03-06T09:58:17Z</time>
      </trkpt>
      <trkpt lat="46.26634" lon="6.82556">
        <ele>1506.4</ele>
        <time>2022-03-06T09:58:18Z</time>
      </trkpt>
      <trkpt lat="46.26634" lon="6.82556">
        <ele>1506.4</ele>
        <time>2022-03-06T09:58:19Z</time>
      </trkpt>
      <trkpt lat="46.26635" lon="6.82556">
        <ele>1506.4</ele>
        <time>2022-03-06T09:58:20Z</time>
      </trkpt>
      <trkpt lat="46.26635" lon="6.82555">
        <ele>1506.6</ele>
        <time>2022-03-06T09:58:21Z</time>
      </trkpt>
      <trkpt lat="46.26636" lon="6.82554">
        <ele>1506.8</ele>
        <time>2022-03-06T09:58:22Z</time>
      </trkpt>
      <trkpt lat="46.26636" lon="6.82554">
        <ele>1506.6</ele>
        <time>2022-03-06T09:58:23Z</time>
      </trkpt>
      <trkpt lat="46.26636" lon="6.82554">
        <ele>1506.8</ele>
        <time>2022-03-06T09:58:24Z</time>
      </trkpt>
      <trkpt lat="46.26637" lon="6.82553">
        <ele>1506.8</ele>
        <time>2022-03-06T09:58:25Z</time>
      </trkpt>
      <trkpt lat="46.26637" lon="6.82553">
        <ele>1506.8</ele>
        <time>2022-03-06T09:58:26Z</time>
      </trkpt>
      <trkpt lat="46.26638" lon="6.82553">
        <ele>1506.8</ele>
        <time>2022-03-06T09:58:27Z</time>
      </trkpt>
      <trkpt lat="46.26639" lon="6.82552">
        <ele>1506.8</ele>
        <time>2022-03-06T09:58:28Z</time>
      </trkpt>
      <trkpt lat="46.2664" lon="6.82551">
        <ele>1507</ele>
        <time>2022-03-06T09:58:29Z</time>
      </trkpt>
      <trkpt lat="46.26641" lon="6.82551">
        <ele>1507.2</ele>
        <time>2022-03-06T09:58:30Z</time>
      </trkpt>
      <trkpt lat="46.26642" lon="6.82549">
        <ele>1507.2</ele>
        <time>2022-03-06T09:58:31Z</time>
      </trkpt>
      <trkpt lat="46.26643" lon="6.82548">
        <ele>1507.4</ele>
        <time>2022-03-06T09:58:32Z</time>
      </trkpt>
      <trkpt lat="46.26644" lon="6.82547">
        <ele>1507.4</ele>
        <time>2022-03-06T09:58:33Z</time>
      </trkpt>
      <trkpt lat="46.26645" lon="6.82546">
        <ele>1507.4</ele>
        <time>2022-03-06T09:58:34Z</time>
      </trkpt>
      <trkpt lat="46.26646" lon="6.82545">
        <ele>1507.6</ele>
        <time>2022-03-06T09:58:35Z</time>
      </trkpt>
      <trkpt lat="46.26647" lon="6.82544">
        <ele>1507.8</ele>
        <time>2022-03-06T09:58:36Z</time>
      </trkpt>
      <trkpt lat="46.26647" lon="6.82544">
        <ele>1507.8</ele>
        <time>2022-03-06T09:58:37Z</time>
      </trkpt>
      <trkpt lat="46.26647" lon="6.82543">
        <ele>1507.8</ele>
        <time>2022-03-06T09:58:38Z</time>
      </trkpt>
      <trkpt lat="46.26648" lon="6.82542">
        <ele>1507.8</ele>
        <time>2022-03-06T09:58:39Z</time>
      </trkpt>
      <trkpt lat="46.26648" lon="6.82541">
        <ele>1508</ele>
        <time>2022-03-06T09:58:40Z</time>
      </trkpt>
      <trkpt lat="46.26649" lon="6.8254">
        <ele>1508.4</ele>
        <time>2022-03-06T09:58:41Z</time>
      </trkpt>
      <trkpt lat="46.26649" lon="6.82539">
        <ele>1508.2</ele>
        <time>2022-03-06T09:58:42Z</time>
      </trkpt>
      <trkpt lat="46.2665" lon="6.82538">
        <ele>1508.4</ele>
        <time>2022-03-06T09:58:43Z</time>
      </trkpt>
      <trkpt lat="46.26651" lon="6.82538">
        <ele>1508.6</ele>
        <time>2022-03-06T09:58:44Z</time>
      </trkpt>
      <trkpt lat="46.26652" lon="6.82537">
        <ele>1508.6</ele>
        <time>2022-03-06T09:58:45Z</time>
      </trkpt>
      <trkpt lat="46.26652" lon="6.82537">
        <ele>1508.8</ele>
        <time>2022-03-06T09:58:46Z</time>
      </trkpt>
      <trkpt lat="46.26653" lon="6.82536">
        <ele>1508.8</ele>
        <time>2022-03-06T09:58:47Z</time>
      </trkpt>
      <trkpt lat="46.26654" lon="6.82535">
        <ele>1509</ele>
        <time>2022-03-06T09:58:48Z</time>
      </trkpt>
      <trkpt lat="46.26657" lon="6.82534">
        <ele>1509</ele>
        <time>2022-03-06T09:58:49Z</time>
      </trkpt>
      <trkpt lat="46.26658" lon="6.82532">
        <ele>1509</ele>
        <time>2022-03-06T09:58:50Z</time>
      </trkpt>
      <trkpt lat="46.26659" lon="6.82531">
        <ele>1509</ele>
        <time>2022-03-06T09:58:51Z</time>
      </trkpt>
      <trkpt lat="46.2666" lon="6.8253">
        <ele>1509.2</ele>
        <time>2022-03-06T09:58:52Z</time>
      </trkpt>
      <trkpt lat="46.2666" lon="6.8253">
        <ele>1509.2</ele>
        <time>2022-03-06T09:58:53Z</time>
      </trkpt>
      <trkpt lat="46.26661" lon="6.82529">
        <ele>1509.4</ele>
        <time>2022-03-06T09:58:54Z</time>
      </trkpt>
      <trkpt lat="46.26662" lon="6.82528">
        <ele>1509.4</ele>
        <time>2022-03-06T09:58:55Z</time>
      </trkpt>
      <trkpt lat="46.26662" lon="6.82527">
        <ele>1509.4</ele>
        <time>2022-03-06T09:58:56Z</time>
      </trkpt>
      <trkpt lat="46.26662" lon="6.82526">
        <ele>1509.4</ele>
        <time>2022-03-06T09:58:57Z</time>
      </trkpt>
      <trkpt lat="46.26663" lon="6.82525">
        <ele>1509.6</ele>
        <time>2022-03-06T09:58:58Z</time>
      </trkpt>
      <trkpt lat="46.26663" lon="6.82524">
        <ele>1509.6</ele>
        <time>2022-03-06T09:58:59Z</time>
      </trkpt>
      <trkpt lat="46.26664" lon="6.82523">
        <ele>1509.6</ele>
        <time>2022-03-06T09:59:00Z</time>
      </trkpt>
      <trkpt lat="46.26664" lon="6.82522">
        <ele>1509.8</ele>
        <time>2022-03-06T09:59:01Z</time>
      </trkpt>
      <trkpt lat="46.26664" lon="6.82521">
        <ele>1509.8</ele>
        <time>2022-03-06T09:59:02Z</time>
      </trkpt>
      <trkpt lat="46.26665" lon="6.8252">
        <ele>1510</ele>
        <time>2022-03-06T09:59:03Z</time>
      </trkpt>
      <trkpt lat="46.26666" lon="6.82519">
        <ele>1510.2</ele>
        <time>2022-03-06T09:59:04Z</time>
      </trkpt>
      <trkpt lat="46.26666" lon="6.82518">
        <ele>1510.2</ele>
        <time>2022-03-06T09:59:05Z</time>
      </trkpt>
      <trkpt lat="46.26666" lon="6.82518">
        <ele>1510.6</ele>
        <time>2022-03-06T09:59:06Z</time>
      </trkpt>
      <trkpt lat="46.26667" lon="6.82517">
        <ele>1510.6</ele>
        <time>2022-03-06T09:59:07Z</time>
      </trkpt>
      <trkpt lat="46.26668" lon="6.82517">
        <ele>1511</ele>
        <time>2022-03-06T09:59:08Z</time>
      </trkpt>
      <trkpt lat="46.26668" lon="6.82517">
        <ele>1511</ele>
        <time>2022-03-06T09:59:09Z</time>
      </trkpt>
      <trkpt lat="46.26669" lon="6.82517">
        <ele>1511</ele>
        <time>2022-03-06T09:59:10Z</time>
      </trkpt>
      <trkpt lat="46.26669" lon="6.82516">
        <ele>1511.2</ele>
        <time>2022-03-06T09:59:11Z</time>
      </trkpt>
      <trkpt lat="46.26671" lon="6.82515">
        <ele>1511.2</ele>
        <time>2022-03-06T09:59:12Z</time>
      </trkpt>
      <trkpt lat="46.26671" lon="6.82515">
        <ele>1511.2</ele>
        <time>2022-03-06T09:59:13Z</time>
      </trkpt>
      <trkpt lat="46.26672" lon="6.82516">
        <ele>1511.6</ele>
        <time>2022-03-06T09:59:14Z</time>
      </trkpt>
      <trkpt lat="46.26673" lon="6.82516">
        <ele>1511.8</ele>
        <time>2022-03-06T09:59:15Z</time>
      </trkpt>
      <trkpt lat="46.26673" lon="6.82516">
        <ele>1511.8</ele>
        <time>2022-03-06T09:59:16Z</time>
      </trkpt>
      <trkpt lat="46.26674" lon="6.82516">
        <ele>1512</ele>
        <time>2022-03-06T09:59:17Z</time>
      </trkpt>
      <trkpt lat="46.26675" lon="6.82515">
        <ele>1512.2</ele>
        <time>2022-03-06T09:59:18Z</time>
      </trkpt>
      <trkpt lat="46.26676" lon="6.82515">
        <ele>1512.4</ele>
        <time>2022-03-06T09:59:19Z</time>
      </trkpt>
      <trkpt lat="46.26676" lon="6.82515">
        <ele>1512.6</ele>
        <time>2022-03-06T09:59:20Z</time>
      </trkpt>
      <trkpt lat="46.26677" lon="6.82515">
        <ele>1512.8</ele>
        <time>2022-03-06T09:59:21Z</time>
      </trkpt>
      <trkpt lat="46.26678" lon="6.82514">
        <ele>1513</ele>
        <time>2022-03-06T09:59:22Z</time>
      </trkpt>
      <trkpt lat="46.26679" lon="6.82514">
        <ele>1513.2</ele>
        <time>2022-03-06T09:59:23Z</time>
      </trkpt>
      <trkpt lat="46.2668" lon="6.82513">
        <ele>1513.4</ele>
        <time>2022-03-06T09:59:24Z</time>
      </trkpt>
      <trkpt lat="46.2668" lon="6.82512">
        <ele>1513.6</ele>
        <time>2022-03-06T09:59:25Z</time>
      </trkpt>
      <trkpt lat="46.26681" lon="6.82512">
        <ele>1513.6</ele>
        <time>2022-03-06T09:59:26Z</time>
      </trkpt>
      <trkpt lat="46.26681" lon="6.82511">
        <ele>1514</ele>
        <time>2022-03-06T09:59:27Z</time>
      </trkpt>
      <trkpt lat="46.26682" lon="6.82511">
        <ele>1514</ele>
        <time>2022-03-06T09:59:28Z</time>
      </trkpt>
      <trkpt lat="46.26682" lon="6.8251">
        <ele>1514.2</ele>
        <time>2022-03-06T09:59:29Z</time>
      </trkpt>
      <trkpt lat="46.26683" lon="6.8251">
        <ele>1514.4</ele>
        <time>2022-03-06T09:59:30Z</time>
      </trkpt>
      <trkpt lat="46.26683" lon="6.82509">
        <ele>1514.6</ele>
        <time>2022-03-06T09:59:31Z</time>
      </trkpt>
      <trkpt lat="46.26683" lon="6.82509">
        <ele>1514.6</ele>
        <time>2022-03-06T09:59:32Z</time>
      </trkpt>
      <trkpt lat="46.26683" lon="6.82508">
        <ele>1514.6</ele>
        <time>2022-03-06T09:59:33Z</time>
      </trkpt>
      <trkpt lat="46.26683" lon="6.82507">
        <ele>1514.8</ele>
        <time>2022-03-06T09:59:34Z</time>
      </trkpt>
      <trkpt lat="46.26684" lon="6.82506">
        <ele>1515</ele>
        <time>2022-03-06T09:59:35Z</time>
      </trkpt>
      <trkpt lat="46.26684" lon="6.82505">
        <ele>1515.2</ele>
        <time>2022-03-06T09:59:36Z</time>
      </trkpt>
      <trkpt lat="46.26684" lon="6.82504">
        <ele>1515.4</ele>
        <time>2022-03-06T09:59:37Z</time>
      </trkpt>
      <trkpt lat="46.26684" lon="6.82504">
        <ele>1515.6</ele>
        <time>2022-03-06T09:59:38Z</time>
      </trkpt>
      <trkpt lat="46.26685" lon="6.82503">
        <ele>1515.8</ele>
        <time>2022-03-06T09:59:39Z</time>
      </trkpt>
      <trkpt lat="46.26685" lon="6.82503">
        <ele>1516</ele>
        <time>2022-03-06T09:59:40Z</time>
      </trkpt>
      <trkpt lat="46.26685" lon="6.82502">
        <ele>1516</ele>
        <time>2022-03-06T09:59:41Z</time>
      </trkpt>
      <trkpt lat="46.26685" lon="6.82501">
        <ele>1516</ele>
        <time>2022-03-06T09:59:42Z</time>
      </trkpt>
      <trkpt lat="46.26686" lon="6.825">
        <ele>1516.6</ele>
        <time>2022-03-06T09:59:43Z</time>
      </trkpt>
      <trkpt lat="46.26685" lon="6.82499">
        <ele>1516.6</ele>
        <time>2022-03-06T09:59:44Z</time>
      </trkpt>
      <trkpt lat="46.26685" lon="6.82498">
        <ele>1516.8</ele>
        <time>2022-03-06T09:59:45Z</time>
      </trkpt>
      <trkpt lat="46.26685" lon="6.82498">
        <ele>1517</ele>
        <time>2022-03-06T09:59:46Z</time>
      </trkpt>
      <trkpt lat="46.26685" lon="6.82497">
        <ele>1517.4</ele>
        <time>2022-03-06T09:59:47Z</time>
      </trkpt>
      <trkpt lat="46.26685" lon="6.82496">
        <ele>1517.4</ele>
        <time>2022-03-06T09:59:48Z</time>
      </trkpt>
      <trkpt lat="46.26684" lon="6.82495">
        <ele>1517.8</ele>
        <time>2022-03-06T09:59:49Z</time>
      </trkpt>
      <trkpt lat="46.26684" lon="6.82495">
        <ele>1518.2</ele>
        <time>2022-03-06T09:59:50Z</time>
      </trkpt>
      <trkpt lat="46.26684" lon="6.82494">
        <ele>1518.2</ele>
        <time>2022-03-06T09:59:51Z</time>
      </trkpt>
      <trkpt lat="46.26684" lon="6.82494">
        <ele>1518.2</ele>
        <time>2022-03-06T09:59:52Z</time>
      </trkpt>
      <trkpt lat="46.26684" lon="6.82487">
        <ele>1519.4</ele>
        <time>2022-03-06T09:59:59Z</time>
      </trkpt>
      <trkpt lat="46.26684" lon="6.82481">
        <ele>1520.4</ele>
        <time>2022-03-06T10:00:05Z</time>
      </trkpt>
      <trkpt lat="46.26683" lon="6.82478">
        <ele>1520.8</ele>
        <time>2022-03-06T10:00:07Z</time>
      </trkpt>
      <trkpt lat="46.26683" lon="6.82477">
        <ele>1521</ele>
        <time>2022-03-06T10:00:08Z</time>
      </trkpt>
      <trkpt lat="46.26683" lon="6.82476">
        <ele>1521</ele>
        <time>2022-03-06T10:00:09Z</time>
      </trkpt>
      <trkpt lat="46.26682" lon="6.82474">
        <ele>1521.2</ele>
        <time>2022-03-06T10:00:10Z</time>
      </trkpt>
      <trkpt lat="46.26682" lon="6.82473">
        <ele>1521.4</ele>
        <time>2022-03-06T10:00:11Z</time>
      </trkpt>
      <trkpt lat="46.26682" lon="6.82471">
        <ele>1521.4</ele>
        <time>2022-03-06T10:00:12Z</time>
      </trkpt>
      <trkpt lat="46.26681" lon="6.8247">
        <ele>1521.6</ele>
        <time>2022-03-06T10:00:13Z</time>
      </trkpt>
      <trkpt lat="46.26681" lon="6.82469">
        <ele>1521.8</ele>
        <time>2022-03-06T10:00:14Z</time>
      </trkpt>
      <trkpt lat="46.2668" lon="6.82468">
        <ele>1522</ele>
        <time>2022-03-06T10:00:15Z</time>
      </trkpt>
      <trkpt lat="46.2668" lon="6.82468">
        <ele>1522.2</ele>
        <time>2022-03-06T10:00:16Z</time>
      </trkpt>
      <trkpt lat="46.2668" lon="6.82467">
        <ele>1522.4</ele>
        <time>2022-03-06T10:00:17Z</time>
      </trkpt>
      <trkpt lat="46.2668" lon="6.82466">
        <ele>1522.4</ele>
        <time>2022-03-06T10:00:18Z</time>
      </trkpt>
      <trkpt lat="46.26679" lon="6.82466">
        <ele>1522.6</ele>
        <time>2022-03-06T10:00:19Z</time>
      </trkpt>
      <trkpt lat="46.26679" lon="6.82465">
        <ele>1522.6</ele>
        <time>2022-03-06T10:00:20Z</time>
      </trkpt>
      <trkpt lat="46.26678" lon="6.82464">
        <ele>1522.6</ele>
        <time>2022-03-06T10:00:21Z</time>
      </trkpt>
      <trkpt lat="46.26677" lon="6.82463">
        <ele>1522.8</ele>
        <time>2022-03-06T10:00:22Z</time>
      </trkpt>
      <trkpt lat="46.26677" lon="6.82462">
        <ele>1523</ele>
        <time>2022-03-06T10:00:23Z</time>
      </trkpt>
      <trkpt lat="46.26677" lon="6.82462">
        <ele>1523.2</ele>
        <time>2022-03-06T10:00:24Z</time>
      </trkpt>
      <trkpt lat="46.26676" lon="6.82461">
        <ele>1523.2</ele>
        <time>2022-03-06T10:00:25Z</time>
      </trkpt>
      <trkpt lat="46.26676" lon="6.82461">
        <ele>1523.4</ele>
        <time>2022-03-06T10:00:26Z</time>
      </trkpt>
      <trkpt lat="46.26676" lon="6.8246">
        <ele>1523.6</ele>
        <time>2022-03-06T10:00:27Z</time>
      </trkpt>
      <trkpt lat="46.26675" lon="6.82459">
        <ele>1523.8</ele>
        <time>2022-03-06T10:00:28Z</time>
      </trkpt>
      <trkpt lat="46.26675" lon="6.82458">
        <ele>1524</ele>
        <time>2022-03-06T10:00:29Z</time>
      </trkpt>
      <trkpt lat="46.26674" lon="6.82458">
        <ele>1524</ele>
        <time>2022-03-06T10:00:30Z</time>
      </trkpt>
      <trkpt lat="46.26675" lon="6.82457">
        <ele>1524</ele>
        <time>2022-03-06T10:00:31Z</time>
      </trkpt>
      <trkpt lat="46.26675" lon="6.82456">
        <ele>1524.4</ele>
        <time>2022-03-06T10:00:32Z</time>
      </trkpt>
      <trkpt lat="46.26675" lon="6.82456">
        <ele>1524.6</ele>
        <time>2022-03-06T10:00:33Z</time>
      </trkpt>
      <trkpt lat="46.26675" lon="6.82455">
        <ele>1525</ele>
        <time>2022-03-06T10:00:34Z</time>
      </trkpt>
      <trkpt lat="46.26675" lon="6.82455">
        <ele>1525</ele>
        <time>2022-03-06T10:00:35Z</time>
      </trkpt>
      <trkpt lat="46.26674" lon="6.82456">
        <ele>1525.2</ele>
        <time>2022-03-06T10:00:36Z</time>
      </trkpt>
      <trkpt lat="46.26674" lon="6.82455">
        <ele>1525.4</ele>
        <time>2022-03-06T10:00:37Z</time>
      </trkpt>
      <trkpt lat="46.26674" lon="6.82454">
        <ele>1525.4</ele>
        <time>2022-03-06T10:00:38Z</time>
      </trkpt>
      <trkpt lat="46.26673" lon="6.82453">
        <ele>1525.6</ele>
        <time>2022-03-06T10:00:39Z</time>
      </trkpt>
      <trkpt lat="46.26673" lon="6.82453">
        <ele>1525.8</ele>
        <time>2022-03-06T10:00:40Z</time>
      </trkpt>
      <trkpt lat="46.26673" lon="6.82452">
        <ele>1526</ele>
        <time>2022-03-06T10:00:41Z</time>
      </trkpt>
      <trkpt lat="46.26672" lon="6.82451">
        <ele>1526</ele>
        <time>2022-03-06T10:00:43Z</time>
      </trkpt>
      <trkpt lat="46.2667" lon="6.82447">
        <ele>1526.8</ele>
        <time>2022-03-06T10:00:48Z</time>
      </trkpt>
      <trkpt lat="46.26667" lon="6.82444">
        <ele>1527.8</ele>
        <time>2022-03-06T10:00:54Z</time>
      </trkpt>
      <trkpt lat="46.26665" lon="6.82441">
        <ele>1528.6</ele>
        <time>2022-03-06T10:00:59Z</time>
      </trkpt>
      <trkpt lat="46.26664" lon="6.8244">
        <ele>1529</ele>
        <time>2022-03-06T10:01:00Z</time>
      </trkpt>
      <trkpt lat="46.26664" lon="6.8244">
        <ele>1529.2</ele>
        <time>2022-03-06T10:01:01Z</time>
      </trkpt>
      <trkpt lat="46.26664" lon="6.82439">
        <ele>1529.2</ele>
        <time>2022-03-06T10:01:02Z</time>
      </trkpt>
      <trkpt lat="46.26664" lon="6.82439">
        <ele>1529.6</ele>
        <time>2022-03-06T10:01:03Z</time>
      </trkpt>
      <trkpt lat="46.26663" lon="6.82439">
        <ele>1529.8</ele>
        <time>2022-03-06T10:01:04Z</time>
      </trkpt>
      <trkpt lat="46.26662" lon="6.82435">
        <ele>1530.2</ele>
        <time>2022-03-06T10:01:07Z</time>
      </trkpt>
      <trkpt lat="46.26663" lon="6.8243">
        <ele>1530.6</ele>
        <time>2022-03-06T10:01:09Z</time>
      </trkpt>
      <trkpt lat="46.26664" lon="6.82429">
        <ele>1530.6</ele>
        <time>2022-03-06T10:01:10Z</time>
      </trkpt>
      <trkpt lat="46.26664" lon="6.82427">
        <ele>1530.6</ele>
        <time>2022-03-06T10:01:11Z</time>
      </trkpt>
      <trkpt lat="46.26663" lon="6.82425">
        <ele>1530.6</ele>
        <time>2022-03-06T10:01:12Z</time>
      </trkpt>
      <trkpt lat="46.26663" lon="6.82424">
        <ele>1530.8</ele>
        <time>2022-03-06T10:01:13Z</time>
      </trkpt>
      <trkpt lat="46.26663" lon="6.82422">
        <ele>1531</ele>
        <time>2022-03-06T10:01:14Z</time>
      </trkpt>
      <trkpt lat="46.26663" lon="6.82421">
        <ele>1531.2</ele>
        <time>2022-03-06T10:01:15Z</time>
      </trkpt>
      <trkpt lat="46.26662" lon="6.8242">
        <ele>1531.4</ele>
        <time>2022-03-06T10:01:16Z</time>
      </trkpt>
      <trkpt lat="46.26663" lon="6.82418">
        <ele>1531.6</ele>
        <time>2022-03-06T10:01:17Z</time>
      </trkpt>
      <trkpt lat="46.26663" lon="6.82417">
        <ele>1531.6</ele>
        <time>2022-03-06T10:01:18Z</time>
      </trkpt>
      <trkpt lat="46.26663" lon="6.82415">
        <ele>1531.8</ele>
        <time>2022-03-06T10:01:19Z</time>
      </trkpt>
      <trkpt lat="46.26664" lon="6.82413">
        <ele>1532</ele>
        <time>2022-03-06T10:01:20Z</time>
      </trkpt>
      <trkpt lat="46.26664" lon="6.8241">
        <ele>1532.2</ele>
        <time>2022-03-06T10:01:21Z</time>
      </trkpt>
      <trkpt lat="46.26664" lon="6.82409">
        <ele>1532.4</ele>
        <time>2022-03-06T10:01:22Z</time>
      </trkpt>
      <trkpt lat="46.26664" lon="6.82408">
        <ele>1532.4</ele>
        <time>2022-03-06T10:01:23Z</time>
      </trkpt>
      <trkpt lat="46.26664" lon="6.82407">
        <ele>1532.6</ele>
        <time>2022-03-06T10:01:24Z</time>
      </trkpt>
      <trkpt lat="46.26663" lon="6.82406">
        <ele>1532.8</ele>
        <time>2022-03-06T10:01:25Z</time>
      </trkpt>
      <trkpt lat="46.26663" lon="6.82404">
        <ele>1532.8</ele>
        <time>2022-03-06T10:01:26Z</time>
      </trkpt>
      <trkpt lat="46.26661" lon="6.82404">
        <ele>1532.8</ele>
        <time>2022-03-06T10:01:27Z</time>
      </trkpt>
      <trkpt lat="46.2666" lon="6.82403">
        <ele>1533</ele>
        <time>2022-03-06T10:01:28Z</time>
      </trkpt>
      <trkpt lat="46.2666" lon="6.82402">
        <ele>1533</ele>
        <time>2022-03-06T10:01:29Z</time>
      </trkpt>
      <trkpt lat="46.26659" lon="6.82401">
        <ele>1533.4</ele>
        <time>2022-03-06T10:01:30Z</time>
      </trkpt>
      <trkpt lat="46.26658" lon="6.82398">
        <ele>1533.4</ele>
        <time>2022-03-06T10:01:31Z</time>
      </trkpt>
      <trkpt lat="46.26657" lon="6.82396">
        <ele>1533.4</ele>
        <time>2022-03-06T10:01:32Z</time>
      </trkpt>
      <trkpt lat="46.26656" lon="6.82395">
        <ele>1533.6</ele>
        <time>2022-03-06T10:01:33Z</time>
      </trkpt>
      <trkpt lat="46.26655" lon="6.82392">
        <ele>1533.8</ele>
        <time>2022-03-06T10:01:34Z</time>
      </trkpt>
      <trkpt lat="46.26654" lon="6.82391">
        <ele>1533.8</ele>
        <time>2022-03-06T10:01:35Z</time>
      </trkpt>
      <trkpt lat="46.26653" lon="6.82389">
        <ele>1533.8</ele>
        <time>2022-03-06T10:01:36Z</time>
      </trkpt>
      <trkpt lat="46.26652" lon="6.82388">
        <ele>1534</ele>
        <time>2022-03-06T10:01:37Z</time>
      </trkpt>
      <trkpt lat="46.26652" lon="6.82386">
        <ele>1533.8</ele>
        <time>2022-03-06T10:01:38Z</time>
      </trkpt>
      <trkpt lat="46.26651" lon="6.82385">
        <ele>1534</ele>
        <time>2022-03-06T10:01:39Z</time>
      </trkpt>
      <trkpt lat="46.26651" lon="6.82384">
        <ele>1534</ele>
        <time>2022-03-06T10:01:40Z</time>
      </trkpt>
      <trkpt lat="46.2665" lon="6.82384">
        <ele>1534</ele>
        <time>2022-03-06T10:01:41Z</time>
      </trkpt>
      <trkpt lat="46.26649" lon="6.82384">
        <ele>1534</ele>
        <time>2022-03-06T10:01:42Z</time>
      </trkpt>
      <trkpt lat="46.26648" lon="6.82384">
        <ele>1534.2</ele>
        <time>2022-03-06T10:01:43Z</time>
      </trkpt>
      <trkpt lat="46.26648" lon="6.82384">
        <ele>1534.2</ele>
        <time>2022-03-06T10:01:44Z</time>
      </trkpt>
      <trkpt lat="46.26647" lon="6.82384">
        <ele>1534</ele>
        <time>2022-03-06T10:01:45Z</time>
      </trkpt>
      <trkpt lat="46.26646" lon="6.82384">
        <ele>1534.2</ele>
        <time>2022-03-06T10:01:46Z</time>
      </trkpt>
      <trkpt lat="46.26645" lon="6.82384">
        <ele>1534.2</ele>
        <time>2022-03-06T10:01:47Z</time>
      </trkpt>
      <trkpt lat="46.26644" lon="6.82384">
        <ele>1534.4</ele>
        <time>2022-03-06T10:01:48Z</time>
      </trkpt>
      <trkpt lat="46.26643" lon="6.82384">
        <ele>1534.4</ele>
        <time>2022-03-06T10:01:49Z</time>
      </trkpt>
      <trkpt lat="46.26642" lon="6.82384">
        <ele>1534.4</ele>
        <time>2022-03-06T10:01:50Z</time>
      </trkpt>
      <trkpt lat="46.26641" lon="6.82383">
        <ele>1534.6</ele>
        <time>2022-03-06T10:01:51Z</time>
      </trkpt>
      <trkpt lat="46.26641" lon="6.82383">
        <ele>1534.6</ele>
        <time>2022-03-06T10:01:52Z</time>
      </trkpt>
      <trkpt lat="46.2664" lon="6.82383">
        <ele>1534.8</ele>
        <time>2022-03-06T10:01:53Z</time>
      </trkpt>
      <trkpt lat="46.2664" lon="6.82382">
        <ele>1535</ele>
        <time>2022-03-06T10:01:54Z</time>
      </trkpt>
      <trkpt lat="46.26639" lon="6.82382">
        <ele>1535.2</ele>
        <time>2022-03-06T10:01:55Z</time>
      </trkpt>
      <trkpt lat="46.26638" lon="6.82382">
        <ele>1535.4</ele>
        <time>2022-03-06T10:01:56Z</time>
      </trkpt>
      <trkpt lat="46.26637" lon="6.82383">
        <ele>1535.4</ele>
        <time>2022-03-06T10:01:57Z</time>
      </trkpt>
      <trkpt lat="46.26637" lon="6.82382">
        <ele>1535.6</ele>
        <time>2022-03-06T10:01:58Z</time>
      </trkpt>
      <trkpt lat="46.26636" lon="6.82382">
        <ele>1535.6</ele>
        <time>2022-03-06T10:01:59Z</time>
      </trkpt>
      <trkpt lat="46.26635" lon="6.82382">
        <ele>1535.8</ele>
        <time>2022-03-06T10:02:00Z</time>
      </trkpt>
      <trkpt lat="46.26634" lon="6.82382">
        <ele>1536</ele>
        <time>2022-03-06T10:02:01Z</time>
      </trkpt>
      <trkpt lat="46.26634" lon="6.82382">
        <ele>1536</ele>
        <time>2022-03-06T10:02:02Z</time>
      </trkpt>
      <trkpt lat="46.26633" lon="6.82382">
        <ele>1536</ele>
        <time>2022-03-06T10:02:03Z</time>
      </trkpt>
      <trkpt lat="46.26632" lon="6.82382">
        <ele>1536.2</ele>
        <time>2022-03-06T10:02:04Z</time>
      </trkpt>
      <trkpt lat="46.26631" lon="6.82384">
        <ele>1536.4</ele>
        <time>2022-03-06T10:02:05Z</time>
      </trkpt>
      <trkpt lat="46.2663" lon="6.82385">
        <ele>1536.4</ele>
        <time>2022-03-06T10:02:06Z</time>
      </trkpt>
      <trkpt lat="46.26629" lon="6.82386">
        <ele>1536.6</ele>
        <time>2022-03-06T10:02:07Z</time>
      </trkpt>
      <trkpt lat="46.26628" lon="6.82386">
        <ele>1536.6</ele>
        <time>2022-03-06T10:02:08Z</time>
      </trkpt>
      <trkpt lat="46.26627" lon="6.82387">
        <ele>1536.8</ele>
        <time>2022-03-06T10:02:09Z</time>
      </trkpt>
      <trkpt lat="46.26626" lon="6.82387">
        <ele>1536.8</ele>
        <time>2022-03-06T10:02:10Z</time>
      </trkpt>
      <trkpt lat="46.26625" lon="6.82387">
        <ele>1536.6</ele>
        <time>2022-03-06T10:02:11Z</time>
      </trkpt>
      <trkpt lat="46.26624" lon="6.82387">
        <ele>1536.8</ele>
        <time>2022-03-06T10:02:12Z</time>
      </trkpt>
      <trkpt lat="46.26622" lon="6.82386">
        <ele>1536.8</ele>
        <time>2022-03-06T10:02:14Z</time>
      </trkpt>
      <trkpt lat="46.26621" lon="6.82385">
        <ele>1536.8</ele>
        <time>2022-03-06T10:02:15Z</time>
      </trkpt>
      <trkpt lat="46.2662" lon="6.82385">
        <ele>1536.8</ele>
        <time>2022-03-06T10:02:16Z</time>
      </trkpt>
      <trkpt lat="46.2662" lon="6.82384">
        <ele>1536.8</ele>
        <time>2022-03-06T10:02:17Z</time>
      </trkpt>
      <trkpt lat="46.26619" lon="6.82384">
        <ele>1537</ele>
        <time>2022-03-06T10:02:18Z</time>
      </trkpt>
      <trkpt lat="46.26618" lon="6.82383">
        <ele>1537</ele>
        <time>2022-03-06T10:02:19Z</time>
      </trkpt>
      <trkpt lat="46.26618" lon="6.82382">
        <ele>1537</ele>
        <time>2022-03-06T10:02:20Z</time>
      </trkpt>
      <trkpt lat="46.26617" lon="6.82382">
        <ele>1537.2</ele>
        <time>2022-03-06T10:02:21Z</time>
      </trkpt>
      <trkpt lat="46.26616" lon="6.82381">
        <ele>1537.2</ele>
        <time>2022-03-06T10:02:22Z</time>
      </trkpt>
      <trkpt lat="46.26615" lon="6.8238">
        <ele>1537.2</ele>
        <time>2022-03-06T10:02:23Z</time>
      </trkpt>
      <trkpt lat="46.26615" lon="6.82379">
        <ele>1537.4</ele>
        <time>2022-03-06T10:02:24Z</time>
      </trkpt>
      <trkpt lat="46.26614" lon="6.82378">
        <ele>1537.6</ele>
        <time>2022-03-06T10:02:25Z</time>
      </trkpt>
      <trkpt lat="46.26612" lon="6.82379">
        <ele>1537.8</ele>
        <time>2022-03-06T10:02:26Z</time>
      </trkpt>
      <trkpt lat="46.26611" lon="6.82379">
        <ele>1537.8</ele>
        <time>2022-03-06T10:02:27Z</time>
      </trkpt>
      <trkpt lat="46.26609" lon="6.82379">
        <ele>1537.8</ele>
        <time>2022-03-06T10:02:28Z</time>
      </trkpt>
      <trkpt lat="46.26608" lon="6.8238">
        <ele>1538</ele>
        <time>2022-03-06T10:02:29Z</time>
      </trkpt>
      <trkpt lat="46.26607" lon="6.8238">
        <ele>1538</ele>
        <time>2022-03-06T10:02:30Z</time>
      </trkpt>
      <trkpt lat="46.26606" lon="6.8238">
        <ele>1538.2</ele>
        <time>2022-03-06T10:02:31Z</time>
      </trkpt>
      <trkpt lat="46.26604" lon="6.8238">
        <ele>1538.2</ele>
        <time>2022-03-06T10:02:32Z</time>
      </trkpt>
      <trkpt lat="46.26603" lon="6.8238">
        <ele>1538.2</ele>
        <time>2022-03-06T10:02:33Z</time>
      </trkpt>
      <trkpt lat="46.26603" lon="6.82379">
        <ele>1538.4</ele>
        <time>2022-03-06T10:02:34Z</time>
      </trkpt>
      <trkpt lat="46.26602" lon="6.82379">
        <ele>1538.4</ele>
        <time>2022-03-06T10:02:35Z</time>
      </trkpt>
      <trkpt lat="46.26601" lon="6.82378">
        <ele>1538.4</ele>
        <time>2022-03-06T10:02:36Z</time>
      </trkpt>
      <trkpt lat="46.26601" lon="6.82378">
        <ele>1538.6</ele>
        <time>2022-03-06T10:02:37Z</time>
      </trkpt>
      <trkpt lat="46.266" lon="6.82378">
        <ele>1538.6</ele>
        <time>2022-03-06T10:02:38Z</time>
      </trkpt>
      <trkpt lat="46.26599" lon="6.82379">
        <ele>1538.8</ele>
        <time>2022-03-06T10:02:39Z</time>
      </trkpt>
      <trkpt lat="46.26599" lon="6.82378">
        <ele>1538.8</ele>
        <time>2022-03-06T10:02:40Z</time>
      </trkpt>
      <trkpt lat="46.26599" lon="6.82378">
        <ele>1539</ele>
        <time>2022-03-06T10:02:41Z</time>
      </trkpt>
      <trkpt lat="46.26598" lon="6.82378">
        <ele>1538.8</ele>
        <time>2022-03-06T10:02:42Z</time>
      </trkpt>
      <trkpt lat="46.26598" lon="6.82378">
        <ele>1539</ele>
        <time>2022-03-06T10:02:43Z</time>
      </trkpt>
      <trkpt lat="46.26597" lon="6.82378">
        <ele>1539.2</ele>
        <time>2022-03-06T10:02:44Z</time>
      </trkpt>
      <trkpt lat="46.26597" lon="6.82376">
        <ele>1540</ele>
        <time>2022-03-06T10:02:51Z</time>
      </trkpt>
      <trkpt lat="46.26596" lon="6.82374">
        <ele>1540.2</ele>
        <time>2022-03-06T10:02:57Z</time>
      </trkpt>
      <trkpt lat="46.26594" lon="6.82371">
        <ele>1540.4</ele>
        <time>2022-03-06T10:03:01Z</time>
      </trkpt>
      <trkpt lat="46.26593" lon="6.82367">
        <ele>1541.2</ele>
        <time>2022-03-06T10:03:11Z</time>
      </trkpt>
      <trkpt lat="46.26595" lon="6.82364">
        <ele>1541.6</ele>
        <time>2022-03-06T10:03:22Z</time>
      </trkpt>
      <trkpt lat="46.26595" lon="6.82364">
        <ele>1541.6</ele>
        <time>2022-03-06T10:03:23Z</time>
      </trkpt>
      <trkpt lat="46.26595" lon="6.82366">
        <ele>1542</ele>
        <time>2022-03-06T10:03:34Z</time>
      </trkpt>
      <trkpt lat="46.26595" lon="6.82366">
        <ele>1542.2</ele>
        <time>2022-03-06T10:03:46Z</time>
      </trkpt>
      <trkpt lat="46.26594" lon="6.8237">
        <ele>1542</ele>
        <time>2022-03-06T10:03:57Z</time>
      </trkpt>
      <trkpt lat="46.26593" lon="6.82372">
        <ele>1541.2</ele>
        <time>2022-03-06T10:04:12Z</time>
      </trkpt>
      <trkpt lat="46.26592" lon="6.82373">
        <ele>1541</ele>
        <time>2022-03-06T10:04:24Z</time>
      </trkpt>
      <trkpt lat="46.26591" lon="6.82373">
        <ele>1541</ele>
        <time>2022-03-06T10:04:33Z</time>
      </trkpt>
      <trkpt lat="46.2659" lon="6.82373">
        <ele>1540.6</ele>
        <time>2022-03-06T10:04:48Z</time>
      </trkpt>
      <trkpt lat="46.2659" lon="6.82371">
        <ele>1540.6</ele>
        <time>2022-03-06T10:05:01Z</time>
      </trkpt>
      <trkpt lat="46.2659" lon="6.82371">
        <ele>1540.6</ele>
        <time>2022-03-06T10:05:03Z</time>
      </trkpt>
      <trkpt lat="46.26592" lon="6.82368">
        <ele>1540.8</ele>
        <time>2022-03-06T10:05:13Z</time>
      </trkpt>
      <trkpt lat="46.26595" lon="6.82368">
        <ele>1540.4</ele>
        <time>2022-03-06T10:05:27Z</time>
      </trkpt>
      <trkpt lat="46.26593" lon="6.82372">
        <ele>1540.6</ele>
        <time>2022-03-06T10:05:39Z</time>
      </trkpt>
      <trkpt lat="46.26593" lon="6.82372">
        <ele>1540.6</ele>
        <time>2022-03-06T10:05:48Z</time>
      </trkpt>
      <trkpt lat="46.26593" lon="6.82371">
        <ele>1540.6</ele>
        <time>2022-03-06T10:05:51Z</time>
      </trkpt>
      <trkpt lat="46.26593" lon="6.82371">
        <ele>1541.2</ele>
        <time>2022-03-06T10:06:04Z</time>
      </trkpt>
      <trkpt lat="46.26593" lon="6.8237">
        <ele>1541</ele>
        <time>2022-03-06T10:06:17Z</time>
      </trkpt>
      <trkpt lat="46.26593" lon="6.8237">
        <ele>1541</ele>
        <time>2022-03-06T10:06:28Z</time>
      </trkpt>
      <trkpt lat="46.26593" lon="6.8237">
        <ele>1541</ele>
        <time>2022-03-06T10:06:30Z</time>
      </trkpt>
      <trkpt lat="46.26593" lon="6.82371">
        <ele>1541</ele>
        <time>2022-03-06T10:06:40Z</time>
      </trkpt>
      <trkpt lat="46.26593" lon="6.82372">
        <ele>1540.8</ele>
        <time>2022-03-06T10:06:52Z</time>
      </trkpt>
      <trkpt lat="46.26594" lon="6.82372">
        <ele>1540.8</ele>
        <time>2022-03-06T10:07:02Z</time>
      </trkpt>
      <trkpt lat="46.26593" lon="6.82372">
        <ele>1540.8</ele>
        <time>2022-03-06T10:07:13Z</time>
      </trkpt>
      <trkpt lat="46.26593" lon="6.82372">
        <ele>1540.8</ele>
        <time>2022-03-06T10:07:25Z</time>
      </trkpt>
      <trkpt lat="46.26592" lon="6.82371">
        <ele>1541</ele>
        <time>2022-03-06T10:07:36Z</time>
      </trkpt>
      <trkpt lat="46.26593" lon="6.82371">
        <ele>1541</ele>
        <time>2022-03-06T10:07:39Z</time>
      </trkpt>
      <trkpt lat="46.26594" lon="6.82371">
        <ele>1541.2</ele>
        <time>2022-03-06T10:07:52Z</time>
      </trkpt>
      <trkpt lat="46.26595" lon="6.82368">
        <ele>1541.2</ele>
        <time>2022-03-06T10:07:55Z</time>
      </trkpt>
      <trkpt lat="46.26595" lon="6.82367">
        <ele>1541.2</ele>
        <time>2022-03-06T10:07:56Z</time>
      </trkpt>
      <trkpt lat="46.26596" lon="6.82366">
        <ele>1541.4</ele>
        <time>2022-03-06T10:07:58Z</time>
      </trkpt>
      <trkpt lat="46.26597" lon="6.82365">
        <ele>1541.4</ele>
        <time>2022-03-06T10:08:00Z</time>
      </trkpt>
      <trkpt lat="46.26597" lon="6.82364">
        <ele>1541.8</ele>
        <time>2022-03-06T10:08:01Z</time>
      </trkpt>
      <trkpt lat="46.26597" lon="6.82364">
        <ele>1541.8</ele>
        <time>2022-03-06T10:08:02Z</time>
      </trkpt>
      <trkpt lat="46.26598" lon="6.82364">
        <ele>1542.2</ele>
        <time>2022-03-06T10:08:03Z</time>
      </trkpt>
      <trkpt lat="46.26598" lon="6.82363">
        <ele>1542.4</ele>
        <time>2022-03-06T10:08:04Z</time>
      </trkpt>
      <trkpt lat="46.26598" lon="6.82362">
        <ele>1542.4</ele>
        <time>2022-03-06T10:08:05Z</time>
      </trkpt>
      <trkpt lat="46.26598" lon="6.82361">
        <ele>1542.6</ele>
        <time>2022-03-06T10:08:06Z</time>
      </trkpt>
      <trkpt lat="46.26598" lon="6.82361">
        <ele>1543</ele>
        <time>2022-03-06T10:08:07Z</time>
      </trkpt>
      <trkpt lat="46.26599" lon="6.8236">
        <ele>1543.2</ele>
        <time>2022-03-06T10:08:08Z</time>
      </trkpt>
      <trkpt lat="46.26599" lon="6.82359">
        <ele>1543.4</ele>
        <time>2022-03-06T10:08:09Z</time>
      </trkpt>
      <trkpt lat="46.26599" lon="6.82358">
        <ele>1543.6</ele>
        <time>2022-03-06T10:08:10Z</time>
      </trkpt>
      <trkpt lat="46.26599" lon="6.82357">
        <ele>1543.8</ele>
        <time>2022-03-06T10:08:11Z</time>
      </trkpt>
      <trkpt lat="46.26599" lon="6.82356">
        <ele>1543.8</ele>
        <time>2022-03-06T10:08:12Z</time>
      </trkpt>
      <trkpt lat="46.26599" lon="6.82354">
        <ele>1544.2</ele>
        <time>2022-03-06T10:08:13Z</time>
      </trkpt>
      <trkpt lat="46.266" lon="6.82353">
        <ele>1544.4</ele>
        <time>2022-03-06T10:08:14Z</time>
      </trkpt>
      <trkpt lat="46.266" lon="6.82352">
        <ele>1544.6</ele>
        <time>2022-03-06T10:08:15Z</time>
      </trkpt>
      <trkpt lat="46.266" lon="6.82351">
        <ele>1544.8</ele>
        <time>2022-03-06T10:08:16Z</time>
      </trkpt>
      <trkpt lat="46.266" lon="6.8235">
        <ele>1544.8</ele>
        <time>2022-03-06T10:08:17Z</time>
      </trkpt>
      <trkpt lat="46.266" lon="6.82349">
        <ele>1545</ele>
        <time>2022-03-06T10:08:18Z</time>
      </trkpt>
      <trkpt lat="46.26601" lon="6.82348">
        <ele>1545.2</ele>
        <time>2022-03-06T10:08:19Z</time>
      </trkpt>
      <trkpt lat="46.26601" lon="6.82347">
        <ele>1545.4</ele>
        <time>2022-03-06T10:08:20Z</time>
      </trkpt>
      <trkpt lat="46.26601" lon="6.82346">
        <ele>1545.6</ele>
        <time>2022-03-06T10:08:21Z</time>
      </trkpt>
      <trkpt lat="46.26601" lon="6.82345">
        <ele>1545.8</ele>
        <time>2022-03-06T10:08:22Z</time>
      </trkpt>
      <trkpt lat="46.26602" lon="6.82343">
        <ele>1546</ele>
        <time>2022-03-06T10:08:23Z</time>
      </trkpt>
      <trkpt lat="46.26602" lon="6.82342">
        <ele>1546.2</ele>
        <time>2022-03-06T10:08:24Z</time>
      </trkpt>
      <trkpt lat="46.26602" lon="6.82342">
        <ele>1546.4</ele>
        <time>2022-03-06T10:08:25Z</time>
      </trkpt>
      <trkpt lat="46.26602" lon="6.82341">
        <ele>1546.6</ele>
        <time>2022-03-06T10:08:26Z</time>
      </trkpt>
      <trkpt lat="46.26602" lon="6.8234">
        <ele>1546.6</ele>
        <time>2022-03-06T10:08:27Z</time>
      </trkpt>
      <trkpt lat="46.26602" lon="6.82339">
        <ele>1546.8</ele>
        <time>2022-03-06T10:08:28Z</time>
      </trkpt>
      <trkpt lat="46.26602" lon="6.82338">
        <ele>1547</ele>
        <time>2022-03-06T10:08:29Z</time>
      </trkpt>
      <trkpt lat="46.26603" lon="6.82338">
        <ele>1547</ele>
        <time>2022-03-06T10:08:30Z</time>
      </trkpt>
      <trkpt lat="46.26603" lon="6.82337">
        <ele>1547.2</ele>
        <time>2022-03-06T10:08:31Z</time>
      </trkpt>
      <trkpt lat="46.26602" lon="6.82336">
        <ele>1547.4</ele>
        <time>2022-03-06T10:08:32Z</time>
      </trkpt>
      <trkpt lat="46.26602" lon="6.82335">
        <ele>1547.6</ele>
        <time>2022-03-06T10:08:33Z</time>
      </trkpt>
      <trkpt lat="46.26603" lon="6.82334">
        <ele>1547.8</ele>
        <time>2022-03-06T10:08:34Z</time>
      </trkpt>
      <trkpt lat="46.26603" lon="6.82333">
        <ele>1548.2</ele>
        <time>2022-03-06T10:08:35Z</time>
      </trkpt>
      <trkpt lat="46.26603" lon="6.82332">
        <ele>1548.2</ele>
        <time>2022-03-06T10:08:36Z</time>
      </trkpt>
      <trkpt lat="46.26603" lon="6.82332">
        <ele>1548.2</ele>
        <time>2022-03-06T10:08:37Z</time>
      </trkpt>
      <trkpt lat="46.26603" lon="6.82331">
        <ele>1548.6</ele>
        <time>2022-03-06T10:08:38Z</time>
      </trkpt>
      <trkpt lat="46.26603" lon="6.8233">
        <ele>1548.8</ele>
        <time>2022-03-06T10:08:39Z</time>
      </trkpt>
      <trkpt lat="46.26603" lon="6.82329">
        <ele>1548.8</ele>
        <time>2022-03-06T10:08:40Z</time>
      </trkpt>
      <trkpt lat="46.26603" lon="6.82328">
        <ele>1549</ele>
        <time>2022-03-06T10:08:41Z</time>
      </trkpt>
      <trkpt lat="46.26603" lon="6.82327">
        <ele>1549.2</ele>
        <time>2022-03-06T10:08:42Z</time>
      </trkpt>
      <trkpt lat="46.26604" lon="6.82326">
        <ele>1549</ele>
        <time>2022-03-06T10:08:43Z</time>
      </trkpt>
      <trkpt lat="46.26603" lon="6.82325">
        <ele>1549.2</ele>
        <time>2022-03-06T10:08:44Z</time>
      </trkpt>
      <trkpt lat="46.26604" lon="6.82324">
        <ele>1549.4</ele>
        <time>2022-03-06T10:08:45Z</time>
      </trkpt>
      <trkpt lat="46.26604" lon="6.82324">
        <ele>1549.6</ele>
        <time>2022-03-06T10:08:46Z</time>
      </trkpt>
      <trkpt lat="46.26604" lon="6.82323">
        <ele>1549.8</ele>
        <time>2022-03-06T10:08:47Z</time>
      </trkpt>
      <trkpt lat="46.26605" lon="6.82323">
        <ele>1549.8</ele>
        <time>2022-03-06T10:08:48Z</time>
      </trkpt>
      <trkpt lat="46.26605" lon="6.82322">
        <ele>1550.2</ele>
        <time>2022-03-06T10:08:49Z</time>
      </trkpt>
      <trkpt lat="46.26605" lon="6.82321">
        <ele>1550.4</ele>
        <time>2022-03-06T10:08:50Z</time>
      </trkpt>
      <trkpt lat="46.26605" lon="6.8232">
        <ele>1550.4</ele>
        <time>2022-03-06T10:08:51Z</time>
      </trkpt>
      <trkpt lat="46.26606" lon="6.8232">
        <ele>1550.8</ele>
        <time>2022-03-06T10:08:52Z</time>
      </trkpt>
      <trkpt lat="46.26606" lon="6.82319">
        <ele>1550.8</ele>
        <time>2022-03-06T10:08:53Z</time>
      </trkpt>
      <trkpt lat="46.26606" lon="6.82319">
        <ele>1551.2</ele>
        <time>2022-03-06T10:08:54Z</time>
      </trkpt>
      <trkpt lat="46.26607" lon="6.82318">
        <ele>1551.4</ele>
        <time>2022-03-06T10:08:55Z</time>
      </trkpt>
      <trkpt lat="46.26608" lon="6.82317">
        <ele>1551.8</ele>
        <time>2022-03-06T10:08:56Z</time>
      </trkpt>
      <trkpt lat="46.26608" lon="6.82317">
        <ele>1552</ele>
        <time>2022-03-06T10:08:57Z</time>
      </trkpt>
      <trkpt lat="46.26608" lon="6.82316">
        <ele>1552.2</ele>
        <time>2022-03-06T10:08:58Z</time>
      </trkpt>
      <trkpt lat="46.26608" lon="6.82315">
        <ele>1552.2</ele>
        <time>2022-03-06T10:08:59Z</time>
      </trkpt>
      <trkpt lat="46.26609" lon="6.82315">
        <ele>1552.4</ele>
        <time>2022-03-06T10:09:00Z</time>
      </trkpt>
      <trkpt lat="46.26609" lon="6.82314">
        <ele>1552.6</ele>
        <time>2022-03-06T10:09:01Z</time>
      </trkpt>
      <trkpt lat="46.26609" lon="6.82313">
        <ele>1553</ele>
        <time>2022-03-06T10:09:02Z</time>
      </trkpt>
      <trkpt lat="46.2661" lon="6.82313">
        <ele>1553</ele>
        <time>2022-03-06T10:09:03Z</time>
      </trkpt>
      <trkpt lat="46.26611" lon="6.82312">
        <ele>1553</ele>
        <time>2022-03-06T10:09:04Z</time>
      </trkpt>
      <trkpt lat="46.26611" lon="6.82311">
        <ele>1553.2</ele>
        <time>2022-03-06T10:09:05Z</time>
      </trkpt>
      <trkpt lat="46.26611" lon="6.82311">
        <ele>1553.6</ele>
        <time>2022-03-06T10:09:06Z</time>
      </trkpt>
      <trkpt lat="46.26612" lon="6.8231">
        <ele>1553.6</ele>
        <time>2022-03-06T10:09:07Z</time>
      </trkpt>
      <trkpt lat="46.26612" lon="6.82309">
        <ele>1553.8</ele>
        <time>2022-03-06T10:09:08Z</time>
      </trkpt>
      <trkpt lat="46.26612" lon="6.82309">
        <ele>1554.2</ele>
        <time>2022-03-06T10:09:09Z</time>
      </trkpt>
      <trkpt lat="46.26612" lon="6.82308">
        <ele>1554.4</ele>
        <time>2022-03-06T10:09:10Z</time>
      </trkpt>
      <trkpt lat="46.26613" lon="6.82307">
        <ele>1554.6</ele>
        <time>2022-03-06T10:09:11Z</time>
      </trkpt>
      <trkpt lat="46.26613" lon="6.82306">
        <ele>1554.6</ele>
        <time>2022-03-06T10:09:12Z</time>
      </trkpt>
      <trkpt lat="46.26614" lon="6.82305">
        <ele>1554.8</ele>
        <time>2022-03-06T10:09:13Z</time>
      </trkpt>
      <trkpt lat="46.26614" lon="6.82304">
        <ele>1555</ele>
        <time>2022-03-06T10:09:14Z</time>
      </trkpt>
      <trkpt lat="46.26614" lon="6.82303">
        <ele>1555.2</ele>
        <time>2022-03-06T10:09:15Z</time>
      </trkpt>
      <trkpt lat="46.26615" lon="6.82302">
        <ele>1555.4</ele>
        <time>2022-03-06T10:09:16Z</time>
      </trkpt>
      <trkpt lat="46.26615" lon="6.82301">
        <ele>1555.6</ele>
        <time>2022-03-06T10:09:17Z</time>
      </trkpt>
      <trkpt lat="46.26616" lon="6.823">
        <ele>1555.6</ele>
        <time>2022-03-06T10:09:18Z</time>
      </trkpt>
      <trkpt lat="46.26617" lon="6.82299">
        <ele>1555.8</ele>
        <time>2022-03-06T10:09:19Z</time>
      </trkpt>
      <trkpt lat="46.26617" lon="6.82298">
        <ele>1555.8</ele>
        <time>2022-03-06T10:09:20Z</time>
      </trkpt>
      <trkpt lat="46.26618" lon="6.82297">
        <ele>1556.2</ele>
        <time>2022-03-06T10:09:21Z</time>
      </trkpt>
      <trkpt lat="46.26619" lon="6.82296">
        <ele>1556.2</ele>
        <time>2022-03-06T10:09:22Z</time>
      </trkpt>
      <trkpt lat="46.26619" lon="6.82295">
        <ele>1556.2</ele>
        <time>2022-03-06T10:09:23Z</time>
      </trkpt>
      <trkpt lat="46.2662" lon="6.82295">
        <ele>1556.4</ele>
        <time>2022-03-06T10:09:24Z</time>
      </trkpt>
      <trkpt lat="46.26621" lon="6.82294">
        <ele>1556.6</ele>
        <time>2022-03-06T10:09:25Z</time>
      </trkpt>
      <trkpt lat="46.26622" lon="6.82294">
        <ele>1556.6</ele>
        <time>2022-03-06T10:09:26Z</time>
      </trkpt>
      <trkpt lat="46.26622" lon="6.82293">
        <ele>1556.8</ele>
        <time>2022-03-06T10:09:27Z</time>
      </trkpt>
      <trkpt lat="46.26623" lon="6.82293">
        <ele>1557</ele>
        <time>2022-03-06T10:09:28Z</time>
      </trkpt>
      <trkpt lat="46.26623" lon="6.82292">
        <ele>1557</ele>
        <time>2022-03-06T10:09:29Z</time>
      </trkpt>
      <trkpt lat="46.26624" lon="6.82291">
        <ele>1557.2</ele>
        <time>2022-03-06T10:09:30Z</time>
      </trkpt>
      <trkpt lat="46.26625" lon="6.82291">
        <ele>1557.2</ele>
        <time>2022-03-06T10:09:31Z</time>
      </trkpt>
      <trkpt lat="46.26625" lon="6.82291">
        <ele>1557.4</ele>
        <time>2022-03-06T10:09:32Z</time>
      </trkpt>
      <trkpt lat="46.26626" lon="6.8229">
        <ele>1557.6</ele>
        <time>2022-03-06T10:09:33Z</time>
      </trkpt>
      <trkpt lat="46.26626" lon="6.82289">
        <ele>1557.6</ele>
        <time>2022-03-06T10:09:34Z</time>
      </trkpt>
      <trkpt lat="46.26628" lon="6.82289">
        <ele>1557.8</ele>
        <time>2022-03-06T10:09:35Z</time>
      </trkpt>
      <trkpt lat="46.26628" lon="6.82288">
        <ele>1558.2</ele>
        <time>2022-03-06T10:09:36Z</time>
      </trkpt>
      <trkpt lat="46.2663" lon="6.82288">
        <ele>1558</ele>
        <time>2022-03-06T10:09:37Z</time>
      </trkpt>
      <trkpt lat="46.2663" lon="6.82287">
        <ele>1558.2</ele>
        <time>2022-03-06T10:09:38Z</time>
      </trkpt>
      <trkpt lat="46.26631" lon="6.82286">
        <ele>1558.4</ele>
        <time>2022-03-06T10:09:39Z</time>
      </trkpt>
      <trkpt lat="46.26632" lon="6.82286">
        <ele>1558.8</ele>
        <time>2022-03-06T10:09:40Z</time>
      </trkpt>
      <trkpt lat="46.26633" lon="6.82285">
        <ele>1558.8</ele>
        <time>2022-03-06T10:09:41Z</time>
      </trkpt>
      <trkpt lat="46.26634" lon="6.82285">
        <ele>1558.8</ele>
        <time>2022-03-06T10:09:42Z</time>
      </trkpt>
      <trkpt lat="46.26636" lon="6.82284">
        <ele>1559.2</ele>
        <time>2022-03-06T10:09:43Z</time>
      </trkpt>
      <trkpt lat="46.26637" lon="6.82284">
        <ele>1559.2</ele>
        <time>2022-03-06T10:09:44Z</time>
      </trkpt>
      <trkpt lat="46.26638" lon="6.82283">
        <ele>1559.4</ele>
        <time>2022-03-06T10:09:45Z</time>
      </trkpt>
      <trkpt lat="46.2664" lon="6.82282">
        <ele>1559.6</ele>
        <time>2022-03-06T10:09:46Z</time>
      </trkpt>
      <trkpt lat="46.26641" lon="6.82281">
        <ele>1559.6</ele>
        <time>2022-03-06T10:09:47Z</time>
      </trkpt>
      <trkpt lat="46.26642" lon="6.8228">
        <ele>1559.8</ele>
        <time>2022-03-06T10:09:48Z</time>
      </trkpt>
      <trkpt lat="46.26642" lon="6.82278">
        <ele>1559.8</ele>
        <time>2022-03-06T10:09:49Z</time>
      </trkpt>
      <trkpt lat="46.26643" lon="6.82277">
        <ele>1560.2</ele>
        <time>2022-03-06T10:09:50Z</time>
      </trkpt>
      <trkpt lat="46.26644" lon="6.82276">
        <ele>1560.2</ele>
        <time>2022-03-06T10:09:51Z</time>
      </trkpt>
      <trkpt lat="46.26644" lon="6.82276">
        <ele>1560.4</ele>
        <time>2022-03-06T10:09:52Z</time>
      </trkpt>
      <trkpt lat="46.26644" lon="6.82275">
        <ele>1560.4</ele>
        <time>2022-03-06T10:09:53Z</time>
      </trkpt>
      <trkpt lat="46.26645" lon="6.82274">
        <ele>1560.6</ele>
        <time>2022-03-06T10:09:54Z</time>
      </trkpt>
      <trkpt lat="46.26646" lon="6.82272">
        <ele>1560.8</ele>
        <time>2022-03-06T10:09:55Z</time>
      </trkpt>
      <trkpt lat="46.26646" lon="6.82271">
        <ele>1560.8</ele>
        <time>2022-03-06T10:09:56Z</time>
      </trkpt>
      <trkpt lat="46.26647" lon="6.8227">
        <ele>1561</ele>
        <time>2022-03-06T10:09:57Z</time>
      </trkpt>
      <trkpt lat="46.26648" lon="6.82269">
        <ele>1561</ele>
        <time>2022-03-06T10:09:58Z</time>
      </trkpt>
      <trkpt lat="46.26649" lon="6.82268">
        <ele>1561</ele>
        <time>2022-03-06T10:09:59Z</time>
      </trkpt>
      <trkpt lat="46.26649" lon="6.82267">
        <ele>1561.2</ele>
        <time>2022-03-06T10:10:00Z</time>
      </trkpt>
      <trkpt lat="46.2665" lon="6.82266">
        <ele>1561.6</ele>
        <time>2022-03-06T10:10:01Z</time>
      </trkpt>
      <trkpt lat="46.2665" lon="6.82265">
        <ele>1561.6</ele>
        <time>2022-03-06T10:10:02Z</time>
      </trkpt>
      <trkpt lat="46.26651" lon="6.82265">
        <ele>1561.8</ele>
        <time>2022-03-06T10:10:03Z</time>
      </trkpt>
      <trkpt lat="46.26651" lon="6.82264">
        <ele>1562.2</ele>
        <time>2022-03-06T10:10:04Z</time>
      </trkpt>
      <trkpt lat="46.26651" lon="6.82262">
        <ele>1562.2</ele>
        <time>2022-03-06T10:10:05Z</time>
      </trkpt>
      <trkpt lat="46.26651" lon="6.82261">
        <ele>1562.2</ele>
        <time>2022-03-06T10:10:06Z</time>
      </trkpt>
      <trkpt lat="46.26651" lon="6.82259">
        <ele>1562.6</ele>
        <time>2022-03-06T10:10:07Z</time>
      </trkpt>
      <trkpt lat="46.26651" lon="6.82257">
        <ele>1562.6</ele>
        <time>2022-03-06T10:10:08Z</time>
      </trkpt>
      <trkpt lat="46.26651" lon="6.82256">
        <ele>1562.6</ele>
        <time>2022-03-06T10:10:09Z</time>
      </trkpt>
      <trkpt lat="46.26651" lon="6.82255">
        <ele>1563.2</ele>
        <time>2022-03-06T10:10:10Z</time>
      </trkpt>
      <trkpt lat="46.26651" lon="6.82254">
        <ele>1563.2</ele>
        <time>2022-03-06T10:10:11Z</time>
      </trkpt>
      <trkpt lat="46.26651" lon="6.82254">
        <ele>1563.2</ele>
        <time>2022-03-06T10:10:12Z</time>
      </trkpt>
      <trkpt lat="46.26651" lon="6.82253">
        <ele>1563.4</ele>
        <time>2022-03-06T10:10:13Z</time>
      </trkpt>
      <trkpt lat="46.26651" lon="6.82252">
        <ele>1563.6</ele>
        <time>2022-03-06T10:10:14Z</time>
      </trkpt>
      <trkpt lat="46.26652" lon="6.82251">
        <ele>1564</ele>
        <time>2022-03-06T10:10:15Z</time>
      </trkpt>
      <trkpt lat="46.26652" lon="6.82251">
        <ele>1564.2</ele>
        <time>2022-03-06T10:10:16Z</time>
      </trkpt>
      <trkpt lat="46.26652" lon="6.8225">
        <ele>1564.4</ele>
        <time>2022-03-06T10:10:17Z</time>
      </trkpt>
      <trkpt lat="46.26653" lon="6.8225">
        <ele>1564.6</ele>
        <time>2022-03-06T10:10:18Z</time>
      </trkpt>
      <trkpt lat="46.26653" lon="6.82249">
        <ele>1564.6</ele>
        <time>2022-03-06T10:10:19Z</time>
      </trkpt>
      <trkpt lat="46.26654" lon="6.82249">
        <ele>1564.8</ele>
        <time>2022-03-06T10:10:20Z</time>
      </trkpt>
      <trkpt lat="46.26654" lon="6.82248">
        <ele>1565</ele>
        <time>2022-03-06T10:10:21Z</time>
      </trkpt>
      <trkpt lat="46.26654" lon="6.82247">
        <ele>1565.2</ele>
        <time>2022-03-06T10:10:22Z</time>
      </trkpt>
      <trkpt lat="46.26655" lon="6.82246">
        <ele>1565.2</ele>
        <time>2022-03-06T10:10:23Z</time>
      </trkpt>
      <trkpt lat="46.26655" lon="6.82245">
        <ele>1565.4</ele>
        <time>2022-03-06T10:10:24Z</time>
      </trkpt>
      <trkpt lat="46.26656" lon="6.82244">
        <ele>1565.6</ele>
        <time>2022-03-06T10:10:25Z</time>
      </trkpt>
      <trkpt lat="46.26656" lon="6.82243">
        <ele>1565.8</ele>
        <time>2022-03-06T10:10:26Z</time>
      </trkpt>
      <trkpt lat="46.26656" lon="6.82243">
        <ele>1566</ele>
        <time>2022-03-06T10:10:27Z</time>
      </trkpt>
      <trkpt lat="46.26656" lon="6.82243">
        <ele>1566.2</ele>
        <time>2022-03-06T10:10:28Z</time>
      </trkpt>
      <trkpt lat="46.26656" lon="6.82242">
        <ele>1566.2</ele>
        <time>2022-03-06T10:10:29Z</time>
      </trkpt>
      <trkpt lat="46.26656" lon="6.8224">
        <ele>1566.4</ele>
        <time>2022-03-06T10:10:30Z</time>
      </trkpt>
      <trkpt lat="46.26656" lon="6.82239">
        <ele>1566.8</ele>
        <time>2022-03-06T10:10:31Z</time>
      </trkpt>
      <trkpt lat="46.26656" lon="6.82238">
        <ele>1567</ele>
        <time>2022-03-06T10:10:32Z</time>
      </trkpt>
      <trkpt lat="46.26656" lon="6.82238">
        <ele>1567.2</ele>
        <time>2022-03-06T10:10:33Z</time>
      </trkpt>
      <trkpt lat="46.26656" lon="6.82238">
        <ele>1567.2</ele>
        <time>2022-03-06T10:10:34Z</time>
      </trkpt>
      <trkpt lat="46.26656" lon="6.82236">
        <ele>1567.4</ele>
        <time>2022-03-06T10:10:35Z</time>
      </trkpt>
      <trkpt lat="46.26656" lon="6.82235">
        <ele>1567.6</ele>
        <time>2022-03-06T10:10:36Z</time>
      </trkpt>
      <trkpt lat="46.26656" lon="6.82234">
        <ele>1567.8</ele>
        <time>2022-03-06T10:10:37Z</time>
      </trkpt>
      <trkpt lat="46.26656" lon="6.82233">
        <ele>1568</ele>
        <time>2022-03-06T10:10:38Z</time>
      </trkpt>
      <trkpt lat="46.26657" lon="6.82232">
        <ele>1568.2</ele>
        <time>2022-03-06T10:10:39Z</time>
      </trkpt>
      <trkpt lat="46.26657" lon="6.82231">
        <ele>1568.4</ele>
        <time>2022-03-06T10:10:40Z</time>
      </trkpt>
      <trkpt lat="46.26658" lon="6.8223">
        <ele>1568.6</ele>
        <time>2022-03-06T10:10:41Z</time>
      </trkpt>
      <trkpt lat="46.26658" lon="6.82229">
        <ele>1568.8</ele>
        <time>2022-03-06T10:10:42Z</time>
      </trkpt>
      <trkpt lat="46.26658" lon="6.82228">
        <ele>1568.8</ele>
        <time>2022-03-06T10:10:43Z</time>
      </trkpt>
      <trkpt lat="46.26658" lon="6.82227">
        <ele>1569</ele>
        <time>2022-03-06T10:10:44Z</time>
      </trkpt>
      <trkpt lat="46.26658" lon="6.82226">
        <ele>1569</ele>
        <time>2022-03-06T10:10:45Z</time>
      </trkpt>
      <trkpt lat="46.26658" lon="6.82225">
        <ele>1569.2</ele>
        <time>2022-03-06T10:10:46Z</time>
      </trkpt>
      <trkpt lat="46.26658" lon="6.82223">
        <ele>1569.6</ele>
        <time>2022-03-06T10:10:47Z</time>
      </trkpt>
      <trkpt lat="46.26657" lon="6.82221">
        <ele>1569.6</ele>
        <time>2022-03-06T10:10:48Z</time>
      </trkpt>
      <trkpt lat="46.26656" lon="6.82219">
        <ele>1569.8</ele>
        <time>2022-03-06T10:10:49Z</time>
      </trkpt>
      <trkpt lat="46.26655" lon="6.82219">
        <ele>1569.8</ele>
        <time>2022-03-06T10:10:50Z</time>
      </trkpt>
      <trkpt lat="46.26654" lon="6.82217">
        <ele>1570.2</ele>
        <time>2022-03-06T10:10:51Z</time>
      </trkpt>
      <trkpt lat="46.26653" lon="6.82215">
        <ele>1570.4</ele>
        <time>2022-03-06T10:10:52Z</time>
      </trkpt>
      <trkpt lat="46.26652" lon="6.82214">
        <ele>1570.6</ele>
        <time>2022-03-06T10:10:53Z</time>
      </trkpt>
      <trkpt lat="46.26651" lon="6.82213">
        <ele>1570.8</ele>
        <time>2022-03-06T10:10:54Z</time>
      </trkpt>
      <trkpt lat="46.26651" lon="6.82212">
        <ele>1571.2</ele>
        <time>2022-03-06T10:10:55Z</time>
      </trkpt>
      <trkpt lat="46.2665" lon="6.82212">
        <ele>1571.2</ele>
        <time>2022-03-06T10:10:56Z</time>
      </trkpt>
      <trkpt lat="46.26649" lon="6.8221">
        <ele>1571.2</ele>
        <time>2022-03-06T10:10:57Z</time>
      </trkpt>
      <trkpt lat="46.26649" lon="6.82209">
        <ele>1571.4</ele>
        <time>2022-03-06T10:10:58Z</time>
      </trkpt>
      <trkpt lat="46.26648" lon="6.82208">
        <ele>1571.6</ele>
        <time>2022-03-06T10:10:59Z</time>
      </trkpt>
      <trkpt lat="46.26647" lon="6.82208">
        <ele>1571.6</ele>
        <time>2022-03-06T10:11:00Z</time>
      </trkpt>
      <trkpt lat="46.26647" lon="6.82207">
        <ele>1571.8</ele>
        <time>2022-03-06T10:11:01Z</time>
      </trkpt>
      <trkpt lat="46.26647" lon="6.82206">
        <ele>1571.8</ele>
        <time>2022-03-06T10:11:02Z</time>
      </trkpt>
      <trkpt lat="46.26647" lon="6.82205">
        <ele>1572</ele>
        <time>2022-03-06T10:11:03Z</time>
      </trkpt>
      <trkpt lat="46.26646" lon="6.82204">
        <ele>1572.2</ele>
        <time>2022-03-06T10:11:04Z</time>
      </trkpt>
      <trkpt lat="46.26645" lon="6.82203">
        <ele>1572.4</ele>
        <time>2022-03-06T10:11:05Z</time>
      </trkpt>
      <trkpt lat="46.26644" lon="6.82203">
        <ele>1572.6</ele>
        <time>2022-03-06T10:11:06Z</time>
      </trkpt>
      <trkpt lat="46.26643" lon="6.82202">
        <ele>1573</ele>
        <time>2022-03-06T10:11:07Z</time>
      </trkpt>
      <trkpt lat="46.26642" lon="6.82201">
        <ele>1573</ele>
        <time>2022-03-06T10:11:08Z</time>
      </trkpt>
      <trkpt lat="46.26641" lon="6.82199">
        <ele>1573.2</ele>
        <time>2022-03-06T10:11:09Z</time>
      </trkpt>
      <trkpt lat="46.2664" lon="6.82199">
        <ele>1573.2</ele>
        <time>2022-03-06T10:11:10Z</time>
      </trkpt>
      <trkpt lat="46.2664" lon="6.82198">
        <ele>1573.4</ele>
        <time>2022-03-06T10:11:11Z</time>
      </trkpt>
      <trkpt lat="46.26639" lon="6.82197">
        <ele>1573.6</ele>
        <time>2022-03-06T10:11:12Z</time>
      </trkpt>
      <trkpt lat="46.26638" lon="6.82196">
        <ele>1574</ele>
        <time>2022-03-06T10:11:13Z</time>
      </trkpt>
      <trkpt lat="46.26636" lon="6.82194">
        <ele>1574</ele>
        <time>2022-03-06T10:11:14Z</time>
      </trkpt>
      <trkpt lat="46.26635" lon="6.82193">
        <ele>1574.2</ele>
        <time>2022-03-06T10:11:15Z</time>
      </trkpt>
      <trkpt lat="46.26635" lon="6.82193">
        <ele>1574.2</ele>
        <time>2022-03-06T10:11:16Z</time>
      </trkpt>
      <trkpt lat="46.26634" lon="6.82192">
        <ele>1574.2</ele>
        <time>2022-03-06T10:11:17Z</time>
      </trkpt>
      <trkpt lat="46.26633" lon="6.82192">
        <ele>1574.6</ele>
        <time>2022-03-06T10:11:18Z</time>
      </trkpt>
      <trkpt lat="46.2663" lon="6.8219">
        <ele>1574.8</ele>
        <time>2022-03-06T10:11:25Z</time>
      </trkpt>
      <trkpt lat="46.2663" lon="6.8219">
        <ele>1574.8</ele>
        <time>2022-03-06T10:11:33Z</time>
      </trkpt>
      <trkpt lat="46.2663" lon="6.8219">
        <ele>1575</ele>
        <time>2022-03-06T10:11:43Z</time>
      </trkpt>
      <trkpt lat="46.26629" lon="6.82189">
        <ele>1574.8</ele>
        <time>2022-03-06T10:11:51Z</time>
      </trkpt>
      <trkpt lat="46.26628" lon="6.82188">
        <ele>1574.8</ele>
        <time>2022-03-06T10:11:52Z</time>
      </trkpt>
      <trkpt lat="46.26628" lon="6.82187">
        <ele>1574.8</ele>
        <time>2022-03-06T10:11:55Z</time>
      </trkpt>
      <trkpt lat="46.26628" lon="6.82186">
        <ele>1574.6</ele>
        <time>2022-03-06T10:11:56Z</time>
      </trkpt>
      <trkpt lat="46.26627" lon="6.82185">
        <ele>1574.8</ele>
        <time>2022-03-06T10:11:57Z</time>
      </trkpt>
      <trkpt lat="46.26627" lon="6.82185">
        <ele>1574.8</ele>
        <time>2022-03-06T10:11:58Z</time>
      </trkpt>
      <trkpt lat="46.26627" lon="6.82184">
        <ele>1574.8</ele>
        <time>2022-03-06T10:11:59Z</time>
      </trkpt>
      <trkpt lat="46.26627" lon="6.82183">
        <ele>1574.8</ele>
        <time>2022-03-06T10:12:00Z</time>
      </trkpt>
      <trkpt lat="46.26626" lon="6.82181">
        <ele>1575.2</ele>
        <time>2022-03-06T10:12:03Z</time>
      </trkpt>
      <trkpt lat="46.26625" lon="6.82179">
        <ele>1575.4</ele>
        <time>2022-03-06T10:12:04Z</time>
      </trkpt>
      <trkpt lat="46.26625" lon="6.82178">
        <ele>1575.6</ele>
        <time>2022-03-06T10:12:05Z</time>
      </trkpt>
      <trkpt lat="46.26625" lon="6.82177">
        <ele>1575.6</ele>
        <time>2022-03-06T10:12:06Z</time>
      </trkpt>
      <trkpt lat="46.26624" lon="6.82177">
        <ele>1575.6</ele>
        <time>2022-03-06T10:12:07Z</time>
      </trkpt>
      <trkpt lat="46.26624" lon="6.82176">
        <ele>1575.8</ele>
        <time>2022-03-06T10:12:08Z</time>
      </trkpt>
      <trkpt lat="46.26624" lon="6.82174">
        <ele>1576.2</ele>
        <time>2022-03-06T10:12:09Z</time>
      </trkpt>
      <trkpt lat="46.26623" lon="6.82173">
        <ele>1576.2</ele>
        <time>2022-03-06T10:12:10Z</time>
      </trkpt>
      <trkpt lat="46.26623" lon="6.82172">
        <ele>1576.6</ele>
        <time>2022-03-06T10:12:11Z</time>
      </trkpt>
      <trkpt lat="46.26623" lon="6.82171">
        <ele>1576.6</ele>
        <time>2022-03-06T10:12:12Z</time>
      </trkpt>
      <trkpt lat="46.26622" lon="6.8217">
        <ele>1576.8</ele>
        <time>2022-03-06T10:12:13Z</time>
      </trkpt>
      <trkpt lat="46.26622" lon="6.8217">
        <ele>1577</ele>
        <time>2022-03-06T10:12:14Z</time>
      </trkpt>
      <trkpt lat="46.26621" lon="6.82169">
        <ele>1577.2</ele>
        <time>2022-03-06T10:12:15Z</time>
      </trkpt>
      <trkpt lat="46.26621" lon="6.82168">
        <ele>1577.4</ele>
        <time>2022-03-06T10:12:16Z</time>
      </trkpt>
      <trkpt lat="46.26621" lon="6.82168">
        <ele>1577.4</ele>
        <time>2022-03-06T10:12:17Z</time>
      </trkpt>
      <trkpt lat="46.2662" lon="6.82167">
        <ele>1577.8</ele>
        <time>2022-03-06T10:12:18Z</time>
      </trkpt>
      <trkpt lat="46.2662" lon="6.82167">
        <ele>1577.8</ele>
        <time>2022-03-06T10:12:19Z</time>
      </trkpt>
      <trkpt lat="46.2662" lon="6.82166">
        <ele>1578</ele>
        <time>2022-03-06T10:12:20Z</time>
      </trkpt>
      <trkpt lat="46.26619" lon="6.82165">
        <ele>1578.2</ele>
        <time>2022-03-06T10:12:21Z</time>
      </trkpt>
      <trkpt lat="46.26619" lon="6.82165">
        <ele>1578.4</ele>
        <time>2022-03-06T10:12:22Z</time>
      </trkpt>
      <trkpt lat="46.26619" lon="6.82163">
        <ele>1578.6</ele>
        <time>2022-03-06T10:12:23Z</time>
      </trkpt>
      <trkpt lat="46.26618" lon="6.82163">
        <ele>1578.8</ele>
        <time>2022-03-06T10:12:24Z</time>
      </trkpt>
      <trkpt lat="46.26618" lon="6.82162">
        <ele>1579</ele>
        <time>2022-03-06T10:12:25Z</time>
      </trkpt>
      <trkpt lat="46.26618" lon="6.82161">
        <ele>1579.4</ele>
        <time>2022-03-06T10:12:26Z</time>
      </trkpt>
      <trkpt lat="46.26617" lon="6.8216">
        <ele>1579.6</ele>
        <time>2022-03-06T10:12:27Z</time>
      </trkpt>
      <trkpt lat="46.26617" lon="6.82159">
        <ele>1579.6</ele>
        <time>2022-03-06T10:12:28Z</time>
      </trkpt>
      <trkpt lat="46.26617" lon="6.82158">
        <ele>1580</ele>
        <time>2022-03-06T10:12:29Z</time>
      </trkpt>
      <trkpt lat="46.26617" lon="6.82157">
        <ele>1580</ele>
        <time>2022-03-06T10:12:30Z</time>
      </trkpt>
      <trkpt lat="46.26616" lon="6.82156">
        <ele>1580.2</ele>
        <time>2022-03-06T10:12:31Z</time>
      </trkpt>
      <trkpt lat="46.26616" lon="6.82155">
        <ele>1580.4</ele>
        <time>2022-03-06T10:12:32Z</time>
      </trkpt>
      <trkpt lat="46.26616" lon="6.82154">
        <ele>1580.4</ele>
        <time>2022-03-06T10:12:33Z</time>
      </trkpt>
      <trkpt lat="46.26615" lon="6.82153">
        <ele>1580.8</ele>
        <time>2022-03-06T10:12:34Z</time>
      </trkpt>
      <trkpt lat="46.26615" lon="6.82152">
        <ele>1581</ele>
        <time>2022-03-06T10:12:35Z</time>
      </trkpt>
      <trkpt lat="46.26615" lon="6.82151">
        <ele>1581</ele>
        <time>2022-03-06T10:12:36Z</time>
      </trkpt>
      <trkpt lat="46.26614" lon="6.8215">
        <ele>1581.4</ele>
        <time>2022-03-06T10:12:37Z</time>
      </trkpt>
      <trkpt lat="46.26614" lon="6.8215">
        <ele>1581.2</ele>
        <time>2022-03-06T10:12:38Z</time>
      </trkpt>
      <trkpt lat="46.26613" lon="6.82149">
        <ele>1581.6</ele>
        <time>2022-03-06T10:12:39Z</time>
      </trkpt>
      <trkpt lat="46.26612" lon="6.82148">
        <ele>1581.8</ele>
        <time>2022-03-06T10:12:40Z</time>
      </trkpt>
      <trkpt lat="46.26611" lon="6.82146">
        <ele>1582</ele>
        <time>2022-03-06T10:12:41Z</time>
      </trkpt>
      <trkpt lat="46.26611" lon="6.82145">
        <ele>1582.2</ele>
        <time>2022-03-06T10:12:42Z</time>
      </trkpt>
      <trkpt lat="46.2661" lon="6.82144">
        <ele>1582.2</ele>
        <time>2022-03-06T10:12:43Z</time>
      </trkpt>
      <trkpt lat="46.26609" lon="6.82143">
        <ele>1582.6</ele>
        <time>2022-03-06T10:12:44Z</time>
      </trkpt>
      <trkpt lat="46.26608" lon="6.82143">
        <ele>1582.8</ele>
        <time>2022-03-06T10:12:45Z</time>
      </trkpt>
      <trkpt lat="46.26608" lon="6.82142">
        <ele>1583</ele>
        <time>2022-03-06T10:12:46Z</time>
      </trkpt>
      <trkpt lat="46.26607" lon="6.82142">
        <ele>1583.2</ele>
        <time>2022-03-06T10:12:47Z</time>
      </trkpt>
      <trkpt lat="46.26607" lon="6.82141">
        <ele>1583.4</ele>
        <time>2022-03-06T10:12:48Z</time>
      </trkpt>
      <trkpt lat="46.26606" lon="6.82141">
        <ele>1583.6</ele>
        <time>2022-03-06T10:12:49Z</time>
      </trkpt>
      <trkpt lat="46.26606" lon="6.8214">
        <ele>1583.6</ele>
        <time>2022-03-06T10:12:50Z</time>
      </trkpt>
      <trkpt lat="46.26605" lon="6.82139">
        <ele>1583.6</ele>
        <time>2022-03-06T10:12:51Z</time>
      </trkpt>
      <trkpt lat="46.26605" lon="6.82139">
        <ele>1583.8</ele>
        <time>2022-03-06T10:12:52Z</time>
      </trkpt>
      <trkpt lat="46.26604" lon="6.82138">
        <ele>1584.2</ele>
        <time>2022-03-06T10:12:53Z</time>
      </trkpt>
      <trkpt lat="46.26604" lon="6.82137">
        <ele>1584.4</ele>
        <time>2022-03-06T10:12:54Z</time>
      </trkpt>
      <trkpt lat="46.26604" lon="6.82136">
        <ele>1584.6</ele>
        <time>2022-03-06T10:12:55Z</time>
      </trkpt>
      <trkpt lat="46.26603" lon="6.82135">
        <ele>1584.8</ele>
        <time>2022-03-06T10:12:56Z</time>
      </trkpt>
      <trkpt lat="46.26602" lon="6.82134">
        <ele>1584.8</ele>
        <time>2022-03-06T10:12:57Z</time>
      </trkpt>
      <trkpt lat="46.26602" lon="6.82133">
        <ele>1585.2</ele>
        <time>2022-03-06T10:12:58Z</time>
      </trkpt>
      <trkpt lat="46.26601" lon="6.82132">
        <ele>1585.2</ele>
        <time>2022-03-06T10:12:59Z</time>
      </trkpt>
      <trkpt lat="46.26601" lon="6.82132">
        <ele>1585.4</ele>
        <time>2022-03-06T10:13:00Z</time>
      </trkpt>
      <trkpt lat="46.266" lon="6.8213">
        <ele>1585.6</ele>
        <time>2022-03-06T10:13:01Z</time>
      </trkpt>
      <trkpt lat="46.26599" lon="6.8213">
        <ele>1585.8</ele>
        <time>2022-03-06T10:13:02Z</time>
      </trkpt>
      <trkpt lat="46.26599" lon="6.82129">
        <ele>1586</ele>
        <time>2022-03-06T10:13:03Z</time>
      </trkpt>
      <trkpt lat="46.26598" lon="6.82128">
        <ele>1586.2</ele>
        <time>2022-03-06T10:13:04Z</time>
      </trkpt>
      <trkpt lat="46.26597" lon="6.82127">
        <ele>1586.4</ele>
        <time>2022-03-06T10:13:05Z</time>
      </trkpt>
      <trkpt lat="46.26597" lon="6.82126">
        <ele>1586.4</ele>
        <time>2022-03-06T10:13:06Z</time>
      </trkpt>
      <trkpt lat="46.26596" lon="6.82125">
        <ele>1586.4</ele>
        <time>2022-03-06T10:13:07Z</time>
      </trkpt>
      <trkpt lat="46.26596" lon="6.82124">
        <ele>1586.6</ele>
        <time>2022-03-06T10:13:08Z</time>
      </trkpt>
      <trkpt lat="46.26595" lon="6.82123">
        <ele>1586.8</ele>
        <time>2022-03-06T10:13:09Z</time>
      </trkpt>
      <trkpt lat="46.26594" lon="6.82122">
        <ele>1587</ele>
        <time>2022-03-06T10:13:10Z</time>
      </trkpt>
      <trkpt lat="46.26594" lon="6.82121">
        <ele>1587.4</ele>
        <time>2022-03-06T10:13:11Z</time>
      </trkpt>
      <trkpt lat="46.26593" lon="6.8212">
        <ele>1587.6</ele>
        <time>2022-03-06T10:13:12Z</time>
      </trkpt>
      <trkpt lat="46.26592" lon="6.82119">
        <ele>1587.8</ele>
        <time>2022-03-06T10:13:13Z</time>
      </trkpt>
      <trkpt lat="46.26592" lon="6.82118">
        <ele>1587.8</ele>
        <time>2022-03-06T10:13:14Z</time>
      </trkpt>
      <trkpt lat="46.26591" lon="6.82117">
        <ele>1588</ele>
        <time>2022-03-06T10:13:15Z</time>
      </trkpt>
      <trkpt lat="46.2659" lon="6.82117">
        <ele>1588</ele>
        <time>2022-03-06T10:13:16Z</time>
      </trkpt>
      <trkpt lat="46.26589" lon="6.82116">
        <ele>1588.4</ele>
        <time>2022-03-06T10:13:17Z</time>
      </trkpt>
      <trkpt lat="46.26589" lon="6.82115">
        <ele>1588.4</ele>
        <time>2022-03-06T10:13:18Z</time>
      </trkpt>
      <trkpt lat="46.26588" lon="6.82113">
        <ele>1588.8</ele>
        <time>2022-03-06T10:13:19Z</time>
      </trkpt>
      <trkpt lat="46.26588" lon="6.82112">
        <ele>1588.8</ele>
        <time>2022-03-06T10:13:20Z</time>
      </trkpt>
      <trkpt lat="46.26588" lon="6.82111">
        <ele>1589</ele>
        <time>2022-03-06T10:13:21Z</time>
      </trkpt>
      <trkpt lat="46.26587" lon="6.8211">
        <ele>1589.2</ele>
        <time>2022-03-06T10:13:22Z</time>
      </trkpt>
      <trkpt lat="46.26587" lon="6.82109">
        <ele>1589.2</ele>
        <time>2022-03-06T10:13:23Z</time>
      </trkpt>
      <trkpt lat="46.26587" lon="6.82109">
        <ele>1589.4</ele>
        <time>2022-03-06T10:13:24Z</time>
      </trkpt>
      <trkpt lat="46.26586" lon="6.82108">
        <ele>1589.4</ele>
        <time>2022-03-06T10:13:25Z</time>
      </trkpt>
      <trkpt lat="46.26586" lon="6.82108">
        <ele>1589.6</ele>
        <time>2022-03-06T10:13:26Z</time>
      </trkpt>
      <trkpt lat="46.26585" lon="6.82107">
        <ele>1589.8</ele>
        <time>2022-03-06T10:13:27Z</time>
      </trkpt>
      <trkpt lat="46.26584" lon="6.82106">
        <ele>1589.8</ele>
        <time>2022-03-06T10:13:28Z</time>
      </trkpt>
      <trkpt lat="46.26584" lon="6.82106">
        <ele>1590</ele>
        <time>2022-03-06T10:13:29Z</time>
      </trkpt>
      <trkpt lat="46.26582" lon="6.82109">
        <ele>1590.2</ele>
        <time>2022-03-06T10:13:30Z</time>
      </trkpt>
      <trkpt lat="46.26581" lon="6.8211">
        <ele>1590.2</ele>
        <time>2022-03-06T10:13:31Z</time>
      </trkpt>
      <trkpt lat="46.26581" lon="6.8211">
        <ele>1590.4</ele>
        <time>2022-03-06T10:13:32Z</time>
      </trkpt>
      <trkpt lat="46.2658" lon="6.82109">
        <ele>1590.6</ele>
        <time>2022-03-06T10:13:33Z</time>
      </trkpt>
      <trkpt lat="46.26578" lon="6.8211">
        <ele>1590.8</ele>
        <time>2022-03-06T10:13:34Z</time>
      </trkpt>
      <trkpt lat="46.26577" lon="6.82109">
        <ele>1590.8</ele>
        <time>2022-03-06T10:13:35Z</time>
      </trkpt>
      <trkpt lat="46.26577" lon="6.82108">
        <ele>1591</ele>
        <time>2022-03-06T10:13:36Z</time>
      </trkpt>
      <trkpt lat="46.26576" lon="6.82108">
        <ele>1591</ele>
        <time>2022-03-06T10:13:37Z</time>
      </trkpt>
      <trkpt lat="46.26575" lon="6.82107">
        <ele>1591.2</ele>
        <time>2022-03-06T10:13:38Z</time>
      </trkpt>
      <trkpt lat="46.26575" lon="6.82106">
        <ele>1591.4</ele>
        <time>2022-03-06T10:13:39Z</time>
      </trkpt>
      <trkpt lat="46.26574" lon="6.82106">
        <ele>1591.4</ele>
        <time>2022-03-06T10:13:40Z</time>
      </trkpt>
      <trkpt lat="46.26573" lon="6.82106">
        <ele>1591.6</ele>
        <time>2022-03-06T10:13:41Z</time>
      </trkpt>
      <trkpt lat="46.26573" lon="6.82106">
        <ele>1592</ele>
        <time>2022-03-06T10:13:42Z</time>
      </trkpt>
      <trkpt lat="46.26572" lon="6.82106">
        <ele>1592.2</ele>
        <time>2022-03-06T10:13:43Z</time>
      </trkpt>
      <trkpt lat="46.26572" lon="6.82106">
        <ele>1592</ele>
        <time>2022-03-06T10:13:44Z</time>
      </trkpt>
      <trkpt lat="46.26571" lon="6.82105">
        <ele>1592.6</ele>
        <time>2022-03-06T10:13:45Z</time>
      </trkpt>
      <trkpt lat="46.26571" lon="6.82104">
        <ele>1592.6</ele>
        <time>2022-03-06T10:13:46Z</time>
      </trkpt>
      <trkpt lat="46.2657" lon="6.82104">
        <ele>1592.8</ele>
        <time>2022-03-06T10:13:47Z</time>
      </trkpt>
      <trkpt lat="46.2657" lon="6.82103">
        <ele>1593</ele>
        <time>2022-03-06T10:13:48Z</time>
      </trkpt>
      <trkpt lat="46.2657" lon="6.82102">
        <ele>1593</ele>
        <time>2022-03-06T10:13:49Z</time>
      </trkpt>
      <trkpt lat="46.26569" lon="6.82101">
        <ele>1593.2</ele>
        <time>2022-03-06T10:13:50Z</time>
      </trkpt>
      <trkpt lat="46.26569" lon="6.821">
        <ele>1593.4</ele>
        <time>2022-03-06T10:13:51Z</time>
      </trkpt>
      <trkpt lat="46.26569" lon="6.82099">
        <ele>1593.4</ele>
        <time>2022-03-06T10:13:52Z</time>
      </trkpt>
      <trkpt lat="46.26569" lon="6.82097">
        <ele>1593.6</ele>
        <time>2022-03-06T10:13:53Z</time>
      </trkpt>
      <trkpt lat="46.26569" lon="6.82096">
        <ele>1593.8</ele>
        <time>2022-03-06T10:13:54Z</time>
      </trkpt>
      <trkpt lat="46.26569" lon="6.82095">
        <ele>1593.8</ele>
        <time>2022-03-06T10:13:55Z</time>
      </trkpt>
      <trkpt lat="46.26568" lon="6.82094">
        <ele>1594</ele>
        <time>2022-03-06T10:13:56Z</time>
      </trkpt>
      <trkpt lat="46.26568" lon="6.82093">
        <ele>1594.2</ele>
        <time>2022-03-06T10:13:57Z</time>
      </trkpt>
      <trkpt lat="46.26567" lon="6.82092">
        <ele>1594.2</ele>
        <time>2022-03-06T10:13:58Z</time>
      </trkpt>
      <trkpt lat="46.26567" lon="6.82092">
        <ele>1594.2</ele>
        <time>2022-03-06T10:13:59Z</time>
      </trkpt>
      <trkpt lat="46.26567" lon="6.82091">
        <ele>1594.4</ele>
        <time>2022-03-06T10:14:00Z</time>
      </trkpt>
      <trkpt lat="46.26567" lon="6.8209">
        <ele>1594.6</ele>
        <time>2022-03-06T10:14:01Z</time>
      </trkpt>
      <trkpt lat="46.26566" lon="6.82089">
        <ele>1594.8</ele>
        <time>2022-03-06T10:14:02Z</time>
      </trkpt>
      <trkpt lat="46.26566" lon="6.82088">
        <ele>1594.8</ele>
        <time>2022-03-06T10:14:03Z</time>
      </trkpt>
      <trkpt lat="46.26566" lon="6.82087">
        <ele>1595</ele>
        <time>2022-03-06T10:14:04Z</time>
      </trkpt>
      <trkpt lat="46.26566" lon="6.82086">
        <ele>1595.2</ele>
        <time>2022-03-06T10:14:05Z</time>
      </trkpt>
      <trkpt lat="46.26566" lon="6.82085">
        <ele>1595.4</ele>
        <time>2022-03-06T10:14:06Z</time>
      </trkpt>
      <trkpt lat="46.26566" lon="6.82084">
        <ele>1595.6</ele>
        <time>2022-03-06T10:14:07Z</time>
      </trkpt>
      <trkpt lat="46.26566" lon="6.82083">
        <ele>1595.8</ele>
        <time>2022-03-06T10:14:08Z</time>
      </trkpt>
      <trkpt lat="46.26566" lon="6.82082">
        <ele>1596</ele>
        <time>2022-03-06T10:14:09Z</time>
      </trkpt>
      <trkpt lat="46.26565" lon="6.82081">
        <ele>1596</ele>
        <time>2022-03-06T10:14:10Z</time>
      </trkpt>
      <trkpt lat="46.26565" lon="6.82081">
        <ele>1596.2</ele>
        <time>2022-03-06T10:14:11Z</time>
      </trkpt>
      <trkpt lat="46.26565" lon="6.8208">
        <ele>1596.4</ele>
        <time>2022-03-06T10:14:12Z</time>
      </trkpt>
      <trkpt lat="46.26566" lon="6.82078">
        <ele>1596.6</ele>
        <time>2022-03-06T10:14:13Z</time>
      </trkpt>
      <trkpt lat="46.26565" lon="6.82077">
        <ele>1596.8</ele>
        <time>2022-03-06T10:14:14Z</time>
      </trkpt>
      <trkpt lat="46.26565" lon="6.82077">
        <ele>1597</ele>
        <time>2022-03-06T10:14:15Z</time>
      </trkpt>
      <trkpt lat="46.26566" lon="6.82076">
        <ele>1597.2</ele>
        <time>2022-03-06T10:14:16Z</time>
      </trkpt>
      <trkpt lat="46.26566" lon="6.82075">
        <ele>1597.4</ele>
        <time>2022-03-06T10:14:17Z</time>
      </trkpt>
      <trkpt lat="46.26566" lon="6.82074">
        <ele>1597.4</ele>
        <time>2022-03-06T10:14:18Z</time>
      </trkpt>
      <trkpt lat="46.26566" lon="6.82073">
        <ele>1597.6</ele>
        <time>2022-03-06T10:14:19Z</time>
      </trkpt>
      <trkpt lat="46.26567" lon="6.82072">
        <ele>1597.8</ele>
        <time>2022-03-06T10:14:20Z</time>
      </trkpt>
      <trkpt lat="46.26567" lon="6.82071">
        <ele>1598</ele>
        <time>2022-03-06T10:14:21Z</time>
      </trkpt>
      <trkpt lat="46.26567" lon="6.8207">
        <ele>1598</ele>
        <time>2022-03-06T10:14:22Z</time>
      </trkpt>
      <trkpt lat="46.26567" lon="6.82069">
        <ele>1598.2</ele>
        <time>2022-03-06T10:14:23Z</time>
      </trkpt>
      <trkpt lat="46.26567" lon="6.82068">
        <ele>1598.2</ele>
        <time>2022-03-06T10:14:24Z</time>
      </trkpt>
      <trkpt lat="46.26567" lon="6.82067">
        <ele>1598.4</ele>
        <time>2022-03-06T10:14:25Z</time>
      </trkpt>
      <trkpt lat="46.26568" lon="6.82066">
        <ele>1598.6</ele>
        <time>2022-03-06T10:14:26Z</time>
      </trkpt>
      <trkpt lat="46.26568" lon="6.82064">
        <ele>1598.6</ele>
        <time>2022-03-06T10:14:27Z</time>
      </trkpt>
      <trkpt lat="46.26568" lon="6.82063">
        <ele>1598.8</ele>
        <time>2022-03-06T10:14:28Z</time>
      </trkpt>
      <trkpt lat="46.26568" lon="6.82063">
        <ele>1599</ele>
        <time>2022-03-06T10:14:29Z</time>
      </trkpt>
      <trkpt lat="46.26568" lon="6.82062">
        <ele>1599.2</ele>
        <time>2022-03-06T10:14:30Z</time>
      </trkpt>
      <trkpt lat="46.26568" lon="6.82061">
        <ele>1599.4</ele>
        <time>2022-03-06T10:14:31Z</time>
      </trkpt>
      <trkpt lat="46.26568" lon="6.82059">
        <ele>1599.6</ele>
        <time>2022-03-06T10:14:32Z</time>
      </trkpt>
      <trkpt lat="46.26569" lon="6.82057">
        <ele>1600</ele>
        <time>2022-03-06T10:14:33Z</time>
      </trkpt>
      <trkpt lat="46.26569" lon="6.82055">
        <ele>1600.2</ele>
        <time>2022-03-06T10:14:34Z</time>
      </trkpt>
      <trkpt lat="46.26569" lon="6.82053">
        <ele>1600.4</ele>
        <time>2022-03-06T10:14:35Z</time>
      </trkpt>
      <trkpt lat="46.26569" lon="6.8205">
        <ele>1600.4</ele>
        <time>2022-03-06T10:14:36Z</time>
      </trkpt>
      <trkpt lat="46.26569" lon="6.82049">
        <ele>1600.6</ele>
        <time>2022-03-06T10:14:37Z</time>
      </trkpt>
      <trkpt lat="46.26569" lon="6.82047">
        <ele>1601</ele>
        <time>2022-03-06T10:14:38Z</time>
      </trkpt>
      <trkpt lat="46.2657" lon="6.82046">
        <ele>1601</ele>
        <time>2022-03-06T10:14:39Z</time>
      </trkpt>
      <trkpt lat="46.2657" lon="6.82045">
        <ele>1601.2</ele>
        <time>2022-03-06T10:14:40Z</time>
      </trkpt>
      <trkpt lat="46.2657" lon="6.82044">
        <ele>1601.2</ele>
        <time>2022-03-06T10:14:41Z</time>
      </trkpt>
      <trkpt lat="46.26571" lon="6.82043">
        <ele>1601.4</ele>
        <time>2022-03-06T10:14:42Z</time>
      </trkpt>
      <trkpt lat="46.26571" lon="6.82041">
        <ele>1601.6</ele>
        <time>2022-03-06T10:14:43Z</time>
      </trkpt>
      <trkpt lat="46.26571" lon="6.82039">
        <ele>1601.8</ele>
        <time>2022-03-06T10:14:44Z</time>
      </trkpt>
      <trkpt lat="46.26571" lon="6.82038">
        <ele>1601.8</ele>
        <time>2022-03-06T10:14:45Z</time>
      </trkpt>
      <trkpt lat="46.26571" lon="6.82036">
        <ele>1602</ele>
        <time>2022-03-06T10:14:46Z</time>
      </trkpt>
      <trkpt lat="46.26571" lon="6.82034">
        <ele>1602</ele>
        <time>2022-03-06T10:14:47Z</time>
      </trkpt>
      <trkpt lat="46.26571" lon="6.82033">
        <ele>1602</ele>
        <time>2022-03-06T10:14:48Z</time>
      </trkpt>
      <trkpt lat="46.26571" lon="6.82032">
        <ele>1602.2</ele>
        <time>2022-03-06T10:14:49Z</time>
      </trkpt>
      <trkpt lat="46.2657" lon="6.8203">
        <ele>1602.2</ele>
        <time>2022-03-06T10:14:50Z</time>
      </trkpt>
      <trkpt lat="46.26571" lon="6.82029">
        <ele>1602.4</ele>
        <time>2022-03-06T10:14:51Z</time>
      </trkpt>
      <trkpt lat="46.2657" lon="6.82028">
        <ele>1602.6</ele>
        <time>2022-03-06T10:14:52Z</time>
      </trkpt>
      <trkpt lat="46.2657" lon="6.82027">
        <ele>1602.6</ele>
        <time>2022-03-06T10:14:53Z</time>
      </trkpt>
      <trkpt lat="46.2657" lon="6.82026">
        <ele>1602.6</ele>
        <time>2022-03-06T10:14:54Z</time>
      </trkpt>
      <trkpt lat="46.2657" lon="6.82026">
        <ele>1602.8</ele>
        <time>2022-03-06T10:14:55Z</time>
      </trkpt>
      <trkpt lat="46.2657" lon="6.82025">
        <ele>1602.8</ele>
        <time>2022-03-06T10:14:56Z</time>
      </trkpt>
      <trkpt lat="46.26571" lon="6.82024">
        <ele>1603.2</ele>
        <time>2022-03-06T10:14:57Z</time>
      </trkpt>
      <trkpt lat="46.2657" lon="6.82023">
        <ele>1603.2</ele>
        <time>2022-03-06T10:14:58Z</time>
      </trkpt>
      <trkpt lat="46.2657" lon="6.82021">
        <ele>1603.4</ele>
        <time>2022-03-06T10:14:59Z</time>
      </trkpt>
      <trkpt lat="46.2657" lon="6.82019">
        <ele>1603.4</ele>
        <time>2022-03-06T10:15:00Z</time>
      </trkpt>
      <trkpt lat="46.26569" lon="6.82017">
        <ele>1603.4</ele>
        <time>2022-03-06T10:15:01Z</time>
      </trkpt>
      <trkpt lat="46.26569" lon="6.82016">
        <ele>1603.4</ele>
        <time>2022-03-06T10:15:02Z</time>
      </trkpt>
      <trkpt lat="46.26569" lon="6.82015">
        <ele>1603.6</ele>
        <time>2022-03-06T10:15:03Z</time>
      </trkpt>
      <trkpt lat="46.26569" lon="6.82014">
        <ele>1603.6</ele>
        <time>2022-03-06T10:15:04Z</time>
      </trkpt>
      <trkpt lat="46.26569" lon="6.82013">
        <ele>1603.8</ele>
        <time>2022-03-06T10:15:05Z</time>
      </trkpt>
      <trkpt lat="46.26569" lon="6.82012">
        <ele>1603.8</ele>
        <time>2022-03-06T10:15:06Z</time>
      </trkpt>
      <trkpt lat="46.26569" lon="6.82011">
        <ele>1604</ele>
        <time>2022-03-06T10:15:07Z</time>
      </trkpt>
      <trkpt lat="46.26568" lon="6.82009">
        <ele>1604</ele>
        <time>2022-03-06T10:15:08Z</time>
      </trkpt>
      <trkpt lat="46.26568" lon="6.82007">
        <ele>1604</ele>
        <time>2022-03-06T10:15:09Z</time>
      </trkpt>
      <trkpt lat="46.26567" lon="6.82006">
        <ele>1604.2</ele>
        <time>2022-03-06T10:15:10Z</time>
      </trkpt>
      <trkpt lat="46.26567" lon="6.82006">
        <ele>1604.2</ele>
        <time>2022-03-06T10:15:11Z</time>
      </trkpt>
      <trkpt lat="46.26567" lon="6.82005">
        <ele>1604.2</ele>
        <time>2022-03-06T10:15:12Z</time>
      </trkpt>
      <trkpt lat="46.26567" lon="6.82004">
        <ele>1604.4</ele>
        <time>2022-03-06T10:15:13Z</time>
      </trkpt>
      <trkpt lat="46.26567" lon="6.82003">
        <ele>1604.4</ele>
        <time>2022-03-06T10:15:14Z</time>
      </trkpt>
      <trkpt lat="46.26567" lon="6.82002">
        <ele>1604.4</ele>
        <time>2022-03-06T10:15:15Z</time>
      </trkpt>
      <trkpt lat="46.26567" lon="6.82002">
        <ele>1604.6</ele>
        <time>2022-03-06T10:15:16Z</time>
      </trkpt>
      <trkpt lat="46.26566" lon="6.82001">
        <ele>1604.8</ele>
        <time>2022-03-06T10:15:17Z</time>
      </trkpt>
      <trkpt lat="46.26565" lon="6.82">
        <ele>1604.8</ele>
        <time>2022-03-06T10:15:18Z</time>
      </trkpt>
      <trkpt lat="46.26565" lon="6.82">
        <ele>1605</ele>
        <time>2022-03-06T10:15:19Z</time>
      </trkpt>
      <trkpt lat="46.26563" lon="6.81997">
        <ele>1605.4</ele>
        <time>2022-03-06T10:15:22Z</time>
      </trkpt>
      <trkpt lat="46.26562" lon="6.81996">
        <ele>1605.6</ele>
        <time>2022-03-06T10:15:23Z</time>
      </trkpt>
      <trkpt lat="46.26563" lon="6.81993">
        <ele>1605.6</ele>
        <time>2022-03-06T10:15:24Z</time>
      </trkpt>
      <trkpt lat="46.26563" lon="6.81992">
        <ele>1605.8</ele>
        <time>2022-03-06T10:15:25Z</time>
      </trkpt>
      <trkpt lat="46.26564" lon="6.81991">
        <ele>1606</ele>
        <time>2022-03-06T10:15:26Z</time>
      </trkpt>
      <trkpt lat="46.26564" lon="6.81991">
        <ele>1606</ele>
        <time>2022-03-06T10:15:27Z</time>
      </trkpt>
      <trkpt lat="46.26564" lon="6.8199">
        <ele>1606.4</ele>
        <time>2022-03-06T10:15:28Z</time>
      </trkpt>
      <trkpt lat="46.26565" lon="6.81989">
        <ele>1606.4</ele>
        <time>2022-03-06T10:15:29Z</time>
      </trkpt>
      <trkpt lat="46.26565" lon="6.81988">
        <ele>1606.4</ele>
        <time>2022-03-06T10:15:30Z</time>
      </trkpt>
      <trkpt lat="46.26565" lon="6.81987">
        <ele>1606.6</ele>
        <time>2022-03-06T10:15:31Z</time>
      </trkpt>
      <trkpt lat="46.26565" lon="6.81986">
        <ele>1606.8</ele>
        <time>2022-03-06T10:15:32Z</time>
      </trkpt>
      <trkpt lat="46.26565" lon="6.81985">
        <ele>1607</ele>
        <time>2022-03-06T10:15:33Z</time>
      </trkpt>
      <trkpt lat="46.26566" lon="6.81984">
        <ele>1607</ele>
        <time>2022-03-06T10:15:34Z</time>
      </trkpt>
      <trkpt lat="46.26566" lon="6.81983">
        <ele>1607.4</ele>
        <time>2022-03-06T10:15:35Z</time>
      </trkpt>
      <trkpt lat="46.26567" lon="6.81982">
        <ele>1607.6</ele>
        <time>2022-03-06T10:15:36Z</time>
      </trkpt>
      <trkpt lat="46.26568" lon="6.81981">
        <ele>1607.8</ele>
        <time>2022-03-06T10:15:37Z</time>
      </trkpt>
      <trkpt lat="46.26568" lon="6.8198">
        <ele>1607.8</ele>
        <time>2022-03-06T10:15:38Z</time>
      </trkpt>
      <trkpt lat="46.26569" lon="6.81979">
        <ele>1608.4</ele>
        <time>2022-03-06T10:15:39Z</time>
      </trkpt>
      <trkpt lat="46.26569" lon="6.81978">
        <ele>1608.6</ele>
        <time>2022-03-06T10:15:40Z</time>
      </trkpt>
      <trkpt lat="46.2657" lon="6.81978">
        <ele>1608.8</ele>
        <time>2022-03-06T10:15:41Z</time>
      </trkpt>
      <trkpt lat="46.26571" lon="6.81977">
        <ele>1608.8</ele>
        <time>2022-03-06T10:15:42Z</time>
      </trkpt>
      <trkpt lat="46.26572" lon="6.81976">
        <ele>1609</ele>
        <time>2022-03-06T10:15:43Z</time>
      </trkpt>
      <trkpt lat="46.26573" lon="6.81974">
        <ele>1609</ele>
        <time>2022-03-06T10:15:44Z</time>
      </trkpt>
      <trkpt lat="46.26574" lon="6.81972">
        <ele>1609</ele>
        <time>2022-03-06T10:15:45Z</time>
      </trkpt>
      <trkpt lat="46.26574" lon="6.81971">
        <ele>1609.2</ele>
        <time>2022-03-06T10:15:46Z</time>
      </trkpt>
      <trkpt lat="46.26575" lon="6.8197">
        <ele>1609.4</ele>
        <time>2022-03-06T10:15:47Z</time>
      </trkpt>
      <trkpt lat="46.26577" lon="6.81969">
        <ele>1609.4</ele>
        <time>2022-03-06T10:15:48Z</time>
      </trkpt>
      <trkpt lat="46.26578" lon="6.81967">
        <ele>1609.6</ele>
        <time>2022-03-06T10:15:49Z</time>
      </trkpt>
      <trkpt lat="46.26578" lon="6.81966">
        <ele>1609.6</ele>
        <time>2022-03-06T10:15:50Z</time>
      </trkpt>
      <trkpt lat="46.26579" lon="6.81965">
        <ele>1609.8</ele>
        <time>2022-03-06T10:15:51Z</time>
      </trkpt>
      <trkpt lat="46.2658" lon="6.81964">
        <ele>1610</ele>
        <time>2022-03-06T10:15:52Z</time>
      </trkpt>
      <trkpt lat="46.26581" lon="6.81964">
        <ele>1610</ele>
        <time>2022-03-06T10:15:53Z</time>
      </trkpt>
      <trkpt lat="46.26581" lon="6.81963">
        <ele>1610.2</ele>
        <time>2022-03-06T10:15:54Z</time>
      </trkpt>
      <trkpt lat="46.26582" lon="6.81961">
        <ele>1610.2</ele>
        <time>2022-03-06T10:15:55Z</time>
      </trkpt>
      <trkpt lat="46.26582" lon="6.81959">
        <ele>1610.4</ele>
        <time>2022-03-06T10:15:56Z</time>
      </trkpt>
      <trkpt lat="46.26583" lon="6.81958">
        <ele>1610.8</ele>
        <time>2022-03-06T10:15:57Z</time>
      </trkpt>
      <trkpt lat="46.26583" lon="6.81957">
        <ele>1610.8</ele>
        <time>2022-03-06T10:15:58Z</time>
      </trkpt>
      <trkpt lat="46.26584" lon="6.81956">
        <ele>1611</ele>
        <time>2022-03-06T10:15:59Z</time>
      </trkpt>
      <trkpt lat="46.26585" lon="6.81956">
        <ele>1611.4</ele>
        <time>2022-03-06T10:16:00Z</time>
      </trkpt>
      <trkpt lat="46.26585" lon="6.81956">
        <ele>1611.4</ele>
        <time>2022-03-06T10:16:01Z</time>
      </trkpt>
      <trkpt lat="46.26585" lon="6.81956">
        <ele>1611.8</ele>
        <time>2022-03-06T10:16:02Z</time>
      </trkpt>
      <trkpt lat="46.26586" lon="6.81957">
        <ele>1612</ele>
        <time>2022-03-06T10:16:03Z</time>
      </trkpt>
      <trkpt lat="46.26586" lon="6.81956">
        <ele>1612</ele>
        <time>2022-03-06T10:16:04Z</time>
      </trkpt>
      <trkpt lat="46.26587" lon="6.81955">
        <ele>1612.2</ele>
        <time>2022-03-06T10:16:05Z</time>
      </trkpt>
      <trkpt lat="46.26587" lon="6.81956">
        <ele>1612.2</ele>
        <time>2022-03-06T10:16:06Z</time>
      </trkpt>
      <trkpt lat="46.26587" lon="6.81955">
        <ele>1612.4</ele>
        <time>2022-03-06T10:16:07Z</time>
      </trkpt>
      <trkpt lat="46.26588" lon="6.81954">
        <ele>1612.4</ele>
        <time>2022-03-06T10:16:08Z</time>
      </trkpt>
      <trkpt lat="46.26589" lon="6.81952">
        <ele>1612.6</ele>
        <time>2022-03-06T10:16:09Z</time>
      </trkpt>
      <trkpt lat="46.2659" lon="6.81951">
        <ele>1612.8</ele>
        <time>2022-03-06T10:16:10Z</time>
      </trkpt>
      <trkpt lat="46.26592" lon="6.8195">
        <ele>1613</ele>
        <time>2022-03-06T10:16:11Z</time>
      </trkpt>
      <trkpt lat="46.26592" lon="6.81949">
        <ele>1613</ele>
        <time>2022-03-06T10:16:12Z</time>
      </trkpt>
      <trkpt lat="46.26593" lon="6.81948">
        <ele>1613.4</ele>
        <time>2022-03-06T10:16:13Z</time>
      </trkpt>
      <trkpt lat="46.26593" lon="6.81947">
        <ele>1613.4</ele>
        <time>2022-03-06T10:16:14Z</time>
      </trkpt>
      <trkpt lat="46.26593" lon="6.81945">
        <ele>1613.6</ele>
        <time>2022-03-06T10:16:15Z</time>
      </trkpt>
      <trkpt lat="46.26593" lon="6.81945">
        <ele>1613.6</ele>
        <time>2022-03-06T10:16:16Z</time>
      </trkpt>
      <trkpt lat="46.26593" lon="6.81943">
        <ele>1613.6</ele>
        <time>2022-03-06T10:16:17Z</time>
      </trkpt>
      <trkpt lat="46.26593" lon="6.81942">
        <ele>1613.8</ele>
        <time>2022-03-06T10:16:18Z</time>
      </trkpt>
      <trkpt lat="46.26593" lon="6.81941">
        <ele>1613.8</ele>
        <time>2022-03-06T10:16:19Z</time>
      </trkpt>
      <trkpt lat="46.26592" lon="6.81941">
        <ele>1614</ele>
        <time>2022-03-06T10:16:20Z</time>
      </trkpt>
      <trkpt lat="46.26592" lon="6.8194">
        <ele>1614.2</ele>
        <time>2022-03-06T10:16:21Z</time>
      </trkpt>
      <trkpt lat="46.26592" lon="6.8194">
        <ele>1614.4</ele>
        <time>2022-03-06T10:16:22Z</time>
      </trkpt>
      <trkpt lat="46.26591" lon="6.8194">
        <ele>1614.6</ele>
        <time>2022-03-06T10:16:23Z</time>
      </trkpt>
      <trkpt lat="46.2659" lon="6.81939">
        <ele>1614.8</ele>
        <time>2022-03-06T10:16:24Z</time>
      </trkpt>
      <trkpt lat="46.26589" lon="6.81938">
        <ele>1615</ele>
        <time>2022-03-06T10:16:25Z</time>
      </trkpt>
      <trkpt lat="46.26588" lon="6.81937">
        <ele>1615.2</ele>
        <time>2022-03-06T10:16:26Z</time>
      </trkpt>
      <trkpt lat="46.26588" lon="6.81935">
        <ele>1615.2</ele>
        <time>2022-03-06T10:16:27Z</time>
      </trkpt>
      <trkpt lat="46.26587" lon="6.81934">
        <ele>1615.4</ele>
        <time>2022-03-06T10:16:28Z</time>
      </trkpt>
      <trkpt lat="46.26586" lon="6.81932">
        <ele>1615.6</ele>
        <time>2022-03-06T10:16:29Z</time>
      </trkpt>
      <trkpt lat="46.26585" lon="6.81931">
        <ele>1615.6</ele>
        <time>2022-03-06T10:16:30Z</time>
      </trkpt>
      <trkpt lat="46.26584" lon="6.8193">
        <ele>1615.8</ele>
        <time>2022-03-06T10:16:31Z</time>
      </trkpt>
      <trkpt lat="46.26582" lon="6.81928">
        <ele>1616</ele>
        <time>2022-03-06T10:16:32Z</time>
      </trkpt>
      <trkpt lat="46.26581" lon="6.81927">
        <ele>1616.2</ele>
        <time>2022-03-06T10:16:33Z</time>
      </trkpt>
      <trkpt lat="46.2658" lon="6.81926">
        <ele>1616.4</ele>
        <time>2022-03-06T10:16:34Z</time>
      </trkpt>
      <trkpt lat="46.26579" lon="6.81925">
        <ele>1616.6</ele>
        <time>2022-03-06T10:16:35Z</time>
      </trkpt>
      <trkpt lat="46.26579" lon="6.81925">
        <ele>1616.8</ele>
        <time>2022-03-06T10:16:36Z</time>
      </trkpt>
      <trkpt lat="46.26578" lon="6.81924">
        <ele>1616.8</ele>
        <time>2022-03-06T10:16:37Z</time>
      </trkpt>
      <trkpt lat="46.26578" lon="6.81923">
        <ele>1616.8</ele>
        <time>2022-03-06T10:16:38Z</time>
      </trkpt>
      <trkpt lat="46.26577" lon="6.81921">
        <ele>1617</ele>
        <time>2022-03-06T10:16:39Z</time>
      </trkpt>
      <trkpt lat="46.26576" lon="6.81921">
        <ele>1617</ele>
        <time>2022-03-06T10:16:40Z</time>
      </trkpt>
      <trkpt lat="46.26576" lon="6.8192">
        <ele>1617.2</ele>
        <time>2022-03-06T10:16:41Z</time>
      </trkpt>
      <trkpt lat="46.26575" lon="6.81919">
        <ele>1617.4</ele>
        <time>2022-03-06T10:16:42Z</time>
      </trkpt>
      <trkpt lat="46.26575" lon="6.81918">
        <ele>1617.4</ele>
        <time>2022-03-06T10:16:43Z</time>
      </trkpt>
      <trkpt lat="46.26574" lon="6.81917">
        <ele>1617.8</ele>
        <time>2022-03-06T10:16:44Z</time>
      </trkpt>
      <trkpt lat="46.26574" lon="6.81916">
        <ele>1618</ele>
        <time>2022-03-06T10:16:45Z</time>
      </trkpt>
      <trkpt lat="46.26574" lon="6.81915">
        <ele>1618</ele>
        <time>2022-03-06T10:16:46Z</time>
      </trkpt>
      <trkpt lat="46.26574" lon="6.81915">
        <ele>1618.2</ele>
        <time>2022-03-06T10:16:47Z</time>
      </trkpt>
      <trkpt lat="46.26573" lon="6.81913">
        <ele>1618.4</ele>
        <time>2022-03-06T10:16:48Z</time>
      </trkpt>
      <trkpt lat="46.26573" lon="6.81912">
        <ele>1618.6</ele>
        <time>2022-03-06T10:16:49Z</time>
      </trkpt>
      <trkpt lat="46.26572" lon="6.8191">
        <ele>1619</ele>
        <time>2022-03-06T10:16:50Z</time>
      </trkpt>
      <trkpt lat="46.2657" lon="6.8191">
        <ele>1619.2</ele>
        <time>2022-03-06T10:16:51Z</time>
      </trkpt>
      <trkpt lat="46.2657" lon="6.81909">
        <ele>1619.2</ele>
        <time>2022-03-06T10:16:52Z</time>
      </trkpt>
      <trkpt lat="46.26569" lon="6.81908">
        <ele>1619.6</ele>
        <time>2022-03-06T10:16:53Z</time>
      </trkpt>
      <trkpt lat="46.26569" lon="6.81907">
        <ele>1619.8</ele>
        <time>2022-03-06T10:16:54Z</time>
      </trkpt>
      <trkpt lat="46.26569" lon="6.81906">
        <ele>1620</ele>
        <time>2022-03-06T10:16:55Z</time>
      </trkpt>
      <trkpt lat="46.2657" lon="6.81905">
        <ele>1620</ele>
        <time>2022-03-06T10:16:56Z</time>
      </trkpt>
      <trkpt lat="46.2657" lon="6.81904">
        <ele>1620.4</ele>
        <time>2022-03-06T10:16:57Z</time>
      </trkpt>
      <trkpt lat="46.2657" lon="6.81903">
        <ele>1620.6</ele>
        <time>2022-03-06T10:16:58Z</time>
      </trkpt>
      <trkpt lat="46.26571" lon="6.81903">
        <ele>1620.8</ele>
        <time>2022-03-06T10:16:59Z</time>
      </trkpt>
      <trkpt lat="46.26571" lon="6.81902">
        <ele>1621</ele>
        <time>2022-03-06T10:17:00Z</time>
      </trkpt>
      <trkpt lat="46.26571" lon="6.81901">
        <ele>1621</ele>
        <time>2022-03-06T10:17:01Z</time>
      </trkpt>
      <trkpt lat="46.26571" lon="6.819">
        <ele>1621.4</ele>
        <time>2022-03-06T10:17:02Z</time>
      </trkpt>
      <trkpt lat="46.26571" lon="6.81899">
        <ele>1621.4</ele>
        <time>2022-03-06T10:17:03Z</time>
      </trkpt>
      <trkpt lat="46.26571" lon="6.81898">
        <ele>1621.8</ele>
        <time>2022-03-06T10:17:04Z</time>
      </trkpt>
      <trkpt lat="46.26571" lon="6.81897">
        <ele>1621.8</ele>
        <time>2022-03-06T10:17:05Z</time>
      </trkpt>
      <trkpt lat="46.26571" lon="6.81896">
        <ele>1622</ele>
        <time>2022-03-06T10:17:06Z</time>
      </trkpt>
      <trkpt lat="46.26572" lon="6.81895">
        <ele>1622.2</ele>
        <time>2022-03-06T10:17:07Z</time>
      </trkpt>
      <trkpt lat="46.26572" lon="6.81893">
        <ele>1622.4</ele>
        <time>2022-03-06T10:17:08Z</time>
      </trkpt>
      <trkpt lat="46.26572" lon="6.81892">
        <ele>1622.4</ele>
        <time>2022-03-06T10:17:09Z</time>
      </trkpt>
      <trkpt lat="46.26573" lon="6.81892">
        <ele>1622.8</ele>
        <time>2022-03-06T10:17:10Z</time>
      </trkpt>
      <trkpt lat="46.26573" lon="6.8189">
        <ele>1623</ele>
        <time>2022-03-06T10:17:11Z</time>
      </trkpt>
      <trkpt lat="46.26572" lon="6.81889">
        <ele>1623.2</ele>
        <time>2022-03-06T10:17:12Z</time>
      </trkpt>
      <trkpt lat="46.26572" lon="6.81887">
        <ele>1623.4</ele>
        <time>2022-03-06T10:17:13Z</time>
      </trkpt>
      <trkpt lat="46.26571" lon="6.81886">
        <ele>1623.8</ele>
        <time>2022-03-06T10:17:14Z</time>
      </trkpt>
      <trkpt lat="46.26571" lon="6.81885">
        <ele>1624</ele>
        <time>2022-03-06T10:17:15Z</time>
      </trkpt>
      <trkpt lat="46.26571" lon="6.81884">
        <ele>1624.4</ele>
        <time>2022-03-06T10:17:16Z</time>
      </trkpt>
      <trkpt lat="46.26571" lon="6.81883">
        <ele>1624.4</ele>
        <time>2022-03-06T10:17:17Z</time>
      </trkpt>
      <trkpt lat="46.26571" lon="6.81882">
        <ele>1624.6</ele>
        <time>2022-03-06T10:17:18Z</time>
      </trkpt>
      <trkpt lat="46.26571" lon="6.81882">
        <ele>1624.8</ele>
        <time>2022-03-06T10:17:19Z</time>
      </trkpt>
      <trkpt lat="46.26571" lon="6.8188">
        <ele>1625</ele>
        <time>2022-03-06T10:17:20Z</time>
      </trkpt>
      <trkpt lat="46.26571" lon="6.81879">
        <ele>1625.2</ele>
        <time>2022-03-06T10:17:21Z</time>
      </trkpt>
      <trkpt lat="46.2657" lon="6.81878">
        <ele>1625.4</ele>
        <time>2022-03-06T10:17:22Z</time>
      </trkpt>
      <trkpt lat="46.26571" lon="6.81878">
        <ele>1625.6</ele>
        <time>2022-03-06T10:17:23Z</time>
      </trkpt>
      <trkpt lat="46.26571" lon="6.81876">
        <ele>1625.6</ele>
        <time>2022-03-06T10:17:24Z</time>
      </trkpt>
      <trkpt lat="46.26571" lon="6.81876">
        <ele>1625.6</ele>
        <time>2022-03-06T10:17:25Z</time>
      </trkpt>
      <trkpt lat="46.26571" lon="6.81874">
        <ele>1626</ele>
        <time>2022-03-06T10:17:26Z</time>
      </trkpt>
      <trkpt lat="46.26571" lon="6.81874">
        <ele>1626.2</ele>
        <time>2022-03-06T10:17:27Z</time>
      </trkpt>
      <trkpt lat="46.26571" lon="6.81873">
        <ele>1626.4</ele>
        <time>2022-03-06T10:17:28Z</time>
      </trkpt>
      <trkpt lat="46.26571" lon="6.81872">
        <ele>1626.6</ele>
        <time>2022-03-06T10:17:29Z</time>
      </trkpt>
      <trkpt lat="46.26571" lon="6.81871">
        <ele>1626.8</ele>
        <time>2022-03-06T10:17:30Z</time>
      </trkpt>
      <trkpt lat="46.26571" lon="6.8187">
        <ele>1627</ele>
        <time>2022-03-06T10:17:31Z</time>
      </trkpt>
      <trkpt lat="46.2657" lon="6.8187">
        <ele>1627.4</ele>
        <time>2022-03-06T10:17:32Z</time>
      </trkpt>
      <trkpt lat="46.2657" lon="6.81869">
        <ele>1627.4</ele>
        <time>2022-03-06T10:17:33Z</time>
      </trkpt>
      <trkpt lat="46.2657" lon="6.81868">
        <ele>1627.6</ele>
        <time>2022-03-06T10:17:34Z</time>
      </trkpt>
      <trkpt lat="46.2657" lon="6.81868">
        <ele>1628</ele>
        <time>2022-03-06T10:17:35Z</time>
      </trkpt>
      <trkpt lat="46.26568" lon="6.81869">
        <ele>1628.2</ele>
        <time>2022-03-06T10:17:36Z</time>
      </trkpt>
      <trkpt lat="46.26568" lon="6.81869">
        <ele>1628.4</ele>
        <time>2022-03-06T10:17:37Z</time>
      </trkpt>
      <trkpt lat="46.26568" lon="6.81868">
        <ele>1628.4</ele>
        <time>2022-03-06T10:17:38Z</time>
      </trkpt>
      <trkpt lat="46.26568" lon="6.81869">
        <ele>1628.8</ele>
        <time>2022-03-06T10:17:39Z</time>
      </trkpt>
      <trkpt lat="46.26567" lon="6.81868">
        <ele>1629.8</ele>
        <time>2022-03-06T10:17:47Z</time>
      </trkpt>
      <trkpt lat="46.26567" lon="6.81871">
        <ele>1629.8</ele>
        <time>2022-03-06T10:18:03Z</time>
      </trkpt>
      <trkpt lat="46.2657" lon="6.81872">
        <ele>1630</ele>
        <time>2022-03-06T10:18:16Z</time>
      </trkpt>
      <trkpt lat="46.2657" lon="6.81872">
        <ele>1630</ele>
        <time>2022-03-06T10:18:18Z</time>
      </trkpt>
      <trkpt lat="46.2657" lon="6.81872">
        <ele>1630</ele>
        <time>2022-03-06T10:18:34Z</time>
      </trkpt>
      <trkpt lat="46.26571" lon="6.81871">
        <ele>1630</ele>
        <time>2022-03-06T10:18:47Z</time>
      </trkpt>
      <trkpt lat="46.26571" lon="6.81872">
        <ele>1629.8</ele>
        <time>2022-03-06T10:19:02Z</time>
      </trkpt>
      <trkpt lat="46.26574" lon="6.81867">
        <ele>1629.8</ele>
        <time>2022-03-06T10:19:14Z</time>
      </trkpt>
      <trkpt lat="46.26574" lon="6.81866">
        <ele>1629.6</ele>
        <time>2022-03-06T10:19:15Z</time>
      </trkpt>
      <trkpt lat="46.26575" lon="6.81863">
        <ele>1629.8</ele>
        <time>2022-03-06T10:19:18Z</time>
      </trkpt>
      <trkpt lat="46.26575" lon="6.81863">
        <ele>1630</ele>
        <time>2022-03-06T10:19:19Z</time>
      </trkpt>
      <trkpt lat="46.26575" lon="6.81861">
        <ele>1630</ele>
        <time>2022-03-06T10:19:21Z</time>
      </trkpt>
      <trkpt lat="46.26576" lon="6.8186">
        <ele>1630</ele>
        <time>2022-03-06T10:19:22Z</time>
      </trkpt>
      <trkpt lat="46.26576" lon="6.8186">
        <ele>1629.8</ele>
        <time>2022-03-06T10:19:23Z</time>
      </trkpt>
      <trkpt lat="46.26575" lon="6.81859">
        <ele>1630</ele>
        <time>2022-03-06T10:19:24Z</time>
      </trkpt>
      <trkpt lat="46.26575" lon="6.81858">
        <ele>1630.2</ele>
        <time>2022-03-06T10:19:25Z</time>
      </trkpt>
      <trkpt lat="46.26575" lon="6.81853">
        <ele>1630.8</ele>
        <time>2022-03-06T10:19:30Z</time>
      </trkpt>
      <trkpt lat="46.26575" lon="6.81852">
        <ele>1630.8</ele>
        <time>2022-03-06T10:19:31Z</time>
      </trkpt>
      <trkpt lat="46.26575" lon="6.81852">
        <ele>1631</ele>
        <time>2022-03-06T10:19:32Z</time>
      </trkpt>
      <trkpt lat="46.26576" lon="6.81851">
        <ele>1631.2</ele>
        <time>2022-03-06T10:19:33Z</time>
      </trkpt>
      <trkpt lat="46.26576" lon="6.8185">
        <ele>1631.4</ele>
        <time>2022-03-06T10:19:34Z</time>
      </trkpt>
      <trkpt lat="46.26574" lon="6.81846">
        <ele>1632.4</ele>
        <time>2022-03-06T10:19:48Z</time>
      </trkpt>
      <trkpt lat="46.26575" lon="6.81845">
        <ele>1632.4</ele>
        <time>2022-03-06T10:20:03Z</time>
      </trkpt>
      <trkpt lat="46.26574" lon="6.81847">
        <ele>1632.8</ele>
        <time>2022-03-06T10:20:21Z</time>
      </trkpt>
      <trkpt lat="46.26574" lon="6.81847">
        <ele>1633</ele>
        <time>2022-03-06T10:20:24Z</time>
      </trkpt>
      <trkpt lat="46.26575" lon="6.81846">
        <ele>1633</ele>
        <time>2022-03-06T10:20:36Z</time>
      </trkpt>
      <trkpt lat="46.26578" lon="6.81844">
        <ele>1633</ele>
        <time>2022-03-06T10:20:49Z</time>
      </trkpt>
      <trkpt lat="46.2658" lon="6.81846">
        <ele>1633</ele>
        <time>2022-03-06T10:21:06Z</time>
      </trkpt>
      <trkpt lat="46.26581" lon="6.81845">
        <ele>1633</ele>
        <time>2022-03-06T10:21:25Z</time>
      </trkpt>
      <trkpt lat="46.26576" lon="6.81846">
        <ele>1633</ele>
        <time>2022-03-06T10:21:43Z</time>
      </trkpt>
      <trkpt lat="46.26576" lon="6.81845">
        <ele>1632.4</ele>
        <time>2022-03-06T10:22:05Z</time>
      </trkpt>
      <trkpt lat="46.26575" lon="6.81844">
        <ele>1632.6</ele>
        <time>2022-03-06T10:22:21Z</time>
      </trkpt>
      <trkpt lat="46.26573" lon="6.81843">
        <ele>1632.6</ele>
        <time>2022-03-06T10:22:37Z</time>
      </trkpt>
      <trkpt lat="46.26572" lon="6.81842">
        <ele>1632.6</ele>
        <time>2022-03-06T10:22:43Z</time>
      </trkpt>
      <trkpt lat="46.26569" lon="6.81842">
        <ele>1632.6</ele>
        <time>2022-03-06T10:23:00Z</time>
      </trkpt>
      <trkpt lat="46.26572" lon="6.81845">
        <ele>1632.6</ele>
        <time>2022-03-06T10:23:12Z</time>
      </trkpt>
      <trkpt lat="46.26573" lon="6.81844">
        <ele>1632.6</ele>
        <time>2022-03-06T10:23:15Z</time>
      </trkpt>
      <trkpt lat="46.26575" lon="6.81841">
        <ele>1632.6</ele>
        <time>2022-03-06T10:23:19Z</time>
      </trkpt>
      <trkpt lat="46.26575" lon="6.8184">
        <ele>1632.8</ele>
        <time>2022-03-06T10:23:20Z</time>
      </trkpt>
      <trkpt lat="46.26576" lon="6.81838">
        <ele>1633</ele>
        <time>2022-03-06T10:23:22Z</time>
      </trkpt>
      <trkpt lat="46.26576" lon="6.81837">
        <ele>1633</ele>
        <time>2022-03-06T10:23:23Z</time>
      </trkpt>
      <trkpt lat="46.26576" lon="6.81836">
        <ele>1633</ele>
        <time>2022-03-06T10:23:24Z</time>
      </trkpt>
      <trkpt lat="46.26575" lon="6.81834">
        <ele>1633.4</ele>
        <time>2022-03-06T10:23:25Z</time>
      </trkpt>
      <trkpt lat="46.26575" lon="6.81832">
        <ele>1633.6</ele>
        <time>2022-03-06T10:23:26Z</time>
      </trkpt>
      <trkpt lat="46.26575" lon="6.81831">
        <ele>1634</ele>
        <time>2022-03-06T10:23:27Z</time>
      </trkpt>
      <trkpt lat="46.26574" lon="6.81829">
        <ele>1634</ele>
        <time>2022-03-06T10:23:28Z</time>
      </trkpt>
      <trkpt lat="46.26574" lon="6.81828">
        <ele>1634.2</ele>
        <time>2022-03-06T10:23:29Z</time>
      </trkpt>
      <trkpt lat="46.26574" lon="6.81827">
        <ele>1634.6</ele>
        <time>2022-03-06T10:23:30Z</time>
      </trkpt>
      <trkpt lat="46.26573" lon="6.81826">
        <ele>1634.8</ele>
        <time>2022-03-06T10:23:31Z</time>
      </trkpt>
      <trkpt lat="46.26572" lon="6.81824">
        <ele>1635</ele>
        <time>2022-03-06T10:23:32Z</time>
      </trkpt>
      <trkpt lat="46.26571" lon="6.81822">
        <ele>1635.2</ele>
        <time>2022-03-06T10:23:33Z</time>
      </trkpt>
      <trkpt lat="46.2657" lon="6.8182">
        <ele>1635.2</ele>
        <time>2022-03-06T10:23:34Z</time>
      </trkpt>
      <trkpt lat="46.26569" lon="6.81818">
        <ele>1635.4</ele>
        <time>2022-03-06T10:23:35Z</time>
      </trkpt>
      <trkpt lat="46.26569" lon="6.81817">
        <ele>1635.6</ele>
        <time>2022-03-06T10:23:36Z</time>
      </trkpt>
      <trkpt lat="46.26568" lon="6.81815">
        <ele>1635.8</ele>
        <time>2022-03-06T10:23:37Z</time>
      </trkpt>
      <trkpt lat="46.26568" lon="6.81814">
        <ele>1636</ele>
        <time>2022-03-06T10:23:38Z</time>
      </trkpt>
      <trkpt lat="46.26567" lon="6.81813">
        <ele>1636</ele>
        <time>2022-03-06T10:23:39Z</time>
      </trkpt>
      <trkpt lat="46.26567" lon="6.81811">
        <ele>1636.2</ele>
        <time>2022-03-06T10:23:40Z</time>
      </trkpt>
      <trkpt lat="46.26567" lon="6.81809">
        <ele>1636.4</ele>
        <time>2022-03-06T10:23:41Z</time>
      </trkpt>
      <trkpt lat="46.26566" lon="6.81808">
        <ele>1636.6</ele>
        <time>2022-03-06T10:23:42Z</time>
      </trkpt>
      <trkpt lat="46.26566" lon="6.81806">
        <ele>1636.8</ele>
        <time>2022-03-06T10:23:43Z</time>
      </trkpt>
      <trkpt lat="46.26565" lon="6.81805">
        <ele>1637.2</ele>
        <time>2022-03-06T10:23:44Z</time>
      </trkpt>
      <trkpt lat="46.26565" lon="6.81804">
        <ele>1637.2</ele>
        <time>2022-03-06T10:23:45Z</time>
      </trkpt>
      <trkpt lat="46.26565" lon="6.81803">
        <ele>1637.6</ele>
        <time>2022-03-06T10:23:46Z</time>
      </trkpt>
      <trkpt lat="46.26565" lon="6.81802">
        <ele>1637.6</ele>
        <time>2022-03-06T10:23:47Z</time>
      </trkpt>
      <trkpt lat="46.26564" lon="6.818">
        <ele>1637.6</ele>
        <time>2022-03-06T10:23:48Z</time>
      </trkpt>
      <trkpt lat="46.26564" lon="6.81799">
        <ele>1637.8</ele>
        <time>2022-03-06T10:23:49Z</time>
      </trkpt>
      <trkpt lat="46.26564" lon="6.81798">
        <ele>1638</ele>
        <time>2022-03-06T10:23:50Z</time>
      </trkpt>
      <trkpt lat="46.26564" lon="6.81796">
        <ele>1638.2</ele>
        <time>2022-03-06T10:23:51Z</time>
      </trkpt>
      <trkpt lat="46.26564" lon="6.81795">
        <ele>1638.2</ele>
        <time>2022-03-06T10:23:52Z</time>
      </trkpt>
      <trkpt lat="46.26564" lon="6.81793">
        <ele>1638.6</ele>
        <time>2022-03-06T10:23:53Z</time>
      </trkpt>
      <trkpt lat="46.26564" lon="6.81792">
        <ele>1638.6</ele>
        <time>2022-03-06T10:23:54Z</time>
      </trkpt>
      <trkpt lat="46.26564" lon="6.81791">
        <ele>1638.6</ele>
        <time>2022-03-06T10:23:55Z</time>
      </trkpt>
      <trkpt lat="46.26564" lon="6.8179">
        <ele>1638.6</ele>
        <time>2022-03-06T10:23:56Z</time>
      </trkpt>
      <trkpt lat="46.26564" lon="6.81789">
        <ele>1638.8</ele>
        <time>2022-03-06T10:23:57Z</time>
      </trkpt>
      <trkpt lat="46.26564" lon="6.81788">
        <ele>1638.8</ele>
        <time>2022-03-06T10:23:58Z</time>
      </trkpt>
      <trkpt lat="46.26565" lon="6.81786">
        <ele>1638.8</ele>
        <time>2022-03-06T10:23:59Z</time>
      </trkpt>
      <trkpt lat="46.26565" lon="6.81785">
        <ele>1639</ele>
        <time>2022-03-06T10:24:00Z</time>
      </trkpt>
      <trkpt lat="46.26565" lon="6.81783">
        <ele>1639</ele>
        <time>2022-03-06T10:24:01Z</time>
      </trkpt>
      <trkpt lat="46.26565" lon="6.81782">
        <ele>1639</ele>
        <time>2022-03-06T10:24:02Z</time>
      </trkpt>
      <trkpt lat="46.26565" lon="6.81781">
        <ele>1639.2</ele>
        <time>2022-03-06T10:24:03Z</time>
      </trkpt>
      <trkpt lat="46.26565" lon="6.8178">
        <ele>1639.2</ele>
        <time>2022-03-06T10:24:04Z</time>
      </trkpt>
      <trkpt lat="46.26566" lon="6.81775">
        <ele>1639.4</ele>
        <time>2022-03-06T10:24:08Z</time>
      </trkpt>
      <trkpt lat="46.26567" lon="6.8177">
        <ele>1639.4</ele>
        <time>2022-03-06T10:24:11Z</time>
      </trkpt>
      <trkpt lat="46.26567" lon="6.81767">
        <ele>1639.4</ele>
        <time>2022-03-06T10:24:13Z</time>
      </trkpt>
      <trkpt lat="46.26567" lon="6.81766">
        <ele>1639.6</ele>
        <time>2022-03-06T10:24:14Z</time>
      </trkpt>
      <trkpt lat="46.26567" lon="6.81764">
        <ele>1639.4</ele>
        <time>2022-03-06T10:24:15Z</time>
      </trkpt>
      <trkpt lat="46.26567" lon="6.81763">
        <ele>1639.6</ele>
        <time>2022-03-06T10:24:16Z</time>
      </trkpt>
      <trkpt lat="46.26567" lon="6.8176">
        <ele>1639.4</ele>
        <time>2022-03-06T10:24:17Z</time>
      </trkpt>
      <trkpt lat="46.26568" lon="6.81758">
        <ele>1639.6</ele>
        <time>2022-03-06T10:24:18Z</time>
      </trkpt>
      <trkpt lat="46.26568" lon="6.81756">
        <ele>1639.6</ele>
        <time>2022-03-06T10:24:19Z</time>
      </trkpt>
      <trkpt lat="46.26569" lon="6.81755">
        <ele>1639.8</ele>
        <time>2022-03-06T10:24:20Z</time>
      </trkpt>
      <trkpt lat="46.26571" lon="6.81749">
        <ele>1639.8</ele>
        <time>2022-03-06T10:24:23Z</time>
      </trkpt>
      <trkpt lat="46.26572" lon="6.81748">
        <ele>1639.8</ele>
        <time>2022-03-06T10:24:24Z</time>
      </trkpt>
      <trkpt lat="46.26572" lon="6.81746">
        <ele>1640</ele>
        <time>2022-03-06T10:24:25Z</time>
      </trkpt>
      <trkpt lat="46.26572" lon="6.81744">
        <ele>1640</ele>
        <time>2022-03-06T10:24:26Z</time>
      </trkpt>
      <trkpt lat="46.26573" lon="6.81742">
        <ele>1640</ele>
        <time>2022-03-06T10:24:27Z</time>
      </trkpt>
      <trkpt lat="46.26574" lon="6.81738">
        <ele>1640.4</ele>
        <time>2022-03-06T10:24:29Z</time>
      </trkpt>
      <trkpt lat="46.26574" lon="6.81737">
        <ele>1640.4</ele>
        <time>2022-03-06T10:24:30Z</time>
      </trkpt>
      <trkpt lat="46.26574" lon="6.81735">
        <ele>1640.4</ele>
        <time>2022-03-06T10:24:31Z</time>
      </trkpt>
      <trkpt lat="46.26574" lon="6.81734">
        <ele>1640.4</ele>
        <time>2022-03-06T10:24:32Z</time>
      </trkpt>
      <trkpt lat="46.26574" lon="6.81732">
        <ele>1640.6</ele>
        <time>2022-03-06T10:24:33Z</time>
      </trkpt>
      <trkpt lat="46.26574" lon="6.81731">
        <ele>1640.8</ele>
        <time>2022-03-06T10:24:34Z</time>
      </trkpt>
      <trkpt lat="46.26575" lon="6.8173">
        <ele>1640.8</ele>
        <time>2022-03-06T10:24:35Z</time>
      </trkpt>
      <trkpt lat="46.26574" lon="6.81729">
        <ele>1641</ele>
        <time>2022-03-06T10:24:36Z</time>
      </trkpt>
      <trkpt lat="46.26573" lon="6.81727">
        <ele>1641.2</ele>
        <time>2022-03-06T10:24:37Z</time>
      </trkpt>
      <trkpt lat="46.26572" lon="6.81725">
        <ele>1641.2</ele>
        <time>2022-03-06T10:24:38Z</time>
      </trkpt>
      <trkpt lat="46.26571" lon="6.81724">
        <ele>1641.2</ele>
        <time>2022-03-06T10:24:39Z</time>
      </trkpt>
      <trkpt lat="46.2657" lon="6.81723">
        <ele>1641.4</ele>
        <time>2022-03-06T10:24:40Z</time>
      </trkpt>
      <trkpt lat="46.2657" lon="6.81721">
        <ele>1641.4</ele>
        <time>2022-03-06T10:24:41Z</time>
      </trkpt>
      <trkpt lat="46.26568" lon="6.8172">
        <ele>1641.6</ele>
        <time>2022-03-06T10:24:43Z</time>
      </trkpt>
      <trkpt lat="46.26567" lon="6.81718">
        <ele>1641.8</ele>
        <time>2022-03-06T10:24:44Z</time>
      </trkpt>
      <trkpt lat="46.26568" lon="6.81716">
        <ele>1641.8</ele>
        <time>2022-03-06T10:24:45Z</time>
      </trkpt>
      <trkpt lat="46.26568" lon="6.81713">
        <ele>1642</ele>
        <time>2022-03-06T10:24:46Z</time>
      </trkpt>
      <trkpt lat="46.26567" lon="6.81712">
        <ele>1642</ele>
        <time>2022-03-06T10:24:47Z</time>
      </trkpt>
      <trkpt lat="46.26568" lon="6.8171">
        <ele>1642</ele>
        <time>2022-03-06T10:24:48Z</time>
      </trkpt>
      <trkpt lat="46.26568" lon="6.81708">
        <ele>1642</ele>
        <time>2022-03-06T10:24:49Z</time>
      </trkpt>
      <trkpt lat="46.26568" lon="6.81707">
        <ele>1642.4</ele>
        <time>2022-03-06T10:24:50Z</time>
      </trkpt>
      <trkpt lat="46.26568" lon="6.81706">
        <ele>1642.4</ele>
        <time>2022-03-06T10:24:51Z</time>
      </trkpt>
      <trkpt lat="46.26568" lon="6.81705">
        <ele>1642.8</ele>
        <time>2022-03-06T10:24:52Z</time>
      </trkpt>
      <trkpt lat="46.26568" lon="6.81703">
        <ele>1642.8</ele>
        <time>2022-03-06T10:24:53Z</time>
      </trkpt>
      <trkpt lat="46.26567" lon="6.81702">
        <ele>1642.8</ele>
        <time>2022-03-06T10:24:54Z</time>
      </trkpt>
      <trkpt lat="46.26567" lon="6.817">
        <ele>1642.8</ele>
        <time>2022-03-06T10:24:55Z</time>
      </trkpt>
      <trkpt lat="46.26567" lon="6.81698">
        <ele>1643.2</ele>
        <time>2022-03-06T10:24:56Z</time>
      </trkpt>
      <trkpt lat="46.26567" lon="6.81696">
        <ele>1643.2</ele>
        <time>2022-03-06T10:24:57Z</time>
      </trkpt>
      <trkpt lat="46.26567" lon="6.81695">
        <ele>1643.2</ele>
        <time>2022-03-06T10:24:58Z</time>
      </trkpt>
      <trkpt lat="46.26567" lon="6.81694">
        <ele>1643.4</ele>
        <time>2022-03-06T10:24:59Z</time>
      </trkpt>
      <trkpt lat="46.26567" lon="6.81692">
        <ele>1643.6</ele>
        <time>2022-03-06T10:25:00Z</time>
      </trkpt>
      <trkpt lat="46.26567" lon="6.81691">
        <ele>1643.4</ele>
        <time>2022-03-06T10:25:01Z</time>
      </trkpt>
      <trkpt lat="46.26566" lon="6.81689">
        <ele>1643.8</ele>
        <time>2022-03-06T10:25:02Z</time>
      </trkpt>
      <trkpt lat="46.26566" lon="6.81687">
        <ele>1644</ele>
        <time>2022-03-06T10:25:03Z</time>
      </trkpt>
      <trkpt lat="46.26566" lon="6.81686">
        <ele>1644.2</ele>
        <time>2022-03-06T10:25:04Z</time>
      </trkpt>
      <trkpt lat="46.26566" lon="6.81685">
        <ele>1644.4</ele>
        <time>2022-03-06T10:25:05Z</time>
      </trkpt>
      <trkpt lat="46.26566" lon="6.81683">
        <ele>1644.6</ele>
        <time>2022-03-06T10:25:06Z</time>
      </trkpt>
      <trkpt lat="46.26566" lon="6.81682">
        <ele>1644.6</ele>
        <time>2022-03-06T10:25:07Z</time>
      </trkpt>
      <trkpt lat="46.26566" lon="6.81681">
        <ele>1644.8</ele>
        <time>2022-03-06T10:25:08Z</time>
      </trkpt>
      <trkpt lat="46.26565" lon="6.81681">
        <ele>1644.8</ele>
        <time>2022-03-06T10:25:09Z</time>
      </trkpt>
      <trkpt lat="46.26565" lon="6.8168">
        <ele>1645.2</ele>
        <time>2022-03-06T10:25:10Z</time>
      </trkpt>
      <trkpt lat="46.26566" lon="6.81679">
        <ele>1645.4</ele>
        <time>2022-03-06T10:25:11Z</time>
      </trkpt>
      <trkpt lat="46.26566" lon="6.81678">
        <ele>1645.4</ele>
        <time>2022-03-06T10:25:12Z</time>
      </trkpt>
      <trkpt lat="46.26568" lon="6.81677">
        <ele>1645.6</ele>
        <time>2022-03-06T10:25:13Z</time>
      </trkpt>
      <trkpt lat="46.26568" lon="6.81676">
        <ele>1645.6</ele>
        <time>2022-03-06T10:25:14Z</time>
      </trkpt>
      <trkpt lat="46.26569" lon="6.81675">
        <ele>1645.8</ele>
        <time>2022-03-06T10:25:15Z</time>
      </trkpt>
      <trkpt lat="46.26569" lon="6.81674">
        <ele>1646</ele>
        <time>2022-03-06T10:25:16Z</time>
      </trkpt>
      <trkpt lat="46.26569" lon="6.81673">
        <ele>1646</ele>
        <time>2022-03-06T10:25:17Z</time>
      </trkpt>
      <trkpt lat="46.26569" lon="6.81672">
        <ele>1646.4</ele>
        <time>2022-03-06T10:25:18Z</time>
      </trkpt>
      <trkpt lat="46.26569" lon="6.81671">
        <ele>1646.4</ele>
        <time>2022-03-06T10:25:19Z</time>
      </trkpt>
      <trkpt lat="46.2657" lon="6.8167">
        <ele>1646.6</ele>
        <time>2022-03-06T10:25:20Z</time>
      </trkpt>
      <trkpt lat="46.26569" lon="6.8167">
        <ele>1646.6</ele>
        <time>2022-03-06T10:25:21Z</time>
      </trkpt>
      <trkpt lat="46.2657" lon="6.81669">
        <ele>1646.8</ele>
        <time>2022-03-06T10:25:22Z</time>
      </trkpt>
      <trkpt lat="46.2657" lon="6.81668">
        <ele>1646.8</ele>
        <time>2022-03-06T10:25:23Z</time>
      </trkpt>
      <trkpt lat="46.2657" lon="6.81667">
        <ele>1647</ele>
        <time>2022-03-06T10:25:24Z</time>
      </trkpt>
      <trkpt lat="46.2657" lon="6.81666">
        <ele>1647.4</ele>
        <time>2022-03-06T10:25:25Z</time>
      </trkpt>
      <trkpt lat="46.2657" lon="6.81665">
        <ele>1647.6</ele>
        <time>2022-03-06T10:25:26Z</time>
      </trkpt>
      <trkpt lat="46.26571" lon="6.81664">
        <ele>1647.6</ele>
        <time>2022-03-06T10:25:27Z</time>
      </trkpt>
      <trkpt lat="46.26571" lon="6.81662">
        <ele>1647.6</ele>
        <time>2022-03-06T10:25:28Z</time>
      </trkpt>
      <trkpt lat="46.26572" lon="6.81661">
        <ele>1647.8</ele>
        <time>2022-03-06T10:25:29Z</time>
      </trkpt>
      <trkpt lat="46.26572" lon="6.8166">
        <ele>1648</ele>
        <time>2022-03-06T10:25:30Z</time>
      </trkpt>
      <trkpt lat="46.26572" lon="6.81659">
        <ele>1648.4</ele>
        <time>2022-03-06T10:25:31Z</time>
      </trkpt>
      <trkpt lat="46.26573" lon="6.81658">
        <ele>1648.6</ele>
        <time>2022-03-06T10:25:32Z</time>
      </trkpt>
      <trkpt lat="46.26573" lon="6.81658">
        <ele>1648.8</ele>
        <time>2022-03-06T10:25:33Z</time>
      </trkpt>
      <trkpt lat="46.26574" lon="6.81657">
        <ele>1649</ele>
        <time>2022-03-06T10:25:34Z</time>
      </trkpt>
      <trkpt lat="46.26574" lon="6.81656">
        <ele>1649.2</ele>
        <time>2022-03-06T10:25:35Z</time>
      </trkpt>
      <trkpt lat="46.26575" lon="6.81654">
        <ele>1649.4</ele>
        <time>2022-03-06T10:25:36Z</time>
      </trkpt>
      <trkpt lat="46.26575" lon="6.81652">
        <ele>1649.8</ele>
        <time>2022-03-06T10:25:37Z</time>
      </trkpt>
      <trkpt lat="46.26576" lon="6.8165">
        <ele>1650</ele>
        <time>2022-03-06T10:25:38Z</time>
      </trkpt>
      <trkpt lat="46.26576" lon="6.81649">
        <ele>1650</ele>
        <time>2022-03-06T10:25:39Z</time>
      </trkpt>
      <trkpt lat="46.26575" lon="6.81648">
        <ele>1650</ele>
        <time>2022-03-06T10:25:40Z</time>
      </trkpt>
      <trkpt lat="46.26574" lon="6.81646">
        <ele>1650.2</ele>
        <time>2022-03-06T10:25:41Z</time>
      </trkpt>
      <trkpt lat="46.26573" lon="6.81645">
        <ele>1650.4</ele>
        <time>2022-03-06T10:25:42Z</time>
      </trkpt>
      <trkpt lat="46.26572" lon="6.81645">
        <ele>1650.4</ele>
        <time>2022-03-06T10:25:43Z</time>
      </trkpt>
      <trkpt lat="46.2657" lon="6.81645">
        <ele>1650.6</ele>
        <time>2022-03-06T10:25:44Z</time>
      </trkpt>
      <trkpt lat="46.2657" lon="6.81644">
        <ele>1650.8</ele>
        <time>2022-03-06T10:25:45Z</time>
      </trkpt>
      <trkpt lat="46.26571" lon="6.81643">
        <ele>1651</ele>
        <time>2022-03-06T10:25:46Z</time>
      </trkpt>
      <trkpt lat="46.26572" lon="6.81642">
        <ele>1651.2</ele>
        <time>2022-03-06T10:25:47Z</time>
      </trkpt>
      <trkpt lat="46.26571" lon="6.81641">
        <ele>1651.4</ele>
        <time>2022-03-06T10:25:48Z</time>
      </trkpt>
      <trkpt lat="46.26572" lon="6.81639">
        <ele>1651.4</ele>
        <time>2022-03-06T10:25:49Z</time>
      </trkpt>
      <trkpt lat="46.26573" lon="6.81638">
        <ele>1651.4</ele>
        <time>2022-03-06T10:25:50Z</time>
      </trkpt>
      <trkpt lat="46.26574" lon="6.81637">
        <ele>1651.8</ele>
        <time>2022-03-06T10:25:51Z</time>
      </trkpt>
      <trkpt lat="46.26573" lon="6.81637">
        <ele>1652</ele>
        <time>2022-03-06T10:25:52Z</time>
      </trkpt>
      <trkpt lat="46.26572" lon="6.81637">
        <ele>1652.2</ele>
        <time>2022-03-06T10:25:53Z</time>
      </trkpt>
      <trkpt lat="46.26572" lon="6.81636">
        <ele>1652.4</ele>
        <time>2022-03-06T10:25:54Z</time>
      </trkpt>
      <trkpt lat="46.26572" lon="6.81636">
        <ele>1652.6</ele>
        <time>2022-03-06T10:25:55Z</time>
      </trkpt>
      <trkpt lat="46.26573" lon="6.81636">
        <ele>1652.6</ele>
        <time>2022-03-06T10:25:56Z</time>
      </trkpt>
      <trkpt lat="46.26572" lon="6.81636">
        <ele>1652.8</ele>
        <time>2022-03-06T10:25:57Z</time>
      </trkpt>
      <trkpt lat="46.26572" lon="6.81635">
        <ele>1652.8</ele>
        <time>2022-03-06T10:25:58Z</time>
      </trkpt>
      <trkpt lat="46.26572" lon="6.81634">
        <ele>1653.2</ele>
        <time>2022-03-06T10:25:59Z</time>
      </trkpt>
      <trkpt lat="46.26572" lon="6.81633">
        <ele>1653.4</ele>
        <time>2022-03-06T10:26:00Z</time>
      </trkpt>
      <trkpt lat="46.26573" lon="6.81631">
        <ele>1653.4</ele>
        <time>2022-03-06T10:26:01Z</time>
      </trkpt>
      <trkpt lat="46.26574" lon="6.8163">
        <ele>1653.6</ele>
        <time>2022-03-06T10:26:02Z</time>
      </trkpt>
      <trkpt lat="46.26573" lon="6.8163">
        <ele>1653.8</ele>
        <time>2022-03-06T10:26:03Z</time>
      </trkpt>
      <trkpt lat="46.26573" lon="6.81629">
        <ele>1653.8</ele>
        <time>2022-03-06T10:26:04Z</time>
      </trkpt>
      <trkpt lat="46.26573" lon="6.81629">
        <ele>1653.8</ele>
        <time>2022-03-06T10:26:05Z</time>
      </trkpt>
      <trkpt lat="46.26573" lon="6.81628">
        <ele>1654</ele>
        <time>2022-03-06T10:26:06Z</time>
      </trkpt>
      <trkpt lat="46.26573" lon="6.81627">
        <ele>1654.2</ele>
        <time>2022-03-06T10:26:07Z</time>
      </trkpt>
      <trkpt lat="46.26573" lon="6.81625">
        <ele>1654.4</ele>
        <time>2022-03-06T10:26:08Z</time>
      </trkpt>
      <trkpt lat="46.26574" lon="6.81624">
        <ele>1654.4</ele>
        <time>2022-03-06T10:26:09Z</time>
      </trkpt>
      <trkpt lat="46.26576" lon="6.81622">
        <ele>1654.6</ele>
        <time>2022-03-06T10:26:10Z</time>
      </trkpt>
      <trkpt lat="46.26577" lon="6.81621">
        <ele>1654.8</ele>
        <time>2022-03-06T10:26:11Z</time>
      </trkpt>
      <trkpt lat="46.26578" lon="6.8162">
        <ele>1655</ele>
        <time>2022-03-06T10:26:12Z</time>
      </trkpt>
      <trkpt lat="46.26578" lon="6.81619">
        <ele>1655.2</ele>
        <time>2022-03-06T10:26:13Z</time>
      </trkpt>
      <trkpt lat="46.26579" lon="6.81618">
        <ele>1655.4</ele>
        <time>2022-03-06T10:26:14Z</time>
      </trkpt>
      <trkpt lat="46.2658" lon="6.81617">
        <ele>1655.6</ele>
        <time>2022-03-06T10:26:15Z</time>
      </trkpt>
      <trkpt lat="46.2658" lon="6.81616">
        <ele>1656</ele>
        <time>2022-03-06T10:26:16Z</time>
      </trkpt>
      <trkpt lat="46.26581" lon="6.81615">
        <ele>1656.2</ele>
        <time>2022-03-06T10:26:17Z</time>
      </trkpt>
      <trkpt lat="46.26582" lon="6.81613">
        <ele>1656.4</ele>
        <time>2022-03-06T10:26:18Z</time>
      </trkpt>
      <trkpt lat="46.26582" lon="6.81612">
        <ele>1656.4</ele>
        <time>2022-03-06T10:26:19Z</time>
      </trkpt>
      <trkpt lat="46.26583" lon="6.81611">
        <ele>1656.8</ele>
        <time>2022-03-06T10:26:20Z</time>
      </trkpt>
      <trkpt lat="46.26584" lon="6.8161">
        <ele>1657</ele>
        <time>2022-03-06T10:26:21Z</time>
      </trkpt>
      <trkpt lat="46.26585" lon="6.81608">
        <ele>1657.2</ele>
        <time>2022-03-06T10:26:22Z</time>
      </trkpt>
      <trkpt lat="46.26586" lon="6.81607">
        <ele>1657.4</ele>
        <time>2022-03-06T10:26:23Z</time>
      </trkpt>
      <trkpt lat="46.26587" lon="6.81606">
        <ele>1657.4</ele>
        <time>2022-03-06T10:26:24Z</time>
      </trkpt>
      <trkpt lat="46.26588" lon="6.81605">
        <ele>1657.6</ele>
        <time>2022-03-06T10:26:25Z</time>
      </trkpt>
      <trkpt lat="46.26588" lon="6.81604">
        <ele>1657.8</ele>
        <time>2022-03-06T10:26:26Z</time>
      </trkpt>
      <trkpt lat="46.26588" lon="6.81603">
        <ele>1658</ele>
        <time>2022-03-06T10:26:27Z</time>
      </trkpt>
      <trkpt lat="46.2659" lon="6.81602">
        <ele>1658.2</ele>
        <time>2022-03-06T10:26:28Z</time>
      </trkpt>
      <trkpt lat="46.26591" lon="6.816">
        <ele>1658.2</ele>
        <time>2022-03-06T10:26:29Z</time>
      </trkpt>
      <trkpt lat="46.26593" lon="6.81598">
        <ele>1658.6</ele>
        <time>2022-03-06T10:26:30Z</time>
      </trkpt>
      <trkpt lat="46.26594" lon="6.81597">
        <ele>1658.8</ele>
        <time>2022-03-06T10:26:31Z</time>
      </trkpt>
      <trkpt lat="46.26595" lon="6.81595">
        <ele>1658.8</ele>
        <time>2022-03-06T10:26:32Z</time>
      </trkpt>
      <trkpt lat="46.26595" lon="6.81594">
        <ele>1658.8</ele>
        <time>2022-03-06T10:26:33Z</time>
      </trkpt>
      <trkpt lat="46.26597" lon="6.81592">
        <ele>1659</ele>
        <time>2022-03-06T10:26:34Z</time>
      </trkpt>
      <trkpt lat="46.26599" lon="6.8159">
        <ele>1659.2</ele>
        <time>2022-03-06T10:26:35Z</time>
      </trkpt>
      <trkpt lat="46.266" lon="6.81589">
        <ele>1659.4</ele>
        <time>2022-03-06T10:26:36Z</time>
      </trkpt>
      <trkpt lat="46.26601" lon="6.81588">
        <ele>1659.8</ele>
        <time>2022-03-06T10:26:37Z</time>
      </trkpt>
      <trkpt lat="46.26602" lon="6.81586">
        <ele>1660</ele>
        <time>2022-03-06T10:26:38Z</time>
      </trkpt>
      <trkpt lat="46.26603" lon="6.81585">
        <ele>1660</ele>
        <time>2022-03-06T10:26:39Z</time>
      </trkpt>
      <trkpt lat="46.26605" lon="6.81584">
        <ele>1660.2</ele>
        <time>2022-03-06T10:26:40Z</time>
      </trkpt>
      <trkpt lat="46.26606" lon="6.81583">
        <ele>1660.2</ele>
        <time>2022-03-06T10:26:41Z</time>
      </trkpt>
      <trkpt lat="46.26607" lon="6.81583">
        <ele>1660.6</ele>
        <time>2022-03-06T10:26:42Z</time>
      </trkpt>
      <trkpt lat="46.26609" lon="6.81581">
        <ele>1660.6</ele>
        <time>2022-03-06T10:26:43Z</time>
      </trkpt>
      <trkpt lat="46.26609" lon="6.81581">
        <ele>1660.8</ele>
        <time>2022-03-06T10:26:44Z</time>
      </trkpt>
      <trkpt lat="46.26609" lon="6.8158">
        <ele>1661</ele>
        <time>2022-03-06T10:26:45Z</time>
      </trkpt>
      <trkpt lat="46.2661" lon="6.8158">
        <ele>1661</ele>
        <time>2022-03-06T10:26:46Z</time>
      </trkpt>
      <trkpt lat="46.2661" lon="6.81579">
        <ele>1661.2</ele>
        <time>2022-03-06T10:26:47Z</time>
      </trkpt>
      <trkpt lat="46.2661" lon="6.81579">
        <ele>1661.4</ele>
        <time>2022-03-06T10:26:48Z</time>
      </trkpt>
      <trkpt lat="46.26608" lon="6.81581">
        <ele>1661.8</ele>
        <time>2022-03-06T10:26:49Z</time>
      </trkpt>
      <trkpt lat="46.26609" lon="6.81579">
        <ele>1661.8</ele>
        <time>2022-03-06T10:26:50Z</time>
      </trkpt>
      <trkpt lat="46.2661" lon="6.81578">
        <ele>1662</ele>
        <time>2022-03-06T10:26:51Z</time>
      </trkpt>
      <trkpt lat="46.26611" lon="6.81577">
        <ele>1662.2</ele>
        <time>2022-03-06T10:26:52Z</time>
      </trkpt>
      <trkpt lat="46.26612" lon="6.81576">
        <ele>1662.4</ele>
        <time>2022-03-06T10:26:53Z</time>
      </trkpt>
      <trkpt lat="46.26612" lon="6.81576">
        <ele>1662.6</ele>
        <time>2022-03-06T10:26:54Z</time>
      </trkpt>
      <trkpt lat="46.26612" lon="6.81576">
        <ele>1662.8</ele>
        <time>2022-03-06T10:26:55Z</time>
      </trkpt>
      <trkpt lat="46.26612" lon="6.81575">
        <ele>1663</ele>
        <time>2022-03-06T10:26:56Z</time>
      </trkpt>
      <trkpt lat="46.26612" lon="6.81575">
        <ele>1663.4</ele>
        <time>2022-03-06T10:26:57Z</time>
      </trkpt>
      <trkpt lat="46.26613" lon="6.81575">
        <ele>1663.4</ele>
        <time>2022-03-06T10:26:58Z</time>
      </trkpt>
      <trkpt lat="46.26613" lon="6.81575">
        <ele>1663.8</ele>
        <time>2022-03-06T10:26:59Z</time>
      </trkpt>
      <trkpt lat="46.26613" lon="6.81575">
        <ele>1663.8</ele>
        <time>2022-03-06T10:27:00Z</time>
      </trkpt>
      <trkpt lat="46.26611" lon="6.81575">
        <ele>1664</ele>
        <time>2022-03-06T10:27:01Z</time>
      </trkpt>
      <trkpt lat="46.26609" lon="6.81576">
        <ele>1664.4</ele>
        <time>2022-03-06T10:27:02Z</time>
      </trkpt>
      <trkpt lat="46.2661" lon="6.81576">
        <ele>1664.4</ele>
        <time>2022-03-06T10:27:03Z</time>
      </trkpt>
      <trkpt lat="46.26609" lon="6.81576">
        <ele>1664.4</ele>
        <time>2022-03-06T10:27:04Z</time>
      </trkpt>
      <trkpt lat="46.26607" lon="6.81577">
        <ele>1664.8</ele>
        <time>2022-03-06T10:27:05Z</time>
      </trkpt>
      <trkpt lat="46.26608" lon="6.81569">
        <ele>1665.6</ele>
        <time>2022-03-06T10:27:10Z</time>
      </trkpt>
      <trkpt lat="46.26611" lon="6.81566">
        <ele>1665.6</ele>
        <time>2022-03-06T10:27:11Z</time>
      </trkpt>
      <trkpt lat="46.26612" lon="6.81563">
        <ele>1666</ele>
        <time>2022-03-06T10:27:12Z</time>
      </trkpt>
      <trkpt lat="46.26612" lon="6.81562">
        <ele>1666</ele>
        <time>2022-03-06T10:27:13Z</time>
      </trkpt>
      <trkpt lat="46.26613" lon="6.8156">
        <ele>1666.2</ele>
        <time>2022-03-06T10:27:14Z</time>
      </trkpt>
      <trkpt lat="46.26613" lon="6.81559">
        <ele>1666.6</ele>
        <time>2022-03-06T10:27:15Z</time>
      </trkpt>
      <trkpt lat="46.26613" lon="6.81557">
        <ele>1666.8</ele>
        <time>2022-03-06T10:27:16Z</time>
      </trkpt>
      <trkpt lat="46.26614" lon="6.81556">
        <ele>1667</ele>
        <time>2022-03-06T10:27:17Z</time>
      </trkpt>
      <trkpt lat="46.26614" lon="6.81555">
        <ele>1667.4</ele>
        <time>2022-03-06T10:27:18Z</time>
      </trkpt>
      <trkpt lat="46.26614" lon="6.81554">
        <ele>1667.4</ele>
        <time>2022-03-06T10:27:19Z</time>
      </trkpt>
      <trkpt lat="46.26614" lon="6.81553">
        <ele>1667.8</ele>
        <time>2022-03-06T10:27:20Z</time>
      </trkpt>
      <trkpt lat="46.26614" lon="6.81552">
        <ele>1668</ele>
        <time>2022-03-06T10:27:21Z</time>
      </trkpt>
      <trkpt lat="46.26614" lon="6.8155">
        <ele>1668.2</ele>
        <time>2022-03-06T10:27:22Z</time>
      </trkpt>
      <trkpt lat="46.26614" lon="6.81549">
        <ele>1668.2</ele>
        <time>2022-03-06T10:27:23Z</time>
      </trkpt>
      <trkpt lat="46.26614" lon="6.81548">
        <ele>1668.4</ele>
        <time>2022-03-06T10:27:24Z</time>
      </trkpt>
      <trkpt lat="46.26613" lon="6.81547">
        <ele>1668.6</ele>
        <time>2022-03-06T10:27:25Z</time>
      </trkpt>
      <trkpt lat="46.26613" lon="6.81545">
        <ele>1668.6</ele>
        <time>2022-03-06T10:27:26Z</time>
      </trkpt>
      <trkpt lat="46.26613" lon="6.81544">
        <ele>1668.6</ele>
        <time>2022-03-06T10:27:27Z</time>
      </trkpt>
      <trkpt lat="46.26612" lon="6.81543">
        <ele>1668.8</ele>
        <time>2022-03-06T10:27:28Z</time>
      </trkpt>
      <trkpt lat="46.26612" lon="6.81542">
        <ele>1669</ele>
        <time>2022-03-06T10:27:29Z</time>
      </trkpt>
      <trkpt lat="46.26611" lon="6.81541">
        <ele>1669.4</ele>
        <time>2022-03-06T10:27:30Z</time>
      </trkpt>
      <trkpt lat="46.26611" lon="6.8154">
        <ele>1669.4</ele>
        <time>2022-03-06T10:27:31Z</time>
      </trkpt>
      <trkpt lat="46.2661" lon="6.81539">
        <ele>1669.6</ele>
        <time>2022-03-06T10:27:32Z</time>
      </trkpt>
      <trkpt lat="46.2661" lon="6.81537">
        <ele>1669.6</ele>
        <time>2022-03-06T10:27:33Z</time>
      </trkpt>
      <trkpt lat="46.26608" lon="6.81536">
        <ele>1669.8</ele>
        <time>2022-03-06T10:27:34Z</time>
      </trkpt>
      <trkpt lat="46.26607" lon="6.81535">
        <ele>1669.8</ele>
        <time>2022-03-06T10:27:35Z</time>
      </trkpt>
      <trkpt lat="46.26606" lon="6.81534">
        <ele>1670</ele>
        <time>2022-03-06T10:27:36Z</time>
      </trkpt>
      <trkpt lat="46.26606" lon="6.81533">
        <ele>1670.2</ele>
        <time>2022-03-06T10:27:37Z</time>
      </trkpt>
      <trkpt lat="46.26605" lon="6.81532">
        <ele>1670.4</ele>
        <time>2022-03-06T10:27:38Z</time>
      </trkpt>
      <trkpt lat="46.26605" lon="6.81531">
        <ele>1670.6</ele>
        <time>2022-03-06T10:27:39Z</time>
      </trkpt>
      <trkpt lat="46.26605" lon="6.8153">
        <ele>1670.8</ele>
        <time>2022-03-06T10:27:40Z</time>
      </trkpt>
      <trkpt lat="46.26604" lon="6.81529">
        <ele>1670.8</ele>
        <time>2022-03-06T10:27:41Z</time>
      </trkpt>
      <trkpt lat="46.26604" lon="6.81529">
        <ele>1671</ele>
        <time>2022-03-06T10:27:42Z</time>
      </trkpt>
      <trkpt lat="46.26603" lon="6.81528">
        <ele>1671</ele>
        <time>2022-03-06T10:27:43Z</time>
      </trkpt>
      <trkpt lat="46.26603" lon="6.81528">
        <ele>1671.2</ele>
        <time>2022-03-06T10:27:44Z</time>
      </trkpt>
      <trkpt lat="46.26603" lon="6.81527">
        <ele>1671.2</ele>
        <time>2022-03-06T10:27:45Z</time>
      </trkpt>
      <trkpt lat="46.26603" lon="6.81526">
        <ele>1671.6</ele>
        <time>2022-03-06T10:27:46Z</time>
      </trkpt>
      <trkpt lat="46.26603" lon="6.81526">
        <ele>1671.6</ele>
        <time>2022-03-06T10:27:47Z</time>
      </trkpt>
      <trkpt lat="46.26602" lon="6.81525">
        <ele>1671.8</ele>
        <time>2022-03-06T10:27:48Z</time>
      </trkpt>
      <trkpt lat="46.26602" lon="6.81524">
        <ele>1672</ele>
        <time>2022-03-06T10:27:49Z</time>
      </trkpt>
      <trkpt lat="46.26602" lon="6.81523">
        <ele>1672</ele>
        <time>2022-03-06T10:27:50Z</time>
      </trkpt>
      <trkpt lat="46.26602" lon="6.81521">
        <ele>1672</ele>
        <time>2022-03-06T10:27:51Z</time>
      </trkpt>
      <trkpt lat="46.26602" lon="6.81521">
        <ele>1672.2</ele>
        <time>2022-03-06T10:27:52Z</time>
      </trkpt>
      <trkpt lat="46.26601" lon="6.8152">
        <ele>1672.2</ele>
        <time>2022-03-06T10:27:53Z</time>
      </trkpt>
      <trkpt lat="46.26601" lon="6.81519">
        <ele>1672.4</ele>
        <time>2022-03-06T10:27:54Z</time>
      </trkpt>
      <trkpt lat="46.26601" lon="6.81519">
        <ele>1672.6</ele>
        <time>2022-03-06T10:27:55Z</time>
      </trkpt>
      <trkpt lat="46.26601" lon="6.81518">
        <ele>1672.6</ele>
        <time>2022-03-06T10:27:56Z</time>
      </trkpt>
      <trkpt lat="46.26601" lon="6.81518">
        <ele>1672.8</ele>
        <time>2022-03-06T10:27:57Z</time>
      </trkpt>
      <trkpt lat="46.26601" lon="6.81517">
        <ele>1672.8</ele>
        <time>2022-03-06T10:27:58Z</time>
      </trkpt>
      <trkpt lat="46.26602" lon="6.81516">
        <ele>1673</ele>
        <time>2022-03-06T10:27:59Z</time>
      </trkpt>
      <trkpt lat="46.26602" lon="6.81516">
        <ele>1673</ele>
        <time>2022-03-06T10:28:00Z</time>
      </trkpt>
      <trkpt lat="46.26602" lon="6.81515">
        <ele>1673.2</ele>
        <time>2022-03-06T10:28:01Z</time>
      </trkpt>
      <trkpt lat="46.26602" lon="6.81514">
        <ele>1673.2</ele>
        <time>2022-03-06T10:28:02Z</time>
      </trkpt>
      <trkpt lat="46.26602" lon="6.81513">
        <ele>1673.2</ele>
        <time>2022-03-06T10:28:03Z</time>
      </trkpt>
      <trkpt lat="46.26601" lon="6.81514">
        <ele>1673.4</ele>
        <time>2022-03-06T10:28:04Z</time>
      </trkpt>
      <trkpt lat="46.266" lon="6.81513">
        <ele>1673.4</ele>
        <time>2022-03-06T10:28:05Z</time>
      </trkpt>
      <trkpt lat="46.26599" lon="6.81514">
        <ele>1673.6</ele>
        <time>2022-03-06T10:28:06Z</time>
      </trkpt>
      <trkpt lat="46.26599" lon="6.81513">
        <ele>1673.8</ele>
        <time>2022-03-06T10:28:07Z</time>
      </trkpt>
      <trkpt lat="46.266" lon="6.81512">
        <ele>1674</ele>
        <time>2022-03-06T10:28:08Z</time>
      </trkpt>
      <trkpt lat="46.266" lon="6.8151">
        <ele>1674.2</ele>
        <time>2022-03-06T10:28:09Z</time>
      </trkpt>
      <trkpt lat="46.26599" lon="6.81508">
        <ele>1674.4</ele>
        <time>2022-03-06T10:28:10Z</time>
      </trkpt>
      <trkpt lat="46.26599" lon="6.81507">
        <ele>1674.4</ele>
        <time>2022-03-06T10:28:11Z</time>
      </trkpt>
      <trkpt lat="46.266" lon="6.81505">
        <ele>1674.8</ele>
        <time>2022-03-06T10:28:12Z</time>
      </trkpt>
      <trkpt lat="46.26599" lon="6.81504">
        <ele>1675</ele>
        <time>2022-03-06T10:28:13Z</time>
      </trkpt>
      <trkpt lat="46.266" lon="6.81503">
        <ele>1675</ele>
        <time>2022-03-06T10:28:14Z</time>
      </trkpt>
      <trkpt lat="46.266" lon="6.81502">
        <ele>1675.2</ele>
        <time>2022-03-06T10:28:15Z</time>
      </trkpt>
      <trkpt lat="46.266" lon="6.81502">
        <ele>1675.2</ele>
        <time>2022-03-06T10:28:16Z</time>
      </trkpt>
      <trkpt lat="46.26599" lon="6.81501">
        <ele>1675.4</ele>
        <time>2022-03-06T10:28:17Z</time>
      </trkpt>
      <trkpt lat="46.266" lon="6.815">
        <ele>1675.6</ele>
        <time>2022-03-06T10:28:18Z</time>
      </trkpt>
      <trkpt lat="46.266" lon="6.81498">
        <ele>1675.8</ele>
        <time>2022-03-06T10:28:19Z</time>
      </trkpt>
      <trkpt lat="46.26601" lon="6.81497">
        <ele>1676</ele>
        <time>2022-03-06T10:28:20Z</time>
      </trkpt>
      <trkpt lat="46.26601" lon="6.81496">
        <ele>1676</ele>
        <time>2022-03-06T10:28:21Z</time>
      </trkpt>
      <trkpt lat="46.26601" lon="6.81495">
        <ele>1676.2</ele>
        <time>2022-03-06T10:28:22Z</time>
      </trkpt>
      <trkpt lat="46.266" lon="6.81494">
        <ele>1676.4</ele>
        <time>2022-03-06T10:28:23Z</time>
      </trkpt>
      <trkpt lat="46.266" lon="6.81492">
        <ele>1676.4</ele>
        <time>2022-03-06T10:28:24Z</time>
      </trkpt>
      <trkpt lat="46.26599" lon="6.81491">
        <ele>1676.8</ele>
        <time>2022-03-06T10:28:25Z</time>
      </trkpt>
      <trkpt lat="46.26598" lon="6.81491">
        <ele>1677</ele>
        <time>2022-03-06T10:28:26Z</time>
      </trkpt>
      <trkpt lat="46.26598" lon="6.81491">
        <ele>1677.2</ele>
        <time>2022-03-06T10:28:27Z</time>
      </trkpt>
      <trkpt lat="46.26598" lon="6.81491">
        <ele>1677.2</ele>
        <time>2022-03-06T10:28:28Z</time>
      </trkpt>
      <trkpt lat="46.26597" lon="6.81491">
        <ele>1677.4</ele>
        <time>2022-03-06T10:28:29Z</time>
      </trkpt>
      <trkpt lat="46.26597" lon="6.8149">
        <ele>1677.6</ele>
        <time>2022-03-06T10:28:30Z</time>
      </trkpt>
      <trkpt lat="46.26597" lon="6.8149">
        <ele>1677.8</ele>
        <time>2022-03-06T10:28:31Z</time>
      </trkpt>
      <trkpt lat="46.26597" lon="6.8149">
        <ele>1677.8</ele>
        <time>2022-03-06T10:28:32Z</time>
      </trkpt>
      <trkpt lat="46.26596" lon="6.81489">
        <ele>1678.2</ele>
        <time>2022-03-06T10:28:33Z</time>
      </trkpt>
      <trkpt lat="46.26596" lon="6.81488">
        <ele>1678.4</ele>
        <time>2022-03-06T10:28:34Z</time>
      </trkpt>
      <trkpt lat="46.26596" lon="6.81487">
        <ele>1678.4</ele>
        <time>2022-03-06T10:28:35Z</time>
      </trkpt>
      <trkpt lat="46.26595" lon="6.81486">
        <ele>1678.6</ele>
        <time>2022-03-06T10:28:36Z</time>
      </trkpt>
      <trkpt lat="46.26595" lon="6.81485">
        <ele>1678.8</ele>
        <time>2022-03-06T10:28:37Z</time>
      </trkpt>
      <trkpt lat="46.26595" lon="6.81484">
        <ele>1678.8</ele>
        <time>2022-03-06T10:28:38Z</time>
      </trkpt>
      <trkpt lat="46.26595" lon="6.81483">
        <ele>1679</ele>
        <time>2022-03-06T10:28:39Z</time>
      </trkpt>
      <trkpt lat="46.26594" lon="6.81482">
        <ele>1679</ele>
        <time>2022-03-06T10:28:40Z</time>
      </trkpt>
      <trkpt lat="46.26593" lon="6.81482">
        <ele>1679.4</ele>
        <time>2022-03-06T10:28:41Z</time>
      </trkpt>
      <trkpt lat="46.26592" lon="6.81481">
        <ele>1679.6</ele>
        <time>2022-03-06T10:28:42Z</time>
      </trkpt>
      <trkpt lat="46.26592" lon="6.81482">
        <ele>1679.6</ele>
        <time>2022-03-06T10:28:43Z</time>
      </trkpt>
      <trkpt lat="46.26591" lon="6.81482">
        <ele>1680</ele>
        <time>2022-03-06T10:28:44Z</time>
      </trkpt>
      <trkpt lat="46.2659" lon="6.81482">
        <ele>1680</ele>
        <time>2022-03-06T10:28:45Z</time>
      </trkpt>
      <trkpt lat="46.26589" lon="6.81483">
        <ele>1680.2</ele>
        <time>2022-03-06T10:28:46Z</time>
      </trkpt>
      <trkpt lat="46.26589" lon="6.81483">
        <ele>1680.2</ele>
        <time>2022-03-06T10:28:47Z</time>
      </trkpt>
      <trkpt lat="46.26588" lon="6.81484">
        <ele>1680.4</ele>
        <time>2022-03-06T10:28:48Z</time>
      </trkpt>
      <trkpt lat="46.26587" lon="6.81484">
        <ele>1680.6</ele>
        <time>2022-03-06T10:28:49Z</time>
      </trkpt>
      <trkpt lat="46.26586" lon="6.81484">
        <ele>1680.8</ele>
        <time>2022-03-06T10:28:50Z</time>
      </trkpt>
      <trkpt lat="46.26585" lon="6.81484">
        <ele>1681</ele>
        <time>2022-03-06T10:28:51Z</time>
      </trkpt>
      <trkpt lat="46.26585" lon="6.81485">
        <ele>1681</ele>
        <time>2022-03-06T10:28:52Z</time>
      </trkpt>
      <trkpt lat="46.26584" lon="6.81485">
        <ele>1681.2</ele>
        <time>2022-03-06T10:28:53Z</time>
      </trkpt>
      <trkpt lat="46.26583" lon="6.81485">
        <ele>1681.4</ele>
        <time>2022-03-06T10:28:54Z</time>
      </trkpt>
      <trkpt lat="46.26582" lon="6.81485">
        <ele>1681.6</ele>
        <time>2022-03-06T10:28:55Z</time>
      </trkpt>
      <trkpt lat="46.26581" lon="6.81485">
        <ele>1681.8</ele>
        <time>2022-03-06T10:28:56Z</time>
      </trkpt>
      <trkpt lat="46.2658" lon="6.81485">
        <ele>1682.2</ele>
        <time>2022-03-06T10:28:57Z</time>
      </trkpt>
      <trkpt lat="46.26579" lon="6.81486">
        <ele>1682.2</ele>
        <time>2022-03-06T10:28:58Z</time>
      </trkpt>
      <trkpt lat="46.26578" lon="6.81486">
        <ele>1682.2</ele>
        <time>2022-03-06T10:28:59Z</time>
      </trkpt>
      <trkpt lat="46.26577" lon="6.81487">
        <ele>1682.2</ele>
        <time>2022-03-06T10:29:00Z</time>
      </trkpt>
      <trkpt lat="46.26576" lon="6.81488">
        <ele>1682.6</ele>
        <time>2022-03-06T10:29:01Z</time>
      </trkpt>
      <trkpt lat="46.26576" lon="6.81489">
        <ele>1682.8</ele>
        <time>2022-03-06T10:29:02Z</time>
      </trkpt>
      <trkpt lat="46.26575" lon="6.81489">
        <ele>1682.8</ele>
        <time>2022-03-06T10:29:03Z</time>
      </trkpt>
      <trkpt lat="46.26574" lon="6.81489">
        <ele>1683.2</ele>
        <time>2022-03-06T10:29:04Z</time>
      </trkpt>
      <trkpt lat="46.26573" lon="6.81488">
        <ele>1683.2</ele>
        <time>2022-03-06T10:29:05Z</time>
      </trkpt>
      <trkpt lat="46.26572" lon="6.81489">
        <ele>1683.4</ele>
        <time>2022-03-06T10:29:06Z</time>
      </trkpt>
      <trkpt lat="46.26572" lon="6.81488">
        <ele>1683.6</ele>
        <time>2022-03-06T10:29:07Z</time>
      </trkpt>
      <trkpt lat="46.26571" lon="6.81488">
        <ele>1683.6</ele>
        <time>2022-03-06T10:29:08Z</time>
      </trkpt>
      <trkpt lat="46.26571" lon="6.81488">
        <ele>1683.8</ele>
        <time>2022-03-06T10:29:09Z</time>
      </trkpt>
      <trkpt lat="46.2657" lon="6.81488">
        <ele>1684</ele>
        <time>2022-03-06T10:29:10Z</time>
      </trkpt>
      <trkpt lat="46.26569" lon="6.81488">
        <ele>1684</ele>
        <time>2022-03-06T10:29:11Z</time>
      </trkpt>
      <trkpt lat="46.26568" lon="6.81488">
        <ele>1684.4</ele>
        <time>2022-03-06T10:29:12Z</time>
      </trkpt>
      <trkpt lat="46.26567" lon="6.81489">
        <ele>1684.4</ele>
        <time>2022-03-06T10:29:13Z</time>
      </trkpt>
      <trkpt lat="46.26566" lon="6.81489">
        <ele>1684.8</ele>
        <time>2022-03-06T10:29:14Z</time>
      </trkpt>
      <trkpt lat="46.26565" lon="6.81489">
        <ele>1685</ele>
        <time>2022-03-06T10:29:15Z</time>
      </trkpt>
      <trkpt lat="46.26564" lon="6.81489">
        <ele>1685.2</ele>
        <time>2022-03-06T10:29:16Z</time>
      </trkpt>
      <trkpt lat="46.26563" lon="6.81489">
        <ele>1685.4</ele>
        <time>2022-03-06T10:29:17Z</time>
      </trkpt>
      <trkpt lat="46.26562" lon="6.81489">
        <ele>1685.6</ele>
        <time>2022-03-06T10:29:18Z</time>
      </trkpt>
      <trkpt lat="46.26561" lon="6.81489">
        <ele>1685.8</ele>
        <time>2022-03-06T10:29:19Z</time>
      </trkpt>
      <trkpt lat="46.2656" lon="6.81489">
        <ele>1686</ele>
        <time>2022-03-06T10:29:20Z</time>
      </trkpt>
      <trkpt lat="46.26559" lon="6.8149">
        <ele>1686.2</ele>
        <time>2022-03-06T10:29:21Z</time>
      </trkpt>
      <trkpt lat="46.26558" lon="6.8149">
        <ele>1686.4</ele>
        <time>2022-03-06T10:29:22Z</time>
      </trkpt>
      <trkpt lat="46.26558" lon="6.8149">
        <ele>1686.4</ele>
        <time>2022-03-06T10:29:23Z</time>
      </trkpt>
      <trkpt lat="46.26557" lon="6.8149">
        <ele>1686.6</ele>
        <time>2022-03-06T10:29:24Z</time>
      </trkpt>
      <trkpt lat="46.26556" lon="6.8149">
        <ele>1686.8</ele>
        <time>2022-03-06T10:29:25Z</time>
      </trkpt>
      <trkpt lat="46.26555" lon="6.8149">
        <ele>1686.6</ele>
        <time>2022-03-06T10:29:26Z</time>
      </trkpt>
      <trkpt lat="46.26554" lon="6.81491">
        <ele>1687</ele>
        <time>2022-03-06T10:29:27Z</time>
      </trkpt>
      <trkpt lat="46.26553" lon="6.81491">
        <ele>1687</ele>
        <time>2022-03-06T10:29:28Z</time>
      </trkpt>
      <trkpt lat="46.26552" lon="6.81492">
        <ele>1687.2</ele>
        <time>2022-03-06T10:29:29Z</time>
      </trkpt>
      <trkpt lat="46.26551" lon="6.81492">
        <ele>1687.6</ele>
        <time>2022-03-06T10:29:30Z</time>
      </trkpt>
      <trkpt lat="46.26551" lon="6.81492">
        <ele>1687.8</ele>
        <time>2022-03-06T10:29:31Z</time>
      </trkpt>
      <trkpt lat="46.2655" lon="6.81492">
        <ele>1687.8</ele>
        <time>2022-03-06T10:29:32Z</time>
      </trkpt>
      <trkpt lat="46.26549" lon="6.81492">
        <ele>1688</ele>
        <time>2022-03-06T10:29:33Z</time>
      </trkpt>
      <trkpt lat="46.26549" lon="6.81492">
        <ele>1688.2</ele>
        <time>2022-03-06T10:29:34Z</time>
      </trkpt>
      <trkpt lat="46.26548" lon="6.81492">
        <ele>1688.4</ele>
        <time>2022-03-06T10:29:35Z</time>
      </trkpt>
      <trkpt lat="46.26547" lon="6.81492">
        <ele>1688.8</ele>
        <time>2022-03-06T10:29:36Z</time>
      </trkpt>
      <trkpt lat="46.26546" lon="6.81492">
        <ele>1689</ele>
        <time>2022-03-06T10:29:37Z</time>
      </trkpt>
      <trkpt lat="46.26546" lon="6.81492">
        <ele>1689.2</ele>
        <time>2022-03-06T10:29:38Z</time>
      </trkpt>
      <trkpt lat="46.26545" lon="6.81492">
        <ele>1689.4</ele>
        <time>2022-03-06T10:29:39Z</time>
      </trkpt>
      <trkpt lat="46.26545" lon="6.81491">
        <ele>1689.8</ele>
        <time>2022-03-06T10:29:40Z</time>
      </trkpt>
      <trkpt lat="46.26544" lon="6.81491">
        <ele>1689.8</ele>
        <time>2022-03-06T10:29:41Z</time>
      </trkpt>
      <trkpt lat="46.26544" lon="6.81491">
        <ele>1689.8</ele>
        <time>2022-03-06T10:29:42Z</time>
      </trkpt>
      <trkpt lat="46.26543" lon="6.81493">
        <ele>1690.4</ele>
        <time>2022-03-06T10:29:43Z</time>
      </trkpt>
      <trkpt lat="46.26542" lon="6.81493">
        <ele>1690.4</ele>
        <time>2022-03-06T10:29:44Z</time>
      </trkpt>
      <trkpt lat="46.26541" lon="6.81494">
        <ele>1690.4</ele>
        <time>2022-03-06T10:29:45Z</time>
      </trkpt>
      <trkpt lat="46.2654" lon="6.81495">
        <ele>1690.6</ele>
        <time>2022-03-06T10:29:46Z</time>
      </trkpt>
      <trkpt lat="46.2654" lon="6.81495">
        <ele>1690.8</ele>
        <time>2022-03-06T10:29:47Z</time>
      </trkpt>
      <trkpt lat="46.26539" lon="6.81496">
        <ele>1691</ele>
        <time>2022-03-06T10:29:48Z</time>
      </trkpt>
      <trkpt lat="46.26538" lon="6.81496">
        <ele>1691.2</ele>
        <time>2022-03-06T10:29:49Z</time>
      </trkpt>
      <trkpt lat="46.26538" lon="6.81496">
        <ele>1691.4</ele>
        <time>2022-03-06T10:29:50Z</time>
      </trkpt>
      <trkpt lat="46.26537" lon="6.81496">
        <ele>1691.4</ele>
        <time>2022-03-06T10:29:51Z</time>
      </trkpt>
      <trkpt lat="46.26537" lon="6.81496">
        <ele>1691.8</ele>
        <time>2022-03-06T10:29:52Z</time>
      </trkpt>
      <trkpt lat="46.26536" lon="6.81496">
        <ele>1692</ele>
        <time>2022-03-06T10:29:53Z</time>
      </trkpt>
      <trkpt lat="46.26536" lon="6.81496">
        <ele>1692.4</ele>
        <time>2022-03-06T10:29:54Z</time>
      </trkpt>
      <trkpt lat="46.26536" lon="6.81496">
        <ele>1692.4</ele>
        <time>2022-03-06T10:29:55Z</time>
      </trkpt>
      <trkpt lat="46.26535" lon="6.81496">
        <ele>1692.6</ele>
        <time>2022-03-06T10:29:56Z</time>
      </trkpt>
      <trkpt lat="46.26535" lon="6.81496">
        <ele>1692.8</ele>
        <time>2022-03-06T10:29:57Z</time>
      </trkpt>
      <trkpt lat="46.26535" lon="6.81496">
        <ele>1693</ele>
        <time>2022-03-06T10:29:58Z</time>
      </trkpt>
      <trkpt lat="46.26534" lon="6.81495">
        <ele>1693.2</ele>
        <time>2022-03-06T10:29:59Z</time>
      </trkpt>
      <trkpt lat="46.26534" lon="6.81496">
        <ele>1693.4</ele>
        <time>2022-03-06T10:30:00Z</time>
      </trkpt>
      <trkpt lat="46.26534" lon="6.81495">
        <ele>1693.6</ele>
        <time>2022-03-06T10:30:01Z</time>
      </trkpt>
      <trkpt lat="46.26534" lon="6.81494">
        <ele>1693.8</ele>
        <time>2022-03-06T10:30:02Z</time>
      </trkpt>
      <trkpt lat="46.26534" lon="6.81494">
        <ele>1694</ele>
        <time>2022-03-06T10:30:03Z</time>
      </trkpt>
      <trkpt lat="46.26533" lon="6.81493">
        <ele>1694.2</ele>
        <time>2022-03-06T10:30:04Z</time>
      </trkpt>
      <trkpt lat="46.26533" lon="6.81493">
        <ele>1694.2</ele>
        <time>2022-03-06T10:30:05Z</time>
      </trkpt>
      <trkpt lat="46.26533" lon="6.81493">
        <ele>1694.6</ele>
        <time>2022-03-06T10:30:06Z</time>
      </trkpt>
      <trkpt lat="46.26532" lon="6.81492">
        <ele>1694.6</ele>
        <time>2022-03-06T10:30:07Z</time>
      </trkpt>
      <trkpt lat="46.26532" lon="6.81491">
        <ele>1694.6</ele>
        <time>2022-03-06T10:30:08Z</time>
      </trkpt>
      <trkpt lat="46.26532" lon="6.81491">
        <ele>1694.8</ele>
        <time>2022-03-06T10:30:09Z</time>
      </trkpt>
      <trkpt lat="46.26532" lon="6.8149">
        <ele>1695</ele>
        <time>2022-03-06T10:30:10Z</time>
      </trkpt>
      <trkpt lat="46.26531" lon="6.8149">
        <ele>1695.2</ele>
        <time>2022-03-06T10:30:11Z</time>
      </trkpt>
      <trkpt lat="46.2653" lon="6.8149">
        <ele>1695.4</ele>
        <time>2022-03-06T10:30:12Z</time>
      </trkpt>
      <trkpt lat="46.2653" lon="6.8149">
        <ele>1695.6</ele>
        <time>2022-03-06T10:30:13Z</time>
      </trkpt>
      <trkpt lat="46.26529" lon="6.8149">
        <ele>1695.8</ele>
        <time>2022-03-06T10:30:14Z</time>
      </trkpt>
      <trkpt lat="46.26529" lon="6.8149">
        <ele>1695.6</ele>
        <time>2022-03-06T10:30:15Z</time>
      </trkpt>
      <trkpt lat="46.26528" lon="6.8149">
        <ele>1696</ele>
        <time>2022-03-06T10:30:16Z</time>
      </trkpt>
      <trkpt lat="46.26527" lon="6.8149">
        <ele>1696.2</ele>
        <time>2022-03-06T10:30:17Z</time>
      </trkpt>
      <trkpt lat="46.26527" lon="6.8149">
        <ele>1696.2</ele>
        <time>2022-03-06T10:30:18Z</time>
      </trkpt>
      <trkpt lat="46.26526" lon="6.8149">
        <ele>1696.4</ele>
        <time>2022-03-06T10:30:19Z</time>
      </trkpt>
      <trkpt lat="46.26525" lon="6.8149">
        <ele>1696.6</ele>
        <time>2022-03-06T10:30:20Z</time>
      </trkpt>
      <trkpt lat="46.26525" lon="6.81491">
        <ele>1697</ele>
        <time>2022-03-06T10:30:21Z</time>
      </trkpt>
      <trkpt lat="46.26524" lon="6.81492">
        <ele>1697.2</ele>
        <time>2022-03-06T10:30:22Z</time>
      </trkpt>
      <trkpt lat="46.26524" lon="6.81493">
        <ele>1697.2</ele>
        <time>2022-03-06T10:30:23Z</time>
      </trkpt>
      <trkpt lat="46.26523" lon="6.81494">
        <ele>1697.4</ele>
        <time>2022-03-06T10:30:24Z</time>
      </trkpt>
      <trkpt lat="46.26522" lon="6.81495">
        <ele>1697.8</ele>
        <time>2022-03-06T10:30:25Z</time>
      </trkpt>
      <trkpt lat="46.26522" lon="6.81495">
        <ele>1697.8</ele>
        <time>2022-03-06T10:30:26Z</time>
      </trkpt>
      <trkpt lat="46.26522" lon="6.81496">
        <ele>1698</ele>
        <time>2022-03-06T10:30:27Z</time>
      </trkpt>
      <trkpt lat="46.26521" lon="6.81496">
        <ele>1698</ele>
        <time>2022-03-06T10:30:28Z</time>
      </trkpt>
      <trkpt lat="46.2652" lon="6.81496">
        <ele>1698.4</ele>
        <time>2022-03-06T10:30:29Z</time>
      </trkpt>
      <trkpt lat="46.26519" lon="6.81497">
        <ele>1698.4</ele>
        <time>2022-03-06T10:30:30Z</time>
      </trkpt>
      <trkpt lat="46.26518" lon="6.81497">
        <ele>1698.6</ele>
        <time>2022-03-06T10:30:31Z</time>
      </trkpt>
      <trkpt lat="46.26517" lon="6.81498">
        <ele>1698.6</ele>
        <time>2022-03-06T10:30:32Z</time>
      </trkpt>
      <trkpt lat="46.26517" lon="6.81499">
        <ele>1698.6</ele>
        <time>2022-03-06T10:30:33Z</time>
      </trkpt>
      <trkpt lat="46.26516" lon="6.815">
        <ele>1699</ele>
        <time>2022-03-06T10:30:34Z</time>
      </trkpt>
      <trkpt lat="46.26515" lon="6.815">
        <ele>1699.2</ele>
        <time>2022-03-06T10:30:35Z</time>
      </trkpt>
      <trkpt lat="46.26514" lon="6.81501">
        <ele>1699.2</ele>
        <time>2022-03-06T10:30:36Z</time>
      </trkpt>
      <trkpt lat="46.26514" lon="6.81501">
        <ele>1699.4</ele>
        <time>2022-03-06T10:30:37Z</time>
      </trkpt>
      <trkpt lat="46.26513" lon="6.81501">
        <ele>1699.6</ele>
        <time>2022-03-06T10:30:38Z</time>
      </trkpt>
      <trkpt lat="46.26512" lon="6.81501">
        <ele>1699.8</ele>
        <time>2022-03-06T10:30:39Z</time>
      </trkpt>
      <trkpt lat="46.26512" lon="6.81501">
        <ele>1700</ele>
        <time>2022-03-06T10:30:40Z</time>
      </trkpt>
      <trkpt lat="46.26511" lon="6.81502">
        <ele>1700</ele>
        <time>2022-03-06T10:30:41Z</time>
      </trkpt>
      <trkpt lat="46.2651" lon="6.81502">
        <ele>1700.4</ele>
        <time>2022-03-06T10:30:42Z</time>
      </trkpt>
      <trkpt lat="46.2651" lon="6.81503">
        <ele>1700.4</ele>
        <time>2022-03-06T10:30:43Z</time>
      </trkpt>
      <trkpt lat="46.26509" lon="6.81502">
        <ele>1700.8</ele>
        <time>2022-03-06T10:30:44Z</time>
      </trkpt>
      <trkpt lat="46.26509" lon="6.81503">
        <ele>1701</ele>
        <time>2022-03-06T10:30:45Z</time>
      </trkpt>
      <trkpt lat="46.26508" lon="6.81503">
        <ele>1701.4</ele>
        <time>2022-03-06T10:30:46Z</time>
      </trkpt>
      <trkpt lat="46.26507" lon="6.81503">
        <ele>1701.4</ele>
        <time>2022-03-06T10:30:47Z</time>
      </trkpt>
      <trkpt lat="46.26507" lon="6.81504">
        <ele>1701.6</ele>
        <time>2022-03-06T10:30:48Z</time>
      </trkpt>
      <trkpt lat="46.26506" lon="6.81504">
        <ele>1701.8</ele>
        <time>2022-03-06T10:30:49Z</time>
      </trkpt>
      <trkpt lat="46.26506" lon="6.81504">
        <ele>1702</ele>
        <time>2022-03-06T10:30:50Z</time>
      </trkpt>
      <trkpt lat="46.26505" lon="6.81505">
        <ele>1702.2</ele>
        <time>2022-03-06T10:30:51Z</time>
      </trkpt>
      <trkpt lat="46.26505" lon="6.81505">
        <ele>1702.4</ele>
        <time>2022-03-06T10:30:52Z</time>
      </trkpt>
      <trkpt lat="46.26504" lon="6.81505">
        <ele>1702.4</ele>
        <time>2022-03-06T10:30:53Z</time>
      </trkpt>
      <trkpt lat="46.26503" lon="6.81505">
        <ele>1702.4</ele>
        <time>2022-03-06T10:30:54Z</time>
      </trkpt>
      <trkpt lat="46.26503" lon="6.81504">
        <ele>1702.6</ele>
        <time>2022-03-06T10:30:55Z</time>
      </trkpt>
      <trkpt lat="46.26503" lon="6.81504">
        <ele>1702.8</ele>
        <time>2022-03-06T10:30:56Z</time>
      </trkpt>
      <trkpt lat="46.26502" lon="6.81504">
        <ele>1703</ele>
        <time>2022-03-06T10:30:57Z</time>
      </trkpt>
      <trkpt lat="46.26502" lon="6.81504">
        <ele>1703.2</ele>
        <time>2022-03-06T10:30:58Z</time>
      </trkpt>
      <trkpt lat="46.26502" lon="6.81502">
        <ele>1703.2</ele>
        <time>2022-03-06T10:30:59Z</time>
      </trkpt>
      <trkpt lat="46.26501" lon="6.81503">
        <ele>1703.6</ele>
        <time>2022-03-06T10:31:00Z</time>
      </trkpt>
      <trkpt lat="46.26501" lon="6.81503">
        <ele>1703.6</ele>
        <time>2022-03-06T10:31:01Z</time>
      </trkpt>
      <trkpt lat="46.265" lon="6.81503">
        <ele>1703.8</ele>
        <time>2022-03-06T10:31:02Z</time>
      </trkpt>
      <trkpt lat="46.26499" lon="6.81504">
        <ele>1704</ele>
        <time>2022-03-06T10:31:03Z</time>
      </trkpt>
      <trkpt lat="46.26498" lon="6.81503">
        <ele>1704.2</ele>
        <time>2022-03-06T10:31:04Z</time>
      </trkpt>
      <trkpt lat="46.26498" lon="6.81503">
        <ele>1704.4</ele>
        <time>2022-03-06T10:31:05Z</time>
      </trkpt>
      <trkpt lat="46.26497" lon="6.81503">
        <ele>1704.6</ele>
        <time>2022-03-06T10:31:06Z</time>
      </trkpt>
      <trkpt lat="46.26496" lon="6.81503">
        <ele>1704.6</ele>
        <time>2022-03-06T10:31:07Z</time>
      </trkpt>
      <trkpt lat="46.26495" lon="6.81504">
        <ele>1704.8</ele>
        <time>2022-03-06T10:31:08Z</time>
      </trkpt>
      <trkpt lat="46.26494" lon="6.81504">
        <ele>1704.8</ele>
        <time>2022-03-06T10:31:09Z</time>
      </trkpt>
      <trkpt lat="46.26493" lon="6.81504">
        <ele>1705</ele>
        <time>2022-03-06T10:31:10Z</time>
      </trkpt>
      <trkpt lat="46.26492" lon="6.81504">
        <ele>1705</ele>
        <time>2022-03-06T10:31:11Z</time>
      </trkpt>
      <trkpt lat="46.26491" lon="6.81503">
        <ele>1705.2</ele>
        <time>2022-03-06T10:31:12Z</time>
      </trkpt>
      <trkpt lat="46.2649" lon="6.81503">
        <ele>1705.4</ele>
        <time>2022-03-06T10:31:13Z</time>
      </trkpt>
      <trkpt lat="46.26489" lon="6.81503">
        <ele>1705.6</ele>
        <time>2022-03-06T10:31:14Z</time>
      </trkpt>
      <trkpt lat="46.26489" lon="6.81502">
        <ele>1705.6</ele>
        <time>2022-03-06T10:31:15Z</time>
      </trkpt>
      <trkpt lat="46.26489" lon="6.81502">
        <ele>1705.8</ele>
        <time>2022-03-06T10:31:16Z</time>
      </trkpt>
      <trkpt lat="46.26488" lon="6.81502">
        <ele>1705.8</ele>
        <time>2022-03-06T10:31:17Z</time>
      </trkpt>
      <trkpt lat="46.26488" lon="6.81502">
        <ele>1706</ele>
        <time>2022-03-06T10:31:18Z</time>
      </trkpt>
      <trkpt lat="46.26487" lon="6.81502">
        <ele>1706.2</ele>
        <time>2022-03-06T10:31:19Z</time>
      </trkpt>
      <trkpt lat="46.26487" lon="6.81501">
        <ele>1706.4</ele>
        <time>2022-03-06T10:31:20Z</time>
      </trkpt>
      <trkpt lat="46.26487" lon="6.81501">
        <ele>1706.6</ele>
        <time>2022-03-06T10:31:21Z</time>
      </trkpt>
      <trkpt lat="46.26487" lon="6.81501">
        <ele>1706.6</ele>
        <time>2022-03-06T10:31:22Z</time>
      </trkpt>
      <trkpt lat="46.26488" lon="6.81496">
        <ele>1707.6</ele>
        <time>2022-03-06T10:31:27Z</time>
      </trkpt>
      <trkpt lat="46.26489" lon="6.81495">
        <ele>1708.2</ele>
        <time>2022-03-06T10:31:30Z</time>
      </trkpt>
      <trkpt lat="46.2649" lon="6.81494">
        <ele>1708.6</ele>
        <time>2022-03-06T10:31:33Z</time>
      </trkpt>
      <trkpt lat="46.26491" lon="6.81491">
        <ele>1709.6</ele>
        <time>2022-03-06T10:31:40Z</time>
      </trkpt>
      <trkpt lat="46.26494" lon="6.81483">
        <ele>1710.4</ele>
        <time>2022-03-06T10:31:45Z</time>
      </trkpt>
      <trkpt lat="46.26495" lon="6.81481">
        <ele>1710.6</ele>
        <time>2022-03-06T10:31:46Z</time>
      </trkpt>
      <trkpt lat="46.26497" lon="6.81478">
        <ele>1711</ele>
        <time>2022-03-06T10:31:48Z</time>
      </trkpt>
      <trkpt lat="46.26498" lon="6.81476">
        <ele>1711.2</ele>
        <time>2022-03-06T10:31:49Z</time>
      </trkpt>
      <trkpt lat="46.26498" lon="6.81476">
        <ele>1711.4</ele>
        <time>2022-03-06T10:31:50Z</time>
      </trkpt>
      <trkpt lat="46.26499" lon="6.81474">
        <ele>1711.6</ele>
        <time>2022-03-06T10:31:51Z</time>
      </trkpt>
      <trkpt lat="46.26499" lon="6.81473">
        <ele>1711.8</ele>
        <time>2022-03-06T10:31:52Z</time>
      </trkpt>
      <trkpt lat="46.26499" lon="6.81472">
        <ele>1712</ele>
        <time>2022-03-06T10:31:53Z</time>
      </trkpt>
      <trkpt lat="46.265" lon="6.8147">
        <ele>1712.4</ele>
        <time>2022-03-06T10:31:56Z</time>
      </trkpt>
      <trkpt lat="46.26502" lon="6.81467">
        <ele>1713</ele>
        <time>2022-03-06T10:31:58Z</time>
      </trkpt>
      <trkpt lat="46.26504" lon="6.81465">
        <ele>1713.2</ele>
        <time>2022-03-06T10:31:59Z</time>
      </trkpt>
      <trkpt lat="46.26504" lon="6.81464">
        <ele>1713.2</ele>
        <time>2022-03-06T10:32:00Z</time>
      </trkpt>
      <trkpt lat="46.26505" lon="6.81464">
        <ele>1713.4</ele>
        <time>2022-03-06T10:32:01Z</time>
      </trkpt>
      <trkpt lat="46.26506" lon="6.81463">
        <ele>1713.6</ele>
        <time>2022-03-06T10:32:02Z</time>
      </trkpt>
      <trkpt lat="46.26506" lon="6.81463">
        <ele>1713.8</ele>
        <time>2022-03-06T10:32:03Z</time>
      </trkpt>
      <trkpt lat="46.26507" lon="6.81462">
        <ele>1713.8</ele>
        <time>2022-03-06T10:32:04Z</time>
      </trkpt>
      <trkpt lat="46.26507" lon="6.81462">
        <ele>1714.2</ele>
        <time>2022-03-06T10:32:05Z</time>
      </trkpt>
      <trkpt lat="46.26508" lon="6.81461">
        <ele>1714.2</ele>
        <time>2022-03-06T10:32:06Z</time>
      </trkpt>
      <trkpt lat="46.26508" lon="6.81461">
        <ele>1714.4</ele>
        <time>2022-03-06T10:32:07Z</time>
      </trkpt>
      <trkpt lat="46.26508" lon="6.8146">
        <ele>1714.6</ele>
        <time>2022-03-06T10:32:08Z</time>
      </trkpt>
      <trkpt lat="46.26509" lon="6.81459">
        <ele>1714.8</ele>
        <time>2022-03-06T10:32:09Z</time>
      </trkpt>
      <trkpt lat="46.26509" lon="6.81458">
        <ele>1715</ele>
        <time>2022-03-06T10:32:10Z</time>
      </trkpt>
      <trkpt lat="46.26509" lon="6.81457">
        <ele>1715.2</ele>
        <time>2022-03-06T10:32:11Z</time>
      </trkpt>
      <trkpt lat="46.2651" lon="6.81455">
        <ele>1715.2</ele>
        <time>2022-03-06T10:32:12Z</time>
      </trkpt>
      <trkpt lat="46.2651" lon="6.81454">
        <ele>1715.6</ele>
        <time>2022-03-06T10:32:13Z</time>
      </trkpt>
      <trkpt lat="46.2651" lon="6.81453">
        <ele>1716</ele>
        <time>2022-03-06T10:32:14Z</time>
      </trkpt>
      <trkpt lat="46.2651" lon="6.81451">
        <ele>1716</ele>
        <time>2022-03-06T10:32:15Z</time>
      </trkpt>
      <trkpt lat="46.2651" lon="6.81449">
        <ele>1716.4</ele>
        <time>2022-03-06T10:32:16Z</time>
      </trkpt>
      <trkpt lat="46.2651" lon="6.81448">
        <ele>1716.6</ele>
        <time>2022-03-06T10:32:17Z</time>
      </trkpt>
      <trkpt lat="46.2651" lon="6.81446">
        <ele>1717</ele>
        <time>2022-03-06T10:32:18Z</time>
      </trkpt>
      <trkpt lat="46.26509" lon="6.81445">
        <ele>1717</ele>
        <time>2022-03-06T10:32:19Z</time>
      </trkpt>
      <trkpt lat="46.2651" lon="6.81444">
        <ele>1717.2</ele>
        <time>2022-03-06T10:32:20Z</time>
      </trkpt>
      <trkpt lat="46.2651" lon="6.81443">
        <ele>1717.2</ele>
        <time>2022-03-06T10:32:21Z</time>
      </trkpt>
      <trkpt lat="46.2651" lon="6.81442">
        <ele>1717.2</ele>
        <time>2022-03-06T10:32:22Z</time>
      </trkpt>
      <trkpt lat="46.2651" lon="6.81441">
        <ele>1717.4</ele>
        <time>2022-03-06T10:32:23Z</time>
      </trkpt>
      <trkpt lat="46.2651" lon="6.81441">
        <ele>1717.6</ele>
        <time>2022-03-06T10:32:24Z</time>
      </trkpt>
      <trkpt lat="46.2651" lon="6.8144">
        <ele>1717.8</ele>
        <time>2022-03-06T10:32:25Z</time>
      </trkpt>
      <trkpt lat="46.2651" lon="6.8144">
        <ele>1718</ele>
        <time>2022-03-06T10:32:26Z</time>
      </trkpt>
      <trkpt lat="46.2651" lon="6.8144">
        <ele>1718.2</ele>
        <time>2022-03-06T10:32:27Z</time>
      </trkpt>
      <trkpt lat="46.26509" lon="6.8144">
        <ele>1718.4</ele>
        <time>2022-03-06T10:32:28Z</time>
      </trkpt>
      <trkpt lat="46.26509" lon="6.81438">
        <ele>1719.2</ele>
        <time>2022-03-06T10:32:32Z</time>
      </trkpt>
      <trkpt lat="46.26508" lon="6.81435">
        <ele>1719.6</ele>
        <time>2022-03-06T10:32:34Z</time>
      </trkpt>
      <trkpt lat="46.2651" lon="6.81435">
        <ele>1720.6</ele>
        <time>2022-03-06T10:32:39Z</time>
      </trkpt>
      <trkpt lat="46.26511" lon="6.81434">
        <ele>1720.6</ele>
        <time>2022-03-06T10:32:40Z</time>
      </trkpt>
      <trkpt lat="46.26512" lon="6.81433">
        <ele>1721</ele>
        <time>2022-03-06T10:32:42Z</time>
      </trkpt>
      <trkpt lat="46.26512" lon="6.81432">
        <ele>1721.2</ele>
        <time>2022-03-06T10:32:43Z</time>
      </trkpt>
      <trkpt lat="46.26513" lon="6.81432">
        <ele>1721.2</ele>
        <time>2022-03-06T10:32:44Z</time>
      </trkpt>
      <trkpt lat="46.26514" lon="6.81432">
        <ele>1721.2</ele>
        <time>2022-03-06T10:32:45Z</time>
      </trkpt>
      <trkpt lat="46.26516" lon="6.81431">
        <ele>1721.6</ele>
        <time>2022-03-06T10:32:46Z</time>
      </trkpt>
      <trkpt lat="46.26517" lon="6.81431">
        <ele>1721.6</ele>
        <time>2022-03-06T10:32:47Z</time>
      </trkpt>
      <trkpt lat="46.26517" lon="6.8143">
        <ele>1721.6</ele>
        <time>2022-03-06T10:32:48Z</time>
      </trkpt>
      <trkpt lat="46.26518" lon="6.8143">
        <ele>1721.8</ele>
        <time>2022-03-06T10:32:49Z</time>
      </trkpt>
      <trkpt lat="46.26518" lon="6.81429">
        <ele>1722.2</ele>
        <time>2022-03-06T10:32:50Z</time>
      </trkpt>
      <trkpt lat="46.26519" lon="6.81428">
        <ele>1722.4</ele>
        <time>2022-03-06T10:32:51Z</time>
      </trkpt>
      <trkpt lat="46.26519" lon="6.81428">
        <ele>1722.4</ele>
        <time>2022-03-06T10:32:52Z</time>
      </trkpt>
      <trkpt lat="46.2652" lon="6.81427">
        <ele>1723</ele>
        <time>2022-03-06T10:32:53Z</time>
      </trkpt>
      <trkpt lat="46.2652" lon="6.81427">
        <ele>1723</ele>
        <time>2022-03-06T10:32:54Z</time>
      </trkpt>
      <trkpt lat="46.2652" lon="6.81427">
        <ele>1723</ele>
        <time>2022-03-06T10:32:55Z</time>
      </trkpt>
      <trkpt lat="46.2652" lon="6.81426">
        <ele>1723.4</ele>
        <time>2022-03-06T10:32:56Z</time>
      </trkpt>
      <trkpt lat="46.2652" lon="6.81426">
        <ele>1723.6</ele>
        <time>2022-03-06T10:32:57Z</time>
      </trkpt>
      <trkpt lat="46.2652" lon="6.81425">
        <ele>1724</ele>
        <time>2022-03-06T10:32:58Z</time>
      </trkpt>
      <trkpt lat="46.2652" lon="6.81425">
        <ele>1724.2</ele>
        <time>2022-03-06T10:32:59Z</time>
      </trkpt>
      <trkpt lat="46.26521" lon="6.81424">
        <ele>1724.4</ele>
        <time>2022-03-06T10:33:00Z</time>
      </trkpt>
      <trkpt lat="46.26521" lon="6.81424">
        <ele>1724.8</ele>
        <time>2022-03-06T10:33:01Z</time>
      </trkpt>
      <trkpt lat="46.26521" lon="6.81422">
        <ele>1724.8</ele>
        <time>2022-03-06T10:33:02Z</time>
      </trkpt>
      <trkpt lat="46.26521" lon="6.81422">
        <ele>1725</ele>
        <time>2022-03-06T10:33:03Z</time>
      </trkpt>
      <trkpt lat="46.26521" lon="6.81421">
        <ele>1725</ele>
        <time>2022-03-06T10:33:04Z</time>
      </trkpt>
      <trkpt lat="46.26522" lon="6.8142">
        <ele>1725.2</ele>
        <time>2022-03-06T10:33:05Z</time>
      </trkpt>
      <trkpt lat="46.26522" lon="6.81419">
        <ele>1725.2</ele>
        <time>2022-03-06T10:33:06Z</time>
      </trkpt>
      <trkpt lat="46.26522" lon="6.81418">
        <ele>1725.2</ele>
        <time>2022-03-06T10:33:07Z</time>
      </trkpt>
      <trkpt lat="46.26522" lon="6.81417">
        <ele>1725.4</ele>
        <time>2022-03-06T10:33:08Z</time>
      </trkpt>
      <trkpt lat="46.26522" lon="6.81416">
        <ele>1725.6</ele>
        <time>2022-03-06T10:33:09Z</time>
      </trkpt>
      <trkpt lat="46.26522" lon="6.81416">
        <ele>1725.8</ele>
        <time>2022-03-06T10:33:10Z</time>
      </trkpt>
      <trkpt lat="46.26522" lon="6.81414">
        <ele>1725.8</ele>
        <time>2022-03-06T10:33:11Z</time>
      </trkpt>
      <trkpt lat="46.26522" lon="6.81413">
        <ele>1726</ele>
        <time>2022-03-06T10:33:12Z</time>
      </trkpt>
      <trkpt lat="46.26522" lon="6.81412">
        <ele>1726</ele>
        <time>2022-03-06T10:33:13Z</time>
      </trkpt>
      <trkpt lat="46.26522" lon="6.81412">
        <ele>1726.2</ele>
        <time>2022-03-06T10:33:14Z</time>
      </trkpt>
      <trkpt lat="46.26522" lon="6.81411">
        <ele>1726.6</ele>
        <time>2022-03-06T10:33:15Z</time>
      </trkpt>
      <trkpt lat="46.26522" lon="6.8141">
        <ele>1726.8</ele>
        <time>2022-03-06T10:33:16Z</time>
      </trkpt>
      <trkpt lat="46.26522" lon="6.8141">
        <ele>1727</ele>
        <time>2022-03-06T10:33:17Z</time>
      </trkpt>
      <trkpt lat="46.26522" lon="6.81409">
        <ele>1727.2</ele>
        <time>2022-03-06T10:33:18Z</time>
      </trkpt>
      <trkpt lat="46.26522" lon="6.81408">
        <ele>1727.4</ele>
        <time>2022-03-06T10:33:19Z</time>
      </trkpt>
      <trkpt lat="46.26521" lon="6.81408">
        <ele>1727.6</ele>
        <time>2022-03-06T10:33:20Z</time>
      </trkpt>
      <trkpt lat="46.2652" lon="6.81407">
        <ele>1727.8</ele>
        <time>2022-03-06T10:33:21Z</time>
      </trkpt>
      <trkpt lat="46.2652" lon="6.81406">
        <ele>1727.8</ele>
        <time>2022-03-06T10:33:22Z</time>
      </trkpt>
      <trkpt lat="46.26519" lon="6.81404">
        <ele>1728</ele>
        <time>2022-03-06T10:33:23Z</time>
      </trkpt>
      <trkpt lat="46.26518" lon="6.81403">
        <ele>1728</ele>
        <time>2022-03-06T10:33:24Z</time>
      </trkpt>
      <trkpt lat="46.26518" lon="6.81402">
        <ele>1728.2</ele>
        <time>2022-03-06T10:33:25Z</time>
      </trkpt>
      <trkpt lat="46.26518" lon="6.81401">
        <ele>1728.4</ele>
        <time>2022-03-06T10:33:26Z</time>
      </trkpt>
      <trkpt lat="46.26518" lon="6.814">
        <ele>1728.8</ele>
        <time>2022-03-06T10:33:27Z</time>
      </trkpt>
      <trkpt lat="46.26517" lon="6.814">
        <ele>1729</ele>
        <time>2022-03-06T10:33:28Z</time>
      </trkpt>
      <trkpt lat="46.26517" lon="6.81399">
        <ele>1729</ele>
        <time>2022-03-06T10:33:29Z</time>
      </trkpt>
      <trkpt lat="46.26517" lon="6.81398">
        <ele>1729</ele>
        <time>2022-03-06T10:33:30Z</time>
      </trkpt>
      <trkpt lat="46.26517" lon="6.81397">
        <ele>1729.2</ele>
        <time>2022-03-06T10:33:31Z</time>
      </trkpt>
      <trkpt lat="46.26517" lon="6.81397">
        <ele>1729.4</ele>
        <time>2022-03-06T10:33:32Z</time>
      </trkpt>
      <trkpt lat="46.26516" lon="6.81396">
        <ele>1730</ele>
        <time>2022-03-06T10:33:35Z</time>
      </trkpt>
      <trkpt lat="46.26516" lon="6.81396">
        <ele>1730.2</ele>
        <time>2022-03-06T10:33:36Z</time>
      </trkpt>
      <trkpt lat="46.26514" lon="6.81393">
        <ele>1731.2</ele>
        <time>2022-03-06T10:33:41Z</time>
      </trkpt>
      <trkpt lat="46.26513" lon="6.81392">
        <ele>1731.6</ele>
        <time>2022-03-06T10:33:43Z</time>
      </trkpt>
      <trkpt lat="46.26511" lon="6.8139">
        <ele>1732.6</ele>
        <time>2022-03-06T10:33:48Z</time>
      </trkpt>
      <trkpt lat="46.2651" lon="6.81389">
        <ele>1733</ele>
        <time>2022-03-06T10:33:50Z</time>
      </trkpt>
      <trkpt lat="46.26507" lon="6.81389">
        <ele>1733.6</ele>
        <time>2022-03-06T10:33:54Z</time>
      </trkpt>
      <trkpt lat="46.26504" lon="6.81389">
        <ele>1733.8</ele>
        <time>2022-03-06T10:33:56Z</time>
      </trkpt>
      <trkpt lat="46.26503" lon="6.81389">
        <ele>1734.2</ele>
        <time>2022-03-06T10:33:57Z</time>
      </trkpt>
      <trkpt lat="46.26502" lon="6.81388">
        <ele>1734.4</ele>
        <time>2022-03-06T10:33:58Z</time>
      </trkpt>
      <trkpt lat="46.26501" lon="6.81388">
        <ele>1734.6</ele>
        <time>2022-03-06T10:33:59Z</time>
      </trkpt>
      <trkpt lat="46.265" lon="6.81388">
        <ele>1734.8</ele>
        <time>2022-03-06T10:34:00Z</time>
      </trkpt>
      <trkpt lat="46.26499" lon="6.81388">
        <ele>1734.8</ele>
        <time>2022-03-06T10:34:01Z</time>
      </trkpt>
      <trkpt lat="46.26498" lon="6.81388">
        <ele>1735.2</ele>
        <time>2022-03-06T10:34:02Z</time>
      </trkpt>
      <trkpt lat="46.26498" lon="6.81388">
        <ele>1735.4</ele>
        <time>2022-03-06T10:34:03Z</time>
      </trkpt>
      <trkpt lat="46.26497" lon="6.81388">
        <ele>1735.6</ele>
        <time>2022-03-06T10:34:04Z</time>
      </trkpt>
      <trkpt lat="46.26497" lon="6.81388">
        <ele>1735.8</ele>
        <time>2022-03-06T10:34:05Z</time>
      </trkpt>
      <trkpt lat="46.26496" lon="6.81389">
        <ele>1736</ele>
        <time>2022-03-06T10:34:06Z</time>
      </trkpt>
      <trkpt lat="46.26495" lon="6.81389">
        <ele>1736</ele>
        <time>2022-03-06T10:34:07Z</time>
      </trkpt>
      <trkpt lat="46.26495" lon="6.81388">
        <ele>1736.2</ele>
        <time>2022-03-06T10:34:08Z</time>
      </trkpt>
      <trkpt lat="46.26494" lon="6.81388">
        <ele>1736.4</ele>
        <time>2022-03-06T10:34:09Z</time>
      </trkpt>
      <trkpt lat="46.26494" lon="6.81388">
        <ele>1736.6</ele>
        <time>2022-03-06T10:34:10Z</time>
      </trkpt>
      <trkpt lat="46.26493" lon="6.81388">
        <ele>1736.6</ele>
        <time>2022-03-06T10:34:11Z</time>
      </trkpt>
      <trkpt lat="46.26492" lon="6.81388">
        <ele>1736.8</ele>
        <time>2022-03-06T10:34:12Z</time>
      </trkpt>
      <trkpt lat="46.26492" lon="6.81388">
        <ele>1737</ele>
        <time>2022-03-06T10:34:13Z</time>
      </trkpt>
      <trkpt lat="46.26491" lon="6.81388">
        <ele>1737.4</ele>
        <time>2022-03-06T10:34:14Z</time>
      </trkpt>
      <trkpt lat="46.26491" lon="6.81388">
        <ele>1737.4</ele>
        <time>2022-03-06T10:34:15Z</time>
      </trkpt>
      <trkpt lat="46.2649" lon="6.81388">
        <ele>1737.2</ele>
        <time>2022-03-06T10:34:16Z</time>
      </trkpt>
      <trkpt lat="46.26489" lon="6.81388">
        <ele>1737.4</ele>
        <time>2022-03-06T10:34:17Z</time>
      </trkpt>
      <trkpt lat="46.26488" lon="6.81387">
        <ele>1737.4</ele>
        <time>2022-03-06T10:34:18Z</time>
      </trkpt>
      <trkpt lat="46.26488" lon="6.81386">
        <ele>1737.8</ele>
        <time>2022-03-06T10:34:19Z</time>
      </trkpt>
      <trkpt lat="46.26487" lon="6.81386">
        <ele>1737.8</ele>
        <time>2022-03-06T10:34:20Z</time>
      </trkpt>
      <trkpt lat="46.26486" lon="6.81386">
        <ele>1738.2</ele>
        <time>2022-03-06T10:34:21Z</time>
      </trkpt>
      <trkpt lat="46.26485" lon="6.81385">
        <ele>1738.2</ele>
        <time>2022-03-06T10:34:22Z</time>
      </trkpt>
      <trkpt lat="46.26484" lon="6.81384">
        <ele>1738.4</ele>
        <time>2022-03-06T10:34:23Z</time>
      </trkpt>
      <trkpt lat="46.26483" lon="6.81383">
        <ele>1738.4</ele>
        <time>2022-03-06T10:34:24Z</time>
      </trkpt>
      <trkpt lat="46.26483" lon="6.81382">
        <ele>1738.6</ele>
        <time>2022-03-06T10:34:25Z</time>
      </trkpt>
      <trkpt lat="46.26482" lon="6.81381">
        <ele>1738.6</ele>
        <time>2022-03-06T10:34:26Z</time>
      </trkpt>
      <trkpt lat="46.26482" lon="6.81379">
        <ele>1738.8</ele>
        <time>2022-03-06T10:34:27Z</time>
      </trkpt>
      <trkpt lat="46.26481" lon="6.81378">
        <ele>1739</ele>
        <time>2022-03-06T10:34:28Z</time>
      </trkpt>
      <trkpt lat="46.2648" lon="6.81377">
        <ele>1739.2</ele>
        <time>2022-03-06T10:34:29Z</time>
      </trkpt>
      <trkpt lat="46.2648" lon="6.81377">
        <ele>1739.4</ele>
        <time>2022-03-06T10:34:30Z</time>
      </trkpt>
      <trkpt lat="46.26479" lon="6.81376">
        <ele>1739.6</ele>
        <time>2022-03-06T10:34:31Z</time>
      </trkpt>
      <trkpt lat="46.26479" lon="6.81376">
        <ele>1739.6</ele>
        <time>2022-03-06T10:34:32Z</time>
      </trkpt>
      <trkpt lat="46.26479" lon="6.81375">
        <ele>1739.8</ele>
        <time>2022-03-06T10:34:33Z</time>
      </trkpt>
      <trkpt lat="46.26479" lon="6.81375">
        <ele>1740.2</ele>
        <time>2022-03-06T10:34:39Z</time>
      </trkpt>
      <trkpt lat="46.26479" lon="6.81375">
        <ele>1740.6</ele>
        <time>2022-03-06T10:34:48Z</time>
      </trkpt>
      <trkpt lat="46.2648" lon="6.81375">
        <ele>1740.6</ele>
        <time>2022-03-06T10:35:03Z</time>
      </trkpt>
      <trkpt lat="46.2648" lon="6.81376">
        <ele>1740.4</ele>
        <time>2022-03-06T10:35:22Z</time>
      </trkpt>
      <trkpt lat="46.2648" lon="6.81376">
        <ele>1740.4</ele>
        <time>2022-03-06T10:35:37Z</time>
      </trkpt>
      <trkpt lat="46.26479" lon="6.81375">
        <ele>1740.2</ele>
        <time>2022-03-06T10:35:49Z</time>
      </trkpt>
      <trkpt lat="46.26478" lon="6.81374">
        <ele>1740.2</ele>
        <time>2022-03-06T10:35:52Z</time>
      </trkpt>
      <trkpt lat="46.26477" lon="6.81373">
        <ele>1740.2</ele>
        <time>2022-03-06T10:35:54Z</time>
      </trkpt>
      <trkpt lat="46.26477" lon="6.81372">
        <ele>1740.6</ele>
        <time>2022-03-06T10:35:55Z</time>
      </trkpt>
      <trkpt lat="46.26476" lon="6.81372">
        <ele>1740.6</ele>
        <time>2022-03-06T10:35:56Z</time>
      </trkpt>
      <trkpt lat="46.26474" lon="6.81369">
        <ele>1741.2</ele>
        <time>2022-03-06T10:36:00Z</time>
      </trkpt>
      <trkpt lat="46.26473" lon="6.81369">
        <ele>1741.2</ele>
        <time>2022-03-06T10:36:01Z</time>
      </trkpt>
      <trkpt lat="46.26473" lon="6.81368">
        <ele>1741.4</ele>
        <time>2022-03-06T10:36:02Z</time>
      </trkpt>
      <trkpt lat="46.26471" lon="6.81367">
        <ele>1741.8</ele>
        <time>2022-03-06T10:36:04Z</time>
      </trkpt>
      <trkpt lat="46.2647" lon="6.81365">
        <ele>1742</ele>
        <time>2022-03-06T10:36:06Z</time>
      </trkpt>
      <trkpt lat="46.26469" lon="6.81364">
        <ele>1742</ele>
        <time>2022-03-06T10:36:07Z</time>
      </trkpt>
      <trkpt lat="46.26468" lon="6.81363">
        <ele>1742.2</ele>
        <time>2022-03-06T10:36:08Z</time>
      </trkpt>
      <trkpt lat="46.26468" lon="6.81362">
        <ele>1742.4</ele>
        <time>2022-03-06T10:36:09Z</time>
      </trkpt>
      <trkpt lat="46.26467" lon="6.81361">
        <ele>1742.4</ele>
        <time>2022-03-06T10:36:10Z</time>
      </trkpt>
      <trkpt lat="46.26466" lon="6.8136">
        <ele>1742.6</ele>
        <time>2022-03-06T10:36:11Z</time>
      </trkpt>
      <trkpt lat="46.26466" lon="6.81359">
        <ele>1742.8</ele>
        <time>2022-03-06T10:36:12Z</time>
      </trkpt>
      <trkpt lat="46.26466" lon="6.81358">
        <ele>1743</ele>
        <time>2022-03-06T10:36:13Z</time>
      </trkpt>
      <trkpt lat="46.26466" lon="6.81356">
        <ele>1743</ele>
        <time>2022-03-06T10:36:14Z</time>
      </trkpt>
      <trkpt lat="46.26466" lon="6.81355">
        <ele>1743.2</ele>
        <time>2022-03-06T10:36:15Z</time>
      </trkpt>
      <trkpt lat="46.26466" lon="6.81354">
        <ele>1743.6</ele>
        <time>2022-03-06T10:36:16Z</time>
      </trkpt>
      <trkpt lat="46.26465" lon="6.81353">
        <ele>1743.6</ele>
        <time>2022-03-06T10:36:17Z</time>
      </trkpt>
      <trkpt lat="46.26465" lon="6.81352">
        <ele>1743.8</ele>
        <time>2022-03-06T10:36:18Z</time>
      </trkpt>
      <trkpt lat="46.26465" lon="6.81351">
        <ele>1744</ele>
        <time>2022-03-06T10:36:19Z</time>
      </trkpt>
      <trkpt lat="46.26465" lon="6.8135">
        <ele>1744.2</ele>
        <time>2022-03-06T10:36:20Z</time>
      </trkpt>
      <trkpt lat="46.26465" lon="6.81348">
        <ele>1744.2</ele>
        <time>2022-03-06T10:36:21Z</time>
      </trkpt>
      <trkpt lat="46.26464" lon="6.81347">
        <ele>1744.4</ele>
        <time>2022-03-06T10:36:22Z</time>
      </trkpt>
      <trkpt lat="46.26464" lon="6.81346">
        <ele>1744.4</ele>
        <time>2022-03-06T10:36:23Z</time>
      </trkpt>
      <trkpt lat="46.26464" lon="6.81345">
        <ele>1744.8</ele>
        <time>2022-03-06T10:36:24Z</time>
      </trkpt>
      <trkpt lat="46.26464" lon="6.81344">
        <ele>1744.8</ele>
        <time>2022-03-06T10:36:25Z</time>
      </trkpt>
      <trkpt lat="46.26464" lon="6.81343">
        <ele>1745.2</ele>
        <time>2022-03-06T10:36:26Z</time>
      </trkpt>
      <trkpt lat="46.26464" lon="6.81342">
        <ele>1745.2</ele>
        <time>2022-03-06T10:36:27Z</time>
      </trkpt>
      <trkpt lat="46.26465" lon="6.81341">
        <ele>1745.6</ele>
        <time>2022-03-06T10:36:28Z</time>
      </trkpt>
      <trkpt lat="46.26465" lon="6.8134">
        <ele>1745.6</ele>
        <time>2022-03-06T10:36:29Z</time>
      </trkpt>
      <trkpt lat="46.26465" lon="6.81339">
        <ele>1745.6</ele>
        <time>2022-03-06T10:36:30Z</time>
      </trkpt>
      <trkpt lat="46.26465" lon="6.81338">
        <ele>1746</ele>
        <time>2022-03-06T10:36:31Z</time>
      </trkpt>
      <trkpt lat="46.26465" lon="6.81337">
        <ele>1746</ele>
        <time>2022-03-06T10:36:32Z</time>
      </trkpt>
      <trkpt lat="46.26465" lon="6.81336">
        <ele>1746.2</ele>
        <time>2022-03-06T10:36:33Z</time>
      </trkpt>
      <trkpt lat="46.26465" lon="6.81336">
        <ele>1746.6</ele>
        <time>2022-03-06T10:36:34Z</time>
      </trkpt>
      <trkpt lat="46.26465" lon="6.81335">
        <ele>1746.6</ele>
        <time>2022-03-06T10:36:35Z</time>
      </trkpt>
      <trkpt lat="46.26466" lon="6.81334">
        <ele>1747</ele>
        <time>2022-03-06T10:36:36Z</time>
      </trkpt>
      <trkpt lat="46.26466" lon="6.81333">
        <ele>1747</ele>
        <time>2022-03-06T10:36:37Z</time>
      </trkpt>
      <trkpt lat="46.26466" lon="6.81332">
        <ele>1747.4</ele>
        <time>2022-03-06T10:36:38Z</time>
      </trkpt>
      <trkpt lat="46.26467" lon="6.81331">
        <ele>1747.4</ele>
        <time>2022-03-06T10:36:39Z</time>
      </trkpt>
      <trkpt lat="46.26467" lon="6.8133">
        <ele>1747.6</ele>
        <time>2022-03-06T10:36:40Z</time>
      </trkpt>
      <trkpt lat="46.26467" lon="6.8133">
        <ele>1747.8</ele>
        <time>2022-03-06T10:36:41Z</time>
      </trkpt>
      <trkpt lat="46.26467" lon="6.81329">
        <ele>1748</ele>
        <time>2022-03-06T10:36:42Z</time>
      </trkpt>
      <trkpt lat="46.26468" lon="6.81328">
        <ele>1748.4</ele>
        <time>2022-03-06T10:36:43Z</time>
      </trkpt>
      <trkpt lat="46.26469" lon="6.81328">
        <ele>1748.4</ele>
        <time>2022-03-06T10:36:44Z</time>
      </trkpt>
      <trkpt lat="46.26471" lon="6.81327">
        <ele>1748.6</ele>
        <time>2022-03-06T10:36:45Z</time>
      </trkpt>
      <trkpt lat="46.26472" lon="6.81327">
        <ele>1748.8</ele>
        <time>2022-03-06T10:36:46Z</time>
      </trkpt>
      <trkpt lat="46.26473" lon="6.81326">
        <ele>1749.2</ele>
        <time>2022-03-06T10:36:47Z</time>
      </trkpt>
      <trkpt lat="46.26473" lon="6.81326">
        <ele>1749.6</ele>
        <time>2022-03-06T10:36:48Z</time>
      </trkpt>
      <trkpt lat="46.26474" lon="6.81325">
        <ele>1749.8</ele>
        <time>2022-03-06T10:36:49Z</time>
      </trkpt>
      <trkpt lat="46.26474" lon="6.81325">
        <ele>1749.8</ele>
        <time>2022-03-06T10:36:50Z</time>
      </trkpt>
      <trkpt lat="46.26475" lon="6.81324">
        <ele>1749.8</ele>
        <time>2022-03-06T10:36:51Z</time>
      </trkpt>
      <trkpt lat="46.26475" lon="6.81323">
        <ele>1750</ele>
        <time>2022-03-06T10:36:52Z</time>
      </trkpt>
      <trkpt lat="46.26476" lon="6.81323">
        <ele>1750.2</ele>
        <time>2022-03-06T10:36:53Z</time>
      </trkpt>
      <trkpt lat="46.26477" lon="6.81322">
        <ele>1750.2</ele>
        <time>2022-03-06T10:36:54Z</time>
      </trkpt>
      <trkpt lat="46.26477" lon="6.81321">
        <ele>1750.4</ele>
        <time>2022-03-06T10:36:55Z</time>
      </trkpt>
      <trkpt lat="46.26477" lon="6.81321">
        <ele>1750.6</ele>
        <time>2022-03-06T10:36:56Z</time>
      </trkpt>
      <trkpt lat="46.26478" lon="6.8132">
        <ele>1750.8</ele>
        <time>2022-03-06T10:36:57Z</time>
      </trkpt>
      <trkpt lat="46.26479" lon="6.8132">
        <ele>1751.2</ele>
        <time>2022-03-06T10:36:58Z</time>
      </trkpt>
      <trkpt lat="46.26479" lon="6.81319">
        <ele>1751.4</ele>
        <time>2022-03-06T10:36:59Z</time>
      </trkpt>
      <trkpt lat="46.26479" lon="6.81319">
        <ele>1751.6</ele>
        <time>2022-03-06T10:37:00Z</time>
      </trkpt>
      <trkpt lat="46.2648" lon="6.81318">
        <ele>1751.8</ele>
        <time>2022-03-06T10:37:01Z</time>
      </trkpt>
      <trkpt lat="46.2648" lon="6.81317">
        <ele>1752</ele>
        <time>2022-03-06T10:37:02Z</time>
      </trkpt>
      <trkpt lat="46.26481" lon="6.81316">
        <ele>1752</ele>
        <time>2022-03-06T10:37:03Z</time>
      </trkpt>
      <trkpt lat="46.26481" lon="6.81314">
        <ele>1752.2</ele>
        <time>2022-03-06T10:37:04Z</time>
      </trkpt>
      <trkpt lat="46.2648" lon="6.81313">
        <ele>1752.4</ele>
        <time>2022-03-06T10:37:05Z</time>
      </trkpt>
      <trkpt lat="46.26481" lon="6.81312">
        <ele>1752.6</ele>
        <time>2022-03-06T10:37:06Z</time>
      </trkpt>
      <trkpt lat="46.26481" lon="6.81311">
        <ele>1752.8</ele>
        <time>2022-03-06T10:37:07Z</time>
      </trkpt>
      <trkpt lat="46.26482" lon="6.8131">
        <ele>1753</ele>
        <time>2022-03-06T10:37:08Z</time>
      </trkpt>
      <trkpt lat="46.26482" lon="6.81309">
        <ele>1753.2</ele>
        <time>2022-03-06T10:37:09Z</time>
      </trkpt>
      <trkpt lat="46.26483" lon="6.81308">
        <ele>1753.2</ele>
        <time>2022-03-06T10:37:10Z</time>
      </trkpt>
      <trkpt lat="46.26484" lon="6.81307">
        <ele>1753.4</ele>
        <time>2022-03-06T10:37:11Z</time>
      </trkpt>
      <trkpt lat="46.26485" lon="6.81305">
        <ele>1753.6</ele>
        <time>2022-03-06T10:37:12Z</time>
      </trkpt>
      <trkpt lat="46.26485" lon="6.81304">
        <ele>1753.6</ele>
        <time>2022-03-06T10:37:13Z</time>
      </trkpt>
      <trkpt lat="46.26486" lon="6.81303">
        <ele>1753.8</ele>
        <time>2022-03-06T10:37:14Z</time>
      </trkpt>
      <trkpt lat="46.26485" lon="6.81303">
        <ele>1754</ele>
        <time>2022-03-06T10:37:15Z</time>
      </trkpt>
      <trkpt lat="46.26485" lon="6.81301">
        <ele>1754</ele>
        <time>2022-03-06T10:37:16Z</time>
      </trkpt>
      <trkpt lat="46.26485" lon="6.81301">
        <ele>1754.2</ele>
        <time>2022-03-06T10:37:17Z</time>
      </trkpt>
      <trkpt lat="46.26485" lon="6.813">
        <ele>1754.4</ele>
        <time>2022-03-06T10:37:18Z</time>
      </trkpt>
      <trkpt lat="46.26486" lon="6.81299">
        <ele>1754.8</ele>
        <time>2022-03-06T10:37:19Z</time>
      </trkpt>
      <trkpt lat="46.26486" lon="6.81297">
        <ele>1754.8</ele>
        <time>2022-03-06T10:37:20Z</time>
      </trkpt>
      <trkpt lat="46.26486" lon="6.81296">
        <ele>1755</ele>
        <time>2022-03-06T10:37:21Z</time>
      </trkpt>
      <trkpt lat="46.26486" lon="6.81296">
        <ele>1755.2</ele>
        <time>2022-03-06T10:37:22Z</time>
      </trkpt>
      <trkpt lat="46.26486" lon="6.81296">
        <ele>1755.4</ele>
        <time>2022-03-06T10:37:23Z</time>
      </trkpt>
      <trkpt lat="46.26486" lon="6.81295">
        <ele>1755.6</ele>
        <time>2022-03-06T10:37:24Z</time>
      </trkpt>
      <trkpt lat="46.26486" lon="6.81294">
        <ele>1755.8</ele>
        <time>2022-03-06T10:37:25Z</time>
      </trkpt>
      <trkpt lat="46.26486" lon="6.81293">
        <ele>1755.8</ele>
        <time>2022-03-06T10:37:26Z</time>
      </trkpt>
      <trkpt lat="46.26487" lon="6.81293">
        <ele>1755.8</ele>
        <time>2022-03-06T10:37:27Z</time>
      </trkpt>
      <trkpt lat="46.26487" lon="6.81292">
        <ele>1756.2</ele>
        <time>2022-03-06T10:37:28Z</time>
      </trkpt>
      <trkpt lat="46.26488" lon="6.81292">
        <ele>1756.4</ele>
        <time>2022-03-06T10:37:29Z</time>
      </trkpt>
      <trkpt lat="46.26488" lon="6.81291">
        <ele>1756.4</ele>
        <time>2022-03-06T10:37:30Z</time>
      </trkpt>
      <trkpt lat="46.26489" lon="6.8129">
        <ele>1756.8</ele>
        <time>2022-03-06T10:37:31Z</time>
      </trkpt>
      <trkpt lat="46.26489" lon="6.8129">
        <ele>1757</ele>
        <time>2022-03-06T10:37:32Z</time>
      </trkpt>
      <trkpt lat="46.26489" lon="6.8129">
        <ele>1757.2</ele>
        <time>2022-03-06T10:37:33Z</time>
      </trkpt>
      <trkpt lat="46.2649" lon="6.81289">
        <ele>1757.4</ele>
        <time>2022-03-06T10:37:34Z</time>
      </trkpt>
      <trkpt lat="46.2649" lon="6.81289">
        <ele>1757.4</ele>
        <time>2022-03-06T10:37:35Z</time>
      </trkpt>
      <trkpt lat="46.26491" lon="6.81289">
        <ele>1757.4</ele>
        <time>2022-03-06T10:37:36Z</time>
      </trkpt>
      <trkpt lat="46.26492" lon="6.81289">
        <ele>1757.4</ele>
        <time>2022-03-06T10:37:37Z</time>
      </trkpt>
      <trkpt lat="46.26493" lon="6.81288">
        <ele>1757.6</ele>
        <time>2022-03-06T10:37:38Z</time>
      </trkpt>
      <trkpt lat="46.26493" lon="6.81288">
        <ele>1757.8</ele>
        <time>2022-03-06T10:37:39Z</time>
      </trkpt>
      <trkpt lat="46.26495" lon="6.81286">
        <ele>1758</ele>
        <time>2022-03-06T10:37:40Z</time>
      </trkpt>
      <trkpt lat="46.26495" lon="6.81286">
        <ele>1758.2</ele>
        <time>2022-03-06T10:37:41Z</time>
      </trkpt>
      <trkpt lat="46.26496" lon="6.81286">
        <ele>1758.4</ele>
        <time>2022-03-06T10:37:42Z</time>
      </trkpt>
      <trkpt lat="46.26497" lon="6.81286">
        <ele>1758.6</ele>
        <time>2022-03-06T10:37:43Z</time>
      </trkpt>
      <trkpt lat="46.26497" lon="6.81286">
        <ele>1758.8</ele>
        <time>2022-03-06T10:37:44Z</time>
      </trkpt>
      <trkpt lat="46.26497" lon="6.81285">
        <ele>1758.8</ele>
        <time>2022-03-06T10:37:45Z</time>
      </trkpt>
      <trkpt lat="46.26496" lon="6.81285">
        <ele>1759</ele>
        <time>2022-03-06T10:37:46Z</time>
      </trkpt>
      <trkpt lat="46.26496" lon="6.81284">
        <ele>1759.2</ele>
        <time>2022-03-06T10:37:47Z</time>
      </trkpt>
      <trkpt lat="46.26496" lon="6.81283">
        <ele>1759.4</ele>
        <time>2022-03-06T10:37:48Z</time>
      </trkpt>
      <trkpt lat="46.26496" lon="6.81282">
        <ele>1759.8</ele>
        <time>2022-03-06T10:37:49Z</time>
      </trkpt>
      <trkpt lat="46.26493" lon="6.81281">
        <ele>1760.2</ele>
        <time>2022-03-06T10:37:53Z</time>
      </trkpt>
      <trkpt lat="46.26492" lon="6.8128">
        <ele>1760.8</ele>
        <time>2022-03-06T10:37:55Z</time>
      </trkpt>
      <trkpt lat="46.26491" lon="6.81278">
        <ele>1761</ele>
        <time>2022-03-06T10:37:58Z</time>
      </trkpt>
      <trkpt lat="46.26489" lon="6.81274">
        <ele>1762</ele>
        <time>2022-03-06T10:38:03Z</time>
      </trkpt>
      <trkpt lat="46.26488" lon="6.81273">
        <ele>1762.2</ele>
        <time>2022-03-06T10:38:04Z</time>
      </trkpt>
      <trkpt lat="46.26487" lon="6.81273">
        <ele>1762.6</ele>
        <time>2022-03-06T10:38:05Z</time>
      </trkpt>
      <trkpt lat="46.26486" lon="6.81272">
        <ele>1762.6</ele>
        <time>2022-03-06T10:38:06Z</time>
      </trkpt>
      <trkpt lat="46.26485" lon="6.81272">
        <ele>1762.8</ele>
        <time>2022-03-06T10:38:07Z</time>
      </trkpt>
      <trkpt lat="46.26485" lon="6.81271">
        <ele>1763.2</ele>
        <time>2022-03-06T10:38:08Z</time>
      </trkpt>
      <trkpt lat="46.26484" lon="6.8127">
        <ele>1763.2</ele>
        <time>2022-03-06T10:38:09Z</time>
      </trkpt>
      <trkpt lat="46.26484" lon="6.8127">
        <ele>1763.4</ele>
        <time>2022-03-06T10:38:10Z</time>
      </trkpt>
      <trkpt lat="46.26483" lon="6.81269">
        <ele>1763.6</ele>
        <time>2022-03-06T10:38:11Z</time>
      </trkpt>
      <trkpt lat="46.26483" lon="6.81269">
        <ele>1763.6</ele>
        <time>2022-03-06T10:38:12Z</time>
      </trkpt>
      <trkpt lat="46.26482" lon="6.81268">
        <ele>1763.8</ele>
        <time>2022-03-06T10:38:13Z</time>
      </trkpt>
      <trkpt lat="46.26482" lon="6.81268">
        <ele>1764</ele>
        <time>2022-03-06T10:38:14Z</time>
      </trkpt>
      <trkpt lat="46.26481" lon="6.81268">
        <ele>1764.4</ele>
        <time>2022-03-06T10:38:15Z</time>
      </trkpt>
      <trkpt lat="46.2648" lon="6.81268">
        <ele>1764.4</ele>
        <time>2022-03-06T10:38:16Z</time>
      </trkpt>
      <trkpt lat="46.2648" lon="6.81269">
        <ele>1764.6</ele>
        <time>2022-03-06T10:38:17Z</time>
      </trkpt>
      <trkpt lat="46.26479" lon="6.81269">
        <ele>1764.8</ele>
        <time>2022-03-06T10:38:18Z</time>
      </trkpt>
      <trkpt lat="46.26478" lon="6.81269">
        <ele>1765</ele>
        <time>2022-03-06T10:38:19Z</time>
      </trkpt>
      <trkpt lat="46.26476" lon="6.81269">
        <ele>1765</ele>
        <time>2022-03-06T10:38:20Z</time>
      </trkpt>
      <trkpt lat="46.26475" lon="6.81269">
        <ele>1765</ele>
        <time>2022-03-06T10:38:21Z</time>
      </trkpt>
      <trkpt lat="46.26474" lon="6.81271">
        <ele>1765.4</ele>
        <time>2022-03-06T10:38:22Z</time>
      </trkpt>
      <trkpt lat="46.26473" lon="6.81272">
        <ele>1765.4</ele>
        <time>2022-03-06T10:38:23Z</time>
      </trkpt>
      <trkpt lat="46.26472" lon="6.81272">
        <ele>1765.6</ele>
        <time>2022-03-06T10:38:24Z</time>
      </trkpt>
      <trkpt lat="46.26471" lon="6.81273">
        <ele>1765.8</ele>
        <time>2022-03-06T10:38:25Z</time>
      </trkpt>
      <trkpt lat="46.2647" lon="6.81273">
        <ele>1765.8</ele>
        <time>2022-03-06T10:38:26Z</time>
      </trkpt>
      <trkpt lat="46.26469" lon="6.81273">
        <ele>1766.2</ele>
        <time>2022-03-06T10:38:27Z</time>
      </trkpt>
      <trkpt lat="46.26468" lon="6.81273">
        <ele>1766.2</ele>
        <time>2022-03-06T10:38:28Z</time>
      </trkpt>
      <trkpt lat="46.26467" lon="6.81274">
        <ele>1766.6</ele>
        <time>2022-03-06T10:38:29Z</time>
      </trkpt>
      <trkpt lat="46.26466" lon="6.81275">
        <ele>1766.6</ele>
        <time>2022-03-06T10:38:30Z</time>
      </trkpt>
      <trkpt lat="46.26466" lon="6.81275">
        <ele>1767</ele>
        <time>2022-03-06T10:38:31Z</time>
      </trkpt>
      <trkpt lat="46.26465" lon="6.81275">
        <ele>1767.2</ele>
        <time>2022-03-06T10:38:32Z</time>
      </trkpt>
      <trkpt lat="46.26464" lon="6.81275">
        <ele>1767.4</ele>
        <time>2022-03-06T10:38:33Z</time>
      </trkpt>
      <trkpt lat="46.26464" lon="6.81275">
        <ele>1767.6</ele>
        <time>2022-03-06T10:38:34Z</time>
      </trkpt>
      <trkpt lat="46.26463" lon="6.81275">
        <ele>1767.6</ele>
        <time>2022-03-06T10:38:35Z</time>
      </trkpt>
      <trkpt lat="46.26462" lon="6.81274">
        <ele>1767.8</ele>
        <time>2022-03-06T10:38:36Z</time>
      </trkpt>
      <trkpt lat="46.26461" lon="6.81274">
        <ele>1768.2</ele>
        <time>2022-03-06T10:38:37Z</time>
      </trkpt>
      <trkpt lat="46.26461" lon="6.81273">
        <ele>1768.2</ele>
        <time>2022-03-06T10:38:38Z</time>
      </trkpt>
      <trkpt lat="46.2646" lon="6.81272">
        <ele>1768.4</ele>
        <time>2022-03-06T10:38:39Z</time>
      </trkpt>
      <trkpt lat="46.26459" lon="6.81272">
        <ele>1768.6</ele>
        <time>2022-03-06T10:38:40Z</time>
      </trkpt>
      <trkpt lat="46.26459" lon="6.81272">
        <ele>1768.8</ele>
        <time>2022-03-06T10:38:41Z</time>
      </trkpt>
      <trkpt lat="46.26458" lon="6.8127">
        <ele>1768.8</ele>
        <time>2022-03-06T10:38:42Z</time>
      </trkpt>
      <trkpt lat="46.26457" lon="6.8127">
        <ele>1768.8</ele>
        <time>2022-03-06T10:38:43Z</time>
      </trkpt>
      <trkpt lat="46.26457" lon="6.81269">
        <ele>1769.2</ele>
        <time>2022-03-06T10:38:44Z</time>
      </trkpt>
      <trkpt lat="46.26457" lon="6.81268">
        <ele>1769.2</ele>
        <time>2022-03-06T10:38:45Z</time>
      </trkpt>
      <trkpt lat="46.26456" lon="6.81267">
        <ele>1769.2</ele>
        <time>2022-03-06T10:38:46Z</time>
      </trkpt>
      <trkpt lat="46.26456" lon="6.81266">
        <ele>1769.6</ele>
        <time>2022-03-06T10:38:47Z</time>
      </trkpt>
      <trkpt lat="46.26456" lon="6.81266">
        <ele>1769.6</ele>
        <time>2022-03-06T10:38:48Z</time>
      </trkpt>
      <trkpt lat="46.26456" lon="6.81265">
        <ele>1769.8</ele>
        <time>2022-03-06T10:38:49Z</time>
      </trkpt>
      <trkpt lat="46.26456" lon="6.81264">
        <ele>1770.2</ele>
        <time>2022-03-06T10:38:50Z</time>
      </trkpt>
      <trkpt lat="46.26455" lon="6.81264">
        <ele>1770.2</ele>
        <time>2022-03-06T10:38:51Z</time>
      </trkpt>
      <trkpt lat="46.26455" lon="6.81263">
        <ele>1770.4</ele>
        <time>2022-03-06T10:38:52Z</time>
      </trkpt>
      <trkpt lat="46.26454" lon="6.81263">
        <ele>1770.6</ele>
        <time>2022-03-06T10:38:53Z</time>
      </trkpt>
      <trkpt lat="46.26453" lon="6.81263">
        <ele>1770.6</ele>
        <time>2022-03-06T10:38:54Z</time>
      </trkpt>
      <trkpt lat="46.26453" lon="6.81263">
        <ele>1771</ele>
        <time>2022-03-06T10:38:55Z</time>
      </trkpt>
      <trkpt lat="46.26452" lon="6.81262">
        <ele>1771</ele>
        <time>2022-03-06T10:38:56Z</time>
      </trkpt>
      <trkpt lat="46.26452" lon="6.81262">
        <ele>1771.2</ele>
        <time>2022-03-06T10:38:57Z</time>
      </trkpt>
      <trkpt lat="46.26451" lon="6.81262">
        <ele>1771.4</ele>
        <time>2022-03-06T10:38:58Z</time>
      </trkpt>
      <trkpt lat="46.26451" lon="6.81261">
        <ele>1771.6</ele>
        <time>2022-03-06T10:38:59Z</time>
      </trkpt>
      <trkpt lat="46.26451" lon="6.81261">
        <ele>1771.8</ele>
        <time>2022-03-06T10:39:00Z</time>
      </trkpt>
      <trkpt lat="46.2645" lon="6.81261">
        <ele>1772</ele>
        <time>2022-03-06T10:39:01Z</time>
      </trkpt>
      <trkpt lat="46.2645" lon="6.8126">
        <ele>1772.2</ele>
        <time>2022-03-06T10:39:02Z</time>
      </trkpt>
      <trkpt lat="46.2645" lon="6.8126">
        <ele>1772.2</ele>
        <time>2022-03-06T10:39:03Z</time>
      </trkpt>
      <trkpt lat="46.2645" lon="6.81259">
        <ele>1772.2</ele>
        <time>2022-03-06T10:39:04Z</time>
      </trkpt>
      <trkpt lat="46.26449" lon="6.81258">
        <ele>1772.2</ele>
        <time>2022-03-06T10:39:05Z</time>
      </trkpt>
      <trkpt lat="46.26449" lon="6.81257">
        <ele>1772.6</ele>
        <time>2022-03-06T10:39:06Z</time>
      </trkpt>
      <trkpt lat="46.26449" lon="6.81256">
        <ele>1772.6</ele>
        <time>2022-03-06T10:39:07Z</time>
      </trkpt>
      <trkpt lat="46.26449" lon="6.81255">
        <ele>1772.8</ele>
        <time>2022-03-06T10:39:08Z</time>
      </trkpt>
      <trkpt lat="46.26448" lon="6.81256">
        <ele>1773</ele>
        <time>2022-03-06T10:39:09Z</time>
      </trkpt>
      <trkpt lat="46.26448" lon="6.81256">
        <ele>1773.2</ele>
        <time>2022-03-06T10:39:10Z</time>
      </trkpt>
      <trkpt lat="46.26447" lon="6.81255">
        <ele>1773.2</ele>
        <time>2022-03-06T10:39:11Z</time>
      </trkpt>
      <trkpt lat="46.26446" lon="6.81256">
        <ele>1773.2</ele>
        <time>2022-03-06T10:39:12Z</time>
      </trkpt>
      <trkpt lat="46.26446" lon="6.81256">
        <ele>1773.4</ele>
        <time>2022-03-06T10:39:13Z</time>
      </trkpt>
      <trkpt lat="46.26446" lon="6.81256">
        <ele>1773.6</ele>
        <time>2022-03-06T10:39:14Z</time>
      </trkpt>
      <trkpt lat="46.26445" lon="6.81256">
        <ele>1773.8</ele>
        <time>2022-03-06T10:39:16Z</time>
      </trkpt>
      <trkpt lat="46.26445" lon="6.81255">
        <ele>1774</ele>
        <time>2022-03-06T10:39:17Z</time>
      </trkpt>
      <trkpt lat="46.26444" lon="6.81254">
        <ele>1774.2</ele>
        <time>2022-03-06T10:39:18Z</time>
      </trkpt>
      <trkpt lat="46.26444" lon="6.81254">
        <ele>1774.4</ele>
        <time>2022-03-06T10:39:19Z</time>
      </trkpt>
      <trkpt lat="46.26443" lon="6.81254">
        <ele>1774.8</ele>
        <time>2022-03-06T10:39:20Z</time>
      </trkpt>
      <trkpt lat="46.26443" lon="6.81253">
        <ele>1775</ele>
        <time>2022-03-06T10:39:21Z</time>
      </trkpt>
      <trkpt lat="46.26443" lon="6.81253">
        <ele>1775.2</ele>
        <time>2022-03-06T10:39:22Z</time>
      </trkpt>
      <trkpt lat="46.26442" lon="6.81252">
        <ele>1775.6</ele>
        <time>2022-03-06T10:39:23Z</time>
      </trkpt>
      <trkpt lat="46.26441" lon="6.81252">
        <ele>1775.8</ele>
        <time>2022-03-06T10:39:24Z</time>
      </trkpt>
      <trkpt lat="46.2644" lon="6.81252">
        <ele>1776</ele>
        <time>2022-03-06T10:39:25Z</time>
      </trkpt>
      <trkpt lat="46.26439" lon="6.81252">
        <ele>1776</ele>
        <time>2022-03-06T10:39:26Z</time>
      </trkpt>
      <trkpt lat="46.26438" lon="6.81251">
        <ele>1776</ele>
        <time>2022-03-06T10:39:27Z</time>
      </trkpt>
      <trkpt lat="46.26437" lon="6.81251">
        <ele>1776</ele>
        <time>2022-03-06T10:39:28Z</time>
      </trkpt>
      <trkpt lat="46.26436" lon="6.81251">
        <ele>1776.2</ele>
        <time>2022-03-06T10:39:29Z</time>
      </trkpt>
      <trkpt lat="46.26435" lon="6.8125">
        <ele>1776.6</ele>
        <time>2022-03-06T10:39:30Z</time>
      </trkpt>
      <trkpt lat="46.26434" lon="6.8125">
        <ele>1776.6</ele>
        <time>2022-03-06T10:39:31Z</time>
      </trkpt>
      <trkpt lat="46.26434" lon="6.81249">
        <ele>1776.6</ele>
        <time>2022-03-06T10:39:32Z</time>
      </trkpt>
      <trkpt lat="46.26433" lon="6.81249">
        <ele>1776.8</ele>
        <time>2022-03-06T10:39:33Z</time>
      </trkpt>
      <trkpt lat="46.26432" lon="6.81249">
        <ele>1777</ele>
        <time>2022-03-06T10:39:34Z</time>
      </trkpt>
      <trkpt lat="46.26431" lon="6.81248">
        <ele>1777.2</ele>
        <time>2022-03-06T10:39:35Z</time>
      </trkpt>
      <trkpt lat="46.26431" lon="6.81248">
        <ele>1777.6</ele>
        <time>2022-03-06T10:39:36Z</time>
      </trkpt>
      <trkpt lat="46.26431" lon="6.81247">
        <ele>1777.6</ele>
        <time>2022-03-06T10:39:37Z</time>
      </trkpt>
      <trkpt lat="46.26431" lon="6.81246">
        <ele>1777.8</ele>
        <time>2022-03-06T10:39:38Z</time>
      </trkpt>
      <trkpt lat="46.26431" lon="6.81245">
        <ele>1777.8</ele>
        <time>2022-03-06T10:39:39Z</time>
      </trkpt>
      <trkpt lat="46.2643" lon="6.81244">
        <ele>1778.2</ele>
        <time>2022-03-06T10:39:40Z</time>
      </trkpt>
      <trkpt lat="46.2643" lon="6.81243">
        <ele>1778.2</ele>
        <time>2022-03-06T10:39:41Z</time>
      </trkpt>
      <trkpt lat="46.26429" lon="6.81242">
        <ele>1778.4</ele>
        <time>2022-03-06T10:39:42Z</time>
      </trkpt>
      <trkpt lat="46.26428" lon="6.81241">
        <ele>1778.4</ele>
        <time>2022-03-06T10:39:43Z</time>
      </trkpt>
      <trkpt lat="46.26428" lon="6.8124">
        <ele>1778.6</ele>
        <time>2022-03-06T10:39:44Z</time>
      </trkpt>
      <trkpt lat="46.26428" lon="6.81239">
        <ele>1778.8</ele>
        <time>2022-03-06T10:39:45Z</time>
      </trkpt>
      <trkpt lat="46.26427" lon="6.81239">
        <ele>1779</ele>
        <time>2022-03-06T10:39:46Z</time>
      </trkpt>
      <trkpt lat="46.26427" lon="6.81238">
        <ele>1779</ele>
        <time>2022-03-06T10:39:47Z</time>
      </trkpt>
      <trkpt lat="46.26427" lon="6.81238">
        <ele>1779.2</ele>
        <time>2022-03-06T10:39:48Z</time>
      </trkpt>
      <trkpt lat="46.26427" lon="6.81237">
        <ele>1779.4</ele>
        <time>2022-03-06T10:39:49Z</time>
      </trkpt>
      <trkpt lat="46.26426" lon="6.81237">
        <ele>1779.4</ele>
        <time>2022-03-06T10:39:50Z</time>
      </trkpt>
      <trkpt lat="46.26426" lon="6.81236">
        <ele>1779.4</ele>
        <time>2022-03-06T10:39:51Z</time>
      </trkpt>
      <trkpt lat="46.26426" lon="6.81236">
        <ele>1779.8</ele>
        <time>2022-03-06T10:39:52Z</time>
      </trkpt>
      <trkpt lat="46.26425" lon="6.81236">
        <ele>1779.8</ele>
        <time>2022-03-06T10:39:53Z</time>
      </trkpt>
      <trkpt lat="46.26425" lon="6.81235">
        <ele>1780.2</ele>
        <time>2022-03-06T10:39:54Z</time>
      </trkpt>
      <trkpt lat="46.26425" lon="6.81234">
        <ele>1780.2</ele>
        <time>2022-03-06T10:39:55Z</time>
      </trkpt>
      <trkpt lat="46.26424" lon="6.81233">
        <ele>1780.4</ele>
        <time>2022-03-06T10:39:56Z</time>
      </trkpt>
      <trkpt lat="46.26423" lon="6.81233">
        <ele>1780.6</ele>
        <time>2022-03-06T10:39:57Z</time>
      </trkpt>
      <trkpt lat="46.26422" lon="6.81232">
        <ele>1780.8</ele>
        <time>2022-03-06T10:39:58Z</time>
      </trkpt>
      <trkpt lat="46.26422" lon="6.81231">
        <ele>1781.2</ele>
        <time>2022-03-06T10:39:59Z</time>
      </trkpt>
      <trkpt lat="46.26422" lon="6.8123">
        <ele>1781.2</ele>
        <time>2022-03-06T10:40:00Z</time>
      </trkpt>
      <trkpt lat="46.26422" lon="6.81228">
        <ele>1781.6</ele>
        <time>2022-03-06T10:40:01Z</time>
      </trkpt>
      <trkpt lat="46.26422" lon="6.81227">
        <ele>1781.8</ele>
        <time>2022-03-06T10:40:02Z</time>
      </trkpt>
      <trkpt lat="46.26421" lon="6.81226">
        <ele>1782</ele>
        <time>2022-03-06T10:40:03Z</time>
      </trkpt>
      <trkpt lat="46.26421" lon="6.81224">
        <ele>1782.2</ele>
        <time>2022-03-06T10:40:04Z</time>
      </trkpt>
      <trkpt lat="46.26421" lon="6.81223">
        <ele>1782.4</ele>
        <time>2022-03-06T10:40:05Z</time>
      </trkpt>
      <trkpt lat="46.2642" lon="6.81222">
        <ele>1782.6</ele>
        <time>2022-03-06T10:40:06Z</time>
      </trkpt>
      <trkpt lat="46.2642" lon="6.8122">
        <ele>1782.8</ele>
        <time>2022-03-06T10:40:07Z</time>
      </trkpt>
      <trkpt lat="46.2642" lon="6.81218">
        <ele>1782.8</ele>
        <time>2022-03-06T10:40:08Z</time>
      </trkpt>
      <trkpt lat="46.2642" lon="6.81217">
        <ele>1783</ele>
        <time>2022-03-06T10:40:09Z</time>
      </trkpt>
      <trkpt lat="46.26419" lon="6.81216">
        <ele>1783.2</ele>
        <time>2022-03-06T10:40:10Z</time>
      </trkpt>
      <trkpt lat="46.26419" lon="6.81215">
        <ele>1783.4</ele>
        <time>2022-03-06T10:40:11Z</time>
      </trkpt>
      <trkpt lat="46.26419" lon="6.81214">
        <ele>1783.6</ele>
        <time>2022-03-06T10:40:12Z</time>
      </trkpt>
      <trkpt lat="46.26419" lon="6.81213">
        <ele>1783.6</ele>
        <time>2022-03-06T10:40:13Z</time>
      </trkpt>
      <trkpt lat="46.26418" lon="6.81212">
        <ele>1783.6</ele>
        <time>2022-03-06T10:40:14Z</time>
      </trkpt>
      <trkpt lat="46.26418" lon="6.81211">
        <ele>1783.8</ele>
        <time>2022-03-06T10:40:15Z</time>
      </trkpt>
      <trkpt lat="46.26418" lon="6.8121">
        <ele>1783.8</ele>
        <time>2022-03-06T10:40:16Z</time>
      </trkpt>
      <trkpt lat="46.26418" lon="6.81209">
        <ele>1784</ele>
        <time>2022-03-06T10:40:17Z</time>
      </trkpt>
      <trkpt lat="46.26417" lon="6.81208">
        <ele>1784</ele>
        <time>2022-03-06T10:40:18Z</time>
      </trkpt>
      <trkpt lat="46.26417" lon="6.81207">
        <ele>1784.4</ele>
        <time>2022-03-06T10:40:19Z</time>
      </trkpt>
      <trkpt lat="46.26417" lon="6.81206">
        <ele>1784.4</ele>
        <time>2022-03-06T10:40:20Z</time>
      </trkpt>
      <trkpt lat="46.26416" lon="6.81206">
        <ele>1784.6</ele>
        <time>2022-03-06T10:40:21Z</time>
      </trkpt>
      <trkpt lat="46.26415" lon="6.81205">
        <ele>1784.6</ele>
        <time>2022-03-06T10:40:22Z</time>
      </trkpt>
      <trkpt lat="46.26414" lon="6.81205">
        <ele>1784.8</ele>
        <time>2022-03-06T10:40:23Z</time>
      </trkpt>
      <trkpt lat="46.26414" lon="6.81205">
        <ele>1785</ele>
        <time>2022-03-06T10:40:24Z</time>
      </trkpt>
      <trkpt lat="46.26413" lon="6.81205">
        <ele>1785.2</ele>
        <time>2022-03-06T10:40:25Z</time>
      </trkpt>
      <trkpt lat="46.26414" lon="6.81205">
        <ele>1785.4</ele>
        <time>2022-03-06T10:40:26Z</time>
      </trkpt>
      <trkpt lat="46.26413" lon="6.81204">
        <ele>1785.6</ele>
        <time>2022-03-06T10:40:27Z</time>
      </trkpt>
      <trkpt lat="46.26413" lon="6.81203">
        <ele>1785.6</ele>
        <time>2022-03-06T10:40:28Z</time>
      </trkpt>
      <trkpt lat="46.26413" lon="6.81203">
        <ele>1785.8</ele>
        <time>2022-03-06T10:40:29Z</time>
      </trkpt>
      <trkpt lat="46.26413" lon="6.81202">
        <ele>1786</ele>
        <time>2022-03-06T10:40:30Z</time>
      </trkpt>
      <trkpt lat="46.26413" lon="6.81201">
        <ele>1786</ele>
        <time>2022-03-06T10:40:31Z</time>
      </trkpt>
      <trkpt lat="46.26412" lon="6.81201">
        <ele>1786.2</ele>
        <time>2022-03-06T10:40:32Z</time>
      </trkpt>
      <trkpt lat="46.26412" lon="6.812">
        <ele>1786.4</ele>
        <time>2022-03-06T10:40:33Z</time>
      </trkpt>
      <trkpt lat="46.26411" lon="6.81199">
        <ele>1786.4</ele>
        <time>2022-03-06T10:40:34Z</time>
      </trkpt>
      <trkpt lat="46.26411" lon="6.81198">
        <ele>1786.4</ele>
        <time>2022-03-06T10:40:35Z</time>
      </trkpt>
      <trkpt lat="46.2641" lon="6.81198">
        <ele>1786.6</ele>
        <time>2022-03-06T10:40:36Z</time>
      </trkpt>
      <trkpt lat="46.2641" lon="6.81197">
        <ele>1786.8</ele>
        <time>2022-03-06T10:40:37Z</time>
      </trkpt>
      <trkpt lat="46.2641" lon="6.81196">
        <ele>1787</ele>
        <time>2022-03-06T10:40:38Z</time>
      </trkpt>
      <trkpt lat="46.26409" lon="6.81195">
        <ele>1787</ele>
        <time>2022-03-06T10:40:39Z</time>
      </trkpt>
      <trkpt lat="46.26409" lon="6.81194">
        <ele>1787.2</ele>
        <time>2022-03-06T10:40:40Z</time>
      </trkpt>
      <trkpt lat="46.26409" lon="6.81193">
        <ele>1787.6</ele>
        <time>2022-03-06T10:40:41Z</time>
      </trkpt>
      <trkpt lat="46.26408" lon="6.81193">
        <ele>1787.8</ele>
        <time>2022-03-06T10:40:42Z</time>
      </trkpt>
      <trkpt lat="46.26408" lon="6.81192">
        <ele>1787.8</ele>
        <time>2022-03-06T10:40:43Z</time>
      </trkpt>
      <trkpt lat="46.26408" lon="6.81191">
        <ele>1788</ele>
        <time>2022-03-06T10:40:44Z</time>
      </trkpt>
      <trkpt lat="46.26409" lon="6.8119">
        <ele>1788.2</ele>
        <time>2022-03-06T10:40:45Z</time>
      </trkpt>
      <trkpt lat="46.26409" lon="6.81189">
        <ele>1788.4</ele>
        <time>2022-03-06T10:40:46Z</time>
      </trkpt>
      <trkpt lat="46.26409" lon="6.81188">
        <ele>1788.6</ele>
        <time>2022-03-06T10:40:47Z</time>
      </trkpt>
      <trkpt lat="46.26409" lon="6.81187">
        <ele>1788.6</ele>
        <time>2022-03-06T10:40:48Z</time>
      </trkpt>
      <trkpt lat="46.26409" lon="6.81186">
        <ele>1788.8</ele>
        <time>2022-03-06T10:40:49Z</time>
      </trkpt>
      <trkpt lat="46.26409" lon="6.81185">
        <ele>1789</ele>
        <time>2022-03-06T10:40:50Z</time>
      </trkpt>
      <trkpt lat="46.26409" lon="6.81184">
        <ele>1789</ele>
        <time>2022-03-06T10:40:51Z</time>
      </trkpt>
      <trkpt lat="46.26409" lon="6.81183">
        <ele>1789.4</ele>
        <time>2022-03-06T10:40:52Z</time>
      </trkpt>
      <trkpt lat="46.2641" lon="6.81181">
        <ele>1789.6</ele>
        <time>2022-03-06T10:40:53Z</time>
      </trkpt>
      <trkpt lat="46.2641" lon="6.81181">
        <ele>1789.8</ele>
        <time>2022-03-06T10:40:54Z</time>
      </trkpt>
      <trkpt lat="46.2641" lon="6.81179">
        <ele>1789.8</ele>
        <time>2022-03-06T10:40:55Z</time>
      </trkpt>
      <trkpt lat="46.2641" lon="6.81178">
        <ele>1789.8</ele>
        <time>2022-03-06T10:40:56Z</time>
      </trkpt>
      <trkpt lat="46.2641" lon="6.81178">
        <ele>1789.8</ele>
        <time>2022-03-06T10:40:57Z</time>
      </trkpt>
      <trkpt lat="46.2641" lon="6.81178">
        <ele>1790</ele>
        <time>2022-03-06T10:40:58Z</time>
      </trkpt>
      <trkpt lat="46.2641" lon="6.81177">
        <ele>1790.2</ele>
        <time>2022-03-06T10:40:59Z</time>
      </trkpt>
      <trkpt lat="46.2641" lon="6.81177">
        <ele>1790.2</ele>
        <time>2022-03-06T10:41:00Z</time>
      </trkpt>
      <trkpt lat="46.26409" lon="6.81177">
        <ele>1790.4</ele>
        <time>2022-03-06T10:41:01Z</time>
      </trkpt>
      <trkpt lat="46.26409" lon="6.81177">
        <ele>1790.6</ele>
        <time>2022-03-06T10:41:02Z</time>
      </trkpt>
      <trkpt lat="46.26409" lon="6.81176">
        <ele>1790.8</ele>
        <time>2022-03-06T10:41:03Z</time>
      </trkpt>
      <trkpt lat="46.26409" lon="6.81176">
        <ele>1791</ele>
        <time>2022-03-06T10:41:04Z</time>
      </trkpt>
      <trkpt lat="46.26408" lon="6.81175">
        <ele>1791.2</ele>
        <time>2022-03-06T10:41:05Z</time>
      </trkpt>
      <trkpt lat="46.26406" lon="6.81175">
        <ele>1792.6</ele>
        <time>2022-03-06T10:41:11Z</time>
      </trkpt>
      <trkpt lat="46.26405" lon="6.81173">
        <ele>1793.2</ele>
        <time>2022-03-06T10:41:16Z</time>
      </trkpt>
      <trkpt lat="46.26404" lon="6.81172">
        <ele>1794</ele>
        <time>2022-03-06T10:41:19Z</time>
      </trkpt>
      <trkpt lat="46.264" lon="6.8117">
        <ele>1794.4</ele>
        <time>2022-03-06T10:41:22Z</time>
      </trkpt>
      <trkpt lat="46.26399" lon="6.81169">
        <ele>1794.4</ele>
        <time>2022-03-06T10:41:23Z</time>
      </trkpt>
      <trkpt lat="46.26398" lon="6.81168">
        <ele>1794.6</ele>
        <time>2022-03-06T10:41:24Z</time>
      </trkpt>
      <trkpt lat="46.26398" lon="6.81166">
        <ele>1794.8</ele>
        <time>2022-03-06T10:41:25Z</time>
      </trkpt>
      <trkpt lat="46.26397" lon="6.81164">
        <ele>1795</ele>
        <time>2022-03-06T10:41:26Z</time>
      </trkpt>
      <trkpt lat="46.26396" lon="6.81163">
        <ele>1795.4</ele>
        <time>2022-03-06T10:41:27Z</time>
      </trkpt>
      <trkpt lat="46.26395" lon="6.81163">
        <ele>1795.4</ele>
        <time>2022-03-06T10:41:28Z</time>
      </trkpt>
      <trkpt lat="46.26393" lon="6.81162">
        <ele>1795.8</ele>
        <time>2022-03-06T10:41:29Z</time>
      </trkpt>
      <trkpt lat="46.26392" lon="6.81161">
        <ele>1795.6</ele>
        <time>2022-03-06T10:41:30Z</time>
      </trkpt>
      <trkpt lat="46.26392" lon="6.81159">
        <ele>1796</ele>
        <time>2022-03-06T10:41:31Z</time>
      </trkpt>
      <trkpt lat="46.26391" lon="6.81158">
        <ele>1796</ele>
        <time>2022-03-06T10:41:32Z</time>
      </trkpt>
      <trkpt lat="46.26391" lon="6.81156">
        <ele>1796</ele>
        <time>2022-03-06T10:41:33Z</time>
      </trkpt>
      <trkpt lat="46.2639" lon="6.81155">
        <ele>1796.4</ele>
        <time>2022-03-06T10:41:34Z</time>
      </trkpt>
      <trkpt lat="46.2639" lon="6.81153">
        <ele>1796.4</ele>
        <time>2022-03-06T10:41:35Z</time>
      </trkpt>
      <trkpt lat="46.2639" lon="6.81153">
        <ele>1796.6</ele>
        <time>2022-03-06T10:41:36Z</time>
      </trkpt>
      <trkpt lat="46.2639" lon="6.81152">
        <ele>1796.6</ele>
        <time>2022-03-06T10:41:37Z</time>
      </trkpt>
      <trkpt lat="46.2639" lon="6.81151">
        <ele>1796.8</ele>
        <time>2022-03-06T10:41:38Z</time>
      </trkpt>
      <trkpt lat="46.2639" lon="6.8115">
        <ele>1797</ele>
        <time>2022-03-06T10:41:39Z</time>
      </trkpt>
      <trkpt lat="46.2639" lon="6.81149">
        <ele>1797</ele>
        <time>2022-03-06T10:41:40Z</time>
      </trkpt>
      <trkpt lat="46.2639" lon="6.81148">
        <ele>1797</ele>
        <time>2022-03-06T10:41:41Z</time>
      </trkpt>
      <trkpt lat="46.2639" lon="6.81147">
        <ele>1797</ele>
        <time>2022-03-06T10:41:42Z</time>
      </trkpt>
      <trkpt lat="46.2639" lon="6.81146">
        <ele>1797.4</ele>
        <time>2022-03-06T10:41:43Z</time>
      </trkpt>
      <trkpt lat="46.26391" lon="6.81145">
        <ele>1797.2</ele>
        <time>2022-03-06T10:41:44Z</time>
      </trkpt>
      <trkpt lat="46.26391" lon="6.81144">
        <ele>1797.6</ele>
        <time>2022-03-06T10:41:45Z</time>
      </trkpt>
      <trkpt lat="46.26392" lon="6.81143">
        <ele>1797.8</ele>
        <time>2022-03-06T10:41:46Z</time>
      </trkpt>
      <trkpt lat="46.26392" lon="6.81143">
        <ele>1797.8</ele>
        <time>2022-03-06T10:41:47Z</time>
      </trkpt>
      <trkpt lat="46.26392" lon="6.81142">
        <ele>1798</ele>
        <time>2022-03-06T10:41:48Z</time>
      </trkpt>
      <trkpt lat="46.26393" lon="6.81141">
        <ele>1798.2</ele>
        <time>2022-03-06T10:41:49Z</time>
      </trkpt>
      <trkpt lat="46.26392" lon="6.8114">
        <ele>1798.2</ele>
        <time>2022-03-06T10:41:50Z</time>
      </trkpt>
      <trkpt lat="46.26392" lon="6.81138">
        <ele>1798.4</ele>
        <time>2022-03-06T10:41:51Z</time>
      </trkpt>
      <trkpt lat="46.26392" lon="6.81137">
        <ele>1798.8</ele>
        <time>2022-03-06T10:41:52Z</time>
      </trkpt>
      <trkpt lat="46.26393" lon="6.81135">
        <ele>1799.6</ele>
        <time>2022-03-06T10:41:59Z</time>
      </trkpt>
      <trkpt lat="46.26396" lon="6.81134">
        <ele>1800</ele>
        <time>2022-03-06T10:42:02Z</time>
      </trkpt>
      <trkpt lat="46.26397" lon="6.81134">
        <ele>1800.2</ele>
        <time>2022-03-06T10:42:03Z</time>
      </trkpt>
      <trkpt lat="46.26399" lon="6.81133">
        <ele>1800.2</ele>
        <time>2022-03-06T10:42:04Z</time>
      </trkpt>
      <trkpt lat="46.264" lon="6.81133">
        <ele>1800.4</ele>
        <time>2022-03-06T10:42:05Z</time>
      </trkpt>
      <trkpt lat="46.26401" lon="6.81133">
        <ele>1800.6</ele>
        <time>2022-03-06T10:42:06Z</time>
      </trkpt>
      <trkpt lat="46.26402" lon="6.81133">
        <ele>1800.6</ele>
        <time>2022-03-06T10:42:07Z</time>
      </trkpt>
      <trkpt lat="46.26403" lon="6.81133">
        <ele>1800.6</ele>
        <time>2022-03-06T10:42:08Z</time>
      </trkpt>
      <trkpt lat="46.26403" lon="6.81132">
        <ele>1800.8</ele>
        <time>2022-03-06T10:42:09Z</time>
      </trkpt>
      <trkpt lat="46.26404" lon="6.81132">
        <ele>1800.8</ele>
        <time>2022-03-06T10:42:10Z</time>
      </trkpt>
      <trkpt lat="46.26405" lon="6.81132">
        <ele>1801</ele>
        <time>2022-03-06T10:42:11Z</time>
      </trkpt>
      <trkpt lat="46.26406" lon="6.81131">
        <ele>1801</ele>
        <time>2022-03-06T10:42:12Z</time>
      </trkpt>
      <trkpt lat="46.26406" lon="6.8113">
        <ele>1801.2</ele>
        <time>2022-03-06T10:42:13Z</time>
      </trkpt>
      <trkpt lat="46.26407" lon="6.8113">
        <ele>1801.2</ele>
        <time>2022-03-06T10:42:14Z</time>
      </trkpt>
      <trkpt lat="46.26408" lon="6.8113">
        <ele>1801.6</ele>
        <time>2022-03-06T10:42:15Z</time>
      </trkpt>
      <trkpt lat="46.26408" lon="6.8113">
        <ele>1801.6</ele>
        <time>2022-03-06T10:42:16Z</time>
      </trkpt>
      <trkpt lat="46.26411" lon="6.8113">
        <ele>1802</ele>
        <time>2022-03-06T10:42:17Z</time>
      </trkpt>
      <trkpt lat="46.26412" lon="6.8113">
        <ele>1802.2</ele>
        <time>2022-03-06T10:42:18Z</time>
      </trkpt>
      <trkpt lat="46.26412" lon="6.8113">
        <ele>1802.2</ele>
        <time>2022-03-06T10:42:19Z</time>
      </trkpt>
      <trkpt lat="46.26414" lon="6.81131">
        <ele>1802.4</ele>
        <time>2022-03-06T10:42:20Z</time>
      </trkpt>
      <trkpt lat="46.26416" lon="6.81131">
        <ele>1802.4</ele>
        <time>2022-03-06T10:42:21Z</time>
      </trkpt>
      <trkpt lat="46.26417" lon="6.81131">
        <ele>1802.6</ele>
        <time>2022-03-06T10:42:22Z</time>
      </trkpt>
      <trkpt lat="46.26418" lon="6.81131">
        <ele>1802.8</ele>
        <time>2022-03-06T10:42:23Z</time>
      </trkpt>
      <trkpt lat="46.26419" lon="6.81132">
        <ele>1803</ele>
        <time>2022-03-06T10:42:24Z</time>
      </trkpt>
      <trkpt lat="46.26419" lon="6.81134">
        <ele>1803</ele>
        <time>2022-03-06T10:42:25Z</time>
      </trkpt>
      <trkpt lat="46.26419" lon="6.81135">
        <ele>1803</ele>
        <time>2022-03-06T10:42:26Z</time>
      </trkpt>
      <trkpt lat="46.26419" lon="6.81137">
        <ele>1803.2</ele>
        <time>2022-03-06T10:42:27Z</time>
      </trkpt>
      <trkpt lat="46.2642" lon="6.81137">
        <ele>1803.2</ele>
        <time>2022-03-06T10:42:28Z</time>
      </trkpt>
      <trkpt lat="46.2642" lon="6.81138">
        <ele>1803.4</ele>
        <time>2022-03-06T10:42:29Z</time>
      </trkpt>
      <trkpt lat="46.2642" lon="6.81138">
        <ele>1803.8</ele>
        <time>2022-03-06T10:42:30Z</time>
      </trkpt>
      <trkpt lat="46.26421" lon="6.81139">
        <ele>1803.8</ele>
        <time>2022-03-06T10:42:31Z</time>
      </trkpt>
      <trkpt lat="46.26422" lon="6.81139">
        <ele>1804</ele>
        <time>2022-03-06T10:42:32Z</time>
      </trkpt>
      <trkpt lat="46.26422" lon="6.8114">
        <ele>1804</ele>
        <time>2022-03-06T10:42:33Z</time>
      </trkpt>
      <trkpt lat="46.26423" lon="6.8114">
        <ele>1804.4</ele>
        <time>2022-03-06T10:42:34Z</time>
      </trkpt>
      <trkpt lat="46.26423" lon="6.81141">
        <ele>1804.6</ele>
        <time>2022-03-06T10:42:35Z</time>
      </trkpt>
      <trkpt lat="46.26424" lon="6.81141">
        <ele>1804.8</ele>
        <time>2022-03-06T10:42:36Z</time>
      </trkpt>
      <trkpt lat="46.26424" lon="6.81141">
        <ele>1805.2</ele>
        <time>2022-03-06T10:42:37Z</time>
      </trkpt>
      <trkpt lat="46.26425" lon="6.81141">
        <ele>1805.4</ele>
        <time>2022-03-06T10:42:38Z</time>
      </trkpt>
      <trkpt lat="46.26426" lon="6.81141">
        <ele>1805.4</ele>
        <time>2022-03-06T10:42:39Z</time>
      </trkpt>
      <trkpt lat="46.26426" lon="6.81141">
        <ele>1805.6</ele>
        <time>2022-03-06T10:42:40Z</time>
      </trkpt>
      <trkpt lat="46.26426" lon="6.81142">
        <ele>1805.8</ele>
        <time>2022-03-06T10:42:41Z</time>
      </trkpt>
      <trkpt lat="46.26427" lon="6.81142">
        <ele>1806</ele>
        <time>2022-03-06T10:42:42Z</time>
      </trkpt>
      <trkpt lat="46.26428" lon="6.81142">
        <ele>1806</ele>
        <time>2022-03-06T10:42:43Z</time>
      </trkpt>
      <trkpt lat="46.26428" lon="6.81141">
        <ele>1806</ele>
        <time>2022-03-06T10:42:44Z</time>
      </trkpt>
      <trkpt lat="46.26429" lon="6.81141">
        <ele>1806.2</ele>
        <time>2022-03-06T10:42:45Z</time>
      </trkpt>
      <trkpt lat="46.26429" lon="6.81141">
        <ele>1806.4</ele>
        <time>2022-03-06T10:42:46Z</time>
      </trkpt>
      <trkpt lat="46.2643" lon="6.81142">
        <ele>1806.4</ele>
        <time>2022-03-06T10:42:47Z</time>
      </trkpt>
      <trkpt lat="46.26431" lon="6.81142">
        <ele>1806.4</ele>
        <time>2022-03-06T10:42:48Z</time>
      </trkpt>
      <trkpt lat="46.26432" lon="6.81142">
        <ele>1806.8</ele>
        <time>2022-03-06T10:42:49Z</time>
      </trkpt>
      <trkpt lat="46.26434" lon="6.81142">
        <ele>1807</ele>
        <time>2022-03-06T10:42:50Z</time>
      </trkpt>
      <trkpt lat="46.26435" lon="6.81142">
        <ele>1807</ele>
        <time>2022-03-06T10:42:51Z</time>
      </trkpt>
      <trkpt lat="46.26436" lon="6.81142">
        <ele>1807.2</ele>
        <time>2022-03-06T10:42:52Z</time>
      </trkpt>
      <trkpt lat="46.26437" lon="6.81141">
        <ele>1807.4</ele>
        <time>2022-03-06T10:42:53Z</time>
      </trkpt>
      <trkpt lat="46.26437" lon="6.81141">
        <ele>1807.4</ele>
        <time>2022-03-06T10:42:54Z</time>
      </trkpt>
      <trkpt lat="46.26438" lon="6.81141">
        <ele>1807.6</ele>
        <time>2022-03-06T10:42:55Z</time>
      </trkpt>
      <trkpt lat="46.26439" lon="6.81141">
        <ele>1807.6</ele>
        <time>2022-03-06T10:42:56Z</time>
      </trkpt>
      <trkpt lat="46.26439" lon="6.81141">
        <ele>1807.8</ele>
        <time>2022-03-06T10:42:57Z</time>
      </trkpt>
      <trkpt lat="46.2644" lon="6.8114">
        <ele>1808</ele>
        <time>2022-03-06T10:42:58Z</time>
      </trkpt>
      <trkpt lat="46.26441" lon="6.8114">
        <ele>1808</ele>
        <time>2022-03-06T10:42:59Z</time>
      </trkpt>
      <trkpt lat="46.26441" lon="6.81139">
        <ele>1808</ele>
        <time>2022-03-06T10:43:00Z</time>
      </trkpt>
      <trkpt lat="46.26442" lon="6.81138">
        <ele>1808.4</ele>
        <time>2022-03-06T10:43:01Z</time>
      </trkpt>
      <trkpt lat="46.26443" lon="6.81138">
        <ele>1808.4</ele>
        <time>2022-03-06T10:43:02Z</time>
      </trkpt>
      <trkpt lat="46.26444" lon="6.81137">
        <ele>1808.6</ele>
        <time>2022-03-06T10:43:03Z</time>
      </trkpt>
      <trkpt lat="46.26445" lon="6.81137">
        <ele>1808.4</ele>
        <time>2022-03-06T10:43:04Z</time>
      </trkpt>
      <trkpt lat="46.26446" lon="6.81137">
        <ele>1808.6</ele>
        <time>2022-03-06T10:43:05Z</time>
      </trkpt>
      <trkpt lat="46.26447" lon="6.81137">
        <ele>1808.6</ele>
        <time>2022-03-06T10:43:06Z</time>
      </trkpt>
      <trkpt lat="46.26447" lon="6.81137">
        <ele>1808.8</ele>
        <time>2022-03-06T10:43:07Z</time>
      </trkpt>
      <trkpt lat="46.26448" lon="6.81137">
        <ele>1809</ele>
        <time>2022-03-06T10:43:08Z</time>
      </trkpt>
      <trkpt lat="46.26449" lon="6.81137">
        <ele>1809</ele>
        <time>2022-03-06T10:43:09Z</time>
      </trkpt>
      <trkpt lat="46.26449" lon="6.81137">
        <ele>1809.2</ele>
        <time>2022-03-06T10:43:10Z</time>
      </trkpt>
      <trkpt lat="46.2645" lon="6.81137">
        <ele>1809.2</ele>
        <time>2022-03-06T10:43:11Z</time>
      </trkpt>
      <trkpt lat="46.26451" lon="6.81137">
        <ele>1809.4</ele>
        <time>2022-03-06T10:43:12Z</time>
      </trkpt>
      <trkpt lat="46.26451" lon="6.81137">
        <ele>1809.6</ele>
        <time>2022-03-06T10:43:13Z</time>
      </trkpt>
      <trkpt lat="46.26452" lon="6.81136">
        <ele>1809.8</ele>
        <time>2022-03-06T10:43:14Z</time>
      </trkpt>
      <trkpt lat="46.26453" lon="6.81135">
        <ele>1809.8</ele>
        <time>2022-03-06T10:43:15Z</time>
      </trkpt>
      <trkpt lat="46.26453" lon="6.81135">
        <ele>1810</ele>
        <time>2022-03-06T10:43:16Z</time>
      </trkpt>
      <trkpt lat="46.26453" lon="6.81135">
        <ele>1810.4</ele>
        <time>2022-03-06T10:43:17Z</time>
      </trkpt>
      <trkpt lat="46.26452" lon="6.81134">
        <ele>1810.4</ele>
        <time>2022-03-06T10:43:18Z</time>
      </trkpt>
      <trkpt lat="46.26452" lon="6.81134">
        <ele>1810.6</ele>
        <time>2022-03-06T10:43:19Z</time>
      </trkpt>
      <trkpt lat="46.26452" lon="6.81134">
        <ele>1810.8</ele>
        <time>2022-03-06T10:43:20Z</time>
      </trkpt>
      <trkpt lat="46.26452" lon="6.81133">
        <ele>1811.2</ele>
        <time>2022-03-06T10:43:21Z</time>
      </trkpt>
      <trkpt lat="46.26452" lon="6.81133">
        <ele>1811.2</ele>
        <time>2022-03-06T10:43:22Z</time>
      </trkpt>
      <trkpt lat="46.26452" lon="6.81132">
        <ele>1811.4</ele>
        <time>2022-03-06T10:43:23Z</time>
      </trkpt>
      <trkpt lat="46.26452" lon="6.81132">
        <ele>1811.6</ele>
        <time>2022-03-06T10:43:24Z</time>
      </trkpt>
      <trkpt lat="46.26452" lon="6.81131">
        <ele>1811.8</ele>
        <time>2022-03-06T10:43:25Z</time>
      </trkpt>
      <trkpt lat="46.26452" lon="6.8113">
        <ele>1811.8</ele>
        <time>2022-03-06T10:43:26Z</time>
      </trkpt>
      <trkpt lat="46.26452" lon="6.8113">
        <ele>1812.2</ele>
        <time>2022-03-06T10:43:27Z</time>
      </trkpt>
      <trkpt lat="46.26453" lon="6.81128">
        <ele>1812.2</ele>
        <time>2022-03-06T10:43:28Z</time>
      </trkpt>
      <trkpt lat="46.26453" lon="6.81128">
        <ele>1812.4</ele>
        <time>2022-03-06T10:43:29Z</time>
      </trkpt>
      <trkpt lat="46.26454" lon="6.81127">
        <ele>1812.6</ele>
        <time>2022-03-06T10:43:30Z</time>
      </trkpt>
      <trkpt lat="46.26454" lon="6.81126">
        <ele>1812.8</ele>
        <time>2022-03-06T10:43:31Z</time>
      </trkpt>
      <trkpt lat="46.26454" lon="6.81126">
        <ele>1812.8</ele>
        <time>2022-03-06T10:43:32Z</time>
      </trkpt>
      <trkpt lat="46.26455" lon="6.81125">
        <ele>1812.8</ele>
        <time>2022-03-06T10:43:33Z</time>
      </trkpt>
      <trkpt lat="46.26455" lon="6.81125">
        <ele>1813.2</ele>
        <time>2022-03-06T10:43:34Z</time>
      </trkpt>
      <trkpt lat="46.26454" lon="6.81124">
        <ele>1813.2</ele>
        <time>2022-03-06T10:43:35Z</time>
      </trkpt>
      <trkpt lat="46.26454" lon="6.81123">
        <ele>1813.2</ele>
        <time>2022-03-06T10:43:36Z</time>
      </trkpt>
      <trkpt lat="46.26454" lon="6.81122">
        <ele>1813.4</ele>
        <time>2022-03-06T10:43:37Z</time>
      </trkpt>
      <trkpt lat="46.26454" lon="6.8112">
        <ele>1813.6</ele>
        <time>2022-03-06T10:43:38Z</time>
      </trkpt>
      <trkpt lat="46.26454" lon="6.81119">
        <ele>1813.8</ele>
        <time>2022-03-06T10:43:39Z</time>
      </trkpt>
      <trkpt lat="46.26453" lon="6.81118">
        <ele>1813.8</ele>
        <time>2022-03-06T10:43:40Z</time>
      </trkpt>
      <trkpt lat="46.26453" lon="6.81116">
        <ele>1814</ele>
        <time>2022-03-06T10:43:41Z</time>
      </trkpt>
      <trkpt lat="46.26453" lon="6.81115">
        <ele>1814</ele>
        <time>2022-03-06T10:43:42Z</time>
      </trkpt>
      <trkpt lat="46.26453" lon="6.81113">
        <ele>1814.4</ele>
        <time>2022-03-06T10:43:43Z</time>
      </trkpt>
      <trkpt lat="46.26452" lon="6.81112">
        <ele>1814.4</ele>
        <time>2022-03-06T10:43:44Z</time>
      </trkpt>
      <trkpt lat="46.26452" lon="6.81111">
        <ele>1814.6</ele>
        <time>2022-03-06T10:43:45Z</time>
      </trkpt>
      <trkpt lat="46.26453" lon="6.8111">
        <ele>1814.8</ele>
        <time>2022-03-06T10:43:46Z</time>
      </trkpt>
      <trkpt lat="46.26452" lon="6.81109">
        <ele>1814.8</ele>
        <time>2022-03-06T10:43:47Z</time>
      </trkpt>
      <trkpt lat="46.26452" lon="6.81108">
        <ele>1815</ele>
        <time>2022-03-06T10:43:48Z</time>
      </trkpt>
      <trkpt lat="46.26452" lon="6.81107">
        <ele>1815.2</ele>
        <time>2022-03-06T10:43:49Z</time>
      </trkpt>
      <trkpt lat="46.26452" lon="6.81106">
        <ele>1815.4</ele>
        <time>2022-03-06T10:43:50Z</time>
      </trkpt>
      <trkpt lat="46.26452" lon="6.81105">
        <ele>1815.6</ele>
        <time>2022-03-06T10:43:51Z</time>
      </trkpt>
      <trkpt lat="46.26451" lon="6.81105">
        <ele>1815.8</ele>
        <time>2022-03-06T10:43:52Z</time>
      </trkpt>
      <trkpt lat="46.26451" lon="6.81104">
        <ele>1815.8</ele>
        <time>2022-03-06T10:43:53Z</time>
      </trkpt>
      <trkpt lat="46.26451" lon="6.81104">
        <ele>1816</ele>
        <time>2022-03-06T10:43:54Z</time>
      </trkpt>
      <trkpt lat="46.26448" lon="6.81101">
        <ele>1816.2</ele>
        <time>2022-03-06T10:44:05Z</time>
      </trkpt>
      <trkpt lat="46.26448" lon="6.811">
        <ele>1816.4</ele>
        <time>2022-03-06T10:44:18Z</time>
      </trkpt>
      <trkpt lat="46.26448" lon="6.811">
        <ele>1816.2</ele>
        <time>2022-03-06T10:44:27Z</time>
      </trkpt>
      <trkpt lat="46.26449" lon="6.811">
        <ele>1816.2</ele>
        <time>2022-03-06T10:44:38Z</time>
      </trkpt>
      <trkpt lat="46.26449" lon="6.811">
        <ele>1816.2</ele>
        <time>2022-03-06T10:44:51Z</time>
      </trkpt>
      <trkpt lat="46.26449" lon="6.811">
        <ele>1816</ele>
        <time>2022-03-06T10:45:01Z</time>
      </trkpt>
      <trkpt lat="46.2645" lon="6.811">
        <ele>1816</ele>
        <time>2022-03-06T10:45:15Z</time>
      </trkpt>
      <trkpt lat="46.2645" lon="6.811">
        <ele>1816.2</ele>
        <time>2022-03-06T10:45:28Z</time>
      </trkpt>
      <trkpt lat="46.26451" lon="6.811">
        <ele>1816</ele>
        <time>2022-03-06T10:45:38Z</time>
      </trkpt>
      <trkpt lat="46.26451" lon="6.81098">
        <ele>1816.2</ele>
        <time>2022-03-06T10:45:52Z</time>
      </trkpt>
      <trkpt lat="46.26451" lon="6.81097">
        <ele>1816.2</ele>
        <time>2022-03-06T10:46:05Z</time>
      </trkpt>
      <trkpt lat="46.26452" lon="6.81097">
        <ele>1816.2</ele>
        <time>2022-03-06T10:46:06Z</time>
      </trkpt>
      <trkpt lat="46.26452" lon="6.81096">
        <ele>1816</ele>
        <time>2022-03-06T10:46:07Z</time>
      </trkpt>
      <trkpt lat="46.26453" lon="6.81097">
        <ele>1816.2</ele>
        <time>2022-03-06T10:46:16Z</time>
      </trkpt>
      <trkpt lat="46.26453" lon="6.81097">
        <ele>1816.2</ele>
        <time>2022-03-06T10:46:31Z</time>
      </trkpt>
      <trkpt lat="46.26452" lon="6.81098">
        <ele>1816.2</ele>
        <time>2022-03-06T10:46:43Z</time>
      </trkpt>
      <trkpt lat="46.26453" lon="6.81102">
        <ele>1816</ele>
        <time>2022-03-06T10:46:54Z</time>
      </trkpt>
      <trkpt lat="46.26453" lon="6.81102">
        <ele>1816.2</ele>
        <time>2022-03-06T10:47:07Z</time>
      </trkpt>
      <trkpt lat="46.26452" lon="6.81102">
        <ele>1816</ele>
        <time>2022-03-06T10:47:19Z</time>
      </trkpt>
      <trkpt lat="46.26452" lon="6.81101">
        <ele>1816</ele>
        <time>2022-03-06T10:47:34Z</time>
      </trkpt>
      <trkpt lat="46.26452" lon="6.81102">
        <ele>1816</ele>
        <time>2022-03-06T10:47:45Z</time>
      </trkpt>
      <trkpt lat="46.26452" lon="6.81101">
        <ele>1816.2</ele>
        <time>2022-03-06T10:47:57Z</time>
      </trkpt>
      <trkpt lat="46.26453" lon="6.81103">
        <ele>1816.2</ele>
        <time>2022-03-06T10:48:08Z</time>
      </trkpt>
      <trkpt lat="46.26453" lon="6.81103">
        <ele>1816</ele>
        <time>2022-03-06T10:48:22Z</time>
      </trkpt>
      <trkpt lat="46.26456" lon="6.81101">
        <ele>1816</ele>
        <time>2022-03-06T10:48:34Z</time>
      </trkpt>
      <trkpt lat="46.26456" lon="6.81101">
        <ele>1815.8</ele>
        <time>2022-03-06T10:48:35Z</time>
      </trkpt>
      <trkpt lat="46.26457" lon="6.811">
        <ele>1815.8</ele>
        <time>2022-03-06T10:48:36Z</time>
      </trkpt>
      <trkpt lat="46.26458" lon="6.811">
        <ele>1815.8</ele>
        <time>2022-03-06T10:48:37Z</time>
      </trkpt>
      <trkpt lat="46.26458" lon="6.81099">
        <ele>1815.8</ele>
        <time>2022-03-06T10:48:38Z</time>
      </trkpt>
      <trkpt lat="46.2646" lon="6.81097">
        <ele>1815.8</ele>
        <time>2022-03-06T10:48:42Z</time>
      </trkpt>
      <trkpt lat="46.26461" lon="6.81096">
        <ele>1815.6</ele>
        <time>2022-03-06T10:48:44Z</time>
      </trkpt>
      <trkpt lat="46.26461" lon="6.81096">
        <ele>1815.6</ele>
        <time>2022-03-06T10:48:45Z</time>
      </trkpt>
      <trkpt lat="46.26461" lon="6.81096">
        <ele>1815.4</ele>
        <time>2022-03-06T10:48:49Z</time>
      </trkpt>
      <trkpt lat="46.26461" lon="6.81096">
        <ele>1814.4</ele>
        <time>2022-03-06T10:49:06Z</time>
      </trkpt>
      <trkpt lat="46.2646" lon="6.81093">
        <ele>1814.4</ele>
        <time>2022-03-06T10:49:10Z</time>
      </trkpt>
      <trkpt lat="46.26462" lon="6.81091">
        <ele>1814.2</ele>
        <time>2022-03-06T10:49:15Z</time>
      </trkpt>
      <trkpt lat="46.26462" lon="6.8109">
        <ele>1814.2</ele>
        <time>2022-03-06T10:49:16Z</time>
      </trkpt>
      <trkpt lat="46.26463" lon="6.81087">
        <ele>1813.6</ele>
        <time>2022-03-06T10:49:19Z</time>
      </trkpt>
      <trkpt lat="46.26463" lon="6.81086">
        <ele>1813.4</ele>
        <time>2022-03-06T10:49:20Z</time>
      </trkpt>
      <trkpt lat="46.26463" lon="6.81084">
        <ele>1813.2</ele>
        <time>2022-03-06T10:49:21Z</time>
      </trkpt>
      <trkpt lat="46.26463" lon="6.81082">
        <ele>1813.2</ele>
        <time>2022-03-06T10:49:22Z</time>
      </trkpt>
      <trkpt lat="46.26462" lon="6.81081">
        <ele>1813</ele>
        <time>2022-03-06T10:49:23Z</time>
      </trkpt>
      <trkpt lat="46.26463" lon="6.8108">
        <ele>1812.6</ele>
        <time>2022-03-06T10:49:24Z</time>
      </trkpt>
      <trkpt lat="46.26463" lon="6.81078">
        <ele>1812.2</ele>
        <time>2022-03-06T10:49:26Z</time>
      </trkpt>
      <trkpt lat="46.26463" lon="6.81077">
        <ele>1812.4</ele>
        <time>2022-03-06T10:49:27Z</time>
      </trkpt>
      <trkpt lat="46.26463" lon="6.81077">
        <ele>1812</ele>
        <time>2022-03-06T10:49:28Z</time>
      </trkpt>
      <trkpt lat="46.26463" lon="6.81077">
        <ele>1811.8</ele>
        <time>2022-03-06T10:49:29Z</time>
      </trkpt>
      <trkpt lat="46.26463" lon="6.81076">
        <ele>1811.8</ele>
        <time>2022-03-06T10:49:30Z</time>
      </trkpt>
      <trkpt lat="46.26463" lon="6.81075">
        <ele>1811.6</ele>
        <time>2022-03-06T10:49:31Z</time>
      </trkpt>
      <trkpt lat="46.26463" lon="6.81074">
        <ele>1811.4</ele>
        <time>2022-03-06T10:49:32Z</time>
      </trkpt>
      <trkpt lat="46.26464" lon="6.81073">
        <ele>1811.2</ele>
        <time>2022-03-06T10:49:33Z</time>
      </trkpt>
      <trkpt lat="46.26464" lon="6.8107">
        <ele>1810</ele>
        <time>2022-03-06T10:49:37Z</time>
      </trkpt>
      <trkpt lat="46.26465" lon="6.81069">
        <ele>1810</ele>
        <time>2022-03-06T10:49:38Z</time>
      </trkpt>
      <trkpt lat="46.26465" lon="6.81068">
        <ele>1809.8</ele>
        <time>2022-03-06T10:49:39Z</time>
      </trkpt>
      <trkpt lat="46.26466" lon="6.81063">
        <ele>1808.6</ele>
        <time>2022-03-06T10:49:44Z</time>
      </trkpt>
      <trkpt lat="46.26467" lon="6.8106">
        <ele>1808</ele>
        <time>2022-03-06T10:49:47Z</time>
      </trkpt>
      <trkpt lat="46.26467" lon="6.8106">
        <ele>1808</ele>
        <time>2022-03-06T10:49:48Z</time>
      </trkpt>
      <trkpt lat="46.26467" lon="6.81058">
        <ele>1807.8</ele>
        <time>2022-03-06T10:49:49Z</time>
      </trkpt>
      <trkpt lat="46.26467" lon="6.81056">
        <ele>1807.6</ele>
        <time>2022-03-06T10:49:50Z</time>
      </trkpt>
      <trkpt lat="46.26467" lon="6.81055">
        <ele>1807.4</ele>
        <time>2022-03-06T10:49:51Z</time>
      </trkpt>
      <trkpt lat="46.26468" lon="6.81055">
        <ele>1807.4</ele>
        <time>2022-03-06T10:49:52Z</time>
      </trkpt>
      <trkpt lat="46.26468" lon="6.81054">
        <ele>1807.2</ele>
        <time>2022-03-06T10:49:53Z</time>
      </trkpt>
      <trkpt lat="46.26468" lon="6.81053">
        <ele>1807.2</ele>
        <time>2022-03-06T10:49:54Z</time>
      </trkpt>
      <trkpt lat="46.26468" lon="6.81052">
        <ele>1806.8</ele>
        <time>2022-03-06T10:49:55Z</time>
      </trkpt>
      <trkpt lat="46.26469" lon="6.81051">
        <ele>1806.8</ele>
        <time>2022-03-06T10:49:56Z</time>
      </trkpt>
      <trkpt lat="46.26469" lon="6.81048">
        <ele>1806.4</ele>
        <time>2022-03-06T10:49:58Z</time>
      </trkpt>
      <trkpt lat="46.26469" lon="6.81047">
        <ele>1806.4</ele>
        <time>2022-03-06T10:49:59Z</time>
      </trkpt>
      <trkpt lat="46.26469" lon="6.81044">
        <ele>1806.4</ele>
        <time>2022-03-06T10:50:01Z</time>
      </trkpt>
      <trkpt lat="46.2647" lon="6.81041">
        <ele>1806.4</ele>
        <time>2022-03-06T10:50:02Z</time>
      </trkpt>
      <trkpt lat="46.26471" lon="6.81034">
        <ele>1806</ele>
        <time>2022-03-06T10:50:06Z</time>
      </trkpt>
      <trkpt lat="46.26471" lon="6.81032">
        <ele>1805.8</ele>
        <time>2022-03-06T10:50:07Z</time>
      </trkpt>
      <trkpt lat="46.26471" lon="6.81031">
        <ele>1805.4</ele>
        <time>2022-03-06T10:50:08Z</time>
      </trkpt>
      <trkpt lat="46.26472" lon="6.81029">
        <ele>1805.4</ele>
        <time>2022-03-06T10:50:09Z</time>
      </trkpt>
      <trkpt lat="46.26472" lon="6.81027">
        <ele>1805</ele>
        <time>2022-03-06T10:50:10Z</time>
      </trkpt>
      <trkpt lat="46.26472" lon="6.81026">
        <ele>1804.8</ele>
        <time>2022-03-06T10:50:11Z</time>
      </trkpt>
      <trkpt lat="46.26473" lon="6.81025">
        <ele>1804.6</ele>
        <time>2022-03-06T10:50:12Z</time>
      </trkpt>
      <trkpt lat="46.26473" lon="6.81025">
        <ele>1804.6</ele>
        <time>2022-03-06T10:50:13Z</time>
      </trkpt>
      <trkpt lat="46.26472" lon="6.81023">
        <ele>1803.4</ele>
        <time>2022-03-06T10:50:19Z</time>
      </trkpt>
      <trkpt lat="46.26472" lon="6.81023">
        <ele>1803.2</ele>
        <time>2022-03-06T10:50:31Z</time>
      </trkpt>
      <trkpt lat="46.26473" lon="6.81024">
        <ele>1803.2</ele>
        <time>2022-03-06T10:50:42Z</time>
      </trkpt>
      <trkpt lat="46.26473" lon="6.81025">
        <ele>1803</ele>
        <time>2022-03-06T10:50:51Z</time>
      </trkpt>
      <trkpt lat="46.26475" lon="6.81026">
        <ele>1803.2</ele>
        <time>2022-03-06T10:50:55Z</time>
      </trkpt>
      <trkpt lat="46.26479" lon="6.81027">
        <ele>1802.8</ele>
        <time>2022-03-06T10:50:59Z</time>
      </trkpt>
      <trkpt lat="46.26485" lon="6.8103">
        <ele>1801.6</ele>
        <time>2022-03-06T10:51:05Z</time>
      </trkpt>
      <trkpt lat="46.26488" lon="6.81034">
        <ele>1801.2</ele>
        <time>2022-03-06T10:51:09Z</time>
      </trkpt>
      <trkpt lat="46.26488" lon="6.81035">
        <ele>1801.2</ele>
        <time>2022-03-06T10:51:10Z</time>
      </trkpt>
      <trkpt lat="46.26489" lon="6.81036">
        <ele>1801</ele>
        <time>2022-03-06T10:51:11Z</time>
      </trkpt>
      <trkpt lat="46.2649" lon="6.81038">
        <ele>1800.8</ele>
        <time>2022-03-06T10:51:13Z</time>
      </trkpt>
      <trkpt lat="46.26492" lon="6.8104">
        <ele>1800.6</ele>
        <time>2022-03-06T10:51:15Z</time>
      </trkpt>
      <trkpt lat="46.26493" lon="6.8104">
        <ele>1800.4</ele>
        <time>2022-03-06T10:51:16Z</time>
      </trkpt>
      <trkpt lat="46.26493" lon="6.81042">
        <ele>1800</ele>
        <time>2022-03-06T10:51:17Z</time>
      </trkpt>
      <trkpt lat="46.26495" lon="6.81042">
        <ele>1800</ele>
        <time>2022-03-06T10:51:18Z</time>
      </trkpt>
      <trkpt lat="46.26497" lon="6.81042">
        <ele>1799.6</ele>
        <time>2022-03-06T10:51:19Z</time>
      </trkpt>
      <trkpt lat="46.26497" lon="6.81043">
        <ele>1799.4</ele>
        <time>2022-03-06T10:51:20Z</time>
      </trkpt>
      <trkpt lat="46.26501" lon="6.81047">
        <ele>1798.6</ele>
        <time>2022-03-06T10:51:24Z</time>
      </trkpt>
      <trkpt lat="46.26501" lon="6.81048">
        <ele>1798.6</ele>
        <time>2022-03-06T10:51:25Z</time>
      </trkpt>
      <trkpt lat="46.26502" lon="6.8105">
        <ele>1798.2</ele>
        <time>2022-03-06T10:51:26Z</time>
      </trkpt>
      <trkpt lat="46.26502" lon="6.81051">
        <ele>1798.2</ele>
        <time>2022-03-06T10:51:27Z</time>
      </trkpt>
      <trkpt lat="46.26504" lon="6.81053">
        <ele>1798</ele>
        <time>2022-03-06T10:51:29Z</time>
      </trkpt>
      <trkpt lat="46.26504" lon="6.81055">
        <ele>1797.6</ele>
        <time>2022-03-06T10:51:30Z</time>
      </trkpt>
      <trkpt lat="46.26505" lon="6.81056">
        <ele>1797.4</ele>
        <time>2022-03-06T10:51:31Z</time>
      </trkpt>
      <trkpt lat="46.26506" lon="6.81057">
        <ele>1797.4</ele>
        <time>2022-03-06T10:51:32Z</time>
      </trkpt>
      <trkpt lat="46.26506" lon="6.81058">
        <ele>1796.8</ele>
        <time>2022-03-06T10:51:33Z</time>
      </trkpt>
      <trkpt lat="46.26506" lon="6.81058">
        <ele>1796.6</ele>
        <time>2022-03-06T10:51:34Z</time>
      </trkpt>
      <trkpt lat="46.26507" lon="6.81058">
        <ele>1796.4</ele>
        <time>2022-03-06T10:51:35Z</time>
      </trkpt>
      <trkpt lat="46.26507" lon="6.81058">
        <ele>1796</ele>
        <time>2022-03-06T10:51:36Z</time>
      </trkpt>
      <trkpt lat="46.26508" lon="6.81058">
        <ele>1795.4</ele>
        <time>2022-03-06T10:51:37Z</time>
      </trkpt>
      <trkpt lat="46.26508" lon="6.81057">
        <ele>1795.2</ele>
        <time>2022-03-06T10:51:38Z</time>
      </trkpt>
      <trkpt lat="46.26509" lon="6.81057">
        <ele>1795</ele>
        <time>2022-03-06T10:51:39Z</time>
      </trkpt>
      <trkpt lat="46.26511" lon="6.81056">
        <ele>1794.4</ele>
        <time>2022-03-06T10:51:40Z</time>
      </trkpt>
      <trkpt lat="46.26512" lon="6.81055">
        <ele>1794</ele>
        <time>2022-03-06T10:51:42Z</time>
      </trkpt>
      <trkpt lat="46.26513" lon="6.81054">
        <ele>1793.8</ele>
        <time>2022-03-06T10:51:43Z</time>
      </trkpt>
      <trkpt lat="46.26514" lon="6.81053">
        <ele>1793.6</ele>
        <time>2022-03-06T10:51:45Z</time>
      </trkpt>
      <trkpt lat="46.26515" lon="6.81052">
        <ele>1793.4</ele>
        <time>2022-03-06T10:51:46Z</time>
      </trkpt>
      <trkpt lat="46.26514" lon="6.81052">
        <ele>1793</ele>
        <time>2022-03-06T10:51:47Z</time>
      </trkpt>
      <trkpt lat="46.26516" lon="6.81049">
        <ele>1792.4</ele>
        <time>2022-03-06T10:51:50Z</time>
      </trkpt>
      <trkpt lat="46.26517" lon="6.81048">
        <ele>1792.4</ele>
        <time>2022-03-06T10:51:51Z</time>
      </trkpt>
      <trkpt lat="46.26517" lon="6.81047">
        <ele>1792.4</ele>
        <time>2022-03-06T10:51:52Z</time>
      </trkpt>
      <trkpt lat="46.26517" lon="6.81045">
        <ele>1792.2</ele>
        <time>2022-03-06T10:51:53Z</time>
      </trkpt>
      <trkpt lat="46.26517" lon="6.81044">
        <ele>1792.2</ele>
        <time>2022-03-06T10:51:54Z</time>
      </trkpt>
      <trkpt lat="46.26517" lon="6.81042">
        <ele>1792</ele>
        <time>2022-03-06T10:51:55Z</time>
      </trkpt>
      <trkpt lat="46.26517" lon="6.81041">
        <ele>1792</ele>
        <time>2022-03-06T10:51:56Z</time>
      </trkpt>
      <trkpt lat="46.26517" lon="6.81036">
        <ele>1791.2</ele>
        <time>2022-03-06T10:51:59Z</time>
      </trkpt>
      <trkpt lat="46.2652" lon="6.81034">
        <ele>1790.8</ele>
        <time>2022-03-06T10:52:02Z</time>
      </trkpt>
      <trkpt lat="46.2652" lon="6.81033">
        <ele>1790.4</ele>
        <time>2022-03-06T10:52:03Z</time>
      </trkpt>
      <trkpt lat="46.26523" lon="6.81029">
        <ele>1789.6</ele>
        <time>2022-03-06T10:52:07Z</time>
      </trkpt>
      <trkpt lat="46.26524" lon="6.81029">
        <ele>1789.4</ele>
        <time>2022-03-06T10:52:08Z</time>
      </trkpt>
      <trkpt lat="46.26524" lon="6.81028">
        <ele>1789</ele>
        <time>2022-03-06T10:52:09Z</time>
      </trkpt>
      <trkpt lat="46.26526" lon="6.81026">
        <ele>1788.2</ele>
        <time>2022-03-06T10:52:11Z</time>
      </trkpt>
      <trkpt lat="46.26526" lon="6.81024">
        <ele>1788</ele>
        <time>2022-03-06T10:52:12Z</time>
      </trkpt>
      <trkpt lat="46.26527" lon="6.81022">
        <ele>1787.4</ele>
        <time>2022-03-06T10:52:15Z</time>
      </trkpt>
      <trkpt lat="46.26528" lon="6.81021">
        <ele>1787.2</ele>
        <time>2022-03-06T10:52:16Z</time>
      </trkpt>
      <trkpt lat="46.26528" lon="6.8102">
        <ele>1787</ele>
        <time>2022-03-06T10:52:17Z</time>
      </trkpt>
      <trkpt lat="46.26529" lon="6.81018">
        <ele>1786.6</ele>
        <time>2022-03-06T10:52:18Z</time>
      </trkpt>
      <trkpt lat="46.26529" lon="6.81017">
        <ele>1786</ele>
        <time>2022-03-06T10:52:19Z</time>
      </trkpt>
      <trkpt lat="46.26532" lon="6.81011">
        <ele>1784.8</ele>
        <time>2022-03-06T10:52:23Z</time>
      </trkpt>
      <trkpt lat="46.26535" lon="6.81008">
        <ele>1783.8</ele>
        <time>2022-03-06T10:52:26Z</time>
      </trkpt>
      <trkpt lat="46.26536" lon="6.81008">
        <ele>1783.6</ele>
        <time>2022-03-06T10:52:27Z</time>
      </trkpt>
      <trkpt lat="46.26536" lon="6.81008">
        <ele>1783.4</ele>
        <time>2022-03-06T10:52:28Z</time>
      </trkpt>
      <trkpt lat="46.26537" lon="6.81007">
        <ele>1783.4</ele>
        <time>2022-03-06T10:52:29Z</time>
      </trkpt>
      <trkpt lat="46.26538" lon="6.81007">
        <ele>1783</ele>
        <time>2022-03-06T10:52:30Z</time>
      </trkpt>
      <trkpt lat="46.26538" lon="6.81006">
        <ele>1782.8</ele>
        <time>2022-03-06T10:52:31Z</time>
      </trkpt>
      <trkpt lat="46.26539" lon="6.81006">
        <ele>1782.6</ele>
        <time>2022-03-06T10:52:32Z</time>
      </trkpt>
      <trkpt lat="46.2654" lon="6.81006">
        <ele>1782.4</ele>
        <time>2022-03-06T10:52:33Z</time>
      </trkpt>
      <trkpt lat="46.2654" lon="6.81006">
        <ele>1782</ele>
        <time>2022-03-06T10:52:34Z</time>
      </trkpt>
      <trkpt lat="46.26541" lon="6.81006">
        <ele>1781.6</ele>
        <time>2022-03-06T10:52:35Z</time>
      </trkpt>
      <trkpt lat="46.26542" lon="6.81005">
        <ele>1781.4</ele>
        <time>2022-03-06T10:52:36Z</time>
      </trkpt>
      <trkpt lat="46.26542" lon="6.81005">
        <ele>1781.2</ele>
        <time>2022-03-06T10:52:37Z</time>
      </trkpt>
      <trkpt lat="46.26543" lon="6.81005">
        <ele>1781</ele>
        <time>2022-03-06T10:52:38Z</time>
      </trkpt>
      <trkpt lat="46.26543" lon="6.81004">
        <ele>1780.8</ele>
        <time>2022-03-06T10:52:39Z</time>
      </trkpt>
      <trkpt lat="46.26543" lon="6.81004">
        <ele>1780.6</ele>
        <time>2022-03-06T10:52:40Z</time>
      </trkpt>
      <trkpt lat="46.26546" lon="6.81002">
        <ele>1780.2</ele>
        <time>2022-03-06T10:52:42Z</time>
      </trkpt>
      <trkpt lat="46.2655" lon="6.80999">
        <ele>1778.6</ele>
        <time>2022-03-06T10:52:47Z</time>
      </trkpt>
      <trkpt lat="46.26551" lon="6.80996">
        <ele>1778.2</ele>
        <time>2022-03-06T10:52:49Z</time>
      </trkpt>
      <trkpt lat="46.26552" lon="6.80996">
        <ele>1778.2</ele>
        <time>2022-03-06T10:52:50Z</time>
      </trkpt>
      <trkpt lat="46.26553" lon="6.80995">
        <ele>1778.2</ele>
        <time>2022-03-06T10:52:51Z</time>
      </trkpt>
      <trkpt lat="46.26553" lon="6.80994">
        <ele>1778</ele>
        <time>2022-03-06T10:52:52Z</time>
      </trkpt>
      <trkpt lat="46.26554" lon="6.80994">
        <ele>1777.6</ele>
        <time>2022-03-06T10:52:53Z</time>
      </trkpt>
      <trkpt lat="46.26555" lon="6.80994">
        <ele>1777.4</ele>
        <time>2022-03-06T10:52:54Z</time>
      </trkpt>
      <trkpt lat="46.2656" lon="6.8099">
        <ele>1775.8</ele>
        <time>2022-03-06T10:53:00Z</time>
      </trkpt>
      <trkpt lat="46.26561" lon="6.80989">
        <ele>1775.8</ele>
        <time>2022-03-06T10:53:01Z</time>
      </trkpt>
      <trkpt lat="46.26561" lon="6.80988">
        <ele>1775.4</ele>
        <time>2022-03-06T10:53:02Z</time>
      </trkpt>
      <trkpt lat="46.26561" lon="6.80988">
        <ele>1775.2</ele>
        <time>2022-03-06T10:53:03Z</time>
      </trkpt>
      <trkpt lat="46.26561" lon="6.80987">
        <ele>1775</ele>
        <time>2022-03-06T10:53:04Z</time>
      </trkpt>
      <trkpt lat="46.26561" lon="6.80987">
        <ele>1774.8</ele>
        <time>2022-03-06T10:53:05Z</time>
      </trkpt>
      <trkpt lat="46.26561" lon="6.80986">
        <ele>1774.6</ele>
        <time>2022-03-06T10:53:06Z</time>
      </trkpt>
      <trkpt lat="46.26562" lon="6.80985">
        <ele>1774.4</ele>
        <time>2022-03-06T10:53:07Z</time>
      </trkpt>
      <trkpt lat="46.26563" lon="6.80984">
        <ele>1774.4</ele>
        <time>2022-03-06T10:53:09Z</time>
      </trkpt>
      <trkpt lat="46.26565" lon="6.80979">
        <ele>1774.2</ele>
        <time>2022-03-06T10:53:13Z</time>
      </trkpt>
      <trkpt lat="46.26566" lon="6.80978">
        <ele>1774</ele>
        <time>2022-03-06T10:53:14Z</time>
      </trkpt>
      <trkpt lat="46.26566" lon="6.80978">
        <ele>1774</ele>
        <time>2022-03-06T10:53:15Z</time>
      </trkpt>
      <trkpt lat="46.26566" lon="6.80978">
        <ele>1773.8</ele>
        <time>2022-03-06T10:53:16Z</time>
      </trkpt>
      <trkpt lat="46.26566" lon="6.80978">
        <ele>1773.6</ele>
        <time>2022-03-06T10:53:17Z</time>
      </trkpt>
      <trkpt lat="46.26567" lon="6.80974">
        <ele>1773.4</ele>
        <time>2022-03-06T10:53:19Z</time>
      </trkpt>
      <trkpt lat="46.26568" lon="6.8097">
        <ele>1772.4</ele>
        <time>2022-03-06T10:53:22Z</time>
      </trkpt>
      <trkpt lat="46.26568" lon="6.80969">
        <ele>1772</ele>
        <time>2022-03-06T10:53:23Z</time>
      </trkpt>
      <trkpt lat="46.26568" lon="6.80968">
        <ele>1772</ele>
        <time>2022-03-06T10:53:24Z</time>
      </trkpt>
      <trkpt lat="46.26568" lon="6.80968">
        <ele>1771.6</ele>
        <time>2022-03-06T10:53:25Z</time>
      </trkpt>
      <trkpt lat="46.26568" lon="6.80968">
        <ele>1771.4</ele>
        <time>2022-03-06T10:53:26Z</time>
      </trkpt>
      <trkpt lat="46.26567" lon="6.80967">
        <ele>1771</ele>
        <time>2022-03-06T10:53:27Z</time>
      </trkpt>
      <trkpt lat="46.26566" lon="6.80967">
        <ele>1770.8</ele>
        <time>2022-03-06T10:53:28Z</time>
      </trkpt>
      <trkpt lat="46.26564" lon="6.80967">
        <ele>1770.4</ele>
        <time>2022-03-06T10:53:29Z</time>
      </trkpt>
      <trkpt lat="46.26564" lon="6.80967">
        <ele>1770</ele>
        <time>2022-03-06T10:53:30Z</time>
      </trkpt>
      <trkpt lat="46.26561" lon="6.80968">
        <ele>1769.8</ele>
        <time>2022-03-06T10:53:31Z</time>
      </trkpt>
      <trkpt lat="46.26555" lon="6.80965">
        <ele>1768.6</ele>
        <time>2022-03-06T10:53:34Z</time>
      </trkpt>
      <trkpt lat="46.26553" lon="6.80964">
        <ele>1768.6</ele>
        <time>2022-03-06T10:53:35Z</time>
      </trkpt>
      <trkpt lat="46.26551" lon="6.80963">
        <ele>1768.2</ele>
        <time>2022-03-06T10:53:36Z</time>
      </trkpt>
      <trkpt lat="46.26548" lon="6.8096">
        <ele>1767.4</ele>
        <time>2022-03-06T10:53:38Z</time>
      </trkpt>
      <trkpt lat="46.26542" lon="6.80954">
        <ele>1766.6</ele>
        <time>2022-03-06T10:53:42Z</time>
      </trkpt>
      <trkpt lat="46.26542" lon="6.8095">
        <ele>1766.4</ele>
        <time>2022-03-06T10:53:43Z</time>
      </trkpt>
      <trkpt lat="46.2654" lon="6.80949">
        <ele>1766.2</ele>
        <time>2022-03-06T10:53:44Z</time>
      </trkpt>
      <trkpt lat="46.26537" lon="6.80946">
        <ele>1765.6</ele>
        <time>2022-03-06T10:53:47Z</time>
      </trkpt>
      <trkpt lat="46.26536" lon="6.80945">
        <ele>1765.2</ele>
        <time>2022-03-06T10:53:48Z</time>
      </trkpt>
      <trkpt lat="46.26535" lon="6.80944">
        <ele>1765.2</ele>
        <time>2022-03-06T10:53:49Z</time>
      </trkpt>
      <trkpt lat="46.26535" lon="6.80941">
        <ele>1765</ele>
        <time>2022-03-06T10:53:50Z</time>
      </trkpt>
      <trkpt lat="46.26535" lon="6.80941">
        <ele>1764.8</ele>
        <time>2022-03-06T10:53:51Z</time>
      </trkpt>
      <trkpt lat="46.26535" lon="6.80939">
        <ele>1764.6</ele>
        <time>2022-03-06T10:53:52Z</time>
      </trkpt>
      <trkpt lat="46.26535" lon="6.80938">
        <ele>1764.2</ele>
        <time>2022-03-06T10:53:53Z</time>
      </trkpt>
      <trkpt lat="46.26535" lon="6.80935">
        <ele>1764</ele>
        <time>2022-03-06T10:53:54Z</time>
      </trkpt>
      <trkpt lat="46.26533" lon="6.80932">
        <ele>1763.8</ele>
        <time>2022-03-06T10:53:56Z</time>
      </trkpt>
      <trkpt lat="46.26533" lon="6.8093">
        <ele>1763.4</ele>
        <time>2022-03-06T10:53:57Z</time>
      </trkpt>
      <trkpt lat="46.26533" lon="6.80927">
        <ele>1763.4</ele>
        <time>2022-03-06T10:53:58Z</time>
      </trkpt>
      <trkpt lat="46.26533" lon="6.80925">
        <ele>1763.2</ele>
        <time>2022-03-06T10:53:59Z</time>
      </trkpt>
      <trkpt lat="46.26533" lon="6.80923">
        <ele>1762.8</ele>
        <time>2022-03-06T10:54:00Z</time>
      </trkpt>
      <trkpt lat="46.26533" lon="6.80922">
        <ele>1762.8</ele>
        <time>2022-03-06T10:54:01Z</time>
      </trkpt>
      <trkpt lat="46.26532" lon="6.80921">
        <ele>1762.4</ele>
        <time>2022-03-06T10:54:02Z</time>
      </trkpt>
      <trkpt lat="46.26532" lon="6.8092">
        <ele>1762.2</ele>
        <time>2022-03-06T10:54:03Z</time>
      </trkpt>
      <trkpt lat="46.26532" lon="6.80919">
        <ele>1761.8</ele>
        <time>2022-03-06T10:54:04Z</time>
      </trkpt>
      <trkpt lat="46.26532" lon="6.80918">
        <ele>1761.6</ele>
        <time>2022-03-06T10:54:05Z</time>
      </trkpt>
      <trkpt lat="46.26532" lon="6.80917">
        <ele>1761.6</ele>
        <time>2022-03-06T10:54:06Z</time>
      </trkpt>
      <trkpt lat="46.26532" lon="6.80917">
        <ele>1761.4</ele>
        <time>2022-03-06T10:54:07Z</time>
      </trkpt>
      <trkpt lat="46.26531" lon="6.80915">
        <ele>1761</ele>
        <time>2022-03-06T10:54:08Z</time>
      </trkpt>
      <trkpt lat="46.26531" lon="6.80916">
        <ele>1760.8</ele>
        <time>2022-03-06T10:54:09Z</time>
      </trkpt>
      <trkpt lat="46.26531" lon="6.80915">
        <ele>1760.6</ele>
        <time>2022-03-06T10:54:10Z</time>
      </trkpt>
      <trkpt lat="46.26529" lon="6.80915">
        <ele>1760.4</ele>
        <time>2022-03-06T10:54:11Z</time>
      </trkpt>
      <trkpt lat="46.26529" lon="6.80913">
        <ele>1760.2</ele>
        <time>2022-03-06T10:54:12Z</time>
      </trkpt>
      <trkpt lat="46.26527" lon="6.80913">
        <ele>1759.2</ele>
        <time>2022-03-06T10:54:15Z</time>
      </trkpt>
      <trkpt lat="46.26526" lon="6.80912">
        <ele>1759</ele>
        <time>2022-03-06T10:54:16Z</time>
      </trkpt>
      <trkpt lat="46.26526" lon="6.80912">
        <ele>1758.6</ele>
        <time>2022-03-06T10:54:17Z</time>
      </trkpt>
      <trkpt lat="46.26525" lon="6.80913">
        <ele>1758.2</ele>
        <time>2022-03-06T10:54:18Z</time>
      </trkpt>
      <trkpt lat="46.26525" lon="6.80912">
        <ele>1758</ele>
        <time>2022-03-06T10:54:19Z</time>
      </trkpt>
      <trkpt lat="46.26525" lon="6.80911">
        <ele>1758</ele>
        <time>2022-03-06T10:54:20Z</time>
      </trkpt>
      <trkpt lat="46.26526" lon="6.80912">
        <ele>1757.6</ele>
        <time>2022-03-06T10:54:21Z</time>
      </trkpt>
      <trkpt lat="46.26526" lon="6.80911">
        <ele>1757.4</ele>
        <time>2022-03-06T10:54:22Z</time>
      </trkpt>
      <trkpt lat="46.26525" lon="6.80912">
        <ele>1757</ele>
        <time>2022-03-06T10:54:23Z</time>
      </trkpt>
      <trkpt lat="46.26522" lon="6.80913">
        <ele>1756.4</ele>
        <time>2022-03-06T10:54:25Z</time>
      </trkpt>
      <trkpt lat="46.2652" lon="6.80913">
        <ele>1755.8</ele>
        <time>2022-03-06T10:54:27Z</time>
      </trkpt>
      <trkpt lat="46.26518" lon="6.80914">
        <ele>1755.8</ele>
        <time>2022-03-06T10:54:28Z</time>
      </trkpt>
      <trkpt lat="46.26514" lon="6.80911">
        <ele>1755</ele>
        <time>2022-03-06T10:54:31Z</time>
      </trkpt>
      <trkpt lat="46.26513" lon="6.80911">
        <ele>1755</ele>
        <time>2022-03-06T10:54:32Z</time>
      </trkpt>
      <trkpt lat="46.26512" lon="6.80909">
        <ele>1754.6</ele>
        <time>2022-03-06T10:54:33Z</time>
      </trkpt>
      <trkpt lat="46.26512" lon="6.80908">
        <ele>1754.6</ele>
        <time>2022-03-06T10:54:34Z</time>
      </trkpt>
      <trkpt lat="46.26506" lon="6.80904">
        <ele>1753.4</ele>
        <time>2022-03-06T10:54:38Z</time>
      </trkpt>
      <trkpt lat="46.26503" lon="6.80899">
        <ele>1752.4</ele>
        <time>2022-03-06T10:54:42Z</time>
      </trkpt>
      <trkpt lat="46.26503" lon="6.80898">
        <ele>1752.4</ele>
        <time>2022-03-06T10:54:43Z</time>
      </trkpt>
      <trkpt lat="46.26503" lon="6.80897">
        <ele>1752.2</ele>
        <time>2022-03-06T10:54:44Z</time>
      </trkpt>
      <trkpt lat="46.26503" lon="6.80896">
        <ele>1752</ele>
        <time>2022-03-06T10:54:45Z</time>
      </trkpt>
      <trkpt lat="46.26501" lon="6.80893">
        <ele>1751.6</ele>
        <time>2022-03-06T10:54:46Z</time>
      </trkpt>
      <trkpt lat="46.26501" lon="6.80892">
        <ele>1751.2</ele>
        <time>2022-03-06T10:54:47Z</time>
      </trkpt>
      <trkpt lat="46.265" lon="6.80892">
        <ele>1750.6</ele>
        <time>2022-03-06T10:54:50Z</time>
      </trkpt>
      <trkpt lat="46.26503" lon="6.80887">
        <ele>1750</ele>
        <time>2022-03-06T10:55:04Z</time>
      </trkpt>
      <trkpt lat="46.26502" lon="6.80887">
        <ele>1749.8</ele>
        <time>2022-03-06T10:55:15Z</time>
      </trkpt>
      <trkpt lat="46.26501" lon="6.80886">
        <ele>1749.8</ele>
        <time>2022-03-06T10:55:21Z</time>
      </trkpt>
      <trkpt lat="46.26499" lon="6.80881">
        <ele>1749.2</ele>
        <time>2022-03-06T10:55:29Z</time>
      </trkpt>
      <trkpt lat="46.26499" lon="6.80879">
        <ele>1749</ele>
        <time>2022-03-06T10:55:30Z</time>
      </trkpt>
      <trkpt lat="46.26499" lon="6.80878">
        <ele>1749</ele>
        <time>2022-03-06T10:55:31Z</time>
      </trkpt>
      <trkpt lat="46.26498" lon="6.80876">
        <ele>1748.6</ele>
        <time>2022-03-06T10:55:34Z</time>
      </trkpt>
      <trkpt lat="46.26497" lon="6.80875">
        <ele>1748.4</ele>
        <time>2022-03-06T10:55:35Z</time>
      </trkpt>
      <trkpt lat="46.26497" lon="6.80874">
        <ele>1748.4</ele>
        <time>2022-03-06T10:55:37Z</time>
      </trkpt>
      <trkpt lat="46.26497" lon="6.80874">
        <ele>1748.4</ele>
        <time>2022-03-06T10:55:38Z</time>
      </trkpt>
      <trkpt lat="46.26491" lon="6.80855">
        <ele>1748</ele>
        <time>2022-03-06T10:55:55Z</time>
      </trkpt>
      <trkpt lat="46.2649" lon="6.80854">
        <ele>1747.8</ele>
        <time>2022-03-06T10:55:56Z</time>
      </trkpt>
      <trkpt lat="46.2649" lon="6.80853">
        <ele>1747.8</ele>
        <time>2022-03-06T10:55:57Z</time>
      </trkpt>
      <trkpt lat="46.2649" lon="6.80852">
        <ele>1747.8</ele>
        <time>2022-03-06T10:55:58Z</time>
      </trkpt>
      <trkpt lat="46.2649" lon="6.80851">
        <ele>1747.6</ele>
        <time>2022-03-06T10:55:59Z</time>
      </trkpt>
      <trkpt lat="46.2649" lon="6.8085">
        <ele>1747.6</ele>
        <time>2022-03-06T10:56:00Z</time>
      </trkpt>
      <trkpt lat="46.2649" lon="6.80848">
        <ele>1747.6</ele>
        <time>2022-03-06T10:56:01Z</time>
      </trkpt>
      <trkpt lat="46.26489" lon="6.80846">
        <ele>1747.6</ele>
        <time>2022-03-06T10:56:02Z</time>
      </trkpt>
      <trkpt lat="46.26489" lon="6.80845">
        <ele>1747.6</ele>
        <time>2022-03-06T10:56:03Z</time>
      </trkpt>
      <trkpt lat="46.2649" lon="6.80843">
        <ele>1747.6</ele>
        <time>2022-03-06T10:56:04Z</time>
      </trkpt>
      <trkpt lat="46.2649" lon="6.80841">
        <ele>1747.6</ele>
        <time>2022-03-06T10:56:05Z</time>
      </trkpt>
      <trkpt lat="46.2649" lon="6.80829">
        <ele>1747.8</ele>
        <time>2022-03-06T10:56:10Z</time>
      </trkpt>
      <trkpt lat="46.2649" lon="6.80828">
        <ele>1747.8</ele>
        <time>2022-03-06T10:56:11Z</time>
      </trkpt>
      <trkpt lat="46.26489" lon="6.80827">
        <ele>1747.8</ele>
        <time>2022-03-06T10:56:12Z</time>
      </trkpt>
      <trkpt lat="46.2649" lon="6.80824">
        <ele>1747.8</ele>
        <time>2022-03-06T10:56:14Z</time>
      </trkpt>
      <trkpt lat="46.2649" lon="6.80823">
        <ele>1748</ele>
        <time>2022-03-06T10:56:15Z</time>
      </trkpt>
      <trkpt lat="46.2649" lon="6.80822">
        <ele>1748</ele>
        <time>2022-03-06T10:56:16Z</time>
      </trkpt>
      <trkpt lat="46.26489" lon="6.80822">
        <ele>1748.2</ele>
        <time>2022-03-06T10:56:17Z</time>
      </trkpt>
      <trkpt lat="46.26489" lon="6.80821">
        <ele>1748.2</ele>
        <time>2022-03-06T10:56:18Z</time>
      </trkpt>
      <trkpt lat="46.26489" lon="6.80821">
        <ele>1748.4</ele>
        <time>2022-03-06T10:56:19Z</time>
      </trkpt>
      <trkpt lat="46.26489" lon="6.8082">
        <ele>1748.2</ele>
        <time>2022-03-06T10:56:20Z</time>
      </trkpt>
      <trkpt lat="46.26489" lon="6.80818">
        <ele>1748.4</ele>
        <time>2022-03-06T10:56:22Z</time>
      </trkpt>
      <trkpt lat="46.26489" lon="6.80816">
        <ele>1748.4</ele>
        <time>2022-03-06T10:56:23Z</time>
      </trkpt>
      <trkpt lat="46.26489" lon="6.80815">
        <ele>1748.2</ele>
        <time>2022-03-06T10:56:24Z</time>
      </trkpt>
      <trkpt lat="46.26489" lon="6.80813">
        <ele>1748.4</ele>
        <time>2022-03-06T10:56:25Z</time>
      </trkpt>
      <trkpt lat="46.26489" lon="6.80812">
        <ele>1748.4</ele>
        <time>2022-03-06T10:56:26Z</time>
      </trkpt>
      <trkpt lat="46.26489" lon="6.80809">
        <ele>1748.6</ele>
        <time>2022-03-06T10:56:28Z</time>
      </trkpt>
      <trkpt lat="46.26489" lon="6.80808">
        <ele>1748.6</ele>
        <time>2022-03-06T10:56:29Z</time>
      </trkpt>
      <trkpt lat="46.2649" lon="6.80806">
        <ele>1748.6</ele>
        <time>2022-03-06T10:56:30Z</time>
      </trkpt>
      <trkpt lat="46.2649" lon="6.80803">
        <ele>1748.6</ele>
        <time>2022-03-06T10:56:31Z</time>
      </trkpt>
      <trkpt lat="46.26491" lon="6.80801">
        <ele>1748.6</ele>
        <time>2022-03-06T10:56:32Z</time>
      </trkpt>
      <trkpt lat="46.26492" lon="6.80799">
        <ele>1748.6</ele>
        <time>2022-03-06T10:56:33Z</time>
      </trkpt>
      <trkpt lat="46.26493" lon="6.80797">
        <ele>1748.4</ele>
        <time>2022-03-06T10:56:36Z</time>
      </trkpt>
      <trkpt lat="46.26494" lon="6.80796">
        <ele>1748.4</ele>
        <time>2022-03-06T10:56:37Z</time>
      </trkpt>
      <trkpt lat="46.26494" lon="6.80794">
        <ele>1748.4</ele>
        <time>2022-03-06T10:56:38Z</time>
      </trkpt>
      <trkpt lat="46.26494" lon="6.80793">
        <ele>1748.6</ele>
        <time>2022-03-06T10:56:39Z</time>
      </trkpt>
      <trkpt lat="46.26495" lon="6.80791">
        <ele>1748.4</ele>
        <time>2022-03-06T10:56:41Z</time>
      </trkpt>
      <trkpt lat="46.26495" lon="6.8079">
        <ele>1748.6</ele>
        <time>2022-03-06T10:56:42Z</time>
      </trkpt>
      <trkpt lat="46.26494" lon="6.80789">
        <ele>1748.4</ele>
        <time>2022-03-06T10:56:43Z</time>
      </trkpt>
      <trkpt lat="46.26494" lon="6.80788">
        <ele>1748.6</ele>
        <time>2022-03-06T10:56:44Z</time>
      </trkpt>
      <trkpt lat="46.26494" lon="6.80787">
        <ele>1748.6</ele>
        <time>2022-03-06T10:56:45Z</time>
      </trkpt>
      <trkpt lat="46.26491" lon="6.80787">
        <ele>1748.4</ele>
        <time>2022-03-06T10:56:46Z</time>
      </trkpt>
      <trkpt lat="46.2649" lon="6.80786">
        <ele>1748.6</ele>
        <time>2022-03-06T10:56:48Z</time>
      </trkpt>
      <trkpt lat="46.26489" lon="6.80786">
        <ele>1748.6</ele>
        <time>2022-03-06T10:56:49Z</time>
      </trkpt>
      <trkpt lat="46.2649" lon="6.80784">
        <ele>1748.8</ele>
        <time>2022-03-06T10:56:50Z</time>
      </trkpt>
      <trkpt lat="46.26488" lon="6.8078">
        <ele>1749</ele>
        <time>2022-03-06T10:56:53Z</time>
      </trkpt>
      <trkpt lat="46.26487" lon="6.8078">
        <ele>1749</ele>
        <time>2022-03-06T10:56:54Z</time>
      </trkpt>
      <trkpt lat="46.26487" lon="6.8078">
        <ele>1749.2</ele>
        <time>2022-03-06T10:56:55Z</time>
      </trkpt>
      <trkpt lat="46.26487" lon="6.80778">
        <ele>1749.6</ele>
        <time>2022-03-06T10:57:03Z</time>
      </trkpt>
      <trkpt lat="46.26487" lon="6.80774">
        <ele>1750.4</ele>
        <time>2022-03-06T10:57:10Z</time>
      </trkpt>
      <trkpt lat="46.26487" lon="6.80772">
        <ele>1751.2</ele>
        <time>2022-03-06T10:57:15Z</time>
      </trkpt>
      <trkpt lat="46.26487" lon="6.8077">
        <ele>1751.4</ele>
        <time>2022-03-06T10:57:16Z</time>
      </trkpt>
      <trkpt lat="46.26488" lon="6.80766">
        <ele>1752</ele>
        <time>2022-03-06T10:57:20Z</time>
      </trkpt>
      <trkpt lat="46.26489" lon="6.80765">
        <ele>1752</ele>
        <time>2022-03-06T10:57:21Z</time>
      </trkpt>
      <trkpt lat="46.26489" lon="6.80764">
        <ele>1752</ele>
        <time>2022-03-06T10:57:22Z</time>
      </trkpt>
      <trkpt lat="46.26489" lon="6.80763">
        <ele>1752.4</ele>
        <time>2022-03-06T10:57:23Z</time>
      </trkpt>
      <trkpt lat="46.2649" lon="6.80761">
        <ele>1752.6</ele>
        <time>2022-03-06T10:57:24Z</time>
      </trkpt>
      <trkpt lat="46.2649" lon="6.8076">
        <ele>1752.8</ele>
        <time>2022-03-06T10:57:25Z</time>
      </trkpt>
      <trkpt lat="46.2649" lon="6.80759">
        <ele>1753</ele>
        <time>2022-03-06T10:57:26Z</time>
      </trkpt>
      <trkpt lat="46.2649" lon="6.80758">
        <ele>1753.2</ele>
        <time>2022-03-06T10:57:27Z</time>
      </trkpt>
      <trkpt lat="46.2649" lon="6.80757">
        <ele>1753.4</ele>
        <time>2022-03-06T10:57:28Z</time>
      </trkpt>
      <trkpt lat="46.2649" lon="6.80756">
        <ele>1753.6</ele>
        <time>2022-03-06T10:57:29Z</time>
      </trkpt>
      <trkpt lat="46.26491" lon="6.80754">
        <ele>1753.8</ele>
        <time>2022-03-06T10:57:30Z</time>
      </trkpt>
      <trkpt lat="46.26491" lon="6.80753">
        <ele>1753.8</ele>
        <time>2022-03-06T10:57:31Z</time>
      </trkpt>
      <trkpt lat="46.2649" lon="6.80752">
        <ele>1754.2</ele>
        <time>2022-03-06T10:57:32Z</time>
      </trkpt>
      <trkpt lat="46.2649" lon="6.80751">
        <ele>1754.2</ele>
        <time>2022-03-06T10:57:33Z</time>
      </trkpt>
      <trkpt lat="46.26491" lon="6.80749">
        <ele>1754.4</ele>
        <time>2022-03-06T10:57:34Z</time>
      </trkpt>
      <trkpt lat="46.26491" lon="6.80748">
        <ele>1754.6</ele>
        <time>2022-03-06T10:57:35Z</time>
      </trkpt>
      <trkpt lat="46.26491" lon="6.80747">
        <ele>1754.6</ele>
        <time>2022-03-06T10:57:36Z</time>
      </trkpt>
      <trkpt lat="46.26491" lon="6.80746">
        <ele>1754.8</ele>
        <time>2022-03-06T10:57:37Z</time>
      </trkpt>
      <trkpt lat="46.26491" lon="6.80745">
        <ele>1755</ele>
        <time>2022-03-06T10:57:38Z</time>
      </trkpt>
      <trkpt lat="46.26491" lon="6.80744">
        <ele>1755</ele>
        <time>2022-03-06T10:57:39Z</time>
      </trkpt>
      <trkpt lat="46.26491" lon="6.80743">
        <ele>1755.4</ele>
        <time>2022-03-06T10:57:40Z</time>
      </trkpt>
      <trkpt lat="46.2649" lon="6.80742">
        <ele>1755.4</ele>
        <time>2022-03-06T10:57:41Z</time>
      </trkpt>
      <trkpt lat="46.2649" lon="6.80742">
        <ele>1755.4</ele>
        <time>2022-03-06T10:57:42Z</time>
      </trkpt>
      <trkpt lat="46.26489" lon="6.8074">
        <ele>1755.6</ele>
        <time>2022-03-06T10:57:43Z</time>
      </trkpt>
      <trkpt lat="46.26489" lon="6.8074">
        <ele>1755.6</ele>
        <time>2022-03-06T10:57:44Z</time>
      </trkpt>
      <trkpt lat="46.26488" lon="6.8074">
        <ele>1755.6</ele>
        <time>2022-03-06T10:57:45Z</time>
      </trkpt>
      <trkpt lat="46.26488" lon="6.80738">
        <ele>1756</ele>
        <time>2022-03-06T10:57:46Z</time>
      </trkpt>
      <trkpt lat="46.26487" lon="6.80737">
        <ele>1756</ele>
        <time>2022-03-06T10:57:47Z</time>
      </trkpt>
      <trkpt lat="46.26487" lon="6.80736">
        <ele>1756.2</ele>
        <time>2022-03-06T10:57:48Z</time>
      </trkpt>
      <trkpt lat="46.26487" lon="6.80735">
        <ele>1756.2</ele>
        <time>2022-03-06T10:57:49Z</time>
      </trkpt>
      <trkpt lat="46.26487" lon="6.80733">
        <ele>1756.2</ele>
        <time>2022-03-06T10:57:50Z</time>
      </trkpt>
      <trkpt lat="46.26486" lon="6.80732">
        <ele>1756.6</ele>
        <time>2022-03-06T10:57:51Z</time>
      </trkpt>
      <trkpt lat="46.26486" lon="6.80731">
        <ele>1756.8</ele>
        <time>2022-03-06T10:57:52Z</time>
      </trkpt>
      <trkpt lat="46.26486" lon="6.8073">
        <ele>1757</ele>
        <time>2022-03-06T10:57:53Z</time>
      </trkpt>
      <trkpt lat="46.26486" lon="6.80729">
        <ele>1757</ele>
        <time>2022-03-06T10:57:54Z</time>
      </trkpt>
      <trkpt lat="46.26486" lon="6.80728">
        <ele>1757.4</ele>
        <time>2022-03-06T10:57:55Z</time>
      </trkpt>
      <trkpt lat="46.26486" lon="6.80728">
        <ele>1757.4</ele>
        <time>2022-03-06T10:57:56Z</time>
      </trkpt>
      <trkpt lat="46.26485" lon="6.80727">
        <ele>1757.6</ele>
        <time>2022-03-06T10:57:57Z</time>
      </trkpt>
      <trkpt lat="46.26485" lon="6.80726">
        <ele>1757.6</ele>
        <time>2022-03-06T10:57:58Z</time>
      </trkpt>
      <trkpt lat="46.26485" lon="6.80725">
        <ele>1758</ele>
        <time>2022-03-06T10:57:59Z</time>
      </trkpt>
      <trkpt lat="46.26485" lon="6.80725">
        <ele>1757.8</ele>
        <time>2022-03-06T10:58:00Z</time>
      </trkpt>
      <trkpt lat="46.26486" lon="6.80723">
        <ele>1758.2</ele>
        <time>2022-03-06T10:58:01Z</time>
      </trkpt>
      <trkpt lat="46.26486" lon="6.80723">
        <ele>1758.4</ele>
        <time>2022-03-06T10:58:02Z</time>
      </trkpt>
      <trkpt lat="46.26486" lon="6.80722">
        <ele>1758.4</ele>
        <time>2022-03-06T10:58:03Z</time>
      </trkpt>
      <trkpt lat="46.26486" lon="6.80722">
        <ele>1758.4</ele>
        <time>2022-03-06T10:58:04Z</time>
      </trkpt>
      <trkpt lat="46.26485" lon="6.80721">
        <ele>1758.6</ele>
        <time>2022-03-06T10:58:05Z</time>
      </trkpt>
      <trkpt lat="46.26485" lon="6.8072">
        <ele>1758.6</ele>
        <time>2022-03-06T10:58:06Z</time>
      </trkpt>
      <trkpt lat="46.26485" lon="6.8072">
        <ele>1758.8</ele>
        <time>2022-03-06T10:58:07Z</time>
      </trkpt>
      <trkpt lat="46.26485" lon="6.8072">
        <ele>1759</ele>
        <time>2022-03-06T10:58:08Z</time>
      </trkpt>
      <trkpt lat="46.26484" lon="6.80719">
        <ele>1759</ele>
        <time>2022-03-06T10:58:09Z</time>
      </trkpt>
      <trkpt lat="46.26484" lon="6.80719">
        <ele>1759.2</ele>
        <time>2022-03-06T10:58:10Z</time>
      </trkpt>
      <trkpt lat="46.26484" lon="6.80718">
        <ele>1759.2</ele>
        <time>2022-03-06T10:58:11Z</time>
      </trkpt>
      <trkpt lat="46.26484" lon="6.80718">
        <ele>1759.4</ele>
        <time>2022-03-06T10:58:12Z</time>
      </trkpt>
      <trkpt lat="46.26484" lon="6.80717">
        <ele>1759.6</ele>
        <time>2022-03-06T10:58:13Z</time>
      </trkpt>
      <trkpt lat="46.26484" lon="6.80716">
        <ele>1759.6</ele>
        <time>2022-03-06T10:58:14Z</time>
      </trkpt>
      <trkpt lat="46.26484" lon="6.80715">
        <ele>1759.6</ele>
        <time>2022-03-06T10:58:15Z</time>
      </trkpt>
      <trkpt lat="46.26484" lon="6.80714">
        <ele>1759.8</ele>
        <time>2022-03-06T10:58:16Z</time>
      </trkpt>
      <trkpt lat="46.26484" lon="6.80713">
        <ele>1760</ele>
        <time>2022-03-06T10:58:17Z</time>
      </trkpt>
      <trkpt lat="46.26485" lon="6.80712">
        <ele>1760</ele>
        <time>2022-03-06T10:58:18Z</time>
      </trkpt>
      <trkpt lat="46.26485" lon="6.80711">
        <ele>1760.2</ele>
        <time>2022-03-06T10:58:19Z</time>
      </trkpt>
      <trkpt lat="46.26484" lon="6.80711">
        <ele>1760.4</ele>
        <time>2022-03-06T10:58:20Z</time>
      </trkpt>
      <trkpt lat="46.26484" lon="6.80711">
        <ele>1760.6</ele>
        <time>2022-03-06T10:58:21Z</time>
      </trkpt>
      <trkpt lat="46.26484" lon="6.80709">
        <ele>1760.6</ele>
        <time>2022-03-06T10:58:22Z</time>
      </trkpt>
      <trkpt lat="46.26484" lon="6.80709">
        <ele>1760.8</ele>
        <time>2022-03-06T10:58:23Z</time>
      </trkpt>
      <trkpt lat="46.26483" lon="6.80708">
        <ele>1761</ele>
        <time>2022-03-06T10:58:24Z</time>
      </trkpt>
      <trkpt lat="46.26484" lon="6.80707">
        <ele>1761</ele>
        <time>2022-03-06T10:58:25Z</time>
      </trkpt>
      <trkpt lat="46.26483" lon="6.80706">
        <ele>1761</ele>
        <time>2022-03-06T10:58:26Z</time>
      </trkpt>
      <trkpt lat="46.26483" lon="6.80705">
        <ele>1761</ele>
        <time>2022-03-06T10:58:27Z</time>
      </trkpt>
      <trkpt lat="46.26482" lon="6.80704">
        <ele>1761.2</ele>
        <time>2022-03-06T10:58:28Z</time>
      </trkpt>
      <trkpt lat="46.26482" lon="6.80704">
        <ele>1761.4</ele>
        <time>2022-03-06T10:58:29Z</time>
      </trkpt>
      <trkpt lat="46.26482" lon="6.80703">
        <ele>1761.4</ele>
        <time>2022-03-06T10:58:30Z</time>
      </trkpt>
      <trkpt lat="46.26482" lon="6.80702">
        <ele>1761.6</ele>
        <time>2022-03-06T10:58:31Z</time>
      </trkpt>
      <trkpt lat="46.26481" lon="6.80702">
        <ele>1761.8</ele>
        <time>2022-03-06T10:58:32Z</time>
      </trkpt>
      <trkpt lat="46.2648" lon="6.80702">
        <ele>1761.8</ele>
        <time>2022-03-06T10:58:33Z</time>
      </trkpt>
      <trkpt lat="46.2648" lon="6.80701">
        <ele>1761.8</ele>
        <time>2022-03-06T10:58:34Z</time>
      </trkpt>
      <trkpt lat="46.26479" lon="6.807">
        <ele>1762.2</ele>
        <time>2022-03-06T10:58:35Z</time>
      </trkpt>
      <trkpt lat="46.26478" lon="6.80699">
        <ele>1762.2</ele>
        <time>2022-03-06T10:58:36Z</time>
      </trkpt>
      <trkpt lat="46.26478" lon="6.80698">
        <ele>1762.2</ele>
        <time>2022-03-06T10:58:37Z</time>
      </trkpt>
      <trkpt lat="46.26478" lon="6.80698">
        <ele>1762.2</ele>
        <time>2022-03-06T10:58:38Z</time>
      </trkpt>
      <trkpt lat="46.26478" lon="6.80697">
        <ele>1762.2</ele>
        <time>2022-03-06T10:58:39Z</time>
      </trkpt>
      <trkpt lat="46.26478" lon="6.80696">
        <ele>1762.4</ele>
        <time>2022-03-06T10:58:40Z</time>
      </trkpt>
      <trkpt lat="46.26478" lon="6.80695">
        <ele>1762.8</ele>
        <time>2022-03-06T10:58:41Z</time>
      </trkpt>
      <trkpt lat="46.26478" lon="6.80695">
        <ele>1763</ele>
        <time>2022-03-06T10:58:42Z</time>
      </trkpt>
      <trkpt lat="46.26477" lon="6.80694">
        <ele>1763</ele>
        <time>2022-03-06T10:58:43Z</time>
      </trkpt>
      <trkpt lat="46.26477" lon="6.80694">
        <ele>1763.2</ele>
        <time>2022-03-06T10:58:44Z</time>
      </trkpt>
      <trkpt lat="46.26476" lon="6.80693">
        <ele>1763.2</ele>
        <time>2022-03-06T10:58:45Z</time>
      </trkpt>
      <trkpt lat="46.26476" lon="6.80693">
        <ele>1763.2</ele>
        <time>2022-03-06T10:58:46Z</time>
      </trkpt>
      <trkpt lat="46.26476" lon="6.80692">
        <ele>1763.4</ele>
        <time>2022-03-06T10:58:47Z</time>
      </trkpt>
      <trkpt lat="46.26476" lon="6.80692">
        <ele>1763.4</ele>
        <time>2022-03-06T10:58:48Z</time>
      </trkpt>
      <trkpt lat="46.26476" lon="6.80691">
        <ele>1763.6</ele>
        <time>2022-03-06T10:58:49Z</time>
      </trkpt>
      <trkpt lat="46.26476" lon="6.8069">
        <ele>1763.8</ele>
        <time>2022-03-06T10:58:50Z</time>
      </trkpt>
      <trkpt lat="46.26476" lon="6.80689">
        <ele>1763.8</ele>
        <time>2022-03-06T10:58:51Z</time>
      </trkpt>
      <trkpt lat="46.26475" lon="6.80689">
        <ele>1764</ele>
        <time>2022-03-06T10:58:53Z</time>
      </trkpt>
      <trkpt lat="46.26475" lon="6.80688">
        <ele>1764</ele>
        <time>2022-03-06T10:58:54Z</time>
      </trkpt>
      <trkpt lat="46.26474" lon="6.80687">
        <ele>1764.4</ele>
        <time>2022-03-06T10:58:55Z</time>
      </trkpt>
      <trkpt lat="46.26474" lon="6.80686">
        <ele>1764.6</ele>
        <time>2022-03-06T10:58:56Z</time>
      </trkpt>
      <trkpt lat="46.26474" lon="6.80686">
        <ele>1764.6</ele>
        <time>2022-03-06T10:58:57Z</time>
      </trkpt>
      <trkpt lat="46.26474" lon="6.80686">
        <ele>1764.8</ele>
        <time>2022-03-06T10:58:58Z</time>
      </trkpt>
      <trkpt lat="46.26474" lon="6.80685">
        <ele>1764.8</ele>
        <time>2022-03-06T10:58:59Z</time>
      </trkpt>
      <trkpt lat="46.26473" lon="6.80685">
        <ele>1765</ele>
        <time>2022-03-06T10:59:00Z</time>
      </trkpt>
      <trkpt lat="46.26473" lon="6.80684">
        <ele>1765</ele>
        <time>2022-03-06T10:59:01Z</time>
      </trkpt>
      <trkpt lat="46.26473" lon="6.80683">
        <ele>1765.2</ele>
        <time>2022-03-06T10:59:02Z</time>
      </trkpt>
      <trkpt lat="46.26473" lon="6.80683">
        <ele>1765.4</ele>
        <time>2022-03-06T10:59:03Z</time>
      </trkpt>
      <trkpt lat="46.26473" lon="6.80682">
        <ele>1765.4</ele>
        <time>2022-03-06T10:59:04Z</time>
      </trkpt>
      <trkpt lat="46.26474" lon="6.80681">
        <ele>1765.6</ele>
        <time>2022-03-06T10:59:05Z</time>
      </trkpt>
      <trkpt lat="46.26474" lon="6.8068">
        <ele>1765.8</ele>
        <time>2022-03-06T10:59:06Z</time>
      </trkpt>
      <trkpt lat="46.26474" lon="6.80679">
        <ele>1765.8</ele>
        <time>2022-03-06T10:59:07Z</time>
      </trkpt>
      <trkpt lat="46.26474" lon="6.80679">
        <ele>1766</ele>
        <time>2022-03-06T10:59:08Z</time>
      </trkpt>
      <trkpt lat="46.26474" lon="6.80678">
        <ele>1766</ele>
        <time>2022-03-06T10:59:09Z</time>
      </trkpt>
      <trkpt lat="46.26474" lon="6.80678">
        <ele>1766.2</ele>
        <time>2022-03-06T10:59:10Z</time>
      </trkpt>
      <trkpt lat="46.26474" lon="6.80677">
        <ele>1766.6</ele>
        <time>2022-03-06T10:59:11Z</time>
      </trkpt>
      <trkpt lat="46.26473" lon="6.80676">
        <ele>1766.6</ele>
        <time>2022-03-06T10:59:12Z</time>
      </trkpt>
      <trkpt lat="46.26473" lon="6.80675">
        <ele>1766.8</ele>
        <time>2022-03-06T10:59:13Z</time>
      </trkpt>
      <trkpt lat="46.26473" lon="6.80674">
        <ele>1767</ele>
        <time>2022-03-06T10:59:14Z</time>
      </trkpt>
      <trkpt lat="46.26472" lon="6.80673">
        <ele>1767</ele>
        <time>2022-03-06T10:59:15Z</time>
      </trkpt>
      <trkpt lat="46.26472" lon="6.80672">
        <ele>1767.4</ele>
        <time>2022-03-06T10:59:16Z</time>
      </trkpt>
      <trkpt lat="46.26472" lon="6.80671">
        <ele>1767.2</ele>
        <time>2022-03-06T10:59:17Z</time>
      </trkpt>
      <trkpt lat="46.26471" lon="6.80671">
        <ele>1767.4</ele>
        <time>2022-03-06T10:59:18Z</time>
      </trkpt>
      <trkpt lat="46.2647" lon="6.8067">
        <ele>1767.8</ele>
        <time>2022-03-06T10:59:19Z</time>
      </trkpt>
      <trkpt lat="46.2647" lon="6.80669">
        <ele>1767.6</ele>
        <time>2022-03-06T10:59:20Z</time>
      </trkpt>
      <trkpt lat="46.26469" lon="6.80668">
        <ele>1767.8</ele>
        <time>2022-03-06T10:59:21Z</time>
      </trkpt>
      <trkpt lat="46.26469" lon="6.80668">
        <ele>1767.8</ele>
        <time>2022-03-06T10:59:22Z</time>
      </trkpt>
      <trkpt lat="46.26468" lon="6.80667">
        <ele>1768</ele>
        <time>2022-03-06T10:59:23Z</time>
      </trkpt>
      <trkpt lat="46.26468" lon="6.80666">
        <ele>1768</ele>
        <time>2022-03-06T10:59:24Z</time>
      </trkpt>
      <trkpt lat="46.26467" lon="6.80665">
        <ele>1768</ele>
        <time>2022-03-06T10:59:25Z</time>
      </trkpt>
      <trkpt lat="46.26467" lon="6.80665">
        <ele>1768.2</ele>
        <time>2022-03-06T10:59:26Z</time>
      </trkpt>
      <trkpt lat="46.26467" lon="6.80664">
        <ele>1768.4</ele>
        <time>2022-03-06T10:59:27Z</time>
      </trkpt>
      <trkpt lat="46.26466" lon="6.80664">
        <ele>1768.4</ele>
        <time>2022-03-06T10:59:28Z</time>
      </trkpt>
      <trkpt lat="46.26466" lon="6.80663">
        <ele>1768.6</ele>
        <time>2022-03-06T10:59:29Z</time>
      </trkpt>
      <trkpt lat="46.26465" lon="6.80662">
        <ele>1768.8</ele>
        <time>2022-03-06T10:59:30Z</time>
      </trkpt>
      <trkpt lat="46.26465" lon="6.80661">
        <ele>1768.8</ele>
        <time>2022-03-06T10:59:31Z</time>
      </trkpt>
      <trkpt lat="46.26464" lon="6.8066">
        <ele>1768.8</ele>
        <time>2022-03-06T10:59:32Z</time>
      </trkpt>
      <trkpt lat="46.26462" lon="6.80658">
        <ele>1768.8</ele>
        <time>2022-03-06T10:59:34Z</time>
      </trkpt>
      <trkpt lat="46.26462" lon="6.80657">
        <ele>1769</ele>
        <time>2022-03-06T10:59:35Z</time>
      </trkpt>
      <trkpt lat="46.26461" lon="6.80656">
        <ele>1769</ele>
        <time>2022-03-06T10:59:36Z</time>
      </trkpt>
      <trkpt lat="46.26461" lon="6.80656">
        <ele>1769</ele>
        <time>2022-03-06T10:59:37Z</time>
      </trkpt>
      <trkpt lat="46.2646" lon="6.80655">
        <ele>1769.2</ele>
        <time>2022-03-06T10:59:38Z</time>
      </trkpt>
      <trkpt lat="46.26459" lon="6.80655">
        <ele>1769.4</ele>
        <time>2022-03-06T10:59:39Z</time>
      </trkpt>
      <trkpt lat="46.26459" lon="6.80654">
        <ele>1769.2</ele>
        <time>2022-03-06T10:59:40Z</time>
      </trkpt>
      <trkpt lat="46.26458" lon="6.80653">
        <ele>1769.4</ele>
        <time>2022-03-06T10:59:41Z</time>
      </trkpt>
      <trkpt lat="46.26458" lon="6.80652">
        <ele>1769.6</ele>
        <time>2022-03-06T10:59:42Z</time>
      </trkpt>
      <trkpt lat="46.26457" lon="6.80651">
        <ele>1769.6</ele>
        <time>2022-03-06T10:59:43Z</time>
      </trkpt>
      <trkpt lat="46.26457" lon="6.8065">
        <ele>1769.8</ele>
        <time>2022-03-06T10:59:44Z</time>
      </trkpt>
      <trkpt lat="46.26456" lon="6.80649">
        <ele>1770</ele>
        <time>2022-03-06T10:59:45Z</time>
      </trkpt>
      <trkpt lat="46.26456" lon="6.80648">
        <ele>1770.2</ele>
        <time>2022-03-06T10:59:46Z</time>
      </trkpt>
      <trkpt lat="46.26456" lon="6.80647">
        <ele>1770.2</ele>
        <time>2022-03-06T10:59:47Z</time>
      </trkpt>
      <trkpt lat="46.26456" lon="6.80647">
        <ele>1770.4</ele>
        <time>2022-03-06T10:59:48Z</time>
      </trkpt>
      <trkpt lat="46.26456" lon="6.80646">
        <ele>1770.6</ele>
        <time>2022-03-06T10:59:49Z</time>
      </trkpt>
      <trkpt lat="46.26456" lon="6.80646">
        <ele>1770.4</ele>
        <time>2022-03-06T10:59:50Z</time>
      </trkpt>
      <trkpt lat="46.26456" lon="6.80645">
        <ele>1770.6</ele>
        <time>2022-03-06T10:59:51Z</time>
      </trkpt>
      <trkpt lat="46.26456" lon="6.80644">
        <ele>1770.8</ele>
        <time>2022-03-06T10:59:52Z</time>
      </trkpt>
      <trkpt lat="46.26456" lon="6.80642">
        <ele>1770.8</ele>
        <time>2022-03-06T10:59:53Z</time>
      </trkpt>
      <trkpt lat="46.26455" lon="6.80641">
        <ele>1771</ele>
        <time>2022-03-06T10:59:54Z</time>
      </trkpt>
      <trkpt lat="46.26455" lon="6.8064">
        <ele>1771.2</ele>
        <time>2022-03-06T10:59:55Z</time>
      </trkpt>
      <trkpt lat="46.26455" lon="6.80639">
        <ele>1771.2</ele>
        <time>2022-03-06T10:59:56Z</time>
      </trkpt>
      <trkpt lat="46.26456" lon="6.80638">
        <ele>1771.4</ele>
        <time>2022-03-06T10:59:57Z</time>
      </trkpt>
      <trkpt lat="46.26455" lon="6.80635">
        <ele>1771.4</ele>
        <time>2022-03-06T11:00:00Z</time>
      </trkpt>
      <trkpt lat="46.26454" lon="6.80628">
        <ele>1771.4</ele>
        <time>2022-03-06T11:00:06Z</time>
      </trkpt>
      <trkpt lat="46.26454" lon="6.80627">
        <ele>1771.4</ele>
        <time>2022-03-06T11:00:07Z</time>
      </trkpt>
      <trkpt lat="46.26453" lon="6.8062">
        <ele>1770.8</ele>
        <time>2022-03-06T11:00:13Z</time>
      </trkpt>
      <trkpt lat="46.26454" lon="6.80618">
        <ele>1770.8</ele>
        <time>2022-03-06T11:00:14Z</time>
      </trkpt>
      <trkpt lat="46.26453" lon="6.80613">
        <ele>1770.4</ele>
        <time>2022-03-06T11:00:18Z</time>
      </trkpt>
      <trkpt lat="46.26453" lon="6.80611">
        <ele>1770.4</ele>
        <time>2022-03-06T11:00:19Z</time>
      </trkpt>
      <trkpt lat="46.26453" lon="6.80609">
        <ele>1770.2</ele>
        <time>2022-03-06T11:00:20Z</time>
      </trkpt>
      <trkpt lat="46.26453" lon="6.80605">
        <ele>1770</ele>
        <time>2022-03-06T11:00:22Z</time>
      </trkpt>
      <trkpt lat="46.26453" lon="6.80603">
        <ele>1770</ele>
        <time>2022-03-06T11:00:23Z</time>
      </trkpt>
      <trkpt lat="46.26453" lon="6.80601">
        <ele>1770</ele>
        <time>2022-03-06T11:00:24Z</time>
      </trkpt>
      <trkpt lat="46.26453" lon="6.806">
        <ele>1769.8</ele>
        <time>2022-03-06T11:00:25Z</time>
      </trkpt>
      <trkpt lat="46.26452" lon="6.80597">
        <ele>1769.6</ele>
        <time>2022-03-06T11:00:27Z</time>
      </trkpt>
      <trkpt lat="46.26452" lon="6.80595">
        <ele>1769.4</ele>
        <time>2022-03-06T11:00:28Z</time>
      </trkpt>
      <trkpt lat="46.26452" lon="6.80593">
        <ele>1769.2</ele>
        <time>2022-03-06T11:00:29Z</time>
      </trkpt>
      <trkpt lat="46.26451" lon="6.80591">
        <ele>1769.2</ele>
        <time>2022-03-06T11:00:30Z</time>
      </trkpt>
      <trkpt lat="46.2645" lon="6.80585">
        <ele>1768.2</ele>
        <time>2022-03-06T11:00:34Z</time>
      </trkpt>
      <trkpt lat="46.2645" lon="6.8058">
        <ele>1768.2</ele>
        <time>2022-03-06T11:00:37Z</time>
      </trkpt>
      <trkpt lat="46.2645" lon="6.80578">
        <ele>1768</ele>
        <time>2022-03-06T11:00:38Z</time>
      </trkpt>
      <trkpt lat="46.26448" lon="6.80573">
        <ele>1767.2</ele>
        <time>2022-03-06T11:00:42Z</time>
      </trkpt>
      <trkpt lat="46.26447" lon="6.80571">
        <ele>1767</ele>
        <time>2022-03-06T11:00:43Z</time>
      </trkpt>
      <trkpt lat="46.26446" lon="6.80564">
        <ele>1766.4</ele>
        <time>2022-03-06T11:00:47Z</time>
      </trkpt>
      <trkpt lat="46.26446" lon="6.80562">
        <ele>1766.2</ele>
        <time>2022-03-06T11:00:48Z</time>
      </trkpt>
      <trkpt lat="46.26446" lon="6.80561">
        <ele>1765.8</ele>
        <time>2022-03-06T11:00:49Z</time>
      </trkpt>
      <trkpt lat="46.26446" lon="6.80559">
        <ele>1765.4</ele>
        <time>2022-03-06T11:00:50Z</time>
      </trkpt>
      <trkpt lat="46.26445" lon="6.80559">
        <ele>1765.2</ele>
        <time>2022-03-06T11:00:51Z</time>
      </trkpt>
      <trkpt lat="46.26445" lon="6.80557">
        <ele>1764.8</ele>
        <time>2022-03-06T11:00:52Z</time>
      </trkpt>
      <trkpt lat="46.26445" lon="6.80556">
        <ele>1764.2</ele>
        <time>2022-03-06T11:00:53Z</time>
      </trkpt>
      <trkpt lat="46.26444" lon="6.80555">
        <ele>1764.2</ele>
        <time>2022-03-06T11:00:54Z</time>
      </trkpt>
      <trkpt lat="46.26444" lon="6.80554">
        <ele>1764</ele>
        <time>2022-03-06T11:00:55Z</time>
      </trkpt>
      <trkpt lat="46.26444" lon="6.80549">
        <ele>1763.6</ele>
        <time>2022-03-06T11:00:58Z</time>
      </trkpt>
      <trkpt lat="46.26443" lon="6.80548">
        <ele>1763.2</ele>
        <time>2022-03-06T11:00:59Z</time>
      </trkpt>
      <trkpt lat="46.26443" lon="6.80547">
        <ele>1763.2</ele>
        <time>2022-03-06T11:01:00Z</time>
      </trkpt>
      <trkpt lat="46.26442" lon="6.80545">
        <ele>1763</ele>
        <time>2022-03-06T11:01:01Z</time>
      </trkpt>
      <trkpt lat="46.26443" lon="6.80541">
        <ele>1762.8</ele>
        <time>2022-03-06T11:01:02Z</time>
      </trkpt>
      <trkpt lat="46.26444" lon="6.80538">
        <ele>1762.6</ele>
        <time>2022-03-06T11:01:03Z</time>
      </trkpt>
      <trkpt lat="46.26444" lon="6.80536">
        <ele>1762.4</ele>
        <time>2022-03-06T11:01:04Z</time>
      </trkpt>
      <trkpt lat="46.26444" lon="6.80534">
        <ele>1762.2</ele>
        <time>2022-03-06T11:01:05Z</time>
      </trkpt>
      <trkpt lat="46.26444" lon="6.80533">
        <ele>1762</ele>
        <time>2022-03-06T11:01:06Z</time>
      </trkpt>
      <trkpt lat="46.26444" lon="6.80532">
        <ele>1762</ele>
        <time>2022-03-06T11:01:07Z</time>
      </trkpt>
      <trkpt lat="46.26444" lon="6.80531">
        <ele>1762</ele>
        <time>2022-03-06T11:01:08Z</time>
      </trkpt>
      <trkpt lat="46.26444" lon="6.8053">
        <ele>1761.8</ele>
        <time>2022-03-06T11:01:09Z</time>
      </trkpt>
      <trkpt lat="46.26443" lon="6.80529">
        <ele>1761.6</ele>
        <time>2022-03-06T11:01:10Z</time>
      </trkpt>
      <trkpt lat="46.26442" lon="6.80529">
        <ele>1761.6</ele>
        <time>2022-03-06T11:01:11Z</time>
      </trkpt>
      <trkpt lat="46.26442" lon="6.80529">
        <ele>1761.6</ele>
        <time>2022-03-06T11:01:12Z</time>
      </trkpt>
      <trkpt lat="46.26441" lon="6.80528">
        <ele>1761.4</ele>
        <time>2022-03-06T11:01:13Z</time>
      </trkpt>
      <trkpt lat="46.26441" lon="6.80527">
        <ele>1761.4</ele>
        <time>2022-03-06T11:01:14Z</time>
      </trkpt>
      <trkpt lat="46.2644" lon="6.80526">
        <ele>1761.4</ele>
        <time>2022-03-06T11:01:15Z</time>
      </trkpt>
      <trkpt lat="46.2644" lon="6.80525">
        <ele>1761.6</ele>
        <time>2022-03-06T11:01:16Z</time>
      </trkpt>
      <trkpt lat="46.2644" lon="6.80524">
        <ele>1761.4</ele>
        <time>2022-03-06T11:01:17Z</time>
      </trkpt>
      <trkpt lat="46.26439" lon="6.80523">
        <ele>1761.4</ele>
        <time>2022-03-06T11:01:18Z</time>
      </trkpt>
      <trkpt lat="46.26438" lon="6.80521">
        <ele>1761.2</ele>
        <time>2022-03-06T11:01:20Z</time>
      </trkpt>
      <trkpt lat="46.26437" lon="6.80518">
        <ele>1761.4</ele>
        <time>2022-03-06T11:01:23Z</time>
      </trkpt>
      <trkpt lat="46.26436" lon="6.80516">
        <ele>1761.2</ele>
        <time>2022-03-06T11:01:25Z</time>
      </trkpt>
      <trkpt lat="46.26435" lon="6.80513">
        <ele>1760.8</ele>
        <time>2022-03-06T11:01:28Z</time>
      </trkpt>
      <trkpt lat="46.26435" lon="6.80512">
        <ele>1760.6</ele>
        <time>2022-03-06T11:01:29Z</time>
      </trkpt>
      <trkpt lat="46.26435" lon="6.80512">
        <ele>1760.2</ele>
        <time>2022-03-06T11:01:30Z</time>
      </trkpt>
      <trkpt lat="46.26435" lon="6.80511">
        <ele>1760.2</ele>
        <time>2022-03-06T11:01:31Z</time>
      </trkpt>
      <trkpt lat="46.26434" lon="6.8051">
        <ele>1759.8</ele>
        <time>2022-03-06T11:01:32Z</time>
      </trkpt>
      <trkpt lat="46.26434" lon="6.80509">
        <ele>1760</ele>
        <time>2022-03-06T11:01:33Z</time>
      </trkpt>
      <trkpt lat="46.26434" lon="6.80509">
        <ele>1759.8</ele>
        <time>2022-03-06T11:01:34Z</time>
      </trkpt>
      <trkpt lat="46.26434" lon="6.80507">
        <ele>1760</ele>
        <time>2022-03-06T11:01:35Z</time>
      </trkpt>
      <trkpt lat="46.26434" lon="6.80507">
        <ele>1759.8</ele>
        <time>2022-03-06T11:01:36Z</time>
      </trkpt>
      <trkpt lat="46.26436" lon="6.80504">
        <ele>1760</ele>
        <time>2022-03-06T11:01:45Z</time>
      </trkpt>
      <trkpt lat="46.26437" lon="6.80504">
        <ele>1759.8</ele>
        <time>2022-03-06T11:01:46Z</time>
      </trkpt>
      <trkpt lat="46.26437" lon="6.80502">
        <ele>1760</ele>
        <time>2022-03-06T11:01:48Z</time>
      </trkpt>
      <trkpt lat="46.26437" lon="6.80502">
        <ele>1760</ele>
        <time>2022-03-06T11:01:49Z</time>
      </trkpt>
      <trkpt lat="46.26438" lon="6.80502">
        <ele>1759.8</ele>
        <time>2022-03-06T11:01:52Z</time>
      </trkpt>
      <trkpt lat="46.26439" lon="6.80502">
        <ele>1759.8</ele>
        <time>2022-03-06T11:01:56Z</time>
      </trkpt>
      <trkpt lat="46.26439" lon="6.80502">
        <ele>1759.6</ele>
        <time>2022-03-06T11:01:57Z</time>
      </trkpt>
      <trkpt lat="46.26441" lon="6.80502">
        <ele>1759.2</ele>
        <time>2022-03-06T11:02:00Z</time>
      </trkpt>
      <trkpt lat="46.26441" lon="6.80501">
        <ele>1759.2</ele>
        <time>2022-03-06T11:02:01Z</time>
      </trkpt>
      <trkpt lat="46.26441" lon="6.80501">
        <ele>1759.2</ele>
        <time>2022-03-06T11:02:02Z</time>
      </trkpt>
      <trkpt lat="46.26442" lon="6.80501">
        <ele>1759</ele>
        <time>2022-03-06T11:02:03Z</time>
      </trkpt>
      <trkpt lat="46.26442" lon="6.805">
        <ele>1759</ele>
        <time>2022-03-06T11:02:04Z</time>
      </trkpt>
      <trkpt lat="46.26443" lon="6.805">
        <ele>1759</ele>
        <time>2022-03-06T11:02:06Z</time>
      </trkpt>
      <trkpt lat="46.26444" lon="6.805">
        <ele>1758.8</ele>
        <time>2022-03-06T11:02:07Z</time>
      </trkpt>
      <trkpt lat="46.26445" lon="6.80499">
        <ele>1758.6</ele>
        <time>2022-03-06T11:02:08Z</time>
      </trkpt>
      <trkpt lat="46.26446" lon="6.80499">
        <ele>1758.8</ele>
        <time>2022-03-06T11:02:09Z</time>
      </trkpt>
      <trkpt lat="46.26446" lon="6.80498">
        <ele>1758.6</ele>
        <time>2022-03-06T11:02:10Z</time>
      </trkpt>
      <trkpt lat="46.26446" lon="6.80498">
        <ele>1758.6</ele>
        <time>2022-03-06T11:02:11Z</time>
      </trkpt>
      <trkpt lat="46.26445" lon="6.80498">
        <ele>1758.2</ele>
        <time>2022-03-06T11:02:12Z</time>
      </trkpt>
      <trkpt lat="46.26446" lon="6.80497">
        <ele>1758.2</ele>
        <time>2022-03-06T11:02:13Z</time>
      </trkpt>
      <trkpt lat="46.26447" lon="6.80495">
        <ele>1758</ele>
        <time>2022-03-06T11:02:16Z</time>
      </trkpt>
      <trkpt lat="46.26447" lon="6.80494">
        <ele>1757.8</ele>
        <time>2022-03-06T11:02:17Z</time>
      </trkpt>
      <trkpt lat="46.26447" lon="6.80493">
        <ele>1757.8</ele>
        <time>2022-03-06T11:02:18Z</time>
      </trkpt>
      <trkpt lat="46.26447" lon="6.80492">
        <ele>1757.8</ele>
        <time>2022-03-06T11:02:19Z</time>
      </trkpt>
      <trkpt lat="46.26448" lon="6.80487">
        <ele>1757.6</ele>
        <time>2022-03-06T11:02:23Z</time>
      </trkpt>
      <trkpt lat="46.26449" lon="6.80484">
        <ele>1757.6</ele>
        <time>2022-03-06T11:02:26Z</time>
      </trkpt>
      <trkpt lat="46.26449" lon="6.80483">
        <ele>1757.6</ele>
        <time>2022-03-06T11:02:27Z</time>
      </trkpt>
      <trkpt lat="46.26449" lon="6.80483">
        <ele>1757.6</ele>
        <time>2022-03-06T11:02:28Z</time>
      </trkpt>
      <trkpt lat="46.26449" lon="6.80482">
        <ele>1757.6</ele>
        <time>2022-03-06T11:02:29Z</time>
      </trkpt>
      <trkpt lat="46.2645" lon="6.80481">
        <ele>1757.6</ele>
        <time>2022-03-06T11:02:30Z</time>
      </trkpt>
      <trkpt lat="46.2645" lon="6.8048">
        <ele>1757.6</ele>
        <time>2022-03-06T11:02:31Z</time>
      </trkpt>
      <trkpt lat="46.26451" lon="6.80479">
        <ele>1757.6</ele>
        <time>2022-03-06T11:02:33Z</time>
      </trkpt>
      <trkpt lat="46.26452" lon="6.80478">
        <ele>1757.8</ele>
        <time>2022-03-06T11:02:34Z</time>
      </trkpt>
      <trkpt lat="46.26452" lon="6.80476">
        <ele>1757.8</ele>
        <time>2022-03-06T11:02:35Z</time>
      </trkpt>
      <trkpt lat="46.26452" lon="6.80476">
        <ele>1758</ele>
        <time>2022-03-06T11:02:36Z</time>
      </trkpt>
      <trkpt lat="46.26453" lon="6.80474">
        <ele>1758.2</ele>
        <time>2022-03-06T11:02:38Z</time>
      </trkpt>
      <trkpt lat="46.26455" lon="6.8047">
        <ele>1758.4</ele>
        <time>2022-03-06T11:02:40Z</time>
      </trkpt>
      <trkpt lat="46.26455" lon="6.80468">
        <ele>1758.4</ele>
        <time>2022-03-06T11:02:41Z</time>
      </trkpt>
      <trkpt lat="46.26456" lon="6.80467">
        <ele>1758.6</ele>
        <time>2022-03-06T11:02:42Z</time>
      </trkpt>
      <trkpt lat="46.26456" lon="6.80466">
        <ele>1758.6</ele>
        <time>2022-03-06T11:02:43Z</time>
      </trkpt>
      <trkpt lat="46.26457" lon="6.80465">
        <ele>1758.8</ele>
        <time>2022-03-06T11:02:44Z</time>
      </trkpt>
      <trkpt lat="46.26458" lon="6.80459">
        <ele>1759</ele>
        <time>2022-03-06T11:02:47Z</time>
      </trkpt>
      <trkpt lat="46.26459" lon="6.80453">
        <ele>1759.4</ele>
        <time>2022-03-06T11:02:51Z</time>
      </trkpt>
      <trkpt lat="46.26459" lon="6.80452">
        <ele>1759.2</ele>
        <time>2022-03-06T11:02:52Z</time>
      </trkpt>
      <trkpt lat="46.2646" lon="6.8045">
        <ele>1759.6</ele>
        <time>2022-03-06T11:02:53Z</time>
      </trkpt>
      <trkpt lat="46.2646" lon="6.80449">
        <ele>1759.8</ele>
        <time>2022-03-06T11:02:54Z</time>
      </trkpt>
      <trkpt lat="46.2646" lon="6.80448">
        <ele>1759.8</ele>
        <time>2022-03-06T11:02:55Z</time>
      </trkpt>
      <trkpt lat="46.2646" lon="6.80447">
        <ele>1759.8</ele>
        <time>2022-03-06T11:02:56Z</time>
      </trkpt>
      <trkpt lat="46.2646" lon="6.80446">
        <ele>1760.2</ele>
        <time>2022-03-06T11:02:57Z</time>
      </trkpt>
      <trkpt lat="46.26459" lon="6.80445">
        <ele>1760.2</ele>
        <time>2022-03-06T11:02:58Z</time>
      </trkpt>
      <trkpt lat="46.26458" lon="6.80444">
        <ele>1760.4</ele>
        <time>2022-03-06T11:02:59Z</time>
      </trkpt>
      <trkpt lat="46.26457" lon="6.80443">
        <ele>1760.6</ele>
        <time>2022-03-06T11:03:00Z</time>
      </trkpt>
      <trkpt lat="46.26456" lon="6.80442">
        <ele>1760.6</ele>
        <time>2022-03-06T11:03:01Z</time>
      </trkpt>
      <trkpt lat="46.26456" lon="6.80442">
        <ele>1760.8</ele>
        <time>2022-03-06T11:03:02Z</time>
      </trkpt>
      <trkpt lat="46.26455" lon="6.80441">
        <ele>1760.8</ele>
        <time>2022-03-06T11:03:03Z</time>
      </trkpt>
      <trkpt lat="46.26452" lon="6.80438">
        <ele>1761.2</ele>
        <time>2022-03-06T11:03:08Z</time>
      </trkpt>
      <trkpt lat="46.26452" lon="6.80437">
        <ele>1761</ele>
        <time>2022-03-06T11:03:09Z</time>
      </trkpt>
      <trkpt lat="46.26451" lon="6.80436">
        <ele>1761.2</ele>
        <time>2022-03-06T11:03:11Z</time>
      </trkpt>
      <trkpt lat="46.26452" lon="6.80435">
        <ele>1761.2</ele>
        <time>2022-03-06T11:03:12Z</time>
      </trkpt>
      <trkpt lat="46.26443" lon="6.80433">
        <ele>1761.4</ele>
        <time>2022-03-06T11:03:20Z</time>
      </trkpt>
      <trkpt lat="46.2644" lon="6.80434">
        <ele>1761.6</ele>
        <time>2022-03-06T11:03:22Z</time>
      </trkpt>
      <trkpt lat="46.26439" lon="6.80432">
        <ele>1761.8</ele>
        <time>2022-03-06T11:03:24Z</time>
      </trkpt>
      <trkpt lat="46.26438" lon="6.8043">
        <ele>1762</ele>
        <time>2022-03-06T11:03:27Z</time>
      </trkpt>
      <trkpt lat="46.26438" lon="6.80429">
        <ele>1762</ele>
        <time>2022-03-06T11:03:28Z</time>
      </trkpt>
      <trkpt lat="46.26438" lon="6.80427">
        <ele>1762.4</ele>
        <time>2022-03-06T11:03:30Z</time>
      </trkpt>
      <trkpt lat="46.26438" lon="6.80426">
        <ele>1762.4</ele>
        <time>2022-03-06T11:03:31Z</time>
      </trkpt>
      <trkpt lat="46.26438" lon="6.80426">
        <ele>1762.4</ele>
        <time>2022-03-06T11:03:32Z</time>
      </trkpt>
      <trkpt lat="46.26438" lon="6.80425">
        <ele>1762.4</ele>
        <time>2022-03-06T11:03:33Z</time>
      </trkpt>
      <trkpt lat="46.26438" lon="6.80425">
        <ele>1762.8</ele>
        <time>2022-03-06T11:03:34Z</time>
      </trkpt>
      <trkpt lat="46.26437" lon="6.80424">
        <ele>1763</ele>
        <time>2022-03-06T11:03:35Z</time>
      </trkpt>
      <trkpt lat="46.26437" lon="6.80423">
        <ele>1763</ele>
        <time>2022-03-06T11:03:36Z</time>
      </trkpt>
      <trkpt lat="46.26437" lon="6.80422">
        <ele>1763</ele>
        <time>2022-03-06T11:03:37Z</time>
      </trkpt>
      <trkpt lat="46.26437" lon="6.80422">
        <ele>1763</ele>
        <time>2022-03-06T11:03:38Z</time>
      </trkpt>
      <trkpt lat="46.26437" lon="6.8042">
        <ele>1763.2</ele>
        <time>2022-03-06T11:03:40Z</time>
      </trkpt>
      <trkpt lat="46.26438" lon="6.80416">
        <ele>1764.4</ele>
        <time>2022-03-06T11:03:48Z</time>
      </trkpt>
      <trkpt lat="46.26437" lon="6.80414">
        <ele>1764.4</ele>
        <time>2022-03-06T11:03:50Z</time>
      </trkpt>
      <trkpt lat="46.26437" lon="6.80413">
        <ele>1764.4</ele>
        <time>2022-03-06T11:03:51Z</time>
      </trkpt>
      <trkpt lat="46.26437" lon="6.80411">
        <ele>1764.6</ele>
        <time>2022-03-06T11:03:53Z</time>
      </trkpt>
      <trkpt lat="46.26437" lon="6.80408">
        <ele>1764.6</ele>
        <time>2022-03-06T11:03:56Z</time>
      </trkpt>
      <trkpt lat="46.26437" lon="6.80406">
        <ele>1764.6</ele>
        <time>2022-03-06T11:03:57Z</time>
      </trkpt>
      <trkpt lat="46.26437" lon="6.80402">
        <ele>1765</ele>
        <time>2022-03-06T11:04:01Z</time>
      </trkpt>
      <trkpt lat="46.26437" lon="6.80401">
        <ele>1765.2</ele>
        <time>2022-03-06T11:04:02Z</time>
      </trkpt>
      <trkpt lat="46.26436" lon="6.804">
        <ele>1765.2</ele>
        <time>2022-03-06T11:04:03Z</time>
      </trkpt>
      <trkpt lat="46.26436" lon="6.804">
        <ele>1765.2</ele>
        <time>2022-03-06T11:04:04Z</time>
      </trkpt>
      <trkpt lat="46.26436" lon="6.804">
        <ele>1765.2</ele>
        <time>2022-03-06T11:04:05Z</time>
      </trkpt>
      <trkpt lat="46.26436" lon="6.804">
        <ele>1765.2</ele>
        <time>2022-03-06T11:04:06Z</time>
      </trkpt>
      <trkpt lat="46.26435" lon="6.804">
        <ele>1765.4</ele>
        <time>2022-03-06T11:04:07Z</time>
      </trkpt>
      <trkpt lat="46.26435" lon="6.80399">
        <ele>1765.4</ele>
        <time>2022-03-06T11:04:08Z</time>
      </trkpt>
      <trkpt lat="46.26435" lon="6.80398">
        <ele>1765.4</ele>
        <time>2022-03-06T11:04:09Z</time>
      </trkpt>
      <trkpt lat="46.26435" lon="6.80398">
        <ele>1765.6</ele>
        <time>2022-03-06T11:04:10Z</time>
      </trkpt>
      <trkpt lat="46.26434" lon="6.80397">
        <ele>1765.6</ele>
        <time>2022-03-06T11:04:11Z</time>
      </trkpt>
      <trkpt lat="46.26434" lon="6.80396">
        <ele>1765.8</ele>
        <time>2022-03-06T11:04:12Z</time>
      </trkpt>
      <trkpt lat="46.26435" lon="6.80394">
        <ele>1765.8</ele>
        <time>2022-03-06T11:04:13Z</time>
      </trkpt>
      <trkpt lat="46.26436" lon="6.80392">
        <ele>1766</ele>
        <time>2022-03-06T11:04:14Z</time>
      </trkpt>
      <trkpt lat="46.26437" lon="6.80389">
        <ele>1766</ele>
        <time>2022-03-06T11:04:16Z</time>
      </trkpt>
      <trkpt lat="46.26436" lon="6.80388">
        <ele>1766</ele>
        <time>2022-03-06T11:04:17Z</time>
      </trkpt>
      <trkpt lat="46.26436" lon="6.80387">
        <ele>1766.2</ele>
        <time>2022-03-06T11:04:18Z</time>
      </trkpt>
      <trkpt lat="46.26436" lon="6.80386">
        <ele>1766.4</ele>
        <time>2022-03-06T11:04:19Z</time>
      </trkpt>
      <trkpt lat="46.26436" lon="6.80385">
        <ele>1766.4</ele>
        <time>2022-03-06T11:04:20Z</time>
      </trkpt>
      <trkpt lat="46.26435" lon="6.80381">
        <ele>1766.6</ele>
        <time>2022-03-06T11:04:24Z</time>
      </trkpt>
      <trkpt lat="46.26435" lon="6.8038">
        <ele>1766.8</ele>
        <time>2022-03-06T11:04:25Z</time>
      </trkpt>
      <trkpt lat="46.26436" lon="6.80378">
        <ele>1766.8</ele>
        <time>2022-03-06T11:04:26Z</time>
      </trkpt>
      <trkpt lat="46.26436" lon="6.80377">
        <ele>1767</ele>
        <time>2022-03-06T11:04:27Z</time>
      </trkpt>
      <trkpt lat="46.26437" lon="6.80377">
        <ele>1767.2</ele>
        <time>2022-03-06T11:04:28Z</time>
      </trkpt>
      <trkpt lat="46.26438" lon="6.80377">
        <ele>1767.2</ele>
        <time>2022-03-06T11:04:29Z</time>
      </trkpt>
      <trkpt lat="46.26439" lon="6.80377">
        <ele>1767.4</ele>
        <time>2022-03-06T11:04:30Z</time>
      </trkpt>
      <trkpt lat="46.2644" lon="6.80376">
        <ele>1767.4</ele>
        <time>2022-03-06T11:04:31Z</time>
      </trkpt>
      <trkpt lat="46.2644" lon="6.80376">
        <ele>1767.4</ele>
        <time>2022-03-06T11:04:32Z</time>
      </trkpt>
      <trkpt lat="46.2644" lon="6.80374">
        <ele>1767.8</ele>
        <time>2022-03-06T11:04:35Z</time>
      </trkpt>
      <trkpt lat="46.26438" lon="6.80374">
        <ele>1768.6</ele>
        <time>2022-03-06T11:04:42Z</time>
      </trkpt>
      <trkpt lat="46.26434" lon="6.80368">
        <ele>1768.4</ele>
        <time>2022-03-06T11:04:58Z</time>
      </trkpt>
      <trkpt lat="46.26434" lon="6.80368">
        <ele>1768.4</ele>
        <time>2022-03-06T11:05:12Z</time>
      </trkpt>
      <trkpt lat="46.26435" lon="6.80366">
        <ele>1768.4</ele>
        <time>2022-03-06T11:05:27Z</time>
      </trkpt>
      <trkpt lat="46.26435" lon="6.80369">
        <ele>1768.4</ele>
        <time>2022-03-06T11:05:46Z</time>
      </trkpt>
      <trkpt lat="46.26435" lon="6.80371">
        <ele>1768.6</ele>
        <time>2022-03-06T11:06:05Z</time>
      </trkpt>
      <trkpt lat="46.26439" lon="6.80373">
        <ele>1768.4</ele>
        <time>2022-03-06T11:06:25Z</time>
      </trkpt>
      <trkpt lat="46.26441" lon="6.80375">
        <ele>1768.4</ele>
        <time>2022-03-06T11:06:42Z</time>
      </trkpt>
      <trkpt lat="46.26441" lon="6.80375">
        <ele>1768.4</ele>
        <time>2022-03-06T11:06:53Z</time>
      </trkpt>
      <trkpt lat="46.26441" lon="6.80374">
        <ele>1768.4</ele>
        <time>2022-03-06T11:07:08Z</time>
      </trkpt>
      <trkpt lat="46.2644" lon="6.80374">
        <ele>1768.6</ele>
        <time>2022-03-06T11:07:19Z</time>
      </trkpt>
      <trkpt lat="46.26434" lon="6.80375">
        <ele>1768.6</ele>
        <time>2022-03-06T11:07:35Z</time>
      </trkpt>
      <trkpt lat="46.2643" lon="6.80373">
        <ele>1768.4</ele>
        <time>2022-03-06T11:07:51Z</time>
      </trkpt>
      <trkpt lat="46.26429" lon="6.8037">
        <ele>1768.6</ele>
        <time>2022-03-06T11:08:08Z</time>
      </trkpt>
      <trkpt lat="46.2643" lon="6.80371">
        <ele>1768.6</ele>
        <time>2022-03-06T11:08:22Z</time>
      </trkpt>
      <trkpt lat="46.26432" lon="6.80372">
        <ele>1768.6</ele>
        <time>2022-03-06T11:08:39Z</time>
      </trkpt>
      <trkpt lat="46.26436" lon="6.80372">
        <ele>1768.6</ele>
        <time>2022-03-06T11:08:53Z</time>
      </trkpt>
      <trkpt lat="46.26437" lon="6.80372">
        <ele>1768.6</ele>
        <time>2022-03-06T11:09:10Z</time>
      </trkpt>
      <trkpt lat="46.26437" lon="6.80373">
        <ele>1768.8</ele>
        <time>2022-03-06T11:09:29Z</time>
      </trkpt>
      <trkpt lat="46.26438" lon="6.80373">
        <ele>1768.6</ele>
        <time>2022-03-06T11:09:45Z</time>
      </trkpt>
      <trkpt lat="46.26436" lon="6.80369">
        <ele>1768.6</ele>
        <time>2022-03-06T11:10:07Z</time>
      </trkpt>
      <trkpt lat="46.26433" lon="6.80368">
        <ele>1768.6</ele>
        <time>2022-03-06T11:10:23Z</time>
      </trkpt>
      <trkpt lat="46.2643" lon="6.80369">
        <ele>1768.6</ele>
        <time>2022-03-06T11:10:38Z</time>
      </trkpt>
      <trkpt lat="46.2643" lon="6.80367">
        <ele>1768.6</ele>
        <time>2022-03-06T11:10:41Z</time>
      </trkpt>
      <trkpt lat="46.2643" lon="6.80365">
        <ele>1768.6</ele>
        <time>2022-03-06T11:10:43Z</time>
      </trkpt>
      <trkpt lat="46.26431" lon="6.80364">
        <ele>1768.6</ele>
        <time>2022-03-06T11:10:44Z</time>
      </trkpt>
      <trkpt lat="46.26431" lon="6.80363">
        <ele>1768.8</ele>
        <time>2022-03-06T11:10:45Z</time>
      </trkpt>
      <trkpt lat="46.2643" lon="6.80361">
        <ele>1769</ele>
        <time>2022-03-06T11:10:48Z</time>
      </trkpt>
      <trkpt lat="46.2643" lon="6.8036">
        <ele>1769</ele>
        <time>2022-03-06T11:10:49Z</time>
      </trkpt>
      <trkpt lat="46.2643" lon="6.8036">
        <ele>1769.2</ele>
        <time>2022-03-06T11:10:50Z</time>
      </trkpt>
      <trkpt lat="46.26429" lon="6.80359">
        <ele>1769.2</ele>
        <time>2022-03-06T11:10:51Z</time>
      </trkpt>
      <trkpt lat="46.26429" lon="6.80358">
        <ele>1769.6</ele>
        <time>2022-03-06T11:10:52Z</time>
      </trkpt>
      <trkpt lat="46.26426" lon="6.80353">
        <ele>1770.2</ele>
        <time>2022-03-06T11:10:58Z</time>
      </trkpt>
      <trkpt lat="46.26426" lon="6.80353">
        <ele>1770.4</ele>
        <time>2022-03-06T11:10:59Z</time>
      </trkpt>
      <trkpt lat="46.26425" lon="6.80353">
        <ele>1770.6</ele>
        <time>2022-03-06T11:11:00Z</time>
      </trkpt>
      <trkpt lat="46.26424" lon="6.80352">
        <ele>1770.6</ele>
        <time>2022-03-06T11:11:01Z</time>
      </trkpt>
      <trkpt lat="46.26424" lon="6.80352">
        <ele>1770.8</ele>
        <time>2022-03-06T11:11:02Z</time>
      </trkpt>
      <trkpt lat="46.26423" lon="6.80351">
        <ele>1770.8</ele>
        <time>2022-03-06T11:11:03Z</time>
      </trkpt>
      <trkpt lat="46.26423" lon="6.80351">
        <ele>1771</ele>
        <time>2022-03-06T11:11:04Z</time>
      </trkpt>
      <trkpt lat="46.26422" lon="6.8035">
        <ele>1771</ele>
        <time>2022-03-06T11:11:05Z</time>
      </trkpt>
      <trkpt lat="46.26422" lon="6.80349">
        <ele>1771.2</ele>
        <time>2022-03-06T11:11:06Z</time>
      </trkpt>
      <trkpt lat="46.26421" lon="6.80349">
        <ele>1771.4</ele>
        <time>2022-03-06T11:11:07Z</time>
      </trkpt>
      <trkpt lat="46.26421" lon="6.80348">
        <ele>1771.6</ele>
        <time>2022-03-06T11:11:08Z</time>
      </trkpt>
      <trkpt lat="46.2642" lon="6.80347">
        <ele>1771.6</ele>
        <time>2022-03-06T11:11:09Z</time>
      </trkpt>
      <trkpt lat="46.2642" lon="6.80347">
        <ele>1771.6</ele>
        <time>2022-03-06T11:11:10Z</time>
      </trkpt>
      <trkpt lat="46.26419" lon="6.80346">
        <ele>1772</ele>
        <time>2022-03-06T11:11:11Z</time>
      </trkpt>
      <trkpt lat="46.26419" lon="6.80345">
        <ele>1772</ele>
        <time>2022-03-06T11:11:12Z</time>
      </trkpt>
      <trkpt lat="46.26419" lon="6.80344">
        <ele>1772</ele>
        <time>2022-03-06T11:11:13Z</time>
      </trkpt>
      <trkpt lat="46.26418" lon="6.80344">
        <ele>1772.2</ele>
        <time>2022-03-06T11:11:14Z</time>
      </trkpt>
      <trkpt lat="46.26418" lon="6.80343">
        <ele>1772.4</ele>
        <time>2022-03-06T11:11:15Z</time>
      </trkpt>
      <trkpt lat="46.26418" lon="6.80342">
        <ele>1772.4</ele>
        <time>2022-03-06T11:11:16Z</time>
      </trkpt>
      <trkpt lat="46.26418" lon="6.80341">
        <ele>1772.6</ele>
        <time>2022-03-06T11:11:17Z</time>
      </trkpt>
      <trkpt lat="46.26417" lon="6.80341">
        <ele>1772.6</ele>
        <time>2022-03-06T11:11:18Z</time>
      </trkpt>
      <trkpt lat="46.26417" lon="6.8034">
        <ele>1773</ele>
        <time>2022-03-06T11:11:19Z</time>
      </trkpt>
      <trkpt lat="46.26416" lon="6.80339">
        <ele>1772.8</ele>
        <time>2022-03-06T11:11:20Z</time>
      </trkpt>
      <trkpt lat="46.26416" lon="6.80339">
        <ele>1773</ele>
        <time>2022-03-06T11:11:21Z</time>
      </trkpt>
      <trkpt lat="46.26415" lon="6.80338">
        <ele>1773</ele>
        <time>2022-03-06T11:11:22Z</time>
      </trkpt>
      <trkpt lat="46.26414" lon="6.80337">
        <ele>1773.2</ele>
        <time>2022-03-06T11:11:23Z</time>
      </trkpt>
      <trkpt lat="46.26414" lon="6.80336">
        <ele>1773.2</ele>
        <time>2022-03-06T11:11:24Z</time>
      </trkpt>
      <trkpt lat="46.26413" lon="6.80335">
        <ele>1773.2</ele>
        <time>2022-03-06T11:11:25Z</time>
      </trkpt>
      <trkpt lat="46.26412" lon="6.80335">
        <ele>1773.2</ele>
        <time>2022-03-06T11:11:26Z</time>
      </trkpt>
      <trkpt lat="46.26412" lon="6.80334">
        <ele>1773.6</ele>
        <time>2022-03-06T11:11:27Z</time>
      </trkpt>
      <trkpt lat="46.26411" lon="6.80334">
        <ele>1773.6</ele>
        <time>2022-03-06T11:11:28Z</time>
      </trkpt>
      <trkpt lat="46.2641" lon="6.80332">
        <ele>1773.6</ele>
        <time>2022-03-06T11:11:30Z</time>
      </trkpt>
      <trkpt lat="46.2641" lon="6.80332">
        <ele>1773.6</ele>
        <time>2022-03-06T11:11:31Z</time>
      </trkpt>
      <trkpt lat="46.26406" lon="6.8033">
        <ele>1774</ele>
        <time>2022-03-06T11:11:34Z</time>
      </trkpt>
      <trkpt lat="46.26406" lon="6.80329">
        <ele>1774</ele>
        <time>2022-03-06T11:11:35Z</time>
      </trkpt>
      <trkpt lat="46.26398" lon="6.80325">
        <ele>1774.8</ele>
        <time>2022-03-06T11:11:42Z</time>
      </trkpt>
      <trkpt lat="46.26397" lon="6.80324">
        <ele>1774.8</ele>
        <time>2022-03-06T11:11:43Z</time>
      </trkpt>
      <trkpt lat="46.26396" lon="6.80324">
        <ele>1774.8</ele>
        <time>2022-03-06T11:11:44Z</time>
      </trkpt>
      <trkpt lat="46.26396" lon="6.80323">
        <ele>1775</ele>
        <time>2022-03-06T11:11:45Z</time>
      </trkpt>
      <trkpt lat="46.26394" lon="6.80323">
        <ele>1775.2</ele>
        <time>2022-03-06T11:11:46Z</time>
      </trkpt>
      <trkpt lat="46.26394" lon="6.80323">
        <ele>1775.2</ele>
        <time>2022-03-06T11:11:47Z</time>
      </trkpt>
      <trkpt lat="46.26393" lon="6.80323">
        <ele>1775.4</ele>
        <time>2022-03-06T11:11:48Z</time>
      </trkpt>
      <trkpt lat="46.26392" lon="6.80322">
        <ele>1775.6</ele>
        <time>2022-03-06T11:11:49Z</time>
      </trkpt>
      <trkpt lat="46.26391" lon="6.80322">
        <ele>1775.6</ele>
        <time>2022-03-06T11:11:50Z</time>
      </trkpt>
      <trkpt lat="46.2639" lon="6.80322">
        <ele>1775.6</ele>
        <time>2022-03-06T11:11:51Z</time>
      </trkpt>
      <trkpt lat="46.26389" lon="6.80322">
        <ele>1775.8</ele>
        <time>2022-03-06T11:11:52Z</time>
      </trkpt>
      <trkpt lat="46.26388" lon="6.80322">
        <ele>1776</ele>
        <time>2022-03-06T11:11:53Z</time>
      </trkpt>
      <trkpt lat="46.26387" lon="6.80322">
        <ele>1776.2</ele>
        <time>2022-03-06T11:11:54Z</time>
      </trkpt>
      <trkpt lat="46.26386" lon="6.80322">
        <ele>1776.2</ele>
        <time>2022-03-06T11:11:55Z</time>
      </trkpt>
      <trkpt lat="46.26385" lon="6.80322">
        <ele>1776.6</ele>
        <time>2022-03-06T11:11:56Z</time>
      </trkpt>
      <trkpt lat="46.26384" lon="6.80322">
        <ele>1776.6</ele>
        <time>2022-03-06T11:11:57Z</time>
      </trkpt>
      <trkpt lat="46.26383" lon="6.80322">
        <ele>1776.6</ele>
        <time>2022-03-06T11:11:58Z</time>
      </trkpt>
      <trkpt lat="46.26382" lon="6.80322">
        <ele>1777</ele>
        <time>2022-03-06T11:11:59Z</time>
      </trkpt>
      <trkpt lat="46.26382" lon="6.80322">
        <ele>1777.2</ele>
        <time>2022-03-06T11:12:00Z</time>
      </trkpt>
      <trkpt lat="46.26381" lon="6.80322">
        <ele>1777</ele>
        <time>2022-03-06T11:12:01Z</time>
      </trkpt>
      <trkpt lat="46.2638" lon="6.80322">
        <ele>1777.4</ele>
        <time>2022-03-06T11:12:02Z</time>
      </trkpt>
      <trkpt lat="46.26379" lon="6.80321">
        <ele>1777.4</ele>
        <time>2022-03-06T11:12:03Z</time>
      </trkpt>
      <trkpt lat="46.26378" lon="6.80321">
        <ele>1777.6</ele>
        <time>2022-03-06T11:12:04Z</time>
      </trkpt>
      <trkpt lat="46.26378" lon="6.80321">
        <ele>1777.8</ele>
        <time>2022-03-06T11:12:05Z</time>
      </trkpt>
      <trkpt lat="46.26378" lon="6.8032">
        <ele>1778</ele>
        <time>2022-03-06T11:12:06Z</time>
      </trkpt>
      <trkpt lat="46.26377" lon="6.80319">
        <ele>1778.2</ele>
        <time>2022-03-06T11:12:07Z</time>
      </trkpt>
      <trkpt lat="46.26376" lon="6.8032">
        <ele>1778.2</ele>
        <time>2022-03-06T11:12:08Z</time>
      </trkpt>
      <trkpt lat="46.26376" lon="6.80319">
        <ele>1778.6</ele>
        <time>2022-03-06T11:12:09Z</time>
      </trkpt>
      <trkpt lat="46.26375" lon="6.80319">
        <ele>1778.8</ele>
        <time>2022-03-06T11:12:10Z</time>
      </trkpt>
      <trkpt lat="46.26375" lon="6.80319">
        <ele>1779</ele>
        <time>2022-03-06T11:12:11Z</time>
      </trkpt>
      <trkpt lat="46.26374" lon="6.8032">
        <ele>1779</ele>
        <time>2022-03-06T11:12:12Z</time>
      </trkpt>
      <trkpt lat="46.26372" lon="6.80321">
        <ele>1779.2</ele>
        <time>2022-03-06T11:12:13Z</time>
      </trkpt>
      <trkpt lat="46.2637" lon="6.80322">
        <ele>1779.2</ele>
        <time>2022-03-06T11:12:14Z</time>
      </trkpt>
      <trkpt lat="46.2637" lon="6.80323">
        <ele>1779.4</ele>
        <time>2022-03-06T11:12:15Z</time>
      </trkpt>
      <trkpt lat="46.26369" lon="6.80323">
        <ele>1779.4</ele>
        <time>2022-03-06T11:12:16Z</time>
      </trkpt>
      <trkpt lat="46.26368" lon="6.80325">
        <ele>1779.6</ele>
        <time>2022-03-06T11:12:17Z</time>
      </trkpt>
      <trkpt lat="46.26366" lon="6.80326">
        <ele>1779.6</ele>
        <time>2022-03-06T11:12:18Z</time>
      </trkpt>
      <trkpt lat="46.26365" lon="6.80326">
        <ele>1780</ele>
        <time>2022-03-06T11:12:19Z</time>
      </trkpt>
      <trkpt lat="46.26365" lon="6.80327">
        <ele>1780</ele>
        <time>2022-03-06T11:12:20Z</time>
      </trkpt>
      <trkpt lat="46.26364" lon="6.80328">
        <ele>1780.2</ele>
        <time>2022-03-06T11:12:21Z</time>
      </trkpt>
      <trkpt lat="46.26363" lon="6.80328">
        <ele>1780.6</ele>
        <time>2022-03-06T11:12:22Z</time>
      </trkpt>
      <trkpt lat="46.26362" lon="6.80328">
        <ele>1780.6</ele>
        <time>2022-03-06T11:12:23Z</time>
      </trkpt>
      <trkpt lat="46.26362" lon="6.80329">
        <ele>1780.8</ele>
        <time>2022-03-06T11:12:24Z</time>
      </trkpt>
      <trkpt lat="46.26361" lon="6.80329">
        <ele>1781</ele>
        <time>2022-03-06T11:12:25Z</time>
      </trkpt>
      <trkpt lat="46.2636" lon="6.8033">
        <ele>1781.2</ele>
        <time>2022-03-06T11:12:26Z</time>
      </trkpt>
      <trkpt lat="46.26359" lon="6.8033">
        <ele>1781.4</ele>
        <time>2022-03-06T11:12:27Z</time>
      </trkpt>
      <trkpt lat="46.26358" lon="6.8033">
        <ele>1781.4</ele>
        <time>2022-03-06T11:12:28Z</time>
      </trkpt>
      <trkpt lat="46.26358" lon="6.8033">
        <ele>1781.6</ele>
        <time>2022-03-06T11:12:29Z</time>
      </trkpt>
      <trkpt lat="46.26357" lon="6.80331">
        <ele>1781.8</ele>
        <time>2022-03-06T11:12:30Z</time>
      </trkpt>
      <trkpt lat="46.26357" lon="6.80331">
        <ele>1782.2</ele>
        <time>2022-03-06T11:12:31Z</time>
      </trkpt>
      <trkpt lat="46.26356" lon="6.80331">
        <ele>1782.4</ele>
        <time>2022-03-06T11:12:32Z</time>
      </trkpt>
      <trkpt lat="46.26355" lon="6.80331">
        <ele>1782.4</ele>
        <time>2022-03-06T11:12:33Z</time>
      </trkpt>
      <trkpt lat="46.26354" lon="6.80331">
        <ele>1782.6</ele>
        <time>2022-03-06T11:12:34Z</time>
      </trkpt>
      <trkpt lat="46.26354" lon="6.80331">
        <ele>1782.6</ele>
        <time>2022-03-06T11:12:35Z</time>
      </trkpt>
      <trkpt lat="46.26353" lon="6.80331">
        <ele>1782.8</ele>
        <time>2022-03-06T11:12:36Z</time>
      </trkpt>
      <trkpt lat="46.26351" lon="6.80331">
        <ele>1783.2</ele>
        <time>2022-03-06T11:12:37Z</time>
      </trkpt>
      <trkpt lat="46.2635" lon="6.8033">
        <ele>1783.2</ele>
        <time>2022-03-06T11:12:38Z</time>
      </trkpt>
      <trkpt lat="46.26349" lon="6.8033">
        <ele>1783.4</ele>
        <time>2022-03-06T11:12:39Z</time>
      </trkpt>
      <trkpt lat="46.26348" lon="6.80329">
        <ele>1783.8</ele>
        <time>2022-03-06T11:12:40Z</time>
      </trkpt>
      <trkpt lat="46.26347" lon="6.80329">
        <ele>1783.8</ele>
        <time>2022-03-06T11:12:41Z</time>
      </trkpt>
      <trkpt lat="46.26346" lon="6.80328">
        <ele>1784</ele>
        <time>2022-03-06T11:12:42Z</time>
      </trkpt>
      <trkpt lat="46.26345" lon="6.80327">
        <ele>1784.4</ele>
        <time>2022-03-06T11:12:43Z</time>
      </trkpt>
      <trkpt lat="46.26344" lon="6.80327">
        <ele>1784.4</ele>
        <time>2022-03-06T11:12:44Z</time>
      </trkpt>
      <trkpt lat="46.26343" lon="6.80327">
        <ele>1784.6</ele>
        <time>2022-03-06T11:12:45Z</time>
      </trkpt>
      <trkpt lat="46.26343" lon="6.80326">
        <ele>1784.8</ele>
        <time>2022-03-06T11:12:46Z</time>
      </trkpt>
      <trkpt lat="46.26341" lon="6.80326">
        <ele>1785</ele>
        <time>2022-03-06T11:12:47Z</time>
      </trkpt>
      <trkpt lat="46.26341" lon="6.80325">
        <ele>1785.2</ele>
        <time>2022-03-06T11:12:48Z</time>
      </trkpt>
      <trkpt lat="46.26339" lon="6.80324">
        <ele>1785.2</ele>
        <time>2022-03-06T11:12:49Z</time>
      </trkpt>
      <trkpt lat="46.26338" lon="6.80323">
        <ele>1785.4</ele>
        <time>2022-03-06T11:12:50Z</time>
      </trkpt>
      <trkpt lat="46.26336" lon="6.80323">
        <ele>1785.4</ele>
        <time>2022-03-06T11:12:51Z</time>
      </trkpt>
      <trkpt lat="46.26335" lon="6.80322">
        <ele>1785.6</ele>
        <time>2022-03-06T11:12:52Z</time>
      </trkpt>
      <trkpt lat="46.26334" lon="6.80322">
        <ele>1785.6</ele>
        <time>2022-03-06T11:12:53Z</time>
      </trkpt>
      <trkpt lat="46.26333" lon="6.80322">
        <ele>1785.8</ele>
        <time>2022-03-06T11:12:54Z</time>
      </trkpt>
      <trkpt lat="46.26332" lon="6.80322">
        <ele>1786</ele>
        <time>2022-03-06T11:12:55Z</time>
      </trkpt>
      <trkpt lat="46.26332" lon="6.80322">
        <ele>1786.2</ele>
        <time>2022-03-06T11:12:56Z</time>
      </trkpt>
      <trkpt lat="46.26331" lon="6.80321">
        <ele>1786.4</ele>
        <time>2022-03-06T11:12:57Z</time>
      </trkpt>
      <trkpt lat="46.2633" lon="6.8032">
        <ele>1786.4</ele>
        <time>2022-03-06T11:12:58Z</time>
      </trkpt>
      <trkpt lat="46.26329" lon="6.80321">
        <ele>1786.6</ele>
        <time>2022-03-06T11:12:59Z</time>
      </trkpt>
      <trkpt lat="46.26328" lon="6.80321">
        <ele>1786.8</ele>
        <time>2022-03-06T11:13:00Z</time>
      </trkpt>
      <trkpt lat="46.26328" lon="6.80321">
        <ele>1786.8</ele>
        <time>2022-03-06T11:13:01Z</time>
      </trkpt>
      <trkpt lat="46.26327" lon="6.8032">
        <ele>1787</ele>
        <time>2022-03-06T11:13:02Z</time>
      </trkpt>
      <trkpt lat="46.26327" lon="6.8032">
        <ele>1787</ele>
        <time>2022-03-06T11:13:03Z</time>
      </trkpt>
      <trkpt lat="46.26326" lon="6.8032">
        <ele>1787</ele>
        <time>2022-03-06T11:13:04Z</time>
      </trkpt>
      <trkpt lat="46.26326" lon="6.80321">
        <ele>1787.2</ele>
        <time>2022-03-06T11:13:05Z</time>
      </trkpt>
      <trkpt lat="46.26326" lon="6.80321">
        <ele>1787.4</ele>
        <time>2022-03-06T11:13:06Z</time>
      </trkpt>
      <trkpt lat="46.26325" lon="6.80321">
        <ele>1787.6</ele>
        <time>2022-03-06T11:13:07Z</time>
      </trkpt>
      <trkpt lat="46.26325" lon="6.80321">
        <ele>1787.8</ele>
        <time>2022-03-06T11:13:08Z</time>
      </trkpt>
      <trkpt lat="46.26324" lon="6.80321">
        <ele>1788</ele>
        <time>2022-03-06T11:13:09Z</time>
      </trkpt>
      <trkpt lat="46.26324" lon="6.80321">
        <ele>1788.2</ele>
        <time>2022-03-06T11:13:10Z</time>
      </trkpt>
      <trkpt lat="46.26323" lon="6.80321">
        <ele>1788.2</ele>
        <time>2022-03-06T11:13:11Z</time>
      </trkpt>
      <trkpt lat="46.26322" lon="6.80321">
        <ele>1788.6</ele>
        <time>2022-03-06T11:13:12Z</time>
      </trkpt>
      <trkpt lat="46.26322" lon="6.80321">
        <ele>1788.6</ele>
        <time>2022-03-06T11:13:13Z</time>
      </trkpt>
      <trkpt lat="46.26321" lon="6.80321">
        <ele>1788.8</ele>
        <time>2022-03-06T11:13:14Z</time>
      </trkpt>
      <trkpt lat="46.2632" lon="6.80321">
        <ele>1789</ele>
        <time>2022-03-06T11:13:15Z</time>
      </trkpt>
      <trkpt lat="46.2632" lon="6.80322">
        <ele>1789.2</ele>
        <time>2022-03-06T11:13:16Z</time>
      </trkpt>
      <trkpt lat="46.26319" lon="6.80322">
        <ele>1789.4</ele>
        <time>2022-03-06T11:13:17Z</time>
      </trkpt>
      <trkpt lat="46.26317" lon="6.80323">
        <ele>1789.4</ele>
        <time>2022-03-06T11:13:18Z</time>
      </trkpt>
      <trkpt lat="46.26316" lon="6.80323">
        <ele>1789.6</ele>
        <time>2022-03-06T11:13:19Z</time>
      </trkpt>
      <trkpt lat="46.26314" lon="6.80324">
        <ele>1789.6</ele>
        <time>2022-03-06T11:13:20Z</time>
      </trkpt>
      <trkpt lat="46.26313" lon="6.80323">
        <ele>1789.6</ele>
        <time>2022-03-06T11:13:21Z</time>
      </trkpt>
      <trkpt lat="46.26311" lon="6.80323">
        <ele>1789.8</ele>
        <time>2022-03-06T11:13:22Z</time>
      </trkpt>
      <trkpt lat="46.2631" lon="6.80323">
        <ele>1790</ele>
        <time>2022-03-06T11:13:23Z</time>
      </trkpt>
      <trkpt lat="46.26308" lon="6.80324">
        <ele>1790.2</ele>
        <time>2022-03-06T11:13:24Z</time>
      </trkpt>
      <trkpt lat="46.26307" lon="6.80324">
        <ele>1790.4</ele>
        <time>2022-03-06T11:13:25Z</time>
      </trkpt>
      <trkpt lat="46.26306" lon="6.80325">
        <ele>1790.4</ele>
        <time>2022-03-06T11:13:26Z</time>
      </trkpt>
      <trkpt lat="46.26305" lon="6.80325">
        <ele>1790.6</ele>
        <time>2022-03-06T11:13:27Z</time>
      </trkpt>
      <trkpt lat="46.26304" lon="6.80325">
        <ele>1791</ele>
        <time>2022-03-06T11:13:28Z</time>
      </trkpt>
      <trkpt lat="46.26303" lon="6.80325">
        <ele>1791</ele>
        <time>2022-03-06T11:13:29Z</time>
      </trkpt>
      <trkpt lat="46.26303" lon="6.80325">
        <ele>1791.2</ele>
        <time>2022-03-06T11:13:30Z</time>
      </trkpt>
      <trkpt lat="46.26302" lon="6.80325">
        <ele>1791.4</ele>
        <time>2022-03-06T11:13:31Z</time>
      </trkpt>
      <trkpt lat="46.26302" lon="6.80326">
        <ele>1791.6</ele>
        <time>2022-03-06T11:13:32Z</time>
      </trkpt>
      <trkpt lat="46.26301" lon="6.80325">
        <ele>1792</ele>
        <time>2022-03-06T11:13:33Z</time>
      </trkpt>
      <trkpt lat="46.26301" lon="6.80325">
        <ele>1792.2</ele>
        <time>2022-03-06T11:13:34Z</time>
      </trkpt>
      <trkpt lat="46.263" lon="6.80325">
        <ele>1792.4</ele>
        <time>2022-03-06T11:13:35Z</time>
      </trkpt>
      <trkpt lat="46.26299" lon="6.80325">
        <ele>1792.6</ele>
        <time>2022-03-06T11:13:36Z</time>
      </trkpt>
      <trkpt lat="46.26298" lon="6.80325">
        <ele>1793</ele>
        <time>2022-03-06T11:13:37Z</time>
      </trkpt>
      <trkpt lat="46.26298" lon="6.80325">
        <ele>1793</ele>
        <time>2022-03-06T11:13:38Z</time>
      </trkpt>
      <trkpt lat="46.26297" lon="6.80325">
        <ele>1793.4</ele>
        <time>2022-03-06T11:13:39Z</time>
      </trkpt>
      <trkpt lat="46.26297" lon="6.80325">
        <ele>1793.2</ele>
        <time>2022-03-06T11:13:40Z</time>
      </trkpt>
      <trkpt lat="46.26296" lon="6.80324">
        <ele>1793.6</ele>
        <time>2022-03-06T11:13:41Z</time>
      </trkpt>
      <trkpt lat="46.26296" lon="6.80324">
        <ele>1793.8</ele>
        <time>2022-03-06T11:13:42Z</time>
      </trkpt>
      <trkpt lat="46.26296" lon="6.80324">
        <ele>1793.8</ele>
        <time>2022-03-06T11:13:43Z</time>
      </trkpt>
      <trkpt lat="46.26296" lon="6.80324">
        <ele>1794</ele>
        <time>2022-03-06T11:13:44Z</time>
      </trkpt>
      <trkpt lat="46.26297" lon="6.80324">
        <ele>1794</ele>
        <time>2022-03-06T11:13:45Z</time>
      </trkpt>
      <trkpt lat="46.26298" lon="6.80324">
        <ele>1794.2</ele>
        <time>2022-03-06T11:13:46Z</time>
      </trkpt>
      <trkpt lat="46.26298" lon="6.80324">
        <ele>1794.6</ele>
        <time>2022-03-06T11:13:47Z</time>
      </trkpt>
      <trkpt lat="46.26298" lon="6.80324">
        <ele>1794.6</ele>
        <time>2022-03-06T11:13:48Z</time>
      </trkpt>
      <trkpt lat="46.26298" lon="6.80324">
        <ele>1794.6</ele>
        <time>2022-03-06T11:13:49Z</time>
      </trkpt>
      <trkpt lat="46.26298" lon="6.80323">
        <ele>1794.8</ele>
        <time>2022-03-06T11:13:50Z</time>
      </trkpt>
      <trkpt lat="46.26299" lon="6.80323">
        <ele>1795</ele>
        <time>2022-03-06T11:13:51Z</time>
      </trkpt>
      <trkpt lat="46.26299" lon="6.80322">
        <ele>1795.2</ele>
        <time>2022-03-06T11:13:52Z</time>
      </trkpt>
      <trkpt lat="46.26299" lon="6.80322">
        <ele>1795.6</ele>
        <time>2022-03-06T11:13:53Z</time>
      </trkpt>
      <trkpt lat="46.26299" lon="6.80321">
        <ele>1795.6</ele>
        <time>2022-03-06T11:13:54Z</time>
      </trkpt>
      <trkpt lat="46.26298" lon="6.80321">
        <ele>1796</ele>
        <time>2022-03-06T11:13:55Z</time>
      </trkpt>
      <trkpt lat="46.26298" lon="6.80321">
        <ele>1796</ele>
        <time>2022-03-06T11:13:56Z</time>
      </trkpt>
      <trkpt lat="46.26298" lon="6.80321">
        <ele>1796.2</ele>
        <time>2022-03-06T11:13:57Z</time>
      </trkpt>
      <trkpt lat="46.26298" lon="6.80321">
        <ele>1796.2</ele>
        <time>2022-03-06T11:13:58Z</time>
      </trkpt>
      <trkpt lat="46.26298" lon="6.80321">
        <ele>1796.4</ele>
        <time>2022-03-06T11:13:59Z</time>
      </trkpt>
      <trkpt lat="46.26298" lon="6.80321">
        <ele>1796.8</ele>
        <time>2022-03-06T11:14:00Z</time>
      </trkpt>
      <trkpt lat="46.26297" lon="6.80321">
        <ele>1796.8</ele>
        <time>2022-03-06T11:14:01Z</time>
      </trkpt>
      <trkpt lat="46.26297" lon="6.80321">
        <ele>1797</ele>
        <time>2022-03-06T11:14:02Z</time>
      </trkpt>
      <trkpt lat="46.26297" lon="6.8032">
        <ele>1797.2</ele>
        <time>2022-03-06T11:14:03Z</time>
      </trkpt>
      <trkpt lat="46.26295" lon="6.8032">
        <ele>1797</ele>
        <time>2022-03-06T11:14:04Z</time>
      </trkpt>
      <trkpt lat="46.26295" lon="6.8032">
        <ele>1797</ele>
        <time>2022-03-06T11:14:05Z</time>
      </trkpt>
      <trkpt lat="46.26295" lon="6.8032">
        <ele>1797.2</ele>
        <time>2022-03-06T11:14:06Z</time>
      </trkpt>
      <trkpt lat="46.26295" lon="6.80319">
        <ele>1797.4</ele>
        <time>2022-03-06T11:14:07Z</time>
      </trkpt>
      <trkpt lat="46.26294" lon="6.8032">
        <ele>1797.6</ele>
        <time>2022-03-06T11:14:08Z</time>
      </trkpt>
      <trkpt lat="46.26293" lon="6.8032">
        <ele>1797.6</ele>
        <time>2022-03-06T11:14:09Z</time>
      </trkpt>
      <trkpt lat="46.26293" lon="6.80319">
        <ele>1798</ele>
        <time>2022-03-06T11:14:10Z</time>
      </trkpt>
      <trkpt lat="46.26293" lon="6.80319">
        <ele>1798.2</ele>
        <time>2022-03-06T11:14:11Z</time>
      </trkpt>
      <trkpt lat="46.26292" lon="6.80318">
        <ele>1798.4</ele>
        <time>2022-03-06T11:14:12Z</time>
      </trkpt>
      <trkpt lat="46.26291" lon="6.80319">
        <ele>1798.6</ele>
        <time>2022-03-06T11:14:13Z</time>
      </trkpt>
      <trkpt lat="46.26291" lon="6.80318">
        <ele>1798.8</ele>
        <time>2022-03-06T11:14:14Z</time>
      </trkpt>
      <trkpt lat="46.2629" lon="6.80318">
        <ele>1799</ele>
        <time>2022-03-06T11:14:15Z</time>
      </trkpt>
      <trkpt lat="46.2629" lon="6.80318">
        <ele>1799.2</ele>
        <time>2022-03-06T11:14:16Z</time>
      </trkpt>
      <trkpt lat="46.2629" lon="6.80317">
        <ele>1799.4</ele>
        <time>2022-03-06T11:14:17Z</time>
      </trkpt>
      <trkpt lat="46.26289" lon="6.80317">
        <ele>1799.6</ele>
        <time>2022-03-06T11:14:18Z</time>
      </trkpt>
      <trkpt lat="46.26289" lon="6.80316">
        <ele>1799.8</ele>
        <time>2022-03-06T11:14:19Z</time>
      </trkpt>
      <trkpt lat="46.26289" lon="6.80315">
        <ele>1800</ele>
        <time>2022-03-06T11:14:20Z</time>
      </trkpt>
      <trkpt lat="46.26289" lon="6.80314">
        <ele>1800.2</ele>
        <time>2022-03-06T11:14:21Z</time>
      </trkpt>
      <trkpt lat="46.26288" lon="6.80314">
        <ele>1800.2</ele>
        <time>2022-03-06T11:14:22Z</time>
      </trkpt>
      <trkpt lat="46.26288" lon="6.80313">
        <ele>1800.4</ele>
        <time>2022-03-06T11:14:23Z</time>
      </trkpt>
      <trkpt lat="46.26288" lon="6.80312">
        <ele>1800.6</ele>
        <time>2022-03-06T11:14:24Z</time>
      </trkpt>
      <trkpt lat="46.26288" lon="6.80311">
        <ele>1800.8</ele>
        <time>2022-03-06T11:14:25Z</time>
      </trkpt>
      <trkpt lat="46.26287" lon="6.8031">
        <ele>1801</ele>
        <time>2022-03-06T11:14:26Z</time>
      </trkpt>
      <trkpt lat="46.26287" lon="6.80309">
        <ele>1801</ele>
        <time>2022-03-06T11:14:27Z</time>
      </trkpt>
      <trkpt lat="46.26286" lon="6.80308">
        <ele>1801</ele>
        <time>2022-03-06T11:14:28Z</time>
      </trkpt>
      <trkpt lat="46.26286" lon="6.80307">
        <ele>1801.2</ele>
        <time>2022-03-06T11:14:29Z</time>
      </trkpt>
      <trkpt lat="46.26286" lon="6.80305">
        <ele>1801.4</ele>
        <time>2022-03-06T11:14:30Z</time>
      </trkpt>
      <trkpt lat="46.26286" lon="6.80304">
        <ele>1801.8</ele>
        <time>2022-03-06T11:14:31Z</time>
      </trkpt>
      <trkpt lat="46.26285" lon="6.80304">
        <ele>1801.8</ele>
        <time>2022-03-06T11:14:32Z</time>
      </trkpt>
      <trkpt lat="46.26285" lon="6.80303">
        <ele>1802</ele>
        <time>2022-03-06T11:14:33Z</time>
      </trkpt>
      <trkpt lat="46.26285" lon="6.80302">
        <ele>1802.2</ele>
        <time>2022-03-06T11:14:34Z</time>
      </trkpt>
      <trkpt lat="46.26285" lon="6.80301">
        <ele>1802.4</ele>
        <time>2022-03-06T11:14:35Z</time>
      </trkpt>
      <trkpt lat="46.26286" lon="6.803">
        <ele>1802.6</ele>
        <time>2022-03-06T11:14:36Z</time>
      </trkpt>
      <trkpt lat="46.26285" lon="6.803">
        <ele>1802.6</ele>
        <time>2022-03-06T11:14:37Z</time>
      </trkpt>
      <trkpt lat="46.26285" lon="6.80299">
        <ele>1803</ele>
        <time>2022-03-06T11:14:38Z</time>
      </trkpt>
      <trkpt lat="46.26285" lon="6.80299">
        <ele>1803</ele>
        <time>2022-03-06T11:14:39Z</time>
      </trkpt>
      <trkpt lat="46.26285" lon="6.80299">
        <ele>1803.4</ele>
        <time>2022-03-06T11:14:40Z</time>
      </trkpt>
      <trkpt lat="46.26285" lon="6.80298">
        <ele>1803.4</ele>
        <time>2022-03-06T11:14:41Z</time>
      </trkpt>
      <trkpt lat="46.26285" lon="6.80298">
        <ele>1803.6</ele>
        <time>2022-03-06T11:14:42Z</time>
      </trkpt>
      <trkpt lat="46.26285" lon="6.80298">
        <ele>1803.8</ele>
        <time>2022-03-06T11:14:43Z</time>
      </trkpt>
      <trkpt lat="46.26285" lon="6.80297">
        <ele>1803.8</ele>
        <time>2022-03-06T11:14:44Z</time>
      </trkpt>
      <trkpt lat="46.26288" lon="6.80295">
        <ele>1804.6</ele>
        <time>2022-03-06T11:14:55Z</time>
      </trkpt>
      <trkpt lat="46.26291" lon="6.80295">
        <ele>1804.6</ele>
        <time>2022-03-06T11:15:11Z</time>
      </trkpt>
      <trkpt lat="46.2629" lon="6.80291">
        <ele>1804.6</ele>
        <time>2022-03-06T11:15:20Z</time>
      </trkpt>
      <trkpt lat="46.2629" lon="6.8029">
        <ele>1804.6</ele>
        <time>2022-03-06T11:15:21Z</time>
      </trkpt>
      <trkpt lat="46.26289" lon="6.80289">
        <ele>1804.6</ele>
        <time>2022-03-06T11:15:22Z</time>
      </trkpt>
      <trkpt lat="46.26289" lon="6.80289">
        <ele>1804.8</ele>
        <time>2022-03-06T11:15:23Z</time>
      </trkpt>
      <trkpt lat="46.26288" lon="6.80287">
        <ele>1804.8</ele>
        <time>2022-03-06T11:15:25Z</time>
      </trkpt>
      <trkpt lat="46.26287" lon="6.80285">
        <ele>1805.2</ele>
        <time>2022-03-06T11:15:27Z</time>
      </trkpt>
      <trkpt lat="46.26286" lon="6.80284">
        <ele>1805.4</ele>
        <time>2022-03-06T11:15:28Z</time>
      </trkpt>
      <trkpt lat="46.26285" lon="6.80284">
        <ele>1805.6</ele>
        <time>2022-03-06T11:15:29Z</time>
      </trkpt>
      <trkpt lat="46.26285" lon="6.80284">
        <ele>1805.8</ele>
        <time>2022-03-06T11:15:30Z</time>
      </trkpt>
      <trkpt lat="46.26285" lon="6.80283">
        <ele>1806</ele>
        <time>2022-03-06T11:15:31Z</time>
      </trkpt>
      <trkpt lat="46.26284" lon="6.80282">
        <ele>1806.6</ele>
        <time>2022-03-06T11:15:32Z</time>
      </trkpt>
      <trkpt lat="46.26284" lon="6.80282">
        <ele>1807</ele>
        <time>2022-03-06T11:15:33Z</time>
      </trkpt>
      <trkpt lat="46.26284" lon="6.80281">
        <ele>1807.2</ele>
        <time>2022-03-06T11:15:34Z</time>
      </trkpt>
      <trkpt lat="46.26284" lon="6.80278">
        <ele>1807.2</ele>
        <time>2022-03-06T11:15:35Z</time>
      </trkpt>
      <trkpt lat="46.26284" lon="6.80276">
        <ele>1807.4</ele>
        <time>2022-03-06T11:15:36Z</time>
      </trkpt>
      <trkpt lat="46.26283" lon="6.80275">
        <ele>1807.8</ele>
        <time>2022-03-06T11:15:37Z</time>
      </trkpt>
      <trkpt lat="46.26283" lon="6.80274">
        <ele>1808</ele>
        <time>2022-03-06T11:15:38Z</time>
      </trkpt>
      <trkpt lat="46.26283" lon="6.80273">
        <ele>1808.2</ele>
        <time>2022-03-06T11:15:39Z</time>
      </trkpt>
      <trkpt lat="46.26282" lon="6.80272">
        <ele>1808.4</ele>
        <time>2022-03-06T11:15:40Z</time>
      </trkpt>
      <trkpt lat="46.26282" lon="6.80271">
        <ele>1808.6</ele>
        <time>2022-03-06T11:15:41Z</time>
      </trkpt>
      <trkpt lat="46.26282" lon="6.8027">
        <ele>1808.8</ele>
        <time>2022-03-06T11:15:42Z</time>
      </trkpt>
      <trkpt lat="46.26282" lon="6.80269">
        <ele>1809</ele>
        <time>2022-03-06T11:15:43Z</time>
      </trkpt>
      <trkpt lat="46.26282" lon="6.80268">
        <ele>1809.2</ele>
        <time>2022-03-06T11:15:44Z</time>
      </trkpt>
      <trkpt lat="46.26282" lon="6.80267">
        <ele>1809.4</ele>
        <time>2022-03-06T11:15:45Z</time>
      </trkpt>
      <trkpt lat="46.26281" lon="6.80266">
        <ele>1809.8</ele>
        <time>2022-03-06T11:15:46Z</time>
      </trkpt>
      <trkpt lat="46.26281" lon="6.80265">
        <ele>1809.8</ele>
        <time>2022-03-06T11:15:47Z</time>
      </trkpt>
      <trkpt lat="46.2628" lon="6.80264">
        <ele>1810</ele>
        <time>2022-03-06T11:15:48Z</time>
      </trkpt>
      <trkpt lat="46.2628" lon="6.80263">
        <ele>1810</ele>
        <time>2022-03-06T11:15:49Z</time>
      </trkpt>
      <trkpt lat="46.26281" lon="6.80261">
        <ele>1810.2</ele>
        <time>2022-03-06T11:15:50Z</time>
      </trkpt>
      <trkpt lat="46.26281" lon="6.8026">
        <ele>1810.4</ele>
        <time>2022-03-06T11:15:51Z</time>
      </trkpt>
      <trkpt lat="46.26281" lon="6.80259">
        <ele>1810.6</ele>
        <time>2022-03-06T11:15:52Z</time>
      </trkpt>
      <trkpt lat="46.26282" lon="6.80258">
        <ele>1810.8</ele>
        <time>2022-03-06T11:15:53Z</time>
      </trkpt>
      <trkpt lat="46.26281" lon="6.80257">
        <ele>1811</ele>
        <time>2022-03-06T11:15:54Z</time>
      </trkpt>
      <trkpt lat="46.26282" lon="6.80256">
        <ele>1811</ele>
        <time>2022-03-06T11:15:55Z</time>
      </trkpt>
      <trkpt lat="46.26282" lon="6.80254">
        <ele>1811</ele>
        <time>2022-03-06T11:15:56Z</time>
      </trkpt>
      <trkpt lat="46.26282" lon="6.80253">
        <ele>1811</ele>
        <time>2022-03-06T11:15:57Z</time>
      </trkpt>
      <trkpt lat="46.26282" lon="6.80252">
        <ele>1811</ele>
        <time>2022-03-06T11:15:58Z</time>
      </trkpt>
      <trkpt lat="46.26282" lon="6.80251">
        <ele>1811.2</ele>
        <time>2022-03-06T11:15:59Z</time>
      </trkpt>
      <trkpt lat="46.26283" lon="6.80249">
        <ele>1811.2</ele>
        <time>2022-03-06T11:16:00Z</time>
      </trkpt>
      <trkpt lat="46.26283" lon="6.80248">
        <ele>1811.4</ele>
        <time>2022-03-06T11:16:01Z</time>
      </trkpt>
      <trkpt lat="46.26283" lon="6.80247">
        <ele>1811.4</ele>
        <time>2022-03-06T11:16:02Z</time>
      </trkpt>
      <trkpt lat="46.26282" lon="6.80246">
        <ele>1811.4</ele>
        <time>2022-03-06T11:16:03Z</time>
      </trkpt>
      <trkpt lat="46.26282" lon="6.80245">
        <ele>1811.4</ele>
        <time>2022-03-06T11:16:04Z</time>
      </trkpt>
      <trkpt lat="46.26282" lon="6.80245">
        <ele>1811.6</ele>
        <time>2022-03-06T11:16:05Z</time>
      </trkpt>
      <trkpt lat="46.26283" lon="6.80245">
        <ele>1811.8</ele>
        <time>2022-03-06T11:16:06Z</time>
      </trkpt>
      <trkpt lat="46.26283" lon="6.80244">
        <ele>1811.8</ele>
        <time>2022-03-06T11:16:07Z</time>
      </trkpt>
      <trkpt lat="46.26284" lon="6.80243">
        <ele>1811.8</ele>
        <time>2022-03-06T11:16:08Z</time>
      </trkpt>
      <trkpt lat="46.26284" lon="6.80242">
        <ele>1812</ele>
        <time>2022-03-06T11:16:09Z</time>
      </trkpt>
      <trkpt lat="46.26284" lon="6.80242">
        <ele>1812.2</ele>
        <time>2022-03-06T11:16:10Z</time>
      </trkpt>
      <trkpt lat="46.26284" lon="6.80241">
        <ele>1812.6</ele>
        <time>2022-03-06T11:16:11Z</time>
      </trkpt>
      <trkpt lat="46.26284" lon="6.8024">
        <ele>1812.6</ele>
        <time>2022-03-06T11:16:12Z</time>
      </trkpt>
      <trkpt lat="46.26285" lon="6.80238">
        <ele>1812.8</ele>
        <time>2022-03-06T11:16:13Z</time>
      </trkpt>
      <trkpt lat="46.26285" lon="6.80237">
        <ele>1813</ele>
        <time>2022-03-06T11:16:14Z</time>
      </trkpt>
      <trkpt lat="46.26286" lon="6.80236">
        <ele>1813</ele>
        <time>2022-03-06T11:16:15Z</time>
      </trkpt>
      <trkpt lat="46.26285" lon="6.80236">
        <ele>1813.2</ele>
        <time>2022-03-06T11:16:16Z</time>
      </trkpt>
      <trkpt lat="46.26285" lon="6.80235">
        <ele>1813.4</ele>
        <time>2022-03-06T11:16:17Z</time>
      </trkpt>
      <trkpt lat="46.26285" lon="6.80234">
        <ele>1813.4</ele>
        <time>2022-03-06T11:16:18Z</time>
      </trkpt>
      <trkpt lat="46.26285" lon="6.80232">
        <ele>1813.6</ele>
        <time>2022-03-06T11:16:19Z</time>
      </trkpt>
      <trkpt lat="46.26285" lon="6.80231">
        <ele>1813.6</ele>
        <time>2022-03-06T11:16:20Z</time>
      </trkpt>
      <trkpt lat="46.26285" lon="6.80229">
        <ele>1813.4</ele>
        <time>2022-03-06T11:16:21Z</time>
      </trkpt>
      <trkpt lat="46.26286" lon="6.80228">
        <ele>1813.6</ele>
        <time>2022-03-06T11:16:22Z</time>
      </trkpt>
      <trkpt lat="46.26285" lon="6.80227">
        <ele>1813.6</ele>
        <time>2022-03-06T11:16:23Z</time>
      </trkpt>
      <trkpt lat="46.26285" lon="6.80226">
        <ele>1813.8</ele>
        <time>2022-03-06T11:16:24Z</time>
      </trkpt>
      <trkpt lat="46.26286" lon="6.80225">
        <ele>1814</ele>
        <time>2022-03-06T11:16:25Z</time>
      </trkpt>
      <trkpt lat="46.26286" lon="6.80223">
        <ele>1814.2</ele>
        <time>2022-03-06T11:16:26Z</time>
      </trkpt>
      <trkpt lat="46.26286" lon="6.80222">
        <ele>1814.2</ele>
        <time>2022-03-06T11:16:27Z</time>
      </trkpt>
      <trkpt lat="46.26286" lon="6.80221">
        <ele>1814.2</ele>
        <time>2022-03-06T11:16:28Z</time>
      </trkpt>
      <trkpt lat="46.26285" lon="6.8022">
        <ele>1814.4</ele>
        <time>2022-03-06T11:16:29Z</time>
      </trkpt>
      <trkpt lat="46.26285" lon="6.80219">
        <ele>1814.6</ele>
        <time>2022-03-06T11:16:30Z</time>
      </trkpt>
      <trkpt lat="46.26285" lon="6.80217">
        <ele>1814.6</ele>
        <time>2022-03-06T11:16:31Z</time>
      </trkpt>
      <trkpt lat="46.26284" lon="6.80215">
        <ele>1814.8</ele>
        <time>2022-03-06T11:16:33Z</time>
      </trkpt>
      <trkpt lat="46.26282" lon="6.80214">
        <ele>1814.8</ele>
        <time>2022-03-06T11:16:34Z</time>
      </trkpt>
      <trkpt lat="46.26281" lon="6.80212">
        <ele>1815</ele>
        <time>2022-03-06T11:16:35Z</time>
      </trkpt>
      <trkpt lat="46.2628" lon="6.80209">
        <ele>1815</ele>
        <time>2022-03-06T11:16:37Z</time>
      </trkpt>
      <trkpt lat="46.26279" lon="6.80208">
        <ele>1815</ele>
        <time>2022-03-06T11:16:38Z</time>
      </trkpt>
      <trkpt lat="46.26279" lon="6.80207">
        <ele>1815</ele>
        <time>2022-03-06T11:16:39Z</time>
      </trkpt>
      <trkpt lat="46.26279" lon="6.80205">
        <ele>1815</ele>
        <time>2022-03-06T11:16:40Z</time>
      </trkpt>
      <trkpt lat="46.26278" lon="6.80203">
        <ele>1815.2</ele>
        <time>2022-03-06T11:16:42Z</time>
      </trkpt>
      <trkpt lat="46.26279" lon="6.80201">
        <ele>1815.2</ele>
        <time>2022-03-06T11:16:43Z</time>
      </trkpt>
      <trkpt lat="46.2628" lon="6.802">
        <ele>1815.2</ele>
        <time>2022-03-06T11:16:44Z</time>
      </trkpt>
      <trkpt lat="46.26281" lon="6.80198">
        <ele>1815.2</ele>
        <time>2022-03-06T11:16:45Z</time>
      </trkpt>
      <trkpt lat="46.26282" lon="6.80196">
        <ele>1815.2</ele>
        <time>2022-03-06T11:16:46Z</time>
      </trkpt>
      <trkpt lat="46.26284" lon="6.80193">
        <ele>1815.2</ele>
        <time>2022-03-06T11:16:48Z</time>
      </trkpt>
      <trkpt lat="46.26284" lon="6.80193">
        <ele>1815.4</ele>
        <time>2022-03-06T11:16:49Z</time>
      </trkpt>
      <trkpt lat="46.26284" lon="6.80192">
        <ele>1815.4</ele>
        <time>2022-03-06T11:16:50Z</time>
      </trkpt>
      <trkpt lat="46.26285" lon="6.8019">
        <ele>1815.8</ele>
        <time>2022-03-06T11:16:51Z</time>
      </trkpt>
      <trkpt lat="46.26285" lon="6.80189">
        <ele>1815.8</ele>
        <time>2022-03-06T11:16:52Z</time>
      </trkpt>
      <trkpt lat="46.26285" lon="6.80187">
        <ele>1815.8</ele>
        <time>2022-03-06T11:16:53Z</time>
      </trkpt>
      <trkpt lat="46.26285" lon="6.80186">
        <ele>1816</ele>
        <time>2022-03-06T11:16:54Z</time>
      </trkpt>
      <trkpt lat="46.26286" lon="6.8018">
        <ele>1816</ele>
        <time>2022-03-06T11:16:58Z</time>
      </trkpt>
      <trkpt lat="46.26287" lon="6.80179">
        <ele>1816</ele>
        <time>2022-03-06T11:16:59Z</time>
      </trkpt>
      <trkpt lat="46.26287" lon="6.80178">
        <ele>1816.2</ele>
        <time>2022-03-06T11:17:00Z</time>
      </trkpt>
      <trkpt lat="46.26288" lon="6.80177">
        <ele>1816.2</ele>
        <time>2022-03-06T11:17:01Z</time>
      </trkpt>
      <trkpt lat="46.26288" lon="6.80176">
        <ele>1816.2</ele>
        <time>2022-03-06T11:17:02Z</time>
      </trkpt>
      <trkpt lat="46.26288" lon="6.80175">
        <ele>1816.4</ele>
        <time>2022-03-06T11:17:03Z</time>
      </trkpt>
      <trkpt lat="46.2629" lon="6.80168">
        <ele>1817.2</ele>
        <time>2022-03-06T11:17:09Z</time>
      </trkpt>
      <trkpt lat="46.26291" lon="6.80167">
        <ele>1817.4</ele>
        <time>2022-03-06T11:17:10Z</time>
      </trkpt>
      <trkpt lat="46.26291" lon="6.80166">
        <ele>1817.4</ele>
        <time>2022-03-06T11:17:11Z</time>
      </trkpt>
      <trkpt lat="46.26291" lon="6.80165">
        <ele>1817.6</ele>
        <time>2022-03-06T11:17:12Z</time>
      </trkpt>
      <trkpt lat="46.26291" lon="6.80164">
        <ele>1817.8</ele>
        <time>2022-03-06T11:17:13Z</time>
      </trkpt>
      <trkpt lat="46.26291" lon="6.80163">
        <ele>1817.8</ele>
        <time>2022-03-06T11:17:14Z</time>
      </trkpt>
      <trkpt lat="46.26291" lon="6.80162">
        <ele>1818</ele>
        <time>2022-03-06T11:17:15Z</time>
      </trkpt>
      <trkpt lat="46.2629" lon="6.80161">
        <ele>1818</ele>
        <time>2022-03-06T11:17:16Z</time>
      </trkpt>
      <trkpt lat="46.2629" lon="6.8016">
        <ele>1818.2</ele>
        <time>2022-03-06T11:17:17Z</time>
      </trkpt>
      <trkpt lat="46.26289" lon="6.80158">
        <ele>1818.2</ele>
        <time>2022-03-06T11:17:18Z</time>
      </trkpt>
      <trkpt lat="46.26289" lon="6.80158">
        <ele>1818.6</ele>
        <time>2022-03-06T11:17:19Z</time>
      </trkpt>
      <trkpt lat="46.26289" lon="6.80157">
        <ele>1818.6</ele>
        <time>2022-03-06T11:17:20Z</time>
      </trkpt>
      <trkpt lat="46.26289" lon="6.80156">
        <ele>1818.6</ele>
        <time>2022-03-06T11:17:21Z</time>
      </trkpt>
      <trkpt lat="46.26289" lon="6.80155">
        <ele>1818.6</ele>
        <time>2022-03-06T11:17:22Z</time>
      </trkpt>
      <trkpt lat="46.26289" lon="6.80154">
        <ele>1818.6</ele>
        <time>2022-03-06T11:17:23Z</time>
      </trkpt>
      <trkpt lat="46.26288" lon="6.80153">
        <ele>1818.8</ele>
        <time>2022-03-06T11:17:24Z</time>
      </trkpt>
      <trkpt lat="46.26288" lon="6.80152">
        <ele>1819</ele>
        <time>2022-03-06T11:17:25Z</time>
      </trkpt>
      <trkpt lat="46.26288" lon="6.8015">
        <ele>1819.2</ele>
        <time>2022-03-06T11:17:26Z</time>
      </trkpt>
      <trkpt lat="46.26288" lon="6.80149">
        <ele>1819.4</ele>
        <time>2022-03-06T11:17:27Z</time>
      </trkpt>
      <trkpt lat="46.26288" lon="6.80148">
        <ele>1819.4</ele>
        <time>2022-03-06T11:17:28Z</time>
      </trkpt>
      <trkpt lat="46.26288" lon="6.80147">
        <ele>1819.4</ele>
        <time>2022-03-06T11:17:29Z</time>
      </trkpt>
      <trkpt lat="46.26288" lon="6.80146">
        <ele>1819.6</ele>
        <time>2022-03-06T11:17:30Z</time>
      </trkpt>
      <trkpt lat="46.26288" lon="6.80144">
        <ele>1819.6</ele>
        <time>2022-03-06T11:17:31Z</time>
      </trkpt>
      <trkpt lat="46.26288" lon="6.80143">
        <ele>1820</ele>
        <time>2022-03-06T11:17:32Z</time>
      </trkpt>
      <trkpt lat="46.26288" lon="6.80142">
        <ele>1820</ele>
        <time>2022-03-06T11:17:33Z</time>
      </trkpt>
      <trkpt lat="46.26288" lon="6.80141">
        <ele>1820</ele>
        <time>2022-03-06T11:17:34Z</time>
      </trkpt>
      <trkpt lat="46.26287" lon="6.8014">
        <ele>1820.2</ele>
        <time>2022-03-06T11:17:35Z</time>
      </trkpt>
      <trkpt lat="46.26287" lon="6.80139">
        <ele>1820.4</ele>
        <time>2022-03-06T11:17:36Z</time>
      </trkpt>
      <trkpt lat="46.26287" lon="6.80138">
        <ele>1820.4</ele>
        <time>2022-03-06T11:17:37Z</time>
      </trkpt>
      <trkpt lat="46.26287" lon="6.80137">
        <ele>1820.6</ele>
        <time>2022-03-06T11:17:38Z</time>
      </trkpt>
      <trkpt lat="46.26287" lon="6.80136">
        <ele>1820.8</ele>
        <time>2022-03-06T11:17:39Z</time>
      </trkpt>
      <trkpt lat="46.26288" lon="6.80136">
        <ele>1820.8</ele>
        <time>2022-03-06T11:17:40Z</time>
      </trkpt>
      <trkpt lat="46.26288" lon="6.80135">
        <ele>1820.8</ele>
        <time>2022-03-06T11:17:41Z</time>
      </trkpt>
      <trkpt lat="46.26288" lon="6.80134">
        <ele>1821</ele>
        <time>2022-03-06T11:17:42Z</time>
      </trkpt>
      <trkpt lat="46.26288" lon="6.80133">
        <ele>1821</ele>
        <time>2022-03-06T11:17:43Z</time>
      </trkpt>
      <trkpt lat="46.26288" lon="6.80132">
        <ele>1821.2</ele>
        <time>2022-03-06T11:17:44Z</time>
      </trkpt>
      <trkpt lat="46.26288" lon="6.80132">
        <ele>1821.4</ele>
        <time>2022-03-06T11:17:45Z</time>
      </trkpt>
      <trkpt lat="46.26288" lon="6.80131">
        <ele>1821.4</ele>
        <time>2022-03-06T11:17:46Z</time>
      </trkpt>
      <trkpt lat="46.26287" lon="6.80131">
        <ele>1821.6</ele>
        <time>2022-03-06T11:17:47Z</time>
      </trkpt>
      <trkpt lat="46.26287" lon="6.8013">
        <ele>1821.8</ele>
        <time>2022-03-06T11:17:48Z</time>
      </trkpt>
      <trkpt lat="46.26287" lon="6.80129">
        <ele>1822</ele>
        <time>2022-03-06T11:17:49Z</time>
      </trkpt>
      <trkpt lat="46.26287" lon="6.80129">
        <ele>1822</ele>
        <time>2022-03-06T11:17:50Z</time>
      </trkpt>
      <trkpt lat="46.26287" lon="6.80128">
        <ele>1822</ele>
        <time>2022-03-06T11:17:51Z</time>
      </trkpt>
      <trkpt lat="46.26287" lon="6.80128">
        <ele>1822</ele>
        <time>2022-03-06T11:17:52Z</time>
      </trkpt>
      <trkpt lat="46.26288" lon="6.80127">
        <ele>1822.4</ele>
        <time>2022-03-06T11:17:53Z</time>
      </trkpt>
      <trkpt lat="46.26287" lon="6.80126">
        <ele>1822.4</ele>
        <time>2022-03-06T11:17:54Z</time>
      </trkpt>
      <trkpt lat="46.26287" lon="6.80126">
        <ele>1822.6</ele>
        <time>2022-03-06T11:17:55Z</time>
      </trkpt>
      <trkpt lat="46.26287" lon="6.80125">
        <ele>1823</ele>
        <time>2022-03-06T11:17:56Z</time>
      </trkpt>
      <trkpt lat="46.26287" lon="6.80124">
        <ele>1823.2</ele>
        <time>2022-03-06T11:17:57Z</time>
      </trkpt>
      <trkpt lat="46.26286" lon="6.80121">
        <ele>1823.4</ele>
        <time>2022-03-06T11:17:58Z</time>
      </trkpt>
      <trkpt lat="46.26286" lon="6.8012">
        <ele>1823.4</ele>
        <time>2022-03-06T11:17:59Z</time>
      </trkpt>
      <trkpt lat="46.26285" lon="6.80118">
        <ele>1823.4</ele>
        <time>2022-03-06T11:18:00Z</time>
      </trkpt>
      <trkpt lat="46.26285" lon="6.80116">
        <ele>1823.6</ele>
        <time>2022-03-06T11:18:01Z</time>
      </trkpt>
      <trkpt lat="46.26285" lon="6.80114">
        <ele>1823.6</ele>
        <time>2022-03-06T11:18:02Z</time>
      </trkpt>
      <trkpt lat="46.26285" lon="6.80113">
        <ele>1823.8</ele>
        <time>2022-03-06T11:18:03Z</time>
      </trkpt>
      <trkpt lat="46.26285" lon="6.80111">
        <ele>1824</ele>
        <time>2022-03-06T11:18:04Z</time>
      </trkpt>
      <trkpt lat="46.26285" lon="6.80109">
        <ele>1824</ele>
        <time>2022-03-06T11:18:05Z</time>
      </trkpt>
      <trkpt lat="46.26286" lon="6.80107">
        <ele>1824.4</ele>
        <time>2022-03-06T11:18:06Z</time>
      </trkpt>
      <trkpt lat="46.26285" lon="6.80106">
        <ele>1824.6</ele>
        <time>2022-03-06T11:18:07Z</time>
      </trkpt>
      <trkpt lat="46.26285" lon="6.80105">
        <ele>1824.6</ele>
        <time>2022-03-06T11:18:08Z</time>
      </trkpt>
      <trkpt lat="46.26285" lon="6.80104">
        <ele>1824.8</ele>
        <time>2022-03-06T11:18:09Z</time>
      </trkpt>
      <trkpt lat="46.26285" lon="6.80103">
        <ele>1825</ele>
        <time>2022-03-06T11:18:10Z</time>
      </trkpt>
      <trkpt lat="46.26285" lon="6.80103">
        <ele>1825</ele>
        <time>2022-03-06T11:18:11Z</time>
      </trkpt>
      <trkpt lat="46.26285" lon="6.80102">
        <ele>1825</ele>
        <time>2022-03-06T11:18:12Z</time>
      </trkpt>
      <trkpt lat="46.26285" lon="6.80101">
        <ele>1825.2</ele>
        <time>2022-03-06T11:18:13Z</time>
      </trkpt>
      <trkpt lat="46.26285" lon="6.801">
        <ele>1825.4</ele>
        <time>2022-03-06T11:18:14Z</time>
      </trkpt>
      <trkpt lat="46.26285" lon="6.80099">
        <ele>1825.6</ele>
        <time>2022-03-06T11:18:15Z</time>
      </trkpt>
      <trkpt lat="46.26285" lon="6.80099">
        <ele>1826</ele>
        <time>2022-03-06T11:18:16Z</time>
      </trkpt>
      <trkpt lat="46.26285" lon="6.80098">
        <ele>1826.2</ele>
        <time>2022-03-06T11:18:17Z</time>
      </trkpt>
      <trkpt lat="46.26285" lon="6.80098">
        <ele>1826.2</ele>
        <time>2022-03-06T11:18:18Z</time>
      </trkpt>
      <trkpt lat="46.26285" lon="6.80097">
        <ele>1826.4</ele>
        <time>2022-03-06T11:18:19Z</time>
      </trkpt>
      <trkpt lat="46.26285" lon="6.80097">
        <ele>1826.6</ele>
        <time>2022-03-06T11:18:20Z</time>
      </trkpt>
      <trkpt lat="46.26285" lon="6.80096">
        <ele>1826.6</ele>
        <time>2022-03-06T11:18:21Z</time>
      </trkpt>
      <trkpt lat="46.26285" lon="6.80095">
        <ele>1826.8</ele>
        <time>2022-03-06T11:18:22Z</time>
      </trkpt>
      <trkpt lat="46.26285" lon="6.80095">
        <ele>1827</ele>
        <time>2022-03-06T11:18:23Z</time>
      </trkpt>
      <trkpt lat="46.26285" lon="6.80094">
        <ele>1827.2</ele>
        <time>2022-03-06T11:18:24Z</time>
      </trkpt>
      <trkpt lat="46.26285" lon="6.80093">
        <ele>1827.4</ele>
        <time>2022-03-06T11:18:25Z</time>
      </trkpt>
      <trkpt lat="46.26285" lon="6.80092">
        <ele>1827.6</ele>
        <time>2022-03-06T11:18:26Z</time>
      </trkpt>
      <trkpt lat="46.26285" lon="6.80091">
        <ele>1827.8</ele>
        <time>2022-03-06T11:18:27Z</time>
      </trkpt>
      <trkpt lat="46.26285" lon="6.8009">
        <ele>1827.8</ele>
        <time>2022-03-06T11:18:28Z</time>
      </trkpt>
      <trkpt lat="46.26285" lon="6.80088">
        <ele>1828</ele>
        <time>2022-03-06T11:18:29Z</time>
      </trkpt>
      <trkpt lat="46.26284" lon="6.80086">
        <ele>1828.2</ele>
        <time>2022-03-06T11:18:30Z</time>
      </trkpt>
      <trkpt lat="46.26284" lon="6.80085">
        <ele>1828.4</ele>
        <time>2022-03-06T11:18:31Z</time>
      </trkpt>
      <trkpt lat="46.26285" lon="6.80084">
        <ele>1828.4</ele>
        <time>2022-03-06T11:18:32Z</time>
      </trkpt>
      <trkpt lat="46.26285" lon="6.80082">
        <ele>1828.6</ele>
        <time>2022-03-06T11:18:33Z</time>
      </trkpt>
      <trkpt lat="46.26285" lon="6.80081">
        <ele>1829</ele>
        <time>2022-03-06T11:18:34Z</time>
      </trkpt>
      <trkpt lat="46.26285" lon="6.8008">
        <ele>1829</ele>
        <time>2022-03-06T11:18:35Z</time>
      </trkpt>
      <trkpt lat="46.26284" lon="6.80079">
        <ele>1829.2</ele>
        <time>2022-03-06T11:18:36Z</time>
      </trkpt>
      <trkpt lat="46.26285" lon="6.80078">
        <ele>1829.2</ele>
        <time>2022-03-06T11:18:37Z</time>
      </trkpt>
      <trkpt lat="46.26285" lon="6.80078">
        <ele>1829.4</ele>
        <time>2022-03-06T11:18:38Z</time>
      </trkpt>
      <trkpt lat="46.26286" lon="6.80077">
        <ele>1829.8</ele>
        <time>2022-03-06T11:18:39Z</time>
      </trkpt>
      <trkpt lat="46.26286" lon="6.80076">
        <ele>1830</ele>
        <time>2022-03-06T11:18:40Z</time>
      </trkpt>
      <trkpt lat="46.26286" lon="6.80075">
        <ele>1830</ele>
        <time>2022-03-06T11:18:41Z</time>
      </trkpt>
      <trkpt lat="46.26286" lon="6.80074">
        <ele>1830.2</ele>
        <time>2022-03-06T11:18:42Z</time>
      </trkpt>
      <trkpt lat="46.26287" lon="6.80074">
        <ele>1830.4</ele>
        <time>2022-03-06T11:18:43Z</time>
      </trkpt>
      <trkpt lat="46.26286" lon="6.80073">
        <ele>1830.6</ele>
        <time>2022-03-06T11:18:44Z</time>
      </trkpt>
      <trkpt lat="46.26286" lon="6.80073">
        <ele>1830.6</ele>
        <time>2022-03-06T11:18:45Z</time>
      </trkpt>
      <trkpt lat="46.26287" lon="6.80072">
        <ele>1830.8</ele>
        <time>2022-03-06T11:18:46Z</time>
      </trkpt>
      <trkpt lat="46.26287" lon="6.80071">
        <ele>1831</ele>
        <time>2022-03-06T11:18:47Z</time>
      </trkpt>
      <trkpt lat="46.26287" lon="6.8007">
        <ele>1831.2</ele>
        <time>2022-03-06T11:18:48Z</time>
      </trkpt>
      <trkpt lat="46.26287" lon="6.80069">
        <ele>1831.4</ele>
        <time>2022-03-06T11:18:49Z</time>
      </trkpt>
      <trkpt lat="46.26287" lon="6.80069">
        <ele>1831.6</ele>
        <time>2022-03-06T11:18:50Z</time>
      </trkpt>
      <trkpt lat="46.26288" lon="6.80068">
        <ele>1831.8</ele>
        <time>2022-03-06T11:18:51Z</time>
      </trkpt>
      <trkpt lat="46.26288" lon="6.80068">
        <ele>1831.8</ele>
        <time>2022-03-06T11:18:52Z</time>
      </trkpt>
      <trkpt lat="46.26284" lon="6.80062">
        <ele>1832.8</ele>
        <time>2022-03-06T11:19:02Z</time>
      </trkpt>
      <trkpt lat="46.26283" lon="6.80061">
        <ele>1832.8</ele>
        <time>2022-03-06T11:19:06Z</time>
      </trkpt>
      <trkpt lat="46.26282" lon="6.80059">
        <ele>1833</ele>
        <time>2022-03-06T11:19:16Z</time>
      </trkpt>
      <trkpt lat="46.26282" lon="6.80058">
        <ele>1833</ele>
        <time>2022-03-06T11:19:18Z</time>
      </trkpt>
      <trkpt lat="46.26283" lon="6.80056">
        <ele>1833</ele>
        <time>2022-03-06T11:19:19Z</time>
      </trkpt>
      <trkpt lat="46.26283" lon="6.80055">
        <ele>1833</ele>
        <time>2022-03-06T11:19:20Z</time>
      </trkpt>
      <trkpt lat="46.26283" lon="6.80054">
        <ele>1833</ele>
        <time>2022-03-06T11:19:21Z</time>
      </trkpt>
      <trkpt lat="46.26283" lon="6.80054">
        <ele>1833</ele>
        <time>2022-03-06T11:19:22Z</time>
      </trkpt>
      <trkpt lat="46.26284" lon="6.80053">
        <ele>1833.2</ele>
        <time>2022-03-06T11:19:23Z</time>
      </trkpt>
      <trkpt lat="46.26283" lon="6.8005">
        <ele>1833.2</ele>
        <time>2022-03-06T11:19:26Z</time>
      </trkpt>
      <trkpt lat="46.26284" lon="6.80049">
        <ele>1833.4</ele>
        <time>2022-03-06T11:19:27Z</time>
      </trkpt>
      <trkpt lat="46.26284" lon="6.80048">
        <ele>1833.4</ele>
        <time>2022-03-06T11:19:28Z</time>
      </trkpt>
      <trkpt lat="46.26285" lon="6.80048">
        <ele>1833.8</ele>
        <time>2022-03-06T11:19:29Z</time>
      </trkpt>
      <trkpt lat="46.26285" lon="6.80047">
        <ele>1834</ele>
        <time>2022-03-06T11:19:30Z</time>
      </trkpt>
      <trkpt lat="46.26285" lon="6.80047">
        <ele>1834.2</ele>
        <time>2022-03-06T11:19:31Z</time>
      </trkpt>
      <trkpt lat="46.26284" lon="6.80046">
        <ele>1834.4</ele>
        <time>2022-03-06T11:19:32Z</time>
      </trkpt>
      <trkpt lat="46.26284" lon="6.80045">
        <ele>1834.6</ele>
        <time>2022-03-06T11:19:33Z</time>
      </trkpt>
      <trkpt lat="46.26284" lon="6.80044">
        <ele>1834.8</ele>
        <time>2022-03-06T11:19:34Z</time>
      </trkpt>
      <trkpt lat="46.26284" lon="6.80044">
        <ele>1835.2</ele>
        <time>2022-03-06T11:19:35Z</time>
      </trkpt>
      <trkpt lat="46.26284" lon="6.80043">
        <ele>1835.2</ele>
        <time>2022-03-06T11:19:36Z</time>
      </trkpt>
      <trkpt lat="46.26284" lon="6.80042">
        <ele>1835.4</ele>
        <time>2022-03-06T11:19:37Z</time>
      </trkpt>
      <trkpt lat="46.26285" lon="6.80042">
        <ele>1835.6</ele>
        <time>2022-03-06T11:19:38Z</time>
      </trkpt>
      <trkpt lat="46.26285" lon="6.80041">
        <ele>1835.8</ele>
        <time>2022-03-06T11:19:39Z</time>
      </trkpt>
      <trkpt lat="46.26284" lon="6.8004">
        <ele>1836</ele>
        <time>2022-03-06T11:19:40Z</time>
      </trkpt>
      <trkpt lat="46.26284" lon="6.8004">
        <ele>1836.2</ele>
        <time>2022-03-06T11:19:41Z</time>
      </trkpt>
      <trkpt lat="46.26283" lon="6.80039">
        <ele>1836.2</ele>
        <time>2022-03-06T11:19:42Z</time>
      </trkpt>
      <trkpt lat="46.26283" lon="6.80039">
        <ele>1836.4</ele>
        <time>2022-03-06T11:19:43Z</time>
      </trkpt>
      <trkpt lat="46.26282" lon="6.80039">
        <ele>1836.8</ele>
        <time>2022-03-06T11:19:45Z</time>
      </trkpt>
      <trkpt lat="46.26282" lon="6.80038">
        <ele>1836.8</ele>
        <time>2022-03-06T11:19:46Z</time>
      </trkpt>
      <trkpt lat="46.26281" lon="6.80037">
        <ele>1837.2</ele>
        <time>2022-03-06T11:19:48Z</time>
      </trkpt>
      <trkpt lat="46.2628" lon="6.80037">
        <ele>1837.6</ele>
        <time>2022-03-06T11:19:49Z</time>
      </trkpt>
      <trkpt lat="46.26279" lon="6.80037">
        <ele>1837.8</ele>
        <time>2022-03-06T11:19:50Z</time>
      </trkpt>
      <trkpt lat="46.26279" lon="6.80036">
        <ele>1838</ele>
        <time>2022-03-06T11:19:51Z</time>
      </trkpt>
      <trkpt lat="46.26278" lon="6.80036">
        <ele>1838.2</ele>
        <time>2022-03-06T11:19:52Z</time>
      </trkpt>
      <trkpt lat="46.26278" lon="6.80035">
        <ele>1838.6</ele>
        <time>2022-03-06T11:19:53Z</time>
      </trkpt>
      <trkpt lat="46.26278" lon="6.80035">
        <ele>1838.8</ele>
        <time>2022-03-06T11:19:54Z</time>
      </trkpt>
      <trkpt lat="46.26277" lon="6.80034">
        <ele>1839.8</ele>
        <time>2022-03-06T11:19:59Z</time>
      </trkpt>
      <trkpt lat="46.26275" lon="6.80033">
        <ele>1840.2</ele>
        <time>2022-03-06T11:20:01Z</time>
      </trkpt>
      <trkpt lat="46.26273" lon="6.80032">
        <ele>1840.6</ele>
        <time>2022-03-06T11:20:05Z</time>
      </trkpt>
      <trkpt lat="46.26272" lon="6.80031">
        <ele>1841.2</ele>
        <time>2022-03-06T11:20:08Z</time>
      </trkpt>
      <trkpt lat="46.26271" lon="6.80031">
        <ele>1841.6</ele>
        <time>2022-03-06T11:20:09Z</time>
      </trkpt>
      <trkpt lat="46.26271" lon="6.8003">
        <ele>1841.8</ele>
        <time>2022-03-06T11:20:10Z</time>
      </trkpt>
      <trkpt lat="46.2627" lon="6.8003">
        <ele>1842</ele>
        <time>2022-03-06T11:20:11Z</time>
      </trkpt>
      <trkpt lat="46.2627" lon="6.80029">
        <ele>1842.2</ele>
        <time>2022-03-06T11:20:12Z</time>
      </trkpt>
      <trkpt lat="46.2627" lon="6.80029">
        <ele>1842.4</ele>
        <time>2022-03-06T11:20:13Z</time>
      </trkpt>
      <trkpt lat="46.2627" lon="6.80029">
        <ele>1842.8</ele>
        <time>2022-03-06T11:20:14Z</time>
      </trkpt>
      <trkpt lat="46.2627" lon="6.80028">
        <ele>1843</ele>
        <time>2022-03-06T11:20:15Z</time>
      </trkpt>
      <trkpt lat="46.2627" lon="6.80028">
        <ele>1843.2</ele>
        <time>2022-03-06T11:20:16Z</time>
      </trkpt>
      <trkpt lat="46.26269" lon="6.80027">
        <ele>1843.4</ele>
        <time>2022-03-06T11:20:18Z</time>
      </trkpt>
      <trkpt lat="46.26268" lon="6.80026">
        <ele>1844.4</ele>
        <time>2022-03-06T11:20:24Z</time>
      </trkpt>
      <trkpt lat="46.26268" lon="6.80025">
        <ele>1845.4</ele>
        <time>2022-03-06T11:20:30Z</time>
      </trkpt>
      <trkpt lat="46.26269" lon="6.80023">
        <ele>1846.2</ele>
        <time>2022-03-06T11:20:35Z</time>
      </trkpt>
      <trkpt lat="46.26269" lon="6.80022">
        <ele>1846.6</ele>
        <time>2022-03-06T11:20:36Z</time>
      </trkpt>
      <trkpt lat="46.26269" lon="6.80022">
        <ele>1846.8</ele>
        <time>2022-03-06T11:20:37Z</time>
      </trkpt>
      <trkpt lat="46.26271" lon="6.8002">
        <ele>1847.6</ele>
        <time>2022-03-06T11:20:41Z</time>
      </trkpt>
      <trkpt lat="46.26271" lon="6.80019">
        <ele>1847.8</ele>
        <time>2022-03-06T11:20:42Z</time>
      </trkpt>
      <trkpt lat="46.26271" lon="6.80019">
        <ele>1848.2</ele>
        <time>2022-03-06T11:20:43Z</time>
      </trkpt>
      <trkpt lat="46.26271" lon="6.80018">
        <ele>1848.2</ele>
        <time>2022-03-06T11:20:44Z</time>
      </trkpt>
      <trkpt lat="46.2627" lon="6.80017">
        <ele>1848.8</ele>
        <time>2022-03-06T11:20:48Z</time>
      </trkpt>
      <trkpt lat="46.2627" lon="6.80015">
        <ele>1849</ele>
        <time>2022-03-06T11:20:50Z</time>
      </trkpt>
      <trkpt lat="46.2627" lon="6.80015">
        <ele>1849.2</ele>
        <time>2022-03-06T11:20:51Z</time>
      </trkpt>
      <trkpt lat="46.26271" lon="6.80011">
        <ele>1850</ele>
        <time>2022-03-06T11:20:56Z</time>
      </trkpt>
      <trkpt lat="46.26272" lon="6.8001">
        <ele>1850.4</ele>
        <time>2022-03-06T11:20:58Z</time>
      </trkpt>
      <trkpt lat="46.26272" lon="6.8001">
        <ele>1850.6</ele>
        <time>2022-03-06T11:20:59Z</time>
      </trkpt>
      <trkpt lat="46.26273" lon="6.80009">
        <ele>1851</ele>
        <time>2022-03-06T11:21:02Z</time>
      </trkpt>
      <trkpt lat="46.26274" lon="6.80007">
        <ele>1851.8</ele>
        <time>2022-03-06T11:21:06Z</time>
      </trkpt>
      <trkpt lat="46.26275" lon="6.80005">
        <ele>1852</ele>
        <time>2022-03-06T11:21:09Z</time>
      </trkpt>
      <trkpt lat="46.26275" lon="6.80004">
        <ele>1852.4</ele>
        <time>2022-03-06T11:21:10Z</time>
      </trkpt>
      <trkpt lat="46.26275" lon="6.80003">
        <ele>1852.4</ele>
        <time>2022-03-06T11:21:11Z</time>
      </trkpt>
      <trkpt lat="46.26276" lon="6.80001">
        <ele>1852.8</ele>
        <time>2022-03-06T11:21:12Z</time>
      </trkpt>
      <trkpt lat="46.26277" lon="6.8">
        <ele>1852.8</ele>
        <time>2022-03-06T11:21:14Z</time>
      </trkpt>
      <trkpt lat="46.26278" lon="6.79998">
        <ele>1853.4</ele>
        <time>2022-03-06T11:21:17Z</time>
      </trkpt>
      <trkpt lat="46.26278" lon="6.79997">
        <ele>1853.6</ele>
        <time>2022-03-06T11:21:18Z</time>
      </trkpt>
      <trkpt lat="46.26278" lon="6.79996">
        <ele>1853.8</ele>
        <time>2022-03-06T11:21:19Z</time>
      </trkpt>
      <trkpt lat="46.26277" lon="6.79995">
        <ele>1854.2</ele>
        <time>2022-03-06T11:21:21Z</time>
      </trkpt>
      <trkpt lat="46.26277" lon="6.79993">
        <ele>1855</ele>
        <time>2022-03-06T11:21:25Z</time>
      </trkpt>
      <trkpt lat="46.26273" lon="6.79991">
        <ele>1856</ele>
        <time>2022-03-06T11:21:30Z</time>
      </trkpt>
      <trkpt lat="46.26271" lon="6.7999">
        <ele>1856.2</ele>
        <time>2022-03-06T11:21:32Z</time>
      </trkpt>
      <trkpt lat="46.26269" lon="6.7999">
        <ele>1856.2</ele>
        <time>2022-03-06T11:21:33Z</time>
      </trkpt>
      <trkpt lat="46.26268" lon="6.7999">
        <ele>1856.6</ele>
        <time>2022-03-06T11:21:34Z</time>
      </trkpt>
      <trkpt lat="46.26267" lon="6.7999">
        <ele>1856.8</ele>
        <time>2022-03-06T11:21:35Z</time>
      </trkpt>
      <trkpt lat="46.26266" lon="6.7999">
        <ele>1857.2</ele>
        <time>2022-03-06T11:21:36Z</time>
      </trkpt>
      <trkpt lat="46.26265" lon="6.7999">
        <ele>1857.4</ele>
        <time>2022-03-06T11:21:37Z</time>
      </trkpt>
      <trkpt lat="46.26265" lon="6.79989">
        <ele>1857.6</ele>
        <time>2022-03-06T11:21:38Z</time>
      </trkpt>
      <trkpt lat="46.26264" lon="6.79989">
        <ele>1857.8</ele>
        <time>2022-03-06T11:21:39Z</time>
      </trkpt>
      <trkpt lat="46.26263" lon="6.79989">
        <ele>1858</ele>
        <time>2022-03-06T11:21:40Z</time>
      </trkpt>
      <trkpt lat="46.26261" lon="6.79989">
        <ele>1858.8</ele>
        <time>2022-03-06T11:21:45Z</time>
      </trkpt>
      <trkpt lat="46.26256" lon="6.79993">
        <ele>1859.8</ele>
        <time>2022-03-06T11:21:53Z</time>
      </trkpt>
      <trkpt lat="46.26256" lon="6.79993">
        <ele>1860</ele>
        <time>2022-03-06T11:21:54Z</time>
      </trkpt>
      <trkpt lat="46.26255" lon="6.79994">
        <ele>1860</ele>
        <time>2022-03-06T11:21:55Z</time>
      </trkpt>
      <trkpt lat="46.26255" lon="6.79995">
        <ele>1860.2</ele>
        <time>2022-03-06T11:21:56Z</time>
      </trkpt>
      <trkpt lat="46.26254" lon="6.79996">
        <ele>1860.4</ele>
        <time>2022-03-06T11:21:57Z</time>
      </trkpt>
      <trkpt lat="46.26253" lon="6.79996">
        <ele>1860.4</ele>
        <time>2022-03-06T11:21:58Z</time>
      </trkpt>
      <trkpt lat="46.26253" lon="6.79997">
        <ele>1860.6</ele>
        <time>2022-03-06T11:21:59Z</time>
      </trkpt>
      <trkpt lat="46.26252" lon="6.79998">
        <ele>1860.8</ele>
        <time>2022-03-06T11:22:00Z</time>
      </trkpt>
      <trkpt lat="46.26252" lon="6.79998">
        <ele>1861</ele>
        <time>2022-03-06T11:22:01Z</time>
      </trkpt>
      <trkpt lat="46.26251" lon="6.79999">
        <ele>1861</ele>
        <time>2022-03-06T11:22:02Z</time>
      </trkpt>
      <trkpt lat="46.2625" lon="6.79999">
        <ele>1861</ele>
        <time>2022-03-06T11:22:03Z</time>
      </trkpt>
      <trkpt lat="46.26249" lon="6.79999">
        <ele>1861.2</ele>
        <time>2022-03-06T11:22:04Z</time>
      </trkpt>
      <trkpt lat="46.26249" lon="6.8">
        <ele>1861.2</ele>
        <time>2022-03-06T11:22:05Z</time>
      </trkpt>
      <trkpt lat="46.26248" lon="6.8">
        <ele>1861.6</ele>
        <time>2022-03-06T11:22:06Z</time>
      </trkpt>
      <trkpt lat="46.26248" lon="6.8">
        <ele>1861.8</ele>
        <time>2022-03-06T11:22:07Z</time>
      </trkpt>
      <trkpt lat="46.26246" lon="6.80002">
        <ele>1862.6</ele>
        <time>2022-03-06T11:22:12Z</time>
      </trkpt>
      <trkpt lat="46.26244" lon="6.80002">
        <ele>1863.2</ele>
        <time>2022-03-06T11:22:14Z</time>
      </trkpt>
      <trkpt lat="46.26244" lon="6.80003">
        <ele>1863.6</ele>
        <time>2022-03-06T11:22:16Z</time>
      </trkpt>
      <trkpt lat="46.26243" lon="6.80001">
        <ele>1864.8</ele>
        <time>2022-03-06T11:22:24Z</time>
      </trkpt>
      <trkpt lat="46.26243" lon="6.79999">
        <ele>1865.6</ele>
        <time>2022-03-06T11:22:27Z</time>
      </trkpt>
      <trkpt lat="46.26244" lon="6.79998">
        <ele>1865.6</ele>
        <time>2022-03-06T11:22:28Z</time>
      </trkpt>
      <trkpt lat="46.26243" lon="6.79997">
        <ele>1865.8</ele>
        <time>2022-03-06T11:22:29Z</time>
      </trkpt>
      <trkpt lat="46.26242" lon="6.79996">
        <ele>1865.8</ele>
        <time>2022-03-06T11:22:30Z</time>
      </trkpt>
      <trkpt lat="46.26242" lon="6.79995">
        <ele>1866</ele>
        <time>2022-03-06T11:22:31Z</time>
      </trkpt>
      <trkpt lat="46.26242" lon="6.79994">
        <ele>1866.2</ele>
        <time>2022-03-06T11:22:32Z</time>
      </trkpt>
      <trkpt lat="46.26243" lon="6.79994">
        <ele>1866.4</ele>
        <time>2022-03-06T11:22:33Z</time>
      </trkpt>
      <trkpt lat="46.26242" lon="6.79992">
        <ele>1866.6</ele>
        <time>2022-03-06T11:22:34Z</time>
      </trkpt>
      <trkpt lat="46.26241" lon="6.79991">
        <ele>1866.6</ele>
        <time>2022-03-06T11:22:35Z</time>
      </trkpt>
      <trkpt lat="46.26241" lon="6.79991">
        <ele>1866.8</ele>
        <time>2022-03-06T11:22:36Z</time>
      </trkpt>
      <trkpt lat="46.26241" lon="6.79991">
        <ele>1867</ele>
        <time>2022-03-06T11:22:37Z</time>
      </trkpt>
      <trkpt lat="46.26241" lon="6.7999">
        <ele>1867.2</ele>
        <time>2022-03-06T11:22:38Z</time>
      </trkpt>
      <trkpt lat="46.26241" lon="6.79989">
        <ele>1867.4</ele>
        <time>2022-03-06T11:22:40Z</time>
      </trkpt>
      <trkpt lat="46.26241" lon="6.79984">
        <ele>1867.8</ele>
        <time>2022-03-06T11:22:43Z</time>
      </trkpt>
      <trkpt lat="46.26241" lon="6.79984">
        <ele>1868</ele>
        <time>2022-03-06T11:22:44Z</time>
      </trkpt>
      <trkpt lat="46.26241" lon="6.79983">
        <ele>1868.2</ele>
        <time>2022-03-06T11:22:45Z</time>
      </trkpt>
      <trkpt lat="46.26241" lon="6.79983">
        <ele>1868.2</ele>
        <time>2022-03-06T11:22:46Z</time>
      </trkpt>
      <trkpt lat="46.26241" lon="6.79982">
        <ele>1868.4</ele>
        <time>2022-03-06T11:22:47Z</time>
      </trkpt>
      <trkpt lat="46.26241" lon="6.79982">
        <ele>1868.6</ele>
        <time>2022-03-06T11:22:48Z</time>
      </trkpt>
      <trkpt lat="46.26242" lon="6.79979">
        <ele>1870.2</ele>
        <time>2022-03-06T11:23:00Z</time>
      </trkpt>
      <trkpt lat="46.26241" lon="6.79977">
        <ele>1870.4</ele>
        <time>2022-03-06T11:23:02Z</time>
      </trkpt>
      <trkpt lat="46.26238" lon="6.79974">
        <ele>1870.4</ele>
        <time>2022-03-06T11:23:07Z</time>
      </trkpt>
      <trkpt lat="46.26239" lon="6.79973">
        <ele>1870.8</ele>
        <time>2022-03-06T11:23:10Z</time>
      </trkpt>
      <trkpt lat="46.26239" lon="6.79973">
        <ele>1871.2</ele>
        <time>2022-03-06T11:23:11Z</time>
      </trkpt>
      <trkpt lat="46.26239" lon="6.79973">
        <ele>1871.4</ele>
        <time>2022-03-06T11:23:12Z</time>
      </trkpt>
      <trkpt lat="46.26238" lon="6.79972">
        <ele>1871.4</ele>
        <time>2022-03-06T11:23:13Z</time>
      </trkpt>
      <trkpt lat="46.26238" lon="6.79971">
        <ele>1871.6</ele>
        <time>2022-03-06T11:23:14Z</time>
      </trkpt>
      <trkpt lat="46.26238" lon="6.79969">
        <ele>1871.8</ele>
        <time>2022-03-06T11:23:15Z</time>
      </trkpt>
      <trkpt lat="46.26238" lon="6.79968">
        <ele>1872</ele>
        <time>2022-03-06T11:23:16Z</time>
      </trkpt>
      <trkpt lat="46.26238" lon="6.79968">
        <ele>1872.4</ele>
        <time>2022-03-06T11:23:17Z</time>
      </trkpt>
      <trkpt lat="46.26237" lon="6.79967">
        <ele>1872.4</ele>
        <time>2022-03-06T11:23:18Z</time>
      </trkpt>
      <trkpt lat="46.26237" lon="6.79966">
        <ele>1872.6</ele>
        <time>2022-03-06T11:23:19Z</time>
      </trkpt>
      <trkpt lat="46.26239" lon="6.79964">
        <ele>1873.4</ele>
        <time>2022-03-06T11:23:24Z</time>
      </trkpt>
      <trkpt lat="46.26239" lon="6.79963">
        <ele>1873.4</ele>
        <time>2022-03-06T11:23:25Z</time>
      </trkpt>
      <trkpt lat="46.26239" lon="6.79963">
        <ele>1873.6</ele>
        <time>2022-03-06T11:23:26Z</time>
      </trkpt>
      <trkpt lat="46.26238" lon="6.7996">
        <ele>1874.4</ele>
        <time>2022-03-06T11:23:29Z</time>
      </trkpt>
      <trkpt lat="46.26237" lon="6.79958">
        <ele>1875.2</ele>
        <time>2022-03-06T11:23:32Z</time>
      </trkpt>
      <trkpt lat="46.26237" lon="6.79957">
        <ele>1875.4</ele>
        <time>2022-03-06T11:23:34Z</time>
      </trkpt>
      <trkpt lat="46.26234" lon="6.79951">
        <ele>1878.2</ele>
        <time>2022-03-06T11:23:46Z</time>
      </trkpt>
      <trkpt lat="46.26233" lon="6.79946">
        <ele>1878.6</ele>
        <time>2022-03-06T11:23:55Z</time>
      </trkpt>
      <trkpt lat="46.26234" lon="6.79946">
        <ele>1879</ele>
        <time>2022-03-06T11:23:59Z</time>
      </trkpt>
      <trkpt lat="46.26234" lon="6.79946">
        <ele>1879</ele>
        <time>2022-03-06T11:24:00Z</time>
      </trkpt>
      <trkpt lat="46.26234" lon="6.79943">
        <ele>1879.8</ele>
        <time>2022-03-06T11:24:05Z</time>
      </trkpt>
      <trkpt lat="46.26231" lon="6.79941">
        <ele>1881.2</ele>
        <time>2022-03-06T11:24:12Z</time>
      </trkpt>
      <trkpt lat="46.2623" lon="6.7994">
        <ele>1881.2</ele>
        <time>2022-03-06T11:24:13Z</time>
      </trkpt>
      <trkpt lat="46.2623" lon="6.79939">
        <ele>1882.4</ele>
        <time>2022-03-06T11:24:18Z</time>
      </trkpt>
      <trkpt lat="46.26233" lon="6.79938">
        <ele>1883.6</ele>
        <time>2022-03-06T11:24:24Z</time>
      </trkpt>
      <trkpt lat="46.26233" lon="6.79937">
        <ele>1883.8</ele>
        <time>2022-03-06T11:24:25Z</time>
      </trkpt>
      <trkpt lat="46.26235" lon="6.79936">
        <ele>1884</ele>
        <time>2022-03-06T11:24:27Z</time>
      </trkpt>
      <trkpt lat="46.26236" lon="6.79935">
        <ele>1884.4</ele>
        <time>2022-03-06T11:24:28Z</time>
      </trkpt>
      <trkpt lat="46.26237" lon="6.79934">
        <ele>1884.4</ele>
        <time>2022-03-06T11:24:29Z</time>
      </trkpt>
      <trkpt lat="46.26238" lon="6.79933">
        <ele>1884.6</ele>
        <time>2022-03-06T11:24:30Z</time>
      </trkpt>
      <trkpt lat="46.26239" lon="6.79932">
        <ele>1884.6</ele>
        <time>2022-03-06T11:24:31Z</time>
      </trkpt>
      <trkpt lat="46.2624" lon="6.79931">
        <ele>1885</ele>
        <time>2022-03-06T11:24:32Z</time>
      </trkpt>
      <trkpt lat="46.2624" lon="6.79931">
        <ele>1885</ele>
        <time>2022-03-06T11:24:33Z</time>
      </trkpt>
      <trkpt lat="46.26241" lon="6.7993">
        <ele>1885.2</ele>
        <time>2022-03-06T11:24:34Z</time>
      </trkpt>
      <trkpt lat="46.2624" lon="6.7993">
        <ele>1885.4</ele>
        <time>2022-03-06T11:24:35Z</time>
      </trkpt>
      <trkpt lat="46.26242" lon="6.79928">
        <ele>1886.8</ele>
        <time>2022-03-06T11:24:42Z</time>
      </trkpt>
      <trkpt lat="46.26243" lon="6.79931">
        <ele>1886.8</ele>
        <time>2022-03-06T11:24:51Z</time>
      </trkpt>
      <trkpt lat="46.26241" lon="6.7993">
        <ele>1887</ele>
        <time>2022-03-06T11:24:54Z</time>
      </trkpt>
      <trkpt lat="46.26242" lon="6.79924">
        <ele>1886.8</ele>
        <time>2022-03-06T11:25:07Z</time>
      </trkpt>
      <trkpt lat="46.26241" lon="6.79922">
        <ele>1887</ele>
        <time>2022-03-06T11:25:24Z</time>
      </trkpt>
      <trkpt lat="46.26241" lon="6.7992">
        <ele>1887</ele>
        <time>2022-03-06T11:25:25Z</time>
      </trkpt>
      <trkpt lat="46.26239" lon="6.79916">
        <ele>1887</ele>
        <time>2022-03-06T11:25:30Z</time>
      </trkpt>
      <trkpt lat="46.2624" lon="6.79916">
        <ele>1887.2</ele>
        <time>2022-03-06T11:25:31Z</time>
      </trkpt>
      <trkpt lat="46.2624" lon="6.79916">
        <ele>1887.8</ele>
        <time>2022-03-06T11:25:38Z</time>
      </trkpt>
      <trkpt lat="46.26239" lon="6.79914">
        <ele>1888</ele>
        <time>2022-03-06T11:25:42Z</time>
      </trkpt>
      <trkpt lat="46.26236" lon="6.79911">
        <ele>1888.2</ele>
        <time>2022-03-06T11:25:48Z</time>
      </trkpt>
      <trkpt lat="46.26236" lon="6.79911">
        <ele>1888.2</ele>
        <time>2022-03-06T11:25:49Z</time>
      </trkpt>
      <trkpt lat="46.26234" lon="6.79909">
        <ele>1888.4</ele>
        <time>2022-03-06T11:25:52Z</time>
      </trkpt>
      <trkpt lat="46.26232" lon="6.79907">
        <ele>1889.2</ele>
        <time>2022-03-06T11:25:55Z</time>
      </trkpt>
      <trkpt lat="46.26231" lon="6.79906">
        <ele>1889.2</ele>
        <time>2022-03-06T11:25:56Z</time>
      </trkpt>
      <trkpt lat="46.26229" lon="6.79906">
        <ele>1889.2</ele>
        <time>2022-03-06T11:25:57Z</time>
      </trkpt>
      <trkpt lat="46.26228" lon="6.79906">
        <ele>1889.6</ele>
        <time>2022-03-06T11:25:58Z</time>
      </trkpt>
      <trkpt lat="46.26228" lon="6.79905">
        <ele>1889.6</ele>
        <time>2022-03-06T11:25:59Z</time>
      </trkpt>
      <trkpt lat="46.26227" lon="6.79904">
        <ele>1889.8</ele>
        <time>2022-03-06T11:26:00Z</time>
      </trkpt>
      <trkpt lat="46.26227" lon="6.79904">
        <ele>1890.2</ele>
        <time>2022-03-06T11:26:01Z</time>
      </trkpt>
      <trkpt lat="46.26226" lon="6.79903">
        <ele>1890.2</ele>
        <time>2022-03-06T11:26:02Z</time>
      </trkpt>
      <trkpt lat="46.26225" lon="6.79903">
        <ele>1890.2</ele>
        <time>2022-03-06T11:26:03Z</time>
      </trkpt>
      <trkpt lat="46.26223" lon="6.79903">
        <ele>1890.4</ele>
        <time>2022-03-06T11:26:04Z</time>
      </trkpt>
      <trkpt lat="46.26222" lon="6.79902">
        <ele>1890.4</ele>
        <time>2022-03-06T11:26:05Z</time>
      </trkpt>
      <trkpt lat="46.26221" lon="6.79902">
        <ele>1890.8</ele>
        <time>2022-03-06T11:26:06Z</time>
      </trkpt>
      <trkpt lat="46.26221" lon="6.79902">
        <ele>1890.8</ele>
        <time>2022-03-06T11:26:07Z</time>
      </trkpt>
      <trkpt lat="46.2622" lon="6.79901">
        <ele>1891.2</ele>
        <time>2022-03-06T11:26:08Z</time>
      </trkpt>
      <trkpt lat="46.26219" lon="6.79901">
        <ele>1891.2</ele>
        <time>2022-03-06T11:26:09Z</time>
      </trkpt>
      <trkpt lat="46.26217" lon="6.799">
        <ele>1891.6</ele>
        <time>2022-03-06T11:26:10Z</time>
      </trkpt>
      <trkpt lat="46.26217" lon="6.79899">
        <ele>1892</ele>
        <time>2022-03-06T11:26:11Z</time>
      </trkpt>
      <trkpt lat="46.26216" lon="6.79898">
        <ele>1892</ele>
        <time>2022-03-06T11:26:12Z</time>
      </trkpt>
      <trkpt lat="46.26215" lon="6.79898">
        <ele>1892.2</ele>
        <time>2022-03-06T11:26:13Z</time>
      </trkpt>
      <trkpt lat="46.26215" lon="6.79898">
        <ele>1892.4</ele>
        <time>2022-03-06T11:26:14Z</time>
      </trkpt>
      <trkpt lat="46.26214" lon="6.79897">
        <ele>1892.6</ele>
        <time>2022-03-06T11:26:15Z</time>
      </trkpt>
      <trkpt lat="46.26213" lon="6.79897">
        <ele>1892.8</ele>
        <time>2022-03-06T11:26:16Z</time>
      </trkpt>
      <trkpt lat="46.26212" lon="6.79897">
        <ele>1893.2</ele>
        <time>2022-03-06T11:26:17Z</time>
      </trkpt>
      <trkpt lat="46.26212" lon="6.79897">
        <ele>1893.2</ele>
        <time>2022-03-06T11:26:18Z</time>
      </trkpt>
      <trkpt lat="46.26211" lon="6.79896">
        <ele>1893.6</ele>
        <time>2022-03-06T11:26:19Z</time>
      </trkpt>
      <trkpt lat="46.2621" lon="6.79896">
        <ele>1893.6</ele>
        <time>2022-03-06T11:26:20Z</time>
      </trkpt>
      <trkpt lat="46.26209" lon="6.79897">
        <ele>1893.8</ele>
        <time>2022-03-06T11:26:21Z</time>
      </trkpt>
      <trkpt lat="46.26209" lon="6.79897">
        <ele>1894</ele>
        <time>2022-03-06T11:26:22Z</time>
      </trkpt>
      <trkpt lat="46.26208" lon="6.79898">
        <ele>1894</ele>
        <time>2022-03-06T11:26:23Z</time>
      </trkpt>
      <trkpt lat="46.26207" lon="6.79899">
        <ele>1894</ele>
        <time>2022-03-06T11:26:24Z</time>
      </trkpt>
      <trkpt lat="46.26207" lon="6.79898">
        <ele>1894.2</ele>
        <time>2022-03-06T11:26:25Z</time>
      </trkpt>
      <trkpt lat="46.26206" lon="6.79899">
        <ele>1894.6</ele>
        <time>2022-03-06T11:26:26Z</time>
      </trkpt>
      <trkpt lat="46.26206" lon="6.79899">
        <ele>1894.6</ele>
        <time>2022-03-06T11:26:27Z</time>
      </trkpt>
      <trkpt lat="46.26205" lon="6.79899">
        <ele>1894.8</ele>
        <time>2022-03-06T11:26:28Z</time>
      </trkpt>
      <trkpt lat="46.26204" lon="6.79899">
        <ele>1894.8</ele>
        <time>2022-03-06T11:26:29Z</time>
      </trkpt>
      <trkpt lat="46.26204" lon="6.79899">
        <ele>1895.2</ele>
        <time>2022-03-06T11:26:30Z</time>
      </trkpt>
      <trkpt lat="46.26203" lon="6.79898">
        <ele>1895.4</ele>
        <time>2022-03-06T11:26:31Z</time>
      </trkpt>
      <trkpt lat="46.26202" lon="6.79898">
        <ele>1895.6</ele>
        <time>2022-03-06T11:26:32Z</time>
      </trkpt>
      <trkpt lat="46.26201" lon="6.79897">
        <ele>1895.6</ele>
        <time>2022-03-06T11:26:33Z</time>
      </trkpt>
      <trkpt lat="46.26201" lon="6.79897">
        <ele>1896</ele>
        <time>2022-03-06T11:26:34Z</time>
      </trkpt>
      <trkpt lat="46.262" lon="6.79897">
        <ele>1896</ele>
        <time>2022-03-06T11:26:35Z</time>
      </trkpt>
      <trkpt lat="46.262" lon="6.79896">
        <ele>1896.4</ele>
        <time>2022-03-06T11:26:36Z</time>
      </trkpt>
      <trkpt lat="46.26199" lon="6.79896">
        <ele>1896.8</ele>
        <time>2022-03-06T11:26:37Z</time>
      </trkpt>
      <trkpt lat="46.26199" lon="6.79896">
        <ele>1896.8</ele>
        <time>2022-03-06T11:26:38Z</time>
      </trkpt>
      <trkpt lat="46.26198" lon="6.79896">
        <ele>1897.2</ele>
        <time>2022-03-06T11:26:39Z</time>
      </trkpt>
      <trkpt lat="46.26198" lon="6.79896">
        <ele>1897.2</ele>
        <time>2022-03-06T11:26:40Z</time>
      </trkpt>
      <trkpt lat="46.26197" lon="6.79896">
        <ele>1897.6</ele>
        <time>2022-03-06T11:26:41Z</time>
      </trkpt>
      <trkpt lat="46.26197" lon="6.79896">
        <ele>1897.8</ele>
        <time>2022-03-06T11:26:42Z</time>
      </trkpt>
      <trkpt lat="46.26196" lon="6.79896">
        <ele>1897.8</ele>
        <time>2022-03-06T11:26:43Z</time>
      </trkpt>
      <trkpt lat="46.26196" lon="6.79896">
        <ele>1898</ele>
        <time>2022-03-06T11:26:44Z</time>
      </trkpt>
      <trkpt lat="46.26195" lon="6.79896">
        <ele>1898.2</ele>
        <time>2022-03-06T11:26:45Z</time>
      </trkpt>
      <trkpt lat="46.26195" lon="6.79896">
        <ele>1898.6</ele>
        <time>2022-03-06T11:26:46Z</time>
      </trkpt>
      <trkpt lat="46.26194" lon="6.79896">
        <ele>1898.6</ele>
        <time>2022-03-06T11:26:47Z</time>
      </trkpt>
      <trkpt lat="46.26193" lon="6.79897">
        <ele>1898.8</ele>
        <time>2022-03-06T11:26:48Z</time>
      </trkpt>
      <trkpt lat="46.26193" lon="6.79897">
        <ele>1899</ele>
        <time>2022-03-06T11:26:49Z</time>
      </trkpt>
      <trkpt lat="46.26192" lon="6.79897">
        <ele>1899</ele>
        <time>2022-03-06T11:26:50Z</time>
      </trkpt>
      <trkpt lat="46.26192" lon="6.79898">
        <ele>1899.4</ele>
        <time>2022-03-06T11:26:51Z</time>
      </trkpt>
      <trkpt lat="46.26191" lon="6.79898">
        <ele>1899.6</ele>
        <time>2022-03-06T11:26:52Z</time>
      </trkpt>
      <trkpt lat="46.26191" lon="6.79899">
        <ele>1899.4</ele>
        <time>2022-03-06T11:26:53Z</time>
      </trkpt>
      <trkpt lat="46.2619" lon="6.79899">
        <ele>1899.6</ele>
        <time>2022-03-06T11:26:54Z</time>
      </trkpt>
      <trkpt lat="46.2619" lon="6.799">
        <ele>1900</ele>
        <time>2022-03-06T11:26:56Z</time>
      </trkpt>
      <trkpt lat="46.26188" lon="6.79901">
        <ele>1900.4</ele>
        <time>2022-03-06T11:26:59Z</time>
      </trkpt>
      <trkpt lat="46.26187" lon="6.79901">
        <ele>1900.8</ele>
        <time>2022-03-06T11:27:00Z</time>
      </trkpt>
      <trkpt lat="46.26187" lon="6.799">
        <ele>1901</ele>
        <time>2022-03-06T11:27:01Z</time>
      </trkpt>
      <trkpt lat="46.26186" lon="6.799">
        <ele>1901</ele>
        <time>2022-03-06T11:27:02Z</time>
      </trkpt>
      <trkpt lat="46.26186" lon="6.799">
        <ele>1901.2</ele>
        <time>2022-03-06T11:27:03Z</time>
      </trkpt>
      <trkpt lat="46.26185" lon="6.799">
        <ele>1901.4</ele>
        <time>2022-03-06T11:27:04Z</time>
      </trkpt>
      <trkpt lat="46.26185" lon="6.799">
        <ele>1901.4</ele>
        <time>2022-03-06T11:27:05Z</time>
      </trkpt>
      <trkpt lat="46.26184" lon="6.799">
        <ele>1901.6</ele>
        <time>2022-03-06T11:27:06Z</time>
      </trkpt>
      <trkpt lat="46.26183" lon="6.799">
        <ele>1901.8</ele>
        <time>2022-03-06T11:27:07Z</time>
      </trkpt>
      <trkpt lat="46.26182" lon="6.799">
        <ele>1901.8</ele>
        <time>2022-03-06T11:27:08Z</time>
      </trkpt>
      <trkpt lat="46.26182" lon="6.799">
        <ele>1902.2</ele>
        <time>2022-03-06T11:27:09Z</time>
      </trkpt>
      <trkpt lat="46.26181" lon="6.799">
        <ele>1902.2</ele>
        <time>2022-03-06T11:27:10Z</time>
      </trkpt>
      <trkpt lat="46.2618" lon="6.799">
        <ele>1902.4</ele>
        <time>2022-03-06T11:27:11Z</time>
      </trkpt>
      <trkpt lat="46.2618" lon="6.799">
        <ele>1902.6</ele>
        <time>2022-03-06T11:27:12Z</time>
      </trkpt>
      <trkpt lat="46.26179" lon="6.799">
        <ele>1902.8</ele>
        <time>2022-03-06T11:27:13Z</time>
      </trkpt>
      <trkpt lat="46.26179" lon="6.799">
        <ele>1902.8</ele>
        <time>2022-03-06T11:27:14Z</time>
      </trkpt>
      <trkpt lat="46.26179" lon="6.79899">
        <ele>1903.2</ele>
        <time>2022-03-06T11:27:15Z</time>
      </trkpt>
      <trkpt lat="46.26178" lon="6.79899">
        <ele>1903.4</ele>
        <time>2022-03-06T11:27:17Z</time>
      </trkpt>
      <trkpt lat="46.26178" lon="6.79897">
        <ele>1904.2</ele>
        <time>2022-03-06T11:27:21Z</time>
      </trkpt>
      <trkpt lat="46.26178" lon="6.79897">
        <ele>1904.2</ele>
        <time>2022-03-06T11:27:22Z</time>
      </trkpt>
      <trkpt lat="46.26177" lon="6.79896">
        <ele>1904.6</ele>
        <time>2022-03-06T11:27:23Z</time>
      </trkpt>
      <trkpt lat="46.26177" lon="6.79895">
        <ele>1904.8</ele>
        <time>2022-03-06T11:27:24Z</time>
      </trkpt>
      <trkpt lat="46.26177" lon="6.79895">
        <ele>1904.8</ele>
        <time>2022-03-06T11:27:25Z</time>
      </trkpt>
      <trkpt lat="46.26177" lon="6.79894">
        <ele>1905</ele>
        <time>2022-03-06T11:27:26Z</time>
      </trkpt>
      <trkpt lat="46.26177" lon="6.79893">
        <ele>1905.4</ele>
        <time>2022-03-06T11:27:27Z</time>
      </trkpt>
      <trkpt lat="46.26177" lon="6.79892">
        <ele>1905.6</ele>
        <time>2022-03-06T11:27:28Z</time>
      </trkpt>
      <trkpt lat="46.26177" lon="6.79892">
        <ele>1905.6</ele>
        <time>2022-03-06T11:27:29Z</time>
      </trkpt>
      <trkpt lat="46.26177" lon="6.79891">
        <ele>1905.8</ele>
        <time>2022-03-06T11:27:30Z</time>
      </trkpt>
      <trkpt lat="46.26177" lon="6.79891">
        <ele>1905.8</ele>
        <time>2022-03-06T11:27:31Z</time>
      </trkpt>
      <trkpt lat="46.26177" lon="6.79891">
        <ele>1905.8</ele>
        <time>2022-03-06T11:27:32Z</time>
      </trkpt>
      <trkpt lat="46.26177" lon="6.7989">
        <ele>1906</ele>
        <time>2022-03-06T11:27:33Z</time>
      </trkpt>
      <trkpt lat="46.26176" lon="6.79887">
        <ele>1906.8</ele>
        <time>2022-03-06T11:27:38Z</time>
      </trkpt>
      <trkpt lat="46.26173" lon="6.79884">
        <ele>1908</ele>
        <time>2022-03-06T11:27:44Z</time>
      </trkpt>
      <trkpt lat="46.26169" lon="6.79888">
        <ele>1909</ele>
        <time>2022-03-06T11:27:50Z</time>
      </trkpt>
      <trkpt lat="46.26169" lon="6.79888">
        <ele>1909.2</ele>
        <time>2022-03-06T11:27:51Z</time>
      </trkpt>
      <trkpt lat="46.26166" lon="6.79891">
        <ele>1910.2</ele>
        <time>2022-03-06T11:27:57Z</time>
      </trkpt>
      <trkpt lat="46.26165" lon="6.79894">
        <ele>1911.2</ele>
        <time>2022-03-06T11:28:04Z</time>
      </trkpt>
      <trkpt lat="46.26164" lon="6.79895">
        <ele>1912</ele>
        <time>2022-03-06T11:28:08Z</time>
      </trkpt>
      <trkpt lat="46.26163" lon="6.79896">
        <ele>1912.4</ele>
        <time>2022-03-06T11:28:10Z</time>
      </trkpt>
      <trkpt lat="46.26162" lon="6.79898">
        <ele>1912.8</ele>
        <time>2022-03-06T11:28:13Z</time>
      </trkpt>
      <trkpt lat="46.26161" lon="6.79898">
        <ele>1913.4</ele>
        <time>2022-03-06T11:28:16Z</time>
      </trkpt>
      <trkpt lat="46.2616" lon="6.79899">
        <ele>1913.6</ele>
        <time>2022-03-06T11:28:17Z</time>
      </trkpt>
      <trkpt lat="46.26159" lon="6.79903">
        <ele>1914</ele>
        <time>2022-03-06T11:28:21Z</time>
      </trkpt>
      <trkpt lat="46.26158" lon="6.79903">
        <ele>1914.4</ele>
        <time>2022-03-06T11:28:22Z</time>
      </trkpt>
      <trkpt lat="46.26158" lon="6.79904">
        <ele>1914.6</ele>
        <time>2022-03-06T11:28:23Z</time>
      </trkpt>
      <trkpt lat="46.26157" lon="6.79904">
        <ele>1914.6</ele>
        <time>2022-03-06T11:28:24Z</time>
      </trkpt>
      <trkpt lat="46.26157" lon="6.79905">
        <ele>1914.8</ele>
        <time>2022-03-06T11:28:25Z</time>
      </trkpt>
      <trkpt lat="46.26156" lon="6.79905">
        <ele>1915</ele>
        <time>2022-03-06T11:28:26Z</time>
      </trkpt>
      <trkpt lat="46.26155" lon="6.79906">
        <ele>1915</ele>
        <time>2022-03-06T11:28:27Z</time>
      </trkpt>
      <trkpt lat="46.26155" lon="6.79906">
        <ele>1915.4</ele>
        <time>2022-03-06T11:28:28Z</time>
      </trkpt>
      <trkpt lat="46.26155" lon="6.79908">
        <ele>1915.4</ele>
        <time>2022-03-06T11:28:29Z</time>
      </trkpt>
      <trkpt lat="46.26155" lon="6.79909">
        <ele>1915.6</ele>
        <time>2022-03-06T11:28:30Z</time>
      </trkpt>
      <trkpt lat="46.26153" lon="6.79911">
        <ele>1916.2</ele>
        <time>2022-03-06T11:28:33Z</time>
      </trkpt>
      <trkpt lat="46.26153" lon="6.79911">
        <ele>1916.4</ele>
        <time>2022-03-06T11:28:34Z</time>
      </trkpt>
      <trkpt lat="46.26152" lon="6.79912">
        <ele>1916.8</ele>
        <time>2022-03-06T11:28:35Z</time>
      </trkpt>
      <trkpt lat="46.26151" lon="6.79912">
        <ele>1916.8</ele>
        <time>2022-03-06T11:28:36Z</time>
      </trkpt>
      <trkpt lat="46.26151" lon="6.79912">
        <ele>1917.2</ele>
        <time>2022-03-06T11:28:37Z</time>
      </trkpt>
      <trkpt lat="46.2615" lon="6.79912">
        <ele>1917.4</ele>
        <time>2022-03-06T11:28:38Z</time>
      </trkpt>
      <trkpt lat="46.2615" lon="6.79913">
        <ele>1917.6</ele>
        <time>2022-03-06T11:28:39Z</time>
      </trkpt>
      <trkpt lat="46.2615" lon="6.79913">
        <ele>1917.6</ele>
        <time>2022-03-06T11:28:40Z</time>
      </trkpt>
      <trkpt lat="46.2615" lon="6.79916">
        <ele>1917.6</ele>
        <time>2022-03-06T11:28:41Z</time>
      </trkpt>
      <trkpt lat="46.26149" lon="6.79916">
        <ele>1918</ele>
        <time>2022-03-06T11:28:43Z</time>
      </trkpt>
      <trkpt lat="46.26147" lon="6.79917">
        <ele>1919.4</ele>
        <time>2022-03-06T11:28:50Z</time>
      </trkpt>
      <trkpt lat="46.26146" lon="6.79913">
        <ele>1920.4</ele>
        <time>2022-03-06T11:28:57Z</time>
      </trkpt>
      <trkpt lat="46.26145" lon="6.79912">
        <ele>1920.6</ele>
        <time>2022-03-06T11:28:58Z</time>
      </trkpt>
      <trkpt lat="46.26145" lon="6.79911">
        <ele>1920.8</ele>
        <time>2022-03-06T11:28:59Z</time>
      </trkpt>
      <trkpt lat="46.26145" lon="6.7991">
        <ele>1920.8</ele>
        <time>2022-03-06T11:29:00Z</time>
      </trkpt>
      <trkpt lat="46.26145" lon="6.79909">
        <ele>1920.8</ele>
        <time>2022-03-06T11:29:01Z</time>
      </trkpt>
      <trkpt lat="46.26146" lon="6.79908">
        <ele>1921.2</ele>
        <time>2022-03-06T11:29:02Z</time>
      </trkpt>
      <trkpt lat="46.26146" lon="6.79908">
        <ele>1921.2</ele>
        <time>2022-03-06T11:29:03Z</time>
      </trkpt>
      <trkpt lat="46.26146" lon="6.79907">
        <ele>1921.2</ele>
        <time>2022-03-06T11:29:04Z</time>
      </trkpt>
      <trkpt lat="46.26145" lon="6.79906">
        <ele>1921.6</ele>
        <time>2022-03-06T11:29:05Z</time>
      </trkpt>
      <trkpt lat="46.26145" lon="6.79905">
        <ele>1921.6</ele>
        <time>2022-03-06T11:29:06Z</time>
      </trkpt>
      <trkpt lat="46.26145" lon="6.79904">
        <ele>1921.8</ele>
        <time>2022-03-06T11:29:07Z</time>
      </trkpt>
      <trkpt lat="46.26145" lon="6.79904">
        <ele>1922</ele>
        <time>2022-03-06T11:29:08Z</time>
      </trkpt>
      <trkpt lat="46.26145" lon="6.79903">
        <ele>1922.2</ele>
        <time>2022-03-06T11:29:09Z</time>
      </trkpt>
      <trkpt lat="46.26144" lon="6.79902">
        <ele>1922.4</ele>
        <time>2022-03-06T11:29:10Z</time>
      </trkpt>
      <trkpt lat="46.26144" lon="6.79901">
        <ele>1922.6</ele>
        <time>2022-03-06T11:29:11Z</time>
      </trkpt>
      <trkpt lat="46.26144" lon="6.799">
        <ele>1922.8</ele>
        <time>2022-03-06T11:29:12Z</time>
      </trkpt>
      <trkpt lat="46.26144" lon="6.799">
        <ele>1923</ele>
        <time>2022-03-06T11:29:13Z</time>
      </trkpt>
      <trkpt lat="46.26144" lon="6.79899">
        <ele>1923.2</ele>
        <time>2022-03-06T11:29:14Z</time>
      </trkpt>
      <trkpt lat="46.26145" lon="6.79897">
        <ele>1923.2</ele>
        <time>2022-03-06T11:29:15Z</time>
      </trkpt>
      <trkpt lat="46.26145" lon="6.79896">
        <ele>1923.4</ele>
        <time>2022-03-06T11:29:16Z</time>
      </trkpt>
      <trkpt lat="46.26145" lon="6.79895">
        <ele>1923.6</ele>
        <time>2022-03-06T11:29:17Z</time>
      </trkpt>
      <trkpt lat="46.26146" lon="6.79893">
        <ele>1924</ele>
        <time>2022-03-06T11:29:18Z</time>
      </trkpt>
      <trkpt lat="46.26146" lon="6.79892">
        <ele>1924</ele>
        <time>2022-03-06T11:29:19Z</time>
      </trkpt>
      <trkpt lat="46.26147" lon="6.7989">
        <ele>1924.2</ele>
        <time>2022-03-06T11:29:20Z</time>
      </trkpt>
      <trkpt lat="46.26147" lon="6.79889">
        <ele>1924.4</ele>
        <time>2022-03-06T11:29:21Z</time>
      </trkpt>
      <trkpt lat="46.26147" lon="6.79888">
        <ele>1924.4</ele>
        <time>2022-03-06T11:29:22Z</time>
      </trkpt>
      <trkpt lat="46.26148" lon="6.79887">
        <ele>1924.6</ele>
        <time>2022-03-06T11:29:23Z</time>
      </trkpt>
      <trkpt lat="46.26148" lon="6.79887">
        <ele>1925</ele>
        <time>2022-03-06T11:29:24Z</time>
      </trkpt>
      <trkpt lat="46.26148" lon="6.79886">
        <ele>1925.2</ele>
        <time>2022-03-06T11:29:25Z</time>
      </trkpt>
      <trkpt lat="46.26149" lon="6.79885">
        <ele>1925.2</ele>
        <time>2022-03-06T11:29:26Z</time>
      </trkpt>
      <trkpt lat="46.26149" lon="6.79885">
        <ele>1925.2</ele>
        <time>2022-03-06T11:29:27Z</time>
      </trkpt>
      <trkpt lat="46.26149" lon="6.79884">
        <ele>1925.4</ele>
        <time>2022-03-06T11:29:28Z</time>
      </trkpt>
      <trkpt lat="46.2615" lon="6.79883">
        <ele>1925.6</ele>
        <time>2022-03-06T11:29:29Z</time>
      </trkpt>
      <trkpt lat="46.2615" lon="6.79883">
        <ele>1926</ele>
        <time>2022-03-06T11:29:30Z</time>
      </trkpt>
      <trkpt lat="46.2615" lon="6.79882">
        <ele>1926.2</ele>
        <time>2022-03-06T11:29:31Z</time>
      </trkpt>
      <trkpt lat="46.2615" lon="6.79882">
        <ele>1926.4</ele>
        <time>2022-03-06T11:29:32Z</time>
      </trkpt>
      <trkpt lat="46.2615" lon="6.79881">
        <ele>1926.4</ele>
        <time>2022-03-06T11:29:33Z</time>
      </trkpt>
      <trkpt lat="46.2615" lon="6.79881">
        <ele>1926.6</ele>
        <time>2022-03-06T11:29:34Z</time>
      </trkpt>
      <trkpt lat="46.2615" lon="6.7988">
        <ele>1926.6</ele>
        <time>2022-03-06T11:29:35Z</time>
      </trkpt>
      <trkpt lat="46.2615" lon="6.79879">
        <ele>1927.2</ele>
        <time>2022-03-06T11:29:38Z</time>
      </trkpt>
      <trkpt lat="46.2615" lon="6.79879">
        <ele>1927</ele>
        <time>2022-03-06T11:29:39Z</time>
      </trkpt>
      <trkpt lat="46.2615" lon="6.79878">
        <ele>1927.2</ele>
        <time>2022-03-06T11:29:40Z</time>
      </trkpt>
      <trkpt lat="46.2615" lon="6.79877">
        <ele>1927.4</ele>
        <time>2022-03-06T11:29:41Z</time>
      </trkpt>
      <trkpt lat="46.2615" lon="6.79876">
        <ele>1927.6</ele>
        <time>2022-03-06T11:29:42Z</time>
      </trkpt>
      <trkpt lat="46.2615" lon="6.79875">
        <ele>1927.8</ele>
        <time>2022-03-06T11:29:43Z</time>
      </trkpt>
      <trkpt lat="46.2615" lon="6.79873">
        <ele>1928</ele>
        <time>2022-03-06T11:29:44Z</time>
      </trkpt>
      <trkpt lat="46.26149" lon="6.79872">
        <ele>1928.2</ele>
        <time>2022-03-06T11:29:45Z</time>
      </trkpt>
      <trkpt lat="46.26149" lon="6.79872">
        <ele>1928.2</ele>
        <time>2022-03-06T11:29:46Z</time>
      </trkpt>
      <trkpt lat="46.26149" lon="6.79871">
        <ele>1928.4</ele>
        <time>2022-03-06T11:29:47Z</time>
      </trkpt>
      <trkpt lat="46.2615" lon="6.7987">
        <ele>1928.8</ele>
        <time>2022-03-06T11:29:48Z</time>
      </trkpt>
      <trkpt lat="46.26149" lon="6.7987">
        <ele>1928.8</ele>
        <time>2022-03-06T11:29:49Z</time>
      </trkpt>
      <trkpt lat="46.2615" lon="6.79869">
        <ele>1929</ele>
        <time>2022-03-06T11:29:50Z</time>
      </trkpt>
      <trkpt lat="46.26149" lon="6.79868">
        <ele>1929.2</ele>
        <time>2022-03-06T11:29:51Z</time>
      </trkpt>
      <trkpt lat="46.26149" lon="6.79867">
        <ele>1929.4</ele>
        <time>2022-03-06T11:29:52Z</time>
      </trkpt>
      <trkpt lat="46.26148" lon="6.79867">
        <ele>1929.4</ele>
        <time>2022-03-06T11:29:53Z</time>
      </trkpt>
      <trkpt lat="46.26148" lon="6.79866">
        <ele>1929.6</ele>
        <time>2022-03-06T11:29:54Z</time>
      </trkpt>
      <trkpt lat="46.26148" lon="6.79865">
        <ele>1930</ele>
        <time>2022-03-06T11:29:55Z</time>
      </trkpt>
      <trkpt lat="46.26148" lon="6.79865">
        <ele>1930</ele>
        <time>2022-03-06T11:29:56Z</time>
      </trkpt>
      <trkpt lat="46.26148" lon="6.79864">
        <ele>1930</ele>
        <time>2022-03-06T11:29:57Z</time>
      </trkpt>
      <trkpt lat="46.26148" lon="6.79863">
        <ele>1930.2</ele>
        <time>2022-03-06T11:29:58Z</time>
      </trkpt>
      <trkpt lat="46.26148" lon="6.79862">
        <ele>1930.4</ele>
        <time>2022-03-06T11:29:59Z</time>
      </trkpt>
      <trkpt lat="46.26147" lon="6.79861">
        <ele>1930.4</ele>
        <time>2022-03-06T11:30:00Z</time>
      </trkpt>
      <trkpt lat="46.26147" lon="6.7986">
        <ele>1930.6</ele>
        <time>2022-03-06T11:30:01Z</time>
      </trkpt>
      <trkpt lat="46.26147" lon="6.79859">
        <ele>1930.8</ele>
        <time>2022-03-06T11:30:02Z</time>
      </trkpt>
      <trkpt lat="46.26147" lon="6.79858">
        <ele>1931</ele>
        <time>2022-03-06T11:30:03Z</time>
      </trkpt>
      <trkpt lat="46.26147" lon="6.79857">
        <ele>1931</ele>
        <time>2022-03-06T11:30:04Z</time>
      </trkpt>
      <trkpt lat="46.26146" lon="6.79856">
        <ele>1931.4</ele>
        <time>2022-03-06T11:30:05Z</time>
      </trkpt>
      <trkpt lat="46.26146" lon="6.79855">
        <ele>1931.4</ele>
        <time>2022-03-06T11:30:06Z</time>
      </trkpt>
      <trkpt lat="46.26146" lon="6.79853">
        <ele>1931.6</ele>
        <time>2022-03-06T11:30:07Z</time>
      </trkpt>
      <trkpt lat="46.26145" lon="6.79852">
        <ele>1932</ele>
        <time>2022-03-06T11:30:08Z</time>
      </trkpt>
      <trkpt lat="46.26146" lon="6.79851">
        <ele>1932.2</ele>
        <time>2022-03-06T11:30:09Z</time>
      </trkpt>
      <trkpt lat="46.26145" lon="6.7985">
        <ele>1932.2</ele>
        <time>2022-03-06T11:30:10Z</time>
      </trkpt>
      <trkpt lat="46.26145" lon="6.79849">
        <ele>1932.2</ele>
        <time>2022-03-06T11:30:11Z</time>
      </trkpt>
      <trkpt lat="46.26145" lon="6.79849">
        <ele>1932.6</ele>
        <time>2022-03-06T11:30:12Z</time>
      </trkpt>
      <trkpt lat="46.26144" lon="6.79847">
        <ele>1932.8</ele>
        <time>2022-03-06T11:30:13Z</time>
      </trkpt>
      <trkpt lat="46.26142" lon="6.79844">
        <ele>1932.8</ele>
        <time>2022-03-06T11:30:14Z</time>
      </trkpt>
      <trkpt lat="46.2614" lon="6.79843">
        <ele>1933.2</ele>
        <time>2022-03-06T11:30:15Z</time>
      </trkpt>
      <trkpt lat="46.26138" lon="6.79842">
        <ele>1933.4</ele>
        <time>2022-03-06T11:30:16Z</time>
      </trkpt>
      <trkpt lat="46.26138" lon="6.79842">
        <ele>1933.6</ele>
        <time>2022-03-06T11:30:17Z</time>
      </trkpt>
      <trkpt lat="46.26137" lon="6.79842">
        <ele>1934</ele>
        <time>2022-03-06T11:30:18Z</time>
      </trkpt>
      <trkpt lat="46.26135" lon="6.79845">
        <ele>1935</ele>
        <time>2022-03-06T11:30:25Z</time>
      </trkpt>
      <trkpt lat="46.26135" lon="6.79845">
        <ele>1935.2</ele>
        <time>2022-03-06T11:30:26Z</time>
      </trkpt>
      <trkpt lat="46.26134" lon="6.79847">
        <ele>1935.8</ele>
        <time>2022-03-06T11:30:29Z</time>
      </trkpt>
      <trkpt lat="46.26134" lon="6.79848">
        <ele>1936</ele>
        <time>2022-03-06T11:30:30Z</time>
      </trkpt>
      <trkpt lat="46.26133" lon="6.79849">
        <ele>1936</ele>
        <time>2022-03-06T11:30:31Z</time>
      </trkpt>
      <trkpt lat="46.26133" lon="6.79849">
        <ele>1936.4</ele>
        <time>2022-03-06T11:30:32Z</time>
      </trkpt>
      <trkpt lat="46.26133" lon="6.7985">
        <ele>1936.4</ele>
        <time>2022-03-06T11:30:33Z</time>
      </trkpt>
      <trkpt lat="46.26133" lon="6.79851">
        <ele>1936.4</ele>
        <time>2022-03-06T11:30:34Z</time>
      </trkpt>
      <trkpt lat="46.26133" lon="6.79852">
        <ele>1936.6</ele>
        <time>2022-03-06T11:30:35Z</time>
      </trkpt>
      <trkpt lat="46.26133" lon="6.79852">
        <ele>1936.8</ele>
        <time>2022-03-06T11:30:36Z</time>
      </trkpt>
      <trkpt lat="46.26133" lon="6.79854">
        <ele>1937</ele>
        <time>2022-03-06T11:30:37Z</time>
      </trkpt>
      <trkpt lat="46.26133" lon="6.79854">
        <ele>1937.2</ele>
        <time>2022-03-06T11:30:38Z</time>
      </trkpt>
      <trkpt lat="46.26132" lon="6.79855">
        <ele>1937.4</ele>
        <time>2022-03-06T11:30:39Z</time>
      </trkpt>
      <trkpt lat="46.26132" lon="6.79855">
        <ele>1937.6</ele>
        <time>2022-03-06T11:30:40Z</time>
      </trkpt>
      <trkpt lat="46.26132" lon="6.79855">
        <ele>1937.8</ele>
        <time>2022-03-06T11:30:41Z</time>
      </trkpt>
      <trkpt lat="46.26132" lon="6.79858">
        <ele>1938.8</ele>
        <time>2022-03-06T11:30:47Z</time>
      </trkpt>
      <trkpt lat="46.26133" lon="6.79859">
        <ele>1940</ele>
        <time>2022-03-06T11:30:55Z</time>
      </trkpt>
      <trkpt lat="46.26137" lon="6.79858">
        <ele>1941.8</ele>
        <time>2022-03-06T11:31:11Z</time>
      </trkpt>
      <trkpt lat="46.26139" lon="6.79857">
        <ele>1942</ele>
        <time>2022-03-06T11:31:17Z</time>
      </trkpt>
      <trkpt lat="46.26139" lon="6.79853">
        <ele>1942.2</ele>
        <time>2022-03-06T11:31:23Z</time>
      </trkpt>
      <trkpt lat="46.26138" lon="6.79853">
        <ele>1942.2</ele>
        <time>2022-03-06T11:31:24Z</time>
      </trkpt>
      <trkpt lat="46.26139" lon="6.79852">
        <ele>1942.4</ele>
        <time>2022-03-06T11:31:25Z</time>
      </trkpt>
      <trkpt lat="46.26139" lon="6.79851">
        <ele>1942.4</ele>
        <time>2022-03-06T11:31:26Z</time>
      </trkpt>
      <trkpt lat="46.26137" lon="6.79848">
        <ele>1943.6</ele>
        <time>2022-03-06T11:31:35Z</time>
      </trkpt>
      <trkpt lat="46.26136" lon="6.79845">
        <ele>1943.6</ele>
        <time>2022-03-06T11:31:40Z</time>
      </trkpt>
      <trkpt lat="46.26134" lon="6.7984">
        <ele>1944</ele>
        <time>2022-03-06T11:31:46Z</time>
      </trkpt>
      <trkpt lat="46.26134" lon="6.7984">
        <ele>1944.6</ele>
        <time>2022-03-06T11:31:53Z</time>
      </trkpt>
      <trkpt lat="46.26133" lon="6.79838">
        <ele>1944.8</ele>
        <time>2022-03-06T11:32:01Z</time>
      </trkpt>
      <trkpt lat="46.26132" lon="6.79836">
        <ele>1944.8</ele>
        <time>2022-03-06T11:32:05Z</time>
      </trkpt>
      <trkpt lat="46.26131" lon="6.79836">
        <ele>1946.2</ele>
        <time>2022-03-06T11:32:18Z</time>
      </trkpt>
      <trkpt lat="46.26132" lon="6.79839">
        <ele>1946.2</ele>
        <time>2022-03-06T11:32:38Z</time>
      </trkpt>
      <trkpt lat="46.26132" lon="6.79838">
        <ele>1946.6</ele>
        <time>2022-03-06T11:32:52Z</time>
      </trkpt>
      <trkpt lat="46.26132" lon="6.79837">
        <ele>1946.4</ele>
        <time>2022-03-06T11:32:56Z</time>
      </trkpt>
      <trkpt lat="46.26134" lon="6.79837">
        <ele>1946.6</ele>
        <time>2022-03-06T11:33:08Z</time>
      </trkpt>
      <trkpt lat="46.26135" lon="6.7984">
        <ele>1946.4</ele>
        <time>2022-03-06T11:33:20Z</time>
      </trkpt>
      <trkpt lat="46.26136" lon="6.79841">
        <ele>1946.6</ele>
        <time>2022-03-06T11:33:21Z</time>
      </trkpt>
      <trkpt lat="46.26139" lon="6.79833">
        <ele>1946.6</ele>
        <time>2022-03-06T11:33:31Z</time>
      </trkpt>
      <trkpt lat="46.26139" lon="6.7983">
        <ele>1946.8</ele>
        <time>2022-03-06T11:33:33Z</time>
      </trkpt>
      <trkpt lat="46.26139" lon="6.79829">
        <ele>1946.8</ele>
        <time>2022-03-06T11:33:34Z</time>
      </trkpt>
      <trkpt lat="46.26139" lon="6.79828">
        <ele>1946.8</ele>
        <time>2022-03-06T11:33:35Z</time>
      </trkpt>
      <trkpt lat="46.26139" lon="6.79828">
        <ele>1947</ele>
        <time>2022-03-06T11:33:36Z</time>
      </trkpt>
      <trkpt lat="46.26141" lon="6.79828">
        <ele>1948</ele>
        <time>2022-03-06T11:33:42Z</time>
      </trkpt>
      <trkpt lat="46.2614" lon="6.79824">
        <ele>1948.4</ele>
        <time>2022-03-06T11:33:48Z</time>
      </trkpt>
      <trkpt lat="46.2614" lon="6.7982">
        <ele>1948.6</ele>
        <time>2022-03-06T11:33:52Z</time>
      </trkpt>
      <trkpt lat="46.2614" lon="6.79819">
        <ele>1948.6</ele>
        <time>2022-03-06T11:33:54Z</time>
      </trkpt>
      <trkpt lat="46.26139" lon="6.79815">
        <ele>1949.6</ele>
        <time>2022-03-06T11:34:01Z</time>
      </trkpt>
      <trkpt lat="46.26138" lon="6.79814">
        <ele>1949.6</ele>
        <time>2022-03-06T11:34:03Z</time>
      </trkpt>
      <trkpt lat="46.26137" lon="6.79813">
        <ele>1949.6</ele>
        <time>2022-03-06T11:34:04Z</time>
      </trkpt>
      <trkpt lat="46.26136" lon="6.79812">
        <ele>1949.8</ele>
        <time>2022-03-06T11:34:06Z</time>
      </trkpt>
      <trkpt lat="46.26136" lon="6.79811">
        <ele>1949.8</ele>
        <time>2022-03-06T11:34:07Z</time>
      </trkpt>
      <trkpt lat="46.26136" lon="6.79811">
        <ele>1949.8</ele>
        <time>2022-03-06T11:34:08Z</time>
      </trkpt>
      <trkpt lat="46.26135" lon="6.7981">
        <ele>1949.8</ele>
        <time>2022-03-06T11:34:09Z</time>
      </trkpt>
      <trkpt lat="46.26133" lon="6.79807">
        <ele>1950.8</ele>
        <time>2022-03-06T11:34:15Z</time>
      </trkpt>
      <trkpt lat="46.26132" lon="6.79807">
        <ele>1950.8</ele>
        <time>2022-03-06T11:34:16Z</time>
      </trkpt>
      <trkpt lat="46.26133" lon="6.79807">
        <ele>1951</ele>
        <time>2022-03-06T11:34:17Z</time>
      </trkpt>
      <trkpt lat="46.26132" lon="6.79807">
        <ele>1951.4</ele>
        <time>2022-03-06T11:34:22Z</time>
      </trkpt>
      <trkpt lat="46.26133" lon="6.79807">
        <ele>1951.8</ele>
        <time>2022-03-06T11:34:36Z</time>
      </trkpt>
      <trkpt lat="46.26133" lon="6.79807">
        <ele>1951.8</ele>
        <time>2022-03-06T11:34:50Z</time>
      </trkpt>
      <trkpt lat="46.26133" lon="6.79807">
        <ele>1952</ele>
        <time>2022-03-06T11:35:01Z</time>
      </trkpt>
      <trkpt lat="46.26133" lon="6.79807">
        <ele>1951.8</ele>
        <time>2022-03-06T11:35:14Z</time>
      </trkpt>
      <trkpt lat="46.26133" lon="6.79808">
        <ele>1952</ele>
        <time>2022-03-06T11:35:24Z</time>
      </trkpt>
      <trkpt lat="46.26133" lon="6.79808">
        <ele>1951.8</ele>
        <time>2022-03-06T11:35:37Z</time>
      </trkpt>
      <trkpt lat="46.26133" lon="6.79809">
        <ele>1951.8</ele>
        <time>2022-03-06T11:35:43Z</time>
      </trkpt>
      <trkpt lat="46.26133" lon="6.79808">
        <ele>1952</ele>
        <time>2022-03-06T11:35:53Z</time>
      </trkpt>
      <trkpt lat="46.26133" lon="6.79808">
        <ele>1952</ele>
        <time>2022-03-06T11:35:57Z</time>
      </trkpt>
      <trkpt lat="46.26133" lon="6.79808">
        <ele>1952</ele>
        <time>2022-03-06T11:36:07Z</time>
      </trkpt>
      <trkpt lat="46.26133" lon="6.79808">
        <ele>1951.8</ele>
        <time>2022-03-06T11:36:19Z</time>
      </trkpt>
      <trkpt lat="46.26133" lon="6.79809">
        <ele>1951.8</ele>
        <time>2022-03-06T11:36:30Z</time>
      </trkpt>
      <trkpt lat="46.26134" lon="6.79809">
        <ele>1951.8</ele>
        <time>2022-03-06T11:36:44Z</time>
      </trkpt>
      <trkpt lat="46.26134" lon="6.79809">
        <ele>1951.8</ele>
        <time>2022-03-06T11:36:52Z</time>
      </trkpt>
      <trkpt lat="46.26134" lon="6.7981">
        <ele>1951.8</ele>
        <time>2022-03-06T11:37:04Z</time>
      </trkpt>
      <trkpt lat="46.26134" lon="6.79808">
        <ele>1951.6</ele>
        <time>2022-03-06T11:37:13Z</time>
      </trkpt>
      <trkpt lat="46.26134" lon="6.79806">
        <ele>1951.6</ele>
        <time>2022-03-06T11:37:17Z</time>
      </trkpt>
      <trkpt lat="46.26134" lon="6.79806">
        <ele>1952</ele>
        <time>2022-03-06T11:37:26Z</time>
      </trkpt>
      <trkpt lat="46.26134" lon="6.79804">
        <ele>1951.8</ele>
        <time>2022-03-06T11:37:29Z</time>
      </trkpt>
      <trkpt lat="46.26134" lon="6.79803">
        <ele>1951.8</ele>
        <time>2022-03-06T11:37:30Z</time>
      </trkpt>
      <trkpt lat="46.26135" lon="6.79799">
        <ele>1951.8</ele>
        <time>2022-03-06T11:37:33Z</time>
      </trkpt>
      <trkpt lat="46.26135" lon="6.79798">
        <ele>1951.8</ele>
        <time>2022-03-06T11:37:34Z</time>
      </trkpt>
      <trkpt lat="46.26137" lon="6.79792">
        <ele>1951.6</ele>
        <time>2022-03-06T11:37:39Z</time>
      </trkpt>
      <trkpt lat="46.26138" lon="6.79791">
        <ele>1951.6</ele>
        <time>2022-03-06T11:37:40Z</time>
      </trkpt>
      <trkpt lat="46.26138" lon="6.7979">
        <ele>1951.6</ele>
        <time>2022-03-06T11:37:41Z</time>
      </trkpt>
      <trkpt lat="46.2614" lon="6.79787">
        <ele>1951.6</ele>
        <time>2022-03-06T11:37:44Z</time>
      </trkpt>
      <trkpt lat="46.2614" lon="6.79786">
        <ele>1951.6</ele>
        <time>2022-03-06T11:37:45Z</time>
      </trkpt>
      <trkpt lat="46.2614" lon="6.79785">
        <ele>1951.6</ele>
        <time>2022-03-06T11:37:46Z</time>
      </trkpt>
      <trkpt lat="46.2614" lon="6.79785">
        <ele>1951.6</ele>
        <time>2022-03-06T11:37:47Z</time>
      </trkpt>
      <trkpt lat="46.26141" lon="6.79784">
        <ele>1951.6</ele>
        <time>2022-03-06T11:37:48Z</time>
      </trkpt>
      <trkpt lat="46.26142" lon="6.79781">
        <ele>1951.8</ele>
        <time>2022-03-06T11:37:58Z</time>
      </trkpt>
      <trkpt lat="46.26142" lon="6.79781">
        <ele>1951.8</ele>
        <time>2022-03-06T11:38:10Z</time>
      </trkpt>
      <trkpt lat="46.26144" lon="6.7978">
        <ele>1952</ele>
        <time>2022-03-06T11:38:25Z</time>
      </trkpt>
      <trkpt lat="46.26144" lon="6.79779">
        <ele>1952</ele>
        <time>2022-03-06T11:38:36Z</time>
      </trkpt>
      <trkpt lat="46.26145" lon="6.79778">
        <ele>1952</ele>
        <time>2022-03-06T11:38:37Z</time>
      </trkpt>
      <trkpt lat="46.26146" lon="6.79777">
        <ele>1951.8</ele>
        <time>2022-03-06T11:38:39Z</time>
      </trkpt>
      <trkpt lat="46.26147" lon="6.79777">
        <ele>1952</ele>
        <time>2022-03-06T11:38:40Z</time>
      </trkpt>
      <trkpt lat="46.26147" lon="6.79776">
        <ele>1952</ele>
        <time>2022-03-06T11:38:41Z</time>
      </trkpt>
      <trkpt lat="46.26152" lon="6.79771">
        <ele>1952.4</ele>
        <time>2022-03-06T11:38:48Z</time>
      </trkpt>
      <trkpt lat="46.26155" lon="6.79767">
        <ele>1952.8</ele>
        <time>2022-03-06T11:38:52Z</time>
      </trkpt>
      <trkpt lat="46.26157" lon="6.79764">
        <ele>1953</ele>
        <time>2022-03-06T11:38:55Z</time>
      </trkpt>
      <trkpt lat="46.26157" lon="6.79764">
        <ele>1953</ele>
        <time>2022-03-06T11:38:56Z</time>
      </trkpt>
      <trkpt lat="46.26158" lon="6.79762">
        <ele>1953.2</ele>
        <time>2022-03-06T11:38:57Z</time>
      </trkpt>
      <trkpt lat="46.26158" lon="6.79761">
        <ele>1953.2</ele>
        <time>2022-03-06T11:38:58Z</time>
      </trkpt>
      <trkpt lat="46.2616" lon="6.79761">
        <ele>1953.4</ele>
        <time>2022-03-06T11:38:59Z</time>
      </trkpt>
      <trkpt lat="46.26161" lon="6.79761">
        <ele>1953.6</ele>
        <time>2022-03-06T11:39:00Z</time>
      </trkpt>
      <trkpt lat="46.26162" lon="6.7976">
        <ele>1953.8</ele>
        <time>2022-03-06T11:39:01Z</time>
      </trkpt>
      <trkpt lat="46.26162" lon="6.79759">
        <ele>1954</ele>
        <time>2022-03-06T11:39:02Z</time>
      </trkpt>
      <trkpt lat="46.26163" lon="6.79759">
        <ele>1954</ele>
        <time>2022-03-06T11:39:03Z</time>
      </trkpt>
      <trkpt lat="46.26164" lon="6.79758">
        <ele>1954.2</ele>
        <time>2022-03-06T11:39:04Z</time>
      </trkpt>
      <trkpt lat="46.26165" lon="6.79758">
        <ele>1954.2</ele>
        <time>2022-03-06T11:39:05Z</time>
      </trkpt>
      <trkpt lat="46.26165" lon="6.79758">
        <ele>1954.4</ele>
        <time>2022-03-06T11:39:06Z</time>
      </trkpt>
      <trkpt lat="46.26166" lon="6.79757">
        <ele>1954.6</ele>
        <time>2022-03-06T11:39:07Z</time>
      </trkpt>
      <trkpt lat="46.26167" lon="6.79756">
        <ele>1954.8</ele>
        <time>2022-03-06T11:39:08Z</time>
      </trkpt>
      <trkpt lat="46.26167" lon="6.79756">
        <ele>1954.8</ele>
        <time>2022-03-06T11:39:09Z</time>
      </trkpt>
      <trkpt lat="46.26168" lon="6.79756">
        <ele>1954.8</ele>
        <time>2022-03-06T11:39:10Z</time>
      </trkpt>
      <trkpt lat="46.26169" lon="6.79755">
        <ele>1955</ele>
        <time>2022-03-06T11:39:11Z</time>
      </trkpt>
      <trkpt lat="46.2617" lon="6.79754">
        <ele>1955.2</ele>
        <time>2022-03-06T11:39:12Z</time>
      </trkpt>
      <trkpt lat="46.2617" lon="6.79754">
        <ele>1955.4</ele>
        <time>2022-03-06T11:39:13Z</time>
      </trkpt>
      <trkpt lat="46.26171" lon="6.79753">
        <ele>1955.6</ele>
        <time>2022-03-06T11:39:14Z</time>
      </trkpt>
      <trkpt lat="46.26172" lon="6.79752">
        <ele>1955.6</ele>
        <time>2022-03-06T11:39:15Z</time>
      </trkpt>
      <trkpt lat="46.26172" lon="6.79751">
        <ele>1955.8</ele>
        <time>2022-03-06T11:39:16Z</time>
      </trkpt>
      <trkpt lat="46.26173" lon="6.79751">
        <ele>1956</ele>
        <time>2022-03-06T11:39:17Z</time>
      </trkpt>
      <trkpt lat="46.26173" lon="6.7975">
        <ele>1956.2</ele>
        <time>2022-03-06T11:39:18Z</time>
      </trkpt>
      <trkpt lat="46.26174" lon="6.7975">
        <ele>1956.2</ele>
        <time>2022-03-06T11:39:19Z</time>
      </trkpt>
      <trkpt lat="46.26174" lon="6.7975">
        <ele>1956.6</ele>
        <time>2022-03-06T11:39:20Z</time>
      </trkpt>
      <trkpt lat="46.26175" lon="6.79749">
        <ele>1956.6</ele>
        <time>2022-03-06T11:39:21Z</time>
      </trkpt>
      <trkpt lat="46.26176" lon="6.79749">
        <ele>1956.8</ele>
        <time>2022-03-06T11:39:22Z</time>
      </trkpt>
      <trkpt lat="46.26177" lon="6.79749">
        <ele>1957</ele>
        <time>2022-03-06T11:39:23Z</time>
      </trkpt>
      <trkpt lat="46.26177" lon="6.79749">
        <ele>1957.4</ele>
        <time>2022-03-06T11:39:24Z</time>
      </trkpt>
      <trkpt lat="46.26178" lon="6.79748">
        <ele>1957.6</ele>
        <time>2022-03-06T11:39:25Z</time>
      </trkpt>
      <trkpt lat="46.26178" lon="6.79748">
        <ele>1957.8</ele>
        <time>2022-03-06T11:39:26Z</time>
      </trkpt>
      <trkpt lat="46.26179" lon="6.79747">
        <ele>1958</ele>
        <time>2022-03-06T11:39:27Z</time>
      </trkpt>
      <trkpt lat="46.2618" lon="6.79747">
        <ele>1958.2</ele>
        <time>2022-03-06T11:39:28Z</time>
      </trkpt>
      <trkpt lat="46.2618" lon="6.79746">
        <ele>1958.4</ele>
        <time>2022-03-06T11:39:29Z</time>
      </trkpt>
      <trkpt lat="46.26181" lon="6.79745">
        <ele>1958.6</ele>
        <time>2022-03-06T11:39:30Z</time>
      </trkpt>
      <trkpt lat="46.26182" lon="6.79745">
        <ele>1958.8</ele>
        <time>2022-03-06T11:39:31Z</time>
      </trkpt>
      <trkpt lat="46.26182" lon="6.79745">
        <ele>1958.8</ele>
        <time>2022-03-06T11:39:32Z</time>
      </trkpt>
      <trkpt lat="46.26182" lon="6.79744">
        <ele>1959</ele>
        <time>2022-03-06T11:39:33Z</time>
      </trkpt>
      <trkpt lat="46.26183" lon="6.79744">
        <ele>1959.2</ele>
        <time>2022-03-06T11:39:34Z</time>
      </trkpt>
      <trkpt lat="46.26183" lon="6.79743">
        <ele>1959.2</ele>
        <time>2022-03-06T11:39:35Z</time>
      </trkpt>
      <trkpt lat="46.26184" lon="6.79743">
        <ele>1959.6</ele>
        <time>2022-03-06T11:39:36Z</time>
      </trkpt>
      <trkpt lat="46.26184" lon="6.79742">
        <ele>1959.6</ele>
        <time>2022-03-06T11:39:37Z</time>
      </trkpt>
      <trkpt lat="46.26185" lon="6.79742">
        <ele>1959.8</ele>
        <time>2022-03-06T11:39:38Z</time>
      </trkpt>
      <trkpt lat="46.26185" lon="6.79742">
        <ele>1960</ele>
        <time>2022-03-06T11:39:39Z</time>
      </trkpt>
      <trkpt lat="46.26186" lon="6.79742">
        <ele>1960.2</ele>
        <time>2022-03-06T11:39:40Z</time>
      </trkpt>
      <trkpt lat="46.26187" lon="6.79742">
        <ele>1960.4</ele>
        <time>2022-03-06T11:39:41Z</time>
      </trkpt>
      <trkpt lat="46.26187" lon="6.79742">
        <ele>1960.6</ele>
        <time>2022-03-06T11:39:42Z</time>
      </trkpt>
      <trkpt lat="46.26188" lon="6.79742">
        <ele>1960.6</ele>
        <time>2022-03-06T11:39:43Z</time>
      </trkpt>
      <trkpt lat="46.26189" lon="6.79741">
        <ele>1960.8</ele>
        <time>2022-03-06T11:39:44Z</time>
      </trkpt>
      <trkpt lat="46.26189" lon="6.79741">
        <ele>1961</ele>
        <time>2022-03-06T11:39:45Z</time>
      </trkpt>
      <trkpt lat="46.2619" lon="6.79741">
        <ele>1961.2</ele>
        <time>2022-03-06T11:39:46Z</time>
      </trkpt>
      <trkpt lat="46.2619" lon="6.7974">
        <ele>1961.4</ele>
        <time>2022-03-06T11:39:47Z</time>
      </trkpt>
      <trkpt lat="46.26191" lon="6.7974">
        <ele>1961.6</ele>
        <time>2022-03-06T11:39:48Z</time>
      </trkpt>
      <trkpt lat="46.26191" lon="6.7974">
        <ele>1961.8</ele>
        <time>2022-03-06T11:39:49Z</time>
      </trkpt>
      <trkpt lat="46.26192" lon="6.79739">
        <ele>1962</ele>
        <time>2022-03-06T11:39:50Z</time>
      </trkpt>
      <trkpt lat="46.26192" lon="6.79739">
        <ele>1962</ele>
        <time>2022-03-06T11:39:51Z</time>
      </trkpt>
      <trkpt lat="46.26193" lon="6.79738">
        <ele>1962.2</ele>
        <time>2022-03-06T11:39:52Z</time>
      </trkpt>
      <trkpt lat="46.26193" lon="6.79738">
        <ele>1962.4</ele>
        <time>2022-03-06T11:39:53Z</time>
      </trkpt>
      <trkpt lat="46.26194" lon="6.79737">
        <ele>1962.4</ele>
        <time>2022-03-06T11:39:54Z</time>
      </trkpt>
      <trkpt lat="46.26194" lon="6.79736">
        <ele>1962.6</ele>
        <time>2022-03-06T11:39:55Z</time>
      </trkpt>
      <trkpt lat="46.26195" lon="6.79735">
        <ele>1962.8</ele>
        <time>2022-03-06T11:39:56Z</time>
      </trkpt>
      <trkpt lat="46.26195" lon="6.79734">
        <ele>1963</ele>
        <time>2022-03-06T11:39:57Z</time>
      </trkpt>
      <trkpt lat="46.26195" lon="6.79734">
        <ele>1963.2</ele>
        <time>2022-03-06T11:39:58Z</time>
      </trkpt>
      <trkpt lat="46.26196" lon="6.79733">
        <ele>1963.2</ele>
        <time>2022-03-06T11:39:59Z</time>
      </trkpt>
      <trkpt lat="46.26196" lon="6.79732">
        <ele>1963.4</ele>
        <time>2022-03-06T11:40:00Z</time>
      </trkpt>
      <trkpt lat="46.26197" lon="6.79732">
        <ele>1963.8</ele>
        <time>2022-03-06T11:40:01Z</time>
      </trkpt>
      <trkpt lat="46.26197" lon="6.79731">
        <ele>1964</ele>
        <time>2022-03-06T11:40:02Z</time>
      </trkpt>
      <trkpt lat="46.26198" lon="6.79731">
        <ele>1964</ele>
        <time>2022-03-06T11:40:03Z</time>
      </trkpt>
      <trkpt lat="46.26198" lon="6.7973">
        <ele>1964.2</ele>
        <time>2022-03-06T11:40:04Z</time>
      </trkpt>
      <trkpt lat="46.26199" lon="6.7973">
        <ele>1964.2</ele>
        <time>2022-03-06T11:40:05Z</time>
      </trkpt>
      <trkpt lat="46.26199" lon="6.79729">
        <ele>1964.6</ele>
        <time>2022-03-06T11:40:06Z</time>
      </trkpt>
      <trkpt lat="46.262" lon="6.79729">
        <ele>1964.8</ele>
        <time>2022-03-06T11:40:07Z</time>
      </trkpt>
      <trkpt lat="46.262" lon="6.79728">
        <ele>1965</ele>
        <time>2022-03-06T11:40:08Z</time>
      </trkpt>
      <trkpt lat="46.262" lon="6.79727">
        <ele>1965.2</ele>
        <time>2022-03-06T11:40:09Z</time>
      </trkpt>
      <trkpt lat="46.26201" lon="6.79726">
        <ele>1965.2</ele>
        <time>2022-03-06T11:40:10Z</time>
      </trkpt>
      <trkpt lat="46.26201" lon="6.79726">
        <ele>1965.4</ele>
        <time>2022-03-06T11:40:11Z</time>
      </trkpt>
      <trkpt lat="46.26201" lon="6.79725">
        <ele>1965.6</ele>
        <time>2022-03-06T11:40:12Z</time>
      </trkpt>
      <trkpt lat="46.26202" lon="6.79724">
        <ele>1965.8</ele>
        <time>2022-03-06T11:40:13Z</time>
      </trkpt>
      <trkpt lat="46.26202" lon="6.79723">
        <ele>1965.8</ele>
        <time>2022-03-06T11:40:14Z</time>
      </trkpt>
      <trkpt lat="46.26202" lon="6.79722">
        <ele>1966</ele>
        <time>2022-03-06T11:40:15Z</time>
      </trkpt>
      <trkpt lat="46.26203" lon="6.79721">
        <ele>1966.2</ele>
        <time>2022-03-06T11:40:16Z</time>
      </trkpt>
      <trkpt lat="46.26203" lon="6.79721">
        <ele>1966.2</ele>
        <time>2022-03-06T11:40:17Z</time>
      </trkpt>
      <trkpt lat="46.26203" lon="6.7972">
        <ele>1966.6</ele>
        <time>2022-03-06T11:40:18Z</time>
      </trkpt>
      <trkpt lat="46.26203" lon="6.7972">
        <ele>1966.6</ele>
        <time>2022-03-06T11:40:19Z</time>
      </trkpt>
      <trkpt lat="46.26204" lon="6.79719">
        <ele>1966.6</ele>
        <time>2022-03-06T11:40:20Z</time>
      </trkpt>
      <trkpt lat="46.26204" lon="6.79719">
        <ele>1966.8</ele>
        <time>2022-03-06T11:40:21Z</time>
      </trkpt>
      <trkpt lat="46.26204" lon="6.79718">
        <ele>1967</ele>
        <time>2022-03-06T11:40:22Z</time>
      </trkpt>
      <trkpt lat="46.26204" lon="6.79717">
        <ele>1967.2</ele>
        <time>2022-03-06T11:40:23Z</time>
      </trkpt>
      <trkpt lat="46.26204" lon="6.79716">
        <ele>1967.4</ele>
        <time>2022-03-06T11:40:24Z</time>
      </trkpt>
      <trkpt lat="46.26204" lon="6.79716">
        <ele>1967.4</ele>
        <time>2022-03-06T11:40:25Z</time>
      </trkpt>
      <trkpt lat="46.26205" lon="6.79715">
        <ele>1967.8</ele>
        <time>2022-03-06T11:40:26Z</time>
      </trkpt>
      <trkpt lat="46.26205" lon="6.79714">
        <ele>1968</ele>
        <time>2022-03-06T11:40:27Z</time>
      </trkpt>
      <trkpt lat="46.26206" lon="6.79714">
        <ele>1968.2</ele>
        <time>2022-03-06T11:40:28Z</time>
      </trkpt>
      <trkpt lat="46.26206" lon="6.79713">
        <ele>1968.2</ele>
        <time>2022-03-06T11:40:29Z</time>
      </trkpt>
      <trkpt lat="46.26206" lon="6.79713">
        <ele>1968.6</ele>
        <time>2022-03-06T11:40:30Z</time>
      </trkpt>
      <trkpt lat="46.26207" lon="6.79712">
        <ele>1968.8</ele>
        <time>2022-03-06T11:40:31Z</time>
      </trkpt>
      <trkpt lat="46.26207" lon="6.79712">
        <ele>1969</ele>
        <time>2022-03-06T11:40:32Z</time>
      </trkpt>
      <trkpt lat="46.26208" lon="6.79711">
        <ele>1969.2</ele>
        <time>2022-03-06T11:40:33Z</time>
      </trkpt>
      <trkpt lat="46.26208" lon="6.79711">
        <ele>1969.4</ele>
        <time>2022-03-06T11:40:34Z</time>
      </trkpt>
      <trkpt lat="46.26209" lon="6.79711">
        <ele>1969.2</ele>
        <time>2022-03-06T11:40:35Z</time>
      </trkpt>
      <trkpt lat="46.26209" lon="6.79711">
        <ele>1969.6</ele>
        <time>2022-03-06T11:40:36Z</time>
      </trkpt>
      <trkpt lat="46.2621" lon="6.7971">
        <ele>1969.8</ele>
        <time>2022-03-06T11:40:37Z</time>
      </trkpt>
      <trkpt lat="46.2621" lon="6.7971">
        <ele>1970</ele>
        <time>2022-03-06T11:40:38Z</time>
      </trkpt>
      <trkpt lat="46.26211" lon="6.79709">
        <ele>1970</ele>
        <time>2022-03-06T11:40:39Z</time>
      </trkpt>
      <trkpt lat="46.26211" lon="6.79708">
        <ele>1970.2</ele>
        <time>2022-03-06T11:40:40Z</time>
      </trkpt>
      <trkpt lat="46.26211" lon="6.79708">
        <ele>1970.2</ele>
        <time>2022-03-06T11:40:41Z</time>
      </trkpt>
      <trkpt lat="46.26212" lon="6.79707">
        <ele>1970.6</ele>
        <time>2022-03-06T11:40:42Z</time>
      </trkpt>
      <trkpt lat="46.26212" lon="6.79706">
        <ele>1970.8</ele>
        <time>2022-03-06T11:40:43Z</time>
      </trkpt>
      <trkpt lat="46.26213" lon="6.79706">
        <ele>1970.8</ele>
        <time>2022-03-06T11:40:44Z</time>
      </trkpt>
      <trkpt lat="46.26213" lon="6.79706">
        <ele>1971</ele>
        <time>2022-03-06T11:40:45Z</time>
      </trkpt>
      <trkpt lat="46.26214" lon="6.79705">
        <ele>1971.4</ele>
        <time>2022-03-06T11:40:46Z</time>
      </trkpt>
      <trkpt lat="46.26214" lon="6.79704">
        <ele>1971.8</ele>
        <time>2022-03-06T11:40:47Z</time>
      </trkpt>
      <trkpt lat="46.26215" lon="6.79704">
        <ele>1971.8</ele>
        <time>2022-03-06T11:40:48Z</time>
      </trkpt>
      <trkpt lat="46.26215" lon="6.79703">
        <ele>1972.2</ele>
        <time>2022-03-06T11:40:49Z</time>
      </trkpt>
      <trkpt lat="46.26216" lon="6.79703">
        <ele>1972.4</ele>
        <time>2022-03-06T11:40:50Z</time>
      </trkpt>
      <trkpt lat="46.26217" lon="6.79703">
        <ele>1972.4</ele>
        <time>2022-03-06T11:40:51Z</time>
      </trkpt>
      <trkpt lat="46.26217" lon="6.79702">
        <ele>1972.6</ele>
        <time>2022-03-06T11:40:52Z</time>
      </trkpt>
      <trkpt lat="46.26218" lon="6.79702">
        <ele>1972.6</ele>
        <time>2022-03-06T11:40:53Z</time>
      </trkpt>
      <trkpt lat="46.26219" lon="6.79701">
        <ele>1973</ele>
        <time>2022-03-06T11:40:54Z</time>
      </trkpt>
      <trkpt lat="46.26219" lon="6.79701">
        <ele>1973.2</ele>
        <time>2022-03-06T11:40:55Z</time>
      </trkpt>
      <trkpt lat="46.26219" lon="6.797">
        <ele>1973.6</ele>
        <time>2022-03-06T11:40:56Z</time>
      </trkpt>
      <trkpt lat="46.2622" lon="6.79699">
        <ele>1973.6</ele>
        <time>2022-03-06T11:40:57Z</time>
      </trkpt>
      <trkpt lat="46.2622" lon="6.79698">
        <ele>1973.8</ele>
        <time>2022-03-06T11:40:58Z</time>
      </trkpt>
      <trkpt lat="46.26221" lon="6.79696">
        <ele>1974</ele>
        <time>2022-03-06T11:40:59Z</time>
      </trkpt>
      <trkpt lat="46.26221" lon="6.79696">
        <ele>1974.2</ele>
        <time>2022-03-06T11:41:00Z</time>
      </trkpt>
      <trkpt lat="46.26221" lon="6.79695">
        <ele>1974.2</ele>
        <time>2022-03-06T11:41:01Z</time>
      </trkpt>
      <trkpt lat="46.26222" lon="6.79694">
        <ele>1974.4</ele>
        <time>2022-03-06T11:41:02Z</time>
      </trkpt>
      <trkpt lat="46.26222" lon="6.79694">
        <ele>1974.4</ele>
        <time>2022-03-06T11:41:03Z</time>
      </trkpt>
      <trkpt lat="46.26223" lon="6.79693">
        <ele>1974.8</ele>
        <time>2022-03-06T11:41:04Z</time>
      </trkpt>
      <trkpt lat="46.26223" lon="6.79692">
        <ele>1975</ele>
        <time>2022-03-06T11:41:05Z</time>
      </trkpt>
      <trkpt lat="46.26224" lon="6.79692">
        <ele>1975.2</ele>
        <time>2022-03-06T11:41:06Z</time>
      </trkpt>
      <trkpt lat="46.26224" lon="6.79691">
        <ele>1975.4</ele>
        <time>2022-03-06T11:41:07Z</time>
      </trkpt>
      <trkpt lat="46.26224" lon="6.7969">
        <ele>1975.8</ele>
        <time>2022-03-06T11:41:08Z</time>
      </trkpt>
      <trkpt lat="46.26224" lon="6.7969">
        <ele>1975.8</ele>
        <time>2022-03-06T11:41:09Z</time>
      </trkpt>
      <trkpt lat="46.26225" lon="6.79689">
        <ele>1976.2</ele>
        <time>2022-03-06T11:41:10Z</time>
      </trkpt>
      <trkpt lat="46.26225" lon="6.79688">
        <ele>1976.4</ele>
        <time>2022-03-06T11:41:11Z</time>
      </trkpt>
      <trkpt lat="46.26226" lon="6.79687">
        <ele>1976.6</ele>
        <time>2022-03-06T11:41:12Z</time>
      </trkpt>
      <trkpt lat="46.26226" lon="6.79686">
        <ele>1976.8</ele>
        <time>2022-03-06T11:41:13Z</time>
      </trkpt>
      <trkpt lat="46.26226" lon="6.79685">
        <ele>1977</ele>
        <time>2022-03-06T11:41:14Z</time>
      </trkpt>
      <trkpt lat="46.26227" lon="6.79685">
        <ele>1977.2</ele>
        <time>2022-03-06T11:41:15Z</time>
      </trkpt>
      <trkpt lat="46.26227" lon="6.79684">
        <ele>1977.4</ele>
        <time>2022-03-06T11:41:16Z</time>
      </trkpt>
      <trkpt lat="46.26228" lon="6.79684">
        <ele>1977.6</ele>
        <time>2022-03-06T11:41:17Z</time>
      </trkpt>
      <trkpt lat="46.26228" lon="6.79683">
        <ele>1978</ele>
        <time>2022-03-06T11:41:18Z</time>
      </trkpt>
      <trkpt lat="46.26229" lon="6.79682">
        <ele>1978</ele>
        <time>2022-03-06T11:41:19Z</time>
      </trkpt>
      <trkpt lat="46.26229" lon="6.79682">
        <ele>1978.4</ele>
        <time>2022-03-06T11:41:20Z</time>
      </trkpt>
      <trkpt lat="46.2623" lon="6.79681">
        <ele>1978.6</ele>
        <time>2022-03-06T11:41:21Z</time>
      </trkpt>
      <trkpt lat="46.2623" lon="6.79681">
        <ele>1978.6</ele>
        <time>2022-03-06T11:41:22Z</time>
      </trkpt>
      <trkpt lat="46.2623" lon="6.7968">
        <ele>1978.8</ele>
        <time>2022-03-06T11:41:23Z</time>
      </trkpt>
      <trkpt lat="46.26231" lon="6.7968">
        <ele>1978.8</ele>
        <time>2022-03-06T11:41:24Z</time>
      </trkpt>
      <trkpt lat="46.26231" lon="6.7968">
        <ele>1979</ele>
        <time>2022-03-06T11:41:25Z</time>
      </trkpt>
      <trkpt lat="46.26232" lon="6.79679">
        <ele>1979.4</ele>
        <time>2022-03-06T11:41:26Z</time>
      </trkpt>
      <trkpt lat="46.26232" lon="6.79679">
        <ele>1979.4</ele>
        <time>2022-03-06T11:41:27Z</time>
      </trkpt>
      <trkpt lat="46.26233" lon="6.79678">
        <ele>1979.6</ele>
        <time>2022-03-06T11:41:28Z</time>
      </trkpt>
      <trkpt lat="46.26233" lon="6.79678">
        <ele>1980</ele>
        <time>2022-03-06T11:41:29Z</time>
      </trkpt>
      <trkpt lat="46.26233" lon="6.79677">
        <ele>1980</ele>
        <time>2022-03-06T11:41:30Z</time>
      </trkpt>
      <trkpt lat="46.26234" lon="6.79676">
        <ele>1980.2</ele>
        <time>2022-03-06T11:41:31Z</time>
      </trkpt>
      <trkpt lat="46.26234" lon="6.79675">
        <ele>1980.4</ele>
        <time>2022-03-06T11:41:32Z</time>
      </trkpt>
      <trkpt lat="46.26234" lon="6.79675">
        <ele>1980.6</ele>
        <time>2022-03-06T11:41:33Z</time>
      </trkpt>
      <trkpt lat="46.26235" lon="6.79674">
        <ele>1980.8</ele>
        <time>2022-03-06T11:41:34Z</time>
      </trkpt>
      <trkpt lat="46.26235" lon="6.79673">
        <ele>1981</ele>
        <time>2022-03-06T11:41:35Z</time>
      </trkpt>
      <trkpt lat="46.26236" lon="6.79673">
        <ele>1981.2</ele>
        <time>2022-03-06T11:41:36Z</time>
      </trkpt>
      <trkpt lat="46.26236" lon="6.79672">
        <ele>1981.4</ele>
        <time>2022-03-06T11:41:37Z</time>
      </trkpt>
      <trkpt lat="46.26236" lon="6.79671">
        <ele>1981.4</ele>
        <time>2022-03-06T11:41:38Z</time>
      </trkpt>
      <trkpt lat="46.26236" lon="6.79671">
        <ele>1981.6</ele>
        <time>2022-03-06T11:41:39Z</time>
      </trkpt>
      <trkpt lat="46.26236" lon="6.7967">
        <ele>1981.8</ele>
        <time>2022-03-06T11:41:40Z</time>
      </trkpt>
      <trkpt lat="46.26237" lon="6.79669">
        <ele>1982</ele>
        <time>2022-03-06T11:41:41Z</time>
      </trkpt>
      <trkpt lat="46.26237" lon="6.79668">
        <ele>1982.2</ele>
        <time>2022-03-06T11:41:42Z</time>
      </trkpt>
      <trkpt lat="46.26237" lon="6.79667">
        <ele>1982.2</ele>
        <time>2022-03-06T11:41:43Z</time>
      </trkpt>
      <trkpt lat="46.26238" lon="6.79667">
        <ele>1982.6</ele>
        <time>2022-03-06T11:41:44Z</time>
      </trkpt>
      <trkpt lat="46.26238" lon="6.79666">
        <ele>1982.8</ele>
        <time>2022-03-06T11:41:45Z</time>
      </trkpt>
      <trkpt lat="46.26238" lon="6.79665">
        <ele>1983</ele>
        <time>2022-03-06T11:41:46Z</time>
      </trkpt>
      <trkpt lat="46.26239" lon="6.79664">
        <ele>1983</ele>
        <time>2022-03-06T11:41:47Z</time>
      </trkpt>
      <trkpt lat="46.26239" lon="6.79664">
        <ele>1983</ele>
        <time>2022-03-06T11:41:48Z</time>
      </trkpt>
      <trkpt lat="46.26239" lon="6.79663">
        <ele>1983.2</ele>
        <time>2022-03-06T11:41:49Z</time>
      </trkpt>
      <trkpt lat="46.2624" lon="6.79662">
        <ele>1983.4</ele>
        <time>2022-03-06T11:41:50Z</time>
      </trkpt>
      <trkpt lat="46.26241" lon="6.79661">
        <ele>1983.6</ele>
        <time>2022-03-06T11:41:51Z</time>
      </trkpt>
      <trkpt lat="46.26241" lon="6.79661">
        <ele>1983.6</ele>
        <time>2022-03-06T11:41:52Z</time>
      </trkpt>
      <trkpt lat="46.26242" lon="6.7966">
        <ele>1983.8</ele>
        <time>2022-03-06T11:41:53Z</time>
      </trkpt>
      <trkpt lat="46.26242" lon="6.79659">
        <ele>1984</ele>
        <time>2022-03-06T11:41:54Z</time>
      </trkpt>
      <trkpt lat="46.26243" lon="6.79659">
        <ele>1984.2</ele>
        <time>2022-03-06T11:41:55Z</time>
      </trkpt>
      <trkpt lat="46.26243" lon="6.79658">
        <ele>1984.4</ele>
        <time>2022-03-06T11:41:56Z</time>
      </trkpt>
      <trkpt lat="46.26243" lon="6.79657">
        <ele>1984.6</ele>
        <time>2022-03-06T11:41:57Z</time>
      </trkpt>
      <trkpt lat="46.26243" lon="6.79657">
        <ele>1985</ele>
        <time>2022-03-06T11:41:58Z</time>
      </trkpt>
      <trkpt lat="46.26244" lon="6.79656">
        <ele>1985</ele>
        <time>2022-03-06T11:41:59Z</time>
      </trkpt>
      <trkpt lat="46.26244" lon="6.79656">
        <ele>1985.2</ele>
        <time>2022-03-06T11:42:00Z</time>
      </trkpt>
      <trkpt lat="46.26245" lon="6.79655">
        <ele>1985.4</ele>
        <time>2022-03-06T11:42:01Z</time>
      </trkpt>
      <trkpt lat="46.26245" lon="6.79654">
        <ele>1985.4</ele>
        <time>2022-03-06T11:42:02Z</time>
      </trkpt>
      <trkpt lat="46.26245" lon="6.79653">
        <ele>1985.6</ele>
        <time>2022-03-06T11:42:03Z</time>
      </trkpt>
      <trkpt lat="46.26246" lon="6.79653">
        <ele>1985.6</ele>
        <time>2022-03-06T11:42:04Z</time>
      </trkpt>
      <trkpt lat="46.26246" lon="6.79652">
        <ele>1986</ele>
        <time>2022-03-06T11:42:05Z</time>
      </trkpt>
      <trkpt lat="46.26247" lon="6.79652">
        <ele>1986</ele>
        <time>2022-03-06T11:42:06Z</time>
      </trkpt>
      <trkpt lat="46.26247" lon="6.79651">
        <ele>1986.2</ele>
        <time>2022-03-06T11:42:07Z</time>
      </trkpt>
      <trkpt lat="46.26247" lon="6.79651">
        <ele>1986.4</ele>
        <time>2022-03-06T11:42:08Z</time>
      </trkpt>
      <trkpt lat="46.26248" lon="6.79651">
        <ele>1986.4</ele>
        <time>2022-03-06T11:42:09Z</time>
      </trkpt>
      <trkpt lat="46.26248" lon="6.79651">
        <ele>1986.8</ele>
        <time>2022-03-06T11:42:10Z</time>
      </trkpt>
      <trkpt lat="46.26249" lon="6.79651">
        <ele>1986.8</ele>
        <time>2022-03-06T11:42:11Z</time>
      </trkpt>
      <trkpt lat="46.26249" lon="6.79651">
        <ele>1987</ele>
        <time>2022-03-06T11:42:12Z</time>
      </trkpt>
      <trkpt lat="46.26249" lon="6.7965">
        <ele>1987</ele>
        <time>2022-03-06T11:42:13Z</time>
      </trkpt>
      <trkpt lat="46.26249" lon="6.7965">
        <ele>1987.2</ele>
        <time>2022-03-06T11:42:14Z</time>
      </trkpt>
      <trkpt lat="46.2625" lon="6.79649">
        <ele>1987.8</ele>
        <time>2022-03-06T11:42:16Z</time>
      </trkpt>
      <trkpt lat="46.2625" lon="6.79648">
        <ele>1988</ele>
        <time>2022-03-06T11:42:17Z</time>
      </trkpt>
      <trkpt lat="46.2625" lon="6.79648">
        <ele>1988.2</ele>
        <time>2022-03-06T11:42:18Z</time>
      </trkpt>
      <trkpt lat="46.2625" lon="6.79647">
        <ele>1988.2</ele>
        <time>2022-03-06T11:42:19Z</time>
      </trkpt>
      <trkpt lat="46.26251" lon="6.79646">
        <ele>1988.4</ele>
        <time>2022-03-06T11:42:20Z</time>
      </trkpt>
      <trkpt lat="46.26251" lon="6.79646">
        <ele>1988.6</ele>
        <time>2022-03-06T11:42:21Z</time>
      </trkpt>
      <trkpt lat="46.26252" lon="6.79645">
        <ele>1988.8</ele>
        <time>2022-03-06T11:42:22Z</time>
      </trkpt>
      <trkpt lat="46.26252" lon="6.79645">
        <ele>1989</ele>
        <time>2022-03-06T11:42:23Z</time>
      </trkpt>
      <trkpt lat="46.26253" lon="6.79644">
        <ele>1989.2</ele>
        <time>2022-03-06T11:42:24Z</time>
      </trkpt>
      <trkpt lat="46.26253" lon="6.79644">
        <ele>1989.2</ele>
        <time>2022-03-06T11:42:25Z</time>
      </trkpt>
      <trkpt lat="46.26253" lon="6.79643">
        <ele>1989.6</ele>
        <time>2022-03-06T11:42:26Z</time>
      </trkpt>
      <trkpt lat="46.26253" lon="6.79641">
        <ele>1990</ele>
        <time>2022-03-06T11:42:29Z</time>
      </trkpt>
      <trkpt lat="46.26254" lon="6.79641">
        <ele>1990.2</ele>
        <time>2022-03-06T11:42:30Z</time>
      </trkpt>
      <trkpt lat="46.26254" lon="6.7964">
        <ele>1990.2</ele>
        <time>2022-03-06T11:42:31Z</time>
      </trkpt>
      <trkpt lat="46.26254" lon="6.7964">
        <ele>1990.2</ele>
        <time>2022-03-06T11:42:32Z</time>
      </trkpt>
      <trkpt lat="46.26255" lon="6.79639">
        <ele>1990.6</ele>
        <time>2022-03-06T11:42:33Z</time>
      </trkpt>
      <trkpt lat="46.26255" lon="6.79639">
        <ele>1990.8</ele>
        <time>2022-03-06T11:42:34Z</time>
      </trkpt>
      <trkpt lat="46.26255" lon="6.79638">
        <ele>1991</ele>
        <time>2022-03-06T11:42:35Z</time>
      </trkpt>
      <trkpt lat="46.26256" lon="6.79638">
        <ele>1991.2</ele>
        <time>2022-03-06T11:42:36Z</time>
      </trkpt>
      <trkpt lat="46.26256" lon="6.79637">
        <ele>1991.4</ele>
        <time>2022-03-06T11:42:37Z</time>
      </trkpt>
      <trkpt lat="46.26256" lon="6.79637">
        <ele>1991.6</ele>
        <time>2022-03-06T11:42:38Z</time>
      </trkpt>
      <trkpt lat="46.26257" lon="6.79636">
        <ele>1992</ele>
        <time>2022-03-06T11:42:40Z</time>
      </trkpt>
      <trkpt lat="46.26258" lon="6.79635">
        <ele>1992.2</ele>
        <time>2022-03-06T11:42:41Z</time>
      </trkpt>
      <trkpt lat="46.26258" lon="6.79635">
        <ele>1992.4</ele>
        <time>2022-03-06T11:42:42Z</time>
      </trkpt>
      <trkpt lat="46.26258" lon="6.79634">
        <ele>1992.6</ele>
        <time>2022-03-06T11:42:43Z</time>
      </trkpt>
      <trkpt lat="46.26258" lon="6.79633">
        <ele>1993.2</ele>
        <time>2022-03-06T11:42:46Z</time>
      </trkpt>
      <trkpt lat="46.26259" lon="6.79633">
        <ele>1994.6</ele>
        <time>2022-03-06T11:42:58Z</time>
      </trkpt>
      <trkpt lat="46.26259" lon="6.79632">
        <ele>1994.8</ele>
        <time>2022-03-06T11:43:01Z</time>
      </trkpt>
      <trkpt lat="46.2626" lon="6.79631">
        <ele>1994.8</ele>
        <time>2022-03-06T11:43:03Z</time>
      </trkpt>
      <trkpt lat="46.2626" lon="6.7963">
        <ele>1994.8</ele>
        <time>2022-03-06T11:43:04Z</time>
      </trkpt>
      <trkpt lat="46.26261" lon="6.7963">
        <ele>1995</ele>
        <time>2022-03-06T11:43:05Z</time>
      </trkpt>
      <trkpt lat="46.26261" lon="6.79629">
        <ele>1994.8</ele>
        <time>2022-03-06T11:43:06Z</time>
      </trkpt>
      <trkpt lat="46.26261" lon="6.79628">
        <ele>1995.2</ele>
        <time>2022-03-06T11:43:08Z</time>
      </trkpt>
      <trkpt lat="46.26262" lon="6.79627">
        <ele>1995.2</ele>
        <time>2022-03-06T11:43:09Z</time>
      </trkpt>
      <trkpt lat="46.26262" lon="6.79627">
        <ele>1995.2</ele>
        <time>2022-03-06T11:43:10Z</time>
      </trkpt>
      <trkpt lat="46.26262" lon="6.79626">
        <ele>1995.6</ele>
        <time>2022-03-06T11:43:11Z</time>
      </trkpt>
      <trkpt lat="46.26264" lon="6.79625">
        <ele>1996</ele>
        <time>2022-03-06T11:43:14Z</time>
      </trkpt>
      <trkpt lat="46.26264" lon="6.79624">
        <ele>1996.4</ele>
        <time>2022-03-06T11:43:15Z</time>
      </trkpt>
      <trkpt lat="46.26264" lon="6.79623">
        <ele>1996.6</ele>
        <time>2022-03-06T11:43:16Z</time>
      </trkpt>
      <trkpt lat="46.26265" lon="6.79623">
        <ele>1996.6</ele>
        <time>2022-03-06T11:43:17Z</time>
      </trkpt>
      <trkpt lat="46.26265" lon="6.79622">
        <ele>1996.8</ele>
        <time>2022-03-06T11:43:18Z</time>
      </trkpt>
      <trkpt lat="46.26266" lon="6.79621">
        <ele>1997</ele>
        <time>2022-03-06T11:43:19Z</time>
      </trkpt>
      <trkpt lat="46.26266" lon="6.7962">
        <ele>1997.2</ele>
        <time>2022-03-06T11:43:20Z</time>
      </trkpt>
      <trkpt lat="46.26266" lon="6.79619">
        <ele>1997.6</ele>
        <time>2022-03-06T11:43:21Z</time>
      </trkpt>
      <trkpt lat="46.26267" lon="6.79618">
        <ele>1997.8</ele>
        <time>2022-03-06T11:43:22Z</time>
      </trkpt>
      <trkpt lat="46.26267" lon="6.79618">
        <ele>1998</ele>
        <time>2022-03-06T11:43:23Z</time>
      </trkpt>
      <trkpt lat="46.26268" lon="6.79617">
        <ele>1998.2</ele>
        <time>2022-03-06T11:43:24Z</time>
      </trkpt>
      <trkpt lat="46.26267" lon="6.79615">
        <ele>1998.2</ele>
        <time>2022-03-06T11:43:25Z</time>
      </trkpt>
      <trkpt lat="46.26268" lon="6.79615">
        <ele>1998.6</ele>
        <time>2022-03-06T11:43:26Z</time>
      </trkpt>
      <trkpt lat="46.26268" lon="6.79614">
        <ele>1998.8</ele>
        <time>2022-03-06T11:43:27Z</time>
      </trkpt>
      <trkpt lat="46.26268" lon="6.79613">
        <ele>1999</ele>
        <time>2022-03-06T11:43:29Z</time>
      </trkpt>
      <trkpt lat="46.26269" lon="6.79612">
        <ele>1999.4</ele>
        <time>2022-03-06T11:43:30Z</time>
      </trkpt>
      <trkpt lat="46.26269" lon="6.79613">
        <ele>1999.6</ele>
        <time>2022-03-06T11:43:31Z</time>
      </trkpt>
      <trkpt lat="46.2627" lon="6.79613">
        <ele>1999.8</ele>
        <time>2022-03-06T11:43:32Z</time>
      </trkpt>
      <trkpt lat="46.2627" lon="6.79613">
        <ele>2000</ele>
        <time>2022-03-06T11:43:33Z</time>
      </trkpt>
      <trkpt lat="46.2627" lon="6.79614">
        <ele>2000.2</ele>
        <time>2022-03-06T11:43:34Z</time>
      </trkpt>
      <trkpt lat="46.2627" lon="6.79614">
        <ele>2000.4</ele>
        <time>2022-03-06T11:43:35Z</time>
      </trkpt>
      <trkpt lat="46.26271" lon="6.79615">
        <ele>2000.6</ele>
        <time>2022-03-06T11:43:36Z</time>
      </trkpt>
      <trkpt lat="46.26271" lon="6.79616">
        <ele>2000.8</ele>
        <time>2022-03-06T11:43:37Z</time>
      </trkpt>
      <trkpt lat="46.26272" lon="6.79616">
        <ele>2001</ele>
        <time>2022-03-06T11:43:38Z</time>
      </trkpt>
      <trkpt lat="46.26272" lon="6.79616">
        <ele>2001</ele>
        <time>2022-03-06T11:43:39Z</time>
      </trkpt>
      <trkpt lat="46.26273" lon="6.79617">
        <ele>2001.2</ele>
        <time>2022-03-06T11:43:40Z</time>
      </trkpt>
      <trkpt lat="46.26273" lon="6.79618">
        <ele>2001.4</ele>
        <time>2022-03-06T11:43:41Z</time>
      </trkpt>
      <trkpt lat="46.26273" lon="6.79618">
        <ele>2001.4</ele>
        <time>2022-03-06T11:43:42Z</time>
      </trkpt>
      <trkpt lat="46.26274" lon="6.79619">
        <ele>2001.6</ele>
        <time>2022-03-06T11:43:43Z</time>
      </trkpt>
      <trkpt lat="46.26274" lon="6.79619">
        <ele>2001.8</ele>
        <time>2022-03-06T11:43:44Z</time>
      </trkpt>
      <trkpt lat="46.26274" lon="6.7962">
        <ele>2001.8</ele>
        <time>2022-03-06T11:43:45Z</time>
      </trkpt>
      <trkpt lat="46.26275" lon="6.7962">
        <ele>2002</ele>
        <time>2022-03-06T11:43:46Z</time>
      </trkpt>
      <trkpt lat="46.26275" lon="6.79621">
        <ele>2002.2</ele>
        <time>2022-03-06T11:43:47Z</time>
      </trkpt>
      <trkpt lat="46.26275" lon="6.79621">
        <ele>2002.4</ele>
        <time>2022-03-06T11:43:48Z</time>
      </trkpt>
      <trkpt lat="46.26275" lon="6.79622">
        <ele>2002.4</ele>
        <time>2022-03-06T11:43:49Z</time>
      </trkpt>
      <trkpt lat="46.26275" lon="6.79622">
        <ele>2002.6</ele>
        <time>2022-03-06T11:43:50Z</time>
      </trkpt>
      <trkpt lat="46.26275" lon="6.79623">
        <ele>2002.8</ele>
        <time>2022-03-06T11:43:51Z</time>
      </trkpt>
      <trkpt lat="46.26275" lon="6.79623">
        <ele>2003</ele>
        <time>2022-03-06T11:43:52Z</time>
      </trkpt>
      <trkpt lat="46.26275" lon="6.79624">
        <ele>2003.2</ele>
        <time>2022-03-06T11:43:53Z</time>
      </trkpt>
      <trkpt lat="46.26276" lon="6.79624">
        <ele>2003.4</ele>
        <time>2022-03-06T11:43:54Z</time>
      </trkpt>
      <trkpt lat="46.26276" lon="6.79625">
        <ele>2003.6</ele>
        <time>2022-03-06T11:43:55Z</time>
      </trkpt>
      <trkpt lat="46.26277" lon="6.79626">
        <ele>2003.8</ele>
        <time>2022-03-06T11:43:56Z</time>
      </trkpt>
      <trkpt lat="46.26278" lon="6.79626">
        <ele>2003.8</ele>
        <time>2022-03-06T11:43:57Z</time>
      </trkpt>
      <trkpt lat="46.26278" lon="6.79627">
        <ele>2004</ele>
        <time>2022-03-06T11:43:58Z</time>
      </trkpt>
      <trkpt lat="46.26279" lon="6.79627">
        <ele>2004.2</ele>
        <time>2022-03-06T11:43:59Z</time>
      </trkpt>
      <trkpt lat="46.2628" lon="6.79628">
        <ele>2004.6</ele>
        <time>2022-03-06T11:44:00Z</time>
      </trkpt>
      <trkpt lat="46.2628" lon="6.79629">
        <ele>2004.6</ele>
        <time>2022-03-06T11:44:01Z</time>
      </trkpt>
      <trkpt lat="46.26281" lon="6.79629">
        <ele>2004.8</ele>
        <time>2022-03-06T11:44:02Z</time>
      </trkpt>
      <trkpt lat="46.26281" lon="6.7963">
        <ele>2004.8</ele>
        <time>2022-03-06T11:44:03Z</time>
      </trkpt>
      <trkpt lat="46.26282" lon="6.7963">
        <ele>2005</ele>
        <time>2022-03-06T11:44:04Z</time>
      </trkpt>
      <trkpt lat="46.26283" lon="6.79631">
        <ele>2005.2</ele>
        <time>2022-03-06T11:44:05Z</time>
      </trkpt>
      <trkpt lat="46.26283" lon="6.79632">
        <ele>2005.4</ele>
        <time>2022-03-06T11:44:06Z</time>
      </trkpt>
      <trkpt lat="46.26283" lon="6.79632">
        <ele>2005.6</ele>
        <time>2022-03-06T11:44:07Z</time>
      </trkpt>
      <trkpt lat="46.26284" lon="6.79632">
        <ele>2006</ele>
        <time>2022-03-06T11:44:08Z</time>
      </trkpt>
      <trkpt lat="46.26284" lon="6.79633">
        <ele>2006.2</ele>
        <time>2022-03-06T11:44:09Z</time>
      </trkpt>
      <trkpt lat="46.26284" lon="6.79634">
        <ele>2006.4</ele>
        <time>2022-03-06T11:44:10Z</time>
      </trkpt>
      <trkpt lat="46.26284" lon="6.79634">
        <ele>2006.6</ele>
        <time>2022-03-06T11:44:11Z</time>
      </trkpt>
      <trkpt lat="46.26284" lon="6.79635">
        <ele>2006.8</ele>
        <time>2022-03-06T11:44:12Z</time>
      </trkpt>
      <trkpt lat="46.26284" lon="6.79635">
        <ele>2007</ele>
        <time>2022-03-06T11:44:13Z</time>
      </trkpt>
      <trkpt lat="46.26284" lon="6.79635">
        <ele>2007</ele>
        <time>2022-03-06T11:44:14Z</time>
      </trkpt>
      <trkpt lat="46.26285" lon="6.79636">
        <ele>2007.2</ele>
        <time>2022-03-06T11:44:15Z</time>
      </trkpt>
      <trkpt lat="46.26285" lon="6.79637">
        <ele>2007.4</ele>
        <time>2022-03-06T11:44:16Z</time>
      </trkpt>
      <trkpt lat="46.26286" lon="6.79638">
        <ele>2007.6</ele>
        <time>2022-03-06T11:44:17Z</time>
      </trkpt>
      <trkpt lat="46.26286" lon="6.79638">
        <ele>2007.6</ele>
        <time>2022-03-06T11:44:18Z</time>
      </trkpt>
      <trkpt lat="46.26286" lon="6.79639">
        <ele>2008</ele>
        <time>2022-03-06T11:44:19Z</time>
      </trkpt>
      <trkpt lat="46.26286" lon="6.79639">
        <ele>2008</ele>
        <time>2022-03-06T11:44:20Z</time>
      </trkpt>
      <trkpt lat="46.26287" lon="6.7964">
        <ele>2008.4</ele>
        <time>2022-03-06T11:44:21Z</time>
      </trkpt>
      <trkpt lat="46.26287" lon="6.79641">
        <ele>2008.6</ele>
        <time>2022-03-06T11:44:22Z</time>
      </trkpt>
      <trkpt lat="46.26288" lon="6.79641">
        <ele>2008.6</ele>
        <time>2022-03-06T11:44:23Z</time>
      </trkpt>
      <trkpt lat="46.26288" lon="6.79642">
        <ele>2008.6</ele>
        <time>2022-03-06T11:44:24Z</time>
      </trkpt>
      <trkpt lat="46.26289" lon="6.79642">
        <ele>2009</ele>
        <time>2022-03-06T11:44:25Z</time>
      </trkpt>
      <trkpt lat="46.26289" lon="6.79643">
        <ele>2009</ele>
        <time>2022-03-06T11:44:26Z</time>
      </trkpt>
      <trkpt lat="46.2629" lon="6.79643">
        <ele>2009.2</ele>
        <time>2022-03-06T11:44:27Z</time>
      </trkpt>
      <trkpt lat="46.2629" lon="6.79644">
        <ele>2009.6</ele>
        <time>2022-03-06T11:44:28Z</time>
      </trkpt>
      <trkpt lat="46.26292" lon="6.79644">
        <ele>2010.8</ele>
        <time>2022-03-06T11:44:38Z</time>
      </trkpt>
      <trkpt lat="46.26292" lon="6.79645">
        <ele>2011</ele>
        <time>2022-03-06T11:44:39Z</time>
      </trkpt>
      <trkpt lat="46.26293" lon="6.79645">
        <ele>2011</ele>
        <time>2022-03-06T11:44:40Z</time>
      </trkpt>
      <trkpt lat="46.26293" lon="6.79646">
        <ele>2011</ele>
        <time>2022-03-06T11:44:41Z</time>
      </trkpt>
      <trkpt lat="46.26293" lon="6.79646">
        <ele>2011</ele>
        <time>2022-03-06T11:44:42Z</time>
      </trkpt>
      <trkpt lat="46.26293" lon="6.79647">
        <ele>2011</ele>
        <time>2022-03-06T11:44:43Z</time>
      </trkpt>
      <trkpt lat="46.26294" lon="6.79647">
        <ele>2011</ele>
        <time>2022-03-06T11:44:44Z</time>
      </trkpt>
      <trkpt lat="46.26294" lon="6.79648">
        <ele>2011</ele>
        <time>2022-03-06T11:44:45Z</time>
      </trkpt>
      <trkpt lat="46.26294" lon="6.79648">
        <ele>2011</ele>
        <time>2022-03-06T11:44:46Z</time>
      </trkpt>
      <trkpt lat="46.26294" lon="6.79649">
        <ele>2011.2</ele>
        <time>2022-03-06T11:44:47Z</time>
      </trkpt>
      <trkpt lat="46.26294" lon="6.79649">
        <ele>2011.2</ele>
        <time>2022-03-06T11:44:48Z</time>
      </trkpt>
      <trkpt lat="46.26295" lon="6.7965">
        <ele>2011.4</ele>
        <time>2022-03-06T11:44:49Z</time>
      </trkpt>
      <trkpt lat="46.26295" lon="6.7965">
        <ele>2011.6</ele>
        <time>2022-03-06T11:44:50Z</time>
      </trkpt>
      <trkpt lat="46.26295" lon="6.79651">
        <ele>2012</ele>
        <time>2022-03-06T11:44:51Z</time>
      </trkpt>
      <trkpt lat="46.26296" lon="6.79652">
        <ele>2012.4</ele>
        <time>2022-03-06T11:44:52Z</time>
      </trkpt>
      <trkpt lat="46.26296" lon="6.79652">
        <ele>2012.4</ele>
        <time>2022-03-06T11:44:53Z</time>
      </trkpt>
      <trkpt lat="46.26296" lon="6.79653">
        <ele>2012.6</ele>
        <time>2022-03-06T11:44:54Z</time>
      </trkpt>
      <trkpt lat="46.26297" lon="6.79654">
        <ele>2012.8</ele>
        <time>2022-03-06T11:44:55Z</time>
      </trkpt>
      <trkpt lat="46.26297" lon="6.79654">
        <ele>2013.2</ele>
        <time>2022-03-06T11:44:56Z</time>
      </trkpt>
      <trkpt lat="46.26297" lon="6.79655">
        <ele>2013.2</ele>
        <time>2022-03-06T11:44:57Z</time>
      </trkpt>
      <trkpt lat="46.26297" lon="6.79655">
        <ele>2013.4</ele>
        <time>2022-03-06T11:44:58Z</time>
      </trkpt>
      <trkpt lat="46.26298" lon="6.79656">
        <ele>2013.8</ele>
        <time>2022-03-06T11:44:59Z</time>
      </trkpt>
      <trkpt lat="46.26298" lon="6.79656">
        <ele>2014</ele>
        <time>2022-03-06T11:45:00Z</time>
      </trkpt>
      <trkpt lat="46.26299" lon="6.79656">
        <ele>2014.2</ele>
        <time>2022-03-06T11:45:01Z</time>
      </trkpt>
      <trkpt lat="46.26299" lon="6.79655">
        <ele>2014.6</ele>
        <time>2022-03-06T11:45:02Z</time>
      </trkpt>
      <trkpt lat="46.263" lon="6.79655">
        <ele>2014.8</ele>
        <time>2022-03-06T11:45:03Z</time>
      </trkpt>
      <trkpt lat="46.26301" lon="6.79655">
        <ele>2015</ele>
        <time>2022-03-06T11:45:04Z</time>
      </trkpt>
      <trkpt lat="46.26302" lon="6.79655">
        <ele>2015.2</ele>
        <time>2022-03-06T11:45:06Z</time>
      </trkpt>
      <trkpt lat="46.26303" lon="6.79654">
        <ele>2015.4</ele>
        <time>2022-03-06T11:45:07Z</time>
      </trkpt>
      <trkpt lat="46.26303" lon="6.79653">
        <ele>2015.4</ele>
        <time>2022-03-06T11:45:09Z</time>
      </trkpt>
      <trkpt lat="46.26304" lon="6.79652">
        <ele>2015.4</ele>
        <time>2022-03-06T11:45:10Z</time>
      </trkpt>
      <trkpt lat="46.26304" lon="6.79651">
        <ele>2015.6</ele>
        <time>2022-03-06T11:45:11Z</time>
      </trkpt>
      <trkpt lat="46.26304" lon="6.7965">
        <ele>2015.6</ele>
        <time>2022-03-06T11:45:12Z</time>
      </trkpt>
      <trkpt lat="46.26304" lon="6.79649">
        <ele>2015.8</ele>
        <time>2022-03-06T11:45:13Z</time>
      </trkpt>
      <trkpt lat="46.26305" lon="6.79649">
        <ele>2016</ele>
        <time>2022-03-06T11:45:14Z</time>
      </trkpt>
      <trkpt lat="46.26305" lon="6.79648">
        <ele>2016.4</ele>
        <time>2022-03-06T11:45:15Z</time>
      </trkpt>
      <trkpt lat="46.26305" lon="6.79647">
        <ele>2016.8</ele>
        <time>2022-03-06T11:45:16Z</time>
      </trkpt>
      <trkpt lat="46.26306" lon="6.79646">
        <ele>2017</ele>
        <time>2022-03-06T11:45:17Z</time>
      </trkpt>
      <trkpt lat="46.26306" lon="6.79646">
        <ele>2017.2</ele>
        <time>2022-03-06T11:45:18Z</time>
      </trkpt>
      <trkpt lat="46.26306" lon="6.79646">
        <ele>2017.2</ele>
        <time>2022-03-06T11:45:19Z</time>
      </trkpt>
      <trkpt lat="46.26306" lon="6.79645">
        <ele>2017.4</ele>
        <time>2022-03-06T11:45:20Z</time>
      </trkpt>
      <trkpt lat="46.26307" lon="6.79644">
        <ele>2017.6</ele>
        <time>2022-03-06T11:45:21Z</time>
      </trkpt>
      <trkpt lat="46.26307" lon="6.79644">
        <ele>2018</ele>
        <time>2022-03-06T11:45:22Z</time>
      </trkpt>
      <trkpt lat="46.26307" lon="6.79643">
        <ele>2018</ele>
        <time>2022-03-06T11:45:23Z</time>
      </trkpt>
      <trkpt lat="46.26307" lon="6.79642">
        <ele>2018</ele>
        <time>2022-03-06T11:45:24Z</time>
      </trkpt>
      <trkpt lat="46.26307" lon="6.79641">
        <ele>2018.2</ele>
        <time>2022-03-06T11:45:25Z</time>
      </trkpt>
      <trkpt lat="46.26307" lon="6.79641">
        <ele>2018.6</ele>
        <time>2022-03-06T11:45:26Z</time>
      </trkpt>
      <trkpt lat="46.26307" lon="6.7964">
        <ele>2018.8</ele>
        <time>2022-03-06T11:45:28Z</time>
      </trkpt>
      <trkpt lat="46.26308" lon="6.79639">
        <ele>2019</ele>
        <time>2022-03-06T11:45:29Z</time>
      </trkpt>
      <trkpt lat="46.26308" lon="6.79638">
        <ele>2019.2</ele>
        <time>2022-03-06T11:45:30Z</time>
      </trkpt>
      <trkpt lat="46.26308" lon="6.79637">
        <ele>2019.2</ele>
        <time>2022-03-06T11:45:31Z</time>
      </trkpt>
      <trkpt lat="46.26308" lon="6.79637">
        <ele>2019.4</ele>
        <time>2022-03-06T11:45:32Z</time>
      </trkpt>
      <trkpt lat="46.26309" lon="6.79636">
        <ele>2019.6</ele>
        <time>2022-03-06T11:45:33Z</time>
      </trkpt>
      <trkpt lat="46.26309" lon="6.79635">
        <ele>2019.8</ele>
        <time>2022-03-06T11:45:34Z</time>
      </trkpt>
      <trkpt lat="46.26309" lon="6.79634">
        <ele>2020</ele>
        <time>2022-03-06T11:45:35Z</time>
      </trkpt>
      <trkpt lat="46.26309" lon="6.79634">
        <ele>2020.2</ele>
        <time>2022-03-06T11:45:36Z</time>
      </trkpt>
      <trkpt lat="46.26309" lon="6.79634">
        <ele>2020.4</ele>
        <time>2022-03-06T11:45:37Z</time>
      </trkpt>
      <trkpt lat="46.2631" lon="6.79633">
        <ele>2020.6</ele>
        <time>2022-03-06T11:45:38Z</time>
      </trkpt>
      <trkpt lat="46.2631" lon="6.79633">
        <ele>2020.8</ele>
        <time>2022-03-06T11:45:39Z</time>
      </trkpt>
      <trkpt lat="46.2631" lon="6.79633">
        <ele>2020.8</ele>
        <time>2022-03-06T11:45:40Z</time>
      </trkpt>
      <trkpt lat="46.26311" lon="6.79633">
        <ele>2021</ele>
        <time>2022-03-06T11:45:41Z</time>
      </trkpt>
      <trkpt lat="46.26311" lon="6.79633">
        <ele>2021.2</ele>
        <time>2022-03-06T11:45:42Z</time>
      </trkpt>
      <trkpt lat="46.26312" lon="6.79632">
        <ele>2021.6</ele>
        <time>2022-03-06T11:45:44Z</time>
      </trkpt>
      <trkpt lat="46.26313" lon="6.79631">
        <ele>2022.4</ele>
        <time>2022-03-06T11:45:49Z</time>
      </trkpt>
      <trkpt lat="46.26315" lon="6.79624">
        <ele>2023.8</ele>
        <time>2022-03-06T11:45:59Z</time>
      </trkpt>
      <trkpt lat="46.26315" lon="6.79624">
        <ele>2024.4</ele>
        <time>2022-03-06T11:46:02Z</time>
      </trkpt>
      <trkpt lat="46.26316" lon="6.79624">
        <ele>2024.6</ele>
        <time>2022-03-06T11:46:03Z</time>
      </trkpt>
      <trkpt lat="46.26316" lon="6.79624">
        <ele>2024.6</ele>
        <time>2022-03-06T11:46:04Z</time>
      </trkpt>
      <trkpt lat="46.26317" lon="6.79625">
        <ele>2024.8</ele>
        <time>2022-03-06T11:46:05Z</time>
      </trkpt>
      <trkpt lat="46.26317" lon="6.79625">
        <ele>2025</ele>
        <time>2022-03-06T11:46:06Z</time>
      </trkpt>
      <trkpt lat="46.26317" lon="6.79626">
        <ele>2025.2</ele>
        <time>2022-03-06T11:46:07Z</time>
      </trkpt>
      <trkpt lat="46.26317" lon="6.79626">
        <ele>2025.6</ele>
        <time>2022-03-06T11:46:08Z</time>
      </trkpt>
      <trkpt lat="46.26317" lon="6.79627">
        <ele>2025.8</ele>
        <time>2022-03-06T11:46:09Z</time>
      </trkpt>
      <trkpt lat="46.26318" lon="6.79628">
        <ele>2026</ele>
        <time>2022-03-06T11:46:10Z</time>
      </trkpt>
      <trkpt lat="46.26318" lon="6.79628">
        <ele>2026</ele>
        <time>2022-03-06T11:46:11Z</time>
      </trkpt>
      <trkpt lat="46.26318" lon="6.79629">
        <ele>2026.2</ele>
        <time>2022-03-06T11:46:12Z</time>
      </trkpt>
      <trkpt lat="46.26318" lon="6.79629">
        <ele>2026.4</ele>
        <time>2022-03-06T11:46:13Z</time>
      </trkpt>
      <trkpt lat="46.26318" lon="6.7963">
        <ele>2026.6</ele>
        <time>2022-03-06T11:46:14Z</time>
      </trkpt>
      <trkpt lat="46.26318" lon="6.7963">
        <ele>2026.8</ele>
        <time>2022-03-06T11:46:15Z</time>
      </trkpt>
      <trkpt lat="46.26318" lon="6.7963">
        <ele>2027</ele>
        <time>2022-03-06T11:46:16Z</time>
      </trkpt>
      <trkpt lat="46.26318" lon="6.79631">
        <ele>2027</ele>
        <time>2022-03-06T11:46:17Z</time>
      </trkpt>
      <trkpt lat="46.26319" lon="6.79631">
        <ele>2027.2</ele>
        <time>2022-03-06T11:46:18Z</time>
      </trkpt>
      <trkpt lat="46.26319" lon="6.79632">
        <ele>2027.2</ele>
        <time>2022-03-06T11:46:19Z</time>
      </trkpt>
      <trkpt lat="46.26319" lon="6.79632">
        <ele>2027.6</ele>
        <time>2022-03-06T11:46:20Z</time>
      </trkpt>
      <trkpt lat="46.26319" lon="6.79633">
        <ele>2027.8</ele>
        <time>2022-03-06T11:46:21Z</time>
      </trkpt>
      <trkpt lat="46.2632" lon="6.79634">
        <ele>2028</ele>
        <time>2022-03-06T11:46:22Z</time>
      </trkpt>
      <trkpt lat="46.2632" lon="6.79634">
        <ele>2028</ele>
        <time>2022-03-06T11:46:23Z</time>
      </trkpt>
      <trkpt lat="46.26321" lon="6.79635">
        <ele>2028.4</ele>
        <time>2022-03-06T11:46:24Z</time>
      </trkpt>
      <trkpt lat="46.26321" lon="6.79636">
        <ele>2028.6</ele>
        <time>2022-03-06T11:46:25Z</time>
      </trkpt>
      <trkpt lat="46.26321" lon="6.79636">
        <ele>2028.8</ele>
        <time>2022-03-06T11:46:26Z</time>
      </trkpt>
      <trkpt lat="46.26321" lon="6.79637">
        <ele>2028.8</ele>
        <time>2022-03-06T11:46:27Z</time>
      </trkpt>
      <trkpt lat="46.26322" lon="6.79638">
        <ele>2029</ele>
        <time>2022-03-06T11:46:28Z</time>
      </trkpt>
      <trkpt lat="46.26322" lon="6.79638">
        <ele>2029.2</ele>
        <time>2022-03-06T11:46:29Z</time>
      </trkpt>
      <trkpt lat="46.26322" lon="6.79639">
        <ele>2029.4</ele>
        <time>2022-03-06T11:46:30Z</time>
      </trkpt>
      <trkpt lat="46.26323" lon="6.79639">
        <ele>2029.4</ele>
        <time>2022-03-06T11:46:31Z</time>
      </trkpt>
      <trkpt lat="46.26323" lon="6.7964">
        <ele>2029.6</ele>
        <time>2022-03-06T11:46:32Z</time>
      </trkpt>
      <trkpt lat="46.26323" lon="6.7964">
        <ele>2029.8</ele>
        <time>2022-03-06T11:46:33Z</time>
      </trkpt>
      <trkpt lat="46.26324" lon="6.79641">
        <ele>2030</ele>
        <time>2022-03-06T11:46:34Z</time>
      </trkpt>
      <trkpt lat="46.26324" lon="6.79641">
        <ele>2030.2</ele>
        <time>2022-03-06T11:46:35Z</time>
      </trkpt>
      <trkpt lat="46.26325" lon="6.79642">
        <ele>2030.4</ele>
        <time>2022-03-06T11:46:36Z</time>
      </trkpt>
      <trkpt lat="46.26325" lon="6.79642">
        <ele>2030.6</ele>
        <time>2022-03-06T11:46:37Z</time>
      </trkpt>
      <trkpt lat="46.26326" lon="6.79643">
        <ele>2030.8</ele>
        <time>2022-03-06T11:46:38Z</time>
      </trkpt>
      <trkpt lat="46.26326" lon="6.79644">
        <ele>2030.8</ele>
        <time>2022-03-06T11:46:39Z</time>
      </trkpt>
      <trkpt lat="46.26326" lon="6.79645">
        <ele>2030.8</ele>
        <time>2022-03-06T11:46:40Z</time>
      </trkpt>
      <trkpt lat="46.26327" lon="6.79645">
        <ele>2031</ele>
        <time>2022-03-06T11:46:41Z</time>
      </trkpt>
      <trkpt lat="46.26327" lon="6.79646">
        <ele>2031.2</ele>
        <time>2022-03-06T11:46:42Z</time>
      </trkpt>
      <trkpt lat="46.26328" lon="6.79646">
        <ele>2031.2</ele>
        <time>2022-03-06T11:46:43Z</time>
      </trkpt>
      <trkpt lat="46.26328" lon="6.79647">
        <ele>2031.4</ele>
        <time>2022-03-06T11:46:44Z</time>
      </trkpt>
      <trkpt lat="46.26329" lon="6.79648">
        <ele>2031.6</ele>
        <time>2022-03-06T11:46:45Z</time>
      </trkpt>
      <trkpt lat="46.26329" lon="6.79649">
        <ele>2031.8</ele>
        <time>2022-03-06T11:46:46Z</time>
      </trkpt>
      <trkpt lat="46.2633" lon="6.79649">
        <ele>2032.2</ele>
        <time>2022-03-06T11:46:47Z</time>
      </trkpt>
      <trkpt lat="46.2633" lon="6.7965">
        <ele>2032</ele>
        <time>2022-03-06T11:46:48Z</time>
      </trkpt>
      <trkpt lat="46.2633" lon="6.79651">
        <ele>2032.4</ele>
        <time>2022-03-06T11:46:49Z</time>
      </trkpt>
      <trkpt lat="46.2633" lon="6.79652">
        <ele>2032.6</ele>
        <time>2022-03-06T11:46:50Z</time>
      </trkpt>
      <trkpt lat="46.2633" lon="6.79653">
        <ele>2032.8</ele>
        <time>2022-03-06T11:46:51Z</time>
      </trkpt>
      <trkpt lat="46.26331" lon="6.79654">
        <ele>2033</ele>
        <time>2022-03-06T11:46:52Z</time>
      </trkpt>
      <trkpt lat="46.26331" lon="6.79654">
        <ele>2033</ele>
        <time>2022-03-06T11:46:53Z</time>
      </trkpt>
      <trkpt lat="46.26331" lon="6.79654">
        <ele>2033.4</ele>
        <time>2022-03-06T11:46:54Z</time>
      </trkpt>
      <trkpt lat="46.26332" lon="6.79655">
        <ele>2033.4</ele>
        <time>2022-03-06T11:46:55Z</time>
      </trkpt>
      <trkpt lat="46.26332" lon="6.79655">
        <ele>2033.6</ele>
        <time>2022-03-06T11:46:56Z</time>
      </trkpt>
      <trkpt lat="46.26335" lon="6.79655">
        <ele>2034</ele>
        <time>2022-03-06T11:46:59Z</time>
      </trkpt>
      <trkpt lat="46.26336" lon="6.79655">
        <ele>2034.2</ele>
        <time>2022-03-06T11:47:00Z</time>
      </trkpt>
      <trkpt lat="46.26336" lon="6.79656">
        <ele>2034.4</ele>
        <time>2022-03-06T11:47:01Z</time>
      </trkpt>
      <trkpt lat="46.26338" lon="6.79655">
        <ele>2034.6</ele>
        <time>2022-03-06T11:47:04Z</time>
      </trkpt>
      <trkpt lat="46.26339" lon="6.79653">
        <ele>2035.2</ele>
        <time>2022-03-06T11:47:07Z</time>
      </trkpt>
      <trkpt lat="46.26339" lon="6.79653">
        <ele>2035.2</ele>
        <time>2022-03-06T11:47:08Z</time>
      </trkpt>
      <trkpt lat="46.26341" lon="6.7965">
        <ele>2036.2</ele>
        <time>2022-03-06T11:47:14Z</time>
      </trkpt>
      <trkpt lat="46.26342" lon="6.79649">
        <ele>2037.4</ele>
        <time>2022-03-06T11:47:20Z</time>
      </trkpt>
      <trkpt lat="46.26343" lon="6.79649">
        <ele>2037.8</ele>
        <time>2022-03-06T11:47:22Z</time>
      </trkpt>
      <trkpt lat="46.26344" lon="6.79648">
        <ele>2040.2</ele>
        <time>2022-03-06T11:47:36Z</time>
      </trkpt>
      <trkpt lat="46.2634" lon="6.79644">
        <ele>2040.4</ele>
        <time>2022-03-06T11:47:47Z</time>
      </trkpt>
      <trkpt lat="46.2634" lon="6.79643">
        <ele>2040.2</ele>
        <time>2022-03-06T11:48:01Z</time>
      </trkpt>
      <trkpt lat="46.26341" lon="6.79643">
        <ele>2040.4</ele>
        <time>2022-03-06T11:48:10Z</time>
      </trkpt>
      <trkpt lat="46.26342" lon="6.79643">
        <ele>2040.4</ele>
        <time>2022-03-06T11:48:24Z</time>
      </trkpt>
      <trkpt lat="46.26342" lon="6.79643">
        <ele>2040.4</ele>
        <time>2022-03-06T11:48:35Z</time>
      </trkpt>
      <trkpt lat="46.26343" lon="6.79642">
        <ele>2040.4</ele>
        <time>2022-03-06T11:48:39Z</time>
      </trkpt>
      <trkpt lat="46.26343" lon="6.79642">
        <ele>2040.4</ele>
        <time>2022-03-06T11:48:51Z</time>
      </trkpt>
      <trkpt lat="46.26343" lon="6.79642">
        <ele>2040.4</ele>
        <time>2022-03-06T11:49:05Z</time>
      </trkpt>
      <trkpt lat="46.26343" lon="6.79643">
        <ele>2040.4</ele>
        <time>2022-03-06T11:49:14Z</time>
      </trkpt>
      <trkpt lat="46.26343" lon="6.79643">
        <ele>2040.4</ele>
        <time>2022-03-06T11:49:17Z</time>
      </trkpt>
      <trkpt lat="46.26345" lon="6.79645">
        <ele>2040.4</ele>
        <time>2022-03-06T11:49:33Z</time>
      </trkpt>
      <trkpt lat="46.26346" lon="6.79648">
        <ele>2040.2</ele>
        <time>2022-03-06T11:49:52Z</time>
      </trkpt>
      <trkpt lat="46.26349" lon="6.79662">
        <ele>2042</ele>
        <time>2022-03-06T11:50:18Z</time>
      </trkpt>
      <trkpt lat="46.2635" lon="6.79668">
        <ele>2042.2</ele>
        <time>2022-03-06T11:50:25Z</time>
      </trkpt>
      <trkpt lat="46.2635" lon="6.7967">
        <ele>2042.2</ele>
        <time>2022-03-06T11:50:26Z</time>
      </trkpt>
      <trkpt lat="46.26351" lon="6.79673">
        <ele>2042</ele>
        <time>2022-03-06T11:50:29Z</time>
      </trkpt>
      <trkpt lat="46.26351" lon="6.79674">
        <ele>2041.8</ele>
        <time>2022-03-06T11:50:30Z</time>
      </trkpt>
      <trkpt lat="46.26352" lon="6.79682">
        <ele>2041.6</ele>
        <time>2022-03-06T11:50:37Z</time>
      </trkpt>
      <trkpt lat="46.26353" lon="6.79684">
        <ele>2041.6</ele>
        <time>2022-03-06T11:50:39Z</time>
      </trkpt>
      <trkpt lat="46.26353" lon="6.79684">
        <ele>2041.4</ele>
        <time>2022-03-06T11:50:40Z</time>
      </trkpt>
      <trkpt lat="46.26353" lon="6.79685">
        <ele>2041.4</ele>
        <time>2022-03-06T11:50:41Z</time>
      </trkpt>
      <trkpt lat="46.26353" lon="6.79686">
        <ele>2041.4</ele>
        <time>2022-03-06T11:50:42Z</time>
      </trkpt>
      <trkpt lat="46.26354" lon="6.79687">
        <ele>2041.2</ele>
        <time>2022-03-06T11:50:43Z</time>
      </trkpt>
      <trkpt lat="46.26354" lon="6.79688">
        <ele>2041.2</ele>
        <time>2022-03-06T11:50:45Z</time>
      </trkpt>
      <trkpt lat="46.26354" lon="6.79689">
        <ele>2041</ele>
        <time>2022-03-06T11:50:46Z</time>
      </trkpt>
      <trkpt lat="46.26354" lon="6.79689">
        <ele>2040.8</ele>
        <time>2022-03-06T11:50:47Z</time>
      </trkpt>
      <trkpt lat="46.26354" lon="6.79691">
        <ele>2040.2</ele>
        <time>2022-03-06T11:50:56Z</time>
      </trkpt>
      <trkpt lat="46.26352" lon="6.79683">
        <ele>2040</ele>
        <time>2022-03-06T11:51:09Z</time>
      </trkpt>
      <trkpt lat="46.26353" lon="6.79679">
        <ele>2040.2</ele>
        <time>2022-03-06T11:51:15Z</time>
      </trkpt>
      <trkpt lat="46.26353" lon="6.79678">
        <ele>2040.2</ele>
        <time>2022-03-06T11:51:16Z</time>
      </trkpt>
      <trkpt lat="46.26353" lon="6.79677">
        <ele>2040.2</ele>
        <time>2022-03-06T11:51:17Z</time>
      </trkpt>
      <trkpt lat="46.26353" lon="6.79674">
        <ele>2040.6</ele>
        <time>2022-03-06T11:51:21Z</time>
      </trkpt>
      <trkpt lat="46.26353" lon="6.79673">
        <ele>2041</ele>
        <time>2022-03-06T11:51:22Z</time>
      </trkpt>
      <trkpt lat="46.26353" lon="6.79672">
        <ele>2041</ele>
        <time>2022-03-06T11:51:23Z</time>
      </trkpt>
      <trkpt lat="46.26353" lon="6.79671">
        <ele>2041.2</ele>
        <time>2022-03-06T11:51:24Z</time>
      </trkpt>
      <trkpt lat="46.26351" lon="6.7966">
        <ele>2041.8</ele>
        <time>2022-03-06T11:51:34Z</time>
      </trkpt>
      <trkpt lat="46.2635" lon="6.79659">
        <ele>2042</ele>
        <time>2022-03-06T11:51:35Z</time>
      </trkpt>
      <trkpt lat="46.2635" lon="6.79659">
        <ele>2041.8</ele>
        <time>2022-03-06T11:51:36Z</time>
      </trkpt>
      <trkpt lat="46.2635" lon="6.79658">
        <ele>2042</ele>
        <time>2022-03-06T11:51:37Z</time>
      </trkpt>
      <trkpt lat="46.2635" lon="6.79658">
        <ele>2041.8</ele>
        <time>2022-03-06T11:51:38Z</time>
      </trkpt>
      <trkpt lat="46.26349" lon="6.79657">
        <ele>2042</ele>
        <time>2022-03-06T11:51:39Z</time>
      </trkpt>
      <trkpt lat="46.26349" lon="6.79658">
        <ele>2042</ele>
        <time>2022-03-06T11:51:40Z</time>
      </trkpt>
      <trkpt lat="46.26348" lon="6.79658">
        <ele>2042</ele>
        <time>2022-03-06T11:51:42Z</time>
      </trkpt>
      <trkpt lat="46.26346" lon="6.79653">
        <ele>2041.8</ele>
        <time>2022-03-06T11:51:50Z</time>
      </trkpt>
      <trkpt lat="46.26346" lon="6.79652">
        <ele>2041.8</ele>
        <time>2022-03-06T11:52:01Z</time>
      </trkpt>
      <trkpt lat="46.26347" lon="6.79654">
        <ele>2041.8</ele>
        <time>2022-03-06T11:52:17Z</time>
      </trkpt>
      <trkpt lat="46.26346" lon="6.79652">
        <ele>2041.8</ele>
        <time>2022-03-06T11:52:29Z</time>
      </trkpt>
      <trkpt lat="46.26346" lon="6.79652">
        <ele>2041.8</ele>
        <time>2022-03-06T11:52:30Z</time>
      </trkpt>
      <trkpt lat="46.26347" lon="6.7965">
        <ele>2041.8</ele>
        <time>2022-03-06T11:52:42Z</time>
      </trkpt>
      <trkpt lat="46.26347" lon="6.7965">
        <ele>2042</ele>
        <time>2022-03-06T11:52:54Z</time>
      </trkpt>
      <trkpt lat="46.26347" lon="6.79651">
        <ele>2041.8</ele>
        <time>2022-03-06T11:53:03Z</time>
      </trkpt>
      <trkpt lat="46.26348" lon="6.79652">
        <ele>2041.8</ele>
        <time>2022-03-06T11:53:08Z</time>
      </trkpt>
      <trkpt lat="46.26348" lon="6.79651">
        <ele>2041.6</ele>
        <time>2022-03-06T11:53:16Z</time>
      </trkpt>
      <trkpt lat="46.26348" lon="6.79652">
        <ele>2041.8</ele>
        <time>2022-03-06T11:53:30Z</time>
      </trkpt>
      <trkpt lat="46.26349" lon="6.79652">
        <ele>2041.8</ele>
        <time>2022-03-06T11:53:42Z</time>
      </trkpt>
      <trkpt lat="46.26349" lon="6.79652">
        <ele>2041.8</ele>
        <time>2022-03-06T11:53:56Z</time>
      </trkpt>
      <trkpt lat="46.2635" lon="6.79652">
        <ele>2042</ele>
        <time>2022-03-06T11:54:02Z</time>
      </trkpt>
      <trkpt lat="46.2635" lon="6.79652">
        <ele>2041.8</ele>
        <time>2022-03-06T11:54:08Z</time>
      </trkpt>
      <trkpt lat="46.2635" lon="6.79652">
        <ele>2042</ele>
        <time>2022-03-06T11:54:16Z</time>
      </trkpt>
      <trkpt lat="46.2635" lon="6.79652">
        <ele>2042</ele>
        <time>2022-03-06T11:54:28Z</time>
      </trkpt>
      <trkpt lat="46.26351" lon="6.79653">
        <ele>2042</ele>
        <time>2022-03-06T11:54:38Z</time>
      </trkpt>
      <trkpt lat="46.26351" lon="6.79653">
        <ele>2041.8</ele>
        <time>2022-03-06T11:54:50Z</time>
      </trkpt>
      <trkpt lat="46.26351" lon="6.79653">
        <ele>2041.8</ele>
        <time>2022-03-06T11:54:51Z</time>
      </trkpt>
      <trkpt lat="46.26351" lon="6.79653">
        <ele>2041.8</ele>
        <time>2022-03-06T11:55:02Z</time>
      </trkpt>
      <trkpt lat="46.2635" lon="6.79651">
        <ele>2041.8</ele>
        <time>2022-03-06T11:55:12Z</time>
      </trkpt>
      <trkpt lat="46.26351" lon="6.79652">
        <ele>2041.8</ele>
        <time>2022-03-06T11:55:24Z</time>
      </trkpt>
      <trkpt lat="46.2635" lon="6.79651">
        <ele>2042</ele>
        <time>2022-03-06T11:55:37Z</time>
      </trkpt>
      <trkpt lat="46.26351" lon="6.79655">
        <ele>2041.8</ele>
        <time>2022-03-06T11:55:45Z</time>
      </trkpt>
      <trkpt lat="46.2635" lon="6.79655">
        <ele>2042</ele>
        <time>2022-03-06T11:55:50Z</time>
      </trkpt>
      <trkpt lat="46.26349" lon="6.79656">
        <ele>2042</ele>
        <time>2022-03-06T11:56:00Z</time>
      </trkpt>
      <trkpt lat="46.26348" lon="6.79654">
        <ele>2041.8</ele>
        <time>2022-03-06T11:56:16Z</time>
      </trkpt>
      <trkpt lat="46.26349" lon="6.79654">
        <ele>2042</ele>
        <time>2022-03-06T11:56:25Z</time>
      </trkpt>
      <trkpt lat="46.26349" lon="6.79655">
        <ele>2042</ele>
        <time>2022-03-06T11:56:38Z</time>
      </trkpt>
      <trkpt lat="46.26349" lon="6.79655">
        <ele>2042.2</ele>
        <time>2022-03-06T11:56:39Z</time>
      </trkpt>
      <trkpt lat="46.2635" lon="6.79656">
        <ele>2042</ele>
        <time>2022-03-06T11:56:50Z</time>
      </trkpt>
      <trkpt lat="46.26352" lon="6.79658">
        <ele>2042</ele>
        <time>2022-03-06T11:57:02Z</time>
      </trkpt>
      <trkpt lat="46.26352" lon="6.79659">
        <ele>2042.2</ele>
        <time>2022-03-06T11:57:16Z</time>
      </trkpt>
      <trkpt lat="46.26352" lon="6.79659">
        <ele>2042</ele>
        <time>2022-03-06T11:57:26Z</time>
      </trkpt>
      <trkpt lat="46.26352" lon="6.79659">
        <ele>2042.2</ele>
        <time>2022-03-06T11:57:27Z</time>
      </trkpt>
      <trkpt lat="46.26353" lon="6.79657">
        <ele>2041.6</ele>
        <time>2022-03-06T11:57:38Z</time>
      </trkpt>
      <trkpt lat="46.26354" lon="6.79656">
        <ele>2041.6</ele>
        <time>2022-03-06T11:57:55Z</time>
      </trkpt>
      <trkpt lat="46.26355" lon="6.79654">
        <ele>2041.6</ele>
        <time>2022-03-06T11:57:59Z</time>
      </trkpt>
      <trkpt lat="46.26354" lon="6.79654">
        <ele>2041.6</ele>
        <time>2022-03-06T11:58:00Z</time>
      </trkpt>
      <trkpt lat="46.26353" lon="6.79652">
        <ele>2041.4</ele>
        <time>2022-03-06T11:58:09Z</time>
      </trkpt>
      <trkpt lat="46.26353" lon="6.7965">
        <ele>2041.4</ele>
        <time>2022-03-06T11:58:23Z</time>
      </trkpt>
      <trkpt lat="46.26354" lon="6.79649">
        <ele>2041.4</ele>
        <time>2022-03-06T11:58:36Z</time>
      </trkpt>
      <trkpt lat="46.26352" lon="6.79649">
        <ele>2041.4</ele>
        <time>2022-03-06T11:58:49Z</time>
      </trkpt>
      <trkpt lat="46.26352" lon="6.79648">
        <ele>2041.4</ele>
        <time>2022-03-06T11:58:51Z</time>
      </trkpt>
      <trkpt lat="46.26352" lon="6.79648">
        <ele>2041.2</ele>
        <time>2022-03-06T11:59:03Z</time>
      </trkpt>
      <trkpt lat="46.26354" lon="6.79647">
        <ele>2041.4</ele>
        <time>2022-03-06T11:59:20Z</time>
      </trkpt>
      <trkpt lat="46.26352" lon="6.79648">
        <ele>2041.4</ele>
        <time>2022-03-06T11:59:35Z</time>
      </trkpt>
      <trkpt lat="46.26349" lon="6.79646">
        <ele>2041.4</ele>
        <time>2022-03-06T11:59:49Z</time>
      </trkpt>
      <trkpt lat="46.26349" lon="6.79646">
        <ele>2041.2</ele>
        <time>2022-03-06T11:59:50Z</time>
      </trkpt>
      <trkpt lat="46.2635" lon="6.79645">
        <ele>2041.2</ele>
        <time>2022-03-06T11:59:59Z</time>
      </trkpt>
      <trkpt lat="46.2635" lon="6.79645">
        <ele>2041.2</ele>
        <time>2022-03-06T12:00:11Z</time>
      </trkpt>
      <trkpt lat="46.26349" lon="6.79644">
        <ele>2041.2</ele>
        <time>2022-03-06T12:00:27Z</time>
      </trkpt>
      <trkpt lat="46.26349" lon="6.79644">
        <ele>2041</ele>
        <time>2022-03-06T12:00:34Z</time>
      </trkpt>
      <trkpt lat="46.26349" lon="6.79644">
        <ele>2041</ele>
        <time>2022-03-06T12:00:44Z</time>
      </trkpt>
      <trkpt lat="46.26351" lon="6.79642">
        <ele>2041</ele>
        <time>2022-03-06T12:00:58Z</time>
      </trkpt>
      <trkpt lat="46.26351" lon="6.79643">
        <ele>2041</ele>
        <time>2022-03-06T12:01:13Z</time>
      </trkpt>
      <trkpt lat="46.26353" lon="6.79641">
        <ele>2041.2</ele>
        <time>2022-03-06T12:01:29Z</time>
      </trkpt>
      <trkpt lat="46.26353" lon="6.7964">
        <ele>2041</ele>
        <time>2022-03-06T12:01:36Z</time>
      </trkpt>
      <trkpt lat="46.26353" lon="6.79639">
        <ele>2041</ele>
        <time>2022-03-06T12:01:45Z</time>
      </trkpt>
      <trkpt lat="46.26352" lon="6.79639">
        <ele>2041</ele>
        <time>2022-03-06T12:01:59Z</time>
      </trkpt>
      <trkpt lat="46.26351" lon="6.79643">
        <ele>2041</ele>
        <time>2022-03-06T12:02:12Z</time>
      </trkpt>
      <trkpt lat="46.26351" lon="6.7965">
        <ele>2041.2</ele>
        <time>2022-03-06T12:02:27Z</time>
      </trkpt>
      <trkpt lat="46.26351" lon="6.7965">
        <ele>2041.2</ele>
        <time>2022-03-06T12:02:32Z</time>
      </trkpt>
      <trkpt lat="46.26349" lon="6.7965">
        <ele>2041.2</ele>
        <time>2022-03-06T12:02:45Z</time>
      </trkpt>
      <trkpt lat="46.26349" lon="6.79652">
        <ele>2041.2</ele>
        <time>2022-03-06T12:02:48Z</time>
      </trkpt>
      <trkpt lat="46.26348" lon="6.79654">
        <ele>2041.2</ele>
        <time>2022-03-06T12:03:00Z</time>
      </trkpt>
      <trkpt lat="46.26348" lon="6.79654">
        <ele>2041</ele>
        <time>2022-03-06T12:03:17Z</time>
      </trkpt>
      <trkpt lat="46.26349" lon="6.79652">
        <ele>2041</ele>
        <time>2022-03-06T12:03:37Z</time>
      </trkpt>
      <trkpt lat="46.26348" lon="6.79649">
        <ele>2041</ele>
        <time>2022-03-06T12:03:52Z</time>
      </trkpt>
      <trkpt lat="46.26349" lon="6.79649">
        <ele>2041</ele>
        <time>2022-03-06T12:04:02Z</time>
      </trkpt>
      <trkpt lat="46.26349" lon="6.79649">
        <ele>2041</ele>
        <time>2022-03-06T12:04:11Z</time>
      </trkpt>
      <trkpt lat="46.2635" lon="6.79648">
        <ele>2041.2</ele>
        <time>2022-03-06T12:04:26Z</time>
      </trkpt>
      <trkpt lat="46.2635" lon="6.79648">
        <ele>2041.4</ele>
        <time>2022-03-06T12:04:43Z</time>
      </trkpt>
      <trkpt lat="46.26349" lon="6.79649">
        <ele>2041.2</ele>
        <time>2022-03-06T12:04:59Z</time>
      </trkpt>
      <trkpt lat="46.26347" lon="6.79651">
        <ele>2041.2</ele>
        <time>2022-03-06T12:05:16Z</time>
      </trkpt>
      <trkpt lat="46.26348" lon="6.7965">
        <ele>2041.4</ele>
        <time>2022-03-06T12:05:34Z</time>
      </trkpt>
      <trkpt lat="46.26349" lon="6.79648">
        <ele>2041.4</ele>
        <time>2022-03-06T12:05:47Z</time>
      </trkpt>
      <trkpt lat="46.26349" lon="6.79647">
        <ele>2041.4</ele>
        <time>2022-03-06T12:05:49Z</time>
      </trkpt>
      <trkpt lat="46.2635" lon="6.79646">
        <ele>2041.2</ele>
        <time>2022-03-06T12:06:06Z</time>
      </trkpt>
      <trkpt lat="46.26349" lon="6.79645">
        <ele>2041.4</ele>
        <time>2022-03-06T12:06:21Z</time>
      </trkpt>
      <trkpt lat="46.26351" lon="6.79644">
        <ele>2041.4</ele>
        <time>2022-03-06T12:06:37Z</time>
      </trkpt>
      <trkpt lat="46.26351" lon="6.79642">
        <ele>2041.2</ele>
        <time>2022-03-06T12:06:54Z</time>
      </trkpt>
      <trkpt lat="46.26351" lon="6.79643">
        <ele>2041.2</ele>
        <time>2022-03-06T12:06:59Z</time>
      </trkpt>
      <trkpt lat="46.26352" lon="6.79642">
        <ele>2041.2</ele>
        <time>2022-03-06T12:07:08Z</time>
      </trkpt>
      <trkpt lat="46.26351" lon="6.79644">
        <ele>2041.4</ele>
        <time>2022-03-06T12:07:28Z</time>
      </trkpt>
      <trkpt lat="46.26351" lon="6.79646">
        <ele>2041.6</ele>
        <time>2022-03-06T12:07:45Z</time>
      </trkpt>
      <trkpt lat="46.26351" lon="6.79647">
        <ele>2041.4</ele>
        <time>2022-03-06T12:08:02Z</time>
      </trkpt>
      <trkpt lat="46.26348" lon="6.79655">
        <ele>2041.6</ele>
        <time>2022-03-06T12:08:16Z</time>
      </trkpt>
      <trkpt lat="46.26349" lon="6.79655">
        <ele>2041.8</ele>
        <time>2022-03-06T12:08:27Z</time>
      </trkpt>
      <trkpt lat="46.26349" lon="6.79655">
        <ele>2041.8</ele>
        <time>2022-03-06T12:08:30Z</time>
      </trkpt>
      <trkpt lat="46.26349" lon="6.79654">
        <ele>2041.6</ele>
        <time>2022-03-06T12:08:40Z</time>
      </trkpt>
      <trkpt lat="46.2635" lon="6.79654">
        <ele>2041.6</ele>
        <time>2022-03-06T12:08:41Z</time>
      </trkpt>
      <trkpt lat="46.26351" lon="6.79653">
        <ele>2041.2</ele>
        <time>2022-03-06T12:08:55Z</time>
      </trkpt>
      <trkpt lat="46.26352" lon="6.79653">
        <ele>2041</ele>
        <time>2022-03-06T12:09:07Z</time>
      </trkpt>
      <trkpt lat="46.26351" lon="6.79655">
        <ele>2041</ele>
        <time>2022-03-06T12:09:23Z</time>
      </trkpt>
      <trkpt lat="46.26349" lon="6.79655">
        <ele>2041</ele>
        <time>2022-03-06T12:09:44Z</time>
      </trkpt>
      <trkpt lat="46.26347" lon="6.79657">
        <ele>2041</ele>
        <time>2022-03-06T12:09:55Z</time>
      </trkpt>
      <trkpt lat="46.26348" lon="6.79657">
        <ele>2041</ele>
        <time>2022-03-06T12:09:59Z</time>
      </trkpt>
      <trkpt lat="46.26352" lon="6.79653">
        <ele>2041</ele>
        <time>2022-03-06T12:10:17Z</time>
      </trkpt>
      <trkpt lat="46.26352" lon="6.79653">
        <ele>2041</ele>
        <time>2022-03-06T12:10:37Z</time>
      </trkpt>
      <trkpt lat="46.26353" lon="6.79651">
        <ele>2041.2</ele>
        <time>2022-03-06T12:10:54Z</time>
      </trkpt>
      <trkpt lat="46.26353" lon="6.79648">
        <ele>2040.8</ele>
        <time>2022-03-06T12:11:10Z</time>
      </trkpt>
      <trkpt lat="46.26354" lon="6.79649">
        <ele>2041</ele>
        <time>2022-03-06T12:11:26Z</time>
      </trkpt>
      <trkpt lat="46.26354" lon="6.7965">
        <ele>2041.2</ele>
        <time>2022-03-06T12:11:46Z</time>
      </trkpt>
      <trkpt lat="46.26354" lon="6.79649">
        <ele>2041</ele>
        <time>2022-03-06T12:12:05Z</time>
      </trkpt>
      <trkpt lat="46.26354" lon="6.79649">
        <ele>2041.2</ele>
        <time>2022-03-06T12:12:22Z</time>
      </trkpt>
      <trkpt lat="46.26353" lon="6.79649">
        <ele>2041</ele>
        <time>2022-03-06T12:12:41Z</time>
      </trkpt>
      <trkpt lat="46.26354" lon="6.79648">
        <ele>2040.8</ele>
        <time>2022-03-06T12:12:59Z</time>
      </trkpt>
      <trkpt lat="46.26354" lon="6.79646">
        <ele>2040.8</ele>
        <time>2022-03-06T12:13:15Z</time>
      </trkpt>
      <trkpt lat="46.26354" lon="6.79646">
        <ele>2040.8</ele>
        <time>2022-03-06T12:13:16Z</time>
      </trkpt>
      <trkpt lat="46.26354" lon="6.79646">
        <ele>2040.8</ele>
        <time>2022-03-06T12:13:32Z</time>
      </trkpt>
      <trkpt lat="46.26353" lon="6.79649">
        <ele>2041</ele>
        <time>2022-03-06T12:13:50Z</time>
      </trkpt>
      <trkpt lat="46.26353" lon="6.7965">
        <ele>2041</ele>
        <time>2022-03-06T12:14:08Z</time>
      </trkpt>
      <trkpt lat="46.26353" lon="6.79649">
        <ele>2041</ele>
        <time>2022-03-06T12:14:21Z</time>
      </trkpt>
      <trkpt lat="46.26349" lon="6.79651">
        <ele>2041.2</ele>
        <time>2022-03-06T12:14:36Z</time>
      </trkpt>
      <trkpt lat="46.26347" lon="6.79651">
        <ele>2041.2</ele>
        <time>2022-03-06T12:14:48Z</time>
      </trkpt>
      <trkpt lat="46.26348" lon="6.79652">
        <ele>2041</ele>
        <time>2022-03-06T12:15:03Z</time>
      </trkpt>
      <trkpt lat="46.26348" lon="6.79652">
        <ele>2041</ele>
        <time>2022-03-06T12:15:05Z</time>
      </trkpt>
      <trkpt lat="46.26348" lon="6.79652">
        <ele>2041</ele>
        <time>2022-03-06T12:15:19Z</time>
      </trkpt>
      <trkpt lat="46.26349" lon="6.79657">
        <ele>2041.6</ele>
        <time>2022-03-06T12:15:36Z</time>
      </trkpt>
      <trkpt lat="46.26349" lon="6.79658">
        <ele>2041.4</ele>
        <time>2022-03-06T12:15:52Z</time>
      </trkpt>
      <trkpt lat="46.26351" lon="6.79655">
        <ele>2041.2</ele>
        <time>2022-03-06T12:16:09Z</time>
      </trkpt>
      <trkpt lat="46.26352" lon="6.79652">
        <ele>2041.4</ele>
        <time>2022-03-06T12:16:26Z</time>
      </trkpt>
      <trkpt lat="46.26352" lon="6.79656">
        <ele>2041.2</ele>
        <time>2022-03-06T12:16:44Z</time>
      </trkpt>
      <trkpt lat="46.2635" lon="6.79657">
        <ele>2041.2</ele>
        <time>2022-03-06T12:17:00Z</time>
      </trkpt>
      <trkpt lat="46.2635" lon="6.79657">
        <ele>2041</ele>
        <time>2022-03-06T12:17:05Z</time>
      </trkpt>
      <trkpt lat="46.26349" lon="6.79656">
        <ele>2041</ele>
        <time>2022-03-06T12:17:18Z</time>
      </trkpt>
      <trkpt lat="46.26349" lon="6.79655">
        <ele>2041.2</ele>
        <time>2022-03-06T12:17:33Z</time>
      </trkpt>
      <trkpt lat="46.26348" lon="6.79656">
        <ele>2041.2</ele>
        <time>2022-03-06T12:17:48Z</time>
      </trkpt>
      <trkpt lat="46.26348" lon="6.79657">
        <ele>2041.2</ele>
        <time>2022-03-06T12:17:49Z</time>
      </trkpt>
      <trkpt lat="46.26348" lon="6.79657">
        <ele>2041.2</ele>
        <time>2022-03-06T12:18:05Z</time>
      </trkpt>
      <trkpt lat="46.26348" lon="6.79654">
        <ele>2041.2</ele>
        <time>2022-03-06T12:18:16Z</time>
      </trkpt>
      <trkpt lat="46.26348" lon="6.79654">
        <ele>2041.2</ele>
        <time>2022-03-06T12:18:26Z</time>
      </trkpt>
      <trkpt lat="46.26348" lon="6.79651">
        <ele>2041</ele>
        <time>2022-03-06T12:18:31Z</time>
      </trkpt>
      <trkpt lat="46.26347" lon="6.7965">
        <ele>2041</ele>
        <time>2022-03-06T12:18:33Z</time>
      </trkpt>
      <trkpt lat="46.26347" lon="6.79649">
        <ele>2040.8</ele>
        <time>2022-03-06T12:18:34Z</time>
      </trkpt>
      <trkpt lat="46.26347" lon="6.79649">
        <ele>2041</ele>
        <time>2022-03-06T12:18:35Z</time>
      </trkpt>
      <trkpt lat="46.26347" lon="6.79648">
        <ele>2040.8</ele>
        <time>2022-03-06T12:18:36Z</time>
      </trkpt>
      <trkpt lat="46.26346" lon="6.79648">
        <ele>2041</ele>
        <time>2022-03-06T12:18:38Z</time>
      </trkpt>
      <trkpt lat="46.26346" lon="6.79647">
        <ele>2041</ele>
        <time>2022-03-06T12:18:39Z</time>
      </trkpt>
      <trkpt lat="46.26346" lon="6.79647">
        <ele>2039.6</ele>
        <time>2022-03-06T12:18:46Z</time>
      </trkpt>
      <trkpt lat="46.26346" lon="6.79648">
        <ele>2039.4</ele>
        <time>2022-03-06T12:19:01Z</time>
      </trkpt>
      <trkpt lat="46.26345" lon="6.79648">
        <ele>2039.4</ele>
        <time>2022-03-06T12:19:13Z</time>
      </trkpt>
      <trkpt lat="46.26345" lon="6.79648">
        <ele>2039.4</ele>
        <time>2022-03-06T12:19:14Z</time>
      </trkpt>
      <trkpt lat="46.26346" lon="6.79647">
        <ele>2039.8</ele>
        <time>2022-03-06T12:19:24Z</time>
      </trkpt>
      <trkpt lat="46.26345" lon="6.79646">
        <ele>2039.8</ele>
        <time>2022-03-06T12:19:26Z</time>
      </trkpt>
      <trkpt lat="46.26345" lon="6.79644">
        <ele>2040</ele>
        <time>2022-03-06T12:19:36Z</time>
      </trkpt>
      <trkpt lat="46.26345" lon="6.79644">
        <ele>2040</ele>
        <time>2022-03-06T12:19:38Z</time>
      </trkpt>
      <trkpt lat="46.26345" lon="6.79644">
        <ele>2039.6</ele>
        <time>2022-03-06T12:19:48Z</time>
      </trkpt>
      <trkpt lat="46.26344" lon="6.79644">
        <ele>2039.6</ele>
        <time>2022-03-06T12:19:50Z</time>
      </trkpt>
      <trkpt lat="46.26343" lon="6.79643">
        <ele>2039.2</ele>
        <time>2022-03-06T12:19:52Z</time>
      </trkpt>
      <trkpt lat="46.26342" lon="6.79641">
        <ele>2038.8</ele>
        <time>2022-03-06T12:19:56Z</time>
      </trkpt>
      <trkpt lat="46.26342" lon="6.7964">
        <ele>2038.2</ele>
        <time>2022-03-06T12:19:58Z</time>
      </trkpt>
      <trkpt lat="46.26342" lon="6.79639">
        <ele>2038.2</ele>
        <time>2022-03-06T12:19:59Z</time>
      </trkpt>
      <trkpt lat="46.26341" lon="6.79639">
        <ele>2037.8</ele>
        <time>2022-03-06T12:20:00Z</time>
      </trkpt>
      <trkpt lat="46.2634" lon="6.79638">
        <ele>2037</ele>
        <time>2022-03-06T12:20:02Z</time>
      </trkpt>
      <trkpt lat="46.26339" lon="6.79638">
        <ele>2037</ele>
        <time>2022-03-06T12:20:03Z</time>
      </trkpt>
      <trkpt lat="46.26339" lon="6.79638">
        <ele>2036.8</ele>
        <time>2022-03-06T12:20:04Z</time>
      </trkpt>
      <trkpt lat="46.26338" lon="6.79638">
        <ele>2036.4</ele>
        <time>2022-03-06T12:20:05Z</time>
      </trkpt>
      <trkpt lat="46.26337" lon="6.79638">
        <ele>2036</ele>
        <time>2022-03-06T12:20:06Z</time>
      </trkpt>
      <trkpt lat="46.26337" lon="6.79638">
        <ele>2035.6</ele>
        <time>2022-03-06T12:20:07Z</time>
      </trkpt>
      <trkpt lat="46.26336" lon="6.79637">
        <ele>2035.2</ele>
        <time>2022-03-06T12:20:08Z</time>
      </trkpt>
      <trkpt lat="46.26335" lon="6.79637">
        <ele>2035</ele>
        <time>2022-03-06T12:20:09Z</time>
      </trkpt>
      <trkpt lat="46.26331" lon="6.79636">
        <ele>2033.6</ele>
        <time>2022-03-06T12:20:12Z</time>
      </trkpt>
      <trkpt lat="46.26329" lon="6.79634">
        <ele>2032.6</ele>
        <time>2022-03-06T12:20:15Z</time>
      </trkpt>
      <trkpt lat="46.26326" lon="6.79633">
        <ele>2031.2</ele>
        <time>2022-03-06T12:20:18Z</time>
      </trkpt>
      <trkpt lat="46.26325" lon="6.79633">
        <ele>2031</ele>
        <time>2022-03-06T12:20:19Z</time>
      </trkpt>
      <trkpt lat="46.26324" lon="6.79635">
        <ele>2030</ele>
        <time>2022-03-06T12:20:21Z</time>
      </trkpt>
      <trkpt lat="46.26324" lon="6.79635">
        <ele>2029.6</ele>
        <time>2022-03-06T12:20:22Z</time>
      </trkpt>
      <trkpt lat="46.26323" lon="6.79635">
        <ele>2029.4</ele>
        <time>2022-03-06T12:20:23Z</time>
      </trkpt>
      <trkpt lat="46.26323" lon="6.79635">
        <ele>2029</ele>
        <time>2022-03-06T12:20:24Z</time>
      </trkpt>
      <trkpt lat="46.26323" lon="6.79635">
        <ele>2029</ele>
        <time>2022-03-06T12:20:25Z</time>
      </trkpt>
      <trkpt lat="46.26322" lon="6.79635">
        <ele>2028.6</ele>
        <time>2022-03-06T12:20:26Z</time>
      </trkpt>
      <trkpt lat="46.26321" lon="6.79636">
        <ele>2028.4</ele>
        <time>2022-03-06T12:20:27Z</time>
      </trkpt>
      <trkpt lat="46.2632" lon="6.79636">
        <ele>2027.6</ele>
        <time>2022-03-06T12:20:29Z</time>
      </trkpt>
      <trkpt lat="46.26319" lon="6.79636">
        <ele>2027</ele>
        <time>2022-03-06T12:20:30Z</time>
      </trkpt>
      <trkpt lat="46.26318" lon="6.79636">
        <ele>2026.6</ele>
        <time>2022-03-06T12:20:31Z</time>
      </trkpt>
      <trkpt lat="46.26317" lon="6.79636">
        <ele>2025.8</ele>
        <time>2022-03-06T12:20:33Z</time>
      </trkpt>
      <trkpt lat="46.26317" lon="6.79636">
        <ele>2025.2</ele>
        <time>2022-03-06T12:20:34Z</time>
      </trkpt>
      <trkpt lat="46.26316" lon="6.79637">
        <ele>2024.4</ele>
        <time>2022-03-06T12:20:36Z</time>
      </trkpt>
      <trkpt lat="46.26314" lon="6.79637">
        <ele>2023.2</ele>
        <time>2022-03-06T12:20:39Z</time>
      </trkpt>
      <trkpt lat="46.26313" lon="6.79637">
        <ele>2022.6</ele>
        <time>2022-03-06T12:20:40Z</time>
      </trkpt>
      <trkpt lat="46.26312" lon="6.79636">
        <ele>2022.4</ele>
        <time>2022-03-06T12:20:41Z</time>
      </trkpt>
      <trkpt lat="46.26311" lon="6.79636">
        <ele>2022</ele>
        <time>2022-03-06T12:20:42Z</time>
      </trkpt>
      <trkpt lat="46.2631" lon="6.79636">
        <ele>2021.4</ele>
        <time>2022-03-06T12:20:43Z</time>
      </trkpt>
      <trkpt lat="46.2631" lon="6.79636">
        <ele>2021.2</ele>
        <time>2022-03-06T12:20:44Z</time>
      </trkpt>
      <trkpt lat="46.26309" lon="6.79635">
        <ele>2020.8</ele>
        <time>2022-03-06T12:20:45Z</time>
      </trkpt>
      <trkpt lat="46.26309" lon="6.79635">
        <ele>2020.4</ele>
        <time>2022-03-06T12:20:46Z</time>
      </trkpt>
      <trkpt lat="46.26308" lon="6.79634">
        <ele>2020</ele>
        <time>2022-03-06T12:20:47Z</time>
      </trkpt>
      <trkpt lat="46.26307" lon="6.79634">
        <ele>2020</ele>
        <time>2022-03-06T12:20:48Z</time>
      </trkpt>
      <trkpt lat="46.26304" lon="6.79635">
        <ele>2018.2</ele>
        <time>2022-03-06T12:20:51Z</time>
      </trkpt>
      <trkpt lat="46.26303" lon="6.79635">
        <ele>2017.6</ele>
        <time>2022-03-06T12:20:52Z</time>
      </trkpt>
      <trkpt lat="46.26302" lon="6.79635">
        <ele>2017.4</ele>
        <time>2022-03-06T12:20:53Z</time>
      </trkpt>
      <trkpt lat="46.26302" lon="6.79635">
        <ele>2016.8</ele>
        <time>2022-03-06T12:20:54Z</time>
      </trkpt>
      <trkpt lat="46.26301" lon="6.79635">
        <ele>2016.6</ele>
        <time>2022-03-06T12:20:55Z</time>
      </trkpt>
      <trkpt lat="46.263" lon="6.79635">
        <ele>2016</ele>
        <time>2022-03-06T12:20:56Z</time>
      </trkpt>
      <trkpt lat="46.26299" lon="6.79635">
        <ele>2015.6</ele>
        <time>2022-03-06T12:20:57Z</time>
      </trkpt>
      <trkpt lat="46.26298" lon="6.79635">
        <ele>2015.4</ele>
        <time>2022-03-06T12:20:58Z</time>
      </trkpt>
      <trkpt lat="46.26297" lon="6.79635">
        <ele>2014.6</ele>
        <time>2022-03-06T12:21:00Z</time>
      </trkpt>
      <trkpt lat="46.26297" lon="6.79635">
        <ele>2014</ele>
        <time>2022-03-06T12:21:01Z</time>
      </trkpt>
      <trkpt lat="46.26296" lon="6.79635">
        <ele>2013.6</ele>
        <time>2022-03-06T12:21:02Z</time>
      </trkpt>
      <trkpt lat="46.26295" lon="6.79635">
        <ele>2013.2</ele>
        <time>2022-03-06T12:21:03Z</time>
      </trkpt>
      <trkpt lat="46.26293" lon="6.79634">
        <ele>2012</ele>
        <time>2022-03-06T12:21:06Z</time>
      </trkpt>
      <trkpt lat="46.26292" lon="6.79633">
        <ele>2011</ele>
        <time>2022-03-06T12:21:08Z</time>
      </trkpt>
      <trkpt lat="46.26292" lon="6.79631">
        <ele>2011</ele>
        <time>2022-03-06T12:21:09Z</time>
      </trkpt>
      <trkpt lat="46.26292" lon="6.7963">
        <ele>2010.6</ele>
        <time>2022-03-06T12:21:10Z</time>
      </trkpt>
      <trkpt lat="46.26291" lon="6.79629">
        <ele>2009.6</ele>
        <time>2022-03-06T12:21:12Z</time>
      </trkpt>
      <trkpt lat="46.26291" lon="6.79629">
        <ele>2009.4</ele>
        <time>2022-03-06T12:21:13Z</time>
      </trkpt>
      <trkpt lat="46.2629" lon="6.79629">
        <ele>2009</ele>
        <time>2022-03-06T12:21:14Z</time>
      </trkpt>
      <trkpt lat="46.2629" lon="6.79629">
        <ele>2008.4</ele>
        <time>2022-03-06T12:21:15Z</time>
      </trkpt>
      <trkpt lat="46.2629" lon="6.79629">
        <ele>2008</ele>
        <time>2022-03-06T12:21:16Z</time>
      </trkpt>
      <trkpt lat="46.2629" lon="6.79628">
        <ele>2007.6</ele>
        <time>2022-03-06T12:21:17Z</time>
      </trkpt>
      <trkpt lat="46.26289" lon="6.79628">
        <ele>2007.2</ele>
        <time>2022-03-06T12:21:18Z</time>
      </trkpt>
      <trkpt lat="46.26289" lon="6.79628">
        <ele>2006.8</ele>
        <time>2022-03-06T12:21:19Z</time>
      </trkpt>
      <trkpt lat="46.26288" lon="6.79628">
        <ele>2006.6</ele>
        <time>2022-03-06T12:21:20Z</time>
      </trkpt>
      <trkpt lat="46.26286" lon="6.79627">
        <ele>2006</ele>
        <time>2022-03-06T12:21:22Z</time>
      </trkpt>
      <trkpt lat="46.26286" lon="6.79628">
        <ele>2005.6</ele>
        <time>2022-03-06T12:21:23Z</time>
      </trkpt>
      <trkpt lat="46.26283" lon="6.79629">
        <ele>2004.4</ele>
        <time>2022-03-06T12:21:26Z</time>
      </trkpt>
      <trkpt lat="46.26283" lon="6.79629">
        <ele>2004</ele>
        <time>2022-03-06T12:21:27Z</time>
      </trkpt>
      <trkpt lat="46.26282" lon="6.79629">
        <ele>2003.4</ele>
        <time>2022-03-06T12:21:28Z</time>
      </trkpt>
      <trkpt lat="46.26282" lon="6.79629">
        <ele>2003</ele>
        <time>2022-03-06T12:21:29Z</time>
      </trkpt>
      <trkpt lat="46.26281" lon="6.79629">
        <ele>2002.6</ele>
        <time>2022-03-06T12:21:31Z</time>
      </trkpt>
      <trkpt lat="46.2628" lon="6.7963">
        <ele>2002</ele>
        <time>2022-03-06T12:21:33Z</time>
      </trkpt>
      <trkpt lat="46.26279" lon="6.79631">
        <ele>2001.2</ele>
        <time>2022-03-06T12:21:35Z</time>
      </trkpt>
      <trkpt lat="46.26278" lon="6.79631">
        <ele>2000.8</ele>
        <time>2022-03-06T12:21:36Z</time>
      </trkpt>
      <trkpt lat="46.26277" lon="6.79632">
        <ele>2000.4</ele>
        <time>2022-03-06T12:21:37Z</time>
      </trkpt>
      <trkpt lat="46.26276" lon="6.79632">
        <ele>2000.2</ele>
        <time>2022-03-06T12:21:38Z</time>
      </trkpt>
      <trkpt lat="46.26275" lon="6.79632">
        <ele>1999.6</ele>
        <time>2022-03-06T12:21:39Z</time>
      </trkpt>
      <trkpt lat="46.26275" lon="6.79632">
        <ele>1999.4</ele>
        <time>2022-03-06T12:21:40Z</time>
      </trkpt>
      <trkpt lat="46.26274" lon="6.79632">
        <ele>1999</ele>
        <time>2022-03-06T12:21:41Z</time>
      </trkpt>
      <trkpt lat="46.26273" lon="6.79632">
        <ele>1998.6</ele>
        <time>2022-03-06T12:21:42Z</time>
      </trkpt>
      <trkpt lat="46.26272" lon="6.79634">
        <ele>1997.6</ele>
        <time>2022-03-06T12:21:44Z</time>
      </trkpt>
      <trkpt lat="46.26269" lon="6.79634">
        <ele>1995.6</ele>
        <time>2022-03-06T12:21:48Z</time>
      </trkpt>
      <trkpt lat="46.26266" lon="6.79634">
        <ele>1994.6</ele>
        <time>2022-03-06T12:21:51Z</time>
      </trkpt>
      <trkpt lat="46.26263" lon="6.79633">
        <ele>1993.8</ele>
        <time>2022-03-06T12:21:54Z</time>
      </trkpt>
      <trkpt lat="46.26262" lon="6.79633">
        <ele>1993.4</ele>
        <time>2022-03-06T12:21:55Z</time>
      </trkpt>
      <trkpt lat="46.26257" lon="6.79631">
        <ele>1992</ele>
        <time>2022-03-06T12:22:00Z</time>
      </trkpt>
      <trkpt lat="46.26257" lon="6.79631">
        <ele>1991.4</ele>
        <time>2022-03-06T12:22:01Z</time>
      </trkpt>
      <trkpt lat="46.26255" lon="6.79631">
        <ele>1991</ele>
        <time>2022-03-06T12:22:02Z</time>
      </trkpt>
      <trkpt lat="46.26252" lon="6.7963">
        <ele>1990.8</ele>
        <time>2022-03-06T12:22:03Z</time>
      </trkpt>
      <trkpt lat="46.26245" lon="6.7963">
        <ele>1989.6</ele>
        <time>2022-03-06T12:22:07Z</time>
      </trkpt>
      <trkpt lat="46.2624" lon="6.79629">
        <ele>1988.2</ele>
        <time>2022-03-06T12:22:11Z</time>
      </trkpt>
      <trkpt lat="46.26239" lon="6.79629">
        <ele>1988</ele>
        <time>2022-03-06T12:22:12Z</time>
      </trkpt>
      <trkpt lat="46.26239" lon="6.79629">
        <ele>1987.6</ele>
        <time>2022-03-06T12:22:13Z</time>
      </trkpt>
      <trkpt lat="46.26238" lon="6.79628">
        <ele>1987.4</ele>
        <time>2022-03-06T12:22:14Z</time>
      </trkpt>
      <trkpt lat="46.26237" lon="6.79628">
        <ele>1987</ele>
        <time>2022-03-06T12:22:15Z</time>
      </trkpt>
      <trkpt lat="46.26237" lon="6.79628">
        <ele>1987</ele>
        <time>2022-03-06T12:22:16Z</time>
      </trkpt>
      <trkpt lat="46.26235" lon="6.79631">
        <ele>1985.8</ele>
        <time>2022-03-06T12:22:19Z</time>
      </trkpt>
      <trkpt lat="46.26234" lon="6.79632">
        <ele>1985.6</ele>
        <time>2022-03-06T12:22:20Z</time>
      </trkpt>
      <trkpt lat="46.26234" lon="6.79633">
        <ele>1985.2</ele>
        <time>2022-03-06T12:22:21Z</time>
      </trkpt>
      <trkpt lat="46.26233" lon="6.79633">
        <ele>1984.8</ele>
        <time>2022-03-06T12:22:22Z</time>
      </trkpt>
      <trkpt lat="46.26233" lon="6.79634">
        <ele>1984.6</ele>
        <time>2022-03-06T12:22:23Z</time>
      </trkpt>
      <trkpt lat="46.26232" lon="6.79634">
        <ele>1984.2</ele>
        <time>2022-03-06T12:22:24Z</time>
      </trkpt>
      <trkpt lat="46.26231" lon="6.79633">
        <ele>1983.8</ele>
        <time>2022-03-06T12:22:26Z</time>
      </trkpt>
      <trkpt lat="46.26231" lon="6.79634">
        <ele>1983.4</ele>
        <time>2022-03-06T12:22:27Z</time>
      </trkpt>
      <trkpt lat="46.2623" lon="6.79634">
        <ele>1983.2</ele>
        <time>2022-03-06T12:22:28Z</time>
      </trkpt>
      <trkpt lat="46.2623" lon="6.79633">
        <ele>1982.8</ele>
        <time>2022-03-06T12:22:29Z</time>
      </trkpt>
      <trkpt lat="46.26229" lon="6.79633">
        <ele>1982.4</ele>
        <time>2022-03-06T12:22:30Z</time>
      </trkpt>
      <trkpt lat="46.26229" lon="6.79633">
        <ele>1982.2</ele>
        <time>2022-03-06T12:22:31Z</time>
      </trkpt>
      <trkpt lat="46.26229" lon="6.79633">
        <ele>1982</ele>
        <time>2022-03-06T12:22:32Z</time>
      </trkpt>
      <trkpt lat="46.26228" lon="6.79633">
        <ele>1981.6</ele>
        <time>2022-03-06T12:22:33Z</time>
      </trkpt>
      <trkpt lat="46.26228" lon="6.79633">
        <ele>1981.4</ele>
        <time>2022-03-06T12:22:34Z</time>
      </trkpt>
      <trkpt lat="46.26227" lon="6.79633">
        <ele>1981</ele>
        <time>2022-03-06T12:22:35Z</time>
      </trkpt>
      <trkpt lat="46.26226" lon="6.79634">
        <ele>1980.8</ele>
        <time>2022-03-06T12:22:36Z</time>
      </trkpt>
      <trkpt lat="46.26226" lon="6.79634">
        <ele>1980.6</ele>
        <time>2022-03-06T12:22:37Z</time>
      </trkpt>
      <trkpt lat="46.26224" lon="6.79634">
        <ele>1980.6</ele>
        <time>2022-03-06T12:22:38Z</time>
      </trkpt>
      <trkpt lat="46.26221" lon="6.79635">
        <ele>1979.4</ele>
        <time>2022-03-06T12:22:42Z</time>
      </trkpt>
      <trkpt lat="46.2622" lon="6.79636">
        <ele>1979</ele>
        <time>2022-03-06T12:22:43Z</time>
      </trkpt>
      <trkpt lat="46.26219" lon="6.79636">
        <ele>1978.8</ele>
        <time>2022-03-06T12:22:44Z</time>
      </trkpt>
      <trkpt lat="46.26218" lon="6.79636">
        <ele>1978.4</ele>
        <time>2022-03-06T12:22:45Z</time>
      </trkpt>
      <trkpt lat="46.26214" lon="6.79638">
        <ele>1976.6</ele>
        <time>2022-03-06T12:22:50Z</time>
      </trkpt>
      <trkpt lat="46.26213" lon="6.79638">
        <ele>1976.4</ele>
        <time>2022-03-06T12:22:51Z</time>
      </trkpt>
      <trkpt lat="46.26212" lon="6.79638">
        <ele>1976</ele>
        <time>2022-03-06T12:22:52Z</time>
      </trkpt>
      <trkpt lat="46.26209" lon="6.79638">
        <ele>1975.2</ele>
        <time>2022-03-06T12:22:55Z</time>
      </trkpt>
      <trkpt lat="46.26208" lon="6.79639">
        <ele>1975</ele>
        <time>2022-03-06T12:22:56Z</time>
      </trkpt>
      <trkpt lat="46.26207" lon="6.79639">
        <ele>1974.4</ele>
        <time>2022-03-06T12:22:58Z</time>
      </trkpt>
      <trkpt lat="46.26206" lon="6.79639">
        <ele>1974.2</ele>
        <time>2022-03-06T12:22:59Z</time>
      </trkpt>
      <trkpt lat="46.26205" lon="6.7964">
        <ele>1974</ele>
        <time>2022-03-06T12:23:00Z</time>
      </trkpt>
      <trkpt lat="46.262" lon="6.79642">
        <ele>1973</ele>
        <time>2022-03-06T12:23:05Z</time>
      </trkpt>
      <trkpt lat="46.26199" lon="6.79642">
        <ele>1973</ele>
        <time>2022-03-06T12:23:06Z</time>
      </trkpt>
      <trkpt lat="46.26198" lon="6.79642">
        <ele>1972.8</ele>
        <time>2022-03-06T12:23:07Z</time>
      </trkpt>
      <trkpt lat="46.26196" lon="6.79643">
        <ele>1972.6</ele>
        <time>2022-03-06T12:23:08Z</time>
      </trkpt>
      <trkpt lat="46.26194" lon="6.79643">
        <ele>1972.4</ele>
        <time>2022-03-06T12:23:09Z</time>
      </trkpt>
      <trkpt lat="46.26193" lon="6.79644">
        <ele>1972.2</ele>
        <time>2022-03-06T12:23:10Z</time>
      </trkpt>
      <trkpt lat="46.26193" lon="6.79645">
        <ele>1972</ele>
        <time>2022-03-06T12:23:11Z</time>
      </trkpt>
      <trkpt lat="46.26192" lon="6.79645">
        <ele>1971.8</ele>
        <time>2022-03-06T12:23:12Z</time>
      </trkpt>
      <trkpt lat="46.26192" lon="6.79645">
        <ele>1971.6</ele>
        <time>2022-03-06T12:23:13Z</time>
      </trkpt>
      <trkpt lat="46.26191" lon="6.79645">
        <ele>1971.4</ele>
        <time>2022-03-06T12:23:14Z</time>
      </trkpt>
      <trkpt lat="46.26191" lon="6.79649">
        <ele>1971</ele>
        <time>2022-03-06T12:23:22Z</time>
      </trkpt>
      <trkpt lat="46.26193" lon="6.7965">
        <ele>1971</ele>
        <time>2022-03-06T12:23:42Z</time>
      </trkpt>
      <trkpt lat="46.26192" lon="6.79649">
        <ele>1970.8</ele>
        <time>2022-03-06T12:23:53Z</time>
      </trkpt>
      <trkpt lat="46.26193" lon="6.79649">
        <ele>1971</ele>
        <time>2022-03-06T12:24:08Z</time>
      </trkpt>
      <trkpt lat="46.26189" lon="6.7965">
        <ele>1971.2</ele>
        <time>2022-03-06T12:24:17Z</time>
      </trkpt>
      <trkpt lat="46.26188" lon="6.7965">
        <ele>1971</ele>
        <time>2022-03-06T12:24:18Z</time>
      </trkpt>
      <trkpt lat="46.26186" lon="6.79651">
        <ele>1971.2</ele>
        <time>2022-03-06T12:24:19Z</time>
      </trkpt>
      <trkpt lat="46.26185" lon="6.79651">
        <ele>1971.2</ele>
        <time>2022-03-06T12:24:20Z</time>
      </trkpt>
      <trkpt lat="46.26184" lon="6.79651">
        <ele>1971.2</ele>
        <time>2022-03-06T12:24:21Z</time>
      </trkpt>
      <trkpt lat="46.26183" lon="6.79651">
        <ele>1971</ele>
        <time>2022-03-06T12:24:22Z</time>
      </trkpt>
      <trkpt lat="46.26178" lon="6.79653">
        <ele>1970.4</ele>
        <time>2022-03-06T12:24:26Z</time>
      </trkpt>
      <trkpt lat="46.26174" lon="6.79655">
        <ele>1969.4</ele>
        <time>2022-03-06T12:24:30Z</time>
      </trkpt>
      <trkpt lat="46.26173" lon="6.79655">
        <ele>1969.4</ele>
        <time>2022-03-06T12:24:31Z</time>
      </trkpt>
      <trkpt lat="46.26171" lon="6.79655">
        <ele>1968.8</ele>
        <time>2022-03-06T12:24:33Z</time>
      </trkpt>
      <trkpt lat="46.2617" lon="6.79655">
        <ele>1968.6</ele>
        <time>2022-03-06T12:24:34Z</time>
      </trkpt>
      <trkpt lat="46.2617" lon="6.79656">
        <ele>1968.2</ele>
        <time>2022-03-06T12:24:35Z</time>
      </trkpt>
      <trkpt lat="46.26168" lon="6.79656">
        <ele>1967.6</ele>
        <time>2022-03-06T12:24:37Z</time>
      </trkpt>
      <trkpt lat="46.26167" lon="6.79657">
        <ele>1967.2</ele>
        <time>2022-03-06T12:24:38Z</time>
      </trkpt>
      <trkpt lat="46.26166" lon="6.79657">
        <ele>1967</ele>
        <time>2022-03-06T12:24:39Z</time>
      </trkpt>
      <trkpt lat="46.26164" lon="6.79658">
        <ele>1966</ele>
        <time>2022-03-06T12:24:42Z</time>
      </trkpt>
      <trkpt lat="46.26163" lon="6.79658">
        <ele>1965.8</ele>
        <time>2022-03-06T12:24:43Z</time>
      </trkpt>
      <trkpt lat="46.26162" lon="6.79658">
        <ele>1965.4</ele>
        <time>2022-03-06T12:24:44Z</time>
      </trkpt>
      <trkpt lat="46.26161" lon="6.79659">
        <ele>1965</ele>
        <time>2022-03-06T12:24:45Z</time>
      </trkpt>
      <trkpt lat="46.26156" lon="6.7966">
        <ele>1963.2</ele>
        <time>2022-03-06T12:24:50Z</time>
      </trkpt>
      <trkpt lat="46.26155" lon="6.79661">
        <ele>1963</ele>
        <time>2022-03-06T12:24:51Z</time>
      </trkpt>
      <trkpt lat="46.2615" lon="6.79663">
        <ele>1961.8</ele>
        <time>2022-03-06T12:24:55Z</time>
      </trkpt>
      <trkpt lat="46.26144" lon="6.79665">
        <ele>1960.6</ele>
        <time>2022-03-06T12:25:00Z</time>
      </trkpt>
      <trkpt lat="46.26138" lon="6.79669">
        <ele>1959</ele>
        <time>2022-03-06T12:25:05Z</time>
      </trkpt>
      <trkpt lat="46.26137" lon="6.79669">
        <ele>1958.8</ele>
        <time>2022-03-06T12:25:06Z</time>
      </trkpt>
      <trkpt lat="46.26136" lon="6.7967">
        <ele>1958.6</ele>
        <time>2022-03-06T12:25:07Z</time>
      </trkpt>
      <trkpt lat="46.26134" lon="6.79671">
        <ele>1958.4</ele>
        <time>2022-03-06T12:25:08Z</time>
      </trkpt>
      <trkpt lat="46.26131" lon="6.79673">
        <ele>1957.8</ele>
        <time>2022-03-06T12:25:11Z</time>
      </trkpt>
      <trkpt lat="46.26125" lon="6.79675">
        <ele>1957.2</ele>
        <time>2022-03-06T12:25:15Z</time>
      </trkpt>
      <trkpt lat="46.26124" lon="6.79676">
        <ele>1956.8</ele>
        <time>2022-03-06T12:25:16Z</time>
      </trkpt>
      <trkpt lat="46.26123" lon="6.79677">
        <ele>1956.4</ele>
        <time>2022-03-06T12:25:17Z</time>
      </trkpt>
      <trkpt lat="46.26121" lon="6.79679">
        <ele>1956</ele>
        <time>2022-03-06T12:25:19Z</time>
      </trkpt>
      <trkpt lat="46.2612" lon="6.7968">
        <ele>1955.8</ele>
        <time>2022-03-06T12:25:20Z</time>
      </trkpt>
      <trkpt lat="46.26119" lon="6.79681">
        <ele>1955.6</ele>
        <time>2022-03-06T12:25:21Z</time>
      </trkpt>
      <trkpt lat="46.26118" lon="6.79682">
        <ele>1955.4</ele>
        <time>2022-03-06T12:25:22Z</time>
      </trkpt>
      <trkpt lat="46.26116" lon="6.79684">
        <ele>1954.6</ele>
        <time>2022-03-06T12:25:24Z</time>
      </trkpt>
      <trkpt lat="46.26115" lon="6.79686">
        <ele>1954.4</ele>
        <time>2022-03-06T12:25:25Z</time>
      </trkpt>
      <trkpt lat="46.26113" lon="6.79689">
        <ele>1953.6</ele>
        <time>2022-03-06T12:25:28Z</time>
      </trkpt>
      <trkpt lat="46.26112" lon="6.7969">
        <ele>1953.4</ele>
        <time>2022-03-06T12:25:29Z</time>
      </trkpt>
      <trkpt lat="46.26111" lon="6.79691">
        <ele>1953.2</ele>
        <time>2022-03-06T12:25:30Z</time>
      </trkpt>
      <trkpt lat="46.26109" lon="6.79693">
        <ele>1952.6</ele>
        <time>2022-03-06T12:25:32Z</time>
      </trkpt>
      <trkpt lat="46.26109" lon="6.79693">
        <ele>1952.4</ele>
        <time>2022-03-06T12:25:33Z</time>
      </trkpt>
      <trkpt lat="46.26108" lon="6.79694">
        <ele>1952</ele>
        <time>2022-03-06T12:25:34Z</time>
      </trkpt>
      <trkpt lat="46.26105" lon="6.79698">
        <ele>1951.8</ele>
        <time>2022-03-06T12:25:37Z</time>
      </trkpt>
      <trkpt lat="46.26104" lon="6.79699">
        <ele>1951.8</ele>
        <time>2022-03-06T12:25:38Z</time>
      </trkpt>
      <trkpt lat="46.26102" lon="6.797">
        <ele>1951.4</ele>
        <time>2022-03-06T12:25:40Z</time>
      </trkpt>
      <trkpt lat="46.26101" lon="6.79701">
        <ele>1951.4</ele>
        <time>2022-03-06T12:25:41Z</time>
      </trkpt>
      <trkpt lat="46.26093" lon="6.79708">
        <ele>1950.2</ele>
        <time>2022-03-06T12:25:48Z</time>
      </trkpt>
      <trkpt lat="46.26092" lon="6.79709">
        <ele>1950</ele>
        <time>2022-03-06T12:25:49Z</time>
      </trkpt>
      <trkpt lat="46.26089" lon="6.7971">
        <ele>1949.6</ele>
        <time>2022-03-06T12:25:51Z</time>
      </trkpt>
      <trkpt lat="46.26088" lon="6.79711">
        <ele>1949.4</ele>
        <time>2022-03-06T12:25:52Z</time>
      </trkpt>
      <trkpt lat="46.26085" lon="6.79712">
        <ele>1949.2</ele>
        <time>2022-03-06T12:25:55Z</time>
      </trkpt>
      <trkpt lat="46.26084" lon="6.79713">
        <ele>1949</ele>
        <time>2022-03-06T12:25:56Z</time>
      </trkpt>
      <trkpt lat="46.26082" lon="6.79714">
        <ele>1948.6</ele>
        <time>2022-03-06T12:25:58Z</time>
      </trkpt>
      <trkpt lat="46.2608" lon="6.79714">
        <ele>1948.6</ele>
        <time>2022-03-06T12:25:59Z</time>
      </trkpt>
      <trkpt lat="46.26079" lon="6.79715">
        <ele>1948.6</ele>
        <time>2022-03-06T12:26:00Z</time>
      </trkpt>
      <trkpt lat="46.26074" lon="6.79717">
        <ele>1948</ele>
        <time>2022-03-06T12:26:05Z</time>
      </trkpt>
      <trkpt lat="46.26074" lon="6.79717">
        <ele>1948</ele>
        <time>2022-03-06T12:26:06Z</time>
      </trkpt>
      <trkpt lat="46.26073" lon="6.79718">
        <ele>1948</ele>
        <time>2022-03-06T12:26:07Z</time>
      </trkpt>
      <trkpt lat="46.26072" lon="6.79718">
        <ele>1947.6</ele>
        <time>2022-03-06T12:26:08Z</time>
      </trkpt>
      <trkpt lat="46.26071" lon="6.79719">
        <ele>1947.6</ele>
        <time>2022-03-06T12:26:09Z</time>
      </trkpt>
      <trkpt lat="46.2607" lon="6.7972">
        <ele>1947.2</ele>
        <time>2022-03-06T12:26:11Z</time>
      </trkpt>
      <trkpt lat="46.26069" lon="6.79721">
        <ele>1947.2</ele>
        <time>2022-03-06T12:26:12Z</time>
      </trkpt>
      <trkpt lat="46.26068" lon="6.79721">
        <ele>1947</ele>
        <time>2022-03-06T12:26:13Z</time>
      </trkpt>
      <trkpt lat="46.26068" lon="6.79722">
        <ele>1947</ele>
        <time>2022-03-06T12:26:14Z</time>
      </trkpt>
      <trkpt lat="46.26067" lon="6.79722">
        <ele>1947</ele>
        <time>2022-03-06T12:26:15Z</time>
      </trkpt>
      <trkpt lat="46.26066" lon="6.79722">
        <ele>1946.6</ele>
        <time>2022-03-06T12:26:16Z</time>
      </trkpt>
      <trkpt lat="46.26065" lon="6.79723">
        <ele>1946.8</ele>
        <time>2022-03-06T12:26:17Z</time>
      </trkpt>
      <trkpt lat="46.26061" lon="6.79725">
        <ele>1946.4</ele>
        <time>2022-03-06T12:26:22Z</time>
      </trkpt>
      <trkpt lat="46.2606" lon="6.79726">
        <ele>1946.2</ele>
        <time>2022-03-06T12:26:23Z</time>
      </trkpt>
      <trkpt lat="46.26059" lon="6.79726">
        <ele>1946.2</ele>
        <time>2022-03-06T12:26:24Z</time>
      </trkpt>
      <trkpt lat="46.26058" lon="6.79727">
        <ele>1946.2</ele>
        <time>2022-03-06T12:26:25Z</time>
      </trkpt>
      <trkpt lat="46.26058" lon="6.79729">
        <ele>1946</ele>
        <time>2022-03-06T12:26:26Z</time>
      </trkpt>
      <trkpt lat="46.26058" lon="6.79732">
        <ele>1945.8</ele>
        <time>2022-03-06T12:26:31Z</time>
      </trkpt>
      <trkpt lat="46.26059" lon="6.79733">
        <ele>1945.8</ele>
        <time>2022-03-06T12:26:42Z</time>
      </trkpt>
      <trkpt lat="46.2606" lon="6.79733">
        <ele>1946</ele>
        <time>2022-03-06T12:26:54Z</time>
      </trkpt>
      <trkpt lat="46.26055" lon="6.79732">
        <ele>1945.8</ele>
        <time>2022-03-06T12:27:02Z</time>
      </trkpt>
      <trkpt lat="46.26051" lon="6.79731">
        <ele>1945.8</ele>
        <time>2022-03-06T12:27:05Z</time>
      </trkpt>
      <trkpt lat="46.26044" lon="6.79729">
        <ele>1945.4</ele>
        <time>2022-03-06T12:27:11Z</time>
      </trkpt>
      <trkpt lat="46.26039" lon="6.79729">
        <ele>1944.8</ele>
        <time>2022-03-06T12:27:15Z</time>
      </trkpt>
      <trkpt lat="46.26038" lon="6.79729">
        <ele>1944.8</ele>
        <time>2022-03-06T12:27:16Z</time>
      </trkpt>
      <trkpt lat="46.26037" lon="6.79728">
        <ele>1944.8</ele>
        <time>2022-03-06T12:27:17Z</time>
      </trkpt>
      <trkpt lat="46.26035" lon="6.79727">
        <ele>1944.6</ele>
        <time>2022-03-06T12:27:19Z</time>
      </trkpt>
      <trkpt lat="46.26034" lon="6.79727">
        <ele>1944.4</ele>
        <time>2022-03-06T12:27:20Z</time>
      </trkpt>
      <trkpt lat="46.26033" lon="6.79727">
        <ele>1944.4</ele>
        <time>2022-03-06T12:27:21Z</time>
      </trkpt>
      <trkpt lat="46.26032" lon="6.79726">
        <ele>1944.2</ele>
        <time>2022-03-06T12:27:22Z</time>
      </trkpt>
      <trkpt lat="46.2603" lon="6.79726">
        <ele>1944.2</ele>
        <time>2022-03-06T12:27:23Z</time>
      </trkpt>
      <trkpt lat="46.26029" lon="6.79726">
        <ele>1944</ele>
        <time>2022-03-06T12:27:25Z</time>
      </trkpt>
      <trkpt lat="46.26028" lon="6.79726">
        <ele>1943.8</ele>
        <time>2022-03-06T12:27:26Z</time>
      </trkpt>
      <trkpt lat="46.26027" lon="6.79725">
        <ele>1943.8</ele>
        <time>2022-03-06T12:27:27Z</time>
      </trkpt>
      <trkpt lat="46.26026" lon="6.79725">
        <ele>1943.6</ele>
        <time>2022-03-06T12:27:28Z</time>
      </trkpt>
      <trkpt lat="46.26026" lon="6.79725">
        <ele>1943.6</ele>
        <time>2022-03-06T12:27:29Z</time>
      </trkpt>
      <trkpt lat="46.26025" lon="6.79724">
        <ele>1943.6</ele>
        <time>2022-03-06T12:27:30Z</time>
      </trkpt>
      <trkpt lat="46.26022" lon="6.79723">
        <ele>1943.4</ele>
        <time>2022-03-06T12:27:33Z</time>
      </trkpt>
      <trkpt lat="46.2602" lon="6.79721">
        <ele>1943.4</ele>
        <time>2022-03-06T12:27:35Z</time>
      </trkpt>
      <trkpt lat="46.26019" lon="6.79721">
        <ele>1943.4</ele>
        <time>2022-03-06T12:27:36Z</time>
      </trkpt>
      <trkpt lat="46.26018" lon="6.7972">
        <ele>1943.4</ele>
        <time>2022-03-06T12:27:37Z</time>
      </trkpt>
      <trkpt lat="46.26018" lon="6.7972">
        <ele>1943.2</ele>
        <time>2022-03-06T12:27:38Z</time>
      </trkpt>
      <trkpt lat="46.26017" lon="6.7972">
        <ele>1943.2</ele>
        <time>2022-03-06T12:27:39Z</time>
      </trkpt>
      <trkpt lat="46.26016" lon="6.7972">
        <ele>1943.2</ele>
        <time>2022-03-06T12:27:40Z</time>
      </trkpt>
      <trkpt lat="46.26015" lon="6.7972">
        <ele>1943</ele>
        <time>2022-03-06T12:27:41Z</time>
      </trkpt>
      <trkpt lat="46.26015" lon="6.79721">
        <ele>1942.8</ele>
        <time>2022-03-06T12:27:42Z</time>
      </trkpt>
      <trkpt lat="46.26014" lon="6.79721">
        <ele>1942.8</ele>
        <time>2022-03-06T12:27:43Z</time>
      </trkpt>
      <trkpt lat="46.26013" lon="6.79722">
        <ele>1942.8</ele>
        <time>2022-03-06T12:27:44Z</time>
      </trkpt>
      <trkpt lat="46.26012" lon="6.79722">
        <ele>1942.8</ele>
        <time>2022-03-06T12:27:45Z</time>
      </trkpt>
      <trkpt lat="46.26012" lon="6.79723">
        <ele>1942.6</ele>
        <time>2022-03-06T12:27:46Z</time>
      </trkpt>
      <trkpt lat="46.26011" lon="6.79723">
        <ele>1942.4</ele>
        <time>2022-03-06T12:27:47Z</time>
      </trkpt>
      <trkpt lat="46.2601" lon="6.79723">
        <ele>1942.4</ele>
        <time>2022-03-06T12:27:48Z</time>
      </trkpt>
      <trkpt lat="46.2601" lon="6.79723">
        <ele>1942.4</ele>
        <time>2022-03-06T12:27:49Z</time>
      </trkpt>
      <trkpt lat="46.2601" lon="6.79723">
        <ele>1942.2</ele>
        <time>2022-03-06T12:27:50Z</time>
      </trkpt>
      <trkpt lat="46.2601" lon="6.79723">
        <ele>1942.2</ele>
        <time>2022-03-06T12:27:51Z</time>
      </trkpt>
      <trkpt lat="46.2601" lon="6.79723">
        <ele>1942.4</ele>
        <time>2022-03-06T12:27:58Z</time>
      </trkpt>
      <trkpt lat="46.26009" lon="6.79724">
        <ele>1942.4</ele>
        <time>2022-03-06T12:28:02Z</time>
      </trkpt>
      <trkpt lat="46.2601" lon="6.79723">
        <ele>1942.2</ele>
        <time>2022-03-06T12:28:03Z</time>
      </trkpt>
      <trkpt lat="46.2601" lon="6.79723">
        <ele>1942.4</ele>
        <time>2022-03-06T12:28:10Z</time>
      </trkpt>
      <trkpt lat="46.26009" lon="6.79722">
        <ele>1942.4</ele>
        <time>2022-03-06T12:28:20Z</time>
      </trkpt>
      <trkpt lat="46.26007" lon="6.7972">
        <ele>1942.6</ele>
        <time>2022-03-06T12:28:31Z</time>
      </trkpt>
      <trkpt lat="46.26008" lon="6.79716">
        <ele>1942.6</ele>
        <time>2022-03-06T12:28:35Z</time>
      </trkpt>
      <trkpt lat="46.26007" lon="6.79715">
        <ele>1942.4</ele>
        <time>2022-03-06T12:28:36Z</time>
      </trkpt>
      <trkpt lat="46.26007" lon="6.79714">
        <ele>1942.6</ele>
        <time>2022-03-06T12:28:38Z</time>
      </trkpt>
      <trkpt lat="46.26007" lon="6.79713">
        <ele>1942.4</ele>
        <time>2022-03-06T12:28:39Z</time>
      </trkpt>
      <trkpt lat="46.26006" lon="6.79712">
        <ele>1942.4</ele>
        <time>2022-03-06T12:28:40Z</time>
      </trkpt>
      <trkpt lat="46.26005" lon="6.79707">
        <ele>1942.2</ele>
        <time>2022-03-06T12:28:45Z</time>
      </trkpt>
      <trkpt lat="46.26005" lon="6.79707">
        <ele>1942</ele>
        <time>2022-03-06T12:28:46Z</time>
      </trkpt>
      <trkpt lat="46.26005" lon="6.79706">
        <ele>1941.8</ele>
        <time>2022-03-06T12:28:47Z</time>
      </trkpt>
      <trkpt lat="46.26005" lon="6.79705">
        <ele>1941.8</ele>
        <time>2022-03-06T12:28:48Z</time>
      </trkpt>
      <trkpt lat="46.26004" lon="6.79705">
        <ele>1941.4</ele>
        <time>2022-03-06T12:28:49Z</time>
      </trkpt>
      <trkpt lat="46.26004" lon="6.79703">
        <ele>1941.2</ele>
        <time>2022-03-06T12:28:50Z</time>
      </trkpt>
      <trkpt lat="46.26003" lon="6.79702">
        <ele>1941.2</ele>
        <time>2022-03-06T12:28:51Z</time>
      </trkpt>
      <trkpt lat="46.26003" lon="6.797">
        <ele>1940.8</ele>
        <time>2022-03-06T12:28:53Z</time>
      </trkpt>
      <trkpt lat="46.26003" lon="6.79699">
        <ele>1940.4</ele>
        <time>2022-03-06T12:28:54Z</time>
      </trkpt>
      <trkpt lat="46.26002" lon="6.79696">
        <ele>1939.6</ele>
        <time>2022-03-06T12:28:57Z</time>
      </trkpt>
      <trkpt lat="46.26001" lon="6.79695">
        <ele>1939.4</ele>
        <time>2022-03-06T12:28:58Z</time>
      </trkpt>
      <trkpt lat="46.26001" lon="6.79693">
        <ele>1939.2</ele>
        <time>2022-03-06T12:29:00Z</time>
      </trkpt>
      <trkpt lat="46.26002" lon="6.79691">
        <ele>1938.4</ele>
        <time>2022-03-06T12:29:02Z</time>
      </trkpt>
      <trkpt lat="46.26002" lon="6.7969">
        <ele>1938.4</ele>
        <time>2022-03-06T12:29:03Z</time>
      </trkpt>
      <trkpt lat="46.26002" lon="6.79689">
        <ele>1938.2</ele>
        <time>2022-03-06T12:29:04Z</time>
      </trkpt>
      <trkpt lat="46.26003" lon="6.79688">
        <ele>1937.6</ele>
        <time>2022-03-06T12:29:05Z</time>
      </trkpt>
      <trkpt lat="46.26003" lon="6.79687">
        <ele>1937.4</ele>
        <time>2022-03-06T12:29:06Z</time>
      </trkpt>
      <trkpt lat="46.26004" lon="6.79685">
        <ele>1937.2</ele>
        <time>2022-03-06T12:29:07Z</time>
      </trkpt>
      <trkpt lat="46.26006" lon="6.79681">
        <ele>1936.4</ele>
        <time>2022-03-06T12:29:10Z</time>
      </trkpt>
      <trkpt lat="46.26006" lon="6.79681">
        <ele>1936.2</ele>
        <time>2022-03-06T12:29:11Z</time>
      </trkpt>
      <trkpt lat="46.26005" lon="6.79681">
        <ele>1936.2</ele>
        <time>2022-03-06T12:29:12Z</time>
      </trkpt>
      <trkpt lat="46.26006" lon="6.7968">
        <ele>1935.8</ele>
        <time>2022-03-06T12:29:18Z</time>
      </trkpt>
      <trkpt lat="46.26008" lon="6.79676">
        <ele>1935.4</ele>
        <time>2022-03-06T12:29:22Z</time>
      </trkpt>
      <trkpt lat="46.26008" lon="6.79673">
        <ele>1935.4</ele>
        <time>2022-03-06T12:29:23Z</time>
      </trkpt>
      <trkpt lat="46.26008" lon="6.79671">
        <ele>1935.4</ele>
        <time>2022-03-06T12:29:24Z</time>
      </trkpt>
      <trkpt lat="46.26008" lon="6.7967">
        <ele>1935.4</ele>
        <time>2022-03-06T12:29:25Z</time>
      </trkpt>
      <trkpt lat="46.26009" lon="6.79669">
        <ele>1935.4</ele>
        <time>2022-03-06T12:29:26Z</time>
      </trkpt>
      <trkpt lat="46.26009" lon="6.79668">
        <ele>1935.4</ele>
        <time>2022-03-06T12:29:27Z</time>
      </trkpt>
      <trkpt lat="46.26009" lon="6.79666">
        <ele>1935.2</ele>
        <time>2022-03-06T12:29:28Z</time>
      </trkpt>
      <trkpt lat="46.2601" lon="6.79664">
        <ele>1934.8</ele>
        <time>2022-03-06T12:29:30Z</time>
      </trkpt>
      <trkpt lat="46.26013" lon="6.7966">
        <ele>1934.2</ele>
        <time>2022-03-06T12:29:33Z</time>
      </trkpt>
      <trkpt lat="46.26014" lon="6.79657">
        <ele>1933.8</ele>
        <time>2022-03-06T12:29:35Z</time>
      </trkpt>
      <trkpt lat="46.26015" lon="6.79656">
        <ele>1933.6</ele>
        <time>2022-03-06T12:29:36Z</time>
      </trkpt>
      <trkpt lat="46.26015" lon="6.79656">
        <ele>1933.4</ele>
        <time>2022-03-06T12:29:37Z</time>
      </trkpt>
      <trkpt lat="46.26015" lon="6.79654">
        <ele>1933.2</ele>
        <time>2022-03-06T12:29:38Z</time>
      </trkpt>
      <trkpt lat="46.26016" lon="6.79653">
        <ele>1933</ele>
        <time>2022-03-06T12:29:39Z</time>
      </trkpt>
      <trkpt lat="46.26016" lon="6.79652">
        <ele>1932.8</ele>
        <time>2022-03-06T12:29:40Z</time>
      </trkpt>
      <trkpt lat="46.26016" lon="6.79649">
        <ele>1932.8</ele>
        <time>2022-03-06T12:29:41Z</time>
      </trkpt>
      <trkpt lat="46.26016" lon="6.79648">
        <ele>1932.6</ele>
        <time>2022-03-06T12:29:42Z</time>
      </trkpt>
      <trkpt lat="46.26017" lon="6.79647">
        <ele>1932.8</ele>
        <time>2022-03-06T12:29:43Z</time>
      </trkpt>
      <trkpt lat="46.26018" lon="6.79645">
        <ele>1932.6</ele>
        <time>2022-03-06T12:29:45Z</time>
      </trkpt>
      <trkpt lat="46.26018" lon="6.79644">
        <ele>1932.4</ele>
        <time>2022-03-06T12:29:46Z</time>
      </trkpt>
      <trkpt lat="46.26018" lon="6.79643">
        <ele>1932.6</ele>
        <time>2022-03-06T12:29:47Z</time>
      </trkpt>
      <trkpt lat="46.2602" lon="6.79637">
        <ele>1932</ele>
        <time>2022-03-06T12:29:51Z</time>
      </trkpt>
      <trkpt lat="46.26021" lon="6.79636">
        <ele>1931.8</ele>
        <time>2022-03-06T12:29:52Z</time>
      </trkpt>
      <trkpt lat="46.26021" lon="6.79633">
        <ele>1931.4</ele>
        <time>2022-03-06T12:29:54Z</time>
      </trkpt>
      <trkpt lat="46.26022" lon="6.79631">
        <ele>1931.4</ele>
        <time>2022-03-06T12:29:56Z</time>
      </trkpt>
      <trkpt lat="46.26024" lon="6.79623">
        <ele>1931.2</ele>
        <time>2022-03-06T12:30:01Z</time>
      </trkpt>
      <trkpt lat="46.26024" lon="6.79622">
        <ele>1931.2</ele>
        <time>2022-03-06T12:30:02Z</time>
      </trkpt>
      <trkpt lat="46.26024" lon="6.79621">
        <ele>1931.2</ele>
        <time>2022-03-06T12:30:03Z</time>
      </trkpt>
      <trkpt lat="46.26024" lon="6.7962">
        <ele>1931.2</ele>
        <time>2022-03-06T12:30:04Z</time>
      </trkpt>
      <trkpt lat="46.26024" lon="6.79619">
        <ele>1931.2</ele>
        <time>2022-03-06T12:30:05Z</time>
      </trkpt>
      <trkpt lat="46.26024" lon="6.79618">
        <ele>1931</ele>
        <time>2022-03-06T12:30:06Z</time>
      </trkpt>
      <trkpt lat="46.26024" lon="6.79613">
        <ele>1931</ele>
        <time>2022-03-06T12:30:10Z</time>
      </trkpt>
      <trkpt lat="46.26024" lon="6.79612">
        <ele>1931</ele>
        <time>2022-03-06T12:30:11Z</time>
      </trkpt>
      <trkpt lat="46.26024" lon="6.7961">
        <ele>1930.6</ele>
        <time>2022-03-06T12:30:13Z</time>
      </trkpt>
      <trkpt lat="46.26024" lon="6.79608">
        <ele>1930.4</ele>
        <time>2022-03-06T12:30:14Z</time>
      </trkpt>
      <trkpt lat="46.26024" lon="6.79607">
        <ele>1930.4</ele>
        <time>2022-03-06T12:30:15Z</time>
      </trkpt>
      <trkpt lat="46.26023" lon="6.79604">
        <ele>1929.8</ele>
        <time>2022-03-06T12:30:17Z</time>
      </trkpt>
      <trkpt lat="46.26023" lon="6.79603">
        <ele>1929.8</ele>
        <time>2022-03-06T12:30:18Z</time>
      </trkpt>
      <trkpt lat="46.26023" lon="6.79602">
        <ele>1929.6</ele>
        <time>2022-03-06T12:30:19Z</time>
      </trkpt>
      <trkpt lat="46.26023" lon="6.796">
        <ele>1929.4</ele>
        <time>2022-03-06T12:30:20Z</time>
      </trkpt>
      <trkpt lat="46.26023" lon="6.79598">
        <ele>1928.8</ele>
        <time>2022-03-06T12:30:22Z</time>
      </trkpt>
      <trkpt lat="46.26023" lon="6.79596">
        <ele>1928.6</ele>
        <time>2022-03-06T12:30:24Z</time>
      </trkpt>
      <trkpt lat="46.26023" lon="6.79595">
        <ele>1928.2</ele>
        <time>2022-03-06T12:30:25Z</time>
      </trkpt>
      <trkpt lat="46.26023" lon="6.79594">
        <ele>1928</ele>
        <time>2022-03-06T12:30:26Z</time>
      </trkpt>
      <trkpt lat="46.26023" lon="6.79594">
        <ele>1927.8</ele>
        <time>2022-03-06T12:30:27Z</time>
      </trkpt>
      <trkpt lat="46.26022" lon="6.79592">
        <ele>1927.6</ele>
        <time>2022-03-06T12:30:28Z</time>
      </trkpt>
      <trkpt lat="46.26022" lon="6.79592">
        <ele>1927.6</ele>
        <time>2022-03-06T12:30:29Z</time>
      </trkpt>
      <trkpt lat="46.26023" lon="6.79591">
        <ele>1927.2</ele>
        <time>2022-03-06T12:30:31Z</time>
      </trkpt>
      <trkpt lat="46.26023" lon="6.7959">
        <ele>1927.2</ele>
        <time>2022-03-06T12:30:32Z</time>
      </trkpt>
      <trkpt lat="46.26025" lon="6.79591">
        <ele>1927</ele>
        <time>2022-03-06T12:30:33Z</time>
      </trkpt>
      <trkpt lat="46.26023" lon="6.79588">
        <ele>1926</ele>
        <time>2022-03-06T12:30:37Z</time>
      </trkpt>
      <trkpt lat="46.26018" lon="6.79582">
        <ele>1924</ele>
        <time>2022-03-06T12:30:48Z</time>
      </trkpt>
      <trkpt lat="46.26018" lon="6.79579">
        <ele>1923.8</ele>
        <time>2022-03-06T12:30:52Z</time>
      </trkpt>
      <trkpt lat="46.26017" lon="6.79578">
        <ele>1923.8</ele>
        <time>2022-03-06T12:30:53Z</time>
      </trkpt>
      <trkpt lat="46.26015" lon="6.79573">
        <ele>1923.6</ele>
        <time>2022-03-06T12:30:56Z</time>
      </trkpt>
      <trkpt lat="46.26014" lon="6.79572">
        <ele>1923.4</ele>
        <time>2022-03-06T12:30:58Z</time>
      </trkpt>
      <trkpt lat="46.26013" lon="6.79571">
        <ele>1923</ele>
        <time>2022-03-06T12:30:59Z</time>
      </trkpt>
      <trkpt lat="46.26012" lon="6.79571">
        <ele>1922.8</ele>
        <time>2022-03-06T12:31:00Z</time>
      </trkpt>
      <trkpt lat="46.26011" lon="6.79568">
        <ele>1921.4</ele>
        <time>2022-03-06T12:31:03Z</time>
      </trkpt>
      <trkpt lat="46.2601" lon="6.79568">
        <ele>1921</ele>
        <time>2022-03-06T12:31:04Z</time>
      </trkpt>
      <trkpt lat="46.2601" lon="6.79567">
        <ele>1920.8</ele>
        <time>2022-03-06T12:31:05Z</time>
      </trkpt>
      <trkpt lat="46.2601" lon="6.79566">
        <ele>1920.2</ele>
        <time>2022-03-06T12:31:06Z</time>
      </trkpt>
      <trkpt lat="46.26009" lon="6.79566">
        <ele>1920</ele>
        <time>2022-03-06T12:31:07Z</time>
      </trkpt>
      <trkpt lat="46.26007" lon="6.79564">
        <ele>1919</ele>
        <time>2022-03-06T12:31:10Z</time>
      </trkpt>
      <trkpt lat="46.26006" lon="6.79562">
        <ele>1918.2</ele>
        <time>2022-03-06T12:31:12Z</time>
      </trkpt>
      <trkpt lat="46.26006" lon="6.79561">
        <ele>1917.8</ele>
        <time>2022-03-06T12:31:14Z</time>
      </trkpt>
      <trkpt lat="46.26005" lon="6.79561">
        <ele>1917.6</ele>
        <time>2022-03-06T12:31:15Z</time>
      </trkpt>
      <trkpt lat="46.26004" lon="6.79559">
        <ele>1917.2</ele>
        <time>2022-03-06T12:31:16Z</time>
      </trkpt>
      <trkpt lat="46.26003" lon="6.79558">
        <ele>1916.6</ele>
        <time>2022-03-06T12:31:18Z</time>
      </trkpt>
      <trkpt lat="46.26002" lon="6.79557">
        <ele>1916.2</ele>
        <time>2022-03-06T12:31:19Z</time>
      </trkpt>
      <trkpt lat="46.26" lon="6.79556">
        <ele>1915.4</ele>
        <time>2022-03-06T12:31:22Z</time>
      </trkpt>
      <trkpt lat="46.26" lon="6.79556">
        <ele>1914.8</ele>
        <time>2022-03-06T12:31:23Z</time>
      </trkpt>
      <trkpt lat="46.25999" lon="6.79555">
        <ele>1914.8</ele>
        <time>2022-03-06T12:31:24Z</time>
      </trkpt>
      <trkpt lat="46.25999" lon="6.79554">
        <ele>1914.4</ele>
        <time>2022-03-06T12:31:25Z</time>
      </trkpt>
      <trkpt lat="46.25998" lon="6.79554">
        <ele>1914</ele>
        <time>2022-03-06T12:31:26Z</time>
      </trkpt>
      <trkpt lat="46.25998" lon="6.79553">
        <ele>1913.6</ele>
        <time>2022-03-06T12:31:27Z</time>
      </trkpt>
      <trkpt lat="46.25997" lon="6.79552">
        <ele>1913.4</ele>
        <time>2022-03-06T12:31:28Z</time>
      </trkpt>
      <trkpt lat="46.25997" lon="6.79551">
        <ele>1913.2</ele>
        <time>2022-03-06T12:31:29Z</time>
      </trkpt>
      <trkpt lat="46.25996" lon="6.79549">
        <ele>1913</ele>
        <time>2022-03-06T12:31:30Z</time>
      </trkpt>
      <trkpt lat="46.25994" lon="6.79545">
        <ele>1911.6</ele>
        <time>2022-03-06T12:31:34Z</time>
      </trkpt>
      <trkpt lat="46.25993" lon="6.79544">
        <ele>1911.2</ele>
        <time>2022-03-06T12:31:35Z</time>
      </trkpt>
      <trkpt lat="46.25992" lon="6.79541">
        <ele>1910.6</ele>
        <time>2022-03-06T12:31:38Z</time>
      </trkpt>
      <trkpt lat="46.25991" lon="6.79541">
        <ele>1910</ele>
        <time>2022-03-06T12:31:40Z</time>
      </trkpt>
      <trkpt lat="46.2599" lon="6.7954">
        <ele>1909.6</ele>
        <time>2022-03-06T12:31:41Z</time>
      </trkpt>
      <trkpt lat="46.25991" lon="6.7954">
        <ele>1909.6</ele>
        <time>2022-03-06T12:31:42Z</time>
      </trkpt>
      <trkpt lat="46.25991" lon="6.7954">
        <ele>1909.2</ele>
        <time>2022-03-06T12:31:43Z</time>
      </trkpt>
      <trkpt lat="46.2599" lon="6.79539">
        <ele>1908.6</ele>
        <time>2022-03-06T12:31:44Z</time>
      </trkpt>
      <trkpt lat="46.25989" lon="6.79538">
        <ele>1908.2</ele>
        <time>2022-03-06T12:31:45Z</time>
      </trkpt>
      <trkpt lat="46.25989" lon="6.79537">
        <ele>1907.8</ele>
        <time>2022-03-06T12:31:46Z</time>
      </trkpt>
      <trkpt lat="46.25988" lon="6.79537">
        <ele>1907.6</ele>
        <time>2022-03-06T12:31:47Z</time>
      </trkpt>
      <trkpt lat="46.25987" lon="6.79536">
        <ele>1907.4</ele>
        <time>2022-03-06T12:31:48Z</time>
      </trkpt>
      <trkpt lat="46.25987" lon="6.79536">
        <ele>1907.2</ele>
        <time>2022-03-06T12:31:49Z</time>
      </trkpt>
      <trkpt lat="46.25987" lon="6.79535">
        <ele>1906.8</ele>
        <time>2022-03-06T12:31:50Z</time>
      </trkpt>
      <trkpt lat="46.25986" lon="6.79535">
        <ele>1906.4</ele>
        <time>2022-03-06T12:31:51Z</time>
      </trkpt>
      <trkpt lat="46.25985" lon="6.79534">
        <ele>1906.2</ele>
        <time>2022-03-06T12:31:52Z</time>
      </trkpt>
      <trkpt lat="46.25984" lon="6.79532">
        <ele>1905.2</ele>
        <time>2022-03-06T12:31:54Z</time>
      </trkpt>
      <trkpt lat="46.25984" lon="6.79532">
        <ele>1904.8</ele>
        <time>2022-03-06T12:31:55Z</time>
      </trkpt>
      <trkpt lat="46.25984" lon="6.79531">
        <ele>1904.4</ele>
        <time>2022-03-06T12:31:56Z</time>
      </trkpt>
      <trkpt lat="46.25984" lon="6.7953">
        <ele>1904.2</ele>
        <time>2022-03-06T12:31:57Z</time>
      </trkpt>
      <trkpt lat="46.25984" lon="6.7953">
        <ele>1904</ele>
        <time>2022-03-06T12:31:58Z</time>
      </trkpt>
      <trkpt lat="46.25983" lon="6.79528">
        <ele>1903.8</ele>
        <time>2022-03-06T12:32:00Z</time>
      </trkpt>
      <trkpt lat="46.25981" lon="6.79524">
        <ele>1903.4</ele>
        <time>2022-03-06T12:32:02Z</time>
      </trkpt>
      <trkpt lat="46.2598" lon="6.79523">
        <ele>1903.2</ele>
        <time>2022-03-06T12:32:03Z</time>
      </trkpt>
      <trkpt lat="46.25979" lon="6.79522">
        <ele>1903</ele>
        <time>2022-03-06T12:32:04Z</time>
      </trkpt>
      <trkpt lat="46.25973" lon="6.79518">
        <ele>1901.2</ele>
        <time>2022-03-06T12:32:14Z</time>
      </trkpt>
      <trkpt lat="46.25973" lon="6.79517">
        <ele>1901</ele>
        <time>2022-03-06T12:32:25Z</time>
      </trkpt>
      <trkpt lat="46.25973" lon="6.79516">
        <ele>1901</ele>
        <time>2022-03-06T12:32:35Z</time>
      </trkpt>
      <trkpt lat="46.25972" lon="6.79514">
        <ele>1901</ele>
        <time>2022-03-06T12:32:44Z</time>
      </trkpt>
      <trkpt lat="46.25971" lon="6.79511">
        <ele>1900.8</ele>
        <time>2022-03-06T12:32:50Z</time>
      </trkpt>
      <trkpt lat="46.2597" lon="6.7951">
        <ele>1901</ele>
        <time>2022-03-06T12:32:51Z</time>
      </trkpt>
      <trkpt lat="46.2597" lon="6.79509">
        <ele>1901</ele>
        <time>2022-03-06T12:32:52Z</time>
      </trkpt>
      <trkpt lat="46.25969" lon="6.79507">
        <ele>1900.8</ele>
        <time>2022-03-06T12:32:54Z</time>
      </trkpt>
      <trkpt lat="46.25968" lon="6.79505">
        <ele>1900.8</ele>
        <time>2022-03-06T12:32:56Z</time>
      </trkpt>
      <trkpt lat="46.25968" lon="6.79502">
        <ele>1900</ele>
        <time>2022-03-06T12:33:00Z</time>
      </trkpt>
      <trkpt lat="46.25968" lon="6.79501">
        <ele>1900</ele>
        <time>2022-03-06T12:33:01Z</time>
      </trkpt>
      <trkpt lat="46.25968" lon="6.795">
        <ele>1899.4</ele>
        <time>2022-03-06T12:33:02Z</time>
      </trkpt>
      <trkpt lat="46.25968" lon="6.795">
        <ele>1899.4</ele>
        <time>2022-03-06T12:33:03Z</time>
      </trkpt>
      <trkpt lat="46.25968" lon="6.79499">
        <ele>1899</ele>
        <time>2022-03-06T12:33:04Z</time>
      </trkpt>
      <trkpt lat="46.25968" lon="6.79499">
        <ele>1898.6</ele>
        <time>2022-03-06T12:33:05Z</time>
      </trkpt>
      <trkpt lat="46.25969" lon="6.79498">
        <ele>1898.6</ele>
        <time>2022-03-06T12:33:06Z</time>
      </trkpt>
      <trkpt lat="46.25969" lon="6.79496">
        <ele>1898.2</ele>
        <time>2022-03-06T12:33:08Z</time>
      </trkpt>
      <trkpt lat="46.25968" lon="6.79495">
        <ele>1898</ele>
        <time>2022-03-06T12:33:09Z</time>
      </trkpt>
      <trkpt lat="46.25968" lon="6.79493">
        <ele>1897.6</ele>
        <time>2022-03-06T12:33:11Z</time>
      </trkpt>
      <trkpt lat="46.25967" lon="6.79492">
        <ele>1897.4</ele>
        <time>2022-03-06T12:33:12Z</time>
      </trkpt>
      <trkpt lat="46.25967" lon="6.7949">
        <ele>1897.2</ele>
        <time>2022-03-06T12:33:13Z</time>
      </trkpt>
      <trkpt lat="46.25966" lon="6.79487">
        <ele>1896.6</ele>
        <time>2022-03-06T12:33:16Z</time>
      </trkpt>
      <trkpt lat="46.25966" lon="6.79486">
        <ele>1896.4</ele>
        <time>2022-03-06T12:33:17Z</time>
      </trkpt>
      <trkpt lat="46.25967" lon="6.79485">
        <ele>1896.2</ele>
        <time>2022-03-06T12:33:18Z</time>
      </trkpt>
      <trkpt lat="46.25967" lon="6.79485">
        <ele>1896</ele>
        <time>2022-03-06T12:33:19Z</time>
      </trkpt>
      <trkpt lat="46.25968" lon="6.79485">
        <ele>1895.4</ele>
        <time>2022-03-06T12:33:20Z</time>
      </trkpt>
      <trkpt lat="46.25968" lon="6.79485">
        <ele>1895.2</ele>
        <time>2022-03-06T12:33:21Z</time>
      </trkpt>
      <trkpt lat="46.25969" lon="6.79485">
        <ele>1894.8</ele>
        <time>2022-03-06T12:33:22Z</time>
      </trkpt>
      <trkpt lat="46.2597" lon="6.79485">
        <ele>1894.4</ele>
        <time>2022-03-06T12:33:23Z</time>
      </trkpt>
      <trkpt lat="46.25971" lon="6.79485">
        <ele>1894.2</ele>
        <time>2022-03-06T12:33:24Z</time>
      </trkpt>
      <trkpt lat="46.25972" lon="6.79486">
        <ele>1893.2</ele>
        <time>2022-03-06T12:33:28Z</time>
      </trkpt>
      <trkpt lat="46.2597" lon="6.79482">
        <ele>1893</ele>
        <time>2022-03-06T12:33:35Z</time>
      </trkpt>
      <trkpt lat="46.2597" lon="6.7948">
        <ele>1893</ele>
        <time>2022-03-06T12:33:36Z</time>
      </trkpt>
      <trkpt lat="46.25969" lon="6.79477">
        <ele>1893</ele>
        <time>2022-03-06T12:33:39Z</time>
      </trkpt>
      <trkpt lat="46.25968" lon="6.79475">
        <ele>1893</ele>
        <time>2022-03-06T12:33:41Z</time>
      </trkpt>
      <trkpt lat="46.25968" lon="6.79475">
        <ele>1893</ele>
        <time>2022-03-06T12:33:42Z</time>
      </trkpt>
      <trkpt lat="46.25969" lon="6.79475">
        <ele>1892.6</ele>
        <time>2022-03-06T12:33:43Z</time>
      </trkpt>
      <trkpt lat="46.25968" lon="6.79475">
        <ele>1892.4</ele>
        <time>2022-03-06T12:33:44Z</time>
      </trkpt>
      <trkpt lat="46.25968" lon="6.79474">
        <ele>1892.2</ele>
        <time>2022-03-06T12:33:45Z</time>
      </trkpt>
      <trkpt lat="46.25969" lon="6.79474">
        <ele>1891.8</ele>
        <time>2022-03-06T12:33:46Z</time>
      </trkpt>
      <trkpt lat="46.25969" lon="6.79473">
        <ele>1891.4</ele>
        <time>2022-03-06T12:33:47Z</time>
      </trkpt>
      <trkpt lat="46.25968" lon="6.79472">
        <ele>1891.2</ele>
        <time>2022-03-06T12:33:48Z</time>
      </trkpt>
      <trkpt lat="46.25969" lon="6.79468">
        <ele>1890.4</ele>
        <time>2022-03-06T12:33:52Z</time>
      </trkpt>
      <trkpt lat="46.25969" lon="6.79468">
        <ele>1890.4</ele>
        <time>2022-03-06T12:33:53Z</time>
      </trkpt>
      <trkpt lat="46.25969" lon="6.79467">
        <ele>1890.2</ele>
        <time>2022-03-06T12:33:54Z</time>
      </trkpt>
      <trkpt lat="46.25968" lon="6.79466">
        <ele>1890</ele>
        <time>2022-03-06T12:33:55Z</time>
      </trkpt>
      <trkpt lat="46.25968" lon="6.79465">
        <ele>1890</ele>
        <time>2022-03-06T12:33:56Z</time>
      </trkpt>
      <trkpt lat="46.25968" lon="6.79464">
        <ele>1890</ele>
        <time>2022-03-06T12:33:57Z</time>
      </trkpt>
      <trkpt lat="46.25969" lon="6.79464">
        <ele>1889.6</ele>
        <time>2022-03-06T12:33:58Z</time>
      </trkpt>
      <trkpt lat="46.25976" lon="6.79462">
        <ele>1887.6</ele>
        <time>2022-03-06T12:34:10Z</time>
      </trkpt>
      <trkpt lat="46.25972" lon="6.79462">
        <ele>1887.6</ele>
        <time>2022-03-06T12:34:22Z</time>
      </trkpt>
      <trkpt lat="46.25969" lon="6.7946">
        <ele>1887.4</ele>
        <time>2022-03-06T12:34:24Z</time>
      </trkpt>
      <trkpt lat="46.25968" lon="6.7946">
        <ele>1887.4</ele>
        <time>2022-03-06T12:34:25Z</time>
      </trkpt>
      <trkpt lat="46.25966" lon="6.79458">
        <ele>1887.4</ele>
        <time>2022-03-06T12:34:28Z</time>
      </trkpt>
      <trkpt lat="46.25965" lon="6.79458">
        <ele>1887.4</ele>
        <time>2022-03-06T12:34:29Z</time>
      </trkpt>
      <trkpt lat="46.25965" lon="6.79457">
        <ele>1887.4</ele>
        <time>2022-03-06T12:34:30Z</time>
      </trkpt>
      <trkpt lat="46.25963" lon="6.79456">
        <ele>1887.2</ele>
        <time>2022-03-06T12:34:32Z</time>
      </trkpt>
      <trkpt lat="46.25963" lon="6.79456">
        <ele>1887</ele>
        <time>2022-03-06T12:34:33Z</time>
      </trkpt>
      <trkpt lat="46.25962" lon="6.79456">
        <ele>1886.6</ele>
        <time>2022-03-06T12:34:34Z</time>
      </trkpt>
      <trkpt lat="46.25961" lon="6.79455">
        <ele>1886</ele>
        <time>2022-03-06T12:34:36Z</time>
      </trkpt>
      <trkpt lat="46.2596" lon="6.79455">
        <ele>1885.6</ele>
        <time>2022-03-06T12:34:37Z</time>
      </trkpt>
      <trkpt lat="46.2596" lon="6.79455">
        <ele>1885.4</ele>
        <time>2022-03-06T12:34:38Z</time>
      </trkpt>
      <trkpt lat="46.25959" lon="6.79454">
        <ele>1885.2</ele>
        <time>2022-03-06T12:34:39Z</time>
      </trkpt>
      <trkpt lat="46.25959" lon="6.79454">
        <ele>1885</ele>
        <time>2022-03-06T12:34:40Z</time>
      </trkpt>
      <trkpt lat="46.25958" lon="6.79453">
        <ele>1884.6</ele>
        <time>2022-03-06T12:34:41Z</time>
      </trkpt>
      <trkpt lat="46.25957" lon="6.79453">
        <ele>1884.2</ele>
        <time>2022-03-06T12:34:42Z</time>
      </trkpt>
      <trkpt lat="46.25956" lon="6.79451">
        <ele>1883.8</ele>
        <time>2022-03-06T12:34:44Z</time>
      </trkpt>
      <trkpt lat="46.25955" lon="6.7945">
        <ele>1883.6</ele>
        <time>2022-03-06T12:34:45Z</time>
      </trkpt>
      <trkpt lat="46.25955" lon="6.79449">
        <ele>1883.2</ele>
        <time>2022-03-06T12:34:46Z</time>
      </trkpt>
      <trkpt lat="46.25954" lon="6.79448">
        <ele>1882.8</ele>
        <time>2022-03-06T12:34:48Z</time>
      </trkpt>
      <trkpt lat="46.25954" lon="6.79447">
        <ele>1882.4</ele>
        <time>2022-03-06T12:34:49Z</time>
      </trkpt>
      <trkpt lat="46.25952" lon="6.79446">
        <ele>1882</ele>
        <time>2022-03-06T12:34:51Z</time>
      </trkpt>
      <trkpt lat="46.25951" lon="6.79444">
        <ele>1881.6</ele>
        <time>2022-03-06T12:34:53Z</time>
      </trkpt>
      <trkpt lat="46.25951" lon="6.79444">
        <ele>1881</ele>
        <time>2022-03-06T12:34:55Z</time>
      </trkpt>
      <trkpt lat="46.2595" lon="6.79443">
        <ele>1880.6</ele>
        <time>2022-03-06T12:34:56Z</time>
      </trkpt>
      <trkpt lat="46.25948" lon="6.79441">
        <ele>1879.4</ele>
        <time>2022-03-06T12:35:01Z</time>
      </trkpt>
      <trkpt lat="46.25948" lon="6.7944">
        <ele>1879</ele>
        <time>2022-03-06T12:35:02Z</time>
      </trkpt>
      <trkpt lat="46.25948" lon="6.7944">
        <ele>1878.6</ele>
        <time>2022-03-06T12:35:03Z</time>
      </trkpt>
      <trkpt lat="46.25947" lon="6.79439">
        <ele>1878.2</ele>
        <time>2022-03-06T12:35:04Z</time>
      </trkpt>
      <trkpt lat="46.25946" lon="6.79439">
        <ele>1878</ele>
        <time>2022-03-06T12:35:05Z</time>
      </trkpt>
      <trkpt lat="46.25946" lon="6.79439">
        <ele>1877.8</ele>
        <time>2022-03-06T12:35:06Z</time>
      </trkpt>
      <trkpt lat="46.25945" lon="6.79439">
        <ele>1877.6</ele>
        <time>2022-03-06T12:35:07Z</time>
      </trkpt>
      <trkpt lat="46.25945" lon="6.7944">
        <ele>1877.2</ele>
        <time>2022-03-06T12:35:08Z</time>
      </trkpt>
      <trkpt lat="46.25944" lon="6.7944">
        <ele>1877</ele>
        <time>2022-03-06T12:35:09Z</time>
      </trkpt>
      <trkpt lat="46.25943" lon="6.79442">
        <ele>1876.6</ele>
        <time>2022-03-06T12:35:11Z</time>
      </trkpt>
      <trkpt lat="46.25942" lon="6.79443">
        <ele>1876.4</ele>
        <time>2022-03-06T12:35:12Z</time>
      </trkpt>
      <trkpt lat="46.25942" lon="6.79443">
        <ele>1876</ele>
        <time>2022-03-06T12:35:13Z</time>
      </trkpt>
      <trkpt lat="46.25941" lon="6.79444">
        <ele>1875.8</ele>
        <time>2022-03-06T12:35:14Z</time>
      </trkpt>
      <trkpt lat="46.25939" lon="6.79445">
        <ele>1875.2</ele>
        <time>2022-03-06T12:35:17Z</time>
      </trkpt>
      <trkpt lat="46.25938" lon="6.79445">
        <ele>1875.2</ele>
        <time>2022-03-06T12:35:18Z</time>
      </trkpt>
      <trkpt lat="46.25937" lon="6.79446">
        <ele>1875</ele>
        <time>2022-03-06T12:35:19Z</time>
      </trkpt>
      <trkpt lat="46.25937" lon="6.79446">
        <ele>1875</ele>
        <time>2022-03-06T12:35:20Z</time>
      </trkpt>
      <trkpt lat="46.25937" lon="6.79446">
        <ele>1875</ele>
        <time>2022-03-06T12:35:22Z</time>
      </trkpt>
      <trkpt lat="46.25936" lon="6.79444">
        <ele>1874.2</ele>
        <time>2022-03-06T12:35:32Z</time>
      </trkpt>
      <trkpt lat="46.25936" lon="6.79442">
        <ele>1874</ele>
        <time>2022-03-06T12:35:39Z</time>
      </trkpt>
      <trkpt lat="46.25936" lon="6.79441">
        <ele>1874</ele>
        <time>2022-03-06T12:35:41Z</time>
      </trkpt>
      <trkpt lat="46.25936" lon="6.7944">
        <ele>1874</ele>
        <time>2022-03-06T12:35:42Z</time>
      </trkpt>
      <trkpt lat="46.25936" lon="6.7944">
        <ele>1874</ele>
        <time>2022-03-06T12:35:43Z</time>
      </trkpt>
      <trkpt lat="46.25935" lon="6.79439">
        <ele>1873.8</ele>
        <time>2022-03-06T12:35:44Z</time>
      </trkpt>
      <trkpt lat="46.25935" lon="6.79438">
        <ele>1873.8</ele>
        <time>2022-03-06T12:35:45Z</time>
      </trkpt>
      <trkpt lat="46.25933" lon="6.79435">
        <ele>1873.4</ele>
        <time>2022-03-06T12:35:47Z</time>
      </trkpt>
      <trkpt lat="46.25932" lon="6.79432">
        <ele>1872.8</ele>
        <time>2022-03-06T12:35:50Z</time>
      </trkpt>
      <trkpt lat="46.25931" lon="6.79429">
        <ele>1872.2</ele>
        <time>2022-03-06T12:35:52Z</time>
      </trkpt>
      <trkpt lat="46.25931" lon="6.79428">
        <ele>1871.8</ele>
        <time>2022-03-06T12:35:53Z</time>
      </trkpt>
      <trkpt lat="46.2593" lon="6.79426">
        <ele>1871.2</ele>
        <time>2022-03-06T12:35:55Z</time>
      </trkpt>
      <trkpt lat="46.2593" lon="6.79425">
        <ele>1870.8</ele>
        <time>2022-03-06T12:35:56Z</time>
      </trkpt>
      <trkpt lat="46.25929" lon="6.79423">
        <ele>1869.6</ele>
        <time>2022-03-06T12:35:59Z</time>
      </trkpt>
      <trkpt lat="46.25929" lon="6.79423">
        <ele>1869.2</ele>
        <time>2022-03-06T12:36:00Z</time>
      </trkpt>
      <trkpt lat="46.25929" lon="6.79422">
        <ele>1868.8</ele>
        <time>2022-03-06T12:36:01Z</time>
      </trkpt>
      <trkpt lat="46.25928" lon="6.79421">
        <ele>1868.4</ele>
        <time>2022-03-06T12:36:02Z</time>
      </trkpt>
      <trkpt lat="46.25928" lon="6.7942">
        <ele>1867.6</ele>
        <time>2022-03-06T12:36:04Z</time>
      </trkpt>
      <trkpt lat="46.25928" lon="6.7942">
        <ele>1867.6</ele>
        <time>2022-03-06T12:36:05Z</time>
      </trkpt>
      <trkpt lat="46.25928" lon="6.79418">
        <ele>1867</ele>
        <time>2022-03-06T12:36:06Z</time>
      </trkpt>
      <trkpt lat="46.25928" lon="6.79416">
        <ele>1866.6</ele>
        <time>2022-03-06T12:36:07Z</time>
      </trkpt>
      <trkpt lat="46.25927" lon="6.79414">
        <ele>1866</ele>
        <time>2022-03-06T12:36:09Z</time>
      </trkpt>
      <trkpt lat="46.25927" lon="6.79412">
        <ele>1865.2</ele>
        <time>2022-03-06T12:36:11Z</time>
      </trkpt>
      <trkpt lat="46.25927" lon="6.79411">
        <ele>1865</ele>
        <time>2022-03-06T12:36:12Z</time>
      </trkpt>
      <trkpt lat="46.25926" lon="6.79409">
        <ele>1864.6</ele>
        <time>2022-03-06T12:36:13Z</time>
      </trkpt>
      <trkpt lat="46.25926" lon="6.7941">
        <ele>1864</ele>
        <time>2022-03-06T12:36:14Z</time>
      </trkpt>
      <trkpt lat="46.25926" lon="6.79409">
        <ele>1863.8</ele>
        <time>2022-03-06T12:36:15Z</time>
      </trkpt>
      <trkpt lat="46.25926" lon="6.79408">
        <ele>1863.4</ele>
        <time>2022-03-06T12:36:16Z</time>
      </trkpt>
      <trkpt lat="46.25926" lon="6.79407">
        <ele>1863</ele>
        <time>2022-03-06T12:36:17Z</time>
      </trkpt>
      <trkpt lat="46.25925" lon="6.79406">
        <ele>1862.8</ele>
        <time>2022-03-06T12:36:18Z</time>
      </trkpt>
      <trkpt lat="46.25925" lon="6.79403">
        <ele>1861.8</ele>
        <time>2022-03-06T12:36:20Z</time>
      </trkpt>
      <trkpt lat="46.25924" lon="6.79399">
        <ele>1860.8</ele>
        <time>2022-03-06T12:36:23Z</time>
      </trkpt>
      <trkpt lat="46.25922" lon="6.79396">
        <ele>1859.8</ele>
        <time>2022-03-06T12:36:26Z</time>
      </trkpt>
      <trkpt lat="46.25922" lon="6.79396">
        <ele>1859.8</ele>
        <time>2022-03-06T12:36:27Z</time>
      </trkpt>
      <trkpt lat="46.25921" lon="6.79395">
        <ele>1859.6</ele>
        <time>2022-03-06T12:36:28Z</time>
      </trkpt>
      <trkpt lat="46.25921" lon="6.79395">
        <ele>1859.4</ele>
        <time>2022-03-06T12:36:29Z</time>
      </trkpt>
      <trkpt lat="46.25921" lon="6.79394">
        <ele>1859</ele>
        <time>2022-03-06T12:36:30Z</time>
      </trkpt>
      <trkpt lat="46.2592" lon="6.79393">
        <ele>1858.8</ele>
        <time>2022-03-06T12:36:31Z</time>
      </trkpt>
      <trkpt lat="46.25919" lon="6.79391">
        <ele>1858</ele>
        <time>2022-03-06T12:36:33Z</time>
      </trkpt>
      <trkpt lat="46.25919" lon="6.79392">
        <ele>1857.8</ele>
        <time>2022-03-06T12:36:34Z</time>
      </trkpt>
      <trkpt lat="46.25919" lon="6.79393">
        <ele>1857.2</ele>
        <time>2022-03-06T12:36:35Z</time>
      </trkpt>
      <trkpt lat="46.25919" lon="6.79395">
        <ele>1855</ele>
        <time>2022-03-06T12:36:41Z</time>
      </trkpt>
      <trkpt lat="46.2592" lon="6.79396">
        <ele>1854</ele>
        <time>2022-03-06T12:36:56Z</time>
      </trkpt>
      <trkpt lat="46.25918" lon="6.79394">
        <ele>1854</ele>
        <time>2022-03-06T12:37:01Z</time>
      </trkpt>
      <trkpt lat="46.25918" lon="6.79394">
        <ele>1854</ele>
        <time>2022-03-06T12:37:02Z</time>
      </trkpt>
      <trkpt lat="46.25918" lon="6.79394">
        <ele>1853.8</ele>
        <time>2022-03-06T12:37:04Z</time>
      </trkpt>
      <trkpt lat="46.25918" lon="6.79393">
        <ele>1853.8</ele>
        <time>2022-03-06T12:37:05Z</time>
      </trkpt>
      <trkpt lat="46.25919" lon="6.79393">
        <ele>1853.2</ele>
        <time>2022-03-06T12:37:08Z</time>
      </trkpt>
      <trkpt lat="46.25919" lon="6.7939">
        <ele>1852.2</ele>
        <time>2022-03-06T12:37:11Z</time>
      </trkpt>
      <trkpt lat="46.25919" lon="6.7939">
        <ele>1852.2</ele>
        <time>2022-03-06T12:37:12Z</time>
      </trkpt>
      <trkpt lat="46.25918" lon="6.79388">
        <ele>1851.6</ele>
        <time>2022-03-06T12:37:14Z</time>
      </trkpt>
      <trkpt lat="46.25919" lon="6.79388">
        <ele>1851.4</ele>
        <time>2022-03-06T12:37:15Z</time>
      </trkpt>
      <trkpt lat="46.25921" lon="6.79387">
        <ele>1850.6</ele>
        <time>2022-03-06T12:37:18Z</time>
      </trkpt>
      <trkpt lat="46.25921" lon="6.79387">
        <ele>1850.2</ele>
        <time>2022-03-06T12:37:19Z</time>
      </trkpt>
      <trkpt lat="46.25921" lon="6.79387">
        <ele>1849.8</ele>
        <time>2022-03-06T12:37:20Z</time>
      </trkpt>
      <trkpt lat="46.25921" lon="6.79386">
        <ele>1849.4</ele>
        <time>2022-03-06T12:37:21Z</time>
      </trkpt>
      <trkpt lat="46.25921" lon="6.79383">
        <ele>1847.6</ele>
        <time>2022-03-06T12:37:25Z</time>
      </trkpt>
      <trkpt lat="46.25921" lon="6.79381">
        <ele>1847.2</ele>
        <time>2022-03-06T12:37:26Z</time>
      </trkpt>
      <trkpt lat="46.25925" lon="6.79371">
        <ele>1843.8</ele>
        <time>2022-03-06T12:37:37Z</time>
      </trkpt>
      <trkpt lat="46.25926" lon="6.79365">
        <ele>1843.8</ele>
        <time>2022-03-06T12:37:50Z</time>
      </trkpt>
      <trkpt lat="46.25926" lon="6.79365">
        <ele>1843.6</ele>
        <time>2022-03-06T12:37:51Z</time>
      </trkpt>
      <trkpt lat="46.25924" lon="6.79363">
        <ele>1843.8</ele>
        <time>2022-03-06T12:37:53Z</time>
      </trkpt>
      <trkpt lat="46.25924" lon="6.79363">
        <ele>1843.8</ele>
        <time>2022-03-06T12:37:54Z</time>
      </trkpt>
      <trkpt lat="46.25922" lon="6.79361">
        <ele>1843.4</ele>
        <time>2022-03-06T12:37:56Z</time>
      </trkpt>
      <trkpt lat="46.25918" lon="6.79358">
        <ele>1842.6</ele>
        <time>2022-03-06T12:38:00Z</time>
      </trkpt>
      <trkpt lat="46.25917" lon="6.79357">
        <ele>1842</ele>
        <time>2022-03-06T12:38:02Z</time>
      </trkpt>
      <trkpt lat="46.25916" lon="6.79357">
        <ele>1841.4</ele>
        <time>2022-03-06T12:38:03Z</time>
      </trkpt>
      <trkpt lat="46.25913" lon="6.79355">
        <ele>1840</ele>
        <time>2022-03-06T12:38:06Z</time>
      </trkpt>
      <trkpt lat="46.25912" lon="6.79355">
        <ele>1839.4</ele>
        <time>2022-03-06T12:38:07Z</time>
      </trkpt>
      <trkpt lat="46.25912" lon="6.79354">
        <ele>1839</ele>
        <time>2022-03-06T12:38:08Z</time>
      </trkpt>
      <trkpt lat="46.25911" lon="6.79353">
        <ele>1838.4</ele>
        <time>2022-03-06T12:38:09Z</time>
      </trkpt>
      <trkpt lat="46.2591" lon="6.79353">
        <ele>1838</ele>
        <time>2022-03-06T12:38:10Z</time>
      </trkpt>
      <trkpt lat="46.25909" lon="6.79353">
        <ele>1837.6</ele>
        <time>2022-03-06T12:38:11Z</time>
      </trkpt>
      <trkpt lat="46.25909" lon="6.79353">
        <ele>1837.2</ele>
        <time>2022-03-06T12:38:12Z</time>
      </trkpt>
      <trkpt lat="46.25908" lon="6.79353">
        <ele>1836.6</ele>
        <time>2022-03-06T12:38:13Z</time>
      </trkpt>
      <trkpt lat="46.25907" lon="6.79353">
        <ele>1836.2</ele>
        <time>2022-03-06T12:38:14Z</time>
      </trkpt>
      <trkpt lat="46.25906" lon="6.79353">
        <ele>1835.8</ele>
        <time>2022-03-06T12:38:15Z</time>
      </trkpt>
      <trkpt lat="46.25906" lon="6.79352">
        <ele>1835.4</ele>
        <time>2022-03-06T12:38:16Z</time>
      </trkpt>
      <trkpt lat="46.25905" lon="6.79353">
        <ele>1834.8</ele>
        <time>2022-03-06T12:38:18Z</time>
      </trkpt>
      <trkpt lat="46.25904" lon="6.79353">
        <ele>1834.8</ele>
        <time>2022-03-06T12:38:19Z</time>
      </trkpt>
      <trkpt lat="46.25904" lon="6.79353">
        <ele>1834.4</ele>
        <time>2022-03-06T12:38:20Z</time>
      </trkpt>
      <trkpt lat="46.25902" lon="6.79353">
        <ele>1833</ele>
        <time>2022-03-06T12:38:23Z</time>
      </trkpt>
      <trkpt lat="46.25902" lon="6.79353">
        <ele>1832.4</ele>
        <time>2022-03-06T12:38:24Z</time>
      </trkpt>
      <trkpt lat="46.25901" lon="6.79353">
        <ele>1832</ele>
        <time>2022-03-06T12:38:25Z</time>
      </trkpt>
      <trkpt lat="46.25901" lon="6.79354">
        <ele>1831.6</ele>
        <time>2022-03-06T12:38:26Z</time>
      </trkpt>
      <trkpt lat="46.25899" lon="6.79353">
        <ele>1830.6</ele>
        <time>2022-03-06T12:38:28Z</time>
      </trkpt>
      <trkpt lat="46.25899" lon="6.79353">
        <ele>1830.2</ele>
        <time>2022-03-06T12:38:29Z</time>
      </trkpt>
      <trkpt lat="46.25898" lon="6.79352">
        <ele>1829.8</ele>
        <time>2022-03-06T12:38:30Z</time>
      </trkpt>
      <trkpt lat="46.25898" lon="6.79352">
        <ele>1829.4</ele>
        <time>2022-03-06T12:38:31Z</time>
      </trkpt>
      <trkpt lat="46.25898" lon="6.79351">
        <ele>1829</ele>
        <time>2022-03-06T12:38:32Z</time>
      </trkpt>
      <trkpt lat="46.25897" lon="6.79351">
        <ele>1828.8</ele>
        <time>2022-03-06T12:38:33Z</time>
      </trkpt>
      <trkpt lat="46.25897" lon="6.7935">
        <ele>1828.4</ele>
        <time>2022-03-06T12:38:34Z</time>
      </trkpt>
      <trkpt lat="46.25895" lon="6.79347">
        <ele>1825.8</ele>
        <time>2022-03-06T12:38:42Z</time>
      </trkpt>
      <trkpt lat="46.25891" lon="6.79346">
        <ele>1825.4</ele>
        <time>2022-03-06T12:38:48Z</time>
      </trkpt>
      <trkpt lat="46.25887" lon="6.79344">
        <ele>1825.4</ele>
        <time>2022-03-06T12:38:52Z</time>
      </trkpt>
      <trkpt lat="46.25886" lon="6.79344">
        <ele>1825.4</ele>
        <time>2022-03-06T12:38:54Z</time>
      </trkpt>
      <trkpt lat="46.25885" lon="6.79344">
        <ele>1825.2</ele>
        <time>2022-03-06T12:38:55Z</time>
      </trkpt>
      <trkpt lat="46.25884" lon="6.79343">
        <ele>1824.8</ele>
        <time>2022-03-06T12:38:57Z</time>
      </trkpt>
      <trkpt lat="46.25883" lon="6.79343">
        <ele>1824.6</ele>
        <time>2022-03-06T12:38:58Z</time>
      </trkpt>
      <trkpt lat="46.25882" lon="6.79343">
        <ele>1824.2</ele>
        <time>2022-03-06T12:38:59Z</time>
      </trkpt>
      <trkpt lat="46.25881" lon="6.79342">
        <ele>1824</ele>
        <time>2022-03-06T12:39:00Z</time>
      </trkpt>
      <trkpt lat="46.2588" lon="6.79341">
        <ele>1823</ele>
        <time>2022-03-06T12:39:02Z</time>
      </trkpt>
      <trkpt lat="46.25879" lon="6.7934">
        <ele>1822.6</ele>
        <time>2022-03-06T12:39:03Z</time>
      </trkpt>
      <trkpt lat="46.25878" lon="6.7934">
        <ele>1822.6</ele>
        <time>2022-03-06T12:39:04Z</time>
      </trkpt>
      <trkpt lat="46.25878" lon="6.7934">
        <ele>1822.2</ele>
        <time>2022-03-06T12:39:05Z</time>
      </trkpt>
      <trkpt lat="46.25877" lon="6.7934">
        <ele>1821.6</ele>
        <time>2022-03-06T12:39:06Z</time>
      </trkpt>
      <trkpt lat="46.25876" lon="6.7934">
        <ele>1821.2</ele>
        <time>2022-03-06T12:39:07Z</time>
      </trkpt>
      <trkpt lat="46.25875" lon="6.79339">
        <ele>1820.6</ele>
        <time>2022-03-06T12:39:08Z</time>
      </trkpt>
      <trkpt lat="46.25874" lon="6.79339">
        <ele>1819.6</ele>
        <time>2022-03-06T12:39:10Z</time>
      </trkpt>
      <trkpt lat="46.25874" lon="6.79339">
        <ele>1819.2</ele>
        <time>2022-03-06T12:39:11Z</time>
      </trkpt>
      <trkpt lat="46.25873" lon="6.79339">
        <ele>1818.8</ele>
        <time>2022-03-06T12:39:12Z</time>
      </trkpt>
      <trkpt lat="46.25872" lon="6.79339">
        <ele>1818.2</ele>
        <time>2022-03-06T12:39:13Z</time>
      </trkpt>
      <trkpt lat="46.25872" lon="6.79339">
        <ele>1817.8</ele>
        <time>2022-03-06T12:39:14Z</time>
      </trkpt>
      <trkpt lat="46.25871" lon="6.79339">
        <ele>1817.4</ele>
        <time>2022-03-06T12:39:15Z</time>
      </trkpt>
      <trkpt lat="46.2587" lon="6.7934">
        <ele>1816.8</ele>
        <time>2022-03-06T12:39:16Z</time>
      </trkpt>
      <trkpt lat="46.2587" lon="6.7934">
        <ele>1816.4</ele>
        <time>2022-03-06T12:39:17Z</time>
      </trkpt>
      <trkpt lat="46.25869" lon="6.79339">
        <ele>1816</ele>
        <time>2022-03-06T12:39:18Z</time>
      </trkpt>
      <trkpt lat="46.25869" lon="6.79339">
        <ele>1815.4</ele>
        <time>2022-03-06T12:39:19Z</time>
      </trkpt>
      <trkpt lat="46.25868" lon="6.79339">
        <ele>1814.8</ele>
        <time>2022-03-06T12:39:20Z</time>
      </trkpt>
      <trkpt lat="46.25868" lon="6.79339">
        <ele>1814.2</ele>
        <time>2022-03-06T12:39:21Z</time>
      </trkpt>
      <trkpt lat="46.2587" lon="6.7934">
        <ele>1810.8</ele>
        <time>2022-03-06T12:39:30Z</time>
      </trkpt>
      <trkpt lat="46.25869" lon="6.7934">
        <ele>1810.6</ele>
        <time>2022-03-06T12:39:33Z</time>
      </trkpt>
      <trkpt lat="46.25865" lon="6.79338">
        <ele>1810.2</ele>
        <time>2022-03-06T12:39:43Z</time>
      </trkpt>
      <trkpt lat="46.25864" lon="6.79339">
        <ele>1810.2</ele>
        <time>2022-03-06T12:39:44Z</time>
      </trkpt>
      <trkpt lat="46.25862" lon="6.7934">
        <ele>1810</ele>
        <time>2022-03-06T12:39:46Z</time>
      </trkpt>
      <trkpt lat="46.2586" lon="6.7934">
        <ele>1809.8</ele>
        <time>2022-03-06T12:39:51Z</time>
      </trkpt>
      <trkpt lat="46.2586" lon="6.7934">
        <ele>1809.6</ele>
        <time>2022-03-06T12:39:52Z</time>
      </trkpt>
      <trkpt lat="46.25858" lon="6.7934">
        <ele>1806.6</ele>
        <time>2022-03-06T12:40:06Z</time>
      </trkpt>
      <trkpt lat="46.25856" lon="6.79341">
        <ele>1806.6</ele>
        <time>2022-03-06T12:40:13Z</time>
      </trkpt>
      <trkpt lat="46.25854" lon="6.79342">
        <ele>1806.4</ele>
        <time>2022-03-06T12:40:16Z</time>
      </trkpt>
      <trkpt lat="46.25853" lon="6.79343">
        <ele>1806.6</ele>
        <time>2022-03-06T12:40:18Z</time>
      </trkpt>
      <trkpt lat="46.25853" lon="6.79344">
        <ele>1806.4</ele>
        <time>2022-03-06T12:40:19Z</time>
      </trkpt>
      <trkpt lat="46.25853" lon="6.79344">
        <ele>1806</ele>
        <time>2022-03-06T12:40:20Z</time>
      </trkpt>
      <trkpt lat="46.25852" lon="6.79344">
        <ele>1805.6</ele>
        <time>2022-03-06T12:40:21Z</time>
      </trkpt>
      <trkpt lat="46.25851" lon="6.79344">
        <ele>1805.4</ele>
        <time>2022-03-06T12:40:22Z</time>
      </trkpt>
      <trkpt lat="46.2585" lon="6.79345">
        <ele>1803.4</ele>
        <time>2022-03-06T12:40:27Z</time>
      </trkpt>
      <trkpt lat="46.25847" lon="6.79347">
        <ele>1802.6</ele>
        <time>2022-03-06T12:40:31Z</time>
      </trkpt>
      <trkpt lat="46.25846" lon="6.79349">
        <ele>1802.6</ele>
        <time>2022-03-06T12:40:34Z</time>
      </trkpt>
      <trkpt lat="46.25845" lon="6.79349">
        <ele>1802.4</ele>
        <time>2022-03-06T12:40:35Z</time>
      </trkpt>
      <trkpt lat="46.25843" lon="6.79352">
        <ele>1802.4</ele>
        <time>2022-03-06T12:40:39Z</time>
      </trkpt>
      <trkpt lat="46.2584" lon="6.79354">
        <ele>1802.2</ele>
        <time>2022-03-06T12:40:43Z</time>
      </trkpt>
      <trkpt lat="46.2584" lon="6.79355">
        <ele>1802</ele>
        <time>2022-03-06T12:40:44Z</time>
      </trkpt>
      <trkpt lat="46.25839" lon="6.79355">
        <ele>1801.8</ele>
        <time>2022-03-06T12:40:45Z</time>
      </trkpt>
      <trkpt lat="46.25838" lon="6.79356">
        <ele>1801.6</ele>
        <time>2022-03-06T12:40:46Z</time>
      </trkpt>
      <trkpt lat="46.25837" lon="6.79357">
        <ele>1801.6</ele>
        <time>2022-03-06T12:40:48Z</time>
      </trkpt>
      <trkpt lat="46.25837" lon="6.79358">
        <ele>1801.8</ele>
        <time>2022-03-06T12:40:49Z</time>
      </trkpt>
      <trkpt lat="46.25837" lon="6.79359">
        <ele>1801.6</ele>
        <time>2022-03-06T12:40:50Z</time>
      </trkpt>
      <trkpt lat="46.25836" lon="6.79359">
        <ele>1801.8</ele>
        <time>2022-03-06T12:40:51Z</time>
      </trkpt>
      <trkpt lat="46.25836" lon="6.79359">
        <ele>1801.6</ele>
        <time>2022-03-06T12:40:52Z</time>
      </trkpt>
      <trkpt lat="46.25835" lon="6.79359">
        <ele>1801.8</ele>
        <time>2022-03-06T12:40:53Z</time>
      </trkpt>
      <trkpt lat="46.25834" lon="6.79362">
        <ele>1802</ele>
        <time>2022-03-06T12:40:59Z</time>
      </trkpt>
      <trkpt lat="46.25834" lon="6.79365">
        <ele>1803.4</ele>
        <time>2022-03-06T12:41:06Z</time>
      </trkpt>
      <trkpt lat="46.25834" lon="6.79365">
        <ele>1803.6</ele>
        <time>2022-03-06T12:41:07Z</time>
      </trkpt>
      <trkpt lat="46.25833" lon="6.79368">
        <ele>1804.6</ele>
        <time>2022-03-06T12:41:12Z</time>
      </trkpt>
      <trkpt lat="46.25833" lon="6.79368">
        <ele>1804.6</ele>
        <time>2022-03-06T12:41:13Z</time>
      </trkpt>
      <trkpt lat="46.25833" lon="6.79372">
        <ele>1805.2</ele>
        <time>2022-03-06T12:41:19Z</time>
      </trkpt>
      <trkpt lat="46.25833" lon="6.79373">
        <ele>1805.2</ele>
        <time>2022-03-06T12:41:20Z</time>
      </trkpt>
      <trkpt lat="46.25832" lon="6.79374">
        <ele>1805.6</ele>
        <time>2022-03-06T12:41:21Z</time>
      </trkpt>
      <trkpt lat="46.25832" lon="6.79375">
        <ele>1805.8</ele>
        <time>2022-03-06T12:41:22Z</time>
      </trkpt>
      <trkpt lat="46.25832" lon="6.79375">
        <ele>1806</ele>
        <time>2022-03-06T12:41:23Z</time>
      </trkpt>
      <trkpt lat="46.25831" lon="6.79376">
        <ele>1806.4</ele>
        <time>2022-03-06T12:41:24Z</time>
      </trkpt>
      <trkpt lat="46.25831" lon="6.79378">
        <ele>1806.4</ele>
        <time>2022-03-06T12:41:25Z</time>
      </trkpt>
      <trkpt lat="46.2583" lon="6.79379">
        <ele>1806.4</ele>
        <time>2022-03-06T12:41:26Z</time>
      </trkpt>
      <trkpt lat="46.2583" lon="6.7938">
        <ele>1806.4</ele>
        <time>2022-03-06T12:41:27Z</time>
      </trkpt>
      <trkpt lat="46.2583" lon="6.79381">
        <ele>1806.6</ele>
        <time>2022-03-06T12:41:28Z</time>
      </trkpt>
      <trkpt lat="46.25829" lon="6.79382">
        <ele>1806.8</ele>
        <time>2022-03-06T12:41:29Z</time>
      </trkpt>
      <trkpt lat="46.25829" lon="6.79382">
        <ele>1806.8</ele>
        <time>2022-03-06T12:41:30Z</time>
      </trkpt>
      <trkpt lat="46.25829" lon="6.79383">
        <ele>1807</ele>
        <time>2022-03-06T12:41:31Z</time>
      </trkpt>
      <trkpt lat="46.25828" lon="6.79383">
        <ele>1806.8</ele>
        <time>2022-03-06T12:41:32Z</time>
      </trkpt>
      <trkpt lat="46.25826" lon="6.79388">
        <ele>1807</ele>
        <time>2022-03-06T12:41:45Z</time>
      </trkpt>
      <trkpt lat="46.25824" lon="6.7939">
        <ele>1807</ele>
        <time>2022-03-06T12:41:50Z</time>
      </trkpt>
      <trkpt lat="46.25823" lon="6.79392">
        <ele>1806</ele>
        <time>2022-03-06T12:41:58Z</time>
      </trkpt>
      <trkpt lat="46.2582" lon="6.79394">
        <ele>1805</ele>
        <time>2022-03-06T12:42:05Z</time>
      </trkpt>
      <trkpt lat="46.2582" lon="6.79396">
        <ele>1804.8</ele>
        <time>2022-03-06T12:42:13Z</time>
      </trkpt>
      <trkpt lat="46.2582" lon="6.79398">
        <ele>1804</ele>
        <time>2022-03-06T12:42:18Z</time>
      </trkpt>
      <trkpt lat="46.2582" lon="6.79403">
        <ele>1803.4</ele>
        <time>2022-03-06T12:42:23Z</time>
      </trkpt>
      <trkpt lat="46.2582" lon="6.79404">
        <ele>1803.4</ele>
        <time>2022-03-06T12:42:24Z</time>
      </trkpt>
      <trkpt lat="46.25819" lon="6.79405">
        <ele>1803.4</ele>
        <time>2022-03-06T12:42:25Z</time>
      </trkpt>
      <trkpt lat="46.25819" lon="6.79406">
        <ele>1803.4</ele>
        <time>2022-03-06T12:42:26Z</time>
      </trkpt>
      <trkpt lat="46.25818" lon="6.79407">
        <ele>1803.2</ele>
        <time>2022-03-06T12:42:27Z</time>
      </trkpt>
      <trkpt lat="46.25817" lon="6.79408">
        <ele>1803.4</ele>
        <time>2022-03-06T12:42:28Z</time>
      </trkpt>
      <trkpt lat="46.25816" lon="6.79408">
        <ele>1803.2</ele>
        <time>2022-03-06T12:42:29Z</time>
      </trkpt>
      <trkpt lat="46.25816" lon="6.79409">
        <ele>1803.2</ele>
        <time>2022-03-06T12:42:30Z</time>
      </trkpt>
      <trkpt lat="46.25815" lon="6.7941">
        <ele>1803</ele>
        <time>2022-03-06T12:42:31Z</time>
      </trkpt>
      <trkpt lat="46.25815" lon="6.7941">
        <ele>1803.2</ele>
        <time>2022-03-06T12:42:32Z</time>
      </trkpt>
      <trkpt lat="46.25815" lon="6.79411">
        <ele>1803.2</ele>
        <time>2022-03-06T12:42:33Z</time>
      </trkpt>
      <trkpt lat="46.25814" lon="6.79412">
        <ele>1803</ele>
        <time>2022-03-06T12:42:34Z</time>
      </trkpt>
      <trkpt lat="46.25814" lon="6.79413">
        <ele>1803</ele>
        <time>2022-03-06T12:42:35Z</time>
      </trkpt>
      <trkpt lat="46.25813" lon="6.79413">
        <ele>1802.8</ele>
        <time>2022-03-06T12:42:36Z</time>
      </trkpt>
      <trkpt lat="46.25813" lon="6.79414">
        <ele>1802.6</ele>
        <time>2022-03-06T12:42:37Z</time>
      </trkpt>
      <trkpt lat="46.25813" lon="6.79415">
        <ele>1802.6</ele>
        <time>2022-03-06T12:42:38Z</time>
      </trkpt>
      <trkpt lat="46.25813" lon="6.79415">
        <ele>1802.4</ele>
        <time>2022-03-06T12:42:39Z</time>
      </trkpt>
      <trkpt lat="46.25813" lon="6.79416">
        <ele>1802.2</ele>
        <time>2022-03-06T12:42:40Z</time>
      </trkpt>
      <trkpt lat="46.25813" lon="6.79417">
        <ele>1802</ele>
        <time>2022-03-06T12:42:41Z</time>
      </trkpt>
      <trkpt lat="46.25812" lon="6.79418">
        <ele>1801.8</ele>
        <time>2022-03-06T12:42:42Z</time>
      </trkpt>
      <trkpt lat="46.25813" lon="6.79418">
        <ele>1801.4</ele>
        <time>2022-03-06T12:42:43Z</time>
      </trkpt>
      <trkpt lat="46.25812" lon="6.79419">
        <ele>1801</ele>
        <time>2022-03-06T12:42:44Z</time>
      </trkpt>
      <trkpt lat="46.25812" lon="6.7942">
        <ele>1800.8</ele>
        <time>2022-03-06T12:42:45Z</time>
      </trkpt>
      <trkpt lat="46.25812" lon="6.79421">
        <ele>1800.6</ele>
        <time>2022-03-06T12:42:46Z</time>
      </trkpt>
      <trkpt lat="46.25811" lon="6.79423">
        <ele>1800.2</ele>
        <time>2022-03-06T12:42:49Z</time>
      </trkpt>
      <trkpt lat="46.25811" lon="6.79423">
        <ele>1800</ele>
        <time>2022-03-06T12:42:51Z</time>
      </trkpt>
      <trkpt lat="46.25809" lon="6.79427">
        <ele>1799.8</ele>
        <time>2022-03-06T12:42:53Z</time>
      </trkpt>
      <trkpt lat="46.25808" lon="6.79427">
        <ele>1799.8</ele>
        <time>2022-03-06T12:42:54Z</time>
      </trkpt>
      <trkpt lat="46.25806" lon="6.79429">
        <ele>1799</ele>
        <time>2022-03-06T12:42:57Z</time>
      </trkpt>
      <trkpt lat="46.25806" lon="6.79429">
        <ele>1798.6</ele>
        <time>2022-03-06T12:42:58Z</time>
      </trkpt>
      <trkpt lat="46.25805" lon="6.7943">
        <ele>1798.6</ele>
        <time>2022-03-06T12:42:59Z</time>
      </trkpt>
      <trkpt lat="46.25805" lon="6.79431">
        <ele>1798.2</ele>
        <time>2022-03-06T12:43:00Z</time>
      </trkpt>
      <trkpt lat="46.25805" lon="6.79431">
        <ele>1798</ele>
        <time>2022-03-06T12:43:01Z</time>
      </trkpt>
      <trkpt lat="46.25804" lon="6.79431">
        <ele>1797.4</ele>
        <time>2022-03-06T12:43:02Z</time>
      </trkpt>
      <trkpt lat="46.25804" lon="6.79432">
        <ele>1797.2</ele>
        <time>2022-03-06T12:43:03Z</time>
      </trkpt>
      <trkpt lat="46.25803" lon="6.79434">
        <ele>1796.2</ele>
        <time>2022-03-06T12:43:06Z</time>
      </trkpt>
      <trkpt lat="46.25802" lon="6.79435">
        <ele>1795.8</ele>
        <time>2022-03-06T12:43:07Z</time>
      </trkpt>
      <trkpt lat="46.25802" lon="6.79436">
        <ele>1795.6</ele>
        <time>2022-03-06T12:43:08Z</time>
      </trkpt>
      <trkpt lat="46.25802" lon="6.79437">
        <ele>1795.6</ele>
        <time>2022-03-06T12:43:09Z</time>
      </trkpt>
      <trkpt lat="46.25801" lon="6.7944">
        <ele>1794.6</ele>
        <time>2022-03-06T12:43:12Z</time>
      </trkpt>
      <trkpt lat="46.25801" lon="6.7944">
        <ele>1794.4</ele>
        <time>2022-03-06T12:43:13Z</time>
      </trkpt>
      <trkpt lat="46.25801" lon="6.79441">
        <ele>1794.4</ele>
        <time>2022-03-06T12:43:14Z</time>
      </trkpt>
      <trkpt lat="46.25801" lon="6.79442">
        <ele>1794</ele>
        <time>2022-03-06T12:43:15Z</time>
      </trkpt>
      <trkpt lat="46.258" lon="6.79443">
        <ele>1793.8</ele>
        <time>2022-03-06T12:43:16Z</time>
      </trkpt>
      <trkpt lat="46.258" lon="6.79444">
        <ele>1793.6</ele>
        <time>2022-03-06T12:43:17Z</time>
      </trkpt>
      <trkpt lat="46.258" lon="6.79444">
        <ele>1793.4</ele>
        <time>2022-03-06T12:43:18Z</time>
      </trkpt>
      <trkpt lat="46.258" lon="6.79445">
        <ele>1793.2</ele>
        <time>2022-03-06T12:43:19Z</time>
      </trkpt>
      <trkpt lat="46.258" lon="6.79446">
        <ele>1792.8</ele>
        <time>2022-03-06T12:43:20Z</time>
      </trkpt>
      <trkpt lat="46.258" lon="6.79447">
        <ele>1792.6</ele>
        <time>2022-03-06T12:43:21Z</time>
      </trkpt>
      <trkpt lat="46.25799" lon="6.79449">
        <ele>1792</ele>
        <time>2022-03-06T12:43:24Z</time>
      </trkpt>
      <trkpt lat="46.25799" lon="6.7945">
        <ele>1791.8</ele>
        <time>2022-03-06T12:43:25Z</time>
      </trkpt>
      <trkpt lat="46.25799" lon="6.7945">
        <ele>1791.8</ele>
        <time>2022-03-06T12:43:26Z</time>
      </trkpt>
      <trkpt lat="46.25799" lon="6.79454">
        <ele>1791</ele>
        <time>2022-03-06T12:43:31Z</time>
      </trkpt>
      <trkpt lat="46.25799" lon="6.79455">
        <ele>1791</ele>
        <time>2022-03-06T12:43:32Z</time>
      </trkpt>
      <trkpt lat="46.25798" lon="6.7946">
        <ele>1789.6</ele>
        <time>2022-03-06T12:43:36Z</time>
      </trkpt>
      <trkpt lat="46.25797" lon="6.79465">
        <ele>1789.2</ele>
        <time>2022-03-06T12:43:40Z</time>
      </trkpt>
      <trkpt lat="46.25796" lon="6.79465">
        <ele>1788.8</ele>
        <time>2022-03-06T12:43:41Z</time>
      </trkpt>
      <trkpt lat="46.25796" lon="6.79468">
        <ele>1788</ele>
        <time>2022-03-06T12:43:44Z</time>
      </trkpt>
      <trkpt lat="46.25796" lon="6.79469">
        <ele>1787.6</ele>
        <time>2022-03-06T12:43:45Z</time>
      </trkpt>
      <trkpt lat="46.25795" lon="6.7947">
        <ele>1787.4</ele>
        <time>2022-03-06T12:43:46Z</time>
      </trkpt>
      <trkpt lat="46.25794" lon="6.79472">
        <ele>1786.4</ele>
        <time>2022-03-06T12:43:49Z</time>
      </trkpt>
      <trkpt lat="46.25794" lon="6.79475">
        <ele>1785.8</ele>
        <time>2022-03-06T12:43:53Z</time>
      </trkpt>
      <trkpt lat="46.25795" lon="6.79478">
        <ele>1785.2</ele>
        <time>2022-03-06T12:43:58Z</time>
      </trkpt>
      <trkpt lat="46.25796" lon="6.7948">
        <ele>1784.8</ele>
        <time>2022-03-06T12:44:00Z</time>
      </trkpt>
      <trkpt lat="46.25795" lon="6.79482">
        <ele>1784.4</ele>
        <time>2022-03-06T12:44:02Z</time>
      </trkpt>
      <trkpt lat="46.25795" lon="6.79483">
        <ele>1784.2</ele>
        <time>2022-03-06T12:44:03Z</time>
      </trkpt>
      <trkpt lat="46.25795" lon="6.79484">
        <ele>1784.2</ele>
        <time>2022-03-06T12:44:04Z</time>
      </trkpt>
      <trkpt lat="46.25795" lon="6.79487">
        <ele>1784.2</ele>
        <time>2022-03-06T12:44:05Z</time>
      </trkpt>
      <trkpt lat="46.25794" lon="6.79489">
        <ele>1784</ele>
        <time>2022-03-06T12:44:07Z</time>
      </trkpt>
      <trkpt lat="46.25793" lon="6.79491">
        <ele>1784</ele>
        <time>2022-03-06T12:44:08Z</time>
      </trkpt>
      <trkpt lat="46.25792" lon="6.79492">
        <ele>1783.8</ele>
        <time>2022-03-06T12:44:09Z</time>
      </trkpt>
      <trkpt lat="46.25791" lon="6.79493">
        <ele>1783.8</ele>
        <time>2022-03-06T12:44:10Z</time>
      </trkpt>
      <trkpt lat="46.25789" lon="6.79497">
        <ele>1783.4</ele>
        <time>2022-03-06T12:44:13Z</time>
      </trkpt>
      <trkpt lat="46.25787" lon="6.79498">
        <ele>1783.2</ele>
        <time>2022-03-06T12:44:14Z</time>
      </trkpt>
      <trkpt lat="46.25786" lon="6.79499">
        <ele>1783.2</ele>
        <time>2022-03-06T12:44:15Z</time>
      </trkpt>
      <trkpt lat="46.25786" lon="6.795">
        <ele>1783.2</ele>
        <time>2022-03-06T12:44:16Z</time>
      </trkpt>
      <trkpt lat="46.25785" lon="6.79501">
        <ele>1782.8</ele>
        <time>2022-03-06T12:44:17Z</time>
      </trkpt>
      <trkpt lat="46.25784" lon="6.79501">
        <ele>1782.6</ele>
        <time>2022-03-06T12:44:18Z</time>
      </trkpt>
      <trkpt lat="46.25783" lon="6.79502">
        <ele>1782</ele>
        <time>2022-03-06T12:44:19Z</time>
      </trkpt>
      <trkpt lat="46.25783" lon="6.79503">
        <ele>1781.8</ele>
        <time>2022-03-06T12:44:20Z</time>
      </trkpt>
      <trkpt lat="46.25782" lon="6.79504">
        <ele>1781.8</ele>
        <time>2022-03-06T12:44:21Z</time>
      </trkpt>
      <trkpt lat="46.2578" lon="6.79505">
        <ele>1781.8</ele>
        <time>2022-03-06T12:44:22Z</time>
      </trkpt>
      <trkpt lat="46.25777" lon="6.79506">
        <ele>1781</ele>
        <time>2022-03-06T12:44:26Z</time>
      </trkpt>
      <trkpt lat="46.25776" lon="6.79506">
        <ele>1780</ele>
        <time>2022-03-06T12:44:35Z</time>
      </trkpt>
      <trkpt lat="46.25777" lon="6.79507">
        <ele>1780</ele>
        <time>2022-03-06T12:44:49Z</time>
      </trkpt>
      <trkpt lat="46.25776" lon="6.79509">
        <ele>1780</ele>
        <time>2022-03-06T12:45:00Z</time>
      </trkpt>
      <trkpt lat="46.25776" lon="6.79508">
        <ele>1780</ele>
        <time>2022-03-06T12:45:09Z</time>
      </trkpt>
      <trkpt lat="46.25776" lon="6.79509">
        <ele>1780</ele>
        <time>2022-03-06T12:45:22Z</time>
      </trkpt>
      <trkpt lat="46.25777" lon="6.79509">
        <ele>1780</ele>
        <time>2022-03-06T12:45:33Z</time>
      </trkpt>
      <trkpt lat="46.25776" lon="6.79509">
        <ele>1779.6</ele>
        <time>2022-03-06T12:45:47Z</time>
      </trkpt>
      <trkpt lat="46.25776" lon="6.79509">
        <ele>1779.6</ele>
        <time>2022-03-06T12:45:50Z</time>
      </trkpt>
      <trkpt lat="46.25776" lon="6.79509">
        <ele>1779.8</ele>
        <time>2022-03-06T12:45:57Z</time>
      </trkpt>
      <trkpt lat="46.25776" lon="6.79509">
        <ele>1779.8</ele>
        <time>2022-03-06T12:46:08Z</time>
      </trkpt>
      <trkpt lat="46.25776" lon="6.79508">
        <ele>1779.6</ele>
        <time>2022-03-06T12:46:21Z</time>
      </trkpt>
      <trkpt lat="46.25777" lon="6.79508">
        <ele>1779.8</ele>
        <time>2022-03-06T12:46:38Z</time>
      </trkpt>
      <trkpt lat="46.25776" lon="6.79503">
        <ele>1779.6</ele>
        <time>2022-03-06T12:46:45Z</time>
      </trkpt>
      <trkpt lat="46.25775" lon="6.79498">
        <ele>1778.8</ele>
        <time>2022-03-06T12:46:50Z</time>
      </trkpt>
      <trkpt lat="46.25775" lon="6.79497">
        <ele>1778.8</ele>
        <time>2022-03-06T12:46:51Z</time>
      </trkpt>
      <trkpt lat="46.25773" lon="6.79491">
        <ele>1778</ele>
        <time>2022-03-06T12:46:57Z</time>
      </trkpt>
      <trkpt lat="46.25772" lon="6.79489">
        <ele>1777.8</ele>
        <time>2022-03-06T12:46:58Z</time>
      </trkpt>
      <trkpt lat="46.25771" lon="6.79488">
        <ele>1777.4</ele>
        <time>2022-03-06T12:46:59Z</time>
      </trkpt>
      <trkpt lat="46.2577" lon="6.79488">
        <ele>1777.2</ele>
        <time>2022-03-06T12:47:00Z</time>
      </trkpt>
      <trkpt lat="46.25769" lon="6.79487">
        <ele>1777</ele>
        <time>2022-03-06T12:47:01Z</time>
      </trkpt>
      <trkpt lat="46.25768" lon="6.79487">
        <ele>1776.8</ele>
        <time>2022-03-06T12:47:02Z</time>
      </trkpt>
      <trkpt lat="46.25768" lon="6.79487">
        <ele>1776.6</ele>
        <time>2022-03-06T12:47:03Z</time>
      </trkpt>
      <trkpt lat="46.25766" lon="6.79487">
        <ele>1776</ele>
        <time>2022-03-06T12:47:06Z</time>
      </trkpt>
      <trkpt lat="46.25766" lon="6.79485">
        <ele>1775.6</ele>
        <time>2022-03-06T12:47:08Z</time>
      </trkpt>
      <trkpt lat="46.25765" lon="6.79485">
        <ele>1775.6</ele>
        <time>2022-03-06T12:47:09Z</time>
      </trkpt>
      <trkpt lat="46.25765" lon="6.79484">
        <ele>1775.4</ele>
        <time>2022-03-06T12:47:10Z</time>
      </trkpt>
      <trkpt lat="46.25765" lon="6.79483">
        <ele>1775.2</ele>
        <time>2022-03-06T12:47:11Z</time>
      </trkpt>
      <trkpt lat="46.25764" lon="6.79482">
        <ele>1775.2</ele>
        <time>2022-03-06T12:47:12Z</time>
      </trkpt>
      <trkpt lat="46.25762" lon="6.79479">
        <ele>1775</ele>
        <time>2022-03-06T12:47:17Z</time>
      </trkpt>
      <trkpt lat="46.25761" lon="6.79478">
        <ele>1774.8</ele>
        <time>2022-03-06T12:47:18Z</time>
      </trkpt>
      <trkpt lat="46.25761" lon="6.79477">
        <ele>1774.8</ele>
        <time>2022-03-06T12:47:19Z</time>
      </trkpt>
      <trkpt lat="46.2576" lon="6.79477">
        <ele>1774.4</ele>
        <time>2022-03-06T12:47:21Z</time>
      </trkpt>
      <trkpt lat="46.2576" lon="6.79477">
        <ele>1774.4</ele>
        <time>2022-03-06T12:47:22Z</time>
      </trkpt>
      <trkpt lat="46.2576" lon="6.79476">
        <ele>1774</ele>
        <time>2022-03-06T12:47:23Z</time>
      </trkpt>
      <trkpt lat="46.2576" lon="6.79473">
        <ele>1773.2</ele>
        <time>2022-03-06T12:47:30Z</time>
      </trkpt>
      <trkpt lat="46.25758" lon="6.79469">
        <ele>1772.8</ele>
        <time>2022-03-06T12:47:34Z</time>
      </trkpt>
      <trkpt lat="46.25758" lon="6.79467">
        <ele>1772.8</ele>
        <time>2022-03-06T12:47:36Z</time>
      </trkpt>
      <trkpt lat="46.25757" lon="6.79466">
        <ele>1772.4</ele>
        <time>2022-03-06T12:47:37Z</time>
      </trkpt>
      <trkpt lat="46.25756" lon="6.79461">
        <ele>1771.6</ele>
        <time>2022-03-06T12:47:41Z</time>
      </trkpt>
      <trkpt lat="46.25753" lon="6.79458">
        <ele>1771</ele>
        <time>2022-03-06T12:47:45Z</time>
      </trkpt>
      <trkpt lat="46.25752" lon="6.79456">
        <ele>1770.8</ele>
        <time>2022-03-06T12:47:46Z</time>
      </trkpt>
      <trkpt lat="46.25745" lon="6.79451">
        <ele>1769.4</ele>
        <time>2022-03-06T12:47:51Z</time>
      </trkpt>
      <trkpt lat="46.25744" lon="6.79451">
        <ele>1769.2</ele>
        <time>2022-03-06T12:47:52Z</time>
      </trkpt>
      <trkpt lat="46.25743" lon="6.79451">
        <ele>1769</ele>
        <time>2022-03-06T12:47:53Z</time>
      </trkpt>
      <trkpt lat="46.25742" lon="6.7945">
        <ele>1768.8</ele>
        <time>2022-03-06T12:47:54Z</time>
      </trkpt>
      <trkpt lat="46.25739" lon="6.7945">
        <ele>1768</ele>
        <time>2022-03-06T12:47:57Z</time>
      </trkpt>
      <trkpt lat="46.25738" lon="6.7945">
        <ele>1767.6</ele>
        <time>2022-03-06T12:47:58Z</time>
      </trkpt>
      <trkpt lat="46.25735" lon="6.79451">
        <ele>1767.4</ele>
        <time>2022-03-06T12:48:03Z</time>
      </trkpt>
      <trkpt lat="46.25735" lon="6.79451">
        <ele>1767.2</ele>
        <time>2022-03-06T12:48:04Z</time>
      </trkpt>
      <trkpt lat="46.25734" lon="6.79451">
        <ele>1767.2</ele>
        <time>2022-03-06T12:48:05Z</time>
      </trkpt>
      <trkpt lat="46.25733" lon="6.79451">
        <ele>1767</ele>
        <time>2022-03-06T12:48:06Z</time>
      </trkpt>
      <trkpt lat="46.25732" lon="6.79452">
        <ele>1766.8</ele>
        <time>2022-03-06T12:48:07Z</time>
      </trkpt>
      <trkpt lat="46.25727" lon="6.79455">
        <ele>1766</ele>
        <time>2022-03-06T12:48:14Z</time>
      </trkpt>
      <trkpt lat="46.25727" lon="6.79457">
        <ele>1765.8</ele>
        <time>2022-03-06T12:48:15Z</time>
      </trkpt>
      <trkpt lat="46.25726" lon="6.79458">
        <ele>1765.8</ele>
        <time>2022-03-06T12:48:16Z</time>
      </trkpt>
      <trkpt lat="46.25726" lon="6.79459">
        <ele>1765.6</ele>
        <time>2022-03-06T12:48:17Z</time>
      </trkpt>
      <trkpt lat="46.25725" lon="6.79461">
        <ele>1765.6</ele>
        <time>2022-03-06T12:48:18Z</time>
      </trkpt>
      <trkpt lat="46.25724" lon="6.79461">
        <ele>1765.4</ele>
        <time>2022-03-06T12:48:19Z</time>
      </trkpt>
      <trkpt lat="46.25724" lon="6.79461">
        <ele>1765.4</ele>
        <time>2022-03-06T12:48:20Z</time>
      </trkpt>
      <trkpt lat="46.25723" lon="6.7946">
        <ele>1765.2</ele>
        <time>2022-03-06T12:48:21Z</time>
      </trkpt>
      <trkpt lat="46.25723" lon="6.7946">
        <ele>1765.2</ele>
        <time>2022-03-06T12:48:22Z</time>
      </trkpt>
      <trkpt lat="46.25721" lon="6.79459">
        <ele>1764.8</ele>
        <time>2022-03-06T12:48:29Z</time>
      </trkpt>
      <trkpt lat="46.25724" lon="6.79454">
        <ele>1764.4</ele>
        <time>2022-03-06T12:48:37Z</time>
      </trkpt>
      <trkpt lat="46.25724" lon="6.79453">
        <ele>1763.8</ele>
        <time>2022-03-06T12:48:38Z</time>
      </trkpt>
      <trkpt lat="46.25726" lon="6.79453">
        <ele>1763.4</ele>
        <time>2022-03-06T12:48:40Z</time>
      </trkpt>
      <trkpt lat="46.25726" lon="6.79452">
        <ele>1763.2</ele>
        <time>2022-03-06T12:48:41Z</time>
      </trkpt>
      <trkpt lat="46.25726" lon="6.79452">
        <ele>1763</ele>
        <time>2022-03-06T12:48:42Z</time>
      </trkpt>
      <trkpt lat="46.25726" lon="6.79451">
        <ele>1762.8</ele>
        <time>2022-03-06T12:48:43Z</time>
      </trkpt>
      <trkpt lat="46.25726" lon="6.79451">
        <ele>1762.8</ele>
        <time>2022-03-06T12:48:44Z</time>
      </trkpt>
      <trkpt lat="46.25727" lon="6.7945">
        <ele>1762.8</ele>
        <time>2022-03-06T12:48:45Z</time>
      </trkpt>
      <trkpt lat="46.25727" lon="6.79449">
        <ele>1762.6</ele>
        <time>2022-03-06T12:48:46Z</time>
      </trkpt>
      <trkpt lat="46.25729" lon="6.79449">
        <ele>1762.4</ele>
        <time>2022-03-06T12:48:47Z</time>
      </trkpt>
      <trkpt lat="46.2573" lon="6.79449">
        <ele>1762.2</ele>
        <time>2022-03-06T12:48:48Z</time>
      </trkpt>
      <trkpt lat="46.25731" lon="6.79448">
        <ele>1762</ele>
        <time>2022-03-06T12:48:49Z</time>
      </trkpt>
      <trkpt lat="46.25731" lon="6.79447">
        <ele>1761.8</ele>
        <time>2022-03-06T12:48:50Z</time>
      </trkpt>
      <trkpt lat="46.25732" lon="6.79447">
        <ele>1761.6</ele>
        <time>2022-03-06T12:48:51Z</time>
      </trkpt>
      <trkpt lat="46.25734" lon="6.79444">
        <ele>1761</ele>
        <time>2022-03-06T12:48:54Z</time>
      </trkpt>
      <trkpt lat="46.25735" lon="6.79444">
        <ele>1760.6</ele>
        <time>2022-03-06T12:48:56Z</time>
      </trkpt>
      <trkpt lat="46.25734" lon="6.79441">
        <ele>1760.2</ele>
        <time>2022-03-06T12:48:57Z</time>
      </trkpt>
      <trkpt lat="46.25734" lon="6.79441">
        <ele>1760</ele>
        <time>2022-03-06T12:48:58Z</time>
      </trkpt>
      <trkpt lat="46.25734" lon="6.79439">
        <ele>1759.6</ele>
        <time>2022-03-06T12:48:59Z</time>
      </trkpt>
      <trkpt lat="46.25734" lon="6.79437">
        <ele>1759</ele>
        <time>2022-03-06T12:49:00Z</time>
      </trkpt>
      <trkpt lat="46.25733" lon="6.79437">
        <ele>1758.6</ele>
        <time>2022-03-06T12:49:01Z</time>
      </trkpt>
      <trkpt lat="46.25733" lon="6.79436">
        <ele>1758.2</ele>
        <time>2022-03-06T12:49:02Z</time>
      </trkpt>
      <trkpt lat="46.25733" lon="6.79434">
        <ele>1757.8</ele>
        <time>2022-03-06T12:49:03Z</time>
      </trkpt>
      <trkpt lat="46.25733" lon="6.79432">
        <ele>1757.6</ele>
        <time>2022-03-06T12:49:04Z</time>
      </trkpt>
      <trkpt lat="46.25734" lon="6.79427">
        <ele>1756.4</ele>
        <time>2022-03-06T12:49:07Z</time>
      </trkpt>
      <trkpt lat="46.25735" lon="6.79427">
        <ele>1756.4</ele>
        <time>2022-03-06T12:49:08Z</time>
      </trkpt>
      <trkpt lat="46.25737" lon="6.79427">
        <ele>1755.8</ele>
        <time>2022-03-06T12:49:09Z</time>
      </trkpt>
      <trkpt lat="46.25736" lon="6.79425">
        <ele>1755.4</ele>
        <time>2022-03-06T12:49:10Z</time>
      </trkpt>
      <trkpt lat="46.25736" lon="6.79425">
        <ele>1755.4</ele>
        <time>2022-03-06T12:49:11Z</time>
      </trkpt>
      <trkpt lat="46.25735" lon="6.79425">
        <ele>1754.8</ele>
        <time>2022-03-06T12:49:12Z</time>
      </trkpt>
      <trkpt lat="46.25735" lon="6.79423">
        <ele>1754.6</ele>
        <time>2022-03-06T12:49:13Z</time>
      </trkpt>
      <trkpt lat="46.25731" lon="6.79418">
        <ele>1753.2</ele>
        <time>2022-03-06T12:49:17Z</time>
      </trkpt>
      <trkpt lat="46.2573" lon="6.79419">
        <ele>1752.8</ele>
        <time>2022-03-06T12:49:18Z</time>
      </trkpt>
      <trkpt lat="46.25729" lon="6.79418">
        <ele>1752.6</ele>
        <time>2022-03-06T12:49:19Z</time>
      </trkpt>
      <trkpt lat="46.25728" lon="6.79417">
        <ele>1752.4</ele>
        <time>2022-03-06T12:49:20Z</time>
      </trkpt>
      <trkpt lat="46.25724" lon="6.79415">
        <ele>1751.2</ele>
        <time>2022-03-06T12:49:25Z</time>
      </trkpt>
      <trkpt lat="46.25724" lon="6.79415">
        <ele>1750.8</ele>
        <time>2022-03-06T12:49:26Z</time>
      </trkpt>
      <trkpt lat="46.25717" lon="6.79413">
        <ele>1749.8</ele>
        <time>2022-03-06T12:49:33Z</time>
      </trkpt>
      <trkpt lat="46.25716" lon="6.79414">
        <ele>1749.6</ele>
        <time>2022-03-06T12:49:35Z</time>
      </trkpt>
      <trkpt lat="46.25715" lon="6.79415">
        <ele>1749.4</ele>
        <time>2022-03-06T12:49:36Z</time>
      </trkpt>
      <trkpt lat="46.25713" lon="6.79417">
        <ele>1749</ele>
        <time>2022-03-06T12:49:38Z</time>
      </trkpt>
      <trkpt lat="46.25712" lon="6.79417">
        <ele>1748.6</ele>
        <time>2022-03-06T12:49:39Z</time>
      </trkpt>
      <trkpt lat="46.25711" lon="6.79416">
        <ele>1748.4</ele>
        <time>2022-03-06T12:49:40Z</time>
      </trkpt>
      <trkpt lat="46.2571" lon="6.79416">
        <ele>1748.2</ele>
        <time>2022-03-06T12:49:41Z</time>
      </trkpt>
      <trkpt lat="46.25709" lon="6.79416">
        <ele>1748</ele>
        <time>2022-03-06T12:49:42Z</time>
      </trkpt>
      <trkpt lat="46.25709" lon="6.79415">
        <ele>1747.8</ele>
        <time>2022-03-06T12:49:43Z</time>
      </trkpt>
      <trkpt lat="46.25708" lon="6.79415">
        <ele>1747.6</ele>
        <time>2022-03-06T12:49:44Z</time>
      </trkpt>
      <trkpt lat="46.25707" lon="6.79414">
        <ele>1747.2</ele>
        <time>2022-03-06T12:49:45Z</time>
      </trkpt>
      <trkpt lat="46.25706" lon="6.79412">
        <ele>1746</ele>
        <time>2022-03-06T12:49:47Z</time>
      </trkpt>
      <trkpt lat="46.25705" lon="6.79411">
        <ele>1745.4</ele>
        <time>2022-03-06T12:49:48Z</time>
      </trkpt>
      <trkpt lat="46.25706" lon="6.79414">
        <ele>1743.2</ele>
        <time>2022-03-06T12:49:53Z</time>
      </trkpt>
      <trkpt lat="46.25711" lon="6.79414">
        <ele>1741</ele>
        <time>2022-03-06T12:50:00Z</time>
      </trkpt>
      <trkpt lat="46.25712" lon="6.79414">
        <ele>1741</ele>
        <time>2022-03-06T12:50:02Z</time>
      </trkpt>
      <trkpt lat="46.25719" lon="6.79414">
        <ele>1739.6</ele>
        <time>2022-03-06T12:50:13Z</time>
      </trkpt>
      <trkpt lat="46.2572" lon="6.7941">
        <ele>1739.4</ele>
        <time>2022-03-06T12:50:20Z</time>
      </trkpt>
      <trkpt lat="46.2572" lon="6.79407">
        <ele>1739.2</ele>
        <time>2022-03-06T12:50:25Z</time>
      </trkpt>
      <trkpt lat="46.2572" lon="6.79406">
        <ele>1739.2</ele>
        <time>2022-03-06T12:50:26Z</time>
      </trkpt>
      <trkpt lat="46.2572" lon="6.79404">
        <ele>1738.8</ele>
        <time>2022-03-06T12:50:29Z</time>
      </trkpt>
      <trkpt lat="46.25718" lon="6.79398">
        <ele>1737.4</ele>
        <time>2022-03-06T12:50:34Z</time>
      </trkpt>
      <trkpt lat="46.25716" lon="6.79396">
        <ele>1736.8</ele>
        <time>2022-03-06T12:50:37Z</time>
      </trkpt>
      <trkpt lat="46.25714" lon="6.79394">
        <ele>1735.6</ele>
        <time>2022-03-06T12:50:44Z</time>
      </trkpt>
      <trkpt lat="46.25713" lon="6.79393">
        <ele>1735.8</ele>
        <time>2022-03-06T12:50:47Z</time>
      </trkpt>
      <trkpt lat="46.25712" lon="6.79392">
        <ele>1735.6</ele>
        <time>2022-03-06T12:50:49Z</time>
      </trkpt>
      <trkpt lat="46.25711" lon="6.79391">
        <ele>1735.4</ele>
        <time>2022-03-06T12:50:50Z</time>
      </trkpt>
      <trkpt lat="46.2571" lon="6.79389">
        <ele>1735.4</ele>
        <time>2022-03-06T12:50:51Z</time>
      </trkpt>
      <trkpt lat="46.25708" lon="6.79387">
        <ele>1735.6</ele>
        <time>2022-03-06T12:50:52Z</time>
      </trkpt>
      <trkpt lat="46.25706" lon="6.79386">
        <ele>1735.6</ele>
        <time>2022-03-06T12:50:53Z</time>
      </trkpt>
      <trkpt lat="46.25705" lon="6.79384">
        <ele>1735.4</ele>
        <time>2022-03-06T12:50:54Z</time>
      </trkpt>
      <trkpt lat="46.25703" lon="6.79383">
        <ele>1735.4</ele>
        <time>2022-03-06T12:50:55Z</time>
      </trkpt>
      <trkpt lat="46.25701" lon="6.7938">
        <ele>1734.2</ele>
        <time>2022-03-06T12:50:57Z</time>
      </trkpt>
      <trkpt lat="46.25699" lon="6.79377">
        <ele>1733.2</ele>
        <time>2022-03-06T12:50:59Z</time>
      </trkpt>
      <trkpt lat="46.25698" lon="6.79375">
        <ele>1731.8</ele>
        <time>2022-03-06T12:51:00Z</time>
      </trkpt>
      <trkpt lat="46.25695" lon="6.79373">
        <ele>1726.4</ele>
        <time>2022-03-06T12:51:03Z</time>
      </trkpt>
      <trkpt lat="46.25694" lon="6.79373">
        <ele>1725</ele>
        <time>2022-03-06T12:51:04Z</time>
      </trkpt>
      <trkpt lat="46.25693" lon="6.79373">
        <ele>1723.4</ele>
        <time>2022-03-06T12:51:05Z</time>
      </trkpt>
      <trkpt lat="46.25692" lon="6.79373">
        <ele>1722.2</ele>
        <time>2022-03-06T12:51:06Z</time>
      </trkpt>
      <trkpt lat="46.25692" lon="6.79373">
        <ele>1721.2</ele>
        <time>2022-03-06T12:51:07Z</time>
      </trkpt>
      <trkpt lat="46.25691" lon="6.79373">
        <ele>1720.4</ele>
        <time>2022-03-06T12:51:08Z</time>
      </trkpt>
      <trkpt lat="46.2569" lon="6.79372">
        <ele>1719.4</ele>
        <time>2022-03-06T12:51:10Z</time>
      </trkpt>
      <trkpt lat="46.25689" lon="6.7937">
        <ele>1718.4</ele>
        <time>2022-03-06T12:51:13Z</time>
      </trkpt>
      <trkpt lat="46.25689" lon="6.7937">
        <ele>1718</ele>
        <time>2022-03-06T12:51:14Z</time>
      </trkpt>
      <trkpt lat="46.25689" lon="6.7937">
        <ele>1717.8</ele>
        <time>2022-03-06T12:51:15Z</time>
      </trkpt>
      <trkpt lat="46.25688" lon="6.79369">
        <ele>1717.2</ele>
        <time>2022-03-06T12:51:16Z</time>
      </trkpt>
      <trkpt lat="46.25687" lon="6.79368">
        <ele>1716.6</ele>
        <time>2022-03-06T12:51:17Z</time>
      </trkpt>
      <trkpt lat="46.25686" lon="6.79367">
        <ele>1715.8</ele>
        <time>2022-03-06T12:51:18Z</time>
      </trkpt>
      <trkpt lat="46.25685" lon="6.79366">
        <ele>1715</ele>
        <time>2022-03-06T12:51:19Z</time>
      </trkpt>
      <trkpt lat="46.25684" lon="6.79365">
        <ele>1714.2</ele>
        <time>2022-03-06T12:51:20Z</time>
      </trkpt>
      <trkpt lat="46.25683" lon="6.79364">
        <ele>1713.8</ele>
        <time>2022-03-06T12:51:21Z</time>
      </trkpt>
      <trkpt lat="46.25681" lon="6.79362">
        <ele>1712.2</ele>
        <time>2022-03-06T12:51:24Z</time>
      </trkpt>
      <trkpt lat="46.2568" lon="6.79361">
        <ele>1711.2</ele>
        <time>2022-03-06T12:51:25Z</time>
      </trkpt>
      <trkpt lat="46.2568" lon="6.79361">
        <ele>1710.6</ele>
        <time>2022-03-06T12:51:26Z</time>
      </trkpt>
      <trkpt lat="46.25679" lon="6.7936">
        <ele>1709.6</ele>
        <time>2022-03-06T12:51:27Z</time>
      </trkpt>
      <trkpt lat="46.25678" lon="6.7936">
        <ele>1708.6</ele>
        <time>2022-03-06T12:51:28Z</time>
      </trkpt>
      <trkpt lat="46.25677" lon="6.7936">
        <ele>1707.6</ele>
        <time>2022-03-06T12:51:29Z</time>
      </trkpt>
      <trkpt lat="46.25676" lon="6.79359">
        <ele>1707</ele>
        <time>2022-03-06T12:51:30Z</time>
      </trkpt>
      <trkpt lat="46.25676" lon="6.79359">
        <ele>1706</ele>
        <time>2022-03-06T12:51:31Z</time>
      </trkpt>
      <trkpt lat="46.25675" lon="6.79358">
        <ele>1705.2</ele>
        <time>2022-03-06T12:51:32Z</time>
      </trkpt>
      <trkpt lat="46.25675" lon="6.79358">
        <ele>1704.6</ele>
        <time>2022-03-06T12:51:33Z</time>
      </trkpt>
      <trkpt lat="46.25676" lon="6.79358">
        <ele>1702.8</ele>
        <time>2022-03-06T12:51:36Z</time>
      </trkpt>
      <trkpt lat="46.25674" lon="6.79355">
        <ele>1701.6</ele>
        <time>2022-03-06T12:51:39Z</time>
      </trkpt>
      <trkpt lat="46.25672" lon="6.79353">
        <ele>1700.4</ele>
        <time>2022-03-06T12:51:42Z</time>
      </trkpt>
      <trkpt lat="46.2567" lon="6.79352">
        <ele>1700.2</ele>
        <time>2022-03-06T12:51:43Z</time>
      </trkpt>
      <trkpt lat="46.2567" lon="6.79352">
        <ele>1700.2</ele>
        <time>2022-03-06T12:51:44Z</time>
      </trkpt>
      <trkpt lat="46.25669" lon="6.79352">
        <ele>1700.2</ele>
        <time>2022-03-06T12:51:45Z</time>
      </trkpt>
      <trkpt lat="46.25668" lon="6.79352">
        <ele>1700</ele>
        <time>2022-03-06T12:51:46Z</time>
      </trkpt>
      <trkpt lat="46.25666" lon="6.79352">
        <ele>1699.6</ele>
        <time>2022-03-06T12:51:47Z</time>
      </trkpt>
      <trkpt lat="46.25664" lon="6.79349">
        <ele>1699.4</ele>
        <time>2022-03-06T12:51:48Z</time>
      </trkpt>
      <trkpt lat="46.25661" lon="6.79347">
        <ele>1699.2</ele>
        <time>2022-03-06T12:51:49Z</time>
      </trkpt>
      <trkpt lat="46.2566" lon="6.79346">
        <ele>1698.8</ele>
        <time>2022-03-06T12:51:50Z</time>
      </trkpt>
      <trkpt lat="46.25658" lon="6.79345">
        <ele>1698.4</ele>
        <time>2022-03-06T12:51:51Z</time>
      </trkpt>
      <trkpt lat="46.25657" lon="6.79344">
        <ele>1697.8</ele>
        <time>2022-03-06T12:51:52Z</time>
      </trkpt>
      <trkpt lat="46.25656" lon="6.79344">
        <ele>1697.6</ele>
        <time>2022-03-06T12:51:53Z</time>
      </trkpt>
      <trkpt lat="46.25656" lon="6.79343">
        <ele>1697</ele>
        <time>2022-03-06T12:51:54Z</time>
      </trkpt>
      <trkpt lat="46.25655" lon="6.79342">
        <ele>1696.6</ele>
        <time>2022-03-06T12:51:55Z</time>
      </trkpt>
      <trkpt lat="46.25653" lon="6.79343">
        <ele>1694.6</ele>
        <time>2022-03-06T12:51:59Z</time>
      </trkpt>
      <trkpt lat="46.25645" lon="6.79352">
        <ele>1693.4</ele>
        <time>2022-03-06T12:52:09Z</time>
      </trkpt>
      <trkpt lat="46.25644" lon="6.7935">
        <ele>1693.4</ele>
        <time>2022-03-06T12:52:23Z</time>
      </trkpt>
      <trkpt lat="46.25642" lon="6.79349">
        <ele>1693.4</ele>
        <time>2022-03-06T12:52:33Z</time>
      </trkpt>
      <trkpt lat="46.25641" lon="6.79349">
        <ele>1693.4</ele>
        <time>2022-03-06T12:52:35Z</time>
      </trkpt>
      <trkpt lat="46.25641" lon="6.79349">
        <ele>1693.4</ele>
        <time>2022-03-06T12:52:37Z</time>
      </trkpt>
      <trkpt lat="46.25641" lon="6.7935">
        <ele>1693</ele>
        <time>2022-03-06T12:52:40Z</time>
      </trkpt>
      <trkpt lat="46.25639" lon="6.79351">
        <ele>1691.8</ele>
        <time>2022-03-06T12:52:44Z</time>
      </trkpt>
      <trkpt lat="46.25638" lon="6.79352">
        <ele>1691.8</ele>
        <time>2022-03-06T12:52:45Z</time>
      </trkpt>
      <trkpt lat="46.25637" lon="6.79352">
        <ele>1691.6</ele>
        <time>2022-03-06T12:52:48Z</time>
      </trkpt>
      <trkpt lat="46.25634" lon="6.79348">
        <ele>1689.2</ele>
        <time>2022-03-06T12:53:01Z</time>
      </trkpt>
      <trkpt lat="46.25632" lon="6.79345">
        <ele>1689</ele>
        <time>2022-03-06T12:53:05Z</time>
      </trkpt>
      <trkpt lat="46.2563" lon="6.79345">
        <ele>1689</ele>
        <time>2022-03-06T12:53:06Z</time>
      </trkpt>
      <trkpt lat="46.25629" lon="6.79344">
        <ele>1688.8</ele>
        <time>2022-03-06T12:53:08Z</time>
      </trkpt>
      <trkpt lat="46.25628" lon="6.79343">
        <ele>1688.6</ele>
        <time>2022-03-06T12:53:09Z</time>
      </trkpt>
      <trkpt lat="46.25628" lon="6.79342">
        <ele>1688.4</ele>
        <time>2022-03-06T12:53:10Z</time>
      </trkpt>
      <trkpt lat="46.25628" lon="6.79342">
        <ele>1688.2</ele>
        <time>2022-03-06T12:53:11Z</time>
      </trkpt>
      <trkpt lat="46.25628" lon="6.79342">
        <ele>1688</ele>
        <time>2022-03-06T12:53:12Z</time>
      </trkpt>
      <trkpt lat="46.25627" lon="6.79341">
        <ele>1687.6</ele>
        <time>2022-03-06T12:53:13Z</time>
      </trkpt>
      <trkpt lat="46.25626" lon="6.79338">
        <ele>1686.8</ele>
        <time>2022-03-06T12:53:16Z</time>
      </trkpt>
      <trkpt lat="46.25624" lon="6.79335">
        <ele>1685.6</ele>
        <time>2022-03-06T12:53:19Z</time>
      </trkpt>
      <trkpt lat="46.25623" lon="6.79333">
        <ele>1684.6</ele>
        <time>2022-03-06T12:53:21Z</time>
      </trkpt>
      <trkpt lat="46.25621" lon="6.79332">
        <ele>1684</ele>
        <time>2022-03-06T12:53:23Z</time>
      </trkpt>
      <trkpt lat="46.25621" lon="6.79331">
        <ele>1683.6</ele>
        <time>2022-03-06T12:53:24Z</time>
      </trkpt>
      <trkpt lat="46.2562" lon="6.79331">
        <ele>1683.2</ele>
        <time>2022-03-06T12:53:25Z</time>
      </trkpt>
      <trkpt lat="46.2562" lon="6.79331">
        <ele>1683</ele>
        <time>2022-03-06T12:53:26Z</time>
      </trkpt>
      <trkpt lat="46.25619" lon="6.7933">
        <ele>1682.8</ele>
        <time>2022-03-06T12:53:27Z</time>
      </trkpt>
      <trkpt lat="46.25619" lon="6.7933">
        <ele>1682.6</ele>
        <time>2022-03-06T12:53:28Z</time>
      </trkpt>
      <trkpt lat="46.25618" lon="6.7933">
        <ele>1682.6</ele>
        <time>2022-03-06T12:53:29Z</time>
      </trkpt>
      <trkpt lat="46.25618" lon="6.7933">
        <ele>1682.4</ele>
        <time>2022-03-06T12:53:30Z</time>
      </trkpt>
      <trkpt lat="46.25617" lon="6.79329">
        <ele>1682.2</ele>
        <time>2022-03-06T12:53:31Z</time>
      </trkpt>
      <trkpt lat="46.25618" lon="6.79329">
        <ele>1682</ele>
        <time>2022-03-06T12:53:32Z</time>
      </trkpt>
      <trkpt lat="46.25618" lon="6.79329">
        <ele>1681.8</ele>
        <time>2022-03-06T12:53:33Z</time>
      </trkpt>
      <trkpt lat="46.25619" lon="6.79328">
        <ele>1681.4</ele>
        <time>2022-03-06T12:53:34Z</time>
      </trkpt>
      <trkpt lat="46.2562" lon="6.79328">
        <ele>1681.2</ele>
        <time>2022-03-06T12:53:36Z</time>
      </trkpt>
      <trkpt lat="46.25616" lon="6.79331">
        <ele>1679</ele>
        <time>2022-03-06T12:53:50Z</time>
      </trkpt>
      <trkpt lat="46.25616" lon="6.7933">
        <ele>1679</ele>
        <time>2022-03-06T12:53:59Z</time>
      </trkpt>
      <trkpt lat="46.25616" lon="6.79329">
        <ele>1679.2</ele>
        <time>2022-03-06T12:54:02Z</time>
      </trkpt>
      <trkpt lat="46.25615" lon="6.79328">
        <ele>1679</ele>
        <time>2022-03-06T12:54:04Z</time>
      </trkpt>
      <trkpt lat="46.25615" lon="6.79328">
        <ele>1679</ele>
        <time>2022-03-06T12:54:05Z</time>
      </trkpt>
      <trkpt lat="46.25611" lon="6.79325">
        <ele>1677.8</ele>
        <time>2022-03-06T12:54:09Z</time>
      </trkpt>
      <trkpt lat="46.2561" lon="6.79325">
        <ele>1676.6</ele>
        <time>2022-03-06T12:54:12Z</time>
      </trkpt>
      <trkpt lat="46.2561" lon="6.79325">
        <ele>1676.4</ele>
        <time>2022-03-06T12:54:13Z</time>
      </trkpt>
      <trkpt lat="46.2561" lon="6.79325">
        <ele>1676</ele>
        <time>2022-03-06T12:54:14Z</time>
      </trkpt>
      <trkpt lat="46.25609" lon="6.79324">
        <ele>1675.6</ele>
        <time>2022-03-06T12:54:15Z</time>
      </trkpt>
      <trkpt lat="46.25608" lon="6.79324">
        <ele>1675.4</ele>
        <time>2022-03-06T12:54:16Z</time>
      </trkpt>
      <trkpt lat="46.25608" lon="6.79324">
        <ele>1675</ele>
        <time>2022-03-06T12:54:17Z</time>
      </trkpt>
      <trkpt lat="46.25607" lon="6.79324">
        <ele>1674.6</ele>
        <time>2022-03-06T12:54:18Z</time>
      </trkpt>
      <trkpt lat="46.25607" lon="6.79324">
        <ele>1674.2</ele>
        <time>2022-03-06T12:54:19Z</time>
      </trkpt>
      <trkpt lat="46.25604" lon="6.79323">
        <ele>1673.8</ele>
        <time>2022-03-06T12:54:22Z</time>
      </trkpt>
      <trkpt lat="46.25603" lon="6.79322">
        <ele>1673.6</ele>
        <time>2022-03-06T12:54:23Z</time>
      </trkpt>
      <trkpt lat="46.25602" lon="6.79322">
        <ele>1673.6</ele>
        <time>2022-03-06T12:54:24Z</time>
      </trkpt>
      <trkpt lat="46.25601" lon="6.79322">
        <ele>1673.2</ele>
        <time>2022-03-06T12:54:25Z</time>
      </trkpt>
      <trkpt lat="46.256" lon="6.79322">
        <ele>1672.8</ele>
        <time>2022-03-06T12:54:26Z</time>
      </trkpt>
      <trkpt lat="46.25599" lon="6.79322">
        <ele>1672.4</ele>
        <time>2022-03-06T12:54:27Z</time>
      </trkpt>
      <trkpt lat="46.25597" lon="6.79321">
        <ele>1671.4</ele>
        <time>2022-03-06T12:54:29Z</time>
      </trkpt>
      <trkpt lat="46.25596" lon="6.7932">
        <ele>1671</ele>
        <time>2022-03-06T12:54:30Z</time>
      </trkpt>
      <trkpt lat="46.25596" lon="6.7932">
        <ele>1670.4</ele>
        <time>2022-03-06T12:54:31Z</time>
      </trkpt>
      <trkpt lat="46.25595" lon="6.79319">
        <ele>1670</ele>
        <time>2022-03-06T12:54:32Z</time>
      </trkpt>
      <trkpt lat="46.25594" lon="6.79318">
        <ele>1669.8</ele>
        <time>2022-03-06T12:54:33Z</time>
      </trkpt>
      <trkpt lat="46.25592" lon="6.79317">
        <ele>1669.6</ele>
        <time>2022-03-06T12:54:34Z</time>
      </trkpt>
      <trkpt lat="46.25589" lon="6.79314">
        <ele>1668</ele>
        <time>2022-03-06T12:54:38Z</time>
      </trkpt>
      <trkpt lat="46.25588" lon="6.79314">
        <ele>1667.8</ele>
        <time>2022-03-06T12:54:39Z</time>
      </trkpt>
      <trkpt lat="46.25587" lon="6.79313">
        <ele>1667.6</ele>
        <time>2022-03-06T12:54:40Z</time>
      </trkpt>
      <trkpt lat="46.25584" lon="6.79313">
        <ele>1667.2</ele>
        <time>2022-03-06T12:54:43Z</time>
      </trkpt>
      <trkpt lat="46.25583" lon="6.79313">
        <ele>1666.8</ele>
        <time>2022-03-06T12:54:44Z</time>
      </trkpt>
      <trkpt lat="46.25581" lon="6.79313">
        <ele>1666.2</ele>
        <time>2022-03-06T12:54:46Z</time>
      </trkpt>
      <trkpt lat="46.2558" lon="6.79314">
        <ele>1666</ele>
        <time>2022-03-06T12:54:47Z</time>
      </trkpt>
      <trkpt lat="46.25579" lon="6.79314">
        <ele>1665.6</ele>
        <time>2022-03-06T12:54:48Z</time>
      </trkpt>
      <trkpt lat="46.25578" lon="6.79314">
        <ele>1665.6</ele>
        <time>2022-03-06T12:54:49Z</time>
      </trkpt>
      <trkpt lat="46.25577" lon="6.79315">
        <ele>1665</ele>
        <time>2022-03-06T12:54:50Z</time>
      </trkpt>
      <trkpt lat="46.25576" lon="6.79315">
        <ele>1664.8</ele>
        <time>2022-03-06T12:54:51Z</time>
      </trkpt>
      <trkpt lat="46.25575" lon="6.79315">
        <ele>1664.6</ele>
        <time>2022-03-06T12:54:52Z</time>
      </trkpt>
      <trkpt lat="46.25573" lon="6.79315">
        <ele>1664.4</ele>
        <time>2022-03-06T12:54:53Z</time>
      </trkpt>
      <trkpt lat="46.25569" lon="6.79316">
        <ele>1663.6</ele>
        <time>2022-03-06T12:54:56Z</time>
      </trkpt>
      <trkpt lat="46.25563" lon="6.79318">
        <ele>1662.2</ele>
        <time>2022-03-06T12:55:01Z</time>
      </trkpt>
      <trkpt lat="46.25562" lon="6.79318">
        <ele>1661.8</ele>
        <time>2022-03-06T12:55:02Z</time>
      </trkpt>
      <trkpt lat="46.2556" lon="6.79318">
        <ele>1661.4</ele>
        <time>2022-03-06T12:55:03Z</time>
      </trkpt>
      <trkpt lat="46.25557" lon="6.79318">
        <ele>1661</ele>
        <time>2022-03-06T12:55:05Z</time>
      </trkpt>
      <trkpt lat="46.25557" lon="6.79318">
        <ele>1660.8</ele>
        <time>2022-03-06T12:55:06Z</time>
      </trkpt>
      <trkpt lat="46.25557" lon="6.79318">
        <ele>1660.4</ele>
        <time>2022-03-06T12:55:07Z</time>
      </trkpt>
      <trkpt lat="46.25555" lon="6.79319">
        <ele>1660.2</ele>
        <time>2022-03-06T12:55:08Z</time>
      </trkpt>
      <trkpt lat="46.25555" lon="6.79319">
        <ele>1659.8</ele>
        <time>2022-03-06T12:55:09Z</time>
      </trkpt>
      <trkpt lat="46.25554" lon="6.7932">
        <ele>1659.8</ele>
        <time>2022-03-06T12:55:10Z</time>
      </trkpt>
      <trkpt lat="46.25553" lon="6.79321">
        <ele>1659.6</ele>
        <time>2022-03-06T12:55:11Z</time>
      </trkpt>
      <trkpt lat="46.2555" lon="6.79322">
        <ele>1658.4</ele>
        <time>2022-03-06T12:55:14Z</time>
      </trkpt>
      <trkpt lat="46.2555" lon="6.79322">
        <ele>1658</ele>
        <time>2022-03-06T12:55:15Z</time>
      </trkpt>
      <trkpt lat="46.25551" lon="6.79322">
        <ele>1657.6</ele>
        <time>2022-03-06T12:55:16Z</time>
      </trkpt>
      <trkpt lat="46.25551" lon="6.79321">
        <ele>1657.2</ele>
        <time>2022-03-06T12:55:17Z</time>
      </trkpt>
      <trkpt lat="46.25547" lon="6.7932">
        <ele>1656</ele>
        <time>2022-03-06T12:55:21Z</time>
      </trkpt>
      <trkpt lat="46.25542" lon="6.79319">
        <ele>1655.2</ele>
        <time>2022-03-06T12:55:28Z</time>
      </trkpt>
      <trkpt lat="46.25541" lon="6.7932">
        <ele>1654.8</ele>
        <time>2022-03-06T12:55:31Z</time>
      </trkpt>
      <trkpt lat="46.2554" lon="6.79319">
        <ele>1654.6</ele>
        <time>2022-03-06T12:55:32Z</time>
      </trkpt>
      <trkpt lat="46.25533" lon="6.79318">
        <ele>1653.6</ele>
        <time>2022-03-06T12:55:37Z</time>
      </trkpt>
      <trkpt lat="46.25531" lon="6.79317">
        <ele>1653</ele>
        <time>2022-03-06T12:55:40Z</time>
      </trkpt>
      <trkpt lat="46.25528" lon="6.79316">
        <ele>1652.6</ele>
        <time>2022-03-06T12:55:42Z</time>
      </trkpt>
      <trkpt lat="46.25527" lon="6.79315">
        <ele>1652</ele>
        <time>2022-03-06T12:55:43Z</time>
      </trkpt>
      <trkpt lat="46.25526" lon="6.79315">
        <ele>1651.6</ele>
        <time>2022-03-06T12:55:45Z</time>
      </trkpt>
      <trkpt lat="46.25525" lon="6.79316">
        <ele>1651.2</ele>
        <time>2022-03-06T12:55:46Z</time>
      </trkpt>
      <trkpt lat="46.25523" lon="6.79316">
        <ele>1651</ele>
        <time>2022-03-06T12:55:47Z</time>
      </trkpt>
      <trkpt lat="46.2552" lon="6.79315">
        <ele>1649.8</ele>
        <time>2022-03-06T12:55:51Z</time>
      </trkpt>
      <trkpt lat="46.25517" lon="6.79312">
        <ele>1649</ele>
        <time>2022-03-06T12:55:54Z</time>
      </trkpt>
      <trkpt lat="46.25516" lon="6.79311">
        <ele>1649</ele>
        <time>2022-03-06T12:55:55Z</time>
      </trkpt>
      <trkpt lat="46.25514" lon="6.79311">
        <ele>1648.8</ele>
        <time>2022-03-06T12:55:57Z</time>
      </trkpt>
      <trkpt lat="46.25513" lon="6.79311">
        <ele>1648.6</ele>
        <time>2022-03-06T12:55:58Z</time>
      </trkpt>
      <trkpt lat="46.25513" lon="6.79311">
        <ele>1648.6</ele>
        <time>2022-03-06T12:55:59Z</time>
      </trkpt>
      <trkpt lat="46.25512" lon="6.79312">
        <ele>1648.4</ele>
        <time>2022-03-06T12:56:00Z</time>
      </trkpt>
      <trkpt lat="46.25511" lon="6.79312">
        <ele>1648.2</ele>
        <time>2022-03-06T12:56:01Z</time>
      </trkpt>
      <trkpt lat="46.25509" lon="6.79313">
        <ele>1648</ele>
        <time>2022-03-06T12:56:02Z</time>
      </trkpt>
      <trkpt lat="46.25508" lon="6.79313">
        <ele>1647.8</ele>
        <time>2022-03-06T12:56:03Z</time>
      </trkpt>
      <trkpt lat="46.25508" lon="6.79313">
        <ele>1647.6</ele>
        <time>2022-03-06T12:56:04Z</time>
      </trkpt>
      <trkpt lat="46.25504" lon="6.79314">
        <ele>1646.8</ele>
        <time>2022-03-06T12:56:07Z</time>
      </trkpt>
      <trkpt lat="46.25503" lon="6.79314">
        <ele>1646.6</ele>
        <time>2022-03-06T12:56:08Z</time>
      </trkpt>
      <trkpt lat="46.255" lon="6.79315">
        <ele>1646</ele>
        <time>2022-03-06T12:56:10Z</time>
      </trkpt>
      <trkpt lat="46.25498" lon="6.79316">
        <ele>1645.4</ele>
        <time>2022-03-06T12:56:13Z</time>
      </trkpt>
      <trkpt lat="46.25496" lon="6.79318">
        <ele>1645</ele>
        <time>2022-03-06T12:56:15Z</time>
      </trkpt>
      <trkpt lat="46.25494" lon="6.79318">
        <ele>1644.6</ele>
        <time>2022-03-06T12:56:16Z</time>
      </trkpt>
      <trkpt lat="46.25491" lon="6.79319">
        <ele>1644.4</ele>
        <time>2022-03-06T12:56:18Z</time>
      </trkpt>
      <trkpt lat="46.2549" lon="6.7932">
        <ele>1644.2</ele>
        <time>2022-03-06T12:56:19Z</time>
      </trkpt>
      <trkpt lat="46.25486" lon="6.7932">
        <ele>1643.8</ele>
        <time>2022-03-06T12:56:22Z</time>
      </trkpt>
      <trkpt lat="46.25485" lon="6.7932">
        <ele>1643.6</ele>
        <time>2022-03-06T12:56:23Z</time>
      </trkpt>
      <trkpt lat="46.25482" lon="6.79321">
        <ele>1643</ele>
        <time>2022-03-06T12:56:26Z</time>
      </trkpt>
      <trkpt lat="46.2548" lon="6.79322">
        <ele>1643</ele>
        <time>2022-03-06T12:56:28Z</time>
      </trkpt>
      <trkpt lat="46.2548" lon="6.79323">
        <ele>1643</ele>
        <time>2022-03-06T12:56:29Z</time>
      </trkpt>
      <trkpt lat="46.25479" lon="6.79324">
        <ele>1643</ele>
        <time>2022-03-06T12:56:30Z</time>
      </trkpt>
      <trkpt lat="46.25478" lon="6.79324">
        <ele>1642.8</ele>
        <time>2022-03-06T12:56:31Z</time>
      </trkpt>
      <trkpt lat="46.25478" lon="6.79324">
        <ele>1642.8</ele>
        <time>2022-03-06T12:56:32Z</time>
      </trkpt>
      <trkpt lat="46.25477" lon="6.79325">
        <ele>1642.8</ele>
        <time>2022-03-06T12:56:33Z</time>
      </trkpt>
      <trkpt lat="46.25476" lon="6.79326">
        <ele>1642.8</ele>
        <time>2022-03-06T12:56:34Z</time>
      </trkpt>
      <trkpt lat="46.25474" lon="6.79327">
        <ele>1642.6</ele>
        <time>2022-03-06T12:56:37Z</time>
      </trkpt>
      <trkpt lat="46.25473" lon="6.79328">
        <ele>1642.8</ele>
        <time>2022-03-06T12:56:38Z</time>
      </trkpt>
      <trkpt lat="46.25473" lon="6.79328">
        <ele>1642.8</ele>
        <time>2022-03-06T12:56:39Z</time>
      </trkpt>
      <trkpt lat="46.25472" lon="6.79329">
        <ele>1642.8</ele>
        <time>2022-03-06T12:56:40Z</time>
      </trkpt>
      <trkpt lat="46.25471" lon="6.79329">
        <ele>1642.6</ele>
        <time>2022-03-06T12:56:41Z</time>
      </trkpt>
      <trkpt lat="46.2547" lon="6.79329">
        <ele>1642.6</ele>
        <time>2022-03-06T12:56:42Z</time>
      </trkpt>
      <trkpt lat="46.2547" lon="6.79329">
        <ele>1643</ele>
        <time>2022-03-06T12:56:43Z</time>
      </trkpt>
      <trkpt lat="46.25469" lon="6.79328">
        <ele>1642.8</ele>
        <time>2022-03-06T12:56:44Z</time>
      </trkpt>
      <trkpt lat="46.25469" lon="6.79328">
        <ele>1643</ele>
        <time>2022-03-06T12:56:45Z</time>
      </trkpt>
      <trkpt lat="46.25467" lon="6.79328">
        <ele>1643.2</ele>
        <time>2022-03-06T12:56:49Z</time>
      </trkpt>
      <trkpt lat="46.25463" lon="6.79333">
        <ele>1642.6</ele>
        <time>2022-03-06T12:57:00Z</time>
      </trkpt>
      <trkpt lat="46.25463" lon="6.79333">
        <ele>1642.4</ele>
        <time>2022-03-06T12:57:01Z</time>
      </trkpt>
      <trkpt lat="46.25463" lon="6.79335">
        <ele>1642</ele>
        <time>2022-03-06T12:57:04Z</time>
      </trkpt>
      <trkpt lat="46.25462" lon="6.79336">
        <ele>1641.6</ele>
        <time>2022-03-06T12:57:07Z</time>
      </trkpt>
      <trkpt lat="46.25462" lon="6.79337">
        <ele>1641.4</ele>
        <time>2022-03-06T12:57:09Z</time>
      </trkpt>
      <trkpt lat="46.25462" lon="6.79338">
        <ele>1641</ele>
        <time>2022-03-06T12:57:10Z</time>
      </trkpt>
      <trkpt lat="46.25461" lon="6.79339">
        <ele>1640.6</ele>
        <time>2022-03-06T12:57:11Z</time>
      </trkpt>
      <trkpt lat="46.25461" lon="6.79339">
        <ele>1640.2</ele>
        <time>2022-03-06T12:57:12Z</time>
      </trkpt>
      <trkpt lat="46.2546" lon="6.7934">
        <ele>1639.6</ele>
        <time>2022-03-06T12:57:13Z</time>
      </trkpt>
      <trkpt lat="46.2546" lon="6.79341">
        <ele>1638.8</ele>
        <time>2022-03-06T12:57:15Z</time>
      </trkpt>
      <trkpt lat="46.2546" lon="6.79342">
        <ele>1638.4</ele>
        <time>2022-03-06T12:57:16Z</time>
      </trkpt>
      <trkpt lat="46.25459" lon="6.79344">
        <ele>1636.8</ele>
        <time>2022-03-06T12:57:20Z</time>
      </trkpt>
      <trkpt lat="46.25458" lon="6.79344">
        <ele>1636.2</ele>
        <time>2022-03-06T12:57:22Z</time>
      </trkpt>
      <trkpt lat="46.25455" lon="6.79345">
        <ele>1633</ele>
        <time>2022-03-06T12:57:32Z</time>
      </trkpt>
      <trkpt lat="46.25454" lon="6.79346">
        <ele>1632.8</ele>
        <time>2022-03-06T12:57:34Z</time>
      </trkpt>
      <trkpt lat="46.25454" lon="6.79347">
        <ele>1632.8</ele>
        <time>2022-03-06T12:57:37Z</time>
      </trkpt>
      <trkpt lat="46.25454" lon="6.79347">
        <ele>1632.6</ele>
        <time>2022-03-06T12:57:38Z</time>
      </trkpt>
      <trkpt lat="46.25454" lon="6.79352">
        <ele>1632.4</ele>
        <time>2022-03-06T12:57:49Z</time>
      </trkpt>
      <trkpt lat="46.25454" lon="6.79356">
        <ele>1631.8</ele>
        <time>2022-03-06T12:57:55Z</time>
      </trkpt>
      <trkpt lat="46.25454" lon="6.79357">
        <ele>1631.8</ele>
        <time>2022-03-06T12:57:56Z</time>
      </trkpt>
      <trkpt lat="46.25453" lon="6.79357">
        <ele>1631.6</ele>
        <time>2022-03-06T12:57:57Z</time>
      </trkpt>
      <trkpt lat="46.25453" lon="6.79357">
        <ele>1631.8</ele>
        <time>2022-03-06T12:57:58Z</time>
      </trkpt>
      <trkpt lat="46.25453" lon="6.79359">
        <ele>1631.6</ele>
        <time>2022-03-06T12:58:00Z</time>
      </trkpt>
      <trkpt lat="46.25449" lon="6.79364">
        <ele>1631.2</ele>
        <time>2022-03-06T12:58:06Z</time>
      </trkpt>
      <trkpt lat="46.25449" lon="6.79364">
        <ele>1630.8</ele>
        <time>2022-03-06T12:58:07Z</time>
      </trkpt>
      <trkpt lat="46.25447" lon="6.79367">
        <ele>1630.4</ele>
        <time>2022-03-06T12:58:10Z</time>
      </trkpt>
      <trkpt lat="46.25447" lon="6.79368">
        <ele>1630.4</ele>
        <time>2022-03-06T12:58:11Z</time>
      </trkpt>
      <trkpt lat="46.25444" lon="6.79369">
        <ele>1630.4</ele>
        <time>2022-03-06T12:58:14Z</time>
      </trkpt>
      <trkpt lat="46.25444" lon="6.79369">
        <ele>1630.6</ele>
        <time>2022-03-06T12:58:15Z</time>
      </trkpt>
      <trkpt lat="46.2544" lon="6.79372">
        <ele>1631.2</ele>
        <time>2022-03-06T12:58:24Z</time>
      </trkpt>
      <trkpt lat="46.25439" lon="6.79372">
        <ele>1631.2</ele>
        <time>2022-03-06T12:58:25Z</time>
      </trkpt>
      <trkpt lat="46.25436" lon="6.79374">
        <ele>1631.2</ele>
        <time>2022-03-06T12:58:33Z</time>
      </trkpt>
      <trkpt lat="46.25436" lon="6.79375">
        <ele>1631.2</ele>
        <time>2022-03-06T12:58:34Z</time>
      </trkpt>
      <trkpt lat="46.25435" lon="6.79376">
        <ele>1631.2</ele>
        <time>2022-03-06T12:58:36Z</time>
      </trkpt>
      <trkpt lat="46.25435" lon="6.79377">
        <ele>1631.2</ele>
        <time>2022-03-06T12:58:37Z</time>
      </trkpt>
      <trkpt lat="46.25433" lon="6.79378">
        <ele>1631.2</ele>
        <time>2022-03-06T12:58:40Z</time>
      </trkpt>
      <trkpt lat="46.25433" lon="6.79379">
        <ele>1631</ele>
        <time>2022-03-06T12:58:45Z</time>
      </trkpt>
      <trkpt lat="46.2543" lon="6.79382">
        <ele>1631</ele>
        <time>2022-03-06T12:58:54Z</time>
      </trkpt>
      <trkpt lat="46.2543" lon="6.79382">
        <ele>1630.8</ele>
        <time>2022-03-06T12:58:55Z</time>
      </trkpt>
      <trkpt lat="46.25429" lon="6.79383">
        <ele>1630.8</ele>
        <time>2022-03-06T12:58:56Z</time>
      </trkpt>
      <trkpt lat="46.25425" lon="6.79387">
        <ele>1630.6</ele>
        <time>2022-03-06T12:59:01Z</time>
      </trkpt>
      <trkpt lat="46.25422" lon="6.79389">
        <ele>1630.2</ele>
        <time>2022-03-06T12:59:04Z</time>
      </trkpt>
      <trkpt lat="46.25419" lon="6.79393">
        <ele>1629.6</ele>
        <time>2022-03-06T12:59:08Z</time>
      </trkpt>
      <trkpt lat="46.25415" lon="6.79396">
        <ele>1628.8</ele>
        <time>2022-03-06T12:59:12Z</time>
      </trkpt>
      <trkpt lat="46.25414" lon="6.79397">
        <ele>1628.4</ele>
        <time>2022-03-06T12:59:13Z</time>
      </trkpt>
      <trkpt lat="46.25409" lon="6.79399">
        <ele>1627.4</ele>
        <time>2022-03-06T12:59:17Z</time>
      </trkpt>
      <trkpt lat="46.25406" lon="6.79401">
        <ele>1626.2</ele>
        <time>2022-03-06T12:59:20Z</time>
      </trkpt>
      <trkpt lat="46.25406" lon="6.79402">
        <ele>1625.8</ele>
        <time>2022-03-06T12:59:21Z</time>
      </trkpt>
      <trkpt lat="46.25405" lon="6.79402">
        <ele>1625.6</ele>
        <time>2022-03-06T12:59:22Z</time>
      </trkpt>
      <trkpt lat="46.25404" lon="6.79402">
        <ele>1625.2</ele>
        <time>2022-03-06T12:59:23Z</time>
      </trkpt>
      <trkpt lat="46.25403" lon="6.79403">
        <ele>1624.8</ele>
        <time>2022-03-06T12:59:24Z</time>
      </trkpt>
      <trkpt lat="46.25402" lon="6.79404">
        <ele>1624.8</ele>
        <time>2022-03-06T12:59:25Z</time>
      </trkpt>
      <trkpt lat="46.25401" lon="6.79405">
        <ele>1624.2</ele>
        <time>2022-03-06T12:59:26Z</time>
      </trkpt>
      <trkpt lat="46.254" lon="6.79405">
        <ele>1624</ele>
        <time>2022-03-06T12:59:27Z</time>
      </trkpt>
      <trkpt lat="46.254" lon="6.79406">
        <ele>1623.8</ele>
        <time>2022-03-06T12:59:28Z</time>
      </trkpt>
      <trkpt lat="46.25398" lon="6.79407">
        <ele>1623.6</ele>
        <time>2022-03-06T12:59:29Z</time>
      </trkpt>
      <trkpt lat="46.25393" lon="6.79413">
        <ele>1622.6</ele>
        <time>2022-03-06T12:59:34Z</time>
      </trkpt>
      <trkpt lat="46.25392" lon="6.79414">
        <ele>1622.4</ele>
        <time>2022-03-06T12:59:35Z</time>
      </trkpt>
      <trkpt lat="46.25391" lon="6.79415">
        <ele>1622.2</ele>
        <time>2022-03-06T12:59:36Z</time>
      </trkpt>
      <trkpt lat="46.2539" lon="6.79416">
        <ele>1621.8</ele>
        <time>2022-03-06T12:59:37Z</time>
      </trkpt>
      <trkpt lat="46.25389" lon="6.79417">
        <ele>1621.8</ele>
        <time>2022-03-06T12:59:38Z</time>
      </trkpt>
      <trkpt lat="46.25388" lon="6.79418">
        <ele>1621.4</ele>
        <time>2022-03-06T12:59:39Z</time>
      </trkpt>
      <trkpt lat="46.25388" lon="6.79419">
        <ele>1621.4</ele>
        <time>2022-03-06T12:59:40Z</time>
      </trkpt>
      <trkpt lat="46.25387" lon="6.7942">
        <ele>1621.4</ele>
        <time>2022-03-06T12:59:41Z</time>
      </trkpt>
      <trkpt lat="46.25387" lon="6.79421">
        <ele>1621.2</ele>
        <time>2022-03-06T12:59:42Z</time>
      </trkpt>
      <trkpt lat="46.25386" lon="6.79421">
        <ele>1621</ele>
        <time>2022-03-06T12:59:43Z</time>
      </trkpt>
      <trkpt lat="46.25386" lon="6.79422">
        <ele>1621</ele>
        <time>2022-03-06T12:59:44Z</time>
      </trkpt>
      <trkpt lat="46.25386" lon="6.79424">
        <ele>1620.8</ele>
        <time>2022-03-06T12:59:45Z</time>
      </trkpt>
      <trkpt lat="46.25386" lon="6.79425">
        <ele>1620.6</ele>
        <time>2022-03-06T12:59:46Z</time>
      </trkpt>
      <trkpt lat="46.25385" lon="6.79426">
        <ele>1620.6</ele>
        <time>2022-03-06T12:59:47Z</time>
      </trkpt>
      <trkpt lat="46.25384" lon="6.79428">
        <ele>1620.4</ele>
        <time>2022-03-06T12:59:48Z</time>
      </trkpt>
      <trkpt lat="46.25382" lon="6.7943">
        <ele>1620</ele>
        <time>2022-03-06T12:59:50Z</time>
      </trkpt>
      <trkpt lat="46.25382" lon="6.79431">
        <ele>1619.8</ele>
        <time>2022-03-06T12:59:51Z</time>
      </trkpt>
      <trkpt lat="46.25382" lon="6.79432">
        <ele>1619.4</ele>
        <time>2022-03-06T12:59:52Z</time>
      </trkpt>
      <trkpt lat="46.25381" lon="6.79433">
        <ele>1619.2</ele>
        <time>2022-03-06T12:59:53Z</time>
      </trkpt>
      <trkpt lat="46.25381" lon="6.79434">
        <ele>1619.2</ele>
        <time>2022-03-06T12:59:54Z</time>
      </trkpt>
      <trkpt lat="46.2538" lon="6.79436">
        <ele>1619.2</ele>
        <time>2022-03-06T12:59:55Z</time>
      </trkpt>
      <trkpt lat="46.25379" lon="6.79438">
        <ele>1619</ele>
        <time>2022-03-06T12:59:56Z</time>
      </trkpt>
      <trkpt lat="46.25378" lon="6.79438">
        <ele>1618.6</ele>
        <time>2022-03-06T12:59:57Z</time>
      </trkpt>
      <trkpt lat="46.25378" lon="6.79439">
        <ele>1618</ele>
        <time>2022-03-06T12:59:58Z</time>
      </trkpt>
      <trkpt lat="46.25376" lon="6.79444">
        <ele>1616.8</ele>
        <time>2022-03-06T13:00:02Z</time>
      </trkpt>
      <trkpt lat="46.25371" lon="6.79458">
        <ele>1615</ele>
        <time>2022-03-06T13:00:09Z</time>
      </trkpt>
      <trkpt lat="46.25368" lon="6.79463">
        <ele>1614</ele>
        <time>2022-03-06T13:00:13Z</time>
      </trkpt>
      <trkpt lat="46.25368" lon="6.79464">
        <ele>1613.8</ele>
        <time>2022-03-06T13:00:14Z</time>
      </trkpt>
      <trkpt lat="46.25367" lon="6.79465">
        <ele>1613.8</ele>
        <time>2022-03-06T13:00:15Z</time>
      </trkpt>
      <trkpt lat="46.25367" lon="6.79466">
        <ele>1613.6</ele>
        <time>2022-03-06T13:00:16Z</time>
      </trkpt>
      <trkpt lat="46.25367" lon="6.79466">
        <ele>1613.6</ele>
        <time>2022-03-06T13:00:17Z</time>
      </trkpt>
      <trkpt lat="46.25366" lon="6.79467">
        <ele>1613.4</ele>
        <time>2022-03-06T13:00:18Z</time>
      </trkpt>
      <trkpt lat="46.25366" lon="6.79468">
        <ele>1613.2</ele>
        <time>2022-03-06T13:00:19Z</time>
      </trkpt>
      <trkpt lat="46.25366" lon="6.79468">
        <ele>1613</ele>
        <time>2022-03-06T13:00:20Z</time>
      </trkpt>
      <trkpt lat="46.25366" lon="6.79469">
        <ele>1612.8</ele>
        <time>2022-03-06T13:00:21Z</time>
      </trkpt>
      <trkpt lat="46.25366" lon="6.79469">
        <ele>1612.6</ele>
        <time>2022-03-06T13:00:22Z</time>
      </trkpt>
      <trkpt lat="46.25365" lon="6.7947">
        <ele>1612.6</ele>
        <time>2022-03-06T13:00:23Z</time>
      </trkpt>
      <trkpt lat="46.25365" lon="6.7947">
        <ele>1612.2</ele>
        <time>2022-03-06T13:00:24Z</time>
      </trkpt>
      <trkpt lat="46.25364" lon="6.79471">
        <ele>1612.2</ele>
        <time>2022-03-06T13:00:25Z</time>
      </trkpt>
      <trkpt lat="46.25363" lon="6.79472">
        <ele>1611.8</ele>
        <time>2022-03-06T13:00:27Z</time>
      </trkpt>
      <trkpt lat="46.25363" lon="6.79472">
        <ele>1611.8</ele>
        <time>2022-03-06T13:00:28Z</time>
      </trkpt>
      <trkpt lat="46.25363" lon="6.79474">
        <ele>1611.8</ele>
        <time>2022-03-06T13:00:29Z</time>
      </trkpt>
      <trkpt lat="46.25362" lon="6.79475">
        <ele>1611.8</ele>
        <time>2022-03-06T13:00:30Z</time>
      </trkpt>
      <trkpt lat="46.25362" lon="6.79476">
        <ele>1611.6</ele>
        <time>2022-03-06T13:00:31Z</time>
      </trkpt>
      <trkpt lat="46.25362" lon="6.79477">
        <ele>1611.6</ele>
        <time>2022-03-06T13:00:32Z</time>
      </trkpt>
      <trkpt lat="46.25361" lon="6.79479">
        <ele>1611.6</ele>
        <time>2022-03-06T13:00:33Z</time>
      </trkpt>
      <trkpt lat="46.25358" lon="6.79485">
        <ele>1610.6</ele>
        <time>2022-03-06T13:00:37Z</time>
      </trkpt>
      <trkpt lat="46.25354" lon="6.79489">
        <ele>1609.4</ele>
        <time>2022-03-06T13:00:42Z</time>
      </trkpt>
      <trkpt lat="46.25351" lon="6.79494">
        <ele>1609</ele>
        <time>2022-03-06T13:00:45Z</time>
      </trkpt>
      <trkpt lat="46.25349" lon="6.79497">
        <ele>1608.4</ele>
        <time>2022-03-06T13:00:48Z</time>
      </trkpt>
      <trkpt lat="46.25348" lon="6.79497">
        <ele>1608</ele>
        <time>2022-03-06T13:00:49Z</time>
      </trkpt>
      <trkpt lat="46.25347" lon="6.79498">
        <ele>1607.8</ele>
        <time>2022-03-06T13:00:50Z</time>
      </trkpt>
      <trkpt lat="46.25344" lon="6.79502">
        <ele>1607</ele>
        <time>2022-03-06T13:00:53Z</time>
      </trkpt>
      <trkpt lat="46.25341" lon="6.79509">
        <ele>1606.4</ele>
        <time>2022-03-06T13:00:57Z</time>
      </trkpt>
      <trkpt lat="46.2534" lon="6.7951">
        <ele>1606</ele>
        <time>2022-03-06T13:00:58Z</time>
      </trkpt>
      <trkpt lat="46.2534" lon="6.79511">
        <ele>1606</ele>
        <time>2022-03-06T13:00:59Z</time>
      </trkpt>
      <trkpt lat="46.25339" lon="6.79513">
        <ele>1606</ele>
        <time>2022-03-06T13:01:00Z</time>
      </trkpt>
      <trkpt lat="46.25338" lon="6.79513">
        <ele>1605.6</ele>
        <time>2022-03-06T13:01:01Z</time>
      </trkpt>
      <trkpt lat="46.25337" lon="6.79514">
        <ele>1605.6</ele>
        <time>2022-03-06T13:01:02Z</time>
      </trkpt>
      <trkpt lat="46.25336" lon="6.79515">
        <ele>1605.4</ele>
        <time>2022-03-06T13:01:03Z</time>
      </trkpt>
      <trkpt lat="46.25335" lon="6.79515">
        <ele>1605</ele>
        <time>2022-03-06T13:01:04Z</time>
      </trkpt>
      <trkpt lat="46.25334" lon="6.79518">
        <ele>1604.4</ele>
        <time>2022-03-06T13:01:06Z</time>
      </trkpt>
      <trkpt lat="46.25333" lon="6.79519">
        <ele>1604.4</ele>
        <time>2022-03-06T13:01:07Z</time>
      </trkpt>
      <trkpt lat="46.25331" lon="6.79521">
        <ele>1604</ele>
        <time>2022-03-06T13:01:09Z</time>
      </trkpt>
      <trkpt lat="46.2533" lon="6.79522">
        <ele>1603.6</ele>
        <time>2022-03-06T13:01:11Z</time>
      </trkpt>
      <trkpt lat="46.2533" lon="6.79523">
        <ele>1603.4</ele>
        <time>2022-03-06T13:01:12Z</time>
      </trkpt>
      <trkpt lat="46.25329" lon="6.79524">
        <ele>1603.2</ele>
        <time>2022-03-06T13:01:13Z</time>
      </trkpt>
      <trkpt lat="46.25329" lon="6.79524">
        <ele>1603.2</ele>
        <time>2022-03-06T13:01:14Z</time>
      </trkpt>
      <trkpt lat="46.25328" lon="6.79525">
        <ele>1603</ele>
        <time>2022-03-06T13:01:15Z</time>
      </trkpt>
      <trkpt lat="46.25328" lon="6.79526">
        <ele>1602.8</ele>
        <time>2022-03-06T13:01:16Z</time>
      </trkpt>
      <trkpt lat="46.25326" lon="6.79527">
        <ele>1602.8</ele>
        <time>2022-03-06T13:01:18Z</time>
      </trkpt>
      <trkpt lat="46.25326" lon="6.79528">
        <ele>1602.6</ele>
        <time>2022-03-06T13:01:19Z</time>
      </trkpt>
      <trkpt lat="46.25325" lon="6.79529">
        <ele>1602.6</ele>
        <time>2022-03-06T13:01:20Z</time>
      </trkpt>
      <trkpt lat="46.25325" lon="6.7953">
        <ele>1602.4</ele>
        <time>2022-03-06T13:01:21Z</time>
      </trkpt>
      <trkpt lat="46.25323" lon="6.79534">
        <ele>1602.4</ele>
        <time>2022-03-06T13:01:24Z</time>
      </trkpt>
      <trkpt lat="46.25322" lon="6.79536">
        <ele>1602.2</ele>
        <time>2022-03-06T13:01:26Z</time>
      </trkpt>
      <trkpt lat="46.25322" lon="6.79538">
        <ele>1602</ele>
        <time>2022-03-06T13:01:27Z</time>
      </trkpt>
      <trkpt lat="46.25321" lon="6.7954">
        <ele>1601.8</ele>
        <time>2022-03-06T13:01:28Z</time>
      </trkpt>
      <trkpt lat="46.2532" lon="6.79542">
        <ele>1601.6</ele>
        <time>2022-03-06T13:01:30Z</time>
      </trkpt>
      <trkpt lat="46.2532" lon="6.79543">
        <ele>1601.6</ele>
        <time>2022-03-06T13:01:31Z</time>
      </trkpt>
      <trkpt lat="46.25319" lon="6.79544">
        <ele>1601.4</ele>
        <time>2022-03-06T13:01:32Z</time>
      </trkpt>
      <trkpt lat="46.25318" lon="6.79548">
        <ele>1600.4</ele>
        <time>2022-03-06T13:01:36Z</time>
      </trkpt>
      <trkpt lat="46.25315" lon="6.79558">
        <ele>1599.4</ele>
        <time>2022-03-06T13:01:42Z</time>
      </trkpt>
      <trkpt lat="46.25314" lon="6.79561">
        <ele>1598.4</ele>
        <time>2022-03-06T13:01:45Z</time>
      </trkpt>
      <trkpt lat="46.25313" lon="6.79565">
        <ele>1598.2</ele>
        <time>2022-03-06T13:01:46Z</time>
      </trkpt>
      <trkpt lat="46.25314" lon="6.79569">
        <ele>1597.6</ele>
        <time>2022-03-06T13:01:48Z</time>
      </trkpt>
      <trkpt lat="46.25314" lon="6.7957">
        <ele>1597.4</ele>
        <time>2022-03-06T13:01:49Z</time>
      </trkpt>
      <trkpt lat="46.25314" lon="6.79571">
        <ele>1597.2</ele>
        <time>2022-03-06T13:01:50Z</time>
      </trkpt>
      <trkpt lat="46.25315" lon="6.79572">
        <ele>1597</ele>
        <time>2022-03-06T13:01:51Z</time>
      </trkpt>
      <trkpt lat="46.25315" lon="6.79573">
        <ele>1596.6</ele>
        <time>2022-03-06T13:01:52Z</time>
      </trkpt>
      <trkpt lat="46.25315" lon="6.79574">
        <ele>1596</ele>
        <time>2022-03-06T13:01:53Z</time>
      </trkpt>
      <trkpt lat="46.25316" lon="6.79577">
        <ele>1595.8</ele>
        <time>2022-03-06T13:01:54Z</time>
      </trkpt>
      <trkpt lat="46.25317" lon="6.79581">
        <ele>1595.2</ele>
        <time>2022-03-06T13:01:56Z</time>
      </trkpt>
      <trkpt lat="46.25317" lon="6.79582">
        <ele>1595.2</ele>
        <time>2022-03-06T13:01:57Z</time>
      </trkpt>
      <trkpt lat="46.25317" lon="6.79583">
        <ele>1594.8</ele>
        <time>2022-03-06T13:01:58Z</time>
      </trkpt>
      <trkpt lat="46.25317" lon="6.79584">
        <ele>1594.4</ele>
        <time>2022-03-06T13:01:59Z</time>
      </trkpt>
      <trkpt lat="46.25317" lon="6.79585">
        <ele>1594.2</ele>
        <time>2022-03-06T13:02:00Z</time>
      </trkpt>
      <trkpt lat="46.25318" lon="6.79586">
        <ele>1593.8</ele>
        <time>2022-03-06T13:02:01Z</time>
      </trkpt>
      <trkpt lat="46.25318" lon="6.79588">
        <ele>1593.2</ele>
        <time>2022-03-06T13:02:02Z</time>
      </trkpt>
      <trkpt lat="46.25319" lon="6.79589">
        <ele>1592.8</ele>
        <time>2022-03-06T13:02:03Z</time>
      </trkpt>
      <trkpt lat="46.25319" lon="6.7959">
        <ele>1592.8</ele>
        <time>2022-03-06T13:02:04Z</time>
      </trkpt>
      <trkpt lat="46.25319" lon="6.79592">
        <ele>1592.2</ele>
        <time>2022-03-06T13:02:05Z</time>
      </trkpt>
      <trkpt lat="46.2532" lon="6.79593">
        <ele>1591.8</ele>
        <time>2022-03-06T13:02:06Z</time>
      </trkpt>
      <trkpt lat="46.2532" lon="6.79593">
        <ele>1591.4</ele>
        <time>2022-03-06T13:02:07Z</time>
      </trkpt>
      <trkpt lat="46.2532" lon="6.79595">
        <ele>1591</ele>
        <time>2022-03-06T13:02:08Z</time>
      </trkpt>
      <trkpt lat="46.2532" lon="6.79596">
        <ele>1590.6</ele>
        <time>2022-03-06T13:02:09Z</time>
      </trkpt>
      <trkpt lat="46.25321" lon="6.79599">
        <ele>1590.2</ele>
        <time>2022-03-06T13:02:10Z</time>
      </trkpt>
      <trkpt lat="46.25322" lon="6.79605">
        <ele>1588.4</ele>
        <time>2022-03-06T13:02:13Z</time>
      </trkpt>
      <trkpt lat="46.25322" lon="6.79608">
        <ele>1587.6</ele>
        <time>2022-03-06T13:02:15Z</time>
      </trkpt>
      <trkpt lat="46.25322" lon="6.7961">
        <ele>1587</ele>
        <time>2022-03-06T13:02:17Z</time>
      </trkpt>
      <trkpt lat="46.25323" lon="6.79611">
        <ele>1586.6</ele>
        <time>2022-03-06T13:02:18Z</time>
      </trkpt>
      <trkpt lat="46.25323" lon="6.79612">
        <ele>1586.2</ele>
        <time>2022-03-06T13:02:19Z</time>
      </trkpt>
      <trkpt lat="46.25323" lon="6.79612">
        <ele>1586</ele>
        <time>2022-03-06T13:02:20Z</time>
      </trkpt>
      <trkpt lat="46.25323" lon="6.79613">
        <ele>1585.6</ele>
        <time>2022-03-06T13:02:21Z</time>
      </trkpt>
      <trkpt lat="46.25323" lon="6.79614">
        <ele>1585</ele>
        <time>2022-03-06T13:02:22Z</time>
      </trkpt>
      <trkpt lat="46.25323" lon="6.79615">
        <ele>1584.8</ele>
        <time>2022-03-06T13:02:23Z</time>
      </trkpt>
      <trkpt lat="46.25324" lon="6.79616">
        <ele>1584.2</ele>
        <time>2022-03-06T13:02:24Z</time>
      </trkpt>
      <trkpt lat="46.25323" lon="6.79617">
        <ele>1584</ele>
        <time>2022-03-06T13:02:25Z</time>
      </trkpt>
      <trkpt lat="46.25323" lon="6.79619">
        <ele>1583.4</ele>
        <time>2022-03-06T13:02:26Z</time>
      </trkpt>
      <trkpt lat="46.25323" lon="6.79621">
        <ele>1583.4</ele>
        <time>2022-03-06T13:02:27Z</time>
      </trkpt>
      <trkpt lat="46.25322" lon="6.79623">
        <ele>1583</ele>
        <time>2022-03-06T13:02:28Z</time>
      </trkpt>
      <trkpt lat="46.25323" lon="6.79625">
        <ele>1581.8</ele>
        <time>2022-03-06T13:02:30Z</time>
      </trkpt>
      <trkpt lat="46.25323" lon="6.79626">
        <ele>1581.4</ele>
        <time>2022-03-06T13:02:31Z</time>
      </trkpt>
      <trkpt lat="46.25323" lon="6.79627">
        <ele>1581</ele>
        <time>2022-03-06T13:02:32Z</time>
      </trkpt>
      <trkpt lat="46.25322" lon="6.79627">
        <ele>1580.6</ele>
        <time>2022-03-06T13:02:33Z</time>
      </trkpt>
      <trkpt lat="46.25322" lon="6.79627">
        <ele>1580.4</ele>
        <time>2022-03-06T13:02:34Z</time>
      </trkpt>
      <trkpt lat="46.25322" lon="6.79628">
        <ele>1580</ele>
        <time>2022-03-06T13:02:35Z</time>
      </trkpt>
      <trkpt lat="46.25321" lon="6.79628">
        <ele>1579.8</ele>
        <time>2022-03-06T13:02:36Z</time>
      </trkpt>
      <trkpt lat="46.2532" lon="6.79629">
        <ele>1579.2</ele>
        <time>2022-03-06T13:02:38Z</time>
      </trkpt>
      <trkpt lat="46.25317" lon="6.79632">
        <ele>1578.8</ele>
        <time>2022-03-06T13:02:42Z</time>
      </trkpt>
      <trkpt lat="46.25316" lon="6.79635">
        <ele>1578.4</ele>
        <time>2022-03-06T13:02:45Z</time>
      </trkpt>
      <trkpt lat="46.25315" lon="6.79635">
        <ele>1578.2</ele>
        <time>2022-03-06T13:02:46Z</time>
      </trkpt>
      <trkpt lat="46.25314" lon="6.79636">
        <ele>1578.2</ele>
        <time>2022-03-06T13:02:47Z</time>
      </trkpt>
      <trkpt lat="46.25313" lon="6.79641">
        <ele>1577.4</ele>
        <time>2022-03-06T13:02:51Z</time>
      </trkpt>
      <trkpt lat="46.25313" lon="6.79641">
        <ele>1577</ele>
        <time>2022-03-06T13:02:52Z</time>
      </trkpt>
      <trkpt lat="46.25312" lon="6.79643">
        <ele>1576.8</ele>
        <time>2022-03-06T13:02:53Z</time>
      </trkpt>
      <trkpt lat="46.25311" lon="6.79645">
        <ele>1576.6</ele>
        <time>2022-03-06T13:02:54Z</time>
      </trkpt>
      <trkpt lat="46.2531" lon="6.79647">
        <ele>1576</ele>
        <time>2022-03-06T13:02:55Z</time>
      </trkpt>
      <trkpt lat="46.2531" lon="6.79649">
        <ele>1575</ele>
        <time>2022-03-06T13:02:59Z</time>
      </trkpt>
      <trkpt lat="46.25309" lon="6.79651">
        <ele>1574.6</ele>
        <time>2022-03-06T13:03:07Z</time>
      </trkpt>
      <trkpt lat="46.25308" lon="6.79653">
        <ele>1574.6</ele>
        <time>2022-03-06T13:03:10Z</time>
      </trkpt>
      <trkpt lat="46.25307" lon="6.79653">
        <ele>1574.4</ele>
        <time>2022-03-06T13:03:12Z</time>
      </trkpt>
      <trkpt lat="46.25306" lon="6.79654">
        <ele>1574.4</ele>
        <time>2022-03-06T13:03:13Z</time>
      </trkpt>
      <trkpt lat="46.25305" lon="6.79655">
        <ele>1574</ele>
        <time>2022-03-06T13:03:15Z</time>
      </trkpt>
      <trkpt lat="46.25302" lon="6.79658">
        <ele>1572.8</ele>
        <time>2022-03-06T13:03:21Z</time>
      </trkpt>
      <trkpt lat="46.25302" lon="6.79658">
        <ele>1572.6</ele>
        <time>2022-03-06T13:03:22Z</time>
      </trkpt>
      <trkpt lat="46.25302" lon="6.79659">
        <ele>1572.4</ele>
        <time>2022-03-06T13:03:23Z</time>
      </trkpt>
      <trkpt lat="46.25301" lon="6.7966">
        <ele>1572.2</ele>
        <time>2022-03-06T13:03:24Z</time>
      </trkpt>
      <trkpt lat="46.253" lon="6.79661">
        <ele>1572</ele>
        <time>2022-03-06T13:03:25Z</time>
      </trkpt>
      <trkpt lat="46.25298" lon="6.79666">
        <ele>1571.8</ele>
        <time>2022-03-06T13:03:27Z</time>
      </trkpt>
      <trkpt lat="46.25297" lon="6.79668">
        <ele>1571.6</ele>
        <time>2022-03-06T13:03:28Z</time>
      </trkpt>
      <trkpt lat="46.25294" lon="6.79678">
        <ele>1570.8</ele>
        <time>2022-03-06T13:03:34Z</time>
      </trkpt>
      <trkpt lat="46.25294" lon="6.79679">
        <ele>1570.8</ele>
        <time>2022-03-06T13:03:35Z</time>
      </trkpt>
      <trkpt lat="46.25295" lon="6.79681">
        <ele>1570.6</ele>
        <time>2022-03-06T13:03:36Z</time>
      </trkpt>
      <trkpt lat="46.25295" lon="6.79682">
        <ele>1570.4</ele>
        <time>2022-03-06T13:03:37Z</time>
      </trkpt>
      <trkpt lat="46.25295" lon="6.79683">
        <ele>1570.2</ele>
        <time>2022-03-06T13:03:38Z</time>
      </trkpt>
      <trkpt lat="46.25295" lon="6.79683">
        <ele>1570</ele>
        <time>2022-03-06T13:03:39Z</time>
      </trkpt>
      <trkpt lat="46.25297" lon="6.79683">
        <ele>1568.2</ele>
        <time>2022-03-06T13:03:49Z</time>
      </trkpt>
      <trkpt lat="46.25297" lon="6.79683">
        <ele>1568</ele>
        <time>2022-03-06T13:03:50Z</time>
      </trkpt>
      <trkpt lat="46.25303" lon="6.79682">
        <ele>1566.8</ele>
        <time>2022-03-06T13:04:04Z</time>
      </trkpt>
      <trkpt lat="46.25305" lon="6.79693">
        <ele>1566.8</ele>
        <time>2022-03-06T13:04:19Z</time>
      </trkpt>
      <trkpt lat="46.25305" lon="6.79694">
        <ele>1566.8</ele>
        <time>2022-03-06T13:04:20Z</time>
      </trkpt>
      <trkpt lat="46.25304" lon="6.79694">
        <ele>1566.8</ele>
        <time>2022-03-06T13:04:21Z</time>
      </trkpt>
      <trkpt lat="46.25302" lon="6.79703">
        <ele>1566.8</ele>
        <time>2022-03-06T13:04:31Z</time>
      </trkpt>
      <trkpt lat="46.25301" lon="6.79704">
        <ele>1566.6</ele>
        <time>2022-03-06T13:04:32Z</time>
      </trkpt>
      <trkpt lat="46.253" lon="6.79704">
        <ele>1566.8</ele>
        <time>2022-03-06T13:04:33Z</time>
      </trkpt>
      <trkpt lat="46.25299" lon="6.79704">
        <ele>1566.8</ele>
        <time>2022-03-06T13:04:34Z</time>
      </trkpt>
      <trkpt lat="46.25298" lon="6.79706">
        <ele>1567</ele>
        <time>2022-03-06T13:04:36Z</time>
      </trkpt>
      <trkpt lat="46.25297" lon="6.79706">
        <ele>1567</ele>
        <time>2022-03-06T13:04:37Z</time>
      </trkpt>
      <trkpt lat="46.25292" lon="6.7971">
        <ele>1567</ele>
        <time>2022-03-06T13:04:41Z</time>
      </trkpt>
      <trkpt lat="46.2529" lon="6.79711">
        <ele>1567</ele>
        <time>2022-03-06T13:04:42Z</time>
      </trkpt>
      <trkpt lat="46.25289" lon="6.79711">
        <ele>1567</ele>
        <time>2022-03-06T13:04:43Z</time>
      </trkpt>
      <trkpt lat="46.25281" lon="6.79716">
        <ele>1566.8</ele>
        <time>2022-03-06T13:04:49Z</time>
      </trkpt>
      <trkpt lat="46.2528" lon="6.79717">
        <ele>1566.6</ele>
        <time>2022-03-06T13:04:50Z</time>
      </trkpt>
      <trkpt lat="46.25279" lon="6.79717">
        <ele>1566.6</ele>
        <time>2022-03-06T13:04:51Z</time>
      </trkpt>
      <trkpt lat="46.25277" lon="6.79718">
        <ele>1566.4</ele>
        <time>2022-03-06T13:04:52Z</time>
      </trkpt>
      <trkpt lat="46.25274" lon="6.79722">
        <ele>1566</ele>
        <time>2022-03-06T13:04:55Z</time>
      </trkpt>
      <trkpt lat="46.25274" lon="6.79722">
        <ele>1566</ele>
        <time>2022-03-06T13:04:56Z</time>
      </trkpt>
      <trkpt lat="46.25273" lon="6.79722">
        <ele>1566</ele>
        <time>2022-03-06T13:04:57Z</time>
      </trkpt>
      <trkpt lat="46.25272" lon="6.79721">
        <ele>1565.8</ele>
        <time>2022-03-06T13:04:58Z</time>
      </trkpt>
      <trkpt lat="46.25272" lon="6.79721">
        <ele>1565.6</ele>
        <time>2022-03-06T13:04:59Z</time>
      </trkpt>
      <trkpt lat="46.25271" lon="6.79721">
        <ele>1565.6</ele>
        <time>2022-03-06T13:05:00Z</time>
      </trkpt>
      <trkpt lat="46.2527" lon="6.7972">
        <ele>1565.4</ele>
        <time>2022-03-06T13:05:01Z</time>
      </trkpt>
      <trkpt lat="46.25269" lon="6.79719">
        <ele>1565.4</ele>
        <time>2022-03-06T13:05:02Z</time>
      </trkpt>
      <trkpt lat="46.25268" lon="6.79719">
        <ele>1565.4</ele>
        <time>2022-03-06T13:05:03Z</time>
      </trkpt>
      <trkpt lat="46.25268" lon="6.79719">
        <ele>1565.4</ele>
        <time>2022-03-06T13:05:04Z</time>
      </trkpt>
      <trkpt lat="46.25267" lon="6.79719">
        <ele>1565.4</ele>
        <time>2022-03-06T13:05:05Z</time>
      </trkpt>
      <trkpt lat="46.25266" lon="6.79719">
        <ele>1565.4</ele>
        <time>2022-03-06T13:05:06Z</time>
      </trkpt>
      <trkpt lat="46.25266" lon="6.79718">
        <ele>1565.4</ele>
        <time>2022-03-06T13:05:07Z</time>
      </trkpt>
      <trkpt lat="46.25265" lon="6.79718">
        <ele>1565.4</ele>
        <time>2022-03-06T13:05:08Z</time>
      </trkpt>
      <trkpt lat="46.25264" lon="6.79718">
        <ele>1565.2</ele>
        <time>2022-03-06T13:05:09Z</time>
      </trkpt>
      <trkpt lat="46.25263" lon="6.79719">
        <ele>1565.2</ele>
        <time>2022-03-06T13:05:11Z</time>
      </trkpt>
      <trkpt lat="46.25262" lon="6.79719">
        <ele>1565.4</ele>
        <time>2022-03-06T13:05:12Z</time>
      </trkpt>
      <trkpt lat="46.25261" lon="6.79719">
        <ele>1565.2</ele>
        <time>2022-03-06T13:05:13Z</time>
      </trkpt>
      <trkpt lat="46.25261" lon="6.79719">
        <ele>1565.2</ele>
        <time>2022-03-06T13:05:14Z</time>
      </trkpt>
      <trkpt lat="46.2526" lon="6.79719">
        <ele>1565</ele>
        <time>2022-03-06T13:05:15Z</time>
      </trkpt>
      <trkpt lat="46.2526" lon="6.79719">
        <ele>1565.2</ele>
        <time>2022-03-06T13:05:16Z</time>
      </trkpt>
      <trkpt lat="46.25259" lon="6.79719">
        <ele>1565</ele>
        <time>2022-03-06T13:05:17Z</time>
      </trkpt>
      <trkpt lat="46.25258" lon="6.79717">
        <ele>1564.8</ele>
        <time>2022-03-06T13:05:18Z</time>
      </trkpt>
      <trkpt lat="46.25257" lon="6.79716">
        <ele>1564.8</ele>
        <time>2022-03-06T13:05:19Z</time>
      </trkpt>
      <trkpt lat="46.25256" lon="6.79715">
        <ele>1564.6</ele>
        <time>2022-03-06T13:05:20Z</time>
      </trkpt>
      <trkpt lat="46.25256" lon="6.79717">
        <ele>1564.4</ele>
        <time>2022-03-06T13:05:22Z</time>
      </trkpt>
      <trkpt lat="46.25256" lon="6.79719">
        <ele>1564.4</ele>
        <time>2022-03-06T13:05:23Z</time>
      </trkpt>
      <trkpt lat="46.25244" lon="6.79702">
        <ele>1563.8</ele>
        <time>2022-03-06T13:05:34Z</time>
      </trkpt>
      <trkpt lat="46.25239" lon="6.79703">
        <ele>1563.8</ele>
        <time>2022-03-06T13:05:45Z</time>
      </trkpt>
      <trkpt lat="46.25237" lon="6.79704">
        <ele>1563.8</ele>
        <time>2022-03-06T13:05:48Z</time>
      </trkpt>
      <trkpt lat="46.25237" lon="6.79704">
        <ele>1564</ele>
        <time>2022-03-06T13:05:49Z</time>
      </trkpt>
      <trkpt lat="46.25236" lon="6.79705">
        <ele>1563.8</ele>
        <time>2022-03-06T13:05:50Z</time>
      </trkpt>
      <trkpt lat="46.25234" lon="6.79706">
        <ele>1564</ele>
        <time>2022-03-06T13:05:52Z</time>
      </trkpt>
      <trkpt lat="46.25232" lon="6.79707">
        <ele>1563.4</ele>
        <time>2022-03-06T13:05:55Z</time>
      </trkpt>
      <trkpt lat="46.25231" lon="6.79707">
        <ele>1563.2</ele>
        <time>2022-03-06T13:05:56Z</time>
      </trkpt>
      <trkpt lat="46.25228" lon="6.79707">
        <ele>1561.8</ele>
        <time>2022-03-06T13:06:00Z</time>
      </trkpt>
      <trkpt lat="46.25227" lon="6.79707">
        <ele>1561.4</ele>
        <time>2022-03-06T13:06:01Z</time>
      </trkpt>
      <trkpt lat="46.25225" lon="6.79707">
        <ele>1560.2</ele>
        <time>2022-03-06T13:06:04Z</time>
      </trkpt>
      <trkpt lat="46.25224" lon="6.79706">
        <ele>1559.4</ele>
        <time>2022-03-06T13:06:07Z</time>
      </trkpt>
      <trkpt lat="46.25223" lon="6.79706">
        <ele>1559.2</ele>
        <time>2022-03-06T13:06:08Z</time>
      </trkpt>
      <trkpt lat="46.25222" lon="6.79706">
        <ele>1559</ele>
        <time>2022-03-06T13:06:10Z</time>
      </trkpt>
      <trkpt lat="46.25222" lon="6.79706">
        <ele>1558.8</ele>
        <time>2022-03-06T13:06:11Z</time>
      </trkpt>
      <trkpt lat="46.2522" lon="6.79705">
        <ele>1558.8</ele>
        <time>2022-03-06T13:06:13Z</time>
      </trkpt>
      <trkpt lat="46.25219" lon="6.79705">
        <ele>1558.6</ele>
        <time>2022-03-06T13:06:15Z</time>
      </trkpt>
      <trkpt lat="46.25217" lon="6.79704">
        <ele>1558.2</ele>
        <time>2022-03-06T13:06:18Z</time>
      </trkpt>
      <trkpt lat="46.25214" lon="6.79705">
        <ele>1557.4</ele>
        <time>2022-03-06T13:06:21Z</time>
      </trkpt>
      <trkpt lat="46.25212" lon="6.79705">
        <ele>1557</ele>
        <time>2022-03-06T13:06:24Z</time>
      </trkpt>
      <trkpt lat="46.25211" lon="6.79706">
        <ele>1556.2</ele>
        <time>2022-03-06T13:06:26Z</time>
      </trkpt>
      <trkpt lat="46.2521" lon="6.79707">
        <ele>1555.4</ele>
        <time>2022-03-06T13:06:27Z</time>
      </trkpt>
      <trkpt lat="46.25208" lon="6.7971">
        <ele>1554.4</ele>
        <time>2022-03-06T13:06:30Z</time>
      </trkpt>
      <trkpt lat="46.25206" lon="6.79712">
        <ele>1553.2</ele>
        <time>2022-03-06T13:06:33Z</time>
      </trkpt>
      <trkpt lat="46.25205" lon="6.79712">
        <ele>1552.6</ele>
        <time>2022-03-06T13:06:34Z</time>
      </trkpt>
      <trkpt lat="46.25205" lon="6.79712">
        <ele>1552.2</ele>
        <time>2022-03-06T13:06:35Z</time>
      </trkpt>
      <trkpt lat="46.25202" lon="6.79712">
        <ele>1551.6</ele>
        <time>2022-03-06T13:06:38Z</time>
      </trkpt>
      <trkpt lat="46.25201" lon="6.79713">
        <ele>1551.2</ele>
        <time>2022-03-06T13:06:39Z</time>
      </trkpt>
      <trkpt lat="46.25201" lon="6.79713">
        <ele>1550.8</ele>
        <time>2022-03-06T13:06:40Z</time>
      </trkpt>
      <trkpt lat="46.252" lon="6.79713">
        <ele>1550.6</ele>
        <time>2022-03-06T13:06:41Z</time>
      </trkpt>
      <trkpt lat="46.252" lon="6.79714">
        <ele>1550.2</ele>
        <time>2022-03-06T13:06:42Z</time>
      </trkpt>
      <trkpt lat="46.25199" lon="6.79714">
        <ele>1550</ele>
        <time>2022-03-06T13:06:43Z</time>
      </trkpt>
      <trkpt lat="46.25198" lon="6.79715">
        <ele>1549.8</ele>
        <time>2022-03-06T13:06:44Z</time>
      </trkpt>
      <trkpt lat="46.25197" lon="6.79715">
        <ele>1549</ele>
        <time>2022-03-06T13:06:46Z</time>
      </trkpt>
      <trkpt lat="46.25197" lon="6.79715">
        <ele>1548.6</ele>
        <time>2022-03-06T13:06:47Z</time>
      </trkpt>
      <trkpt lat="46.25196" lon="6.79715">
        <ele>1548.6</ele>
        <time>2022-03-06T13:06:48Z</time>
      </trkpt>
      <trkpt lat="46.25195" lon="6.79715">
        <ele>1548.2</ele>
        <time>2022-03-06T13:06:49Z</time>
      </trkpt>
      <trkpt lat="46.25194" lon="6.79715">
        <ele>1548</ele>
        <time>2022-03-06T13:06:50Z</time>
      </trkpt>
      <trkpt lat="46.25193" lon="6.79715">
        <ele>1547.4</ele>
        <time>2022-03-06T13:06:51Z</time>
      </trkpt>
      <trkpt lat="46.25193" lon="6.79715">
        <ele>1547.2</ele>
        <time>2022-03-06T13:06:52Z</time>
      </trkpt>
      <trkpt lat="46.25188" lon="6.79716">
        <ele>1546.4</ele>
        <time>2022-03-06T13:06:56Z</time>
      </trkpt>
      <trkpt lat="46.25185" lon="6.79717">
        <ele>1545.6</ele>
        <time>2022-03-06T13:06:58Z</time>
      </trkpt>
      <trkpt lat="46.25184" lon="6.79717">
        <ele>1545.2</ele>
        <time>2022-03-06T13:06:59Z</time>
      </trkpt>
      <trkpt lat="46.25184" lon="6.79718">
        <ele>1545.2</ele>
        <time>2022-03-06T13:07:00Z</time>
      </trkpt>
      <trkpt lat="46.25182" lon="6.79719">
        <ele>1544.6</ele>
        <time>2022-03-06T13:07:02Z</time>
      </trkpt>
      <trkpt lat="46.2518" lon="6.79719">
        <ele>1543.8</ele>
        <time>2022-03-06T13:07:05Z</time>
      </trkpt>
      <trkpt lat="46.25178" lon="6.7972">
        <ele>1543</ele>
        <time>2022-03-06T13:07:08Z</time>
      </trkpt>
      <trkpt lat="46.25177" lon="6.79721">
        <ele>1543</ele>
        <time>2022-03-06T13:07:09Z</time>
      </trkpt>
      <trkpt lat="46.25176" lon="6.79722">
        <ele>1542.6</ele>
        <time>2022-03-06T13:07:10Z</time>
      </trkpt>
      <trkpt lat="46.25175" lon="6.79722">
        <ele>1542.2</ele>
        <time>2022-03-06T13:07:11Z</time>
      </trkpt>
      <trkpt lat="46.25173" lon="6.79722">
        <ele>1541.8</ele>
        <time>2022-03-06T13:07:13Z</time>
      </trkpt>
      <trkpt lat="46.25172" lon="6.79723">
        <ele>1541.4</ele>
        <time>2022-03-06T13:07:14Z</time>
      </trkpt>
      <trkpt lat="46.25169" lon="6.79723">
        <ele>1540.8</ele>
        <time>2022-03-06T13:07:16Z</time>
      </trkpt>
      <trkpt lat="46.25167" lon="6.79723">
        <ele>1540.6</ele>
        <time>2022-03-06T13:07:17Z</time>
      </trkpt>
      <trkpt lat="46.25164" lon="6.79726">
        <ele>1540</ele>
        <time>2022-03-06T13:07:19Z</time>
      </trkpt>
      <trkpt lat="46.25163" lon="6.79726">
        <ele>1540</ele>
        <time>2022-03-06T13:07:20Z</time>
      </trkpt>
      <trkpt lat="46.25161" lon="6.79727">
        <ele>1539.8</ele>
        <time>2022-03-06T13:07:21Z</time>
      </trkpt>
      <trkpt lat="46.25158" lon="6.79729">
        <ele>1539.4</ele>
        <time>2022-03-06T13:07:24Z</time>
      </trkpt>
      <trkpt lat="46.25153" lon="6.79732">
        <ele>1538.8</ele>
        <time>2022-03-06T13:07:28Z</time>
      </trkpt>
      <trkpt lat="46.25152" lon="6.79732">
        <ele>1538.6</ele>
        <time>2022-03-06T13:07:29Z</time>
      </trkpt>
      <trkpt lat="46.25151" lon="6.79733">
        <ele>1538.4</ele>
        <time>2022-03-06T13:07:30Z</time>
      </trkpt>
      <trkpt lat="46.25147" lon="6.79734">
        <ele>1537.8</ele>
        <time>2022-03-06T13:07:33Z</time>
      </trkpt>
      <trkpt lat="46.25146" lon="6.79734">
        <ele>1537.6</ele>
        <time>2022-03-06T13:07:34Z</time>
      </trkpt>
      <trkpt lat="46.25142" lon="6.79736">
        <ele>1536.6</ele>
        <time>2022-03-06T13:07:38Z</time>
      </trkpt>
      <trkpt lat="46.25141" lon="6.79736">
        <ele>1536.6</ele>
        <time>2022-03-06T13:07:39Z</time>
      </trkpt>
      <trkpt lat="46.2514" lon="6.79737">
        <ele>1536.2</ele>
        <time>2022-03-06T13:07:40Z</time>
      </trkpt>
      <trkpt lat="46.25139" lon="6.79738">
        <ele>1536.2</ele>
        <time>2022-03-06T13:07:41Z</time>
      </trkpt>
      <trkpt lat="46.25138" lon="6.79738">
        <ele>1535.8</ele>
        <time>2022-03-06T13:07:42Z</time>
      </trkpt>
      <trkpt lat="46.25137" lon="6.79739">
        <ele>1535.6</ele>
        <time>2022-03-06T13:07:43Z</time>
      </trkpt>
      <trkpt lat="46.25136" lon="6.79739">
        <ele>1535.2</ele>
        <time>2022-03-06T13:07:44Z</time>
      </trkpt>
      <trkpt lat="46.25134" lon="6.7974">
        <ele>1535</ele>
        <time>2022-03-06T13:07:46Z</time>
      </trkpt>
      <trkpt lat="46.25133" lon="6.7974">
        <ele>1534.6</ele>
        <time>2022-03-06T13:07:47Z</time>
      </trkpt>
      <trkpt lat="46.25132" lon="6.7974">
        <ele>1534.4</ele>
        <time>2022-03-06T13:07:48Z</time>
      </trkpt>
      <trkpt lat="46.2513" lon="6.79742">
        <ele>1533.8</ele>
        <time>2022-03-06T13:07:50Z</time>
      </trkpt>
      <trkpt lat="46.25129" lon="6.79743">
        <ele>1533.6</ele>
        <time>2022-03-06T13:07:51Z</time>
      </trkpt>
      <trkpt lat="46.25127" lon="6.79743">
        <ele>1533</ele>
        <time>2022-03-06T13:07:54Z</time>
      </trkpt>
      <trkpt lat="46.25126" lon="6.79745">
        <ele>1532.6</ele>
        <time>2022-03-06T13:07:55Z</time>
      </trkpt>
      <trkpt lat="46.25126" lon="6.79746">
        <ele>1532.4</ele>
        <time>2022-03-06T13:07:56Z</time>
      </trkpt>
      <trkpt lat="46.25125" lon="6.79747">
        <ele>1532</ele>
        <time>2022-03-06T13:07:57Z</time>
      </trkpt>
      <trkpt lat="46.25125" lon="6.79756">
        <ele>1531.8</ele>
        <time>2022-03-06T13:07:58Z</time>
      </trkpt>
      <trkpt lat="46.25123" lon="6.79758">
        <ele>1531.6</ele>
        <time>2022-03-06T13:07:59Z</time>
      </trkpt>
      <trkpt lat="46.25122" lon="6.79758">
        <ele>1531.4</ele>
        <time>2022-03-06T13:08:00Z</time>
      </trkpt>
      <trkpt lat="46.25119" lon="6.79759">
        <ele>1531.4</ele>
        <time>2022-03-06T13:08:01Z</time>
      </trkpt>
      <trkpt lat="46.25117" lon="6.7976">
        <ele>1531.2</ele>
        <time>2022-03-06T13:08:02Z</time>
      </trkpt>
      <trkpt lat="46.25115" lon="6.7976">
        <ele>1531</ele>
        <time>2022-03-06T13:08:03Z</time>
      </trkpt>
      <trkpt lat="46.25113" lon="6.7976">
        <ele>1530.8</ele>
        <time>2022-03-06T13:08:04Z</time>
      </trkpt>
      <trkpt lat="46.25112" lon="6.7976">
        <ele>1530.6</ele>
        <time>2022-03-06T13:08:05Z</time>
      </trkpt>
      <trkpt lat="46.25111" lon="6.79761">
        <ele>1530.2</ele>
        <time>2022-03-06T13:08:06Z</time>
      </trkpt>
      <trkpt lat="46.25111" lon="6.79762">
        <ele>1530.2</ele>
        <time>2022-03-06T13:08:07Z</time>
      </trkpt>
      <trkpt lat="46.2511" lon="6.79762">
        <ele>1529.8</ele>
        <time>2022-03-06T13:08:08Z</time>
      </trkpt>
      <trkpt lat="46.25109" lon="6.79762">
        <ele>1529.4</ele>
        <time>2022-03-06T13:08:09Z</time>
      </trkpt>
      <trkpt lat="46.25107" lon="6.79762">
        <ele>1529</ele>
        <time>2022-03-06T13:08:11Z</time>
      </trkpt>
      <trkpt lat="46.25104" lon="6.79762">
        <ele>1528.2</ele>
        <time>2022-03-06T13:08:14Z</time>
      </trkpt>
      <trkpt lat="46.25102" lon="6.79762">
        <ele>1528</ele>
        <time>2022-03-06T13:08:15Z</time>
      </trkpt>
      <trkpt lat="46.251" lon="6.79758">
        <ele>1526</ele>
        <time>2022-03-06T13:08:21Z</time>
      </trkpt>
      <trkpt lat="46.25099" lon="6.79758">
        <ele>1525.8</ele>
        <time>2022-03-06T13:08:22Z</time>
      </trkpt>
      <trkpt lat="46.25095" lon="6.79759">
        <ele>1525.2</ele>
        <time>2022-03-06T13:08:28Z</time>
      </trkpt>
      <trkpt lat="46.25095" lon="6.79759">
        <ele>1525</ele>
        <time>2022-03-06T13:08:29Z</time>
      </trkpt>
      <trkpt lat="46.25094" lon="6.79759">
        <ele>1525</ele>
        <time>2022-03-06T13:08:30Z</time>
      </trkpt>
      <trkpt lat="46.25093" lon="6.7976">
        <ele>1525</ele>
        <time>2022-03-06T13:08:32Z</time>
      </trkpt>
      <trkpt lat="46.25092" lon="6.7976">
        <ele>1524.6</ele>
        <time>2022-03-06T13:08:33Z</time>
      </trkpt>
      <trkpt lat="46.2509" lon="6.7976">
        <ele>1524.6</ele>
        <time>2022-03-06T13:08:34Z</time>
      </trkpt>
      <trkpt lat="46.25089" lon="6.7976">
        <ele>1524.2</ele>
        <time>2022-03-06T13:08:35Z</time>
      </trkpt>
      <trkpt lat="46.25088" lon="6.7976">
        <ele>1524.2</ele>
        <time>2022-03-06T13:08:36Z</time>
      </trkpt>
      <trkpt lat="46.25088" lon="6.7976">
        <ele>1524.2</ele>
        <time>2022-03-06T13:08:37Z</time>
      </trkpt>
      <trkpt lat="46.25088" lon="6.79761">
        <ele>1524</ele>
        <time>2022-03-06T13:08:38Z</time>
      </trkpt>
      <trkpt lat="46.25087" lon="6.79761">
        <ele>1523.8</ele>
        <time>2022-03-06T13:08:39Z</time>
      </trkpt>
      <trkpt lat="46.25087" lon="6.79762">
        <ele>1523.4</ele>
        <time>2022-03-06T13:08:42Z</time>
      </trkpt>
      <trkpt lat="46.25085" lon="6.79765">
        <ele>1522</ele>
        <time>2022-03-06T13:08:47Z</time>
      </trkpt>
      <trkpt lat="46.25083" lon="6.79767">
        <ele>1521</ele>
        <time>2022-03-06T13:08:50Z</time>
      </trkpt>
      <trkpt lat="46.25081" lon="6.7977">
        <ele>1520.4</ele>
        <time>2022-03-06T13:08:53Z</time>
      </trkpt>
      <trkpt lat="46.25079" lon="6.7977">
        <ele>1520</ele>
        <time>2022-03-06T13:08:55Z</time>
      </trkpt>
      <trkpt lat="46.25078" lon="6.79771">
        <ele>1519.8</ele>
        <time>2022-03-06T13:08:56Z</time>
      </trkpt>
      <trkpt lat="46.2507" lon="6.79772">
        <ele>1517.2</ele>
        <time>2022-03-06T13:09:03Z</time>
      </trkpt>
      <trkpt lat="46.25068" lon="6.79773">
        <ele>1516</ele>
        <time>2022-03-06T13:09:06Z</time>
      </trkpt>
      <trkpt lat="46.25068" lon="6.79774">
        <ele>1515.8</ele>
        <time>2022-03-06T13:09:07Z</time>
      </trkpt>
      <trkpt lat="46.25067" lon="6.79774">
        <ele>1515.6</ele>
        <time>2022-03-06T13:09:08Z</time>
      </trkpt>
      <trkpt lat="46.25066" lon="6.79774">
        <ele>1515.2</ele>
        <time>2022-03-06T13:09:09Z</time>
      </trkpt>
      <trkpt lat="46.25057" lon="6.79782">
        <ele>1514.6</ele>
        <time>2022-03-06T13:09:15Z</time>
      </trkpt>
      <trkpt lat="46.25054" lon="6.79784">
        <ele>1514.2</ele>
        <time>2022-03-06T13:09:18Z</time>
      </trkpt>
      <trkpt lat="46.25048" lon="6.79785">
        <ele>1512.6</ele>
        <time>2022-03-06T13:09:24Z</time>
      </trkpt>
      <trkpt lat="46.25042" lon="6.79787">
        <ele>1510.6</ele>
        <time>2022-03-06T13:09:29Z</time>
      </trkpt>
      <trkpt lat="46.25042" lon="6.79788">
        <ele>1510.2</ele>
        <time>2022-03-06T13:09:31Z</time>
      </trkpt>
      <trkpt lat="46.2504" lon="6.79791">
        <ele>1509.4</ele>
        <time>2022-03-06T13:09:35Z</time>
      </trkpt>
      <trkpt lat="46.25037" lon="6.79794">
        <ele>1507.8</ele>
        <time>2022-03-06T13:09:43Z</time>
      </trkpt>
      <trkpt lat="46.25035" lon="6.79797">
        <ele>1507.2</ele>
        <time>2022-03-06T13:09:48Z</time>
      </trkpt>
      <trkpt lat="46.25032" lon="6.79798">
        <ele>1506.8</ele>
        <time>2022-03-06T13:09:52Z</time>
      </trkpt>
      <trkpt lat="46.25026" lon="6.79802">
        <ele>1506</ele>
        <time>2022-03-06T13:09:58Z</time>
      </trkpt>
      <trkpt lat="46.2502" lon="6.7981">
        <ele>1504.2</ele>
        <time>2022-03-06T13:10:09Z</time>
      </trkpt>
      <trkpt lat="46.25018" lon="6.79811">
        <ele>1504</ele>
        <time>2022-03-06T13:10:10Z</time>
      </trkpt>
      <trkpt lat="46.25016" lon="6.79811">
        <ele>1504</ele>
        <time>2022-03-06T13:10:14Z</time>
      </trkpt>
      <trkpt lat="46.25015" lon="6.79811">
        <ele>1504</ele>
        <time>2022-03-06T13:10:15Z</time>
      </trkpt>
      <trkpt lat="46.25014" lon="6.79813">
        <ele>1503.8</ele>
        <time>2022-03-06T13:10:18Z</time>
      </trkpt>
      <trkpt lat="46.2501" lon="6.79816">
        <ele>1502.8</ele>
        <time>2022-03-06T13:10:24Z</time>
      </trkpt>
      <trkpt lat="46.2501" lon="6.79817">
        <ele>1502.4</ele>
        <time>2022-03-06T13:10:25Z</time>
      </trkpt>
      <trkpt lat="46.25008" lon="6.79819">
        <ele>1501.6</ele>
        <time>2022-03-06T13:10:28Z</time>
      </trkpt>
      <trkpt lat="46.25006" lon="6.79822">
        <ele>1500.2</ele>
        <time>2022-03-06T13:10:34Z</time>
      </trkpt>
      <trkpt lat="46.25004" lon="6.79825">
        <ele>1498.6</ele>
        <time>2022-03-06T13:10:40Z</time>
      </trkpt>
      <trkpt lat="46.25003" lon="6.7983">
        <ele>1497.8</ele>
        <time>2022-03-06T13:10:46Z</time>
      </trkpt>
      <trkpt lat="46.25002" lon="6.79831">
        <ele>1497.2</ele>
        <time>2022-03-06T13:10:48Z</time>
      </trkpt>
      <trkpt lat="46.25002" lon="6.79832">
        <ele>1497</ele>
        <time>2022-03-06T13:10:49Z</time>
      </trkpt>
      <trkpt lat="46.25001" lon="6.79846">
        <ele>1496.8</ele>
        <time>2022-03-06T13:10:51Z</time>
      </trkpt>
      <trkpt lat="46.24999" lon="6.79853">
        <ele>1496.6</ele>
        <time>2022-03-06T13:10:52Z</time>
      </trkpt>
      <trkpt lat="46.24997" lon="6.79859">
        <ele>1496</ele>
        <time>2022-03-06T13:10:54Z</time>
      </trkpt>
      <trkpt lat="46.24996" lon="6.7986">
        <ele>1495.8</ele>
        <time>2022-03-06T13:10:55Z</time>
      </trkpt>
      <trkpt lat="46.24995" lon="6.79862">
        <ele>1495.6</ele>
        <time>2022-03-06T13:10:56Z</time>
      </trkpt>
      <trkpt lat="46.24994" lon="6.79864">
        <ele>1495.4</ele>
        <time>2022-03-06T13:10:57Z</time>
      </trkpt>
      <trkpt lat="46.24993" lon="6.79865">
        <ele>1495.2</ele>
        <time>2022-03-06T13:10:58Z</time>
      </trkpt>
      <trkpt lat="46.24993" lon="6.79865">
        <ele>1495</ele>
        <time>2022-03-06T13:10:59Z</time>
      </trkpt>
      <trkpt lat="46.24988" lon="6.79868">
        <ele>1494.4</ele>
        <time>2022-03-06T13:11:03Z</time>
      </trkpt>
      <trkpt lat="46.24986" lon="6.79868">
        <ele>1494</ele>
        <time>2022-03-06T13:11:04Z</time>
      </trkpt>
      <trkpt lat="46.24986" lon="6.79868">
        <ele>1494</ele>
        <time>2022-03-06T13:11:05Z</time>
      </trkpt>
      <trkpt lat="46.2498" lon="6.7987">
        <ele>1493.4</ele>
        <time>2022-03-06T13:11:09Z</time>
      </trkpt>
      <trkpt lat="46.24979" lon="6.7987">
        <ele>1493</ele>
        <time>2022-03-06T13:11:10Z</time>
      </trkpt>
      <trkpt lat="46.24978" lon="6.7987">
        <ele>1493</ele>
        <time>2022-03-06T13:11:11Z</time>
      </trkpt>
      <trkpt lat="46.24977" lon="6.7987">
        <ele>1492.8</ele>
        <time>2022-03-06T13:11:12Z</time>
      </trkpt>
      <trkpt lat="46.24975" lon="6.79871">
        <ele>1492.6</ele>
        <time>2022-03-06T13:11:14Z</time>
      </trkpt>
      <trkpt lat="46.24971" lon="6.79873">
        <ele>1492</ele>
        <time>2022-03-06T13:11:16Z</time>
      </trkpt>
      <trkpt lat="46.24969" lon="6.79874">
        <ele>1491.8</ele>
        <time>2022-03-06T13:11:17Z</time>
      </trkpt>
      <trkpt lat="46.2496" lon="6.79877">
        <ele>1490.4</ele>
        <time>2022-03-06T13:11:24Z</time>
      </trkpt>
      <trkpt lat="46.24952" lon="6.79877">
        <ele>1489.2</ele>
        <time>2022-03-06T13:11:30Z</time>
      </trkpt>
      <trkpt lat="46.24949" lon="6.79878">
        <ele>1488.4</ele>
        <time>2022-03-06T13:11:36Z</time>
      </trkpt>
      <trkpt lat="46.24947" lon="6.79878">
        <ele>1487.8</ele>
        <time>2022-03-06T13:11:41Z</time>
      </trkpt>
      <trkpt lat="46.24945" lon="6.79879">
        <ele>1487.4</ele>
        <time>2022-03-06T13:11:45Z</time>
      </trkpt>
      <trkpt lat="46.24944" lon="6.79879">
        <ele>1487</ele>
        <time>2022-03-06T13:11:47Z</time>
      </trkpt>
      <trkpt lat="46.24938" lon="6.79881">
        <ele>1485.8</ele>
        <time>2022-03-06T13:11:52Z</time>
      </trkpt>
      <trkpt lat="46.24937" lon="6.79882">
        <ele>1485.8</ele>
        <time>2022-03-06T13:11:53Z</time>
      </trkpt>
      <trkpt lat="46.24936" lon="6.79883">
        <ele>1485.8</ele>
        <time>2022-03-06T13:11:54Z</time>
      </trkpt>
      <trkpt lat="46.24928" lon="6.79888">
        <ele>1485.2</ele>
        <time>2022-03-06T13:11:57Z</time>
      </trkpt>
      <trkpt lat="46.24927" lon="6.79888">
        <ele>1484.8</ele>
        <time>2022-03-06T13:11:58Z</time>
      </trkpt>
      <trkpt lat="46.24922" lon="6.79891">
        <ele>1484.2</ele>
        <time>2022-03-06T13:12:01Z</time>
      </trkpt>
      <trkpt lat="46.2492" lon="6.79892">
        <ele>1484</ele>
        <time>2022-03-06T13:12:03Z</time>
      </trkpt>
      <trkpt lat="46.24919" lon="6.79892">
        <ele>1483.8</ele>
        <time>2022-03-06T13:12:04Z</time>
      </trkpt>
      <trkpt lat="46.24918" lon="6.79893">
        <ele>1483.6</ele>
        <time>2022-03-06T13:12:05Z</time>
      </trkpt>
      <trkpt lat="46.2491" lon="6.799">
        <ele>1482.8</ele>
        <time>2022-03-06T13:12:13Z</time>
      </trkpt>
      <trkpt lat="46.24909" lon="6.79901">
        <ele>1482.6</ele>
        <time>2022-03-06T13:12:14Z</time>
      </trkpt>
      <trkpt lat="46.249" lon="6.79908">
        <ele>1481.4</ele>
        <time>2022-03-06T13:12:27Z</time>
      </trkpt>
      <trkpt lat="46.24891" lon="6.79911">
        <ele>1481</ele>
        <time>2022-03-06T13:12:34Z</time>
      </trkpt>
      <trkpt lat="46.2489" lon="6.7991">
        <ele>1481</ele>
        <time>2022-03-06T13:12:36Z</time>
      </trkpt>
      <trkpt lat="46.24889" lon="6.7991">
        <ele>1481</ele>
        <time>2022-03-06T13:12:37Z</time>
      </trkpt>
      <trkpt lat="46.24888" lon="6.7991">
        <ele>1480.8</ele>
        <time>2022-03-06T13:12:38Z</time>
      </trkpt>
      <trkpt lat="46.24885" lon="6.79911">
        <ele>1480.8</ele>
        <time>2022-03-06T13:12:40Z</time>
      </trkpt>
      <trkpt lat="46.24884" lon="6.79911">
        <ele>1480.8</ele>
        <time>2022-03-06T13:12:41Z</time>
      </trkpt>
      <trkpt lat="46.24884" lon="6.79912">
        <ele>1480.8</ele>
        <time>2022-03-06T13:12:42Z</time>
      </trkpt>
      <trkpt lat="46.24883" lon="6.79912">
        <ele>1480.6</ele>
        <time>2022-03-06T13:12:43Z</time>
      </trkpt>
      <trkpt lat="46.24883" lon="6.79912">
        <ele>1480.4</ele>
        <time>2022-03-06T13:12:44Z</time>
      </trkpt>
      <trkpt lat="46.24883" lon="6.79912">
        <ele>1480.2</ele>
        <time>2022-03-06T13:12:45Z</time>
      </trkpt>
      <trkpt lat="46.24882" lon="6.79912">
        <ele>1480</ele>
        <time>2022-03-06T13:12:46Z</time>
      </trkpt>
      <trkpt lat="46.24881" lon="6.79912">
        <ele>1479.6</ele>
        <time>2022-03-06T13:12:47Z</time>
      </trkpt>
      <trkpt lat="46.24881" lon="6.79912">
        <ele>1479.4</ele>
        <time>2022-03-06T13:12:48Z</time>
      </trkpt>
      <trkpt lat="46.2488" lon="6.79912">
        <ele>1479.2</ele>
        <time>2022-03-06T13:12:49Z</time>
      </trkpt>
      <trkpt lat="46.24878" lon="6.79912">
        <ele>1478.8</ele>
        <time>2022-03-06T13:12:50Z</time>
      </trkpt>
      <trkpt lat="46.24877" lon="6.79912">
        <ele>1478.4</ele>
        <time>2022-03-06T13:12:52Z</time>
      </trkpt>
      <trkpt lat="46.24876" lon="6.79912">
        <ele>1478.2</ele>
        <time>2022-03-06T13:12:53Z</time>
      </trkpt>
      <trkpt lat="46.24865" lon="6.79912">
        <ele>1476</ele>
        <time>2022-03-06T13:13:09Z</time>
      </trkpt>
      <trkpt lat="46.24862" lon="6.79912">
        <ele>1476</ele>
        <time>2022-03-06T13:13:14Z</time>
      </trkpt>
      <trkpt lat="46.24861" lon="6.79911">
        <ele>1475.8</ele>
        <time>2022-03-06T13:13:15Z</time>
      </trkpt>
      <trkpt lat="46.2486" lon="6.79911">
        <ele>1475.8</ele>
        <time>2022-03-06T13:13:17Z</time>
      </trkpt>
      <trkpt lat="46.24861" lon="6.79911">
        <ele>1475.8</ele>
        <time>2022-03-06T13:13:18Z</time>
      </trkpt>
      <trkpt lat="46.24861" lon="6.7991">
        <ele>1475.8</ele>
        <time>2022-03-06T13:13:19Z</time>
      </trkpt>
      <trkpt lat="46.24861" lon="6.79909">
        <ele>1475.6</ele>
        <time>2022-03-06T13:13:20Z</time>
      </trkpt>
      <trkpt lat="46.2486" lon="6.79909">
        <ele>1475.4</ele>
        <time>2022-03-06T13:13:21Z</time>
      </trkpt>
      <trkpt lat="46.24861" lon="6.79909">
        <ele>1475</ele>
        <time>2022-03-06T13:13:22Z</time>
      </trkpt>
      <trkpt lat="46.2486" lon="6.79906">
        <ele>1474.6</ele>
        <time>2022-03-06T13:13:24Z</time>
      </trkpt>
      <trkpt lat="46.2486" lon="6.79906">
        <ele>1474.6</ele>
        <time>2022-03-06T13:13:25Z</time>
      </trkpt>
      <trkpt lat="46.24858" lon="6.799">
        <ele>1474</ele>
        <time>2022-03-06T13:13:28Z</time>
      </trkpt>
      <trkpt lat="46.24858" lon="6.79899">
        <ele>1473.6</ele>
        <time>2022-03-06T13:13:29Z</time>
      </trkpt>
      <trkpt lat="46.24859" lon="6.79898">
        <ele>1473.4</ele>
        <time>2022-03-06T13:13:30Z</time>
      </trkpt>
      <trkpt lat="46.24859" lon="6.79898">
        <ele>1473</ele>
        <time>2022-03-06T13:13:31Z</time>
      </trkpt>
      <trkpt lat="46.24857" lon="6.79883">
        <ele>1469.2</ele>
        <time>2022-03-06T13:13:44Z</time>
      </trkpt>
      <trkpt lat="46.24857" lon="6.79879">
        <ele>1469</ele>
        <time>2022-03-06T13:13:52Z</time>
      </trkpt>
      <trkpt lat="46.24859" lon="6.79878">
        <ele>1468.2</ele>
        <time>2022-03-06T13:13:57Z</time>
      </trkpt>
      <trkpt lat="46.24858" lon="6.79879">
        <ele>1468</ele>
        <time>2022-03-06T13:13:58Z</time>
      </trkpt>
      <trkpt lat="46.24857" lon="6.79879">
        <ele>1467.2</ele>
        <time>2022-03-06T13:14:04Z</time>
      </trkpt>
      <trkpt lat="46.24856" lon="6.79881">
        <ele>1466.4</ele>
        <time>2022-03-06T13:14:08Z</time>
      </trkpt>
      <trkpt lat="46.24856" lon="6.79881">
        <ele>1466</ele>
        <time>2022-03-06T13:14:09Z</time>
      </trkpt>
      <trkpt lat="46.24852" lon="6.79888">
        <ele>1464.6</ele>
        <time>2022-03-06T13:14:21Z</time>
      </trkpt>
      <trkpt lat="46.24851" lon="6.79888">
        <ele>1464.6</ele>
        <time>2022-03-06T13:14:32Z</time>
      </trkpt>
      <trkpt lat="46.24851" lon="6.79891">
        <ele>1464.4</ele>
        <time>2022-03-06T13:14:44Z</time>
      </trkpt>
      <trkpt lat="46.24851" lon="6.79892">
        <ele>1464.4</ele>
        <time>2022-03-06T13:14:45Z</time>
      </trkpt>
      <trkpt lat="46.24851" lon="6.79892">
        <ele>1464.4</ele>
        <time>2022-03-06T13:14:46Z</time>
      </trkpt>
      <trkpt lat="46.2485" lon="6.79899">
        <ele>1463.8</ele>
        <time>2022-03-06T13:14:59Z</time>
      </trkpt>
      <trkpt lat="46.24846" lon="6.799">
        <ele>1463.4</ele>
        <time>2022-03-06T13:15:15Z</time>
      </trkpt>
      <trkpt lat="46.24845" lon="6.79903">
        <ele>1463.4</ele>
        <time>2022-03-06T13:15:20Z</time>
      </trkpt>
      <trkpt lat="46.24841" lon="6.79909">
        <ele>1463.4</ele>
        <time>2022-03-06T13:15:25Z</time>
      </trkpt>
      <trkpt lat="46.2484" lon="6.79911">
        <ele>1463.4</ele>
        <time>2022-03-06T13:15:26Z</time>
      </trkpt>
      <trkpt lat="46.2484" lon="6.79912">
        <ele>1463.2</ele>
        <time>2022-03-06T13:15:27Z</time>
      </trkpt>
      <trkpt lat="46.2484" lon="6.79913">
        <ele>1462.8</ele>
        <time>2022-03-06T13:15:28Z</time>
      </trkpt>
      <trkpt lat="46.2484" lon="6.79913">
        <ele>1462.4</ele>
        <time>2022-03-06T13:15:30Z</time>
      </trkpt>
      <trkpt lat="46.24839" lon="6.79917">
        <ele>1461.6</ele>
        <time>2022-03-06T13:15:34Z</time>
      </trkpt>
      <trkpt lat="46.2484" lon="6.7992">
        <ele>1461</ele>
        <time>2022-03-06T13:15:36Z</time>
      </trkpt>
      <trkpt lat="46.2484" lon="6.79921">
        <ele>1460.8</ele>
        <time>2022-03-06T13:15:37Z</time>
      </trkpt>
      <trkpt lat="46.2484" lon="6.79923">
        <ele>1460.6</ele>
        <time>2022-03-06T13:15:39Z</time>
      </trkpt>
      <trkpt lat="46.2484" lon="6.79924">
        <ele>1460.6</ele>
        <time>2022-03-06T13:15:40Z</time>
      </trkpt>
      <trkpt lat="46.2484" lon="6.79925">
        <ele>1460.4</ele>
        <time>2022-03-06T13:15:41Z</time>
      </trkpt>
      <trkpt lat="46.2484" lon="6.79926">
        <ele>1460.4</ele>
        <time>2022-03-06T13:15:42Z</time>
      </trkpt>
      <trkpt lat="46.2484" lon="6.79927">
        <ele>1460.4</ele>
        <time>2022-03-06T13:15:43Z</time>
      </trkpt>
      <trkpt lat="46.24839" lon="6.79928">
        <ele>1460.2</ele>
        <time>2022-03-06T13:15:44Z</time>
      </trkpt>
      <trkpt lat="46.2484" lon="6.79929">
        <ele>1460</ele>
        <time>2022-03-06T13:15:45Z</time>
      </trkpt>
      <trkpt lat="46.24843" lon="6.79931">
        <ele>1459.4</ele>
        <time>2022-03-06T13:15:47Z</time>
      </trkpt>
      <trkpt lat="46.24849" lon="6.79939">
        <ele>1457.8</ele>
        <time>2022-03-06T13:15:51Z</time>
      </trkpt>
      <trkpt lat="46.24852" lon="6.79943">
        <ele>1457</ele>
        <time>2022-03-06T13:15:55Z</time>
      </trkpt>
      <trkpt lat="46.24854" lon="6.79944">
        <ele>1456.4</ele>
        <time>2022-03-06T13:15:57Z</time>
      </trkpt>
      <trkpt lat="46.24854" lon="6.79946">
        <ele>1456.2</ele>
        <time>2022-03-06T13:15:58Z</time>
      </trkpt>
      <trkpt lat="46.24855" lon="6.79948">
        <ele>1455.8</ele>
        <time>2022-03-06T13:15:59Z</time>
      </trkpt>
      <trkpt lat="46.24855" lon="6.79949">
        <ele>1455.6</ele>
        <time>2022-03-06T13:16:00Z</time>
      </trkpt>
      <trkpt lat="46.24855" lon="6.79951">
        <ele>1454.8</ele>
        <time>2022-03-06T13:16:02Z</time>
      </trkpt>
      <trkpt lat="46.24855" lon="6.79952">
        <ele>1454.6</ele>
        <time>2022-03-06T13:16:03Z</time>
      </trkpt>
      <trkpt lat="46.24859" lon="6.79955">
        <ele>1454</ele>
        <time>2022-03-06T13:16:07Z</time>
      </trkpt>
      <trkpt lat="46.2486" lon="6.79956">
        <ele>1453.6</ele>
        <time>2022-03-06T13:16:08Z</time>
      </trkpt>
      <trkpt lat="46.24861" lon="6.79956">
        <ele>1453.2</ele>
        <time>2022-03-06T13:16:09Z</time>
      </trkpt>
      <trkpt lat="46.24862" lon="6.79957">
        <ele>1452.8</ele>
        <time>2022-03-06T13:16:10Z</time>
      </trkpt>
      <trkpt lat="46.24863" lon="6.79958">
        <ele>1452.4</ele>
        <time>2022-03-06T13:16:11Z</time>
      </trkpt>
      <trkpt lat="46.24864" lon="6.79959">
        <ele>1452</ele>
        <time>2022-03-06T13:16:12Z</time>
      </trkpt>
      <trkpt lat="46.24865" lon="6.79961">
        <ele>1451.8</ele>
        <time>2022-03-06T13:16:14Z</time>
      </trkpt>
      <trkpt lat="46.24865" lon="6.79962">
        <ele>1451.4</ele>
        <time>2022-03-06T13:16:15Z</time>
      </trkpt>
      <trkpt lat="46.24865" lon="6.79964">
        <ele>1451.2</ele>
        <time>2022-03-06T13:16:16Z</time>
      </trkpt>
      <trkpt lat="46.24865" lon="6.79966">
        <ele>1451</ele>
        <time>2022-03-06T13:16:17Z</time>
      </trkpt>
      <trkpt lat="46.24866" lon="6.79967">
        <ele>1450.8</ele>
        <time>2022-03-06T13:16:18Z</time>
      </trkpt>
      <trkpt lat="46.24866" lon="6.79967">
        <ele>1450.4</ele>
        <time>2022-03-06T13:16:19Z</time>
      </trkpt>
      <trkpt lat="46.24867" lon="6.79968">
        <ele>1450.2</ele>
        <time>2022-03-06T13:16:20Z</time>
      </trkpt>
      <trkpt lat="46.24867" lon="6.79969">
        <ele>1449.8</ele>
        <time>2022-03-06T13:16:21Z</time>
      </trkpt>
      <trkpt lat="46.24868" lon="6.79969">
        <ele>1449.6</ele>
        <time>2022-03-06T13:16:22Z</time>
      </trkpt>
      <trkpt lat="46.2487" lon="6.79969">
        <ele>1449.4</ele>
        <time>2022-03-06T13:16:23Z</time>
      </trkpt>
      <trkpt lat="46.24871" lon="6.7997">
        <ele>1449.2</ele>
        <time>2022-03-06T13:16:24Z</time>
      </trkpt>
      <trkpt lat="46.24872" lon="6.7997">
        <ele>1449</ele>
        <time>2022-03-06T13:16:25Z</time>
      </trkpt>
      <trkpt lat="46.24873" lon="6.7997">
        <ele>1448.6</ele>
        <time>2022-03-06T13:16:26Z</time>
      </trkpt>
      <trkpt lat="46.24874" lon="6.7997">
        <ele>1448.6</ele>
        <time>2022-03-06T13:16:27Z</time>
      </trkpt>
      <trkpt lat="46.24875" lon="6.7997">
        <ele>1448.4</ele>
        <time>2022-03-06T13:16:28Z</time>
      </trkpt>
      <trkpt lat="46.24876" lon="6.7997">
        <ele>1448</ele>
        <time>2022-03-06T13:16:29Z</time>
      </trkpt>
      <trkpt lat="46.24877" lon="6.79969">
        <ele>1447.8</ele>
        <time>2022-03-06T13:16:30Z</time>
      </trkpt>
      <trkpt lat="46.2488" lon="6.79969">
        <ele>1447.6</ele>
        <time>2022-03-06T13:16:31Z</time>
      </trkpt>
      <trkpt lat="46.24883" lon="6.7997">
        <ele>1446.6</ele>
        <time>2022-03-06T13:16:34Z</time>
      </trkpt>
      <trkpt lat="46.24882" lon="6.7997">
        <ele>1446.2</ele>
        <time>2022-03-06T13:16:35Z</time>
      </trkpt>
      <trkpt lat="46.24882" lon="6.79971">
        <ele>1445.6</ele>
        <time>2022-03-06T13:16:36Z</time>
      </trkpt>
      <trkpt lat="46.24882" lon="6.79971">
        <ele>1445.4</ele>
        <time>2022-03-06T13:16:37Z</time>
      </trkpt>
      <trkpt lat="46.24881" lon="6.79972">
        <ele>1445.2</ele>
        <time>2022-03-06T13:16:38Z</time>
      </trkpt>
      <trkpt lat="46.2488" lon="6.79972">
        <ele>1444.8</ele>
        <time>2022-03-06T13:16:39Z</time>
      </trkpt>
      <trkpt lat="46.2488" lon="6.79972">
        <ele>1444.2</ele>
        <time>2022-03-06T13:16:41Z</time>
      </trkpt>
      <trkpt lat="46.24881" lon="6.79975">
        <ele>1443.2</ele>
        <time>2022-03-06T13:16:44Z</time>
      </trkpt>
      <trkpt lat="46.24884" lon="6.79979">
        <ele>1442</ele>
        <time>2022-03-06T13:16:47Z</time>
      </trkpt>
      <trkpt lat="46.24885" lon="6.79985">
        <ele>1441</ele>
        <time>2022-03-06T13:16:51Z</time>
      </trkpt>
      <trkpt lat="46.24885" lon="6.79986">
        <ele>1440.4</ele>
        <time>2022-03-06T13:16:52Z</time>
      </trkpt>
      <trkpt lat="46.24884" lon="6.79987">
        <ele>1440</ele>
        <time>2022-03-06T13:16:53Z</time>
      </trkpt>
      <trkpt lat="46.24883" lon="6.79988">
        <ele>1439.6</ele>
        <time>2022-03-06T13:16:54Z</time>
      </trkpt>
      <trkpt lat="46.24882" lon="6.79989">
        <ele>1439.4</ele>
        <time>2022-03-06T13:16:55Z</time>
      </trkpt>
      <trkpt lat="46.24881" lon="6.79989">
        <ele>1438.4</ele>
        <time>2022-03-06T13:16:57Z</time>
      </trkpt>
      <trkpt lat="46.24881" lon="6.7999">
        <ele>1437.4</ele>
        <time>2022-03-06T13:17:00Z</time>
      </trkpt>
      <trkpt lat="46.24883" lon="6.79991">
        <ele>1435.6</ele>
        <time>2022-03-06T13:17:04Z</time>
      </trkpt>
      <trkpt lat="46.24884" lon="6.79992">
        <ele>1435.2</ele>
        <time>2022-03-06T13:17:05Z</time>
      </trkpt>
      <trkpt lat="46.24884" lon="6.79993">
        <ele>1434.8</ele>
        <time>2022-03-06T13:17:06Z</time>
      </trkpt>
      <trkpt lat="46.24884" lon="6.79993">
        <ele>1434.6</ele>
        <time>2022-03-06T13:17:07Z</time>
      </trkpt>
      <trkpt lat="46.24886" lon="6.79997">
        <ele>1433.6</ele>
        <time>2022-03-06T13:17:09Z</time>
      </trkpt>
      <trkpt lat="46.24888" lon="6.80006">
        <ele>1432.4</ele>
        <time>2022-03-06T13:17:14Z</time>
      </trkpt>
      <trkpt lat="46.24888" lon="6.80007">
        <ele>1432.2</ele>
        <time>2022-03-06T13:17:15Z</time>
      </trkpt>
      <trkpt lat="46.24888" lon="6.80007">
        <ele>1432</ele>
        <time>2022-03-06T13:17:16Z</time>
      </trkpt>
      <trkpt lat="46.2489" lon="6.80009">
        <ele>1431.6</ele>
        <time>2022-03-06T13:17:17Z</time>
      </trkpt>
      <trkpt lat="46.24892" lon="6.80012">
        <ele>1431.2</ele>
        <time>2022-03-06T13:17:19Z</time>
      </trkpt>
      <trkpt lat="46.24892" lon="6.80015">
        <ele>1430.8</ele>
        <time>2022-03-06T13:17:21Z</time>
      </trkpt>
      <trkpt lat="46.24896" lon="6.80012">
        <ele>1430.4</ele>
        <time>2022-03-06T13:17:22Z</time>
      </trkpt>
      <trkpt lat="46.24899" lon="6.80014">
        <ele>1430</ele>
        <time>2022-03-06T13:17:23Z</time>
      </trkpt>
      <trkpt lat="46.249" lon="6.80016">
        <ele>1429.8</ele>
        <time>2022-03-06T13:17:24Z</time>
      </trkpt>
      <trkpt lat="46.24901" lon="6.80016">
        <ele>1429.8</ele>
        <time>2022-03-06T13:17:25Z</time>
      </trkpt>
      <trkpt lat="46.24901" lon="6.80017">
        <ele>1429</ele>
        <time>2022-03-06T13:17:27Z</time>
      </trkpt>
      <trkpt lat="46.24901" lon="6.80018">
        <ele>1428.8</ele>
        <time>2022-03-06T13:17:28Z</time>
      </trkpt>
      <trkpt lat="46.24902" lon="6.8002">
        <ele>1428.6</ele>
        <time>2022-03-06T13:17:29Z</time>
      </trkpt>
      <trkpt lat="46.24903" lon="6.80021">
        <ele>1428.2</ele>
        <time>2022-03-06T13:17:30Z</time>
      </trkpt>
      <trkpt lat="46.24903" lon="6.80023">
        <ele>1427.8</ele>
        <time>2022-03-06T13:17:31Z</time>
      </trkpt>
      <trkpt lat="46.24902" lon="6.80024">
        <ele>1427.6</ele>
        <time>2022-03-06T13:17:32Z</time>
      </trkpt>
      <trkpt lat="46.24903" lon="6.80025">
        <ele>1427.4</ele>
        <time>2022-03-06T13:17:33Z</time>
      </trkpt>
      <trkpt lat="46.24903" lon="6.80026">
        <ele>1427</ele>
        <time>2022-03-06T13:17:34Z</time>
      </trkpt>
      <trkpt lat="46.24903" lon="6.80026">
        <ele>1426.8</ele>
        <time>2022-03-06T13:17:35Z</time>
      </trkpt>
      <trkpt lat="46.24903" lon="6.80027">
        <ele>1426.8</ele>
        <time>2022-03-06T13:17:36Z</time>
      </trkpt>
      <trkpt lat="46.24904" lon="6.80028">
        <ele>1426.4</ele>
        <time>2022-03-06T13:17:37Z</time>
      </trkpt>
      <trkpt lat="46.24905" lon="6.80029">
        <ele>1426</ele>
        <time>2022-03-06T13:17:38Z</time>
      </trkpt>
      <trkpt lat="46.24906" lon="6.80031">
        <ele>1426</ele>
        <time>2022-03-06T13:17:39Z</time>
      </trkpt>
      <trkpt lat="46.24907" lon="6.80032">
        <ele>1425.8</ele>
        <time>2022-03-06T13:17:40Z</time>
      </trkpt>
      <trkpt lat="46.24908" lon="6.80033">
        <ele>1425.4</ele>
        <time>2022-03-06T13:17:41Z</time>
      </trkpt>
      <trkpt lat="46.24908" lon="6.80034">
        <ele>1425</ele>
        <time>2022-03-06T13:17:42Z</time>
      </trkpt>
      <trkpt lat="46.24909" lon="6.80035">
        <ele>1424.8</ele>
        <time>2022-03-06T13:17:43Z</time>
      </trkpt>
      <trkpt lat="46.2491" lon="6.80035">
        <ele>1424.4</ele>
        <time>2022-03-06T13:17:44Z</time>
      </trkpt>
      <trkpt lat="46.2491" lon="6.80036">
        <ele>1424.2</ele>
        <time>2022-03-06T13:17:45Z</time>
      </trkpt>
      <trkpt lat="46.24911" lon="6.80037">
        <ele>1423.8</ele>
        <time>2022-03-06T13:17:46Z</time>
      </trkpt>
      <trkpt lat="46.24911" lon="6.80037">
        <ele>1423.6</ele>
        <time>2022-03-06T13:17:47Z</time>
      </trkpt>
      <trkpt lat="46.24911" lon="6.80038">
        <ele>1423.4</ele>
        <time>2022-03-06T13:17:48Z</time>
      </trkpt>
      <trkpt lat="46.24911" lon="6.80038">
        <ele>1423</ele>
        <time>2022-03-06T13:17:49Z</time>
      </trkpt>
      <trkpt lat="46.24913" lon="6.8004">
        <ele>1422</ele>
        <time>2022-03-06T13:17:53Z</time>
      </trkpt>
      <trkpt lat="46.24911" lon="6.80043">
        <ele>1420.6</ele>
        <time>2022-03-06T13:17:57Z</time>
      </trkpt>
      <trkpt lat="46.24911" lon="6.80044">
        <ele>1420</ele>
        <time>2022-03-06T13:18:00Z</time>
      </trkpt>
      <trkpt lat="46.24911" lon="6.80045">
        <ele>1419.6</ele>
        <time>2022-03-06T13:18:01Z</time>
      </trkpt>
      <trkpt lat="46.2491" lon="6.80046">
        <ele>1419.2</ele>
        <time>2022-03-06T13:18:02Z</time>
      </trkpt>
      <trkpt lat="46.2491" lon="6.80046">
        <ele>1418.8</ele>
        <time>2022-03-06T13:18:03Z</time>
      </trkpt>
      <trkpt lat="46.24911" lon="6.80046">
        <ele>1418.2</ele>
        <time>2022-03-06T13:18:05Z</time>
      </trkpt>
      <trkpt lat="46.24911" lon="6.80045">
        <ele>1418.2</ele>
        <time>2022-03-06T13:18:06Z</time>
      </trkpt>
      <trkpt lat="46.24912" lon="6.80045">
        <ele>1417.6</ele>
        <time>2022-03-06T13:18:07Z</time>
      </trkpt>
      <trkpt lat="46.24913" lon="6.80047">
        <ele>1417.4</ele>
        <time>2022-03-06T13:18:08Z</time>
      </trkpt>
      <trkpt lat="46.24917" lon="6.80049">
        <ele>1416.6</ele>
        <time>2022-03-06T13:18:10Z</time>
      </trkpt>
      <trkpt lat="46.24918" lon="6.8005">
        <ele>1416.4</ele>
        <time>2022-03-06T13:18:11Z</time>
      </trkpt>
      <trkpt lat="46.2492" lon="6.80051">
        <ele>1416</ele>
        <time>2022-03-06T13:18:12Z</time>
      </trkpt>
      <trkpt lat="46.24921" lon="6.80052">
        <ele>1415.8</ele>
        <time>2022-03-06T13:18:13Z</time>
      </trkpt>
      <trkpt lat="46.24925" lon="6.80054">
        <ele>1414.8</ele>
        <time>2022-03-06T13:18:16Z</time>
      </trkpt>
      <trkpt lat="46.24928" lon="6.80057">
        <ele>1413.8</ele>
        <time>2022-03-06T13:18:19Z</time>
      </trkpt>
      <trkpt lat="46.24929" lon="6.80058">
        <ele>1413.6</ele>
        <time>2022-03-06T13:18:20Z</time>
      </trkpt>
      <trkpt lat="46.24929" lon="6.80059">
        <ele>1413.6</ele>
        <time>2022-03-06T13:18:21Z</time>
      </trkpt>
      <trkpt lat="46.2493" lon="6.8006">
        <ele>1413.2</ele>
        <time>2022-03-06T13:18:22Z</time>
      </trkpt>
      <trkpt lat="46.2493" lon="6.80062">
        <ele>1413</ele>
        <time>2022-03-06T13:18:23Z</time>
      </trkpt>
      <trkpt lat="46.24931" lon="6.80061">
        <ele>1412.8</ele>
        <time>2022-03-06T13:18:24Z</time>
      </trkpt>
      <trkpt lat="46.24931" lon="6.80062">
        <ele>1412.4</ele>
        <time>2022-03-06T13:18:25Z</time>
      </trkpt>
      <trkpt lat="46.24932" lon="6.80063">
        <ele>1412</ele>
        <time>2022-03-06T13:18:26Z</time>
      </trkpt>
      <trkpt lat="46.24932" lon="6.80064">
        <ele>1411.8</ele>
        <time>2022-03-06T13:18:27Z</time>
      </trkpt>
      <trkpt lat="46.24932" lon="6.80065">
        <ele>1411.4</ele>
        <time>2022-03-06T13:18:28Z</time>
      </trkpt>
      <trkpt lat="46.24933" lon="6.80065">
        <ele>1411</ele>
        <time>2022-03-06T13:18:29Z</time>
      </trkpt>
      <trkpt lat="46.24933" lon="6.80066">
        <ele>1410.8</ele>
        <time>2022-03-06T13:18:30Z</time>
      </trkpt>
      <trkpt lat="46.24934" lon="6.80067">
        <ele>1410.4</ele>
        <time>2022-03-06T13:18:31Z</time>
      </trkpt>
      <trkpt lat="46.24934" lon="6.80069">
        <ele>1410</ele>
        <time>2022-03-06T13:18:32Z</time>
      </trkpt>
      <trkpt lat="46.24934" lon="6.8007">
        <ele>1409.6</ele>
        <time>2022-03-06T13:18:33Z</time>
      </trkpt>
      <trkpt lat="46.24935" lon="6.8007">
        <ele>1409.6</ele>
        <time>2022-03-06T13:18:34Z</time>
      </trkpt>
      <trkpt lat="46.24936" lon="6.80069">
        <ele>1409.2</ele>
        <time>2022-03-06T13:18:35Z</time>
      </trkpt>
      <trkpt lat="46.24936" lon="6.80069">
        <ele>1408.6</ele>
        <time>2022-03-06T13:18:36Z</time>
      </trkpt>
      <trkpt lat="46.24937" lon="6.80069">
        <ele>1408.4</ele>
        <time>2022-03-06T13:18:37Z</time>
      </trkpt>
      <trkpt lat="46.24937" lon="6.80069">
        <ele>1408</ele>
        <time>2022-03-06T13:18:38Z</time>
      </trkpt>
      <trkpt lat="46.24938" lon="6.8007">
        <ele>1407.8</ele>
        <time>2022-03-06T13:18:39Z</time>
      </trkpt>
      <trkpt lat="46.24939" lon="6.80069">
        <ele>1407.4</ele>
        <time>2022-03-06T13:18:40Z</time>
      </trkpt>
      <trkpt lat="46.2494" lon="6.80071">
        <ele>1407</ele>
        <time>2022-03-06T13:18:41Z</time>
      </trkpt>
      <trkpt lat="46.24941" lon="6.80072">
        <ele>1406.8</ele>
        <time>2022-03-06T13:18:42Z</time>
      </trkpt>
      <trkpt lat="46.24942" lon="6.80074">
        <ele>1406.4</ele>
        <time>2022-03-06T13:18:43Z</time>
      </trkpt>
      <trkpt lat="46.24943" lon="6.80078">
        <ele>1406.2</ele>
        <time>2022-03-06T13:18:45Z</time>
      </trkpt>
      <trkpt lat="46.24947" lon="6.80086">
        <ele>1404.8</ele>
        <time>2022-03-06T13:18:50Z</time>
      </trkpt>
      <trkpt lat="46.24948" lon="6.80087">
        <ele>1404.4</ele>
        <time>2022-03-06T13:18:51Z</time>
      </trkpt>
      <trkpt lat="46.24948" lon="6.80088">
        <ele>1404</ele>
        <time>2022-03-06T13:18:53Z</time>
      </trkpt>
      <trkpt lat="46.24952" lon="6.80083">
        <ele>1403.6</ele>
        <time>2022-03-06T13:18:54Z</time>
      </trkpt>
      <trkpt lat="46.24955" lon="6.8008">
        <ele>1403.2</ele>
        <time>2022-03-06T13:18:55Z</time>
      </trkpt>
      <trkpt lat="46.24959" lon="6.80079">
        <ele>1402.6</ele>
        <time>2022-03-06T13:18:58Z</time>
      </trkpt>
      <trkpt lat="46.24961" lon="6.80079">
        <ele>1402</ele>
        <time>2022-03-06T13:19:00Z</time>
      </trkpt>
      <trkpt lat="46.24962" lon="6.80079">
        <ele>1402</ele>
        <time>2022-03-06T13:19:01Z</time>
      </trkpt>
      <trkpt lat="46.24963" lon="6.8008">
        <ele>1401.8</ele>
        <time>2022-03-06T13:19:02Z</time>
      </trkpt>
      <trkpt lat="46.24965" lon="6.80082">
        <ele>1401.6</ele>
        <time>2022-03-06T13:19:04Z</time>
      </trkpt>
      <trkpt lat="46.24965" lon="6.80083">
        <ele>1401.4</ele>
        <time>2022-03-06T13:19:05Z</time>
      </trkpt>
      <trkpt lat="46.24965" lon="6.80084">
        <ele>1401.2</ele>
        <time>2022-03-06T13:19:06Z</time>
      </trkpt>
      <trkpt lat="46.24966" lon="6.80091">
        <ele>1400.2</ele>
        <time>2022-03-06T13:19:11Z</time>
      </trkpt>
      <trkpt lat="46.24965" lon="6.80094">
        <ele>1400</ele>
        <time>2022-03-06T13:19:12Z</time>
      </trkpt>
      <trkpt lat="46.24965" lon="6.80095">
        <ele>1399.6</ele>
        <time>2022-03-06T13:19:13Z</time>
      </trkpt>
      <trkpt lat="46.24965" lon="6.80096">
        <ele>1399.4</ele>
        <time>2022-03-06T13:19:14Z</time>
      </trkpt>
      <trkpt lat="46.24964" lon="6.80097">
        <ele>1399</ele>
        <time>2022-03-06T13:19:15Z</time>
      </trkpt>
      <trkpt lat="46.24965" lon="6.80098">
        <ele>1398.8</ele>
        <time>2022-03-06T13:19:16Z</time>
      </trkpt>
      <trkpt lat="46.24966" lon="6.80099">
        <ele>1398.4</ele>
        <time>2022-03-06T13:19:17Z</time>
      </trkpt>
      <trkpt lat="46.24968" lon="6.80101">
        <ele>1397.2</ele>
        <time>2022-03-06T13:19:21Z</time>
      </trkpt>
      <trkpt lat="46.24968" lon="6.80101">
        <ele>1396.8</ele>
        <time>2022-03-06T13:19:22Z</time>
      </trkpt>
      <trkpt lat="46.2497" lon="6.80104">
        <ele>1396.4</ele>
        <time>2022-03-06T13:19:23Z</time>
      </trkpt>
      <trkpt lat="46.24973" lon="6.8011">
        <ele>1395.8</ele>
        <time>2022-03-06T13:19:26Z</time>
      </trkpt>
      <trkpt lat="46.24973" lon="6.80112">
        <ele>1395.6</ele>
        <time>2022-03-06T13:19:27Z</time>
      </trkpt>
      <trkpt lat="46.24973" lon="6.80113">
        <ele>1395.4</ele>
        <time>2022-03-06T13:19:28Z</time>
      </trkpt>
      <trkpt lat="46.24973" lon="6.80113">
        <ele>1395.2</ele>
        <time>2022-03-06T13:19:29Z</time>
      </trkpt>
      <trkpt lat="46.24973" lon="6.80113">
        <ele>1395.2</ele>
        <time>2022-03-06T13:19:30Z</time>
      </trkpt>
      <trkpt lat="46.24973" lon="6.80114">
        <ele>1395</ele>
        <time>2022-03-06T13:19:31Z</time>
      </trkpt>
      <trkpt lat="46.24973" lon="6.80114">
        <ele>1394.6</ele>
        <time>2022-03-06T13:19:32Z</time>
      </trkpt>
      <trkpt lat="46.24972" lon="6.80115">
        <ele>1394.4</ele>
        <time>2022-03-06T13:19:33Z</time>
      </trkpt>
      <trkpt lat="46.24972" lon="6.80115">
        <ele>1394</ele>
        <time>2022-03-06T13:19:34Z</time>
      </trkpt>
      <trkpt lat="46.2497" lon="6.80117">
        <ele>1393.8</ele>
        <time>2022-03-06T13:19:35Z</time>
      </trkpt>
      <trkpt lat="46.24967" lon="6.80118">
        <ele>1393.6</ele>
        <time>2022-03-06T13:19:36Z</time>
      </trkpt>
      <trkpt lat="46.24966" lon="6.80116">
        <ele>1393.4</ele>
        <time>2022-03-06T13:19:37Z</time>
      </trkpt>
      <trkpt lat="46.24964" lon="6.80117">
        <ele>1393.4</ele>
        <time>2022-03-06T13:19:38Z</time>
      </trkpt>
      <trkpt lat="46.24963" lon="6.80118">
        <ele>1393</ele>
        <time>2022-03-06T13:19:39Z</time>
      </trkpt>
      <trkpt lat="46.24961" lon="6.80121">
        <ele>1392.2</ele>
        <time>2022-03-06T13:19:44Z</time>
      </trkpt>
      <trkpt lat="46.2496" lon="6.80125">
        <ele>1391.8</ele>
        <time>2022-03-06T13:19:48Z</time>
      </trkpt>
      <trkpt lat="46.24959" lon="6.80133">
        <ele>1390.8</ele>
        <time>2022-03-06T13:19:54Z</time>
      </trkpt>
      <trkpt lat="46.24959" lon="6.80134">
        <ele>1390.4</ele>
        <time>2022-03-06T13:19:55Z</time>
      </trkpt>
      <trkpt lat="46.24962" lon="6.80131">
        <ele>1390.2</ele>
        <time>2022-03-06T13:19:56Z</time>
      </trkpt>
      <trkpt lat="46.24962" lon="6.80133">
        <ele>1390</ele>
        <time>2022-03-06T13:19:57Z</time>
      </trkpt>
      <trkpt lat="46.24961" lon="6.80135">
        <ele>1389.6</ele>
        <time>2022-03-06T13:19:58Z</time>
      </trkpt>
      <trkpt lat="46.24961" lon="6.80137">
        <ele>1389.2</ele>
        <time>2022-03-06T13:20:00Z</time>
      </trkpt>
      <trkpt lat="46.24964" lon="6.80137">
        <ele>1388.6</ele>
        <time>2022-03-06T13:20:02Z</time>
      </trkpt>
      <trkpt lat="46.24966" lon="6.80136">
        <ele>1388.2</ele>
        <time>2022-03-06T13:20:03Z</time>
      </trkpt>
      <trkpt lat="46.24967" lon="6.80136">
        <ele>1387.8</ele>
        <time>2022-03-06T13:20:04Z</time>
      </trkpt>
      <trkpt lat="46.2497" lon="6.80135">
        <ele>1387.6</ele>
        <time>2022-03-06T13:20:05Z</time>
      </trkpt>
      <trkpt lat="46.24971" lon="6.80136">
        <ele>1387.4</ele>
        <time>2022-03-06T13:20:06Z</time>
      </trkpt>
      <trkpt lat="46.24973" lon="6.80135">
        <ele>1387</ele>
        <time>2022-03-06T13:20:07Z</time>
      </trkpt>
      <trkpt lat="46.24975" lon="6.80133">
        <ele>1386.6</ele>
        <time>2022-03-06T13:20:08Z</time>
      </trkpt>
      <trkpt lat="46.24976" lon="6.80133">
        <ele>1386.2</ele>
        <time>2022-03-06T13:20:09Z</time>
      </trkpt>
      <trkpt lat="46.24977" lon="6.80134">
        <ele>1385.8</ele>
        <time>2022-03-06T13:20:10Z</time>
      </trkpt>
      <trkpt lat="46.24978" lon="6.80134">
        <ele>1385.6</ele>
        <time>2022-03-06T13:20:11Z</time>
      </trkpt>
      <trkpt lat="46.24979" lon="6.80135">
        <ele>1385.2</ele>
        <time>2022-03-06T13:20:12Z</time>
      </trkpt>
      <trkpt lat="46.24979" lon="6.80135">
        <ele>1385</ele>
        <time>2022-03-06T13:20:13Z</time>
      </trkpt>
      <trkpt lat="46.24981" lon="6.80137">
        <ele>1385</ele>
        <time>2022-03-06T13:20:14Z</time>
      </trkpt>
      <trkpt lat="46.24984" lon="6.80138">
        <ele>1384.6</ele>
        <time>2022-03-06T13:20:16Z</time>
      </trkpt>
      <trkpt lat="46.24985" lon="6.80139">
        <ele>1384.2</ele>
        <time>2022-03-06T13:20:17Z</time>
      </trkpt>
      <trkpt lat="46.24985" lon="6.8014">
        <ele>1384</ele>
        <time>2022-03-06T13:20:18Z</time>
      </trkpt>
      <trkpt lat="46.24985" lon="6.80141">
        <ele>1383.8</ele>
        <time>2022-03-06T13:20:19Z</time>
      </trkpt>
      <trkpt lat="46.24984" lon="6.80142">
        <ele>1383.6</ele>
        <time>2022-03-06T13:20:20Z</time>
      </trkpt>
      <trkpt lat="46.24985" lon="6.80144">
        <ele>1383.2</ele>
        <time>2022-03-06T13:20:21Z</time>
      </trkpt>
      <trkpt lat="46.24989" lon="6.80146">
        <ele>1381.6</ele>
        <time>2022-03-06T13:20:27Z</time>
      </trkpt>
      <trkpt lat="46.24989" lon="6.80146">
        <ele>1381.2</ele>
        <time>2022-03-06T13:20:28Z</time>
      </trkpt>
      <trkpt lat="46.2499" lon="6.80147">
        <ele>1381</ele>
        <time>2022-03-06T13:20:29Z</time>
      </trkpt>
      <trkpt lat="46.24991" lon="6.80148">
        <ele>1380.8</ele>
        <time>2022-03-06T13:20:30Z</time>
      </trkpt>
      <trkpt lat="46.24992" lon="6.8015">
        <ele>1380.6</ele>
        <time>2022-03-06T13:20:31Z</time>
      </trkpt>
      <trkpt lat="46.24992" lon="6.80152">
        <ele>1380.4</ele>
        <time>2022-03-06T13:20:32Z</time>
      </trkpt>
      <trkpt lat="46.24992" lon="6.80154">
        <ele>1380</ele>
        <time>2022-03-06T13:20:33Z</time>
      </trkpt>
      <trkpt lat="46.24992" lon="6.80155">
        <ele>1379.8</ele>
        <time>2022-03-06T13:20:34Z</time>
      </trkpt>
      <trkpt lat="46.24992" lon="6.80156">
        <ele>1379.6</ele>
        <time>2022-03-06T13:20:35Z</time>
      </trkpt>
      <trkpt lat="46.24992" lon="6.80157">
        <ele>1379.4</ele>
        <time>2022-03-06T13:20:36Z</time>
      </trkpt>
      <trkpt lat="46.24992" lon="6.80158">
        <ele>1379.2</ele>
        <time>2022-03-06T13:20:37Z</time>
      </trkpt>
      <trkpt lat="46.24992" lon="6.8016">
        <ele>1379.2</ele>
        <time>2022-03-06T13:20:38Z</time>
      </trkpt>
      <trkpt lat="46.24993" lon="6.80162">
        <ele>1378.8</ele>
        <time>2022-03-06T13:20:39Z</time>
      </trkpt>
      <trkpt lat="46.24994" lon="6.80164">
        <ele>1378.4</ele>
        <time>2022-03-06T13:20:40Z</time>
      </trkpt>
      <trkpt lat="46.24994" lon="6.80165">
        <ele>1378.2</ele>
        <time>2022-03-06T13:20:41Z</time>
      </trkpt>
      <trkpt lat="46.24995" lon="6.80166">
        <ele>1377.6</ele>
        <time>2022-03-06T13:20:42Z</time>
      </trkpt>
      <trkpt lat="46.24996" lon="6.80168">
        <ele>1377.4</ele>
        <time>2022-03-06T13:20:43Z</time>
      </trkpt>
      <trkpt lat="46.24998" lon="6.80167">
        <ele>1377.2</ele>
        <time>2022-03-06T13:20:44Z</time>
      </trkpt>
      <trkpt lat="46.24998" lon="6.80169">
        <ele>1376.6</ele>
        <time>2022-03-06T13:20:46Z</time>
      </trkpt>
      <trkpt lat="46.24999" lon="6.80169">
        <ele>1376.4</ele>
        <time>2022-03-06T13:20:47Z</time>
      </trkpt>
      <trkpt lat="46.24999" lon="6.80169">
        <ele>1376</ele>
        <time>2022-03-06T13:20:48Z</time>
      </trkpt>
      <trkpt lat="46.25" lon="6.8017">
        <ele>1375.8</ele>
        <time>2022-03-06T13:20:49Z</time>
      </trkpt>
      <trkpt lat="46.25001" lon="6.80171">
        <ele>1375.4</ele>
        <time>2022-03-06T13:20:50Z</time>
      </trkpt>
      <trkpt lat="46.25002" lon="6.80172">
        <ele>1375</ele>
        <time>2022-03-06T13:20:51Z</time>
      </trkpt>
      <trkpt lat="46.25003" lon="6.80174">
        <ele>1374.2</ele>
        <time>2022-03-06T13:20:54Z</time>
      </trkpt>
      <trkpt lat="46.25004" lon="6.80175">
        <ele>1373.8</ele>
        <time>2022-03-06T13:20:55Z</time>
      </trkpt>
      <trkpt lat="46.25004" lon="6.80177">
        <ele>1373.6</ele>
        <time>2022-03-06T13:20:56Z</time>
      </trkpt>
      <trkpt lat="46.25001" lon="6.8018">
        <ele>1373.6</ele>
        <time>2022-03-06T13:20:57Z</time>
      </trkpt>
      <trkpt lat="46.25001" lon="6.80181">
        <ele>1373.4</ele>
        <time>2022-03-06T13:20:58Z</time>
      </trkpt>
      <trkpt lat="46.25001" lon="6.80182">
        <ele>1373.2</ele>
        <time>2022-03-06T13:20:59Z</time>
      </trkpt>
      <trkpt lat="46.25002" lon="6.80183">
        <ele>1373</ele>
        <time>2022-03-06T13:21:00Z</time>
      </trkpt>
      <trkpt lat="46.25001" lon="6.80185">
        <ele>1372.8</ele>
        <time>2022-03-06T13:21:02Z</time>
      </trkpt>
      <trkpt lat="46.25002" lon="6.80186">
        <ele>1372.4</ele>
        <time>2022-03-06T13:21:03Z</time>
      </trkpt>
      <trkpt lat="46.25002" lon="6.80187">
        <ele>1372.2</ele>
        <time>2022-03-06T13:21:04Z</time>
      </trkpt>
      <trkpt lat="46.25002" lon="6.80188">
        <ele>1371.8</ele>
        <time>2022-03-06T13:21:05Z</time>
      </trkpt>
      <trkpt lat="46.25001" lon="6.80192">
        <ele>1370.8</ele>
        <time>2022-03-06T13:21:09Z</time>
      </trkpt>
      <trkpt lat="46.25004" lon="6.80191">
        <ele>1369.8</ele>
        <time>2022-03-06T13:21:12Z</time>
      </trkpt>
      <trkpt lat="46.25001" lon="6.80189">
        <ele>1369</ele>
        <time>2022-03-06T13:21:23Z</time>
      </trkpt>
      <trkpt lat="46.25" lon="6.8019">
        <ele>1369</ele>
        <time>2022-03-06T13:21:25Z</time>
      </trkpt>
      <trkpt lat="46.25" lon="6.80189">
        <ele>1368.8</ele>
        <time>2022-03-06T13:21:28Z</time>
      </trkpt>
      <trkpt lat="46.25001" lon="6.80191">
        <ele>1368.6</ele>
        <time>2022-03-06T13:21:30Z</time>
      </trkpt>
      <trkpt lat="46.25002" lon="6.80194">
        <ele>1368</ele>
        <time>2022-03-06T13:21:34Z</time>
      </trkpt>
      <trkpt lat="46.25003" lon="6.80201">
        <ele>1366.4</ele>
        <time>2022-03-06T13:21:38Z</time>
      </trkpt>
      <trkpt lat="46.25003" lon="6.80201">
        <ele>1366</ele>
        <time>2022-03-06T13:21:39Z</time>
      </trkpt>
      <trkpt lat="46.25005" lon="6.80203">
        <ele>1365.2</ele>
        <time>2022-03-06T13:21:41Z</time>
      </trkpt>
      <trkpt lat="46.25005" lon="6.80204">
        <ele>1365</ele>
        <time>2022-03-06T13:21:42Z</time>
      </trkpt>
      <trkpt lat="46.25006" lon="6.80205">
        <ele>1364.6</ele>
        <time>2022-03-06T13:21:43Z</time>
      </trkpt>
      <trkpt lat="46.25007" lon="6.80211">
        <ele>1363.6</ele>
        <time>2022-03-06T13:21:46Z</time>
      </trkpt>
      <trkpt lat="46.25007" lon="6.80212">
        <ele>1363.6</ele>
        <time>2022-03-06T13:21:47Z</time>
      </trkpt>
      <trkpt lat="46.25011" lon="6.80216">
        <ele>1362.6</ele>
        <time>2022-03-06T13:21:51Z</time>
      </trkpt>
      <trkpt lat="46.25012" lon="6.80215">
        <ele>1362.2</ele>
        <time>2022-03-06T13:21:52Z</time>
      </trkpt>
      <trkpt lat="46.25012" lon="6.80215">
        <ele>1362</ele>
        <time>2022-03-06T13:21:53Z</time>
      </trkpt>
      <trkpt lat="46.25014" lon="6.80215">
        <ele>1361.6</ele>
        <time>2022-03-06T13:21:54Z</time>
      </trkpt>
      <trkpt lat="46.25014" lon="6.80215">
        <ele>1361.2</ele>
        <time>2022-03-06T13:21:55Z</time>
      </trkpt>
      <trkpt lat="46.25014" lon="6.80216">
        <ele>1361</ele>
        <time>2022-03-06T13:21:56Z</time>
      </trkpt>
      <trkpt lat="46.25015" lon="6.80218">
        <ele>1360.8</ele>
        <time>2022-03-06T13:21:57Z</time>
      </trkpt>
      <trkpt lat="46.25015" lon="6.8022">
        <ele>1360.4</ele>
        <time>2022-03-06T13:21:58Z</time>
      </trkpt>
      <trkpt lat="46.25016" lon="6.80221">
        <ele>1360.2</ele>
        <time>2022-03-06T13:21:59Z</time>
      </trkpt>
      <trkpt lat="46.25016" lon="6.80222">
        <ele>1359.8</ele>
        <time>2022-03-06T13:22:00Z</time>
      </trkpt>
      <trkpt lat="46.25016" lon="6.80224">
        <ele>1359.6</ele>
        <time>2022-03-06T13:22:01Z</time>
      </trkpt>
      <trkpt lat="46.25018" lon="6.8023">
        <ele>1358.6</ele>
        <time>2022-03-06T13:22:05Z</time>
      </trkpt>
      <trkpt lat="46.25019" lon="6.80232">
        <ele>1358.6</ele>
        <time>2022-03-06T13:22:06Z</time>
      </trkpt>
      <trkpt lat="46.25019" lon="6.80233">
        <ele>1358.2</ele>
        <time>2022-03-06T13:22:07Z</time>
      </trkpt>
      <trkpt lat="46.2502" lon="6.80233">
        <ele>1357.8</ele>
        <time>2022-03-06T13:22:08Z</time>
      </trkpt>
      <trkpt lat="46.25021" lon="6.80234">
        <ele>1357.8</ele>
        <time>2022-03-06T13:22:09Z</time>
      </trkpt>
      <trkpt lat="46.25022" lon="6.80235">
        <ele>1357.8</ele>
        <time>2022-03-06T13:22:10Z</time>
      </trkpt>
      <trkpt lat="46.25022" lon="6.80237">
        <ele>1357.6</ele>
        <time>2022-03-06T13:22:11Z</time>
      </trkpt>
      <trkpt lat="46.25024" lon="6.80238">
        <ele>1357.2</ele>
        <time>2022-03-06T13:22:12Z</time>
      </trkpt>
      <trkpt lat="46.25025" lon="6.80241">
        <ele>1356.8</ele>
        <time>2022-03-06T13:22:14Z</time>
      </trkpt>
      <trkpt lat="46.25024" lon="6.80243">
        <ele>1356.2</ele>
        <time>2022-03-06T13:22:16Z</time>
      </trkpt>
      <trkpt lat="46.25024" lon="6.80244">
        <ele>1356</ele>
        <time>2022-03-06T13:22:17Z</time>
      </trkpt>
      <trkpt lat="46.25023" lon="6.80244">
        <ele>1355.8</ele>
        <time>2022-03-06T13:22:18Z</time>
      </trkpt>
      <trkpt lat="46.25022" lon="6.80245">
        <ele>1355.4</ele>
        <time>2022-03-06T13:22:19Z</time>
      </trkpt>
      <trkpt lat="46.25022" lon="6.80245">
        <ele>1355</ele>
        <time>2022-03-06T13:22:20Z</time>
      </trkpt>
      <trkpt lat="46.25022" lon="6.80246">
        <ele>1354.8</ele>
        <time>2022-03-06T13:22:21Z</time>
      </trkpt>
      <trkpt lat="46.25023" lon="6.80246">
        <ele>1354.6</ele>
        <time>2022-03-06T13:22:22Z</time>
      </trkpt>
      <trkpt lat="46.25023" lon="6.80247">
        <ele>1354.4</ele>
        <time>2022-03-06T13:22:23Z</time>
      </trkpt>
      <trkpt lat="46.25023" lon="6.80247">
        <ele>1353.8</ele>
        <time>2022-03-06T13:22:24Z</time>
      </trkpt>
      <trkpt lat="46.25023" lon="6.80248">
        <ele>1353.6</ele>
        <time>2022-03-06T13:22:25Z</time>
      </trkpt>
      <trkpt lat="46.25023" lon="6.8025">
        <ele>1353</ele>
        <time>2022-03-06T13:22:27Z</time>
      </trkpt>
      <trkpt lat="46.25023" lon="6.8025">
        <ele>1352.8</ele>
        <time>2022-03-06T13:22:28Z</time>
      </trkpt>
      <trkpt lat="46.25023" lon="6.80251">
        <ele>1352.4</ele>
        <time>2022-03-06T13:22:29Z</time>
      </trkpt>
      <trkpt lat="46.25023" lon="6.80252">
        <ele>1352</ele>
        <time>2022-03-06T13:22:30Z</time>
      </trkpt>
      <trkpt lat="46.25022" lon="6.80252">
        <ele>1351.6</ele>
        <time>2022-03-06T13:22:31Z</time>
      </trkpt>
      <trkpt lat="46.25022" lon="6.80253">
        <ele>1351.6</ele>
        <time>2022-03-06T13:22:32Z</time>
      </trkpt>
      <trkpt lat="46.25022" lon="6.80255">
        <ele>1351.2</ele>
        <time>2022-03-06T13:22:33Z</time>
      </trkpt>
      <trkpt lat="46.25023" lon="6.80256">
        <ele>1351</ele>
        <time>2022-03-06T13:22:34Z</time>
      </trkpt>
      <trkpt lat="46.25023" lon="6.80256">
        <ele>1350.4</ele>
        <time>2022-03-06T13:22:35Z</time>
      </trkpt>
      <trkpt lat="46.25024" lon="6.80256">
        <ele>1350.4</ele>
        <time>2022-03-06T13:22:36Z</time>
      </trkpt>
      <trkpt lat="46.25025" lon="6.80255">
        <ele>1349.8</ele>
        <time>2022-03-06T13:22:37Z</time>
      </trkpt>
      <trkpt lat="46.25025" lon="6.80255">
        <ele>1349.6</ele>
        <time>2022-03-06T13:22:38Z</time>
      </trkpt>
      <trkpt lat="46.25026" lon="6.80255">
        <ele>1349.4</ele>
        <time>2022-03-06T13:22:39Z</time>
      </trkpt>
      <trkpt lat="46.25026" lon="6.80256">
        <ele>1349.2</ele>
        <time>2022-03-06T13:22:40Z</time>
      </trkpt>
      <trkpt lat="46.25028" lon="6.80255">
        <ele>1348.8</ele>
        <time>2022-03-06T13:22:41Z</time>
      </trkpt>
      <trkpt lat="46.25027" lon="6.80257">
        <ele>1348.4</ele>
        <time>2022-03-06T13:22:42Z</time>
      </trkpt>
      <trkpt lat="46.25031" lon="6.8026">
        <ele>1347.6</ele>
        <time>2022-03-06T13:22:45Z</time>
      </trkpt>
      <trkpt lat="46.25033" lon="6.80262">
        <ele>1346.6</ele>
        <time>2022-03-06T13:22:48Z</time>
      </trkpt>
      <trkpt lat="46.25034" lon="6.80263">
        <ele>1346.4</ele>
        <time>2022-03-06T13:22:49Z</time>
      </trkpt>
      <trkpt lat="46.25036" lon="6.80262">
        <ele>1345.8</ele>
        <time>2022-03-06T13:22:50Z</time>
      </trkpt>
      <trkpt lat="46.25036" lon="6.80263">
        <ele>1345.8</ele>
        <time>2022-03-06T13:22:51Z</time>
      </trkpt>
      <trkpt lat="46.25037" lon="6.80263">
        <ele>1345.2</ele>
        <time>2022-03-06T13:22:52Z</time>
      </trkpt>
      <trkpt lat="46.25037" lon="6.80264">
        <ele>1345.2</ele>
        <time>2022-03-06T13:22:53Z</time>
      </trkpt>
      <trkpt lat="46.25037" lon="6.80265">
        <ele>1344.4</ele>
        <time>2022-03-06T13:22:56Z</time>
      </trkpt>
      <trkpt lat="46.25037" lon="6.80265">
        <ele>1344.2</ele>
        <time>2022-03-06T13:22:57Z</time>
      </trkpt>
      <trkpt lat="46.25038" lon="6.80266">
        <ele>1343.8</ele>
        <time>2022-03-06T13:22:58Z</time>
      </trkpt>
      <trkpt lat="46.25039" lon="6.80267">
        <ele>1343.4</ele>
        <time>2022-03-06T13:22:59Z</time>
      </trkpt>
      <trkpt lat="46.2504" lon="6.80268">
        <ele>1343.2</ele>
        <time>2022-03-06T13:23:00Z</time>
      </trkpt>
      <trkpt lat="46.2504" lon="6.80268">
        <ele>1343</ele>
        <time>2022-03-06T13:23:01Z</time>
      </trkpt>
      <trkpt lat="46.25043" lon="6.80268">
        <ele>1342.4</ele>
        <time>2022-03-06T13:23:03Z</time>
      </trkpt>
      <trkpt lat="46.25045" lon="6.8027">
        <ele>1342</ele>
        <time>2022-03-06T13:23:04Z</time>
      </trkpt>
      <trkpt lat="46.25046" lon="6.80271">
        <ele>1341.6</ele>
        <time>2022-03-06T13:23:05Z</time>
      </trkpt>
      <trkpt lat="46.25048" lon="6.80272">
        <ele>1341</ele>
        <time>2022-03-06T13:23:07Z</time>
      </trkpt>
      <trkpt lat="46.25051" lon="6.80274">
        <ele>1340.2</ele>
        <time>2022-03-06T13:23:09Z</time>
      </trkpt>
      <trkpt lat="46.25054" lon="6.80277">
        <ele>1339.8</ele>
        <time>2022-03-06T13:23:11Z</time>
      </trkpt>
      <trkpt lat="46.25055" lon="6.80278">
        <ele>1339.6</ele>
        <time>2022-03-06T13:23:12Z</time>
      </trkpt>
      <trkpt lat="46.2506" lon="6.80285">
        <ele>1338.6</ele>
        <time>2022-03-06T13:23:16Z</time>
      </trkpt>
      <trkpt lat="46.25062" lon="6.80286">
        <ele>1338.2</ele>
        <time>2022-03-06T13:23:17Z</time>
      </trkpt>
      <trkpt lat="46.25063" lon="6.80288">
        <ele>1337.8</ele>
        <time>2022-03-06T13:23:19Z</time>
      </trkpt>
      <trkpt lat="46.25065" lon="6.8029">
        <ele>1337.6</ele>
        <time>2022-03-06T13:23:20Z</time>
      </trkpt>
      <trkpt lat="46.25067" lon="6.80292">
        <ele>1336.8</ele>
        <time>2022-03-06T13:23:23Z</time>
      </trkpt>
      <trkpt lat="46.25068" lon="6.80292">
        <ele>1336.4</ele>
        <time>2022-03-06T13:23:24Z</time>
      </trkpt>
      <trkpt lat="46.25068" lon="6.80292">
        <ele>1336.4</ele>
        <time>2022-03-06T13:23:25Z</time>
      </trkpt>
      <trkpt lat="46.25068" lon="6.80293">
        <ele>1336</ele>
        <time>2022-03-06T13:23:26Z</time>
      </trkpt>
      <trkpt lat="46.25069" lon="6.80294">
        <ele>1335.6</ele>
        <time>2022-03-06T13:23:27Z</time>
      </trkpt>
      <trkpt lat="46.25067" lon="6.80297">
        <ele>1334.8</ele>
        <time>2022-03-06T13:23:29Z</time>
      </trkpt>
      <trkpt lat="46.25067" lon="6.80298">
        <ele>1334.4</ele>
        <time>2022-03-06T13:23:30Z</time>
      </trkpt>
      <trkpt lat="46.25066" lon="6.80299">
        <ele>1334.2</ele>
        <time>2022-03-06T13:23:31Z</time>
      </trkpt>
      <trkpt lat="46.25066" lon="6.80301">
        <ele>1333.8</ele>
        <time>2022-03-06T13:23:32Z</time>
      </trkpt>
      <trkpt lat="46.25067" lon="6.80302">
        <ele>1333.4</ele>
        <time>2022-03-06T13:23:33Z</time>
      </trkpt>
      <trkpt lat="46.25066" lon="6.80304">
        <ele>1332.8</ele>
        <time>2022-03-06T13:23:34Z</time>
      </trkpt>
      <trkpt lat="46.25066" lon="6.80306">
        <ele>1332.4</ele>
        <time>2022-03-06T13:23:35Z</time>
      </trkpt>
      <trkpt lat="46.25067" lon="6.80311">
        <ele>1331.6</ele>
        <time>2022-03-06T13:23:37Z</time>
      </trkpt>
      <trkpt lat="46.2506" lon="6.80317">
        <ele>1329.8</ele>
        <time>2022-03-06T13:23:43Z</time>
      </trkpt>
      <trkpt lat="46.25061" lon="6.80319">
        <ele>1329.6</ele>
        <time>2022-03-06T13:23:44Z</time>
      </trkpt>
      <trkpt lat="46.25064" lon="6.80325">
        <ele>1328.8</ele>
        <time>2022-03-06T13:23:47Z</time>
      </trkpt>
      <trkpt lat="46.25065" lon="6.8033">
        <ele>1328</ele>
        <time>2022-03-06T13:23:50Z</time>
      </trkpt>
      <trkpt lat="46.25065" lon="6.80331">
        <ele>1327.8</ele>
        <time>2022-03-06T13:23:51Z</time>
      </trkpt>
      <trkpt lat="46.25065" lon="6.80332">
        <ele>1327.2</ele>
        <time>2022-03-06T13:23:52Z</time>
      </trkpt>
      <trkpt lat="46.25066" lon="6.80334">
        <ele>1327</ele>
        <time>2022-03-06T13:23:53Z</time>
      </trkpt>
      <trkpt lat="46.25066" lon="6.80336">
        <ele>1326.6</ele>
        <time>2022-03-06T13:23:54Z</time>
      </trkpt>
      <trkpt lat="46.25066" lon="6.80338">
        <ele>1326.6</ele>
        <time>2022-03-06T13:23:55Z</time>
      </trkpt>
      <trkpt lat="46.25067" lon="6.80339">
        <ele>1326.2</ele>
        <time>2022-03-06T13:23:56Z</time>
      </trkpt>
      <trkpt lat="46.25068" lon="6.8034">
        <ele>1326</ele>
        <time>2022-03-06T13:23:57Z</time>
      </trkpt>
      <trkpt lat="46.25067" lon="6.80341">
        <ele>1325.8</ele>
        <time>2022-03-06T13:23:58Z</time>
      </trkpt>
      <trkpt lat="46.25066" lon="6.80342">
        <ele>1325.6</ele>
        <time>2022-03-06T13:23:59Z</time>
      </trkpt>
      <trkpt lat="46.25066" lon="6.80344">
        <ele>1325.2</ele>
        <time>2022-03-06T13:24:00Z</time>
      </trkpt>
      <trkpt lat="46.25066" lon="6.80346">
        <ele>1325</ele>
        <time>2022-03-06T13:24:01Z</time>
      </trkpt>
      <trkpt lat="46.25066" lon="6.80347">
        <ele>1324.8</ele>
        <time>2022-03-06T13:24:02Z</time>
      </trkpt>
      <trkpt lat="46.25066" lon="6.80348">
        <ele>1324.8</ele>
        <time>2022-03-06T13:24:03Z</time>
      </trkpt>
      <trkpt lat="46.25066" lon="6.80348">
        <ele>1324.6</ele>
        <time>2022-03-06T13:24:04Z</time>
      </trkpt>
      <trkpt lat="46.25066" lon="6.80348">
        <ele>1324.2</ele>
        <time>2022-03-06T13:24:05Z</time>
      </trkpt>
      <trkpt lat="46.25066" lon="6.80348">
        <ele>1324</ele>
        <time>2022-03-06T13:24:06Z</time>
      </trkpt>
      <trkpt lat="46.25066" lon="6.80348">
        <ele>1323.6</ele>
        <time>2022-03-06T13:24:07Z</time>
      </trkpt>
      <trkpt lat="46.25066" lon="6.80348">
        <ele>1323.4</ele>
        <time>2022-03-06T13:24:08Z</time>
      </trkpt>
      <trkpt lat="46.25067" lon="6.80348">
        <ele>1323.2</ele>
        <time>2022-03-06T13:24:09Z</time>
      </trkpt>
      <trkpt lat="46.2507" lon="6.80339">
        <ele>1321.6</ele>
        <time>2022-03-06T13:24:19Z</time>
      </trkpt>
      <trkpt lat="46.25077" lon="6.80335">
        <ele>1321.6</ele>
        <time>2022-03-06T13:24:34Z</time>
      </trkpt>
      <trkpt lat="46.25069" lon="6.80328">
        <ele>1321.6</ele>
        <time>2022-03-06T13:24:53Z</time>
      </trkpt>
      <trkpt lat="46.25069" lon="6.80328">
        <ele>1321.6</ele>
        <time>2022-03-06T13:25:26Z</time>
      </trkpt>
      <trkpt lat="46.25069" lon="6.80328">
        <ele>1321.6</ele>
        <time>2022-03-06T13:25:30Z</time>
      </trkpt>
      <trkpt lat="46.25071" lon="6.80341">
        <ele>1321.8</ele>
        <time>2022-03-06T13:25:50Z</time>
      </trkpt>
      <trkpt lat="46.25074" lon="6.80339">
        <ele>1321.6</ele>
        <time>2022-03-06T13:26:10Z</time>
      </trkpt>
      <trkpt lat="46.25076" lon="6.80336">
        <ele>1321.6</ele>
        <time>2022-03-06T13:26:21Z</time>
      </trkpt>
      <trkpt lat="46.25083" lon="6.80331">
        <ele>1321.6</ele>
        <time>2022-03-06T13:26:27Z</time>
      </trkpt>
      <trkpt lat="46.25087" lon="6.80325">
        <ele>1321.8</ele>
        <time>2022-03-06T13:26:34Z</time>
      </trkpt>
      <trkpt lat="46.25086" lon="6.80324">
        <ele>1321.8</ele>
        <time>2022-03-06T13:26:35Z</time>
      </trkpt>
      <trkpt lat="46.25085" lon="6.80324">
        <ele>1321.6</ele>
        <time>2022-03-06T13:26:37Z</time>
      </trkpt>
      <trkpt lat="46.25082" lon="6.80326">
        <ele>1321.8</ele>
        <time>2022-03-06T13:26:42Z</time>
      </trkpt>
      <trkpt lat="46.25093" lon="6.80318">
        <ele>1321.6</ele>
        <time>2022-03-06T13:26:58Z</time>
      </trkpt>
      <trkpt lat="46.25095" lon="6.80316">
        <ele>1321.6</ele>
        <time>2022-03-06T13:26:59Z</time>
      </trkpt>
      <trkpt lat="46.25096" lon="6.80315">
        <ele>1321.6</ele>
        <time>2022-03-06T13:27:00Z</time>
      </trkpt>
      <trkpt lat="46.25096" lon="6.80315">
        <ele>1321.6</ele>
        <time>2022-03-06T13:27:03Z</time>
      </trkpt>
      <trkpt lat="46.25097" lon="6.80316">
        <ele>1321.6</ele>
        <time>2022-03-06T13:27:04Z</time>
      </trkpt>
      <trkpt lat="46.25096" lon="6.80316">
        <ele>1321.6</ele>
        <time>2022-03-06T13:27:05Z</time>
      </trkpt>
      <trkpt lat="46.25095" lon="6.80317">
        <ele>1321.6</ele>
        <time>2022-03-06T13:27:06Z</time>
      </trkpt>
      <trkpt lat="46.25094" lon="6.80318">
        <ele>1321.6</ele>
        <time>2022-03-06T13:27:07Z</time>
      </trkpt>
      <trkpt lat="46.25091" lon="6.80321">
        <ele>1321.6</ele>
        <time>2022-03-06T13:27:11Z</time>
      </trkpt>
      <trkpt lat="46.25088" lon="6.80323">
        <ele>1321.6</ele>
        <time>2022-03-06T13:27:13Z</time>
      </trkpt>
      <trkpt lat="46.25069" lon="6.80328">
        <ele>1321.8</ele>
        <time>2022-03-06T13:27:33Z</time>
      </trkpt>
      <trkpt lat="46.25067" lon="6.80332">
        <ele>1321.6</ele>
        <time>2022-03-06T13:27:54Z</time>
      </trkpt>
      <trkpt lat="46.25067" lon="6.80332">
        <ele>1321.6</ele>
        <time>2022-03-06T13:27:58Z</time>
      </trkpt>
      <trkpt lat="46.25066" lon="6.80332">
        <ele>1321.6</ele>
        <time>2022-03-06T13:28:12Z</time>
      </trkpt>
      <trkpt lat="46.25063" lon="6.80336">
        <ele>1321.6</ele>
        <time>2022-03-06T13:28:23Z</time>
      </trkpt>
      <trkpt lat="46.25061" lon="6.80337">
        <ele>1321.4</ele>
        <time>2022-03-06T13:28:24Z</time>
      </trkpt>
      <trkpt lat="46.25065" lon="6.80336">
        <ele>1321.6</ele>
        <time>2022-03-06T13:28:26Z</time>
      </trkpt>
      <trkpt lat="46.25065" lon="6.80337">
        <ele>1321.6</ele>
        <time>2022-03-06T13:28:27Z</time>
      </trkpt>
      <trkpt lat="46.25064" lon="6.80338">
        <ele>1321.4</ele>
        <time>2022-03-06T13:28:28Z</time>
      </trkpt>
      <trkpt lat="46.25069" lon="6.80338">
        <ele>1321.6</ele>
        <time>2022-03-06T13:28:31Z</time>
      </trkpt>
      <trkpt lat="46.25071" lon="6.80338">
        <ele>1321.6</ele>
        <time>2022-03-06T13:28:32Z</time>
      </trkpt>
      <trkpt lat="46.25072" lon="6.8034">
        <ele>1321.4</ele>
        <time>2022-03-06T13:28:34Z</time>
      </trkpt>
      <trkpt lat="46.25073" lon="6.80341">
        <ele>1321.4</ele>
        <time>2022-03-06T13:28:35Z</time>
      </trkpt>
      <trkpt lat="46.25074" lon="6.80341">
        <ele>1321.4</ele>
        <time>2022-03-06T13:28:36Z</time>
      </trkpt>
      <trkpt lat="46.25075" lon="6.80343">
        <ele>1321</ele>
        <time>2022-03-06T13:28:37Z</time>
      </trkpt>
      <trkpt lat="46.25075" lon="6.80346">
        <ele>1321</ele>
        <time>2022-03-06T13:28:38Z</time>
      </trkpt>
      <trkpt lat="46.25074" lon="6.80348">
        <ele>1320.6</ele>
        <time>2022-03-06T13:28:39Z</time>
      </trkpt>
      <trkpt lat="46.25074" lon="6.8035">
        <ele>1320.6</ele>
        <time>2022-03-06T13:28:40Z</time>
      </trkpt>
      <trkpt lat="46.25074" lon="6.80351">
        <ele>1320.6</ele>
        <time>2022-03-06T13:28:41Z</time>
      </trkpt>
      <trkpt lat="46.25073" lon="6.80353">
        <ele>1320</ele>
        <time>2022-03-06T13:28:43Z</time>
      </trkpt>
      <trkpt lat="46.25073" lon="6.80355">
        <ele>1319.8</ele>
        <time>2022-03-06T13:28:44Z</time>
      </trkpt>
      <trkpt lat="46.2507" lon="6.8036">
        <ele>1319</ele>
        <time>2022-03-06T13:28:47Z</time>
      </trkpt>
      <trkpt lat="46.25067" lon="6.80367">
        <ele>1317.8</ele>
        <time>2022-03-06T13:28:50Z</time>
      </trkpt>
      <trkpt lat="46.25067" lon="6.80369">
        <ele>1317.4</ele>
        <time>2022-03-06T13:28:51Z</time>
      </trkpt>
      <trkpt lat="46.25067" lon="6.80371">
        <ele>1317</ele>
        <time>2022-03-06T13:28:52Z</time>
      </trkpt>
      <trkpt lat="46.25067" lon="6.80373">
        <ele>1316.6</ele>
        <time>2022-03-06T13:28:53Z</time>
      </trkpt>
      <trkpt lat="46.25068" lon="6.80375">
        <ele>1316</ele>
        <time>2022-03-06T13:28:54Z</time>
      </trkpt>
      <trkpt lat="46.25071" lon="6.80376">
        <ele>1315.8</ele>
        <time>2022-03-06T13:28:55Z</time>
      </trkpt>
      <trkpt lat="46.25072" lon="6.80378">
        <ele>1315.6</ele>
        <time>2022-03-06T13:28:56Z</time>
      </trkpt>
      <trkpt lat="46.25072" lon="6.8038">
        <ele>1315</ele>
        <time>2022-03-06T13:28:57Z</time>
      </trkpt>
      <trkpt lat="46.25072" lon="6.80382">
        <ele>1314.8</ele>
        <time>2022-03-06T13:28:58Z</time>
      </trkpt>
      <trkpt lat="46.25074" lon="6.80385">
        <ele>1314.8</ele>
        <time>2022-03-06T13:28:59Z</time>
      </trkpt>
      <trkpt lat="46.25078" lon="6.80388">
        <ele>1314.4</ele>
        <time>2022-03-06T13:29:00Z</time>
      </trkpt>
      <trkpt lat="46.2508" lon="6.80391">
        <ele>1314</ele>
        <time>2022-03-06T13:29:01Z</time>
      </trkpt>
      <trkpt lat="46.2508" lon="6.80393">
        <ele>1313.6</ele>
        <time>2022-03-06T13:29:02Z</time>
      </trkpt>
      <trkpt lat="46.25079" lon="6.80395">
        <ele>1313.4</ele>
        <time>2022-03-06T13:29:03Z</time>
      </trkpt>
      <trkpt lat="46.2508" lon="6.80401">
        <ele>1312.2</ele>
        <time>2022-03-06T13:29:06Z</time>
      </trkpt>
      <trkpt lat="46.2508" lon="6.80404">
        <ele>1311.8</ele>
        <time>2022-03-06T13:29:07Z</time>
      </trkpt>
      <trkpt lat="46.25081" lon="6.80408">
        <ele>1310.8</ele>
        <time>2022-03-06T13:29:10Z</time>
      </trkpt>
      <trkpt lat="46.25081" lon="6.80408">
        <ele>1310.6</ele>
        <time>2022-03-06T13:29:11Z</time>
      </trkpt>
      <trkpt lat="46.25081" lon="6.80409">
        <ele>1310.4</ele>
        <time>2022-03-06T13:29:12Z</time>
      </trkpt>
      <trkpt lat="46.25082" lon="6.80409">
        <ele>1310</ele>
        <time>2022-03-06T13:29:13Z</time>
      </trkpt>
      <trkpt lat="46.25083" lon="6.8041">
        <ele>1309.8</ele>
        <time>2022-03-06T13:29:14Z</time>
      </trkpt>
      <trkpt lat="46.25084" lon="6.80411">
        <ele>1309.6</ele>
        <time>2022-03-06T13:29:15Z</time>
      </trkpt>
      <trkpt lat="46.25084" lon="6.80413">
        <ele>1309.2</ele>
        <time>2022-03-06T13:29:16Z</time>
      </trkpt>
      <trkpt lat="46.25083" lon="6.80415">
        <ele>1309</ele>
        <time>2022-03-06T13:29:17Z</time>
      </trkpt>
      <trkpt lat="46.25084" lon="6.80418">
        <ele>1308.6</ele>
        <time>2022-03-06T13:29:18Z</time>
      </trkpt>
      <trkpt lat="46.25085" lon="6.80421">
        <ele>1308.2</ele>
        <time>2022-03-06T13:29:19Z</time>
      </trkpt>
      <trkpt lat="46.25085" lon="6.80424">
        <ele>1308</ele>
        <time>2022-03-06T13:29:20Z</time>
      </trkpt>
      <trkpt lat="46.25085" lon="6.80426">
        <ele>1308</ele>
        <time>2022-03-06T13:29:21Z</time>
      </trkpt>
      <trkpt lat="46.25084" lon="6.80428">
        <ele>1307.6</ele>
        <time>2022-03-06T13:29:22Z</time>
      </trkpt>
      <trkpt lat="46.25084" lon="6.80429">
        <ele>1307.4</ele>
        <time>2022-03-06T13:29:23Z</time>
      </trkpt>
      <trkpt lat="46.25084" lon="6.80431">
        <ele>1307</ele>
        <time>2022-03-06T13:29:24Z</time>
      </trkpt>
      <trkpt lat="46.25083" lon="6.80433">
        <ele>1306.6</ele>
        <time>2022-03-06T13:29:25Z</time>
      </trkpt>
      <trkpt lat="46.25081" lon="6.80435">
        <ele>1306</ele>
        <time>2022-03-06T13:29:27Z</time>
      </trkpt>
      <trkpt lat="46.25081" lon="6.80436">
        <ele>1305.6</ele>
        <time>2022-03-06T13:29:28Z</time>
      </trkpt>
      <trkpt lat="46.25081" lon="6.80438">
        <ele>1305.2</ele>
        <time>2022-03-06T13:29:29Z</time>
      </trkpt>
      <trkpt lat="46.25082" lon="6.80437">
        <ele>1305.2</ele>
        <time>2022-03-06T13:29:30Z</time>
      </trkpt>
      <trkpt lat="46.25083" lon="6.80436">
        <ele>1305</ele>
        <time>2022-03-06T13:29:31Z</time>
      </trkpt>
      <trkpt lat="46.25082" lon="6.80436">
        <ele>1304.8</ele>
        <time>2022-03-06T13:29:32Z</time>
      </trkpt>
      <trkpt lat="46.25082" lon="6.80436">
        <ele>1304.4</ele>
        <time>2022-03-06T13:29:33Z</time>
      </trkpt>
      <trkpt lat="46.25081" lon="6.80437">
        <ele>1304.2</ele>
        <time>2022-03-06T13:29:34Z</time>
      </trkpt>
      <trkpt lat="46.25079" lon="6.80436">
        <ele>1303.4</ele>
        <time>2022-03-06T13:29:37Z</time>
      </trkpt>
      <trkpt lat="46.2508" lon="6.80434">
        <ele>1303.2</ele>
        <time>2022-03-06T13:29:38Z</time>
      </trkpt>
      <trkpt lat="46.2508" lon="6.80431">
        <ele>1302.8</ele>
        <time>2022-03-06T13:29:39Z</time>
      </trkpt>
      <trkpt lat="46.25088" lon="6.80415">
        <ele>1302</ele>
        <time>2022-03-06T13:29:43Z</time>
      </trkpt>
      <trkpt lat="46.25081" lon="6.80406">
        <ele>1301</ele>
        <time>2022-03-06T13:29:48Z</time>
      </trkpt>
      <trkpt lat="46.25081" lon="6.80403">
        <ele>1300.8</ele>
        <time>2022-03-06T13:29:49Z</time>
      </trkpt>
      <trkpt lat="46.25079" lon="6.80401">
        <ele>1300.6</ele>
        <time>2022-03-06T13:29:50Z</time>
      </trkpt>
      <trkpt lat="46.25078" lon="6.804">
        <ele>1300.2</ele>
        <time>2022-03-06T13:29:51Z</time>
      </trkpt>
      <trkpt lat="46.25076" lon="6.80399">
        <ele>1300</ele>
        <time>2022-03-06T13:29:52Z</time>
      </trkpt>
      <trkpt lat="46.25074" lon="6.80399">
        <ele>1300</ele>
        <time>2022-03-06T13:29:53Z</time>
      </trkpt>
      <trkpt lat="46.25071" lon="6.80399">
        <ele>1299.8</ele>
        <time>2022-03-06T13:29:54Z</time>
      </trkpt>
      <trkpt lat="46.25069" lon="6.80399">
        <ele>1299.4</ele>
        <time>2022-03-06T13:29:55Z</time>
      </trkpt>
      <trkpt lat="46.25068" lon="6.80399">
        <ele>1299.2</ele>
        <time>2022-03-06T13:29:56Z</time>
      </trkpt>
      <trkpt lat="46.25067" lon="6.80399">
        <ele>1299</ele>
        <time>2022-03-06T13:29:57Z</time>
      </trkpt>
      <trkpt lat="46.25065" lon="6.80401">
        <ele>1298.8</ele>
        <time>2022-03-06T13:29:58Z</time>
      </trkpt>
      <trkpt lat="46.25063" lon="6.80404">
        <ele>1298.6</ele>
        <time>2022-03-06T13:29:59Z</time>
      </trkpt>
      <trkpt lat="46.25062" lon="6.80404">
        <ele>1298.4</ele>
        <time>2022-03-06T13:30:00Z</time>
      </trkpt>
      <trkpt lat="46.25059" lon="6.80401">
        <ele>1297.6</ele>
        <time>2022-03-06T13:30:04Z</time>
      </trkpt>
      <trkpt lat="46.25047" lon="6.80406">
        <ele>1296.4</ele>
        <time>2022-03-06T13:30:09Z</time>
      </trkpt>
      <trkpt lat="46.25041" lon="6.80411">
        <ele>1296</ele>
        <time>2022-03-06T13:30:12Z</time>
      </trkpt>
      <trkpt lat="46.25033" lon="6.80411">
        <ele>1294.8</ele>
        <time>2022-03-06T13:30:17Z</time>
      </trkpt>
      <trkpt lat="46.25031" lon="6.8041">
        <ele>1294.6</ele>
        <time>2022-03-06T13:30:18Z</time>
      </trkpt>
      <trkpt lat="46.25032" lon="6.80406">
        <ele>1294.2</ele>
        <time>2022-03-06T13:30:20Z</time>
      </trkpt>
      <trkpt lat="46.25035" lon="6.80402">
        <ele>1293.6</ele>
        <time>2022-03-06T13:30:23Z</time>
      </trkpt>
      <trkpt lat="46.25035" lon="6.80401">
        <ele>1293.4</ele>
        <time>2022-03-06T13:30:24Z</time>
      </trkpt>
      <trkpt lat="46.25035" lon="6.804">
        <ele>1293.2</ele>
        <time>2022-03-06T13:30:25Z</time>
      </trkpt>
      <trkpt lat="46.25032" lon="6.80398">
        <ele>1292.6</ele>
        <time>2022-03-06T13:30:28Z</time>
      </trkpt>
      <trkpt lat="46.25031" lon="6.80398">
        <ele>1292.6</ele>
        <time>2022-03-06T13:30:29Z</time>
      </trkpt>
      <trkpt lat="46.25031" lon="6.80397">
        <ele>1292.4</ele>
        <time>2022-03-06T13:30:30Z</time>
      </trkpt>
      <trkpt lat="46.25034" lon="6.80389">
        <ele>1292.2</ele>
        <time>2022-03-06T13:30:33Z</time>
      </trkpt>
      <trkpt lat="46.25034" lon="6.80387">
        <ele>1292</ele>
        <time>2022-03-06T13:30:34Z</time>
      </trkpt>
      <trkpt lat="46.25035" lon="6.80383">
        <ele>1291.8</ele>
        <time>2022-03-06T13:30:35Z</time>
      </trkpt>
      <trkpt lat="46.25035" lon="6.80379">
        <ele>1291.8</ele>
        <time>2022-03-06T13:30:36Z</time>
      </trkpt>
      <trkpt lat="46.25034" lon="6.80375">
        <ele>1291.6</ele>
        <time>2022-03-06T13:30:37Z</time>
      </trkpt>
      <trkpt lat="46.25033" lon="6.80372">
        <ele>1291.4</ele>
        <time>2022-03-06T13:30:38Z</time>
      </trkpt>
      <trkpt lat="46.2503" lon="6.80371">
        <ele>1291.2</ele>
        <time>2022-03-06T13:30:39Z</time>
      </trkpt>
      <trkpt lat="46.25027" lon="6.8037">
        <ele>1291</ele>
        <time>2022-03-06T13:30:40Z</time>
      </trkpt>
      <trkpt lat="46.25019" lon="6.80369">
        <ele>1290.8</ele>
        <time>2022-03-06T13:30:42Z</time>
      </trkpt>
      <trkpt lat="46.25016" lon="6.80368">
        <ele>1290.8</ele>
        <time>2022-03-06T13:30:43Z</time>
      </trkpt>
      <trkpt lat="46.25002" lon="6.80362">
        <ele>1290</ele>
        <time>2022-03-06T13:30:49Z</time>
      </trkpt>
      <trkpt lat="46.25002" lon="6.80358">
        <ele>1289.8</ele>
        <time>2022-03-06T13:30:50Z</time>
      </trkpt>
      <trkpt lat="46.25003" lon="6.80355">
        <ele>1289.6</ele>
        <time>2022-03-06T13:30:51Z</time>
      </trkpt>
      <trkpt lat="46.25004" lon="6.80351">
        <ele>1289.6</ele>
        <time>2022-03-06T13:30:52Z</time>
      </trkpt>
      <trkpt lat="46.25006" lon="6.80348">
        <ele>1289.4</ele>
        <time>2022-03-06T13:30:53Z</time>
      </trkpt>
      <trkpt lat="46.25007" lon="6.80343">
        <ele>1288.6</ele>
        <time>2022-03-06T13:30:57Z</time>
      </trkpt>
      <trkpt lat="46.25003" lon="6.80347">
        <ele>1288</ele>
        <time>2022-03-06T13:31:01Z</time>
      </trkpt>
      <trkpt lat="46.24999" lon="6.80351">
        <ele>1287.8</ele>
        <time>2022-03-06T13:31:04Z</time>
      </trkpt>
      <trkpt lat="46.24996" lon="6.80353">
        <ele>1287.4</ele>
        <time>2022-03-06T13:31:06Z</time>
      </trkpt>
      <trkpt lat="46.24995" lon="6.80354">
        <ele>1287.2</ele>
        <time>2022-03-06T13:31:07Z</time>
      </trkpt>
      <trkpt lat="46.24995" lon="6.80355">
        <ele>1287</ele>
        <time>2022-03-06T13:31:08Z</time>
      </trkpt>
      <trkpt lat="46.24995" lon="6.80357">
        <ele>1286.8</ele>
        <time>2022-03-06T13:31:10Z</time>
      </trkpt>
      <trkpt lat="46.24995" lon="6.80358">
        <ele>1286.6</ele>
        <time>2022-03-06T13:31:11Z</time>
      </trkpt>
      <trkpt lat="46.24996" lon="6.80359">
        <ele>1286.4</ele>
        <time>2022-03-06T13:31:12Z</time>
      </trkpt>
      <trkpt lat="46.25004" lon="6.80362">
        <ele>1285.2</ele>
        <time>2022-03-06T13:31:16Z</time>
      </trkpt>
      <trkpt lat="46.25007" lon="6.80362">
        <ele>1284.8</ele>
        <time>2022-03-06T13:31:17Z</time>
      </trkpt>
      <trkpt lat="46.25009" lon="6.80362">
        <ele>1284.6</ele>
        <time>2022-03-06T13:31:18Z</time>
      </trkpt>
      <trkpt lat="46.25009" lon="6.8036">
        <ele>1284</ele>
        <time>2022-03-06T13:31:20Z</time>
      </trkpt>
      <trkpt lat="46.2501" lon="6.80359">
        <ele>1283.8</ele>
        <time>2022-03-06T13:31:21Z</time>
      </trkpt>
      <trkpt lat="46.25009" lon="6.80359">
        <ele>1283.6</ele>
        <time>2022-03-06T13:31:22Z</time>
      </trkpt>
      <trkpt lat="46.25009" lon="6.80359">
        <ele>1283.4</ele>
        <time>2022-03-06T13:31:23Z</time>
      </trkpt>
      <trkpt lat="46.25009" lon="6.8036">
        <ele>1283</ele>
        <time>2022-03-06T13:31:24Z</time>
      </trkpt>
      <trkpt lat="46.25008" lon="6.80366">
        <ele>1282</ele>
        <time>2022-03-06T13:31:28Z</time>
      </trkpt>
      <trkpt lat="46.25009" lon="6.80368">
        <ele>1281.8</ele>
        <time>2022-03-06T13:31:29Z</time>
      </trkpt>
      <trkpt lat="46.2501" lon="6.80371">
        <ele>1281.2</ele>
        <time>2022-03-06T13:31:30Z</time>
      </trkpt>
      <trkpt lat="46.25011" lon="6.80373">
        <ele>1281</ele>
        <time>2022-03-06T13:31:31Z</time>
      </trkpt>
      <trkpt lat="46.2501" lon="6.80378">
        <ele>1280</ele>
        <time>2022-03-06T13:31:33Z</time>
      </trkpt>
      <trkpt lat="46.2501" lon="6.80381">
        <ele>1279.8</ele>
        <time>2022-03-06T13:31:34Z</time>
      </trkpt>
      <trkpt lat="46.25009" lon="6.80381">
        <ele>1279.4</ele>
        <time>2022-03-06T13:31:35Z</time>
      </trkpt>
      <trkpt lat="46.25011" lon="6.8038">
        <ele>1278.8</ele>
        <time>2022-03-06T13:31:37Z</time>
      </trkpt>
      <trkpt lat="46.25012" lon="6.8038">
        <ele>1278.8</ele>
        <time>2022-03-06T13:31:38Z</time>
      </trkpt>
      <trkpt lat="46.25018" lon="6.80376">
        <ele>1278.2</ele>
        <time>2022-03-06T13:31:40Z</time>
      </trkpt>
      <trkpt lat="46.25019" lon="6.80377">
        <ele>1277.8</ele>
        <time>2022-03-06T13:31:41Z</time>
      </trkpt>
      <trkpt lat="46.2502" lon="6.80379">
        <ele>1277.6</ele>
        <time>2022-03-06T13:31:42Z</time>
      </trkpt>
      <trkpt lat="46.25021" lon="6.8038">
        <ele>1277.4</ele>
        <time>2022-03-06T13:31:43Z</time>
      </trkpt>
      <trkpt lat="46.25023" lon="6.80384">
        <ele>1276.6</ele>
        <time>2022-03-06T13:31:46Z</time>
      </trkpt>
      <trkpt lat="46.25024" lon="6.80385">
        <ele>1276.4</ele>
        <time>2022-03-06T13:31:47Z</time>
      </trkpt>
      <trkpt lat="46.25024" lon="6.80387">
        <ele>1276</ele>
        <time>2022-03-06T13:31:48Z</time>
      </trkpt>
      <trkpt lat="46.25025" lon="6.80391">
        <ele>1275</ele>
        <time>2022-03-06T13:31:52Z</time>
      </trkpt>
      <trkpt lat="46.25026" lon="6.80392">
        <ele>1274.4</ele>
        <time>2022-03-06T13:31:54Z</time>
      </trkpt>
      <trkpt lat="46.25027" lon="6.80393">
        <ele>1274.2</ele>
        <time>2022-03-06T13:31:55Z</time>
      </trkpt>
      <trkpt lat="46.25028" lon="6.80394">
        <ele>1273.8</ele>
        <time>2022-03-06T13:31:56Z</time>
      </trkpt>
      <trkpt lat="46.25027" lon="6.80399">
        <ele>1273</ele>
        <time>2022-03-06T13:31:59Z</time>
      </trkpt>
      <trkpt lat="46.25029" lon="6.804">
        <ele>1273</ele>
        <time>2022-03-06T13:32:00Z</time>
      </trkpt>
      <trkpt lat="46.2503" lon="6.80401">
        <ele>1273</ele>
        <time>2022-03-06T13:32:01Z</time>
      </trkpt>
      <trkpt lat="46.25033" lon="6.80403">
        <ele>1272.4</ele>
        <time>2022-03-06T13:32:03Z</time>
      </trkpt>
      <trkpt lat="46.25034" lon="6.80404">
        <ele>1272.4</ele>
        <time>2022-03-06T13:32:04Z</time>
      </trkpt>
      <trkpt lat="46.25039" lon="6.80409">
        <ele>1271.2</ele>
        <time>2022-03-06T13:32:08Z</time>
      </trkpt>
      <trkpt lat="46.25041" lon="6.8041">
        <ele>1270.8</ele>
        <time>2022-03-06T13:32:09Z</time>
      </trkpt>
      <trkpt lat="46.25041" lon="6.80414">
        <ele>1270.6</ele>
        <time>2022-03-06T13:32:11Z</time>
      </trkpt>
      <trkpt lat="46.25041" lon="6.80415">
        <ele>1270.4</ele>
        <time>2022-03-06T13:32:12Z</time>
      </trkpt>
      <trkpt lat="46.25043" lon="6.80415">
        <ele>1270.2</ele>
        <time>2022-03-06T13:32:13Z</time>
      </trkpt>
      <trkpt lat="46.25043" lon="6.80416">
        <ele>1270</ele>
        <time>2022-03-06T13:32:14Z</time>
      </trkpt>
      <trkpt lat="46.25042" lon="6.80417">
        <ele>1269.6</ele>
        <time>2022-03-06T13:32:15Z</time>
      </trkpt>
      <trkpt lat="46.25043" lon="6.80419">
        <ele>1269.4</ele>
        <time>2022-03-06T13:32:16Z</time>
      </trkpt>
      <trkpt lat="46.25042" lon="6.80421">
        <ele>1269.2</ele>
        <time>2022-03-06T13:32:17Z</time>
      </trkpt>
      <trkpt lat="46.25041" lon="6.80423">
        <ele>1269.2</ele>
        <time>2022-03-06T13:32:18Z</time>
      </trkpt>
      <trkpt lat="46.25049" lon="6.80419">
        <ele>1268.4</ele>
        <time>2022-03-06T13:32:21Z</time>
      </trkpt>
      <trkpt lat="46.2505" lon="6.80422">
        <ele>1268</ele>
        <time>2022-03-06T13:32:24Z</time>
      </trkpt>
      <trkpt lat="46.25051" lon="6.80423">
        <ele>1267.8</ele>
        <time>2022-03-06T13:32:25Z</time>
      </trkpt>
      <trkpt lat="46.2505" lon="6.80424">
        <ele>1267.2</ele>
        <time>2022-03-06T13:32:26Z</time>
      </trkpt>
      <trkpt lat="46.25051" lon="6.80426">
        <ele>1266.8</ele>
        <time>2022-03-06T13:32:27Z</time>
      </trkpt>
      <trkpt lat="46.25052" lon="6.80429">
        <ele>1266.6</ele>
        <time>2022-03-06T13:32:28Z</time>
      </trkpt>
      <trkpt lat="46.25053" lon="6.80432">
        <ele>1266.2</ele>
        <time>2022-03-06T13:32:29Z</time>
      </trkpt>
      <trkpt lat="46.25054" lon="6.80435">
        <ele>1266</ele>
        <time>2022-03-06T13:32:30Z</time>
      </trkpt>
      <trkpt lat="46.25054" lon="6.8044">
        <ele>1265.8</ele>
        <time>2022-03-06T13:32:32Z</time>
      </trkpt>
      <trkpt lat="46.25054" lon="6.80444">
        <ele>1265.2</ele>
        <time>2022-03-06T13:32:34Z</time>
      </trkpt>
      <trkpt lat="46.25054" lon="6.80446">
        <ele>1265.2</ele>
        <time>2022-03-06T13:32:35Z</time>
      </trkpt>
      <trkpt lat="46.25053" lon="6.80448">
        <ele>1264.8</ele>
        <time>2022-03-06T13:32:36Z</time>
      </trkpt>
      <trkpt lat="46.25054" lon="6.80455">
        <ele>1264</ele>
        <time>2022-03-06T13:32:39Z</time>
      </trkpt>
      <trkpt lat="46.25054" lon="6.80457">
        <ele>1264</ele>
        <time>2022-03-06T13:32:40Z</time>
      </trkpt>
      <trkpt lat="46.25053" lon="6.80459">
        <ele>1263.6</ele>
        <time>2022-03-06T13:32:41Z</time>
      </trkpt>
      <trkpt lat="46.25053" lon="6.8046">
        <ele>1263.4</ele>
        <time>2022-03-06T13:32:42Z</time>
      </trkpt>
      <trkpt lat="46.25053" lon="6.80461">
        <ele>1263.2</ele>
        <time>2022-03-06T13:32:43Z</time>
      </trkpt>
      <trkpt lat="46.25053" lon="6.80462">
        <ele>1263</ele>
        <time>2022-03-06T13:32:44Z</time>
      </trkpt>
      <trkpt lat="46.25053" lon="6.80463">
        <ele>1262.8</ele>
        <time>2022-03-06T13:32:45Z</time>
      </trkpt>
      <trkpt lat="46.25054" lon="6.80465">
        <ele>1262.8</ele>
        <time>2022-03-06T13:32:46Z</time>
      </trkpt>
      <trkpt lat="46.25055" lon="6.80466">
        <ele>1262.4</ele>
        <time>2022-03-06T13:32:47Z</time>
      </trkpt>
      <trkpt lat="46.25055" lon="6.80468">
        <ele>1262.2</ele>
        <time>2022-03-06T13:32:48Z</time>
      </trkpt>
      <trkpt lat="46.25055" lon="6.8047">
        <ele>1262</ele>
        <time>2022-03-06T13:32:49Z</time>
      </trkpt>
      <trkpt lat="46.25056" lon="6.80472">
        <ele>1261.8</ele>
        <time>2022-03-06T13:32:50Z</time>
      </trkpt>
      <trkpt lat="46.25057" lon="6.80473">
        <ele>1261.4</ele>
        <time>2022-03-06T13:32:51Z</time>
      </trkpt>
      <trkpt lat="46.25059" lon="6.80477">
        <ele>1261</ele>
        <time>2022-03-06T13:32:54Z</time>
      </trkpt>
      <trkpt lat="46.25062" lon="6.80479">
        <ele>1260.4</ele>
        <time>2022-03-06T13:32:57Z</time>
      </trkpt>
      <trkpt lat="46.25062" lon="6.80479">
        <ele>1260.2</ele>
        <time>2022-03-06T13:32:58Z</time>
      </trkpt>
      <trkpt lat="46.25062" lon="6.8048">
        <ele>1260</ele>
        <time>2022-03-06T13:32:59Z</time>
      </trkpt>
      <trkpt lat="46.25062" lon="6.8048">
        <ele>1259.8</ele>
        <time>2022-03-06T13:33:00Z</time>
      </trkpt>
      <trkpt lat="46.25061" lon="6.8048">
        <ele>1259.8</ele>
        <time>2022-03-06T13:33:01Z</time>
      </trkpt>
      <trkpt lat="46.25063" lon="6.8048">
        <ele>1259.6</ele>
        <time>2022-03-06T13:33:02Z</time>
      </trkpt>
      <trkpt lat="46.25062" lon="6.80486">
        <ele>1259.2</ele>
        <time>2022-03-06T13:33:04Z</time>
      </trkpt>
      <trkpt lat="46.25061" lon="6.8049">
        <ele>1258.8</ele>
        <time>2022-03-06T13:33:05Z</time>
      </trkpt>
      <trkpt lat="46.25061" lon="6.80492">
        <ele>1258.6</ele>
        <time>2022-03-06T13:33:06Z</time>
      </trkpt>
      <trkpt lat="46.2506" lon="6.80501">
        <ele>1257.8</ele>
        <time>2022-03-06T13:33:10Z</time>
      </trkpt>
      <trkpt lat="46.2506" lon="6.80504">
        <ele>1257.6</ele>
        <time>2022-03-06T13:33:11Z</time>
      </trkpt>
      <trkpt lat="46.25061" lon="6.80506">
        <ele>1257.2</ele>
        <time>2022-03-06T13:33:12Z</time>
      </trkpt>
      <trkpt lat="46.2506" lon="6.80506">
        <ele>1256.8</ele>
        <time>2022-03-06T13:33:13Z</time>
      </trkpt>
      <trkpt lat="46.2506" lon="6.80507">
        <ele>1256.6</ele>
        <time>2022-03-06T13:33:14Z</time>
      </trkpt>
      <trkpt lat="46.25059" lon="6.80509">
        <ele>1256</ele>
        <time>2022-03-06T13:33:16Z</time>
      </trkpt>
      <trkpt lat="46.2506" lon="6.8051">
        <ele>1255.8</ele>
        <time>2022-03-06T13:33:17Z</time>
      </trkpt>
      <trkpt lat="46.25062" lon="6.80517">
        <ele>1254.8</ele>
        <time>2022-03-06T13:33:20Z</time>
      </trkpt>
      <trkpt lat="46.25063" lon="6.80519">
        <ele>1254.4</ele>
        <time>2022-03-06T13:33:21Z</time>
      </trkpt>
      <trkpt lat="46.25063" lon="6.80519">
        <ele>1254</ele>
        <time>2022-03-06T13:33:22Z</time>
      </trkpt>
      <trkpt lat="46.25063" lon="6.80519">
        <ele>1253.6</ele>
        <time>2022-03-06T13:33:23Z</time>
      </trkpt>
      <trkpt lat="46.25064" lon="6.8052">
        <ele>1253.4</ele>
        <time>2022-03-06T13:33:24Z</time>
      </trkpt>
      <trkpt lat="46.25064" lon="6.8052">
        <ele>1253.2</ele>
        <time>2022-03-06T13:33:25Z</time>
      </trkpt>
      <trkpt lat="46.25065" lon="6.8052">
        <ele>1253</ele>
        <time>2022-03-06T13:33:26Z</time>
      </trkpt>
      <trkpt lat="46.25066" lon="6.8052">
        <ele>1252.6</ele>
        <time>2022-03-06T13:33:27Z</time>
      </trkpt>
      <trkpt lat="46.25067" lon="6.80521">
        <ele>1252.4</ele>
        <time>2022-03-06T13:33:28Z</time>
      </trkpt>
      <trkpt lat="46.25068" lon="6.80526">
        <ele>1251.6</ele>
        <time>2022-03-06T13:33:31Z</time>
      </trkpt>
      <trkpt lat="46.25067" lon="6.80532">
        <ele>1251.4</ele>
        <time>2022-03-06T13:33:33Z</time>
      </trkpt>
      <trkpt lat="46.25064" lon="6.80538">
        <ele>1251.2</ele>
        <time>2022-03-06T13:33:35Z</time>
      </trkpt>
      <trkpt lat="46.25064" lon="6.80541">
        <ele>1251</ele>
        <time>2022-03-06T13:33:36Z</time>
      </trkpt>
      <trkpt lat="46.25063" lon="6.80544">
        <ele>1250.6</ele>
        <time>2022-03-06T13:33:37Z</time>
      </trkpt>
      <trkpt lat="46.25061" lon="6.80549">
        <ele>1250.4</ele>
        <time>2022-03-06T13:33:38Z</time>
      </trkpt>
      <trkpt lat="46.25062" lon="6.80554">
        <ele>1249.4</ele>
        <time>2022-03-06T13:33:41Z</time>
      </trkpt>
      <trkpt lat="46.25062" lon="6.80556">
        <ele>1249.2</ele>
        <time>2022-03-06T13:33:42Z</time>
      </trkpt>
      <trkpt lat="46.25062" lon="6.80558">
        <ele>1248.8</ele>
        <time>2022-03-06T13:33:43Z</time>
      </trkpt>
      <trkpt lat="46.25063" lon="6.8056">
        <ele>1248.6</ele>
        <time>2022-03-06T13:33:44Z</time>
      </trkpt>
      <trkpt lat="46.25063" lon="6.80562">
        <ele>1248.4</ele>
        <time>2022-03-06T13:33:45Z</time>
      </trkpt>
      <trkpt lat="46.25063" lon="6.80564">
        <ele>1248</ele>
        <time>2022-03-06T13:33:46Z</time>
      </trkpt>
      <trkpt lat="46.25064" lon="6.80566">
        <ele>1247.8</ele>
        <time>2022-03-06T13:33:47Z</time>
      </trkpt>
      <trkpt lat="46.25064" lon="6.80569">
        <ele>1247.4</ele>
        <time>2022-03-06T13:33:49Z</time>
      </trkpt>
      <trkpt lat="46.25065" lon="6.8057">
        <ele>1247</ele>
        <time>2022-03-06T13:33:50Z</time>
      </trkpt>
      <trkpt lat="46.25064" lon="6.80571">
        <ele>1246.8</ele>
        <time>2022-03-06T13:33:51Z</time>
      </trkpt>
      <trkpt lat="46.25064" lon="6.80571">
        <ele>1246.6</ele>
        <time>2022-03-06T13:33:52Z</time>
      </trkpt>
      <trkpt lat="46.25064" lon="6.80572">
        <ele>1246.4</ele>
        <time>2022-03-06T13:33:53Z</time>
      </trkpt>
      <trkpt lat="46.25064" lon="6.80573">
        <ele>1246.4</ele>
        <time>2022-03-06T13:33:54Z</time>
      </trkpt>
      <trkpt lat="46.25064" lon="6.80575">
        <ele>1246</ele>
        <time>2022-03-06T13:33:56Z</time>
      </trkpt>
      <trkpt lat="46.25065" lon="6.80575">
        <ele>1245.8</ele>
        <time>2022-03-06T13:33:57Z</time>
      </trkpt>
      <trkpt lat="46.25065" lon="6.80575">
        <ele>1245.4</ele>
        <time>2022-03-06T13:33:58Z</time>
      </trkpt>
      <trkpt lat="46.25065" lon="6.80574">
        <ele>1245.2</ele>
        <time>2022-03-06T13:33:59Z</time>
      </trkpt>
      <trkpt lat="46.25065" lon="6.80572">
        <ele>1244.6</ele>
        <time>2022-03-06T13:34:01Z</time>
      </trkpt>
      <trkpt lat="46.25067" lon="6.80581">
        <ele>1243.2</ele>
        <time>2022-03-06T13:34:06Z</time>
      </trkpt>
      <trkpt lat="46.25066" lon="6.80583">
        <ele>1243</ele>
        <time>2022-03-06T13:34:07Z</time>
      </trkpt>
      <trkpt lat="46.25065" lon="6.80589">
        <ele>1242.6</ele>
        <time>2022-03-06T13:34:09Z</time>
      </trkpt>
      <trkpt lat="46.25064" lon="6.80592">
        <ele>1242.4</ele>
        <time>2022-03-06T13:34:10Z</time>
      </trkpt>
      <trkpt lat="46.25064" lon="6.80593">
        <ele>1241.6</ele>
        <time>2022-03-06T13:34:13Z</time>
      </trkpt>
      <trkpt lat="46.25064" lon="6.80594">
        <ele>1241.4</ele>
        <time>2022-03-06T13:34:14Z</time>
      </trkpt>
      <trkpt lat="46.25064" lon="6.80596">
        <ele>1241</ele>
        <time>2022-03-06T13:34:15Z</time>
      </trkpt>
      <trkpt lat="46.25064" lon="6.80597">
        <ele>1241</ele>
        <time>2022-03-06T13:34:16Z</time>
      </trkpt>
      <trkpt lat="46.25064" lon="6.80599">
        <ele>1240.6</ele>
        <time>2022-03-06T13:34:17Z</time>
      </trkpt>
      <trkpt lat="46.25064" lon="6.806">
        <ele>1240.6</ele>
        <time>2022-03-06T13:34:18Z</time>
      </trkpt>
      <trkpt lat="46.25064" lon="6.80601">
        <ele>1240.6</ele>
        <time>2022-03-06T13:34:19Z</time>
      </trkpt>
      <trkpt lat="46.25064" lon="6.80603">
        <ele>1240.6</ele>
        <time>2022-03-06T13:34:20Z</time>
      </trkpt>
      <trkpt lat="46.25064" lon="6.80604">
        <ele>1240.4</ele>
        <time>2022-03-06T13:34:21Z</time>
      </trkpt>
      <trkpt lat="46.25064" lon="6.80605">
        <ele>1240.2</ele>
        <time>2022-03-06T13:34:22Z</time>
      </trkpt>
      <trkpt lat="46.25064" lon="6.80607">
        <ele>1240</ele>
        <time>2022-03-06T13:34:23Z</time>
      </trkpt>
      <trkpt lat="46.25065" lon="6.8061">
        <ele>1239.8</ele>
        <time>2022-03-06T13:34:24Z</time>
      </trkpt>
      <trkpt lat="46.25065" lon="6.80611">
        <ele>1239.6</ele>
        <time>2022-03-06T13:34:25Z</time>
      </trkpt>
      <trkpt lat="46.25066" lon="6.80612">
        <ele>1239</ele>
        <time>2022-03-06T13:34:28Z</time>
      </trkpt>
      <trkpt lat="46.25067" lon="6.80613">
        <ele>1238.6</ele>
        <time>2022-03-06T13:34:29Z</time>
      </trkpt>
      <trkpt lat="46.25068" lon="6.80614">
        <ele>1238.4</ele>
        <time>2022-03-06T13:34:30Z</time>
      </trkpt>
      <trkpt lat="46.25068" lon="6.80615">
        <ele>1238.4</ele>
        <time>2022-03-06T13:34:31Z</time>
      </trkpt>
      <trkpt lat="46.25069" lon="6.80616">
        <ele>1238.2</ele>
        <time>2022-03-06T13:34:32Z</time>
      </trkpt>
      <trkpt lat="46.2507" lon="6.80617">
        <ele>1238</ele>
        <time>2022-03-06T13:34:33Z</time>
      </trkpt>
      <trkpt lat="46.2507" lon="6.80618">
        <ele>1237.8</ele>
        <time>2022-03-06T13:34:35Z</time>
      </trkpt>
      <trkpt lat="46.25071" lon="6.80619">
        <ele>1237.8</ele>
        <time>2022-03-06T13:34:36Z</time>
      </trkpt>
      <trkpt lat="46.25072" lon="6.8062">
        <ele>1237.4</ele>
        <time>2022-03-06T13:34:37Z</time>
      </trkpt>
      <trkpt lat="46.25072" lon="6.8062">
        <ele>1237</ele>
        <time>2022-03-06T13:34:38Z</time>
      </trkpt>
      <trkpt lat="46.25073" lon="6.80621">
        <ele>1236.8</ele>
        <time>2022-03-06T13:34:39Z</time>
      </trkpt>
      <trkpt lat="46.25075" lon="6.80627">
        <ele>1236.6</ele>
        <time>2022-03-06T13:34:41Z</time>
      </trkpt>
      <trkpt lat="46.25079" lon="6.80634">
        <ele>1234.8</ele>
        <time>2022-03-06T13:34:46Z</time>
      </trkpt>
      <trkpt lat="46.25079" lon="6.80635">
        <ele>1234.6</ele>
        <time>2022-03-06T13:34:47Z</time>
      </trkpt>
      <trkpt lat="46.25079" lon="6.80638">
        <ele>1234.4</ele>
        <time>2022-03-06T13:34:48Z</time>
      </trkpt>
      <trkpt lat="46.25081" lon="6.80643">
        <ele>1233.6</ele>
        <time>2022-03-06T13:34:51Z</time>
      </trkpt>
      <trkpt lat="46.25083" lon="6.80643">
        <ele>1233.4</ele>
        <time>2022-03-06T13:34:52Z</time>
      </trkpt>
      <trkpt lat="46.25083" lon="6.80643">
        <ele>1232.8</ele>
        <time>2022-03-06T13:34:54Z</time>
      </trkpt>
      <trkpt lat="46.25085" lon="6.80644">
        <ele>1232.4</ele>
        <time>2022-03-06T13:34:56Z</time>
      </trkpt>
      <trkpt lat="46.25085" lon="6.80647">
        <ele>1232</ele>
        <time>2022-03-06T13:34:58Z</time>
      </trkpt>
      <trkpt lat="46.25084" lon="6.80648">
        <ele>1231.8</ele>
        <time>2022-03-06T13:34:59Z</time>
      </trkpt>
      <trkpt lat="46.25084" lon="6.80649">
        <ele>1231.6</ele>
        <time>2022-03-06T13:35:00Z</time>
      </trkpt>
      <trkpt lat="46.25084" lon="6.8065">
        <ele>1231</ele>
        <time>2022-03-06T13:35:02Z</time>
      </trkpt>
      <trkpt lat="46.25084" lon="6.80651">
        <ele>1231</ele>
        <time>2022-03-06T13:35:03Z</time>
      </trkpt>
      <trkpt lat="46.25084" lon="6.80651">
        <ele>1230.8</ele>
        <time>2022-03-06T13:35:04Z</time>
      </trkpt>
      <trkpt lat="46.25084" lon="6.80651">
        <ele>1230.6</ele>
        <time>2022-03-06T13:35:05Z</time>
      </trkpt>
      <trkpt lat="46.25086" lon="6.80653">
        <ele>1230.4</ele>
        <time>2022-03-06T13:35:06Z</time>
      </trkpt>
      <trkpt lat="46.25087" lon="6.80654">
        <ele>1230.2</ele>
        <time>2022-03-06T13:35:07Z</time>
      </trkpt>
      <trkpt lat="46.25088" lon="6.80655">
        <ele>1229.8</ele>
        <time>2022-03-06T13:35:09Z</time>
      </trkpt>
      <trkpt lat="46.25089" lon="6.80657">
        <ele>1229.2</ele>
        <time>2022-03-06T13:35:12Z</time>
      </trkpt>
      <trkpt lat="46.2509" lon="6.80669">
        <ele>1228.4</ele>
        <time>2022-03-06T13:35:17Z</time>
      </trkpt>
      <trkpt lat="46.2509" lon="6.80672">
        <ele>1228.2</ele>
        <time>2022-03-06T13:35:19Z</time>
      </trkpt>
      <trkpt lat="46.2509" lon="6.80672">
        <ele>1228</ele>
        <time>2022-03-06T13:35:20Z</time>
      </trkpt>
      <trkpt lat="46.2509" lon="6.80673">
        <ele>1228</ele>
        <time>2022-03-06T13:35:21Z</time>
      </trkpt>
      <trkpt lat="46.25092" lon="6.80678">
        <ele>1226.8</ele>
        <time>2022-03-06T13:35:27Z</time>
      </trkpt>
      <trkpt lat="46.25091" lon="6.80681">
        <ele>1226.4</ele>
        <time>2022-03-06T13:35:28Z</time>
      </trkpt>
      <trkpt lat="46.2509" lon="6.80684">
        <ele>1225.6</ele>
        <time>2022-03-06T13:35:31Z</time>
      </trkpt>
      <trkpt lat="46.2509" lon="6.80686">
        <ele>1225.4</ele>
        <time>2022-03-06T13:35:32Z</time>
      </trkpt>
      <trkpt lat="46.25089" lon="6.80692">
        <ele>1224.6</ele>
        <time>2022-03-06T13:35:36Z</time>
      </trkpt>
      <trkpt lat="46.25089" lon="6.80693">
        <ele>1224.6</ele>
        <time>2022-03-06T13:35:37Z</time>
      </trkpt>
      <trkpt lat="46.2509" lon="6.80694">
        <ele>1224.2</ele>
        <time>2022-03-06T13:35:38Z</time>
      </trkpt>
      <trkpt lat="46.2509" lon="6.80694">
        <ele>1223.8</ele>
        <time>2022-03-06T13:35:39Z</time>
      </trkpt>
      <trkpt lat="46.25089" lon="6.80694">
        <ele>1223.6</ele>
        <time>2022-03-06T13:35:40Z</time>
      </trkpt>
      <trkpt lat="46.25089" lon="6.80695">
        <ele>1223.4</ele>
        <time>2022-03-06T13:35:41Z</time>
      </trkpt>
      <trkpt lat="46.25088" lon="6.80696">
        <ele>1223</ele>
        <time>2022-03-06T13:35:42Z</time>
      </trkpt>
      <trkpt lat="46.25083" lon="6.80699">
        <ele>1222.6</ele>
        <time>2022-03-06T13:35:44Z</time>
      </trkpt>
      <trkpt lat="46.25082" lon="6.80702">
        <ele>1222.4</ele>
        <time>2022-03-06T13:35:45Z</time>
      </trkpt>
      <trkpt lat="46.2508" lon="6.80703">
        <ele>1222.2</ele>
        <time>2022-03-06T13:35:46Z</time>
      </trkpt>
      <trkpt lat="46.25079" lon="6.80705">
        <ele>1221.8</ele>
        <time>2022-03-06T13:35:48Z</time>
      </trkpt>
      <trkpt lat="46.25079" lon="6.80706">
        <ele>1221.8</ele>
        <time>2022-03-06T13:35:49Z</time>
      </trkpt>
      <trkpt lat="46.25079" lon="6.80707">
        <ele>1221.4</ele>
        <time>2022-03-06T13:35:50Z</time>
      </trkpt>
      <trkpt lat="46.2508" lon="6.80708">
        <ele>1221.2</ele>
        <time>2022-03-06T13:35:51Z</time>
      </trkpt>
      <trkpt lat="46.25082" lon="6.80713">
        <ele>1221</ele>
        <time>2022-03-06T13:35:54Z</time>
      </trkpt>
      <trkpt lat="46.25082" lon="6.80716">
        <ele>1220.4</ele>
        <time>2022-03-06T13:35:56Z</time>
      </trkpt>
      <trkpt lat="46.25082" lon="6.80716">
        <ele>1220.2</ele>
        <time>2022-03-06T13:35:57Z</time>
      </trkpt>
      <trkpt lat="46.2508" lon="6.80719">
        <ele>1219.4</ele>
        <time>2022-03-06T13:36:03Z</time>
      </trkpt>
      <trkpt lat="46.25077" lon="6.80723">
        <ele>1218.6</ele>
        <time>2022-03-06T13:36:07Z</time>
      </trkpt>
      <trkpt lat="46.25076" lon="6.80724">
        <ele>1218.4</ele>
        <time>2022-03-06T13:36:08Z</time>
      </trkpt>
      <trkpt lat="46.25078" lon="6.80727">
        <ele>1218.2</ele>
        <time>2022-03-06T13:36:09Z</time>
      </trkpt>
      <trkpt lat="46.25084" lon="6.80735">
        <ele>1217.8</ele>
        <time>2022-03-06T13:36:12Z</time>
      </trkpt>
      <trkpt lat="46.25085" lon="6.80737">
        <ele>1217.6</ele>
        <time>2022-03-06T13:36:13Z</time>
      </trkpt>
      <trkpt lat="46.25084" lon="6.80738">
        <ele>1217.4</ele>
        <time>2022-03-06T13:36:14Z</time>
      </trkpt>
      <trkpt lat="46.25083" lon="6.80743">
        <ele>1216.6</ele>
        <time>2022-03-06T13:36:17Z</time>
      </trkpt>
      <trkpt lat="46.25083" lon="6.80749">
        <ele>1215.6</ele>
        <time>2022-03-06T13:36:20Z</time>
      </trkpt>
      <trkpt lat="46.25084" lon="6.8075">
        <ele>1215.4</ele>
        <time>2022-03-06T13:36:21Z</time>
      </trkpt>
      <trkpt lat="46.25084" lon="6.80751">
        <ele>1214.8</ele>
        <time>2022-03-06T13:36:24Z</time>
      </trkpt>
      <trkpt lat="46.25084" lon="6.80751">
        <ele>1214.4</ele>
        <time>2022-03-06T13:36:25Z</time>
      </trkpt>
      <trkpt lat="46.25083" lon="6.80752">
        <ele>1213.2</ele>
        <time>2022-03-06T13:36:29Z</time>
      </trkpt>
      <trkpt lat="46.25083" lon="6.80751">
        <ele>1212.8</ele>
        <time>2022-03-06T13:36:30Z</time>
      </trkpt>
      <trkpt lat="46.25083" lon="6.80749">
        <ele>1212</ele>
        <time>2022-03-06T13:36:32Z</time>
      </trkpt>
      <trkpt lat="46.25089" lon="6.80749">
        <ele>1210.8</ele>
        <time>2022-03-06T13:36:37Z</time>
      </trkpt>
      <trkpt lat="46.25087" lon="6.80752">
        <ele>1210</ele>
        <time>2022-03-06T13:36:40Z</time>
      </trkpt>
      <trkpt lat="46.25078" lon="6.8076">
        <ele>1208.6</ele>
        <time>2022-03-06T13:36:45Z</time>
      </trkpt>
      <trkpt lat="46.25075" lon="6.80763">
        <ele>1208.2</ele>
        <time>2022-03-06T13:36:46Z</time>
      </trkpt>
      <trkpt lat="46.25075" lon="6.80764">
        <ele>1207.8</ele>
        <time>2022-03-06T13:36:47Z</time>
      </trkpt>
      <trkpt lat="46.25075" lon="6.80764">
        <ele>1207.8</ele>
        <time>2022-03-06T13:36:48Z</time>
      </trkpt>
      <trkpt lat="46.25076" lon="6.80764">
        <ele>1206.6</ele>
        <time>2022-03-06T13:36:53Z</time>
      </trkpt>
      <trkpt lat="46.25074" lon="6.80767">
        <ele>1206.6</ele>
        <time>2022-03-06T13:37:04Z</time>
      </trkpt>
      <trkpt lat="46.25068" lon="6.80789">
        <ele>1206.4</ele>
        <time>2022-03-06T13:37:14Z</time>
      </trkpt>
      <trkpt lat="46.25069" lon="6.8079">
        <ele>1206.6</ele>
        <time>2022-03-06T13:37:22Z</time>
      </trkpt>
      <trkpt lat="46.25069" lon="6.8079">
        <ele>1206.6</ele>
        <time>2022-03-06T13:37:23Z</time>
      </trkpt>
      <trkpt lat="46.25068" lon="6.80791">
        <ele>1206.6</ele>
        <time>2022-03-06T13:37:24Z</time>
      </trkpt>
      <trkpt lat="46.25067" lon="6.80787">
        <ele>1206.6</ele>
        <time>2022-03-06T13:37:32Z</time>
      </trkpt>
      <trkpt lat="46.25065" lon="6.80791">
        <ele>1206.4</ele>
        <time>2022-03-06T13:37:38Z</time>
      </trkpt>
      <trkpt lat="46.25065" lon="6.80791">
        <ele>1206.2</ele>
        <time>2022-03-06T13:37:39Z</time>
      </trkpt>
      <trkpt lat="46.25065" lon="6.80793">
        <ele>1206.4</ele>
        <time>2022-03-06T13:37:40Z</time>
      </trkpt>
      <trkpt lat="46.25065" lon="6.80795">
        <ele>1206.4</ele>
        <time>2022-03-06T13:37:43Z</time>
      </trkpt>
      <trkpt lat="46.25065" lon="6.80795">
        <ele>1206.2</ele>
        <time>2022-03-06T13:37:44Z</time>
      </trkpt>
      <trkpt lat="46.25065" lon="6.80795">
        <ele>1206</ele>
        <time>2022-03-06T13:37:45Z</time>
      </trkpt>
      <trkpt lat="46.25065" lon="6.80795">
        <ele>1206</ele>
        <time>2022-03-06T13:37:46Z</time>
      </trkpt>
      <trkpt lat="46.25066" lon="6.80795">
        <ele>1205.8</ele>
        <time>2022-03-06T13:37:47Z</time>
      </trkpt>
      <trkpt lat="46.25066" lon="6.80795">
        <ele>1205.4</ele>
        <time>2022-03-06T13:37:48Z</time>
      </trkpt>
      <trkpt lat="46.25067" lon="6.80797">
        <ele>1204.4</ele>
        <time>2022-03-06T13:37:51Z</time>
      </trkpt>
      <trkpt lat="46.25067" lon="6.80797">
        <ele>1204.2</ele>
        <time>2022-03-06T13:37:52Z</time>
      </trkpt>
      <trkpt lat="46.25068" lon="6.80803">
        <ele>1203</ele>
        <time>2022-03-06T13:37:56Z</time>
      </trkpt>
      <trkpt lat="46.25069" lon="6.80805">
        <ele>1202.8</ele>
        <time>2022-03-06T13:37:57Z</time>
      </trkpt>
      <trkpt lat="46.25069" lon="6.80807">
        <ele>1202.4</ele>
        <time>2022-03-06T13:37:59Z</time>
      </trkpt>
      <trkpt lat="46.2507" lon="6.80813">
        <ele>1201.6</ele>
        <time>2022-03-06T13:38:03Z</time>
      </trkpt>
      <trkpt lat="46.2507" lon="6.80817">
        <ele>1201.4</ele>
        <time>2022-03-06T13:38:05Z</time>
      </trkpt>
      <trkpt lat="46.25069" lon="6.80825">
        <ele>1200.8</ele>
        <time>2022-03-06T13:38:08Z</time>
      </trkpt>
      <trkpt lat="46.25067" lon="6.80827">
        <ele>1200.6</ele>
        <time>2022-03-06T13:38:09Z</time>
      </trkpt>
      <trkpt lat="46.25064" lon="6.8083">
        <ele>1200.6</ele>
        <time>2022-03-06T13:38:10Z</time>
      </trkpt>
      <trkpt lat="46.25062" lon="6.80835">
        <ele>1200</ele>
        <time>2022-03-06T13:38:13Z</time>
      </trkpt>
      <trkpt lat="46.25062" lon="6.80836">
        <ele>1199.6</ele>
        <time>2022-03-06T13:38:14Z</time>
      </trkpt>
      <trkpt lat="46.25061" lon="6.80838">
        <ele>1199.4</ele>
        <time>2022-03-06T13:38:15Z</time>
      </trkpt>
      <trkpt lat="46.25061" lon="6.80839">
        <ele>1199.2</ele>
        <time>2022-03-06T13:38:16Z</time>
      </trkpt>
      <trkpt lat="46.25059" lon="6.80842">
        <ele>1198.6</ele>
        <time>2022-03-06T13:38:18Z</time>
      </trkpt>
      <trkpt lat="46.25059" lon="6.80844">
        <ele>1198.6</ele>
        <time>2022-03-06T13:38:19Z</time>
      </trkpt>
      <trkpt lat="46.25058" lon="6.80845">
        <ele>1198.4</ele>
        <time>2022-03-06T13:38:20Z</time>
      </trkpt>
      <trkpt lat="46.25056" lon="6.80848">
        <ele>1198</ele>
        <time>2022-03-06T13:38:22Z</time>
      </trkpt>
      <trkpt lat="46.25055" lon="6.80848">
        <ele>1197.8</ele>
        <time>2022-03-06T13:38:23Z</time>
      </trkpt>
      <trkpt lat="46.25055" lon="6.80849">
        <ele>1197.6</ele>
        <time>2022-03-06T13:38:24Z</time>
      </trkpt>
      <trkpt lat="46.25054" lon="6.8085">
        <ele>1197.4</ele>
        <time>2022-03-06T13:38:25Z</time>
      </trkpt>
      <trkpt lat="46.25054" lon="6.8085">
        <ele>1197.2</ele>
        <time>2022-03-06T13:38:26Z</time>
      </trkpt>
      <trkpt lat="46.25053" lon="6.8085">
        <ele>1197.2</ele>
        <time>2022-03-06T13:38:27Z</time>
      </trkpt>
      <trkpt lat="46.25053" lon="6.80851">
        <ele>1197.2</ele>
        <time>2022-03-06T13:38:28Z</time>
      </trkpt>
      <trkpt lat="46.25052" lon="6.80852">
        <ele>1197.2</ele>
        <time>2022-03-06T13:38:29Z</time>
      </trkpt>
      <trkpt lat="46.25051" lon="6.80853">
        <ele>1197</ele>
        <time>2022-03-06T13:38:30Z</time>
      </trkpt>
      <trkpt lat="46.25051" lon="6.80854">
        <ele>1197</ele>
        <time>2022-03-06T13:38:31Z</time>
      </trkpt>
      <trkpt lat="46.2505" lon="6.80854">
        <ele>1196.2</ele>
        <time>2022-03-06T13:38:34Z</time>
      </trkpt>
      <trkpt lat="46.2506" lon="6.80853">
        <ele>1196</ele>
        <time>2022-03-06T13:38:42Z</time>
      </trkpt>
      <trkpt lat="46.25062" lon="6.80855">
        <ele>1196</ele>
        <time>2022-03-06T13:38:45Z</time>
      </trkpt>
      <trkpt lat="46.25069" lon="6.80858">
        <ele>1195.6</ele>
        <time>2022-03-06T13:38:51Z</time>
      </trkpt>
      <trkpt lat="46.25069" lon="6.80861">
        <ele>1195.6</ele>
        <time>2022-03-06T13:38:55Z</time>
      </trkpt>
      <trkpt lat="46.25069" lon="6.80861">
        <ele>1195.4</ele>
        <time>2022-03-06T13:38:56Z</time>
      </trkpt>
      <trkpt lat="46.25069" lon="6.80861">
        <ele>1195.4</ele>
        <time>2022-03-06T13:38:57Z</time>
      </trkpt>
      <trkpt lat="46.25071" lon="6.80861">
        <ele>1195.4</ele>
        <time>2022-03-06T13:39:01Z</time>
      </trkpt>
      <trkpt lat="46.25068" lon="6.80865">
        <ele>1195.4</ele>
        <time>2022-03-06T13:39:09Z</time>
      </trkpt>
      <trkpt lat="46.25067" lon="6.80867">
        <ele>1195.4</ele>
        <time>2022-03-06T13:39:11Z</time>
      </trkpt>
      <trkpt lat="46.25065" lon="6.8087">
        <ele>1195.4</ele>
        <time>2022-03-06T13:39:17Z</time>
      </trkpt>
      <trkpt lat="46.25068" lon="6.80869">
        <ele>1195.2</ele>
        <time>2022-03-06T13:39:19Z</time>
      </trkpt>
      <trkpt lat="46.25067" lon="6.80871">
        <ele>1194.8</ele>
        <time>2022-03-06T13:39:22Z</time>
      </trkpt>
      <trkpt lat="46.25067" lon="6.80872">
        <ele>1194.6</ele>
        <time>2022-03-06T13:39:24Z</time>
      </trkpt>
      <trkpt lat="46.25066" lon="6.80873">
        <ele>1194.6</ele>
        <time>2022-03-06T13:39:25Z</time>
      </trkpt>
      <trkpt lat="46.25065" lon="6.80875">
        <ele>1193.8</ele>
        <time>2022-03-06T13:39:29Z</time>
      </trkpt>
      <trkpt lat="46.25063" lon="6.80878">
        <ele>1193.4</ele>
        <time>2022-03-06T13:39:32Z</time>
      </trkpt>
      <trkpt lat="46.25061" lon="6.8088">
        <ele>1192.8</ele>
        <time>2022-03-06T13:39:34Z</time>
      </trkpt>
      <trkpt lat="46.25059" lon="6.80882">
        <ele>1192.6</ele>
        <time>2022-03-06T13:39:36Z</time>
      </trkpt>
      <trkpt lat="46.25055" lon="6.80887">
        <ele>1192.4</ele>
        <time>2022-03-06T13:39:39Z</time>
      </trkpt>
      <trkpt lat="46.25054" lon="6.80889">
        <ele>1192.2</ele>
        <time>2022-03-06T13:39:40Z</time>
      </trkpt>
      <trkpt lat="46.25053" lon="6.8089">
        <ele>1192.2</ele>
        <time>2022-03-06T13:39:41Z</time>
      </trkpt>
      <trkpt lat="46.25053" lon="6.8089">
        <ele>1192</ele>
        <time>2022-03-06T13:39:42Z</time>
      </trkpt>
      <trkpt lat="46.25053" lon="6.80891">
        <ele>1191.6</ele>
        <time>2022-03-06T13:39:43Z</time>
      </trkpt>
      <trkpt lat="46.25053" lon="6.80891">
        <ele>1191.6</ele>
        <time>2022-03-06T13:39:44Z</time>
      </trkpt>
      <trkpt lat="46.25053" lon="6.80892">
        <ele>1191.2</ele>
        <time>2022-03-06T13:39:45Z</time>
      </trkpt>
      <trkpt lat="46.25053" lon="6.80892">
        <ele>1191</ele>
        <time>2022-03-06T13:39:46Z</time>
      </trkpt>
      <trkpt lat="46.25053" lon="6.80893">
        <ele>1191</ele>
        <time>2022-03-06T13:39:47Z</time>
      </trkpt>
      <trkpt lat="46.25052" lon="6.80896">
        <ele>1190.2</ele>
        <time>2022-03-06T13:39:52Z</time>
      </trkpt>
      <trkpt lat="46.25053" lon="6.80896">
        <ele>1190.2</ele>
        <time>2022-03-06T13:39:53Z</time>
      </trkpt>
      <trkpt lat="46.25053" lon="6.80897">
        <ele>1190</ele>
        <time>2022-03-06T13:39:54Z</time>
      </trkpt>
      <trkpt lat="46.25046" lon="6.80904">
        <ele>1189.2</ele>
        <time>2022-03-06T13:39:59Z</time>
      </trkpt>
      <trkpt lat="46.25044" lon="6.80906">
        <ele>1189</ele>
        <time>2022-03-06T13:40:02Z</time>
      </trkpt>
      <trkpt lat="46.25042" lon="6.80907">
        <ele>1188.6</ele>
        <time>2022-03-06T13:40:03Z</time>
      </trkpt>
      <trkpt lat="46.2504" lon="6.80909">
        <ele>1188.2</ele>
        <time>2022-03-06T13:40:05Z</time>
      </trkpt>
      <trkpt lat="46.25041" lon="6.80909">
        <ele>1188</ele>
        <time>2022-03-06T13:40:06Z</time>
      </trkpt>
      <trkpt lat="46.25039" lon="6.8091">
        <ele>1188</ele>
        <time>2022-03-06T13:40:07Z</time>
      </trkpt>
      <trkpt lat="46.25038" lon="6.80912">
        <ele>1187.6</ele>
        <time>2022-03-06T13:40:09Z</time>
      </trkpt>
      <trkpt lat="46.25038" lon="6.80913">
        <ele>1187.4</ele>
        <time>2022-03-06T13:40:10Z</time>
      </trkpt>
      <trkpt lat="46.25037" lon="6.80914">
        <ele>1187.4</ele>
        <time>2022-03-06T13:40:11Z</time>
      </trkpt>
      <trkpt lat="46.25036" lon="6.80915">
        <ele>1187.2</ele>
        <time>2022-03-06T13:40:12Z</time>
      </trkpt>
      <trkpt lat="46.25035" lon="6.80917">
        <ele>1187</ele>
        <time>2022-03-06T13:40:14Z</time>
      </trkpt>
      <trkpt lat="46.25031" lon="6.8092">
        <ele>1186.8</ele>
        <time>2022-03-06T13:40:18Z</time>
      </trkpt>
      <trkpt lat="46.2503" lon="6.8092">
        <ele>1186.6</ele>
        <time>2022-03-06T13:40:19Z</time>
      </trkpt>
      <trkpt lat="46.2503" lon="6.80921">
        <ele>1186.4</ele>
        <time>2022-03-06T13:40:20Z</time>
      </trkpt>
      <trkpt lat="46.2503" lon="6.80922">
        <ele>1186.4</ele>
        <time>2022-03-06T13:40:21Z</time>
      </trkpt>
      <trkpt lat="46.2503" lon="6.80924">
        <ele>1186.2</ele>
        <time>2022-03-06T13:40:22Z</time>
      </trkpt>
      <trkpt lat="46.25029" lon="6.80928">
        <ele>1186</ele>
        <time>2022-03-06T13:40:24Z</time>
      </trkpt>
      <trkpt lat="46.2503" lon="6.80929">
        <ele>1186</ele>
        <time>2022-03-06T13:40:25Z</time>
      </trkpt>
      <trkpt lat="46.2503" lon="6.80931">
        <ele>1185.8</ele>
        <time>2022-03-06T13:40:26Z</time>
      </trkpt>
      <trkpt lat="46.2503" lon="6.80932">
        <ele>1185.6</ele>
        <time>2022-03-06T13:40:27Z</time>
      </trkpt>
      <trkpt lat="46.25031" lon="6.80936">
        <ele>1185.4</ele>
        <time>2022-03-06T13:40:28Z</time>
      </trkpt>
      <trkpt lat="46.25031" lon="6.80937">
        <ele>1185.4</ele>
        <time>2022-03-06T13:40:29Z</time>
      </trkpt>
      <trkpt lat="46.25032" lon="6.80938">
        <ele>1185.2</ele>
        <time>2022-03-06T13:40:30Z</time>
      </trkpt>
      <trkpt lat="46.25033" lon="6.80939">
        <ele>1185</ele>
        <time>2022-03-06T13:40:31Z</time>
      </trkpt>
      <trkpt lat="46.25034" lon="6.8094">
        <ele>1185.2</ele>
        <time>2022-03-06T13:40:32Z</time>
      </trkpt>
      <trkpt lat="46.25034" lon="6.8094">
        <ele>1184.8</ele>
        <time>2022-03-06T13:40:33Z</time>
      </trkpt>
      <trkpt lat="46.25037" lon="6.80949">
        <ele>1185</ele>
        <time>2022-03-06T13:40:35Z</time>
      </trkpt>
      <trkpt lat="46.25037" lon="6.80953">
        <ele>1184.8</ele>
        <time>2022-03-06T13:40:38Z</time>
      </trkpt>
      <trkpt lat="46.25037" lon="6.80951">
        <ele>1184.8</ele>
        <time>2022-03-06T13:40:40Z</time>
      </trkpt>
      <trkpt lat="46.25038" lon="6.8095">
        <ele>1184.8</ele>
        <time>2022-03-06T13:40:42Z</time>
      </trkpt>
      <trkpt lat="46.25034" lon="6.80951">
        <ele>1184.8</ele>
        <time>2022-03-06T13:40:51Z</time>
      </trkpt>
      <trkpt lat="46.25033" lon="6.80954">
        <ele>1184.6</ele>
        <time>2022-03-06T13:41:01Z</time>
      </trkpt>
      <trkpt lat="46.25033" lon="6.80953">
        <ele>1184.6</ele>
        <time>2022-03-06T13:41:13Z</time>
      </trkpt>
      <trkpt lat="46.25037" lon="6.80952">
        <ele>1184.6</ele>
        <time>2022-03-06T13:41:24Z</time>
      </trkpt>
      <trkpt lat="46.2504" lon="6.80956">
        <ele>1184.6</ele>
        <time>2022-03-06T13:41:29Z</time>
      </trkpt>
      <trkpt lat="46.25039" lon="6.80956">
        <ele>1184.4</ele>
        <time>2022-03-06T13:41:30Z</time>
      </trkpt>
      <trkpt lat="46.25043" lon="6.80956">
        <ele>1184.4</ele>
        <time>2022-03-06T13:41:34Z</time>
      </trkpt>
      <trkpt lat="46.25045" lon="6.80957">
        <ele>1184.6</ele>
        <time>2022-03-06T13:41:36Z</time>
      </trkpt>
      <trkpt lat="46.25045" lon="6.80957">
        <ele>1184.6</ele>
        <time>2022-03-06T13:41:37Z</time>
      </trkpt>
      <trkpt lat="46.2505" lon="6.80956">
        <ele>1184.4</ele>
        <time>2022-03-06T13:41:40Z</time>
      </trkpt>
      <trkpt lat="46.2505" lon="6.80957">
        <ele>1184.6</ele>
        <time>2022-03-06T13:41:41Z</time>
      </trkpt>
      <trkpt lat="46.25051" lon="6.80957">
        <ele>1184.4</ele>
        <time>2022-03-06T13:41:42Z</time>
      </trkpt>
      <trkpt lat="46.25052" lon="6.80957">
        <ele>1184.4</ele>
        <time>2022-03-06T13:41:43Z</time>
      </trkpt>
      <trkpt lat="46.25053" lon="6.80957">
        <ele>1184.4</ele>
        <time>2022-03-06T13:41:44Z</time>
      </trkpt>
      <trkpt lat="46.25054" lon="6.80956">
        <ele>1184.4</ele>
        <time>2022-03-06T13:41:45Z</time>
      </trkpt>
      <trkpt lat="46.25055" lon="6.80956">
        <ele>1184.4</ele>
        <time>2022-03-06T13:41:46Z</time>
      </trkpt>
      <trkpt lat="46.25055" lon="6.80956">
        <ele>1184.4</ele>
        <time>2022-03-06T13:41:47Z</time>
      </trkpt>
      <trkpt lat="46.25056" lon="6.80956">
        <ele>1184.2</ele>
        <time>2022-03-06T13:41:48Z</time>
      </trkpt>
      <trkpt lat="46.25057" lon="6.80957">
        <ele>1184.2</ele>
        <time>2022-03-06T13:41:49Z</time>
      </trkpt>
      <trkpt lat="46.25058" lon="6.80957">
        <ele>1184.2</ele>
        <time>2022-03-06T13:41:50Z</time>
      </trkpt>
      <trkpt lat="46.2506" lon="6.80957">
        <ele>1184.2</ele>
        <time>2022-03-06T13:41:51Z</time>
      </trkpt>
      <trkpt lat="46.25062" lon="6.80957">
        <ele>1184</ele>
        <time>2022-03-06T13:41:52Z</time>
      </trkpt>
      <trkpt lat="46.25063" lon="6.80957">
        <ele>1183.8</ele>
        <time>2022-03-06T13:41:54Z</time>
      </trkpt>
      <trkpt lat="46.25064" lon="6.80957">
        <ele>1183.6</ele>
        <time>2022-03-06T13:41:55Z</time>
      </trkpt>
      <trkpt lat="46.25065" lon="6.80956">
        <ele>1183.8</ele>
        <time>2022-03-06T13:41:56Z</time>
      </trkpt>
      <trkpt lat="46.25069" lon="6.80956">
        <ele>1183.2</ele>
        <time>2022-03-06T13:41:59Z</time>
      </trkpt>
      <trkpt lat="46.25071" lon="6.80955">
        <ele>1183.2</ele>
        <time>2022-03-06T13:42:01Z</time>
      </trkpt>
      <trkpt lat="46.25072" lon="6.80955">
        <ele>1183</ele>
        <time>2022-03-06T13:42:02Z</time>
      </trkpt>
      <trkpt lat="46.25073" lon="6.80956">
        <ele>1183</ele>
        <time>2022-03-06T13:42:03Z</time>
      </trkpt>
      <trkpt lat="46.25074" lon="6.80956">
        <ele>1182.6</ele>
        <time>2022-03-06T13:42:04Z</time>
      </trkpt>
      <trkpt lat="46.25075" lon="6.80956">
        <ele>1182.6</ele>
        <time>2022-03-06T13:42:05Z</time>
      </trkpt>
      <trkpt lat="46.25075" lon="6.80957">
        <ele>1182.4</ele>
        <time>2022-03-06T13:42:06Z</time>
      </trkpt>
      <trkpt lat="46.25074" lon="6.80957">
        <ele>1182.4</ele>
        <time>2022-03-06T13:42:07Z</time>
      </trkpt>
      <trkpt lat="46.25074" lon="6.80958">
        <ele>1182.4</ele>
        <time>2022-03-06T13:42:08Z</time>
      </trkpt>
      <trkpt lat="46.25074" lon="6.80959">
        <ele>1182.2</ele>
        <time>2022-03-06T13:42:09Z</time>
      </trkpt>
      <trkpt lat="46.25074" lon="6.8096">
        <ele>1182</ele>
        <time>2022-03-06T13:42:10Z</time>
      </trkpt>
      <trkpt lat="46.25074" lon="6.80961">
        <ele>1181.8</ele>
        <time>2022-03-06T13:42:11Z</time>
      </trkpt>
      <trkpt lat="46.25075" lon="6.80964">
        <ele>1181.8</ele>
        <time>2022-03-06T13:42:13Z</time>
      </trkpt>
      <trkpt lat="46.25074" lon="6.80966">
        <ele>1181.4</ele>
        <time>2022-03-06T13:42:14Z</time>
      </trkpt>
      <trkpt lat="46.25074" lon="6.80967">
        <ele>1181.4</ele>
        <time>2022-03-06T13:42:15Z</time>
      </trkpt>
      <trkpt lat="46.25074" lon="6.80969">
        <ele>1181.2</ele>
        <time>2022-03-06T13:42:16Z</time>
      </trkpt>
      <trkpt lat="46.25073" lon="6.80977">
        <ele>1180.8</ele>
        <time>2022-03-06T13:42:21Z</time>
      </trkpt>
      <trkpt lat="46.25073" lon="6.80978">
        <ele>1180.6</ele>
        <time>2022-03-06T13:42:22Z</time>
      </trkpt>
      <trkpt lat="46.25073" lon="6.80978">
        <ele>1180.4</ele>
        <time>2022-03-06T13:42:23Z</time>
      </trkpt>
      <trkpt lat="46.25073" lon="6.80978">
        <ele>1180.2</ele>
        <time>2022-03-06T13:42:24Z</time>
      </trkpt>
      <trkpt lat="46.25073" lon="6.80979">
        <ele>1180</ele>
        <time>2022-03-06T13:42:25Z</time>
      </trkpt>
      <trkpt lat="46.25074" lon="6.8098">
        <ele>1179.8</ele>
        <time>2022-03-06T13:42:26Z</time>
      </trkpt>
      <trkpt lat="46.25074" lon="6.80981">
        <ele>1179.6</ele>
        <time>2022-03-06T13:42:27Z</time>
      </trkpt>
      <trkpt lat="46.25081" lon="6.80982">
        <ele>1179</ele>
        <time>2022-03-06T13:42:30Z</time>
      </trkpt>
      <trkpt lat="46.25082" lon="6.80983">
        <ele>1179</ele>
        <time>2022-03-06T13:42:31Z</time>
      </trkpt>
      <trkpt lat="46.25086" lon="6.80981">
        <ele>1178.6</ele>
        <time>2022-03-06T13:42:33Z</time>
      </trkpt>
      <trkpt lat="46.25085" lon="6.80982">
        <ele>1178.6</ele>
        <time>2022-03-06T13:42:34Z</time>
      </trkpt>
      <trkpt lat="46.2508" lon="6.80987">
        <ele>1178.2</ele>
        <time>2022-03-06T13:42:37Z</time>
      </trkpt>
      <trkpt lat="46.25079" lon="6.80988">
        <ele>1178.2</ele>
        <time>2022-03-06T13:42:38Z</time>
      </trkpt>
      <trkpt lat="46.25065" lon="6.81002">
        <ele>1177.2</ele>
        <time>2022-03-06T13:42:45Z</time>
      </trkpt>
      <trkpt lat="46.25063" lon="6.81002">
        <ele>1177</ele>
        <time>2022-03-06T13:42:46Z</time>
      </trkpt>
      <trkpt lat="46.25059" lon="6.81003">
        <ele>1176.8</ele>
        <time>2022-03-06T13:42:47Z</time>
      </trkpt>
      <trkpt lat="46.25054" lon="6.81004">
        <ele>1176.8</ele>
        <time>2022-03-06T13:42:48Z</time>
      </trkpt>
      <trkpt lat="46.2505" lon="6.81005">
        <ele>1176.8</ele>
        <time>2022-03-06T13:42:50Z</time>
      </trkpt>
      <trkpt lat="46.25048" lon="6.81008">
        <ele>1176.4</ele>
        <time>2022-03-06T13:42:53Z</time>
      </trkpt>
      <trkpt lat="46.25048" lon="6.81009">
        <ele>1176.4</ele>
        <time>2022-03-06T13:42:54Z</time>
      </trkpt>
      <trkpt lat="46.25048" lon="6.8101">
        <ele>1176.2</ele>
        <time>2022-03-06T13:42:55Z</time>
      </trkpt>
      <trkpt lat="46.25048" lon="6.81012">
        <ele>1176</ele>
        <time>2022-03-06T13:42:56Z</time>
      </trkpt>
      <trkpt lat="46.25046" lon="6.81012">
        <ele>1176</ele>
        <time>2022-03-06T13:42:57Z</time>
      </trkpt>
      <trkpt lat="46.25043" lon="6.81014">
        <ele>1175.6</ele>
        <time>2022-03-06T13:43:01Z</time>
      </trkpt>
      <trkpt lat="46.25042" lon="6.81015">
        <ele>1175.4</ele>
        <time>2022-03-06T13:43:02Z</time>
      </trkpt>
      <trkpt lat="46.25041" lon="6.81017">
        <ele>1175.4</ele>
        <time>2022-03-06T13:43:03Z</time>
      </trkpt>
      <trkpt lat="46.2504" lon="6.81018">
        <ele>1175.6</ele>
        <time>2022-03-06T13:43:04Z</time>
      </trkpt>
      <trkpt lat="46.2504" lon="6.81019">
        <ele>1175.4</ele>
        <time>2022-03-06T13:43:05Z</time>
      </trkpt>
      <trkpt lat="46.25037" lon="6.8102">
        <ele>1175</ele>
        <time>2022-03-06T13:43:08Z</time>
      </trkpt>
      <trkpt lat="46.25039" lon="6.81025">
        <ele>1174.8</ele>
        <time>2022-03-06T13:43:09Z</time>
      </trkpt>
      <trkpt lat="46.25037" lon="6.81027">
        <ele>1174.6</ele>
        <time>2022-03-06T13:43:10Z</time>
      </trkpt>
      <trkpt lat="46.25036" lon="6.81028">
        <ele>1174.2</ele>
        <time>2022-03-06T13:43:11Z</time>
      </trkpt>
      <trkpt lat="46.25034" lon="6.81029">
        <ele>1174.2</ele>
        <time>2022-03-06T13:43:12Z</time>
      </trkpt>
      <trkpt lat="46.25027" lon="6.81031">
        <ele>1174</ele>
        <time>2022-03-06T13:43:15Z</time>
      </trkpt>
      <trkpt lat="46.25025" lon="6.81031">
        <ele>1174</ele>
        <time>2022-03-06T13:43:16Z</time>
      </trkpt>
      <trkpt lat="46.25024" lon="6.81031">
        <ele>1174.2</ele>
        <time>2022-03-06T13:43:17Z</time>
      </trkpt>
      <trkpt lat="46.25022" lon="6.81031">
        <ele>1174</ele>
        <time>2022-03-06T13:43:18Z</time>
      </trkpt>
      <trkpt lat="46.25021" lon="6.8103">
        <ele>1174</ele>
        <time>2022-03-06T13:43:19Z</time>
      </trkpt>
      <trkpt lat="46.2502" lon="6.81029">
        <ele>1174</ele>
        <time>2022-03-06T13:43:20Z</time>
      </trkpt>
      <trkpt lat="46.25019" lon="6.81028">
        <ele>1174</ele>
        <time>2022-03-06T13:43:21Z</time>
      </trkpt>
      <trkpt lat="46.25018" lon="6.81028">
        <ele>1174</ele>
        <time>2022-03-06T13:43:22Z</time>
      </trkpt>
      <trkpt lat="46.25017" lon="6.81026">
        <ele>1174</ele>
        <time>2022-03-06T13:43:23Z</time>
      </trkpt>
      <trkpt lat="46.25017" lon="6.81025">
        <ele>1174</ele>
        <time>2022-03-06T13:43:24Z</time>
      </trkpt>
      <trkpt lat="46.25016" lon="6.81024">
        <ele>1174</ele>
        <time>2022-03-06T13:43:25Z</time>
      </trkpt>
      <trkpt lat="46.25016" lon="6.81022">
        <ele>1174.2</ele>
        <time>2022-03-06T13:43:26Z</time>
      </trkpt>
      <trkpt lat="46.25014" lon="6.81018">
        <ele>1174.4</ele>
        <time>2022-03-06T13:43:29Z</time>
      </trkpt>
      <trkpt lat="46.25015" lon="6.81017">
        <ele>1174.6</ele>
        <time>2022-03-06T13:43:30Z</time>
      </trkpt>
      <trkpt lat="46.25014" lon="6.81016">
        <ele>1174.4</ele>
        <time>2022-03-06T13:43:31Z</time>
      </trkpt>
      <trkpt lat="46.25014" lon="6.81015">
        <ele>1174.6</ele>
        <time>2022-03-06T13:43:32Z</time>
      </trkpt>
      <trkpt lat="46.25013" lon="6.81015">
        <ele>1174.6</ele>
        <time>2022-03-06T13:43:33Z</time>
      </trkpt>
      <trkpt lat="46.25011" lon="6.81014">
        <ele>1174.6</ele>
        <time>2022-03-06T13:43:34Z</time>
      </trkpt>
      <trkpt lat="46.2501" lon="6.81012">
        <ele>1174.6</ele>
        <time>2022-03-06T13:43:35Z</time>
      </trkpt>
      <trkpt lat="46.25007" lon="6.81009">
        <ele>1174.6</ele>
        <time>2022-03-06T13:43:37Z</time>
      </trkpt>
      <trkpt lat="46.25006" lon="6.81009">
        <ele>1174.6</ele>
        <time>2022-03-06T13:43:38Z</time>
      </trkpt>
      <trkpt lat="46.25006" lon="6.81008">
        <ele>1174.6</ele>
        <time>2022-03-06T13:43:39Z</time>
      </trkpt>
      <trkpt lat="46.25003" lon="6.81006">
        <ele>1174.8</ele>
        <time>2022-03-06T13:43:42Z</time>
      </trkpt>
      <trkpt lat="46.25" lon="6.81008">
        <ele>1175.4</ele>
        <time>2022-03-06T13:43:51Z</time>
      </trkpt>
      <trkpt lat="46.25003" lon="6.81002">
        <ele>1175.2</ele>
        <time>2022-03-06T13:43:57Z</time>
      </trkpt>
      <trkpt lat="46.25005" lon="6.81002">
        <ele>1175.4</ele>
        <time>2022-03-06T13:44:06Z</time>
      </trkpt>
      <trkpt lat="46.25002" lon="6.81001">
        <ele>1175.4</ele>
        <time>2022-03-06T13:44:16Z</time>
      </trkpt>
      <trkpt lat="46.25001" lon="6.81">
        <ele>1175.4</ele>
        <time>2022-03-06T13:44:24Z</time>
      </trkpt>
      <trkpt lat="46.24999" lon="6.80995">
        <ele>1175.4</ele>
        <time>2022-03-06T13:44:34Z</time>
      </trkpt>
      <trkpt lat="46.25004" lon="6.80994">
        <ele>1175.4</ele>
        <time>2022-03-06T13:44:43Z</time>
      </trkpt>
      <trkpt lat="46.25004" lon="6.80995">
        <ele>1175.2</ele>
        <time>2022-03-06T13:44:52Z</time>
      </trkpt>
      <trkpt lat="46.25007" lon="6.80992">
        <ele>1175.2</ele>
        <time>2022-03-06T13:44:59Z</time>
      </trkpt>
      <trkpt lat="46.25006" lon="6.80991">
        <ele>1175</ele>
        <time>2022-03-06T13:45:11Z</time>
      </trkpt>
      <trkpt lat="46.25007" lon="6.80991">
        <ele>1175</ele>
        <time>2022-03-06T13:45:12Z</time>
      </trkpt>
      <trkpt lat="46.25007" lon="6.80991">
        <ele>1175</ele>
        <time>2022-03-06T13:45:13Z</time>
      </trkpt>
      <trkpt lat="46.25007" lon="6.8099">
        <ele>1175</ele>
        <time>2022-03-06T13:45:14Z</time>
      </trkpt>
      <trkpt lat="46.25006" lon="6.8099">
        <ele>1175</ele>
        <time>2022-03-06T13:45:15Z</time>
      </trkpt>
      <trkpt lat="46.25004" lon="6.8099">
        <ele>1175</ele>
        <time>2022-03-06T13:45:16Z</time>
      </trkpt>
      <trkpt lat="46.25001" lon="6.80991">
        <ele>1175</ele>
        <time>2022-03-06T13:45:18Z</time>
      </trkpt>
      <trkpt lat="46.25001" lon="6.8099">
        <ele>1175</ele>
        <time>2022-03-06T13:45:28Z</time>
      </trkpt>
      <trkpt lat="46.25002" lon="6.8099">
        <ele>1175</ele>
        <time>2022-03-06T13:45:38Z</time>
      </trkpt>
      <trkpt lat="46.25002" lon="6.80992">
        <ele>1175</ele>
        <time>2022-03-06T13:45:49Z</time>
      </trkpt>
      <trkpt lat="46.25006" lon="6.8099">
        <ele>1174.8</ele>
        <time>2022-03-06T13:46:00Z</time>
      </trkpt>
      <trkpt lat="46.25011" lon="6.80988">
        <ele>1174.8</ele>
        <time>2022-03-06T13:46:09Z</time>
      </trkpt>
      <trkpt lat="46.25013" lon="6.80986">
        <ele>1174.6</ele>
        <time>2022-03-06T13:46:15Z</time>
      </trkpt>
      <trkpt lat="46.25013" lon="6.80986">
        <ele>1174.8</ele>
        <time>2022-03-06T13:46:16Z</time>
      </trkpt>
      <trkpt lat="46.25009" lon="6.80988">
        <ele>1174.8</ele>
        <time>2022-03-06T13:46:19Z</time>
      </trkpt>
      <trkpt lat="46.25006" lon="6.80989">
        <ele>1175</ele>
        <time>2022-03-06T13:46:27Z</time>
      </trkpt>
      <trkpt lat="46.25008" lon="6.80995">
        <ele>1175</ele>
        <time>2022-03-06T13:46:35Z</time>
      </trkpt>
      <trkpt lat="46.25003" lon="6.80996">
        <ele>1175</ele>
        <time>2022-03-06T13:46:42Z</time>
      </trkpt>
      <trkpt lat="46.25006" lon="6.80997">
        <ele>1175</ele>
        <time>2022-03-06T13:46:53Z</time>
      </trkpt>
      <trkpt lat="46.25006" lon="6.80995">
        <ele>1175</ele>
        <time>2022-03-06T13:46:57Z</time>
      </trkpt>
      <trkpt lat="46.25004" lon="6.80996">
        <ele>1175</ele>
        <time>2022-03-06T13:47:02Z</time>
      </trkpt>
      <trkpt lat="46.25" lon="6.80997">
        <ele>1175</ele>
        <time>2022-03-06T13:47:07Z</time>
      </trkpt>
      <trkpt lat="46.24999" lon="6.80997">
        <ele>1174.8</ele>
        <time>2022-03-06T13:47:09Z</time>
      </trkpt>
      <trkpt lat="46.25001" lon="6.80995">
        <ele>1175</ele>
        <time>2022-03-06T13:47:20Z</time>
      </trkpt>
      <trkpt lat="46.25009" lon="6.80989">
        <ele>1174.8</ele>
        <time>2022-03-06T13:47:28Z</time>
      </trkpt>
      <trkpt lat="46.25009" lon="6.80988">
        <ele>1174.8</ele>
        <time>2022-03-06T13:47:29Z</time>
      </trkpt>
      <trkpt lat="46.25008" lon="6.80989">
        <ele>1175</ele>
        <time>2022-03-06T13:47:30Z</time>
      </trkpt>
      <trkpt lat="46.25013" lon="6.80984">
        <ele>1175.2</ele>
        <time>2022-03-06T13:47:39Z</time>
      </trkpt>
      <trkpt lat="46.25013" lon="6.80986">
        <ele>1175.2</ele>
        <time>2022-03-06T13:47:49Z</time>
      </trkpt>
      <trkpt lat="46.25007" lon="6.80989">
        <ele>1175.4</ele>
        <time>2022-03-06T13:47:54Z</time>
      </trkpt>
      <trkpt lat="46.25004" lon="6.80989">
        <ele>1175.2</ele>
        <time>2022-03-06T13:47:59Z</time>
      </trkpt>
      <trkpt lat="46.25003" lon="6.80989">
        <ele>1175.4</ele>
        <time>2022-03-06T13:48:08Z</time>
      </trkpt>
      <trkpt lat="46.25002" lon="6.80991">
        <ele>1174.8</ele>
        <time>2022-03-06T13:48:19Z</time>
      </trkpt>
      <trkpt lat="46.25002" lon="6.80991">
        <ele>1174.6</ele>
        <time>2022-03-06T13:48:30Z</time>
      </trkpt>
      <trkpt lat="46.25" lon="6.80994">
        <ele>1174.6</ele>
        <time>2022-03-06T13:48:34Z</time>
      </trkpt>
      <trkpt lat="46.24998" lon="6.80998">
        <ele>1174.8</ele>
        <time>2022-03-06T13:48:38Z</time>
      </trkpt>
      <trkpt lat="46.24997" lon="6.81">
        <ele>1174.8</ele>
        <time>2022-03-06T13:48:40Z</time>
      </trkpt>
      <trkpt lat="46.25008" lon="6.80993">
        <ele>1175</ele>
        <time>2022-03-06T13:48:45Z</time>
      </trkpt>
      <trkpt lat="46.25006" lon="6.80993">
        <ele>1175.2</ele>
        <time>2022-03-06T13:48:54Z</time>
      </trkpt>
      <trkpt lat="46.25008" lon="6.80991">
        <ele>1175.4</ele>
        <time>2022-03-06T13:49:03Z</time>
      </trkpt>
      <trkpt lat="46.25008" lon="6.80991">
        <ele>1175.4</ele>
        <time>2022-03-06T13:49:04Z</time>
      </trkpt>
      <trkpt lat="46.25008" lon="6.8099">
        <ele>1175.4</ele>
        <time>2022-03-06T13:49:05Z</time>
      </trkpt>
      <trkpt lat="46.25007" lon="6.8099">
        <ele>1175.4</ele>
        <time>2022-03-06T13:49:09Z</time>
      </trkpt>
    </trkseg>
  </trk>
</gpx>